<?xml version="1.0" encoding="UTF-8" standalone="no" ?>
<gpx xmlns="http://www.topografix.com/GPX/1/1" xmlns:xsi="http://www.w3.org/2001/XMLSchema-instance" xsi:schemaLocation="http://www.topografix.com/GPX/1/1 http://www.topografix.com/GPX/1/1/gpx.xsd" version="1.1" creator="VisuGPX - https://www.visugpx.com">
  <metadata>
    <name>Yerres  - Boucle 29 km</name>
    <desc><![CDATA[Sortie effectuée en octobre 2018 avec le Rando club Yerrois à l'occasion de la 10ème journée de la randonnée organisée par le club
Pas de difficultés particulières et comme tous les ans une très bonne ambiance dans le groupe .]]></desc>
  </metadata>
  <trk>
    <name><![CDATA[Yerres  - Boucle 29 km_1]]></name>
    <trkseg>
      <trkpt lat="48.71411" lon="2.49139">
        <ele>35.8</ele>
        <time>2018-10-14T06:43:38Z</time>
      </trkpt>
      <trkpt lat="48.71411" lon="2.49139">
        <ele>102.597</ele>
        <time>2018-10-14T06:43:41Z</time>
      </trkpt>
      <trkpt lat="48.71412" lon="2.49145">
        <ele>84.7762</ele>
        <time>2018-10-14T06:43:47Z</time>
      </trkpt>
      <trkpt lat="48.71409" lon="2.4915">
        <ele>83.2737</ele>
        <time>2018-10-14T06:43:51Z</time>
      </trkpt>
      <trkpt lat="48.71407" lon="2.49158">
        <ele>85.5458</ele>
        <time>2018-10-14T06:43:56Z</time>
      </trkpt>
      <trkpt lat="48.71404" lon="2.49164">
        <ele>83.675</ele>
        <time>2018-10-14T06:44:00Z</time>
      </trkpt>
      <trkpt lat="48.71403" lon="2.49167">
        <ele>83.4003</ele>
        <time>2018-10-14T06:44:02Z</time>
      </trkpt>
      <trkpt lat="48.71398" lon="2.49173">
        <ele>81.1901</ele>
        <time>2018-10-14T06:44:06Z</time>
      </trkpt>
      <trkpt lat="48.71395" lon="2.49179">
        <ele>80.4971</ele>
        <time>2018-10-14T06:44:10Z</time>
      </trkpt>
      <trkpt lat="48.71394" lon="2.49182">
        <ele>80.8899</ele>
        <time>2018-10-14T06:44:12Z</time>
      </trkpt>
      <trkpt lat="48.71393" lon="2.4919">
        <ele>80.9704</ele>
        <time>2018-10-14T06:44:15Z</time>
      </trkpt>
      <trkpt lat="48.71392" lon="2.49193">
        <ele>81.0179</ele>
        <time>2018-10-14T06:44:17Z</time>
      </trkpt>
      <trkpt lat="48.71392" lon="2.49201">
        <ele>81.1342</ele>
        <time>2018-10-14T06:44:22Z</time>
      </trkpt>
      <trkpt lat="48.71389" lon="2.49213">
        <ele>81.2399</ele>
        <time>2018-10-14T06:44:27Z</time>
      </trkpt>
      <trkpt lat="48.71388" lon="2.49218">
        <ele>81.2645</ele>
        <time>2018-10-14T06:44:29Z</time>
      </trkpt>
      <trkpt lat="48.71386" lon="2.49223">
        <ele>81.2787</ele>
        <time>2018-10-14T06:44:31Z</time>
      </trkpt>
      <trkpt lat="48.71384" lon="2.49228">
        <ele>81.2824</ele>
        <time>2018-10-14T06:44:33Z</time>
      </trkpt>
      <trkpt lat="48.71383" lon="2.49233">
        <ele>81.2796</ele>
        <time>2018-10-14T06:44:35Z</time>
      </trkpt>
      <trkpt lat="48.71381" lon="2.49237">
        <ele>81.2776</ele>
        <time>2018-10-14T06:44:36Z</time>
      </trkpt>
      <trkpt lat="48.7138" lon="2.49241">
        <ele>81.2703</ele>
        <time>2018-10-14T06:44:38Z</time>
      </trkpt>
      <trkpt lat="48.7138" lon="2.49248">
        <ele>81.2584</ele>
        <time>2018-10-14T06:44:41Z</time>
      </trkpt>
      <trkpt lat="48.71379" lon="2.49257">
        <ele>81.2361</ele>
        <time>2018-10-14T06:44:44Z</time>
      </trkpt>
      <trkpt lat="48.71379" lon="2.49264">
        <ele>81.1994</ele>
        <time>2018-10-14T06:44:48Z</time>
      </trkpt>
      <trkpt lat="48.71379" lon="2.49272">
        <ele>81.1989</ele>
        <time>2018-10-14T06:44:51Z</time>
      </trkpt>
      <trkpt lat="48.71378" lon="2.49279">
        <ele>81.2229</ele>
        <time>2018-10-14T06:44:55Z</time>
      </trkpt>
      <trkpt lat="48.71375" lon="2.49286">
        <ele>81.2942</ele>
        <time>2018-10-14T06:45:00Z</time>
      </trkpt>
      <trkpt lat="48.71369" lon="2.49291">
        <ele>81.3457</ele>
        <time>2018-10-14T06:45:04Z</time>
      </trkpt>
      <trkpt lat="48.71365" lon="2.49296">
        <ele>81.3966</ele>
        <time>2018-10-14T06:45:08Z</time>
      </trkpt>
      <trkpt lat="48.71362" lon="2.49301">
        <ele>81.4262</ele>
        <time>2018-10-14T06:45:10Z</time>
      </trkpt>
      <trkpt lat="48.71359" lon="2.49305">
        <ele>81.463</ele>
        <time>2018-10-14T06:45:12Z</time>
      </trkpt>
      <trkpt lat="48.71356" lon="2.49309">
        <ele>81.5087</ele>
        <time>2018-10-14T06:45:14Z</time>
      </trkpt>
      <trkpt lat="48.71354" lon="2.49312">
        <ele>81.5598</ele>
        <time>2018-10-14T06:45:16Z</time>
      </trkpt>
      <trkpt lat="48.7135" lon="2.49315">
        <ele>81.6931</ele>
        <time>2018-10-14T06:45:21Z</time>
      </trkpt>
      <trkpt lat="48.7135" lon="2.49315">
        <ele>36.5</ele>
        <time>2018-10-14T06:45:28Z</time>
      </trkpt>
      <trkpt lat="48.7135" lon="2.49315">
        <ele>36.5</ele>
        <time>2018-10-14T06:45:33Z</time>
      </trkpt>
      <trkpt lat="48.71343" lon="2.49305">
        <ele>82.0423</ele>
        <time>2018-10-14T06:45:33Z</time>
      </trkpt>
      <trkpt lat="48.71339" lon="2.493">
        <ele>82.1957</ele>
        <time>2018-10-14T06:45:37Z</time>
      </trkpt>
      <trkpt lat="48.71331" lon="2.49298">
        <ele>82.4373</ele>
        <time>2018-10-14T06:45:43Z</time>
      </trkpt>
      <trkpt lat="48.71326" lon="2.49299">
        <ele>82.5412</ele>
        <time>2018-10-14T06:45:46Z</time>
      </trkpt>
      <trkpt lat="48.71321" lon="2.49303">
        <ele>82.6723</ele>
        <time>2018-10-14T06:45:51Z</time>
      </trkpt>
      <trkpt lat="48.71316" lon="2.49308">
        <ele>82.7608</ele>
        <time>2018-10-14T06:45:55Z</time>
      </trkpt>
      <trkpt lat="48.71312" lon="2.49311">
        <ele>82.8164</ele>
        <time>2018-10-14T06:45:58Z</time>
      </trkpt>
      <trkpt lat="48.71307" lon="2.49312">
        <ele>82.8585</ele>
        <time>2018-10-14T06:46:01Z</time>
      </trkpt>
      <trkpt lat="48.71302" lon="2.49312">
        <ele>82.8958</ele>
        <time>2018-10-14T06:46:04Z</time>
      </trkpt>
      <trkpt lat="48.713" lon="2.49313">
        <ele>82.9229</ele>
        <time>2018-10-14T06:46:06Z</time>
      </trkpt>
      <trkpt lat="48.71295" lon="2.49315">
        <ele>82.9843</ele>
        <time>2018-10-14T06:46:10Z</time>
      </trkpt>
      <trkpt lat="48.71291" lon="2.4932">
        <ele>83.0389</ele>
        <time>2018-10-14T06:46:13Z</time>
      </trkpt>
      <trkpt lat="48.71288" lon="2.49327">
        <ele>83.0985</ele>
        <time>2018-10-14T06:46:16Z</time>
      </trkpt>
      <trkpt lat="48.71287" lon="2.49334">
        <ele>83.1615</ele>
        <time>2018-10-14T06:46:19Z</time>
      </trkpt>
      <trkpt lat="48.71285" lon="2.49341">
        <ele>83.2576</ele>
        <time>2018-10-14T06:46:23Z</time>
      </trkpt>
      <trkpt lat="48.71284" lon="2.49349">
        <ele>83.3605</ele>
        <time>2018-10-14T06:46:27Z</time>
      </trkpt>
      <trkpt lat="48.71283" lon="2.49353">
        <ele>83.4146</ele>
        <time>2018-10-14T06:46:29Z</time>
      </trkpt>
      <trkpt lat="48.71281" lon="2.49359">
        <ele>83.5335</ele>
        <time>2018-10-14T06:46:33Z</time>
      </trkpt>
      <trkpt lat="48.71277" lon="2.49365">
        <ele>83.6199</ele>
        <time>2018-10-14T06:46:36Z</time>
      </trkpt>
      <trkpt lat="48.71271" lon="2.49367">
        <ele>83.7534</ele>
        <time>2018-10-14T06:46:41Z</time>
      </trkpt>
      <trkpt lat="48.71266" lon="2.4937">
        <ele>83.8263</ele>
        <time>2018-10-14T06:46:44Z</time>
      </trkpt>
      <trkpt lat="48.71263" lon="2.49372">
        <ele>83.8735</ele>
        <time>2018-10-14T06:46:46Z</time>
      </trkpt>
      <trkpt lat="48.71259" lon="2.49376">
        <ele>83.9529</ele>
        <time>2018-10-14T06:46:49Z</time>
      </trkpt>
      <trkpt lat="48.71254" lon="2.49378">
        <ele>84.0338</ele>
        <time>2018-10-14T06:46:52Z</time>
      </trkpt>
      <trkpt lat="48.71251" lon="2.49379">
        <ele>84.0897</ele>
        <time>2018-10-14T06:46:54Z</time>
      </trkpt>
      <trkpt lat="48.71246" lon="2.49381">
        <ele>84.1758</ele>
        <time>2018-10-14T06:46:57Z</time>
      </trkpt>
      <trkpt lat="48.71241" lon="2.49384">
        <ele>84.2609</ele>
        <time>2018-10-14T06:47:00Z</time>
      </trkpt>
      <trkpt lat="48.71237" lon="2.49385">
        <ele>84.3407</ele>
        <time>2018-10-14T06:47:03Z</time>
      </trkpt>
      <trkpt lat="48.71232" lon="2.49385">
        <ele>84.4193</ele>
        <time>2018-10-14T06:47:06Z</time>
      </trkpt>
      <trkpt lat="48.71227" lon="2.49388">
        <ele>84.4901</ele>
        <time>2018-10-14T06:47:09Z</time>
      </trkpt>
      <trkpt lat="48.71224" lon="2.49389">
        <ele>84.5339</ele>
        <time>2018-10-14T06:47:11Z</time>
      </trkpt>
      <trkpt lat="48.71219" lon="2.49391">
        <ele>84.5929</ele>
        <time>2018-10-14T06:47:14Z</time>
      </trkpt>
      <trkpt lat="48.71215" lon="2.49396">
        <ele>84.668</ele>
        <time>2018-10-14T06:47:18Z</time>
      </trkpt>
      <trkpt lat="48.71209" lon="2.49399">
        <ele>84.7449</ele>
        <time>2018-10-14T06:47:22Z</time>
      </trkpt>
      <trkpt lat="48.71206" lon="2.49401">
        <ele>84.7824</ele>
        <time>2018-10-14T06:47:24Z</time>
      </trkpt>
      <trkpt lat="48.71204" lon="2.49403">
        <ele>84.8201</ele>
        <time>2018-10-14T06:47:26Z</time>
      </trkpt>
      <trkpt lat="48.71199" lon="2.49406">
        <ele>84.876</ele>
        <time>2018-10-14T06:47:29Z</time>
      </trkpt>
      <trkpt lat="48.71196" lon="2.49409">
        <ele>84.9123</ele>
        <time>2018-10-14T06:47:31Z</time>
      </trkpt>
      <trkpt lat="48.71193" lon="2.49411">
        <ele>84.9493</ele>
        <time>2018-10-14T06:47:33Z</time>
      </trkpt>
      <trkpt lat="48.7119" lon="2.49417">
        <ele>85.001</ele>
        <time>2018-10-14T06:47:36Z</time>
      </trkpt>
      <trkpt lat="48.71185" lon="2.49422">
        <ele>85.0649</ele>
        <time>2018-10-14T06:47:40Z</time>
      </trkpt>
      <trkpt lat="48.71181" lon="2.49426">
        <ele>85.1199</ele>
        <time>2018-10-14T06:47:44Z</time>
      </trkpt>
      <trkpt lat="48.71177" lon="2.49428">
        <ele>85.1698</ele>
        <time>2018-10-14T06:47:47Z</time>
      </trkpt>
      <trkpt lat="48.71172" lon="2.49431">
        <ele>85.2544</ele>
        <time>2018-10-14T06:47:51Z</time>
      </trkpt>
      <trkpt lat="48.71168" lon="2.49435">
        <ele>85.3296</ele>
        <time>2018-10-14T06:47:54Z</time>
      </trkpt>
      <trkpt lat="48.71165" lon="2.49437">
        <ele>85.3838</ele>
        <time>2018-10-14T06:47:56Z</time>
      </trkpt>
      <trkpt lat="48.71163" lon="2.49439">
        <ele>85.4591</ele>
        <time>2018-10-14T06:47:59Z</time>
      </trkpt>
      <trkpt lat="48.71158" lon="2.4944">
        <ele>85.5608</ele>
        <time>2018-10-14T06:48:03Z</time>
      </trkpt>
      <trkpt lat="48.71154" lon="2.49436">
        <ele>85.6684</ele>
        <time>2018-10-14T06:48:07Z</time>
      </trkpt>
      <trkpt lat="48.7115" lon="2.49428">
        <ele>85.7824</ele>
        <time>2018-10-14T06:48:11Z</time>
      </trkpt>
      <trkpt lat="48.71148" lon="2.49423">
        <ele>85.8429</ele>
        <time>2018-10-14T06:48:13Z</time>
      </trkpt>
      <trkpt lat="48.71146" lon="2.49417">
        <ele>85.9343</ele>
        <time>2018-10-14T06:48:16Z</time>
      </trkpt>
      <trkpt lat="48.71144" lon="2.49414">
        <ele>85.9907</ele>
        <time>2018-10-14T06:48:18Z</time>
      </trkpt>
      <trkpt lat="48.71143" lon="2.4941">
        <ele>86.044</ele>
        <time>2018-10-14T06:48:20Z</time>
      </trkpt>
      <trkpt lat="48.71139" lon="2.49404">
        <ele>86.1709</ele>
        <time>2018-10-14T06:48:25Z</time>
      </trkpt>
      <trkpt lat="48.71136" lon="2.494">
        <ele>86.2413</ele>
        <time>2018-10-14T06:48:28Z</time>
      </trkpt>
      <trkpt lat="48.71132" lon="2.49396">
        <ele>86.2818</ele>
        <time>2018-10-14T06:48:30Z</time>
      </trkpt>
      <trkpt lat="48.71129" lon="2.49392">
        <ele>86.3185</ele>
        <time>2018-10-14T06:48:32Z</time>
      </trkpt>
      <trkpt lat="48.71125" lon="2.49389">
        <ele>86.3899</ele>
        <time>2018-10-14T06:48:36Z</time>
      </trkpt>
      <trkpt lat="48.71122" lon="2.49382">
        <ele>86.4473</ele>
        <time>2018-10-14T06:48:40Z</time>
      </trkpt>
      <trkpt lat="48.71119" lon="2.49374">
        <ele>86.4785</ele>
        <time>2018-10-14T06:48:43Z</time>
      </trkpt>
      <trkpt lat="48.71117" lon="2.49369">
        <ele>86.4961</ele>
        <time>2018-10-14T06:48:45Z</time>
      </trkpt>
      <trkpt lat="48.71116" lon="2.49364">
        <ele>86.5393</ele>
        <time>2018-10-14T06:48:50Z</time>
      </trkpt>
      <trkpt lat="48.71114" lon="2.49357">
        <ele>86.569</ele>
        <time>2018-10-14T06:48:54Z</time>
      </trkpt>
      <trkpt lat="48.7111" lon="2.49354">
        <ele>86.589</ele>
        <time>2018-10-14T06:48:57Z</time>
      </trkpt>
      <trkpt lat="48.71105" lon="2.49353">
        <ele>86.6008</ele>
        <time>2018-10-14T06:48:59Z</time>
      </trkpt>
      <trkpt lat="48.71101" lon="2.49352">
        <ele>86.6111</ele>
        <time>2018-10-14T06:49:01Z</time>
      </trkpt>
      <trkpt lat="48.71097" lon="2.49353">
        <ele>86.6263</ele>
        <time>2018-10-14T06:49:04Z</time>
      </trkpt>
      <trkpt lat="48.71092" lon="2.49357">
        <ele>86.6497</ele>
        <time>2018-10-14T06:49:08Z</time>
      </trkpt>
      <trkpt lat="48.7109" lon="2.49358">
        <ele>86.6599</ele>
        <time>2018-10-14T06:49:10Z</time>
      </trkpt>
      <trkpt lat="48.71086" lon="2.49362">
        <ele>86.6746</ele>
        <time>2018-10-14T06:49:13Z</time>
      </trkpt>
      <trkpt lat="48.71083" lon="2.49366">
        <ele>86.688</ele>
        <time>2018-10-14T06:49:16Z</time>
      </trkpt>
      <trkpt lat="48.71077" lon="2.49368">
        <ele>86.7076</ele>
        <time>2018-10-14T06:49:21Z</time>
      </trkpt>
      <trkpt lat="48.71072" lon="2.49372">
        <ele>86.7157</ele>
        <time>2018-10-14T06:49:24Z</time>
      </trkpt>
      <trkpt lat="48.71067" lon="2.49377">
        <ele>86.7204</ele>
        <time>2018-10-14T06:49:27Z</time>
      </trkpt>
      <trkpt lat="48.71062" lon="2.49381">
        <ele>86.7242</ele>
        <time>2018-10-14T06:49:30Z</time>
      </trkpt>
      <trkpt lat="48.71059" lon="2.49384">
        <ele>86.7267</ele>
        <time>2018-10-14T06:49:32Z</time>
      </trkpt>
      <trkpt lat="48.71057" lon="2.49386">
        <ele>86.73</ele>
        <time>2018-10-14T06:49:34Z</time>
      </trkpt>
      <trkpt lat="48.71054" lon="2.49388">
        <ele>86.7331</ele>
        <time>2018-10-14T06:49:36Z</time>
      </trkpt>
      <trkpt lat="48.71049" lon="2.49392">
        <ele>86.738</ele>
        <time>2018-10-14T06:49:39Z</time>
      </trkpt>
      <trkpt lat="48.71047" lon="2.49395">
        <ele>86.7409</ele>
        <time>2018-10-14T06:49:41Z</time>
      </trkpt>
      <trkpt lat="48.71044" lon="2.49397">
        <ele>86.7439</ele>
        <time>2018-10-14T06:49:43Z</time>
      </trkpt>
      <trkpt lat="48.71041" lon="2.49399">
        <ele>86.7476</ele>
        <time>2018-10-14T06:49:45Z</time>
      </trkpt>
      <trkpt lat="48.71038" lon="2.49402">
        <ele>86.7529</ele>
        <time>2018-10-14T06:49:48Z</time>
      </trkpt>
      <trkpt lat="48.71036" lon="2.49404">
        <ele>86.7561</ele>
        <time>2018-10-14T06:49:51Z</time>
      </trkpt>
      <trkpt lat="48.71034" lon="2.49406">
        <ele>86.7572</ele>
        <time>2018-10-14T06:49:53Z</time>
      </trkpt>
      <trkpt lat="48.71029" lon="2.49407">
        <ele>86.7581</ele>
        <time>2018-10-14T06:49:56Z</time>
      </trkpt>
      <trkpt lat="48.71025" lon="2.4941">
        <ele>86.7638</ele>
        <time>2018-10-14T06:50:01Z</time>
      </trkpt>
      <trkpt lat="48.71021" lon="2.49416">
        <ele>86.772</ele>
        <time>2018-10-14T06:50:05Z</time>
      </trkpt>
      <trkpt lat="48.71016" lon="2.49421">
        <ele>86.7747</ele>
        <time>2018-10-14T06:50:07Z</time>
      </trkpt>
      <trkpt lat="48.71012" lon="2.49427">
        <ele>86.776</ele>
        <time>2018-10-14T06:50:10Z</time>
      </trkpt>
      <trkpt lat="48.7101" lon="2.49433">
        <ele>86.7742</ele>
        <time>2018-10-14T06:50:13Z</time>
      </trkpt>
      <trkpt lat="48.71005" lon="2.49437">
        <ele>86.7691</ele>
        <time>2018-10-14T06:50:16Z</time>
      </trkpt>
      <trkpt lat="48.71002" lon="2.49442">
        <ele>86.7603</ele>
        <time>2018-10-14T06:50:20Z</time>
      </trkpt>
      <trkpt lat="48.70999" lon="2.49444">
        <ele>86.7571</ele>
        <time>2018-10-14T06:50:22Z</time>
      </trkpt>
      <trkpt lat="48.70997" lon="2.49447">
        <ele>86.7543</ele>
        <time>2018-10-14T06:50:24Z</time>
      </trkpt>
      <trkpt lat="48.70992" lon="2.4945">
        <ele>86.7486</ele>
        <time>2018-10-14T06:50:28Z</time>
      </trkpt>
      <trkpt lat="48.70988" lon="2.49455">
        <ele>86.7422</ele>
        <time>2018-10-14T06:50:32Z</time>
      </trkpt>
      <trkpt lat="48.70983" lon="2.49458">
        <ele>86.7415</ele>
        <time>2018-10-14T06:50:37Z</time>
      </trkpt>
      <trkpt lat="48.70981" lon="2.4946">
        <ele>86.7415</ele>
        <time>2018-10-14T06:50:38Z</time>
      </trkpt>
      <trkpt lat="48.70978" lon="2.49462">
        <ele>86.7426</ele>
        <time>2018-10-14T06:50:40Z</time>
      </trkpt>
      <trkpt lat="48.70976" lon="2.49464">
        <ele>86.7443</ele>
        <time>2018-10-14T06:50:42Z</time>
      </trkpt>
      <trkpt lat="48.70973" lon="2.49466">
        <ele>86.7458</ele>
        <time>2018-10-14T06:50:44Z</time>
      </trkpt>
      <trkpt lat="48.70968" lon="2.49468">
        <ele>86.7478</ele>
        <time>2018-10-14T06:50:47Z</time>
      </trkpt>
      <trkpt lat="48.70962" lon="2.4947">
        <ele>86.7487</ele>
        <time>2018-10-14T06:50:50Z</time>
      </trkpt>
      <trkpt lat="48.70959" lon="2.49471">
        <ele>86.751</ele>
        <time>2018-10-14T06:50:52Z</time>
      </trkpt>
      <trkpt lat="48.70955" lon="2.49474">
        <ele>86.7584</ele>
        <time>2018-10-14T06:50:56Z</time>
      </trkpt>
      <trkpt lat="48.7095" lon="2.49478">
        <ele>86.7689</ele>
        <time>2018-10-14T06:51:00Z</time>
      </trkpt>
      <trkpt lat="48.70947" lon="2.49482">
        <ele>86.7768</ele>
        <time>2018-10-14T06:51:03Z</time>
      </trkpt>
      <trkpt lat="48.70942" lon="2.49488">
        <ele>86.7934</ele>
        <time>2018-10-14T06:51:08Z</time>
      </trkpt>
      <trkpt lat="48.7094" lon="2.49492">
        <ele>86.8012</ele>
        <time>2018-10-14T06:51:10Z</time>
      </trkpt>
      <trkpt lat="48.70935" lon="2.49496">
        <ele>86.8156</ele>
        <time>2018-10-14T06:51:13Z</time>
      </trkpt>
      <trkpt lat="48.70931" lon="2.49501">
        <ele>86.8311</ele>
        <time>2018-10-14T06:51:16Z</time>
      </trkpt>
      <trkpt lat="48.70928" lon="2.49504">
        <ele>86.8412</ele>
        <time>2018-10-14T06:51:18Z</time>
      </trkpt>
      <trkpt lat="48.70923" lon="2.49507">
        <ele>86.8603</ele>
        <time>2018-10-14T06:51:22Z</time>
      </trkpt>
      <trkpt lat="48.70917" lon="2.49509">
        <ele>86.8869</ele>
        <time>2018-10-14T06:51:27Z</time>
      </trkpt>
      <trkpt lat="48.70913" lon="2.49513">
        <ele>86.9068</ele>
        <time>2018-10-14T06:51:31Z</time>
      </trkpt>
      <trkpt lat="48.70909" lon="2.49518">
        <ele>86.9202</ele>
        <time>2018-10-14T06:51:34Z</time>
      </trkpt>
      <trkpt lat="48.70906" lon="2.49521">
        <ele>86.9328</ele>
        <time>2018-10-14T06:51:37Z</time>
      </trkpt>
      <trkpt lat="48.70903" lon="2.49527">
        <ele>86.9516</ele>
        <time>2018-10-14T06:51:41Z</time>
      </trkpt>
      <trkpt lat="48.70899" lon="2.49531">
        <ele>86.9692</ele>
        <time>2018-10-14T06:51:45Z</time>
      </trkpt>
      <trkpt lat="48.70896" lon="2.49534">
        <ele>86.9775</ele>
        <time>2018-10-14T06:51:47Z</time>
      </trkpt>
      <trkpt lat="48.70894" lon="2.49537">
        <ele>86.9843</ele>
        <time>2018-10-14T06:51:49Z</time>
      </trkpt>
      <trkpt lat="48.70891" lon="2.49544">
        <ele>86.9926</ele>
        <time>2018-10-14T06:51:52Z</time>
      </trkpt>
      <trkpt lat="48.70887" lon="2.49551">
        <ele>87.0023</ele>
        <time>2018-10-14T06:51:56Z</time>
      </trkpt>
      <trkpt lat="48.70882" lon="2.49553">
        <ele>87.0101</ele>
        <time>2018-10-14T06:52:00Z</time>
      </trkpt>
      <trkpt lat="48.70877" lon="2.49558">
        <ele>87.0134</ele>
        <time>2018-10-14T06:52:04Z</time>
      </trkpt>
      <trkpt lat="48.70875" lon="2.49561">
        <ele>87.0139</ele>
        <time>2018-10-14T06:52:06Z</time>
      </trkpt>
      <trkpt lat="48.70871" lon="2.49567">
        <ele>87.0121</ele>
        <time>2018-10-14T06:52:11Z</time>
      </trkpt>
      <trkpt lat="48.70868" lon="2.49575">
        <ele>87.0088</ele>
        <time>2018-10-14T06:52:14Z</time>
      </trkpt>
      <trkpt lat="48.70865" lon="2.49582">
        <ele>87.0049</ele>
        <time>2018-10-14T06:52:18Z</time>
      </trkpt>
      <trkpt lat="48.70863" lon="2.4959">
        <ele>87.0037</ele>
        <time>2018-10-14T06:52:22Z</time>
      </trkpt>
      <trkpt lat="48.70861" lon="2.49597">
        <ele>87.0051</ele>
        <time>2018-10-14T06:52:25Z</time>
      </trkpt>
      <trkpt lat="48.70859" lon="2.49601">
        <ele>87.0088</ele>
        <time>2018-10-14T06:52:27Z</time>
      </trkpt>
      <trkpt lat="48.70858" lon="2.49609">
        <ele>87.0231</ele>
        <time>2018-10-14T06:52:31Z</time>
      </trkpt>
      <trkpt lat="48.70857" lon="2.49614">
        <ele>87.0267</ele>
        <time>2018-10-14T06:52:32Z</time>
      </trkpt>
      <trkpt lat="48.70858" lon="2.49622">
        <ele>87.039</ele>
        <time>2018-10-14T06:52:35Z</time>
      </trkpt>
      <trkpt lat="48.70859" lon="2.49628">
        <ele>87.0526</ele>
        <time>2018-10-14T06:52:38Z</time>
      </trkpt>
      <trkpt lat="48.70858" lon="2.49635">
        <ele>87.076</ele>
        <time>2018-10-14T06:52:43Z</time>
      </trkpt>
      <trkpt lat="48.70853" lon="2.49644">
        <ele>87.0976</ele>
        <time>2018-10-14T06:52:47Z</time>
      </trkpt>
      <trkpt lat="48.7085" lon="2.49649">
        <ele>87.1167</ele>
        <time>2018-10-14T06:52:50Z</time>
      </trkpt>
      <trkpt lat="48.70847" lon="2.49655">
        <ele>87.1417</ele>
        <time>2018-10-14T06:52:54Z</time>
      </trkpt>
      <trkpt lat="48.70843" lon="2.49659">
        <ele>87.1607</ele>
        <time>2018-10-14T06:52:57Z</time>
      </trkpt>
      <trkpt lat="48.7084" lon="2.49662">
        <ele>87.1808</ele>
        <time>2018-10-14T06:53:00Z</time>
      </trkpt>
      <trkpt lat="48.70835" lon="2.49666">
        <ele>87.2166</ele>
        <time>2018-10-14T06:53:05Z</time>
      </trkpt>
      <trkpt lat="48.70831" lon="2.49673">
        <ele>87.2392</ele>
        <time>2018-10-14T06:53:08Z</time>
      </trkpt>
      <trkpt lat="48.70828" lon="2.49677">
        <ele>87.2539</ele>
        <time>2018-10-14T06:53:10Z</time>
      </trkpt>
      <trkpt lat="48.70823" lon="2.49679">
        <ele>87.2855</ele>
        <time>2018-10-14T06:53:14Z</time>
      </trkpt>
      <trkpt lat="48.70818" lon="2.49678">
        <ele>87.3264</ele>
        <time>2018-10-14T06:53:19Z</time>
      </trkpt>
      <trkpt lat="48.70818" lon="2.49678">
        <ele>87.3264</ele>
        <time>2018-10-14T06:53:26Z</time>
      </trkpt>
      <trkpt lat="48.70818" lon="2.49678">
        <ele>36.6</ele>
        <time>2018-10-14T06:53:26Z</time>
      </trkpt>
      <trkpt lat="48.70818" lon="2.49678">
        <ele>36.6</ele>
        <time>2018-10-14T06:53:34Z</time>
      </trkpt>
      <trkpt lat="48.70804" lon="2.49671">
        <ele>87.4323</ele>
        <time>2018-10-14T06:53:34Z</time>
      </trkpt>
      <trkpt lat="48.70799" lon="2.49669">
        <ele>87.4537</ele>
        <time>2018-10-14T06:53:37Z</time>
      </trkpt>
      <trkpt lat="48.70794" lon="2.4967">
        <ele>87.4749</ele>
        <time>2018-10-14T06:53:40Z</time>
      </trkpt>
      <trkpt lat="48.70792" lon="2.49677">
        <ele>87.4975</ele>
        <time>2018-10-14T06:53:43Z</time>
      </trkpt>
      <trkpt lat="48.70792" lon="2.49684">
        <ele>87.5187</ele>
        <time>2018-10-14T06:53:46Z</time>
      </trkpt>
      <trkpt lat="48.70791" lon="2.49693">
        <ele>87.5366</ele>
        <time>2018-10-14T06:53:49Z</time>
      </trkpt>
      <trkpt lat="48.70791" lon="2.49698">
        <ele>87.547</ele>
        <time>2018-10-14T06:53:51Z</time>
      </trkpt>
      <trkpt lat="48.7079" lon="2.49705">
        <ele>87.5615</ele>
        <time>2018-10-14T06:53:54Z</time>
      </trkpt>
      <trkpt lat="48.7079" lon="2.4971">
        <ele>87.5706</ele>
        <time>2018-10-14T06:53:56Z</time>
      </trkpt>
      <trkpt lat="48.70788" lon="2.49719">
        <ele>87.589</ele>
        <time>2018-10-14T06:54:00Z</time>
      </trkpt>
      <trkpt lat="48.70788" lon="2.49727">
        <ele>87.6064</ele>
        <time>2018-10-14T06:54:04Z</time>
      </trkpt>
      <trkpt lat="48.70789" lon="2.49735">
        <ele>87.6201</ele>
        <time>2018-10-14T06:54:07Z</time>
      </trkpt>
      <trkpt lat="48.70791" lon="2.49745">
        <ele>87.6373</ele>
        <time>2018-10-14T06:54:11Z</time>
      </trkpt>
      <trkpt lat="48.70794" lon="2.49751">
        <ele>87.6506</ele>
        <time>2018-10-14T06:54:14Z</time>
      </trkpt>
      <trkpt lat="48.70798" lon="2.49754">
        <ele>87.6651</ele>
        <time>2018-10-14T06:54:17Z</time>
      </trkpt>
      <trkpt lat="48.70803" lon="2.49755">
        <ele>87.6803</ele>
        <time>2018-10-14T06:54:20Z</time>
      </trkpt>
      <trkpt lat="48.70808" lon="2.49755">
        <ele>87.7003</ele>
        <time>2018-10-14T06:54:24Z</time>
      </trkpt>
      <trkpt lat="48.70813" lon="2.49757">
        <ele>87.7192</ele>
        <time>2018-10-14T06:54:28Z</time>
      </trkpt>
      <trkpt lat="48.70815" lon="2.49758">
        <ele>87.7294</ele>
        <time>2018-10-14T06:54:30Z</time>
      </trkpt>
      <trkpt lat="48.70818" lon="2.49758">
        <ele>87.7408</ele>
        <time>2018-10-14T06:54:32Z</time>
      </trkpt>
      <trkpt lat="48.70823" lon="2.49757">
        <ele>87.7744</ele>
        <time>2018-10-14T06:54:37Z</time>
      </trkpt>
      <trkpt lat="48.70828" lon="2.49755">
        <ele>87.7979</ele>
        <time>2018-10-14T06:54:41Z</time>
      </trkpt>
      <trkpt lat="48.70831" lon="2.49754">
        <ele>87.8092</ele>
        <time>2018-10-14T06:54:43Z</time>
      </trkpt>
      <trkpt lat="48.70834" lon="2.49753">
        <ele>87.8201</ele>
        <time>2018-10-14T06:54:45Z</time>
      </trkpt>
      <trkpt lat="48.70837" lon="2.49751">
        <ele>87.8305</ele>
        <time>2018-10-14T06:54:47Z</time>
      </trkpt>
      <trkpt lat="48.70842" lon="2.49751">
        <ele>87.8455</ele>
        <time>2018-10-14T06:54:50Z</time>
      </trkpt>
      <trkpt lat="48.70846" lon="2.49751">
        <ele>87.8565</ele>
        <time>2018-10-14T06:54:52Z</time>
      </trkpt>
      <trkpt lat="48.70851" lon="2.4975">
        <ele>87.8701</ele>
        <time>2018-10-14T06:54:55Z</time>
      </trkpt>
      <trkpt lat="48.70856" lon="2.4975">
        <ele>87.8805</ele>
        <time>2018-10-14T06:54:58Z</time>
      </trkpt>
      <trkpt lat="48.70861" lon="2.49748">
        <ele>87.8931</ele>
        <time>2018-10-14T06:55:02Z</time>
      </trkpt>
      <trkpt lat="48.70867" lon="2.49748">
        <ele>87.9015</ele>
        <time>2018-10-14T06:55:05Z</time>
      </trkpt>
      <trkpt lat="48.70872" lon="2.49749">
        <ele>87.911</ele>
        <time>2018-10-14T06:55:09Z</time>
      </trkpt>
      <trkpt lat="48.70876" lon="2.49749">
        <ele>87.9178</ele>
        <time>2018-10-14T06:55:12Z</time>
      </trkpt>
      <trkpt lat="48.7088" lon="2.49749">
        <ele>87.9217</ele>
        <time>2018-10-14T06:55:14Z</time>
      </trkpt>
      <trkpt lat="48.70884" lon="2.49748">
        <ele>87.9246</ele>
        <time>2018-10-14T06:55:16Z</time>
      </trkpt>
      <trkpt lat="48.70889" lon="2.4975">
        <ele>87.9257</ele>
        <time>2018-10-14T06:55:19Z</time>
      </trkpt>
      <trkpt lat="48.70892" lon="2.49757">
        <ele>87.9248</ele>
        <time>2018-10-14T06:55:22Z</time>
      </trkpt>
      <trkpt lat="48.70893" lon="2.49761">
        <ele>87.9237</ele>
        <time>2018-10-14T06:55:24Z</time>
      </trkpt>
      <trkpt lat="48.70894" lon="2.49768">
        <ele>87.9218</ele>
        <time>2018-10-14T06:55:28Z</time>
      </trkpt>
      <trkpt lat="48.70895" lon="2.49772">
        <ele>87.9215</ele>
        <time>2018-10-14T06:55:31Z</time>
      </trkpt>
      <trkpt lat="48.70897" lon="2.49779">
        <ele>87.9233</ele>
        <time>2018-10-14T06:55:35Z</time>
      </trkpt>
      <trkpt lat="48.70899" lon="2.49786">
        <ele>87.9264</ele>
        <time>2018-10-14T06:55:39Z</time>
      </trkpt>
      <trkpt lat="48.70902" lon="2.49792">
        <ele>87.9292</ele>
        <time>2018-10-14T06:55:42Z</time>
      </trkpt>
      <trkpt lat="48.70905" lon="2.49796">
        <ele>87.9321</ele>
        <time>2018-10-14T06:55:44Z</time>
      </trkpt>
      <trkpt lat="48.70907" lon="2.49799">
        <ele>87.934</ele>
        <time>2018-10-14T06:55:45Z</time>
      </trkpt>
      <trkpt lat="48.70911" lon="2.49802">
        <ele>87.9399</ele>
        <time>2018-10-14T06:55:48Z</time>
      </trkpt>
      <trkpt lat="48.70915" lon="2.49806">
        <ele>87.9492</ele>
        <time>2018-10-14T06:55:52Z</time>
      </trkpt>
      <trkpt lat="48.70917" lon="2.49808">
        <ele>87.9548</ele>
        <time>2018-10-14T06:55:54Z</time>
      </trkpt>
      <trkpt lat="48.70921" lon="2.49813">
        <ele>87.9655</ele>
        <time>2018-10-14T06:55:58Z</time>
      </trkpt>
      <trkpt lat="48.70926" lon="2.49817">
        <ele>87.9734</ele>
        <time>2018-10-14T06:56:02Z</time>
      </trkpt>
      <trkpt lat="48.7093" lon="2.49821">
        <ele>87.9783</ele>
        <time>2018-10-14T06:56:05Z</time>
      </trkpt>
      <trkpt lat="48.70933" lon="2.49823">
        <ele>87.9833</ele>
        <time>2018-10-14T06:56:07Z</time>
      </trkpt>
      <trkpt lat="48.70938" lon="2.49825">
        <ele>87.9957</ele>
        <time>2018-10-14T06:56:11Z</time>
      </trkpt>
      <trkpt lat="48.70942" lon="2.49828">
        <ele>88.0131</ele>
        <time>2018-10-14T06:56:15Z</time>
      </trkpt>
      <trkpt lat="48.70947" lon="2.49833">
        <ele>88.0309</ele>
        <time>2018-10-14T06:56:19Z</time>
      </trkpt>
      <trkpt lat="48.70949" lon="2.49836">
        <ele>88.0403</ele>
        <time>2018-10-14T06:56:21Z</time>
      </trkpt>
      <trkpt lat="48.70953" lon="2.49842">
        <ele>88.0603</ele>
        <time>2018-10-14T06:56:25Z</time>
      </trkpt>
      <trkpt lat="48.70956" lon="2.49845">
        <ele>88.0706</ele>
        <time>2018-10-14T06:56:27Z</time>
      </trkpt>
      <trkpt lat="48.70958" lon="2.49848">
        <ele>88.0812</ele>
        <time>2018-10-14T06:56:29Z</time>
      </trkpt>
      <trkpt lat="48.70963" lon="2.4985">
        <ele>88.0975</ele>
        <time>2018-10-14T06:56:32Z</time>
      </trkpt>
      <trkpt lat="48.70967" lon="2.49854">
        <ele>88.1144</ele>
        <time>2018-10-14T06:56:35Z</time>
      </trkpt>
      <trkpt lat="48.70972" lon="2.49858">
        <ele>88.1391</ele>
        <time>2018-10-14T06:56:39Z</time>
      </trkpt>
      <trkpt lat="48.70977" lon="2.49862">
        <ele>88.1643</ele>
        <time>2018-10-14T06:56:43Z</time>
      </trkpt>
      <trkpt lat="48.70979" lon="2.49864">
        <ele>88.1898</ele>
        <time>2018-10-14T06:56:47Z</time>
      </trkpt>
      <trkpt lat="48.70979" lon="2.49872">
        <ele>88.2279</ele>
        <time>2018-10-14T06:56:52Z</time>
      </trkpt>
      <trkpt lat="48.70979" lon="2.49881">
        <ele>88.2683</ele>
        <time>2018-10-14T06:56:57Z</time>
      </trkpt>
      <trkpt lat="48.70978" lon="2.49889">
        <ele>88.2946</ele>
        <time>2018-10-14T06:57:00Z</time>
      </trkpt>
      <trkpt lat="48.70972" lon="2.49894">
        <ele>88.3494</ele>
        <time>2018-10-14T06:57:06Z</time>
      </trkpt>
      <trkpt lat="48.70968" lon="2.49898">
        <ele>88.377</ele>
        <time>2018-10-14T06:57:09Z</time>
      </trkpt>
      <trkpt lat="48.70964" lon="2.49902">
        <ele>88.404</ele>
        <time>2018-10-14T06:57:12Z</time>
      </trkpt>
      <trkpt lat="48.7096" lon="2.49908">
        <ele>88.4403</ele>
        <time>2018-10-14T06:57:16Z</time>
      </trkpt>
      <trkpt lat="48.70957" lon="2.4991">
        <ele>88.4585</ele>
        <time>2018-10-14T06:57:18Z</time>
      </trkpt>
      <trkpt lat="48.70953" lon="2.49914">
        <ele>88.4935</ele>
        <time>2018-10-14T06:57:22Z</time>
      </trkpt>
      <trkpt lat="48.70951" lon="2.49915">
        <ele>88.511</ele>
        <time>2018-10-14T06:57:24Z</time>
      </trkpt>
      <trkpt lat="48.70948" lon="2.49918">
        <ele>88.5358</ele>
        <time>2018-10-14T06:57:27Z</time>
      </trkpt>
      <trkpt lat="48.70943" lon="2.49924">
        <ele>88.5734</ele>
        <time>2018-10-14T06:57:32Z</time>
      </trkpt>
      <trkpt lat="48.70938" lon="2.49929">
        <ele>88.5969</ele>
        <time>2018-10-14T06:57:35Z</time>
      </trkpt>
      <trkpt lat="48.70935" lon="2.49932">
        <ele>88.6147</ele>
        <time>2018-10-14T06:57:37Z</time>
      </trkpt>
      <trkpt lat="48.70932" lon="2.49938">
        <ele>88.6537</ele>
        <time>2018-10-14T06:57:41Z</time>
      </trkpt>
      <trkpt lat="48.7093" lon="2.49945">
        <ele>88.6949</ele>
        <time>2018-10-14T06:57:45Z</time>
      </trkpt>
      <trkpt lat="48.70929" lon="2.49954">
        <ele>88.7245</ele>
        <time>2018-10-14T06:57:48Z</time>
      </trkpt>
      <trkpt lat="48.70928" lon="2.49961">
        <ele>88.7539</ele>
        <time>2018-10-14T06:57:51Z</time>
      </trkpt>
      <trkpt lat="48.70926" lon="2.49965">
        <ele>88.7731</ele>
        <time>2018-10-14T06:57:53Z</time>
      </trkpt>
      <trkpt lat="48.70925" lon="2.49973">
        <ele>88.8145</ele>
        <time>2018-10-14T06:57:58Z</time>
      </trkpt>
      <trkpt lat="48.70922" lon="2.4998">
        <ele>88.8359</ele>
        <time>2018-10-14T06:58:01Z</time>
      </trkpt>
      <trkpt lat="48.7092" lon="2.49983">
        <ele>88.8487</ele>
        <time>2018-10-14T06:58:03Z</time>
      </trkpt>
      <trkpt lat="48.70918" lon="2.49991">
        <ele>88.866</ele>
        <time>2018-10-14T06:58:06Z</time>
      </trkpt>
      <trkpt lat="48.70915" lon="2.49998">
        <ele>88.8811</ele>
        <time>2018-10-14T06:58:09Z</time>
      </trkpt>
      <trkpt lat="48.70913" lon="2.50002">
        <ele>88.8901</ele>
        <time>2018-10-14T06:58:11Z</time>
      </trkpt>
      <trkpt lat="48.70913" lon="2.50009">
        <ele>88.9076</ele>
        <time>2018-10-14T06:58:15Z</time>
      </trkpt>
      <trkpt lat="48.70915" lon="2.50016">
        <ele>88.9235</ele>
        <time>2018-10-14T06:58:19Z</time>
      </trkpt>
      <trkpt lat="48.70918" lon="2.50023">
        <ele>88.9375</ele>
        <time>2018-10-14T06:58:23Z</time>
      </trkpt>
      <trkpt lat="48.7092" lon="2.50032">
        <ele>88.9519</ele>
        <time>2018-10-14T06:58:28Z</time>
      </trkpt>
      <trkpt lat="48.70922" lon="2.50038">
        <ele>88.9591</ele>
        <time>2018-10-14T06:58:31Z</time>
      </trkpt>
      <trkpt lat="48.70924" lon="2.50043">
        <ele>88.9638</ele>
        <time>2018-10-14T06:58:33Z</time>
      </trkpt>
      <trkpt lat="48.70926" lon="2.50046">
        <ele>88.9682</ele>
        <time>2018-10-14T06:58:35Z</time>
      </trkpt>
      <trkpt lat="48.70928" lon="2.50053">
        <ele>88.9763</ele>
        <time>2018-10-14T06:58:39Z</time>
      </trkpt>
      <trkpt lat="48.70929" lon="2.50058">
        <ele>88.9809</ele>
        <time>2018-10-14T06:58:41Z</time>
      </trkpt>
      <trkpt lat="48.7093" lon="2.50062">
        <ele>88.9859</ele>
        <time>2018-10-14T06:58:43Z</time>
      </trkpt>
      <trkpt lat="48.70933" lon="2.50068">
        <ele>88.9946</ele>
        <time>2018-10-14T06:58:47Z</time>
      </trkpt>
      <trkpt lat="48.70935" lon="2.50075">
        <ele>89.0039</ele>
        <time>2018-10-14T06:58:51Z</time>
      </trkpt>
      <trkpt lat="48.70938" lon="2.50081">
        <ele>89.0111</ele>
        <time>2018-10-14T06:58:54Z</time>
      </trkpt>
      <trkpt lat="48.70942" lon="2.50088">
        <ele>89.018</ele>
        <time>2018-10-14T06:58:57Z</time>
      </trkpt>
      <trkpt lat="48.70944" lon="2.50091">
        <ele>89.0218</ele>
        <time>2018-10-14T06:58:59Z</time>
      </trkpt>
      <trkpt lat="48.70947" lon="2.50096">
        <ele>89.0286</ele>
        <time>2018-10-14T06:59:02Z</time>
      </trkpt>
      <trkpt lat="48.70948" lon="2.50099">
        <ele>89.0342</ele>
        <time>2018-10-14T06:59:04Z</time>
      </trkpt>
      <trkpt lat="48.7095" lon="2.50107">
        <ele>89.0462</ele>
        <time>2018-10-14T06:59:08Z</time>
      </trkpt>
      <trkpt lat="48.70947" lon="2.50115">
        <ele>89.059</ele>
        <time>2018-10-14T06:59:12Z</time>
      </trkpt>
      <trkpt lat="48.70945" lon="2.50122">
        <ele>89.0667</ele>
        <time>2018-10-14T06:59:15Z</time>
      </trkpt>
      <trkpt lat="48.70943" lon="2.50127">
        <ele>89.0732</ele>
        <time>2018-10-14T06:59:18Z</time>
      </trkpt>
      <trkpt lat="48.70939" lon="2.50134">
        <ele>89.0843</ele>
        <time>2018-10-14T06:59:22Z</time>
      </trkpt>
      <trkpt lat="48.70938" lon="2.50137">
        <ele>89.0906</ele>
        <time>2018-10-14T06:59:24Z</time>
      </trkpt>
      <trkpt lat="48.70937" lon="2.5014">
        <ele>89.0971</ele>
        <time>2018-10-14T06:59:26Z</time>
      </trkpt>
      <trkpt lat="48.70936" lon="2.5015">
        <ele>89.1093</ele>
        <time>2018-10-14T06:59:30Z</time>
      </trkpt>
      <trkpt lat="48.70939" lon="2.50157">
        <ele>89.1246</ele>
        <time>2018-10-14T06:59:34Z</time>
      </trkpt>
      <trkpt lat="48.70941" lon="2.50162">
        <ele>89.1338</ele>
        <time>2018-10-14T06:59:36Z</time>
      </trkpt>
      <trkpt lat="48.70944" lon="2.50168">
        <ele>89.1485</ele>
        <time>2018-10-14T06:59:39Z</time>
      </trkpt>
      <trkpt lat="48.70946" lon="2.50175">
        <ele>89.1714</ele>
        <time>2018-10-14T06:59:43Z</time>
      </trkpt>
      <trkpt lat="48.70947" lon="2.50178">
        <ele>89.1842</ele>
        <time>2018-10-14T06:59:45Z</time>
      </trkpt>
      <trkpt lat="48.70949" lon="2.50185">
        <ele>89.2057</ele>
        <time>2018-10-14T06:59:48Z</time>
      </trkpt>
      <trkpt lat="48.7095" lon="2.50188">
        <ele>89.229</ele>
        <time>2018-10-14T06:59:51Z</time>
      </trkpt>
      <trkpt lat="48.70951" lon="2.50191">
        <ele>89.2518</ele>
        <time>2018-10-14T06:59:54Z</time>
      </trkpt>
      <trkpt lat="48.70953" lon="2.50197">
        <ele>89.2745</ele>
        <time>2018-10-14T06:59:57Z</time>
      </trkpt>
      <trkpt lat="48.70957" lon="2.50203">
        <ele>89.2974</ele>
        <time>2018-10-14T07:00:00Z</time>
      </trkpt>
      <trkpt lat="48.70961" lon="2.50208">
        <ele>89.3214</ele>
        <time>2018-10-14T07:00:03Z</time>
      </trkpt>
      <trkpt lat="48.70965" lon="2.50213">
        <ele>89.3457</ele>
        <time>2018-10-14T07:00:06Z</time>
      </trkpt>
      <trkpt lat="48.70968" lon="2.50217">
        <ele>89.3705</ele>
        <time>2018-10-14T07:00:09Z</time>
      </trkpt>
      <trkpt lat="48.70973" lon="2.50216">
        <ele>89.4127</ele>
        <time>2018-10-14T07:00:14Z</time>
      </trkpt>
      <trkpt lat="48.70975" lon="2.5021">
        <ele>89.4361</ele>
        <time>2018-10-14T07:00:17Z</time>
      </trkpt>
      <trkpt lat="48.70977" lon="2.50207">
        <ele>89.4494</ele>
        <time>2018-10-14T07:00:19Z</time>
      </trkpt>
      <trkpt lat="48.70977" lon="2.50207">
        <ele>39.1</ele>
        <time>2018-10-14T07:00:27Z</time>
      </trkpt>
      <trkpt lat="48.70977" lon="2.50207">
        <ele>39.1</ele>
        <time>2018-10-14T07:00:32Z</time>
      </trkpt>
      <trkpt lat="48.70988" lon="2.5022">
        <ele>89.4909</ele>
        <time>2018-10-14T07:00:32Z</time>
      </trkpt>
      <trkpt lat="48.70992" lon="2.50226">
        <ele>89.4936</ele>
        <time>2018-10-14T07:00:36Z</time>
      </trkpt>
      <trkpt lat="48.70994" lon="2.50229">
        <ele>89.4939</ele>
        <time>2018-10-14T07:00:38Z</time>
      </trkpt>
      <trkpt lat="48.70996" lon="2.50234">
        <ele>89.4938</ele>
        <time>2018-10-14T07:00:41Z</time>
      </trkpt>
      <trkpt lat="48.70999" lon="2.50239">
        <ele>89.4929</ele>
        <time>2018-10-14T07:00:43Z</time>
      </trkpt>
      <trkpt lat="48.71002" lon="2.50244">
        <ele>89.4909</ele>
        <time>2018-10-14T07:00:46Z</time>
      </trkpt>
      <trkpt lat="48.71004" lon="2.5025">
        <ele>89.4853</ele>
        <time>2018-10-14T07:00:49Z</time>
      </trkpt>
      <trkpt lat="48.71006" lon="2.50255">
        <ele>89.4802</ele>
        <time>2018-10-14T07:00:51Z</time>
      </trkpt>
      <trkpt lat="48.71008" lon="2.50262">
        <ele>89.472</ele>
        <time>2018-10-14T07:00:54Z</time>
      </trkpt>
      <trkpt lat="48.7101" lon="2.50266">
        <ele>89.4629</ele>
        <time>2018-10-14T07:00:57Z</time>
      </trkpt>
      <trkpt lat="48.71012" lon="2.50275">
        <ele>89.4386</ele>
        <time>2018-10-14T07:01:04Z</time>
      </trkpt>
      <trkpt lat="48.71013" lon="2.50278">
        <ele>89.4336</ele>
        <time>2018-10-14T07:01:06Z</time>
      </trkpt>
      <trkpt lat="48.71017" lon="2.50284">
        <ele>89.4261</ele>
        <time>2018-10-14T07:01:11Z</time>
      </trkpt>
      <trkpt lat="48.7102" lon="2.50289">
        <ele>89.4243</ele>
        <time>2018-10-14T07:01:13Z</time>
      </trkpt>
      <trkpt lat="48.71023" lon="2.50292">
        <ele>89.4227</ele>
        <time>2018-10-14T07:01:15Z</time>
      </trkpt>
      <trkpt lat="48.71027" lon="2.50298">
        <ele>89.4208</ele>
        <time>2018-10-14T07:01:19Z</time>
      </trkpt>
      <trkpt lat="48.71029" lon="2.50301">
        <ele>89.4201</ele>
        <time>2018-10-14T07:01:21Z</time>
      </trkpt>
      <trkpt lat="48.71034" lon="2.50306">
        <ele>89.4195</ele>
        <time>2018-10-14T07:01:26Z</time>
      </trkpt>
      <trkpt lat="48.71036" lon="2.50308">
        <ele>89.4201</ele>
        <time>2018-10-14T07:01:30Z</time>
      </trkpt>
      <trkpt lat="48.71035" lon="2.50317">
        <ele>89.423</ele>
        <time>2018-10-14T07:01:38Z</time>
      </trkpt>
      <trkpt lat="48.71035" lon="2.50322">
        <ele>89.4259</ele>
        <time>2018-10-14T07:01:43Z</time>
      </trkpt>
      <trkpt lat="48.71037" lon="2.5033">
        <ele>89.43</ele>
        <time>2018-10-14T07:01:48Z</time>
      </trkpt>
      <trkpt lat="48.71038" lon="2.50339">
        <ele>89.4342</ele>
        <time>2018-10-14T07:01:55Z</time>
      </trkpt>
      <trkpt lat="48.7104" lon="2.50347">
        <ele>89.4363</ele>
        <time>2018-10-14T07:02:01Z</time>
      </trkpt>
      <trkpt lat="48.71045" lon="2.50354">
        <ele>89.4371</ele>
        <time>2018-10-14T07:02:05Z</time>
      </trkpt>
      <trkpt lat="48.71047" lon="2.50361">
        <ele>89.4374</ele>
        <time>2018-10-14T07:02:08Z</time>
      </trkpt>
      <trkpt lat="48.71047" lon="2.50368">
        <ele>89.4369</ele>
        <time>2018-10-14T07:02:11Z</time>
      </trkpt>
      <trkpt lat="48.71048" lon="2.50374">
        <ele>89.4352</ele>
        <time>2018-10-14T07:02:15Z</time>
      </trkpt>
      <trkpt lat="48.71052" lon="2.50379">
        <ele>89.4322</ele>
        <time>2018-10-14T07:02:22Z</time>
      </trkpt>
      <trkpt lat="48.71055" lon="2.50386">
        <ele>89.4315</ele>
        <time>2018-10-14T07:02:28Z</time>
      </trkpt>
      <trkpt lat="48.71057" lon="2.5039">
        <ele>89.4312</ele>
        <time>2018-10-14T07:02:30Z</time>
      </trkpt>
      <trkpt lat="48.71059" lon="2.504">
        <ele>89.4312</ele>
        <time>2018-10-14T07:02:32Z</time>
      </trkpt>
      <trkpt lat="48.71063" lon="2.50406">
        <ele>89.4319</ele>
        <time>2018-10-14T07:02:36Z</time>
      </trkpt>
      <trkpt lat="48.71065" lon="2.50409">
        <ele>89.4325</ele>
        <time>2018-10-14T07:02:39Z</time>
      </trkpt>
      <trkpt lat="48.71068" lon="2.50414">
        <ele>89.4348</ele>
        <time>2018-10-14T07:02:44Z</time>
      </trkpt>
      <trkpt lat="48.7107" lon="2.50421">
        <ele>89.4378</ele>
        <time>2018-10-14T07:02:48Z</time>
      </trkpt>
      <trkpt lat="48.71071" lon="2.50428">
        <ele>89.4434</ele>
        <time>2018-10-14T07:02:53Z</time>
      </trkpt>
      <trkpt lat="48.71074" lon="2.50434">
        <ele>89.4483</ele>
        <time>2018-10-14T07:02:57Z</time>
      </trkpt>
      <trkpt lat="48.71076" lon="2.50437">
        <ele>89.4514</ele>
        <time>2018-10-14T07:02:59Z</time>
      </trkpt>
      <trkpt lat="48.71081" lon="2.50443">
        <ele>89.4579</ele>
        <time>2018-10-14T07:03:03Z</time>
      </trkpt>
      <trkpt lat="48.71082" lon="2.50445">
        <ele>89.4611</ele>
        <time>2018-10-14T07:03:05Z</time>
      </trkpt>
      <trkpt lat="48.71084" lon="2.50453">
        <ele>89.4677</ele>
        <time>2018-10-14T07:03:09Z</time>
      </trkpt>
      <trkpt lat="48.71086" lon="2.50461">
        <ele>89.4735</ele>
        <time>2018-10-14T07:03:12Z</time>
      </trkpt>
      <trkpt lat="48.71089" lon="2.50467">
        <ele>89.4772</ele>
        <time>2018-10-14T07:03:14Z</time>
      </trkpt>
      <trkpt lat="48.7109" lon="2.50471">
        <ele>89.4804</ele>
        <time>2018-10-14T07:03:16Z</time>
      </trkpt>
      <trkpt lat="48.71091" lon="2.50475">
        <ele>89.4855</ele>
        <time>2018-10-14T07:03:19Z</time>
      </trkpt>
      <trkpt lat="48.71095" lon="2.50482">
        <ele>89.4935</ele>
        <time>2018-10-14T07:03:23Z</time>
      </trkpt>
      <trkpt lat="48.71096" lon="2.50486">
        <ele>89.4986</ele>
        <time>2018-10-14T07:03:25Z</time>
      </trkpt>
      <trkpt lat="48.71099" lon="2.50491">
        <ele>89.5083</ele>
        <time>2018-10-14T07:03:28Z</time>
      </trkpt>
      <trkpt lat="48.71102" lon="2.50497">
        <ele>89.5202</ele>
        <time>2018-10-14T07:03:31Z</time>
      </trkpt>
      <trkpt lat="48.71104" lon="2.50501">
        <ele>89.528</ele>
        <time>2018-10-14T07:03:33Z</time>
      </trkpt>
      <trkpt lat="48.71105" lon="2.50505">
        <ele>89.5365</ele>
        <time>2018-10-14T07:03:35Z</time>
      </trkpt>
      <trkpt lat="48.71109" lon="2.50511">
        <ele>89.5572</ele>
        <time>2018-10-14T07:03:39Z</time>
      </trkpt>
      <trkpt lat="48.71111" lon="2.50518">
        <ele>89.5791</ele>
        <time>2018-10-14T07:03:43Z</time>
      </trkpt>
      <trkpt lat="48.71115" lon="2.50523">
        <ele>89.5961</ele>
        <time>2018-10-14T07:03:46Z</time>
      </trkpt>
      <trkpt lat="48.71119" lon="2.50526">
        <ele>89.6133</ele>
        <time>2018-10-14T07:03:49Z</time>
      </trkpt>
      <trkpt lat="48.71122" lon="2.50531">
        <ele>89.6372</ele>
        <time>2018-10-14T07:03:53Z</time>
      </trkpt>
      <trkpt lat="48.71126" lon="2.50536">
        <ele>89.6623</ele>
        <time>2018-10-14T07:03:57Z</time>
      </trkpt>
      <trkpt lat="48.7113" lon="2.50541">
        <ele>89.688</ele>
        <time>2018-10-14T07:04:01Z</time>
      </trkpt>
      <trkpt lat="48.71135" lon="2.50548">
        <ele>89.7062</ele>
        <time>2018-10-14T07:04:04Z</time>
      </trkpt>
      <trkpt lat="48.71139" lon="2.50554">
        <ele>89.724</ele>
        <time>2018-10-14T07:04:07Z</time>
      </trkpt>
      <trkpt lat="48.71142" lon="2.50557">
        <ele>89.7349</ele>
        <time>2018-10-14T07:04:09Z</time>
      </trkpt>
      <trkpt lat="48.71143" lon="2.50565">
        <ele>89.7538</ele>
        <time>2018-10-14T07:04:13Z</time>
      </trkpt>
      <trkpt lat="48.71144" lon="2.5057">
        <ele>89.7621</ele>
        <time>2018-10-14T07:04:15Z</time>
      </trkpt>
      <trkpt lat="48.71145" lon="2.50574">
        <ele>89.7741</ele>
        <time>2018-10-14T07:04:18Z</time>
      </trkpt>
      <trkpt lat="48.71149" lon="2.50579">
        <ele>89.7856</ele>
        <time>2018-10-14T07:04:21Z</time>
      </trkpt>
      <trkpt lat="48.71153" lon="2.50585">
        <ele>89.7955</ele>
        <time>2018-10-14T07:04:24Z</time>
      </trkpt>
      <trkpt lat="48.71156" lon="2.50589">
        <ele>89.8006</ele>
        <time>2018-10-14T07:04:26Z</time>
      </trkpt>
      <trkpt lat="48.71158" lon="2.50596">
        <ele>89.8108</ele>
        <time>2018-10-14T07:04:32Z</time>
      </trkpt>
      <trkpt lat="48.71158" lon="2.50599">
        <ele>89.8124</ele>
        <time>2018-10-14T07:04:33Z</time>
      </trkpt>
      <trkpt lat="48.7116" lon="2.50606">
        <ele>89.8165</ele>
        <time>2018-10-14T07:04:36Z</time>
      </trkpt>
      <trkpt lat="48.71164" lon="2.50613">
        <ele>89.8206</ele>
        <time>2018-10-14T07:04:39Z</time>
      </trkpt>
      <trkpt lat="48.71166" lon="2.50621">
        <ele>89.827</ele>
        <time>2018-10-14T07:04:43Z</time>
      </trkpt>
      <trkpt lat="48.71167" lon="2.50629">
        <ele>89.8316</ele>
        <time>2018-10-14T07:04:46Z</time>
      </trkpt>
      <trkpt lat="48.71167" lon="2.50636">
        <ele>89.8344</ele>
        <time>2018-10-14T07:04:49Z</time>
      </trkpt>
      <trkpt lat="48.71166" lon="2.50642">
        <ele>89.836</ele>
        <time>2018-10-14T07:04:52Z</time>
      </trkpt>
      <trkpt lat="48.71168" lon="2.50651">
        <ele>89.8394</ele>
        <time>2018-10-14T07:04:57Z</time>
      </trkpt>
      <trkpt lat="48.71169" lon="2.50658">
        <ele>89.8401</ele>
        <time>2018-10-14T07:05:01Z</time>
      </trkpt>
      <trkpt lat="48.71169" lon="2.50664">
        <ele>89.8435</ele>
        <time>2018-10-14T07:05:05Z</time>
      </trkpt>
      <trkpt lat="48.7117" lon="2.50672">
        <ele>89.8475</ele>
        <time>2018-10-14T07:05:08Z</time>
      </trkpt>
      <trkpt lat="48.71173" lon="2.50683">
        <ele>89.8557</ele>
        <time>2018-10-14T07:05:12Z</time>
      </trkpt>
      <trkpt lat="48.71175" lon="2.50689">
        <ele>89.8595</ele>
        <time>2018-10-14T07:05:14Z</time>
      </trkpt>
      <trkpt lat="48.71176" lon="2.50696">
        <ele>89.865</ele>
        <time>2018-10-14T07:05:17Z</time>
      </trkpt>
      <trkpt lat="48.71177" lon="2.50703">
        <ele>89.8728</ele>
        <time>2018-10-14T07:05:20Z</time>
      </trkpt>
      <trkpt lat="48.71177" lon="2.50706">
        <ele>89.8779</ele>
        <time>2018-10-14T07:05:22Z</time>
      </trkpt>
      <trkpt lat="48.71178" lon="2.50713">
        <ele>89.8841</ele>
        <time>2018-10-14T07:05:26Z</time>
      </trkpt>
      <trkpt lat="48.71181" lon="2.50719">
        <ele>89.8894</ele>
        <time>2018-10-14T07:05:31Z</time>
      </trkpt>
      <trkpt lat="48.71184" lon="2.50725">
        <ele>89.8939</ele>
        <time>2018-10-14T07:05:34Z</time>
      </trkpt>
      <trkpt lat="48.71186" lon="2.50729">
        <ele>89.8973</ele>
        <time>2018-10-14T07:05:36Z</time>
      </trkpt>
      <trkpt lat="48.7119" lon="2.50734">
        <ele>89.9039</ele>
        <time>2018-10-14T07:05:39Z</time>
      </trkpt>
      <trkpt lat="48.71194" lon="2.50739">
        <ele>89.9116</ele>
        <time>2018-10-14T07:05:42Z</time>
      </trkpt>
      <trkpt lat="48.71197" lon="2.50744">
        <ele>89.9213</ele>
        <time>2018-10-14T07:05:45Z</time>
      </trkpt>
      <trkpt lat="48.71202" lon="2.50751">
        <ele>89.933</ele>
        <time>2018-10-14T07:05:48Z</time>
      </trkpt>
      <trkpt lat="48.71205" lon="2.50757">
        <ele>89.9528</ele>
        <time>2018-10-14T07:05:52Z</time>
      </trkpt>
      <trkpt lat="48.71208" lon="2.50761">
        <ele>89.9686</ele>
        <time>2018-10-14T07:05:55Z</time>
      </trkpt>
      <trkpt lat="48.71211" lon="2.50767">
        <ele>89.9826</ele>
        <time>2018-10-14T07:05:58Z</time>
      </trkpt>
      <trkpt lat="48.71215" lon="2.50772">
        <ele>90.0062</ele>
        <time>2018-10-14T07:06:03Z</time>
      </trkpt>
      <trkpt lat="48.71217" lon="2.50775">
        <ele>90.0149</ele>
        <time>2018-10-14T07:06:05Z</time>
      </trkpt>
      <trkpt lat="48.7122" lon="2.50783">
        <ele>90.0279</ele>
        <time>2018-10-14T07:06:08Z</time>
      </trkpt>
      <trkpt lat="48.71222" lon="2.50789">
        <ele>90.0447</ele>
        <time>2018-10-14T07:06:11Z</time>
      </trkpt>
      <trkpt lat="48.71224" lon="2.50793">
        <ele>90.0667</ele>
        <time>2018-10-14T07:06:14Z</time>
      </trkpt>
      <trkpt lat="48.71227" lon="2.50799">
        <ele>90.0936</ele>
        <time>2018-10-14T07:06:17Z</time>
      </trkpt>
      <trkpt lat="48.71229" lon="2.50806">
        <ele>90.1217</ele>
        <time>2018-10-14T07:06:20Z</time>
      </trkpt>
      <trkpt lat="48.7123" lon="2.50809">
        <ele>90.1406</ele>
        <time>2018-10-14T07:06:22Z</time>
      </trkpt>
      <trkpt lat="48.71231" lon="2.50818">
        <ele>90.1671</ele>
        <time>2018-10-14T07:06:25Z</time>
      </trkpt>
      <trkpt lat="48.71233" lon="2.50824">
        <ele>90.1948</ele>
        <time>2018-10-14T07:06:28Z</time>
      </trkpt>
      <trkpt lat="48.71234" lon="2.50829">
        <ele>90.2159</ele>
        <time>2018-10-14T07:06:30Z</time>
      </trkpt>
      <trkpt lat="48.71236" lon="2.50836">
        <ele>90.2604</ele>
        <time>2018-10-14T07:06:34Z</time>
      </trkpt>
      <trkpt lat="48.71238" lon="2.50843">
        <ele>90.3085</ele>
        <time>2018-10-14T07:06:38Z</time>
      </trkpt>
      <trkpt lat="48.71238" lon="2.50851">
        <ele>90.3643</ele>
        <time>2018-10-14T07:06:42Z</time>
      </trkpt>
      <trkpt lat="48.7124" lon="2.50858">
        <ele>90.4104</ele>
        <time>2018-10-14T07:06:45Z</time>
      </trkpt>
      <trkpt lat="48.71241" lon="2.50862">
        <ele>90.4433</ele>
        <time>2018-10-14T07:06:47Z</time>
      </trkpt>
      <trkpt lat="48.71242" lon="2.50871">
        <ele>90.5109</ele>
        <time>2018-10-14T07:06:51Z</time>
      </trkpt>
      <trkpt lat="48.71243" lon="2.50878">
        <ele>90.5609</ele>
        <time>2018-10-14T07:06:54Z</time>
      </trkpt>
      <trkpt lat="48.71243" lon="2.50887">
        <ele>90.6257</ele>
        <time>2018-10-14T07:06:58Z</time>
      </trkpt>
      <trkpt lat="48.71245" lon="2.50894">
        <ele>90.6579</ele>
        <time>2018-10-14T07:07:00Z</time>
      </trkpt>
      <trkpt lat="48.71246" lon="2.50899">
        <ele>90.6898</ele>
        <time>2018-10-14T07:07:02Z</time>
      </trkpt>
      <trkpt lat="48.71246" lon="2.50907">
        <ele>90.7348</ele>
        <time>2018-10-14T07:07:05Z</time>
      </trkpt>
      <trkpt lat="48.71246" lon="2.50911">
        <ele>90.7772</ele>
        <time>2018-10-14T07:07:08Z</time>
      </trkpt>
      <trkpt lat="48.71245" lon="2.50919">
        <ele>90.8439</ele>
        <time>2018-10-14T07:07:13Z</time>
      </trkpt>
      <trkpt lat="48.71244" lon="2.50928">
        <ele>90.8961</ele>
        <time>2018-10-14T07:07:17Z</time>
      </trkpt>
      <trkpt lat="48.71245" lon="2.50935">
        <ele>90.9597</ele>
        <time>2018-10-14T07:07:22Z</time>
      </trkpt>
      <trkpt lat="48.71245" lon="2.50943">
        <ele>91.0095</ele>
        <time>2018-10-14T07:07:26Z</time>
      </trkpt>
      <trkpt lat="48.71246" lon="2.50952">
        <ele>91.0583</ele>
        <time>2018-10-14T07:07:30Z</time>
      </trkpt>
      <trkpt lat="48.71248" lon="2.5096">
        <ele>91.0959</ele>
        <time>2018-10-14T07:07:33Z</time>
      </trkpt>
      <trkpt lat="48.7125" lon="2.50965">
        <ele>91.1202</ele>
        <time>2018-10-14T07:07:35Z</time>
      </trkpt>
      <trkpt lat="48.7125" lon="2.50969">
        <ele>91.1433</ele>
        <time>2018-10-14T07:07:37Z</time>
      </trkpt>
      <trkpt lat="48.71251" lon="2.50973">
        <ele>91.1657</ele>
        <time>2018-10-14T07:07:39Z</time>
      </trkpt>
      <trkpt lat="48.71251" lon="2.50981">
        <ele>91.211</ele>
        <time>2018-10-14T07:07:43Z</time>
      </trkpt>
      <trkpt lat="48.71253" lon="2.50988">
        <ele>91.2444</ele>
        <time>2018-10-14T07:07:46Z</time>
      </trkpt>
      <trkpt lat="48.71254" lon="2.50992">
        <ele>91.2655</ele>
        <time>2018-10-14T07:07:48Z</time>
      </trkpt>
      <trkpt lat="48.71256" lon="2.51">
        <ele>91.2964</ele>
        <time>2018-10-14T07:07:51Z</time>
      </trkpt>
      <trkpt lat="48.71257" lon="2.51008">
        <ele>91.336</ele>
        <time>2018-10-14T07:07:55Z</time>
      </trkpt>
      <trkpt lat="48.71258" lon="2.51016">
        <ele>91.3642</ele>
        <time>2018-10-14T07:07:58Z</time>
      </trkpt>
      <trkpt lat="48.71259" lon="2.51021">
        <ele>91.3736</ele>
        <time>2018-10-14T07:07:59Z</time>
      </trkpt>
      <trkpt lat="48.71259" lon="2.51024">
        <ele>91.3918</ele>
        <time>2018-10-14T07:08:01Z</time>
      </trkpt>
      <trkpt lat="48.71259" lon="2.51032">
        <ele>91.4325</ele>
        <time>2018-10-14T07:08:06Z</time>
      </trkpt>
      <trkpt lat="48.71256" lon="2.51047">
        <ele>91.4647</ele>
        <time>2018-10-14T07:08:10Z</time>
      </trkpt>
      <trkpt lat="48.71256" lon="2.51054">
        <ele>91.4889</ele>
        <time>2018-10-14T07:08:13Z</time>
      </trkpt>
      <trkpt lat="48.71257" lon="2.5106">
        <ele>91.5125</ele>
        <time>2018-10-14T07:08:16Z</time>
      </trkpt>
      <trkpt lat="48.71257" lon="2.51068">
        <ele>91.5451</ele>
        <time>2018-10-14T07:08:20Z</time>
      </trkpt>
      <trkpt lat="48.71258" lon="2.51073">
        <ele>91.562</ele>
        <time>2018-10-14T07:08:22Z</time>
      </trkpt>
      <trkpt lat="48.71259" lon="2.5108">
        <ele>91.5936</ele>
        <time>2018-10-14T07:08:26Z</time>
      </trkpt>
      <trkpt lat="48.7126" lon="2.51084">
        <ele>91.6079</ele>
        <time>2018-10-14T07:08:28Z</time>
      </trkpt>
      <trkpt lat="48.71261" lon="2.51091">
        <ele>91.6453</ele>
        <time>2018-10-14T07:08:33Z</time>
      </trkpt>
      <trkpt lat="48.71262" lon="2.51098">
        <ele>91.6696</ele>
        <time>2018-10-14T07:08:36Z</time>
      </trkpt>
      <trkpt lat="48.71263" lon="2.51102">
        <ele>91.6864</ele>
        <time>2018-10-14T07:08:38Z</time>
      </trkpt>
      <trkpt lat="48.71265" lon="2.51108">
        <ele>91.7131</ele>
        <time>2018-10-14T07:08:41Z</time>
      </trkpt>
      <trkpt lat="48.71266" lon="2.51111">
        <ele>91.7335</ele>
        <time>2018-10-14T07:08:43Z</time>
      </trkpt>
      <trkpt lat="48.71268" lon="2.51118">
        <ele>91.7681</ele>
        <time>2018-10-14T07:08:46Z</time>
      </trkpt>
      <trkpt lat="48.71269" lon="2.51122">
        <ele>91.7925</ele>
        <time>2018-10-14T07:08:48Z</time>
      </trkpt>
      <trkpt lat="48.7127" lon="2.51129">
        <ele>91.8301</ele>
        <time>2018-10-14T07:08:51Z</time>
      </trkpt>
      <trkpt lat="48.71271" lon="2.51138">
        <ele>91.8688</ele>
        <time>2018-10-14T07:08:54Z</time>
      </trkpt>
      <trkpt lat="48.71272" lon="2.51145">
        <ele>91.9308</ele>
        <time>2018-10-14T07:08:59Z</time>
      </trkpt>
      <trkpt lat="48.71273" lon="2.51153">
        <ele>91.963</ele>
        <time>2018-10-14T07:09:02Z</time>
      </trkpt>
      <trkpt lat="48.71273" lon="2.51157">
        <ele>91.9817</ele>
        <time>2018-10-14T07:09:04Z</time>
      </trkpt>
      <trkpt lat="48.71274" lon="2.51162">
        <ele>91.9996</ele>
        <time>2018-10-14T07:09:06Z</time>
      </trkpt>
      <trkpt lat="48.71275" lon="2.51168">
        <ele>92.0266</ele>
        <time>2018-10-14T07:09:09Z</time>
      </trkpt>
      <trkpt lat="48.71275" lon="2.51173">
        <ele>92.0549</ele>
        <time>2018-10-14T07:09:12Z</time>
      </trkpt>
      <trkpt lat="48.71277" lon="2.51181">
        <ele>92.0924</ele>
        <time>2018-10-14T07:09:16Z</time>
      </trkpt>
      <trkpt lat="48.71278" lon="2.51189">
        <ele>92.1285</ele>
        <time>2018-10-14T07:09:20Z</time>
      </trkpt>
      <trkpt lat="48.71278" lon="2.51197">
        <ele>92.1549</ele>
        <time>2018-10-14T07:09:23Z</time>
      </trkpt>
      <trkpt lat="48.71277" lon="2.51204">
        <ele>92.1816</ele>
        <time>2018-10-14T07:09:26Z</time>
      </trkpt>
      <trkpt lat="48.71277" lon="2.51214">
        <ele>92.2123</ele>
        <time>2018-10-14T07:09:29Z</time>
      </trkpt>
      <trkpt lat="48.71277" lon="2.51218">
        <ele>92.2342</ele>
        <time>2018-10-14T07:09:31Z</time>
      </trkpt>
      <trkpt lat="48.71276" lon="2.51223">
        <ele>92.2583</ele>
        <time>2018-10-14T07:09:33Z</time>
      </trkpt>
      <trkpt lat="48.71277" lon="2.51231">
        <ele>92.3175</ele>
        <time>2018-10-14T07:09:38Z</time>
      </trkpt>
      <trkpt lat="48.71277" lon="2.51237">
        <ele>92.3413</ele>
        <time>2018-10-14T07:09:40Z</time>
      </trkpt>
      <trkpt lat="48.71277" lon="2.51245">
        <ele>92.3781</ele>
        <time>2018-10-14T07:09:43Z</time>
      </trkpt>
      <trkpt lat="48.71274" lon="2.51258">
        <ele>92.4266</ele>
        <time>2018-10-14T07:09:47Z</time>
      </trkpt>
      <trkpt lat="48.71274" lon="2.51265">
        <ele>92.4707</ele>
        <time>2018-10-14T07:09:51Z</time>
      </trkpt>
      <trkpt lat="48.71273" lon="2.51273">
        <ele>92.5125</ele>
        <time>2018-10-14T07:09:55Z</time>
      </trkpt>
      <trkpt lat="48.71272" lon="2.51279">
        <ele>92.554</ele>
        <time>2018-10-14T07:09:59Z</time>
      </trkpt>
      <trkpt lat="48.71271" lon="2.51286">
        <ele>92.5946</ele>
        <time>2018-10-14T07:10:03Z</time>
      </trkpt>
      <trkpt lat="48.71268" lon="2.51292">
        <ele>92.6316</ele>
        <time>2018-10-14T07:10:07Z</time>
      </trkpt>
      <trkpt lat="48.71264" lon="2.51302">
        <ele>92.6576</ele>
        <time>2018-10-14T07:10:10Z</time>
      </trkpt>
      <trkpt lat="48.7126" lon="2.5131">
        <ele>92.6832</ele>
        <time>2018-10-14T07:10:13Z</time>
      </trkpt>
      <trkpt lat="48.71258" lon="2.51318">
        <ele>92.7086</ele>
        <time>2018-10-14T07:10:16Z</time>
      </trkpt>
      <trkpt lat="48.71255" lon="2.51324">
        <ele>92.7347</ele>
        <time>2018-10-14T07:10:19Z</time>
      </trkpt>
      <trkpt lat="48.71252" lon="2.5133">
        <ele>92.7618</ele>
        <time>2018-10-14T07:10:22Z</time>
      </trkpt>
      <trkpt lat="48.71249" lon="2.51336">
        <ele>92.7978</ele>
        <time>2018-10-14T07:10:26Z</time>
      </trkpt>
      <trkpt lat="48.71248" lon="2.5134">
        <ele>92.8153</ele>
        <time>2018-10-14T07:10:28Z</time>
      </trkpt>
      <trkpt lat="48.71247" lon="2.51349">
        <ele>92.8659</ele>
        <time>2018-10-14T07:10:34Z</time>
      </trkpt>
      <trkpt lat="48.71247" lon="2.51356">
        <ele>92.8935</ele>
        <time>2018-10-14T07:10:37Z</time>
      </trkpt>
      <trkpt lat="48.71247" lon="2.51363">
        <ele>92.9226</ele>
        <time>2018-10-14T07:10:40Z</time>
      </trkpt>
      <trkpt lat="48.71247" lon="2.51368">
        <ele>92.9509</ele>
        <time>2018-10-14T07:10:43Z</time>
      </trkpt>
      <trkpt lat="48.71247" lon="2.51376">
        <ele>92.988</ele>
        <time>2018-10-14T07:10:47Z</time>
      </trkpt>
      <trkpt lat="48.71248" lon="2.51383">
        <ele>93.0331</ele>
        <time>2018-10-14T07:10:52Z</time>
      </trkpt>
      <trkpt lat="48.7125" lon="2.51393">
        <ele>93.0658</ele>
        <time>2018-10-14T07:10:56Z</time>
      </trkpt>
      <trkpt lat="48.7125" lon="2.514">
        <ele>93.0892</ele>
        <time>2018-10-14T07:10:59Z</time>
      </trkpt>
      <trkpt lat="48.71252" lon="2.51408">
        <ele>93.1184</ele>
        <time>2018-10-14T07:11:03Z</time>
      </trkpt>
      <trkpt lat="48.71255" lon="2.51415">
        <ele>93.1469</ele>
        <time>2018-10-14T07:11:07Z</time>
      </trkpt>
      <trkpt lat="48.71257" lon="2.5142">
        <ele>93.1603</ele>
        <time>2018-10-14T07:11:09Z</time>
      </trkpt>
      <trkpt lat="48.71259" lon="2.51424">
        <ele>93.1736</ele>
        <time>2018-10-14T07:11:11Z</time>
      </trkpt>
      <trkpt lat="48.71262" lon="2.51431">
        <ele>93.1935</ele>
        <time>2018-10-14T07:11:14Z</time>
      </trkpt>
      <trkpt lat="48.71265" lon="2.51436">
        <ele>93.2211</ele>
        <time>2018-10-14T07:11:18Z</time>
      </trkpt>
      <trkpt lat="48.71269" lon="2.51441">
        <ele>93.2482</ele>
        <time>2018-10-14T07:11:22Z</time>
      </trkpt>
      <trkpt lat="48.71272" lon="2.51445">
        <ele>93.2672</ele>
        <time>2018-10-14T07:11:25Z</time>
      </trkpt>
      <trkpt lat="48.71274" lon="2.51453">
        <ele>93.2907</ele>
        <time>2018-10-14T07:11:29Z</time>
      </trkpt>
      <trkpt lat="48.71275" lon="2.51457">
        <ele>93.3068</ele>
        <time>2018-10-14T07:11:32Z</time>
      </trkpt>
      <trkpt lat="48.71277" lon="2.51463">
        <ele>93.3238</ele>
        <time>2018-10-14T07:11:35Z</time>
      </trkpt>
      <trkpt lat="48.71279" lon="2.51471">
        <ele>93.3466</ele>
        <time>2018-10-14T07:11:39Z</time>
      </trkpt>
      <trkpt lat="48.7128" lon="2.51475">
        <ele>93.3577</ele>
        <time>2018-10-14T07:11:41Z</time>
      </trkpt>
      <trkpt lat="48.71282" lon="2.51482">
        <ele>93.3808</ele>
        <time>2018-10-14T07:11:45Z</time>
      </trkpt>
      <trkpt lat="48.71283" lon="2.51491">
        <ele>93.4019</ele>
        <time>2018-10-14T07:11:49Z</time>
      </trkpt>
      <trkpt lat="48.71284" lon="2.51498">
        <ele>93.4129</ele>
        <time>2018-10-14T07:11:51Z</time>
      </trkpt>
      <trkpt lat="48.71285" lon="2.51506">
        <ele>93.4306</ele>
        <time>2018-10-14T07:11:54Z</time>
      </trkpt>
      <trkpt lat="48.71286" lon="2.51511">
        <ele>93.4427</ele>
        <time>2018-10-14T07:11:56Z</time>
      </trkpt>
      <trkpt lat="48.71286" lon="2.51518">
        <ele>93.4719</ele>
        <time>2018-10-14T07:12:01Z</time>
      </trkpt>
      <trkpt lat="48.71287" lon="2.51525">
        <ele>93.4951</ele>
        <time>2018-10-14T07:12:06Z</time>
      </trkpt>
      <trkpt lat="48.71289" lon="2.51532">
        <ele>93.5062</ele>
        <time>2018-10-14T07:12:09Z</time>
      </trkpt>
      <trkpt lat="48.7129" lon="2.51537">
        <ele>93.5136</ele>
        <time>2018-10-14T07:12:11Z</time>
      </trkpt>
      <trkpt lat="48.71291" lon="2.51545">
        <ele>93.525</ele>
        <time>2018-10-14T07:12:14Z</time>
      </trkpt>
      <trkpt lat="48.71292" lon="2.51553">
        <ele>93.5407</ele>
        <time>2018-10-14T07:12:18Z</time>
      </trkpt>
      <trkpt lat="48.71294" lon="2.51561">
        <ele>93.553</ele>
        <time>2018-10-14T07:12:22Z</time>
      </trkpt>
      <trkpt lat="48.71297" lon="2.51568">
        <ele>93.5634</ele>
        <time>2018-10-14T07:12:26Z</time>
      </trkpt>
      <trkpt lat="48.71299" lon="2.51574">
        <ele>93.5716</ele>
        <time>2018-10-14T07:12:29Z</time>
      </trkpt>
      <trkpt lat="48.713" lon="2.51578">
        <ele>93.5765</ele>
        <time>2018-10-14T07:12:31Z</time>
      </trkpt>
      <trkpt lat="48.71301" lon="2.51581">
        <ele>93.5807</ele>
        <time>2018-10-14T07:12:33Z</time>
      </trkpt>
      <trkpt lat="48.71302" lon="2.51586">
        <ele>93.5852</ele>
        <time>2018-10-14T07:12:35Z</time>
      </trkpt>
      <trkpt lat="48.71307" lon="2.51594">
        <ele>93.5939</ele>
        <time>2018-10-14T07:12:38Z</time>
      </trkpt>
      <trkpt lat="48.71308" lon="2.51601">
        <ele>93.6079</ele>
        <time>2018-10-14T07:12:41Z</time>
      </trkpt>
      <trkpt lat="48.71311" lon="2.51609">
        <ele>93.6382</ele>
        <time>2018-10-14T07:12:46Z</time>
      </trkpt>
      <trkpt lat="48.71314" lon="2.51616">
        <ele>93.6579</ele>
        <time>2018-10-14T07:12:49Z</time>
      </trkpt>
      <trkpt lat="48.71317" lon="2.51623">
        <ele>93.678</ele>
        <time>2018-10-14T07:12:52Z</time>
      </trkpt>
      <trkpt lat="48.71319" lon="2.51631">
        <ele>93.6967</ele>
        <time>2018-10-14T07:12:55Z</time>
      </trkpt>
      <trkpt lat="48.71321" lon="2.51636">
        <ele>93.7092</ele>
        <time>2018-10-14T07:12:57Z</time>
      </trkpt>
      <trkpt lat="48.71322" lon="2.5164">
        <ele>93.722</ele>
        <time>2018-10-14T07:12:59Z</time>
      </trkpt>
      <trkpt lat="48.71325" lon="2.51646">
        <ele>93.7518</ele>
        <time>2018-10-14T07:13:04Z</time>
      </trkpt>
      <trkpt lat="48.71326" lon="2.51649">
        <ele>93.7629</ele>
        <time>2018-10-14T07:13:06Z</time>
      </trkpt>
      <trkpt lat="48.71328" lon="2.51653">
        <ele>93.7739</ele>
        <time>2018-10-14T07:13:08Z</time>
      </trkpt>
      <trkpt lat="48.71329" lon="2.51659">
        <ele>93.7918</ele>
        <time>2018-10-14T07:13:11Z</time>
      </trkpt>
      <trkpt lat="48.71332" lon="2.51665">
        <ele>93.8172</ele>
        <time>2018-10-14T07:13:15Z</time>
      </trkpt>
      <trkpt lat="48.71333" lon="2.51668">
        <ele>93.829</ele>
        <time>2018-10-14T07:13:17Z</time>
      </trkpt>
      <trkpt lat="48.71335" lon="2.51672">
        <ele>93.8397</ele>
        <time>2018-10-14T07:13:19Z</time>
      </trkpt>
      <trkpt lat="48.71337" lon="2.51677">
        <ele>93.8531</ele>
        <time>2018-10-14T07:13:22Z</time>
      </trkpt>
      <trkpt lat="48.71339" lon="2.51683">
        <ele>93.8649</ele>
        <time>2018-10-14T07:13:26Z</time>
      </trkpt>
      <trkpt lat="48.71341" lon="2.51689">
        <ele>93.8695</ele>
        <time>2018-10-14T07:13:29Z</time>
      </trkpt>
      <trkpt lat="48.71343" lon="2.51693">
        <ele>93.8718</ele>
        <time>2018-10-14T07:13:31Z</time>
      </trkpt>
      <trkpt lat="48.71345" lon="2.51697">
        <ele>93.8736</ele>
        <time>2018-10-14T07:13:33Z</time>
      </trkpt>
      <trkpt lat="48.71348" lon="2.51705">
        <ele>93.8768</ele>
        <time>2018-10-14T07:13:37Z</time>
      </trkpt>
      <trkpt lat="48.71349" lon="2.51713">
        <ele>93.8785</ele>
        <time>2018-10-14T07:13:40Z</time>
      </trkpt>
      <trkpt lat="48.71351" lon="2.5172">
        <ele>93.8808</ele>
        <time>2018-10-14T07:13:43Z</time>
      </trkpt>
      <trkpt lat="48.71352" lon="2.51724">
        <ele>93.8839</ele>
        <time>2018-10-14T07:13:45Z</time>
      </trkpt>
      <trkpt lat="48.71354" lon="2.51728">
        <ele>93.8911</ele>
        <time>2018-10-14T07:13:48Z</time>
      </trkpt>
      <trkpt lat="48.71356" lon="2.51734">
        <ele>93.897</ele>
        <time>2018-10-14T07:13:50Z</time>
      </trkpt>
      <trkpt lat="48.71358" lon="2.51738">
        <ele>93.9039</ele>
        <time>2018-10-14T07:13:52Z</time>
      </trkpt>
      <trkpt lat="48.7136" lon="2.51746">
        <ele>93.9164</ele>
        <time>2018-10-14T07:13:56Z</time>
      </trkpt>
      <trkpt lat="48.7136" lon="2.51751">
        <ele>93.9222</ele>
        <time>2018-10-14T07:13:58Z</time>
      </trkpt>
      <trkpt lat="48.71362" lon="2.51758">
        <ele>93.9306</ele>
        <time>2018-10-14T07:14:01Z</time>
      </trkpt>
      <trkpt lat="48.71363" lon="2.51766">
        <ele>93.939</ele>
        <time>2018-10-14T07:14:05Z</time>
      </trkpt>
      <trkpt lat="48.71364" lon="2.5177">
        <ele>93.9429</ele>
        <time>2018-10-14T07:14:07Z</time>
      </trkpt>
      <trkpt lat="48.71365" lon="2.51774">
        <ele>93.947</ele>
        <time>2018-10-14T07:14:09Z</time>
      </trkpt>
      <trkpt lat="48.71364" lon="2.51782">
        <ele>93.9531</ele>
        <time>2018-10-14T07:14:13Z</time>
      </trkpt>
      <trkpt lat="48.71362" lon="2.51789">
        <ele>93.9569</ele>
        <time>2018-10-14T07:14:17Z</time>
      </trkpt>
      <trkpt lat="48.71358" lon="2.51794">
        <ele>93.9584</ele>
        <time>2018-10-14T07:14:23Z</time>
      </trkpt>
      <trkpt lat="48.71353" lon="2.51797">
        <ele>93.9578</ele>
        <time>2018-10-14T07:14:27Z</time>
      </trkpt>
      <trkpt lat="48.71351" lon="2.51804">
        <ele>93.9603</ele>
        <time>2018-10-14T07:14:33Z</time>
      </trkpt>
      <trkpt lat="48.71349" lon="2.51812">
        <ele>93.9678</ele>
        <time>2018-10-14T07:14:38Z</time>
      </trkpt>
      <trkpt lat="48.71346" lon="2.51818">
        <ele>93.9781</ele>
        <time>2018-10-14T07:14:42Z</time>
      </trkpt>
      <trkpt lat="48.71342" lon="2.51823">
        <ele>93.9919</ele>
        <time>2018-10-14T07:14:46Z</time>
      </trkpt>
      <trkpt lat="48.7134" lon="2.51825">
        <ele>93.999</ele>
        <time>2018-10-14T07:14:48Z</time>
      </trkpt>
      <trkpt lat="48.71335" lon="2.51829">
        <ele>94.01</ele>
        <time>2018-10-14T07:14:51Z</time>
      </trkpt>
      <trkpt lat="48.71331" lon="2.51833">
        <ele>94.0292</ele>
        <time>2018-10-14T07:14:55Z</time>
      </trkpt>
      <trkpt lat="48.71328" lon="2.51838">
        <ele>94.053</ele>
        <time>2018-10-14T07:14:59Z</time>
      </trkpt>
      <trkpt lat="48.71324" lon="2.51842">
        <ele>94.0726</ele>
        <time>2018-10-14T07:15:02Z</time>
      </trkpt>
      <trkpt lat="48.71322" lon="2.51845">
        <ele>94.0863</ele>
        <time>2018-10-14T07:15:04Z</time>
      </trkpt>
      <trkpt lat="48.71319" lon="2.5185">
        <ele>94.0998</ele>
        <time>2018-10-14T07:15:06Z</time>
      </trkpt>
      <trkpt lat="48.71316" lon="2.51853">
        <ele>94.1213</ele>
        <time>2018-10-14T07:15:09Z</time>
      </trkpt>
      <trkpt lat="48.71313" lon="2.51856">
        <ele>94.1358</ele>
        <time>2018-10-14T07:15:11Z</time>
      </trkpt>
      <trkpt lat="48.7131" lon="2.51858">
        <ele>94.1505</ele>
        <time>2018-10-14T07:15:13Z</time>
      </trkpt>
      <trkpt lat="48.71306" lon="2.51862">
        <ele>94.1801</ele>
        <time>2018-10-14T07:15:17Z</time>
      </trkpt>
      <trkpt lat="48.713" lon="2.51864">
        <ele>94.2145</ele>
        <time>2018-10-14T07:15:22Z</time>
      </trkpt>
      <trkpt lat="48.71297" lon="2.51865">
        <ele>94.2266</ele>
        <time>2018-10-14T07:15:24Z</time>
      </trkpt>
      <trkpt lat="48.71293" lon="2.51871">
        <ele>94.2392</ele>
        <time>2018-10-14T07:15:26Z</time>
      </trkpt>
      <trkpt lat="48.7129" lon="2.5188">
        <ele>94.2608</ele>
        <time>2018-10-14T07:15:29Z</time>
      </trkpt>
      <trkpt lat="48.71288" lon="2.51883">
        <ele>94.2819</ele>
        <time>2018-10-14T07:15:32Z</time>
      </trkpt>
      <trkpt lat="48.71285" lon="2.51888">
        <ele>94.3189</ele>
        <time>2018-10-14T07:15:37Z</time>
      </trkpt>
      <trkpt lat="48.71284" lon="2.51895">
        <ele>94.3431</ele>
        <time>2018-10-14T07:15:40Z</time>
      </trkpt>
      <trkpt lat="48.71284" lon="2.51903">
        <ele>94.3785</ele>
        <time>2018-10-14T07:15:44Z</time>
      </trkpt>
      <trkpt lat="48.71285" lon="2.51911">
        <ele>94.4148</ele>
        <time>2018-10-14T07:15:48Z</time>
      </trkpt>
      <trkpt lat="48.71284" lon="2.51918">
        <ele>94.4438</ele>
        <time>2018-10-14T07:15:51Z</time>
      </trkpt>
      <trkpt lat="48.71284" lon="2.51923">
        <ele>94.4863</ele>
        <time>2018-10-14T07:15:55Z</time>
      </trkpt>
      <trkpt lat="48.71284" lon="2.51927">
        <ele>94.5084</ele>
        <time>2018-10-14T07:15:57Z</time>
      </trkpt>
      <trkpt lat="48.71284" lon="2.51932">
        <ele>94.5309</ele>
        <time>2018-10-14T07:15:59Z</time>
      </trkpt>
      <trkpt lat="48.71283" lon="2.51939">
        <ele>94.5662</ele>
        <time>2018-10-14T07:16:02Z</time>
      </trkpt>
      <trkpt lat="48.71282" lon="2.51946">
        <ele>94.6037</ele>
        <time>2018-10-14T07:16:05Z</time>
      </trkpt>
      <trkpt lat="48.71281" lon="2.5195">
        <ele>94.6293</ele>
        <time>2018-10-14T07:16:07Z</time>
      </trkpt>
      <trkpt lat="48.7128" lon="2.51958">
        <ele>94.6821</ele>
        <time>2018-10-14T07:16:11Z</time>
      </trkpt>
      <trkpt lat="48.71279" lon="2.51963">
        <ele>94.7222</ele>
        <time>2018-10-14T07:16:14Z</time>
      </trkpt>
      <trkpt lat="48.71279" lon="2.51972">
        <ele>94.7638</ele>
        <time>2018-10-14T07:16:17Z</time>
      </trkpt>
      <trkpt lat="48.7128" lon="2.5198">
        <ele>94.8196</ele>
        <time>2018-10-14T07:16:21Z</time>
      </trkpt>
      <trkpt lat="48.71282" lon="2.51989">
        <ele>94.8712</ele>
        <time>2018-10-14T07:16:25Z</time>
      </trkpt>
      <trkpt lat="48.71283" lon="2.51998">
        <ele>94.9153</ele>
        <time>2018-10-14T07:16:29Z</time>
      </trkpt>
      <trkpt lat="48.71285" lon="2.52005">
        <ele>94.9417</ele>
        <time>2018-10-14T07:16:32Z</time>
      </trkpt>
      <trkpt lat="48.71289" lon="2.5201">
        <ele>94.9642</ele>
        <time>2018-10-14T07:16:35Z</time>
      </trkpt>
      <trkpt lat="48.71291" lon="2.52014">
        <ele>94.9922</ele>
        <time>2018-10-14T07:16:39Z</time>
      </trkpt>
      <trkpt lat="48.71293" lon="2.52023">
        <ele>95.0258</ele>
        <time>2018-10-14T07:16:44Z</time>
      </trkpt>
      <trkpt lat="48.71295" lon="2.52032">
        <ele>95.0529</ele>
        <time>2018-10-14T07:16:48Z</time>
      </trkpt>
      <trkpt lat="48.71297" lon="2.5204">
        <ele>95.0846</ele>
        <time>2018-10-14T07:16:53Z</time>
      </trkpt>
      <trkpt lat="48.71303" lon="2.52045">
        <ele>95.1028</ele>
        <time>2018-10-14T07:16:56Z</time>
      </trkpt>
      <trkpt lat="48.71307" lon="2.52051">
        <ele>95.1202</ele>
        <time>2018-10-14T07:16:59Z</time>
      </trkpt>
      <trkpt lat="48.7131" lon="2.52054">
        <ele>95.1368</ele>
        <time>2018-10-14T07:17:02Z</time>
      </trkpt>
      <trkpt lat="48.71314" lon="2.52058">
        <ele>95.1579</ele>
        <time>2018-10-14T07:17:06Z</time>
      </trkpt>
      <trkpt lat="48.71319" lon="2.52062">
        <ele>95.1807</ele>
        <time>2018-10-14T07:17:10Z</time>
      </trkpt>
      <trkpt lat="48.71325" lon="2.52061">
        <ele>95.2095</ele>
        <time>2018-10-14T07:17:14Z</time>
      </trkpt>
      <trkpt lat="48.7133" lon="2.52057">
        <ele>95.2438</ele>
        <time>2018-10-14T07:17:18Z</time>
      </trkpt>
      <trkpt lat="48.71336" lon="2.52054">
        <ele>95.2843</ele>
        <time>2018-10-14T07:17:22Z</time>
      </trkpt>
      <trkpt lat="48.7134" lon="2.52053">
        <ele>95.3194</ele>
        <time>2018-10-14T07:17:25Z</time>
      </trkpt>
      <trkpt lat="48.71343" lon="2.52051">
        <ele>95.3441</ele>
        <time>2018-10-14T07:17:27Z</time>
      </trkpt>
      <trkpt lat="48.71346" lon="2.5205">
        <ele>95.3688</ele>
        <time>2018-10-14T07:17:29Z</time>
      </trkpt>
      <trkpt lat="48.71349" lon="2.52049">
        <ele>95.393</ele>
        <time>2018-10-14T07:17:31Z</time>
      </trkpt>
      <trkpt lat="48.71352" lon="2.52047">
        <ele>95.4283</ele>
        <time>2018-10-14T07:17:34Z</time>
      </trkpt>
      <trkpt lat="48.71356" lon="2.52045">
        <ele>95.4755</ele>
        <time>2018-10-14T07:17:38Z</time>
      </trkpt>
      <trkpt lat="48.71362" lon="2.52044">
        <ele>95.513</ele>
        <time>2018-10-14T07:17:41Z</time>
      </trkpt>
      <trkpt lat="48.71367" lon="2.52044">
        <ele>95.5525</ele>
        <time>2018-10-14T07:17:44Z</time>
      </trkpt>
      <trkpt lat="48.71373" lon="2.52042">
        <ele>95.6068</ele>
        <time>2018-10-14T07:17:48Z</time>
      </trkpt>
      <trkpt lat="48.71375" lon="2.5204">
        <ele>95.6486</ele>
        <time>2018-10-14T07:17:51Z</time>
      </trkpt>
      <trkpt lat="48.71378" lon="2.52039">
        <ele>95.6769</ele>
        <time>2018-10-14T07:17:53Z</time>
      </trkpt>
      <trkpt lat="48.71383" lon="2.52037">
        <ele>95.7334</ele>
        <time>2018-10-14T07:17:57Z</time>
      </trkpt>
      <trkpt lat="48.71387" lon="2.52036">
        <ele>95.762</ele>
        <time>2018-10-14T07:17:59Z</time>
      </trkpt>
      <trkpt lat="48.71392" lon="2.52036">
        <ele>95.8225</ele>
        <time>2018-10-14T07:18:03Z</time>
      </trkpt>
      <trkpt lat="48.71397" lon="2.52038">
        <ele>95.8858</ele>
        <time>2018-10-14T07:18:07Z</time>
      </trkpt>
      <trkpt lat="48.71401" lon="2.52044">
        <ele>95.967</ele>
        <time>2018-10-14T07:18:12Z</time>
      </trkpt>
      <trkpt lat="48.71403" lon="2.52049">
        <ele>96.0158</ele>
        <time>2018-10-14T07:18:15Z</time>
      </trkpt>
      <trkpt lat="48.71406" lon="2.52053">
        <ele>96.0485</ele>
        <time>2018-10-14T07:18:17Z</time>
      </trkpt>
      <trkpt lat="48.71409" lon="2.52057">
        <ele>96.0813</ele>
        <time>2018-10-14T07:18:19Z</time>
      </trkpt>
      <trkpt lat="48.71411" lon="2.52062">
        <ele>96.131</ele>
        <time>2018-10-14T07:18:22Z</time>
      </trkpt>
      <trkpt lat="48.71413" lon="2.52065">
        <ele>96.1637</ele>
        <time>2018-10-14T07:18:24Z</time>
      </trkpt>
      <trkpt lat="48.71415" lon="2.52071">
        <ele>96.2102</ele>
        <time>2018-10-14T07:18:27Z</time>
      </trkpt>
      <trkpt lat="48.71419" lon="2.52077">
        <ele>96.254</ele>
        <time>2018-10-14T07:18:30Z</time>
      </trkpt>
      <trkpt lat="48.71421" lon="2.52083">
        <ele>96.2945</ele>
        <time>2018-10-14T07:18:33Z</time>
      </trkpt>
      <trkpt lat="48.71423" lon="2.5209">
        <ele>96.3336</ele>
        <time>2018-10-14T07:18:36Z</time>
      </trkpt>
      <trkpt lat="48.71425" lon="2.52096">
        <ele>96.3704</ele>
        <time>2018-10-14T07:18:39Z</time>
      </trkpt>
      <trkpt lat="48.71426" lon="2.521">
        <ele>96.394</ele>
        <time>2018-10-14T07:18:41Z</time>
      </trkpt>
      <trkpt lat="48.71429" lon="2.52105">
        <ele>96.4493</ele>
        <time>2018-10-14T07:18:46Z</time>
      </trkpt>
      <trkpt lat="48.71432" lon="2.52114">
        <ele>96.4899</ele>
        <time>2018-10-14T07:18:50Z</time>
      </trkpt>
      <trkpt lat="48.71433" lon="2.52118">
        <ele>96.5093</ele>
        <time>2018-10-14T07:18:52Z</time>
      </trkpt>
      <trkpt lat="48.71435" lon="2.52126">
        <ele>96.546</ele>
        <time>2018-10-14T07:18:56Z</time>
      </trkpt>
      <trkpt lat="48.71435" lon="2.52134">
        <ele>96.587</ele>
        <time>2018-10-14T07:19:01Z</time>
      </trkpt>
      <trkpt lat="48.71434" lon="2.52142">
        <ele>96.6236</ele>
        <time>2018-10-14T07:19:06Z</time>
      </trkpt>
      <trkpt lat="48.71433" lon="2.52148">
        <ele>96.6441</ele>
        <time>2018-10-14T07:19:09Z</time>
      </trkpt>
      <trkpt lat="48.71432" lon="2.52153">
        <ele>96.657</ele>
        <time>2018-10-14T07:19:11Z</time>
      </trkpt>
      <trkpt lat="48.71431" lon="2.52158">
        <ele>96.6695</ele>
        <time>2018-10-14T07:19:13Z</time>
      </trkpt>
      <trkpt lat="48.7143" lon="2.52166">
        <ele>96.692</ele>
        <time>2018-10-14T07:19:17Z</time>
      </trkpt>
      <trkpt lat="48.71427" lon="2.52173">
        <ele>96.7187</ele>
        <time>2018-10-14T07:19:22Z</time>
      </trkpt>
      <trkpt lat="48.71426" lon="2.52177">
        <ele>96.7339</ele>
        <time>2018-10-14T07:19:25Z</time>
      </trkpt>
      <trkpt lat="48.71423" lon="2.52183">
        <ele>96.7527</ele>
        <time>2018-10-14T07:19:29Z</time>
      </trkpt>
      <trkpt lat="48.7142" lon="2.5219">
        <ele>96.7666</ele>
        <time>2018-10-14T07:19:32Z</time>
      </trkpt>
      <trkpt lat="48.71418" lon="2.52195">
        <ele>96.7758</ele>
        <time>2018-10-14T07:19:34Z</time>
      </trkpt>
      <trkpt lat="48.71415" lon="2.522">
        <ele>96.7905</ele>
        <time>2018-10-14T07:19:37Z</time>
      </trkpt>
      <trkpt lat="48.71414" lon="2.52207">
        <ele>96.8059</ele>
        <time>2018-10-14T07:19:40Z</time>
      </trkpt>
      <trkpt lat="48.71413" lon="2.52213">
        <ele>96.8154</ele>
        <time>2018-10-14T07:19:42Z</time>
      </trkpt>
      <trkpt lat="48.71412" lon="2.52218">
        <ele>96.8237</ele>
        <time>2018-10-14T07:19:44Z</time>
      </trkpt>
      <trkpt lat="48.71411" lon="2.52222">
        <ele>96.831</ele>
        <time>2018-10-14T07:19:46Z</time>
      </trkpt>
      <trkpt lat="48.71408" lon="2.52228">
        <ele>96.8426</ele>
        <time>2018-10-14T07:19:49Z</time>
      </trkpt>
      <trkpt lat="48.71405" lon="2.52233">
        <ele>96.8691</ele>
        <time>2018-10-14T07:19:55Z</time>
      </trkpt>
      <trkpt lat="48.71402" lon="2.52239">
        <ele>96.8815</ele>
        <time>2018-10-14T07:19:58Z</time>
      </trkpt>
      <trkpt lat="48.714" lon="2.52245">
        <ele>96.8905</ele>
        <time>2018-10-14T07:20:01Z</time>
      </trkpt>
      <trkpt lat="48.71399" lon="2.5225">
        <ele>96.8951</ele>
        <time>2018-10-14T07:20:03Z</time>
      </trkpt>
      <trkpt lat="48.71396" lon="2.52256">
        <ele>96.9004</ele>
        <time>2018-10-14T07:20:06Z</time>
      </trkpt>
      <trkpt lat="48.71394" lon="2.52263">
        <ele>96.9067</ele>
        <time>2018-10-14T07:20:10Z</time>
      </trkpt>
      <trkpt lat="48.71393" lon="2.52267">
        <ele>96.9104</ele>
        <time>2018-10-14T07:20:13Z</time>
      </trkpt>
      <trkpt lat="48.71391" lon="2.52274">
        <ele>96.9141</ele>
        <time>2018-10-14T07:20:17Z</time>
      </trkpt>
      <trkpt lat="48.7139" lon="2.52279">
        <ele>96.9161</ele>
        <time>2018-10-14T07:20:19Z</time>
      </trkpt>
      <trkpt lat="48.71389" lon="2.52283">
        <ele>96.918</ele>
        <time>2018-10-14T07:20:21Z</time>
      </trkpt>
      <trkpt lat="48.71386" lon="2.52289">
        <ele>96.9229</ele>
        <time>2018-10-14T07:20:25Z</time>
      </trkpt>
      <trkpt lat="48.71383" lon="2.52292">
        <ele>96.9281</ele>
        <time>2018-10-14T07:20:28Z</time>
      </trkpt>
      <trkpt lat="48.71381" lon="2.52301">
        <ele>96.9347</ele>
        <time>2018-10-14T07:20:32Z</time>
      </trkpt>
      <trkpt lat="48.7138" lon="2.52305">
        <ele>96.9377</ele>
        <time>2018-10-14T07:20:34Z</time>
      </trkpt>
      <trkpt lat="48.71379" lon="2.52312">
        <ele>96.9415</ele>
        <time>2018-10-14T07:20:37Z</time>
      </trkpt>
      <trkpt lat="48.71378" lon="2.52316">
        <ele>96.944</ele>
        <time>2018-10-14T07:20:39Z</time>
      </trkpt>
      <trkpt lat="48.71376" lon="2.52319">
        <ele>96.9474</ele>
        <time>2018-10-14T07:20:41Z</time>
      </trkpt>
      <trkpt lat="48.71375" lon="2.52324">
        <ele>96.9516</ele>
        <time>2018-10-14T07:20:43Z</time>
      </trkpt>
      <trkpt lat="48.71373" lon="2.5233">
        <ele>96.9583</ele>
        <time>2018-10-14T07:20:46Z</time>
      </trkpt>
      <trkpt lat="48.71372" lon="2.52334">
        <ele>96.9632</ele>
        <time>2018-10-14T07:20:48Z</time>
      </trkpt>
      <trkpt lat="48.7137" lon="2.52338">
        <ele>96.9684</ele>
        <time>2018-10-14T07:20:50Z</time>
      </trkpt>
      <trkpt lat="48.71366" lon="2.52345">
        <ele>96.9775</ele>
        <time>2018-10-14T07:20:54Z</time>
      </trkpt>
      <trkpt lat="48.71363" lon="2.52353">
        <ele>96.9839</ele>
        <time>2018-10-14T07:20:58Z</time>
      </trkpt>
      <trkpt lat="48.71359" lon="2.5236">
        <ele>96.9892</ele>
        <time>2018-10-14T07:21:01Z</time>
      </trkpt>
      <trkpt lat="48.71356" lon="2.52366">
        <ele>96.9953</ele>
        <time>2018-10-14T07:21:04Z</time>
      </trkpt>
      <trkpt lat="48.71355" lon="2.52369">
        <ele>97.0002</ele>
        <time>2018-10-14T07:21:06Z</time>
      </trkpt>
      <trkpt lat="48.71352" lon="2.52375">
        <ele>97.0092</ele>
        <time>2018-10-14T07:21:09Z</time>
      </trkpt>
      <trkpt lat="48.7135" lon="2.52379">
        <ele>97.0163</ele>
        <time>2018-10-14T07:21:11Z</time>
      </trkpt>
      <trkpt lat="48.71346" lon="2.52385">
        <ele>97.028</ele>
        <time>2018-10-14T07:21:14Z</time>
      </trkpt>
      <trkpt lat="48.71345" lon="2.52388">
        <ele>97.0321</ele>
        <time>2018-10-14T07:21:15Z</time>
      </trkpt>
      <trkpt lat="48.71343" lon="2.52391">
        <ele>97.0406</ele>
        <time>2018-10-14T07:21:17Z</time>
      </trkpt>
      <trkpt lat="48.71341" lon="2.52399">
        <ele>97.0698</ele>
        <time>2018-10-14T07:21:23Z</time>
      </trkpt>
      <trkpt lat="48.7134" lon="2.52404">
        <ele>97.0885</ele>
        <time>2018-10-14T07:21:26Z</time>
      </trkpt>
      <trkpt lat="48.71339" lon="2.5241">
        <ele>97.1016</ele>
        <time>2018-10-14T07:21:28Z</time>
      </trkpt>
      <trkpt lat="48.71338" lon="2.52419">
        <ele>97.1288</ele>
        <time>2018-10-14T07:21:32Z</time>
      </trkpt>
      <trkpt lat="48.71337" lon="2.52423">
        <ele>97.1424</ele>
        <time>2018-10-14T07:21:34Z</time>
      </trkpt>
      <trkpt lat="48.71336" lon="2.5243">
        <ele>97.1625</ele>
        <time>2018-10-14T07:21:37Z</time>
      </trkpt>
      <trkpt lat="48.71335" lon="2.52437">
        <ele>97.1839</ele>
        <time>2018-10-14T07:21:40Z</time>
      </trkpt>
      <trkpt lat="48.71335" lon="2.52442">
        <ele>97.1992</ele>
        <time>2018-10-14T07:21:42Z</time>
      </trkpt>
      <trkpt lat="48.71335" lon="2.52446">
        <ele>97.2222</ele>
        <time>2018-10-14T07:21:45Z</time>
      </trkpt>
      <trkpt lat="48.71334" lon="2.52454">
        <ele>97.2544</ele>
        <time>2018-10-14T07:21:49Z</time>
      </trkpt>
      <trkpt lat="48.71335" lon="2.52461">
        <ele>97.2896</ele>
        <time>2018-10-14T07:21:53Z</time>
      </trkpt>
      <trkpt lat="48.71335" lon="2.52468">
        <ele>97.3157</ele>
        <time>2018-10-14T07:21:56Z</time>
      </trkpt>
      <trkpt lat="48.71336" lon="2.52472">
        <ele>97.3324</ele>
        <time>2018-10-14T07:21:58Z</time>
      </trkpt>
      <trkpt lat="48.71337" lon="2.5248">
        <ele>97.3555</ele>
        <time>2018-10-14T07:22:01Z</time>
      </trkpt>
      <trkpt lat="48.71338" lon="2.52488">
        <ele>97.3768</ele>
        <time>2018-10-14T07:22:04Z</time>
      </trkpt>
      <trkpt lat="48.71339" lon="2.52493">
        <ele>97.3908</ele>
        <time>2018-10-14T07:22:06Z</time>
      </trkpt>
      <trkpt lat="48.7134" lon="2.52498">
        <ele>97.405</ele>
        <time>2018-10-14T07:22:08Z</time>
      </trkpt>
      <trkpt lat="48.71341" lon="2.52502">
        <ele>97.419</ele>
        <time>2018-10-14T07:22:10Z</time>
      </trkpt>
      <trkpt lat="48.71342" lon="2.52506">
        <ele>97.4332</ele>
        <time>2018-10-14T07:22:12Z</time>
      </trkpt>
      <trkpt lat="48.71343" lon="2.5251">
        <ele>97.4474</ele>
        <time>2018-10-14T07:22:14Z</time>
      </trkpt>
      <trkpt lat="48.71346" lon="2.52516">
        <ele>97.4682</ele>
        <time>2018-10-14T07:22:17Z</time>
      </trkpt>
      <trkpt lat="48.71349" lon="2.5252">
        <ele>97.4863</ele>
        <time>2018-10-14T07:22:20Z</time>
      </trkpt>
      <trkpt lat="48.71351" lon="2.52524">
        <ele>97.5016</ele>
        <time>2018-10-14T07:22:23Z</time>
      </trkpt>
      <trkpt lat="48.71354" lon="2.5253">
        <ele>97.5194</ele>
        <time>2018-10-14T07:22:27Z</time>
      </trkpt>
      <trkpt lat="48.71356" lon="2.52536">
        <ele>97.5335</ele>
        <time>2018-10-14T07:22:30Z</time>
      </trkpt>
      <trkpt lat="48.71359" lon="2.52541">
        <ele>97.5479</ele>
        <time>2018-10-14T07:22:33Z</time>
      </trkpt>
      <trkpt lat="48.71362" lon="2.52548">
        <ele>97.5621</ele>
        <time>2018-10-14T07:22:36Z</time>
      </trkpt>
      <trkpt lat="48.71363" lon="2.52551">
        <ele>97.5715</ele>
        <time>2018-10-14T07:22:38Z</time>
      </trkpt>
      <trkpt lat="48.71365" lon="2.52556">
        <ele>97.5805</ele>
        <time>2018-10-14T07:22:40Z</time>
      </trkpt>
      <trkpt lat="48.71367" lon="2.52561">
        <ele>97.5889</ele>
        <time>2018-10-14T07:22:42Z</time>
      </trkpt>
      <trkpt lat="48.71368" lon="2.52565">
        <ele>97.597</ele>
        <time>2018-10-14T07:22:44Z</time>
      </trkpt>
      <trkpt lat="48.7137" lon="2.52569">
        <ele>97.6047</ele>
        <time>2018-10-14T07:22:46Z</time>
      </trkpt>
      <trkpt lat="48.71373" lon="2.52575">
        <ele>97.6195</ele>
        <time>2018-10-14T07:22:50Z</time>
      </trkpt>
      <trkpt lat="48.71378" lon="2.5258">
        <ele>97.6343</ele>
        <time>2018-10-14T07:22:54Z</time>
      </trkpt>
      <trkpt lat="48.71381" lon="2.52585">
        <ele>97.6487</ele>
        <time>2018-10-14T07:22:58Z</time>
      </trkpt>
      <trkpt lat="48.71386" lon="2.52589">
        <ele>97.6576</ele>
        <time>2018-10-14T07:23:01Z</time>
      </trkpt>
      <trkpt lat="48.71389" lon="2.52594">
        <ele>97.6653</ele>
        <time>2018-10-14T07:23:04Z</time>
      </trkpt>
      <trkpt lat="48.71393" lon="2.52599">
        <ele>97.6725</ele>
        <time>2018-10-14T07:23:07Z</time>
      </trkpt>
      <trkpt lat="48.71396" lon="2.52602">
        <ele>97.6774</ele>
        <time>2018-10-14T07:23:09Z</time>
      </trkpt>
      <trkpt lat="48.71401" lon="2.52607">
        <ele>97.6878</ele>
        <time>2018-10-14T07:23:13Z</time>
      </trkpt>
      <trkpt lat="48.71403" lon="2.52609">
        <ele>97.6942</ele>
        <time>2018-10-14T07:23:15Z</time>
      </trkpt>
      <trkpt lat="48.71406" lon="2.52612">
        <ele>97.7051</ele>
        <time>2018-10-14T07:23:18Z</time>
      </trkpt>
      <trkpt lat="48.71408" lon="2.52614">
        <ele>97.7132</ele>
        <time>2018-10-14T07:23:20Z</time>
      </trkpt>
      <trkpt lat="48.71411" lon="2.5262">
        <ele>97.7303</ele>
        <time>2018-10-14T07:23:24Z</time>
      </trkpt>
      <trkpt lat="48.71415" lon="2.52629">
        <ele>97.7481</ele>
        <time>2018-10-14T07:23:28Z</time>
      </trkpt>
      <trkpt lat="48.71417" lon="2.52634">
        <ele>97.757</ele>
        <time>2018-10-14T07:23:30Z</time>
      </trkpt>
      <trkpt lat="48.71419" lon="2.52641">
        <ele>97.7713</ele>
        <time>2018-10-14T07:23:33Z</time>
      </trkpt>
      <trkpt lat="48.71421" lon="2.52645">
        <ele>97.788</ele>
        <time>2018-10-14T07:23:36Z</time>
      </trkpt>
      <trkpt lat="48.71422" lon="2.52652">
        <ele>97.8132</ele>
        <time>2018-10-14T07:23:40Z</time>
      </trkpt>
      <trkpt lat="48.71423" lon="2.52659">
        <ele>97.8407</ele>
        <time>2018-10-14T07:23:44Z</time>
      </trkpt>
      <trkpt lat="48.71421" lon="2.52667">
        <ele>97.8695</ele>
        <time>2018-10-14T07:23:48Z</time>
      </trkpt>
      <trkpt lat="48.71421" lon="2.52672">
        <ele>97.8847</ele>
        <time>2018-10-14T07:23:50Z</time>
      </trkpt>
      <trkpt lat="48.71421" lon="2.5268">
        <ele>97.9084</ele>
        <time>2018-10-14T07:23:53Z</time>
      </trkpt>
      <trkpt lat="48.71422" lon="2.52688">
        <ele>97.932</ele>
        <time>2018-10-14T07:23:56Z</time>
      </trkpt>
      <trkpt lat="48.71423" lon="2.52695">
        <ele>97.9551</ele>
        <time>2018-10-14T07:23:59Z</time>
      </trkpt>
      <trkpt lat="48.71425" lon="2.52703">
        <ele>97.9929</ele>
        <time>2018-10-14T07:24:04Z</time>
      </trkpt>
      <trkpt lat="48.71426" lon="2.52709">
        <ele>98.0147</ele>
        <time>2018-10-14T07:24:07Z</time>
      </trkpt>
      <trkpt lat="48.71424" lon="2.52716">
        <ele>98.0373</ele>
        <time>2018-10-14T07:24:10Z</time>
      </trkpt>
      <trkpt lat="48.71423" lon="2.52721">
        <ele>98.0526</ele>
        <time>2018-10-14T07:24:12Z</time>
      </trkpt>
      <trkpt lat="48.71419" lon="2.52726">
        <ele>98.0828</ele>
        <time>2018-10-14T07:24:16Z</time>
      </trkpt>
      <trkpt lat="48.71414" lon="2.52728">
        <ele>98.1129</ele>
        <time>2018-10-14T07:24:20Z</time>
      </trkpt>
      <trkpt lat="48.71408" lon="2.52729">
        <ele>98.1429</ele>
        <time>2018-10-14T07:24:24Z</time>
      </trkpt>
      <trkpt lat="48.71404" lon="2.5273">
        <ele>98.1576</ele>
        <time>2018-10-14T07:24:26Z</time>
      </trkpt>
      <trkpt lat="48.714" lon="2.5273">
        <ele>98.1723</ele>
        <time>2018-10-14T07:24:28Z</time>
      </trkpt>
      <trkpt lat="48.71397" lon="2.5273">
        <ele>98.187</ele>
        <time>2018-10-14T07:24:30Z</time>
      </trkpt>
      <trkpt lat="48.71392" lon="2.52732">
        <ele>98.2086</ele>
        <time>2018-10-14T07:24:33Z</time>
      </trkpt>
      <trkpt lat="48.7139" lon="2.52739">
        <ele>98.2546</ele>
        <time>2018-10-14T07:24:39Z</time>
      </trkpt>
      <trkpt lat="48.71391" lon="2.52746">
        <ele>98.2854</ele>
        <time>2018-10-14T07:24:43Z</time>
      </trkpt>
      <trkpt lat="48.71391" lon="2.5275">
        <ele>98.3008</ele>
        <time>2018-10-14T07:24:45Z</time>
      </trkpt>
      <trkpt lat="48.71391" lon="2.52754">
        <ele>98.3087</ele>
        <time>2018-10-14T07:24:46Z</time>
      </trkpt>
      <trkpt lat="48.71392" lon="2.52763">
        <ele>98.3334</ele>
        <time>2018-10-14T07:24:49Z</time>
      </trkpt>
      <trkpt lat="48.71394" lon="2.52771">
        <ele>98.3578</ele>
        <time>2018-10-14T07:24:52Z</time>
      </trkpt>
      <trkpt lat="48.71394" lon="2.52778">
        <ele>98.3819</ele>
        <time>2018-10-14T07:24:55Z</time>
      </trkpt>
      <trkpt lat="48.71395" lon="2.52783">
        <ele>98.3982</ele>
        <time>2018-10-14T07:24:57Z</time>
      </trkpt>
      <trkpt lat="48.71395" lon="2.52787">
        <ele>98.4145</ele>
        <time>2018-10-14T07:24:59Z</time>
      </trkpt>
      <trkpt lat="48.71395" lon="2.52796">
        <ele>98.4663</ele>
        <time>2018-10-14T07:25:05Z</time>
      </trkpt>
      <trkpt lat="48.71395" lon="2.52804">
        <ele>98.4941</ele>
        <time>2018-10-14T07:25:08Z</time>
      </trkpt>
      <trkpt lat="48.71396" lon="2.52812">
        <ele>98.5215</ele>
        <time>2018-10-14T07:25:11Z</time>
      </trkpt>
      <trkpt lat="48.71396" lon="2.52818">
        <ele>98.5391</ele>
        <time>2018-10-14T07:25:13Z</time>
      </trkpt>
      <trkpt lat="48.71397" lon="2.52824">
        <ele>98.5564</ele>
        <time>2018-10-14T07:25:15Z</time>
      </trkpt>
      <trkpt lat="48.71397" lon="2.52829">
        <ele>98.5734</ele>
        <time>2018-10-14T07:25:17Z</time>
      </trkpt>
      <trkpt lat="48.71399" lon="2.52836">
        <ele>98.6057</ele>
        <time>2018-10-14T07:25:21Z</time>
      </trkpt>
      <trkpt lat="48.71399" lon="2.52841">
        <ele>98.628</ele>
        <time>2018-10-14T07:25:24Z</time>
      </trkpt>
      <trkpt lat="48.71401" lon="2.52849">
        <ele>98.6556</ele>
        <time>2018-10-14T07:25:28Z</time>
      </trkpt>
      <trkpt lat="48.71403" lon="2.52855">
        <ele>98.6805</ele>
        <time>2018-10-14T07:25:32Z</time>
      </trkpt>
      <trkpt lat="48.71404" lon="2.52862">
        <ele>98.6973</ele>
        <time>2018-10-14T07:25:35Z</time>
      </trkpt>
      <trkpt lat="48.71405" lon="2.52865">
        <ele>98.7078</ele>
        <time>2018-10-14T07:25:37Z</time>
      </trkpt>
      <trkpt lat="48.71406" lon="2.52871">
        <ele>98.7226</ele>
        <time>2018-10-14T07:25:40Z</time>
      </trkpt>
      <trkpt lat="48.71407" lon="2.52875">
        <ele>98.7319</ele>
        <time>2018-10-14T07:25:42Z</time>
      </trkpt>
      <trkpt lat="48.71408" lon="2.52881">
        <ele>98.7443</ele>
        <time>2018-10-14T07:25:45Z</time>
      </trkpt>
      <trkpt lat="48.71408" lon="2.52885">
        <ele>98.7514</ele>
        <time>2018-10-14T07:25:47Z</time>
      </trkpt>
      <trkpt lat="48.71411" lon="2.52893">
        <ele>98.7638</ele>
        <time>2018-10-14T07:25:51Z</time>
      </trkpt>
      <trkpt lat="48.71413" lon="2.52899">
        <ele>98.7728</ele>
        <time>2018-10-14T07:25:54Z</time>
      </trkpt>
      <trkpt lat="48.71417" lon="2.52905">
        <ele>98.7855</ele>
        <time>2018-10-14T07:25:58Z</time>
      </trkpt>
      <trkpt lat="48.71421" lon="2.5291">
        <ele>98.7995</ele>
        <time>2018-10-14T07:26:02Z</time>
      </trkpt>
      <trkpt lat="48.71423" lon="2.52913">
        <ele>98.8072</ele>
        <time>2018-10-14T07:26:04Z</time>
      </trkpt>
      <trkpt lat="48.71426" lon="2.52919">
        <ele>98.8199</ele>
        <time>2018-10-14T07:26:07Z</time>
      </trkpt>
      <trkpt lat="48.71428" lon="2.52923">
        <ele>98.8285</ele>
        <time>2018-10-14T07:26:09Z</time>
      </trkpt>
      <trkpt lat="48.7143" lon="2.52927">
        <ele>98.8369</ele>
        <time>2018-10-14T07:26:11Z</time>
      </trkpt>
      <trkpt lat="48.71432" lon="2.52936">
        <ele>98.8525</ele>
        <time>2018-10-14T07:26:15Z</time>
      </trkpt>
      <trkpt lat="48.71436" lon="2.52943">
        <ele>98.8674</ele>
        <time>2018-10-14T07:26:19Z</time>
      </trkpt>
      <trkpt lat="48.71438" lon="2.52947">
        <ele>98.8755</ele>
        <time>2018-10-14T07:26:21Z</time>
      </trkpt>
      <trkpt lat="48.71439" lon="2.5295">
        <ele>98.8838</ele>
        <time>2018-10-14T07:26:23Z</time>
      </trkpt>
      <trkpt lat="48.71443" lon="2.52955">
        <ele>98.8966</ele>
        <time>2018-10-14T07:26:26Z</time>
      </trkpt>
      <trkpt lat="48.71444" lon="2.52958">
        <ele>98.9056</ele>
        <time>2018-10-14T07:26:28Z</time>
      </trkpt>
      <trkpt lat="48.71447" lon="2.52964">
        <ele>98.9278</ele>
        <time>2018-10-14T07:26:33Z</time>
      </trkpt>
      <trkpt lat="48.71449" lon="2.52971">
        <ele>98.9403</ele>
        <time>2018-10-14T07:26:36Z</time>
      </trkpt>
      <trkpt lat="48.71452" lon="2.52978">
        <ele>98.9562</ele>
        <time>2018-10-14T07:26:40Z</time>
      </trkpt>
      <trkpt lat="48.71455" lon="2.52983">
        <ele>98.9678</ele>
        <time>2018-10-14T07:26:43Z</time>
      </trkpt>
      <trkpt lat="48.71457" lon="2.52989">
        <ele>98.9755</ele>
        <time>2018-10-14T07:26:45Z</time>
      </trkpt>
      <trkpt lat="48.71459" lon="2.52995">
        <ele>98.9871</ele>
        <time>2018-10-14T07:26:48Z</time>
      </trkpt>
      <trkpt lat="48.71462" lon="2.52999">
        <ele>98.9995</ele>
        <time>2018-10-14T07:26:51Z</time>
      </trkpt>
      <trkpt lat="48.71464" lon="2.53008">
        <ele>99.0177</ele>
        <time>2018-10-14T07:26:55Z</time>
      </trkpt>
      <trkpt lat="48.71466" lon="2.53014">
        <ele>99.0317</ele>
        <time>2018-10-14T07:26:58Z</time>
      </trkpt>
      <trkpt lat="48.71468" lon="2.53021">
        <ele>99.0579</ele>
        <time>2018-10-14T07:27:03Z</time>
      </trkpt>
      <trkpt lat="48.7147" lon="2.53025">
        <ele>99.0739</ele>
        <time>2018-10-14T07:27:06Z</time>
      </trkpt>
      <trkpt lat="48.71471" lon="2.53029">
        <ele>99.0841</ele>
        <time>2018-10-14T07:27:08Z</time>
      </trkpt>
      <trkpt lat="48.71474" lon="2.53035">
        <ele>99.0989</ele>
        <time>2018-10-14T07:27:11Z</time>
      </trkpt>
      <trkpt lat="48.71476" lon="2.53042">
        <ele>99.1182</ele>
        <time>2018-10-14T07:27:15Z</time>
      </trkpt>
      <trkpt lat="48.71479" lon="2.53048">
        <ele>99.1321</ele>
        <time>2018-10-14T07:27:18Z</time>
      </trkpt>
      <trkpt lat="48.7148" lon="2.53051">
        <ele>99.1367</ele>
        <time>2018-10-14T07:27:19Z</time>
      </trkpt>
      <trkpt lat="48.71482" lon="2.53057">
        <ele>99.1503</ele>
        <time>2018-10-14T07:27:22Z</time>
      </trkpt>
      <trkpt lat="48.71486" lon="2.53063">
        <ele>99.1728</ele>
        <time>2018-10-14T07:27:27Z</time>
      </trkpt>
      <trkpt lat="48.7149" lon="2.53069">
        <ele>99.1872</ele>
        <time>2018-10-14T07:27:30Z</time>
      </trkpt>
      <trkpt lat="48.71493" lon="2.53073">
        <ele>99.1968</ele>
        <time>2018-10-14T07:27:32Z</time>
      </trkpt>
      <trkpt lat="48.71495" lon="2.53077">
        <ele>99.2063</ele>
        <time>2018-10-14T07:27:34Z</time>
      </trkpt>
      <trkpt lat="48.71498" lon="2.53083">
        <ele>99.221</ele>
        <time>2018-10-14T07:27:37Z</time>
      </trkpt>
      <trkpt lat="48.71503" lon="2.53088">
        <ele>99.2375</ele>
        <time>2018-10-14T07:27:40Z</time>
      </trkpt>
      <trkpt lat="48.71508" lon="2.53092">
        <ele>99.2553</ele>
        <time>2018-10-14T07:27:43Z</time>
      </trkpt>
      <trkpt lat="48.71511" lon="2.53097">
        <ele>99.2926</ele>
        <time>2018-10-14T07:27:49Z</time>
      </trkpt>
      <trkpt lat="48.71513" lon="2.53101">
        <ele>99.3108</ele>
        <time>2018-10-14T07:27:52Z</time>
      </trkpt>
      <trkpt lat="48.71515" lon="2.53104">
        <ele>99.3221</ele>
        <time>2018-10-14T07:27:54Z</time>
      </trkpt>
      <trkpt lat="48.71517" lon="2.53108">
        <ele>99.3331</ele>
        <time>2018-10-14T07:27:56Z</time>
      </trkpt>
      <trkpt lat="48.71519" lon="2.53112">
        <ele>99.3438</ele>
        <time>2018-10-14T07:27:58Z</time>
      </trkpt>
      <trkpt lat="48.71522" lon="2.53117">
        <ele>99.3601</ele>
        <time>2018-10-14T07:28:01Z</time>
      </trkpt>
      <trkpt lat="48.71524" lon="2.53123">
        <ele>99.3825</ele>
        <time>2018-10-14T07:28:05Z</time>
      </trkpt>
      <trkpt lat="48.71528" lon="2.53128">
        <ele>99.4023</ele>
        <time>2018-10-14T07:28:09Z</time>
      </trkpt>
      <trkpt lat="48.7153" lon="2.53131">
        <ele>99.4109</ele>
        <time>2018-10-14T07:28:11Z</time>
      </trkpt>
      <trkpt lat="48.71534" lon="2.53139">
        <ele>99.4249</ele>
        <time>2018-10-14T07:28:15Z</time>
      </trkpt>
      <trkpt lat="48.71535" lon="2.53145">
        <ele>99.4327</ele>
        <time>2018-10-14T07:28:18Z</time>
      </trkpt>
      <trkpt lat="48.71536" lon="2.53153">
        <ele>99.4398</ele>
        <time>2018-10-14T07:28:21Z</time>
      </trkpt>
      <trkpt lat="48.71537" lon="2.53157">
        <ele>99.4449</ele>
        <time>2018-10-14T07:28:23Z</time>
      </trkpt>
      <trkpt lat="48.71539" lon="2.53165">
        <ele>99.4561</ele>
        <time>2018-10-14T07:28:27Z</time>
      </trkpt>
      <trkpt lat="48.71541" lon="2.53174">
        <ele>99.4636</ele>
        <time>2018-10-14T07:28:30Z</time>
      </trkpt>
      <trkpt lat="48.71542" lon="2.53178">
        <ele>99.4688</ele>
        <time>2018-10-14T07:28:32Z</time>
      </trkpt>
      <trkpt lat="48.71542" lon="2.53183">
        <ele>99.4736</ele>
        <time>2018-10-14T07:28:34Z</time>
      </trkpt>
      <trkpt lat="48.71545" lon="2.53189">
        <ele>99.481</ele>
        <time>2018-10-14T07:28:37Z</time>
      </trkpt>
      <trkpt lat="48.71546" lon="2.53196">
        <ele>99.4882</ele>
        <time>2018-10-14T07:28:40Z</time>
      </trkpt>
      <trkpt lat="48.71549" lon="2.53203">
        <ele>99.497</ele>
        <time>2018-10-14T07:28:45Z</time>
      </trkpt>
      <trkpt lat="48.7155" lon="2.53207">
        <ele>99.5012</ele>
        <time>2018-10-14T07:28:48Z</time>
      </trkpt>
      <trkpt lat="48.71552" lon="2.53212">
        <ele>99.5045</ele>
        <time>2018-10-14T07:28:50Z</time>
      </trkpt>
      <trkpt lat="48.71555" lon="2.53218">
        <ele>99.5094</ele>
        <time>2018-10-14T07:28:54Z</time>
      </trkpt>
      <trkpt lat="48.71557" lon="2.53225">
        <ele>99.5118</ele>
        <time>2018-10-14T07:28:57Z</time>
      </trkpt>
      <trkpt lat="48.71558" lon="2.53233">
        <ele>99.5128</ele>
        <time>2018-10-14T07:29:01Z</time>
      </trkpt>
      <trkpt lat="48.71561" lon="2.53239">
        <ele>99.5131</ele>
        <time>2018-10-14T07:29:04Z</time>
      </trkpt>
      <trkpt lat="48.71564" lon="2.53246">
        <ele>99.5148</ele>
        <time>2018-10-14T07:29:07Z</time>
      </trkpt>
      <trkpt lat="48.71566" lon="2.53254">
        <ele>99.5176</ele>
        <time>2018-10-14T07:29:10Z</time>
      </trkpt>
      <trkpt lat="48.71569" lon="2.5326">
        <ele>99.5214</ele>
        <time>2018-10-14T07:29:13Z</time>
      </trkpt>
      <trkpt lat="48.7157" lon="2.53263">
        <ele>99.5239</ele>
        <time>2018-10-14T07:29:15Z</time>
      </trkpt>
      <trkpt lat="48.71573" lon="2.5327">
        <ele>99.5288</ele>
        <time>2018-10-14T07:29:18Z</time>
      </trkpt>
      <trkpt lat="48.71576" lon="2.53275">
        <ele>99.5388</ele>
        <time>2018-10-14T07:29:22Z</time>
      </trkpt>
      <trkpt lat="48.71578" lon="2.53281">
        <ele>99.5501</ele>
        <time>2018-10-14T07:29:25Z</time>
      </trkpt>
      <trkpt lat="48.71581" lon="2.53286">
        <ele>99.5647</ele>
        <time>2018-10-14T07:29:28Z</time>
      </trkpt>
      <trkpt lat="48.71584" lon="2.53292">
        <ele>99.5806</ele>
        <time>2018-10-14T07:29:31Z</time>
      </trkpt>
      <trkpt lat="48.71585" lon="2.53296">
        <ele>99.5924</ele>
        <time>2018-10-14T07:29:33Z</time>
      </trkpt>
      <trkpt lat="48.71587" lon="2.53301">
        <ele>99.6047</ele>
        <time>2018-10-14T07:29:35Z</time>
      </trkpt>
      <trkpt lat="48.7159" lon="2.53307">
        <ele>99.6233</ele>
        <time>2018-10-14T07:29:38Z</time>
      </trkpt>
      <trkpt lat="48.71592" lon="2.5331">
        <ele>99.6356</ele>
        <time>2018-10-14T07:29:40Z</time>
      </trkpt>
      <trkpt lat="48.71595" lon="2.53316">
        <ele>99.661</ele>
        <time>2018-10-14T07:29:44Z</time>
      </trkpt>
      <trkpt lat="48.71597" lon="2.53323">
        <ele>99.6853</ele>
        <time>2018-10-14T07:29:48Z</time>
      </trkpt>
      <trkpt lat="48.71599" lon="2.53327">
        <ele>99.6971</ele>
        <time>2018-10-14T07:29:50Z</time>
      </trkpt>
      <trkpt lat="48.71602" lon="2.53334">
        <ele>99.7155</ele>
        <time>2018-10-14T07:29:53Z</time>
      </trkpt>
      <trkpt lat="48.71606" lon="2.53338">
        <ele>99.7342</ele>
        <time>2018-10-14T07:29:56Z</time>
      </trkpt>
      <trkpt lat="48.71608" lon="2.53345">
        <ele>99.7677</ele>
        <time>2018-10-14T07:30:02Z</time>
      </trkpt>
      <trkpt lat="48.71608" lon="2.53345">
        <ele>53.1</ele>
        <time>2018-10-14T07:30:10Z</time>
      </trkpt>
      <trkpt lat="48.71608" lon="2.53345">
        <ele>53.1</ele>
        <time>2018-10-14T07:30:25Z</time>
      </trkpt>
      <trkpt lat="48.7162" lon="2.53364">
        <ele>99.8925</ele>
        <time>2018-10-14T07:30:25Z</time>
      </trkpt>
      <trkpt lat="48.71623" lon="2.53368">
        <ele>99.9009</ele>
        <time>2018-10-14T07:30:27Z</time>
      </trkpt>
      <trkpt lat="48.71625" lon="2.53372">
        <ele>99.91</ele>
        <time>2018-10-14T07:30:29Z</time>
      </trkpt>
      <trkpt lat="48.71628" lon="2.53377">
        <ele>99.9239</ele>
        <time>2018-10-14T07:30:32Z</time>
      </trkpt>
      <trkpt lat="48.7163" lon="2.53385">
        <ele>99.9427</ele>
        <time>2018-10-14T07:30:36Z</time>
      </trkpt>
      <trkpt lat="48.71633" lon="2.53393">
        <ele>99.9629</ele>
        <time>2018-10-14T07:30:40Z</time>
      </trkpt>
      <trkpt lat="48.71634" lon="2.53399">
        <ele>99.9855</ele>
        <time>2018-10-14T07:30:44Z</time>
      </trkpt>
      <trkpt lat="48.71636" lon="2.53407">
        <ele>100.011</ele>
        <time>2018-10-14T07:30:48Z</time>
      </trkpt>
      <trkpt lat="48.71638" lon="2.53411">
        <ele>100.026</ele>
        <time>2018-10-14T07:30:50Z</time>
      </trkpt>
      <trkpt lat="48.71639" lon="2.53415">
        <ele>100.04</ele>
        <time>2018-10-14T07:30:52Z</time>
      </trkpt>
      <trkpt lat="48.7164" lon="2.53419">
        <ele>100.055</ele>
        <time>2018-10-14T07:30:54Z</time>
      </trkpt>
      <trkpt lat="48.71641" lon="2.53424">
        <ele>100.07</ele>
        <time>2018-10-14T07:30:56Z</time>
      </trkpt>
      <trkpt lat="48.71642" lon="2.53431">
        <ele>100.101</ele>
        <time>2018-10-14T07:31:00Z</time>
      </trkpt>
      <trkpt lat="48.71645" lon="2.53436">
        <ele>100.126</ele>
        <time>2018-10-14T07:31:03Z</time>
      </trkpt>
      <trkpt lat="48.71647" lon="2.5344">
        <ele>100.143</ele>
        <time>2018-10-14T07:31:05Z</time>
      </trkpt>
      <trkpt lat="48.71649" lon="2.53445">
        <ele>100.16</ele>
        <time>2018-10-14T07:31:07Z</time>
      </trkpt>
      <trkpt lat="48.71652" lon="2.53451">
        <ele>100.187</ele>
        <time>2018-10-14T07:31:10Z</time>
      </trkpt>
      <trkpt lat="48.71654" lon="2.53454">
        <ele>100.206</ele>
        <time>2018-10-14T07:31:12Z</time>
      </trkpt>
      <trkpt lat="48.71655" lon="2.53458">
        <ele>100.224</ele>
        <time>2018-10-14T07:31:14Z</time>
      </trkpt>
      <trkpt lat="48.71657" lon="2.53465">
        <ele>100.263</ele>
        <time>2018-10-14T07:31:18Z</time>
      </trkpt>
      <trkpt lat="48.71659" lon="2.53469">
        <ele>100.292</ele>
        <time>2018-10-14T07:31:21Z</time>
      </trkpt>
      <trkpt lat="48.7166" lon="2.53473">
        <ele>100.312</ele>
        <time>2018-10-14T07:31:23Z</time>
      </trkpt>
      <trkpt lat="48.71661" lon="2.53476">
        <ele>100.331</ele>
        <time>2018-10-14T07:31:25Z</time>
      </trkpt>
      <trkpt lat="48.71663" lon="2.53485">
        <ele>100.37</ele>
        <time>2018-10-14T07:31:29Z</time>
      </trkpt>
      <trkpt lat="48.71664" lon="2.5349">
        <ele>100.389</ele>
        <time>2018-10-14T07:31:31Z</time>
      </trkpt>
      <trkpt lat="48.71666" lon="2.53496">
        <ele>100.419</ele>
        <time>2018-10-14T07:31:34Z</time>
      </trkpt>
      <trkpt lat="48.71667" lon="2.53501">
        <ele>100.439</ele>
        <time>2018-10-14T07:31:36Z</time>
      </trkpt>
      <trkpt lat="48.71668" lon="2.53508">
        <ele>100.469</ele>
        <time>2018-10-14T07:31:39Z</time>
      </trkpt>
      <trkpt lat="48.71669" lon="2.53513">
        <ele>100.488</ele>
        <time>2018-10-14T07:31:41Z</time>
      </trkpt>
      <trkpt lat="48.71669" lon="2.53519">
        <ele>100.507</ele>
        <time>2018-10-14T07:31:43Z</time>
      </trkpt>
      <trkpt lat="48.71669" lon="2.53526">
        <ele>100.544</ele>
        <time>2018-10-14T07:31:47Z</time>
      </trkpt>
      <trkpt lat="48.71669" lon="2.53533">
        <ele>100.576</ele>
        <time>2018-10-14T07:31:51Z</time>
      </trkpt>
      <trkpt lat="48.71669" lon="2.53538">
        <ele>100.59</ele>
        <time>2018-10-14T07:31:53Z</time>
      </trkpt>
      <trkpt lat="48.71669" lon="2.53543">
        <ele>100.604</ele>
        <time>2018-10-14T07:31:55Z</time>
      </trkpt>
      <trkpt lat="48.71671" lon="2.53552">
        <ele>100.634</ele>
        <time>2018-10-14T07:32:00Z</time>
      </trkpt>
      <trkpt lat="48.71672" lon="2.53556">
        <ele>100.645</ele>
        <time>2018-10-14T07:32:02Z</time>
      </trkpt>
      <trkpt lat="48.71673" lon="2.5356">
        <ele>100.655</ele>
        <time>2018-10-14T07:32:04Z</time>
      </trkpt>
      <trkpt lat="48.71674" lon="2.53565">
        <ele>100.669</ele>
        <time>2018-10-14T07:32:07Z</time>
      </trkpt>
      <trkpt lat="48.71674" lon="2.53573">
        <ele>100.68</ele>
        <time>2018-10-14T07:32:10Z</time>
      </trkpt>
      <trkpt lat="48.71674" lon="2.53577">
        <ele>100.688</ele>
        <time>2018-10-14T07:32:12Z</time>
      </trkpt>
      <trkpt lat="48.71674" lon="2.5358">
        <ele>100.694</ele>
        <time>2018-10-14T07:32:14Z</time>
      </trkpt>
      <trkpt lat="48.71673" lon="2.53588">
        <ele>100.708</ele>
        <time>2018-10-14T07:32:18Z</time>
      </trkpt>
      <trkpt lat="48.71672" lon="2.53592">
        <ele>100.715</ele>
        <time>2018-10-14T07:32:20Z</time>
      </trkpt>
      <trkpt lat="48.71672" lon="2.53597">
        <ele>100.721</ele>
        <time>2018-10-14T07:32:22Z</time>
      </trkpt>
      <trkpt lat="48.71671" lon="2.53604">
        <ele>100.73</ele>
        <time>2018-10-14T07:32:25Z</time>
      </trkpt>
      <trkpt lat="48.71671" lon="2.53604">
        <ele>54.6</ele>
        <time>2018-10-14T07:32:32Z</time>
      </trkpt>
      <trkpt lat="48.71671" lon="2.53604">
        <ele>54.6</ele>
        <time>2018-10-14T07:34:16Z</time>
      </trkpt>
      <trkpt lat="48.71663" lon="2.53645">
        <ele>100.751</ele>
        <time>2018-10-14T07:34:16Z</time>
      </trkpt>
      <trkpt lat="48.71667" lon="2.53651">
        <ele>100.761</ele>
        <time>2018-10-14T07:34:21Z</time>
      </trkpt>
      <trkpt lat="48.7167" lon="2.53655">
        <ele>100.773</ele>
        <time>2018-10-14T07:34:26Z</time>
      </trkpt>
      <trkpt lat="48.71674" lon="2.5366">
        <ele>100.786</ele>
        <time>2018-10-14T07:34:31Z</time>
      </trkpt>
      <trkpt lat="48.71677" lon="2.53665">
        <ele>100.802</ele>
        <time>2018-10-14T07:34:36Z</time>
      </trkpt>
      <trkpt lat="48.71679" lon="2.53668">
        <ele>100.812</ele>
        <time>2018-10-14T07:34:39Z</time>
      </trkpt>
      <trkpt lat="48.71679" lon="2.53668">
        <ele>56.6</ele>
        <time>2018-10-14T07:34:46Z</time>
      </trkpt>
      <trkpt lat="48.71679" lon="2.53668">
        <ele>56.6</ele>
        <time>2018-10-14T07:36:21Z</time>
      </trkpt>
      <trkpt lat="48.7168" lon="2.53696">
        <ele>101.055</ele>
        <time>2018-10-14T07:36:21Z</time>
      </trkpt>
      <trkpt lat="48.71682" lon="2.53701">
        <ele>101.094</ele>
        <time>2018-10-14T07:36:25Z</time>
      </trkpt>
      <trkpt lat="48.71683" lon="2.53704">
        <ele>101.132</ele>
        <time>2018-10-14T07:36:29Z</time>
      </trkpt>
      <trkpt lat="48.71683" lon="2.53712">
        <ele>101.171</ele>
        <time>2018-10-14T07:36:33Z</time>
      </trkpt>
      <trkpt lat="48.71684" lon="2.5372">
        <ele>101.214</ele>
        <time>2018-10-14T07:36:37Z</time>
      </trkpt>
      <trkpt lat="48.71684" lon="2.53725">
        <ele>101.237</ele>
        <time>2018-10-14T07:36:39Z</time>
      </trkpt>
      <trkpt lat="48.71684" lon="2.53731">
        <ele>101.285</ele>
        <time>2018-10-14T07:36:43Z</time>
      </trkpt>
      <trkpt lat="48.71686" lon="2.53739">
        <ele>101.336</ele>
        <time>2018-10-14T07:36:47Z</time>
      </trkpt>
      <trkpt lat="48.71687" lon="2.53746">
        <ele>101.377</ele>
        <time>2018-10-14T07:36:50Z</time>
      </trkpt>
      <trkpt lat="48.71689" lon="2.53753">
        <ele>101.417</ele>
        <time>2018-10-14T07:36:53Z</time>
      </trkpt>
      <trkpt lat="48.7169" lon="2.53763">
        <ele>101.469</ele>
        <time>2018-10-14T07:36:57Z</time>
      </trkpt>
      <trkpt lat="48.71693" lon="2.53768">
        <ele>101.517</ele>
        <time>2018-10-14T07:37:01Z</time>
      </trkpt>
      <trkpt lat="48.71697" lon="2.53773">
        <ele>101.552</ele>
        <time>2018-10-14T07:37:04Z</time>
      </trkpt>
      <trkpt lat="48.71699" lon="2.5378">
        <ele>101.587</ele>
        <time>2018-10-14T07:37:07Z</time>
      </trkpt>
      <trkpt lat="48.71701" lon="2.53787">
        <ele>101.621</ele>
        <time>2018-10-14T07:37:10Z</time>
      </trkpt>
      <trkpt lat="48.71702" lon="2.53792">
        <ele>101.644</ele>
        <time>2018-10-14T07:37:12Z</time>
      </trkpt>
      <trkpt lat="48.71703" lon="2.53797">
        <ele>101.665</ele>
        <time>2018-10-14T07:37:14Z</time>
      </trkpt>
      <trkpt lat="48.71704" lon="2.53801">
        <ele>101.687</ele>
        <time>2018-10-14T07:37:16Z</time>
      </trkpt>
      <trkpt lat="48.71707" lon="2.53808">
        <ele>101.74</ele>
        <time>2018-10-14T07:37:21Z</time>
      </trkpt>
      <trkpt lat="48.71708" lon="2.53811">
        <ele>101.76</ele>
        <time>2018-10-14T07:37:23Z</time>
      </trkpt>
      <trkpt lat="48.7171" lon="2.53814">
        <ele>101.781</ele>
        <time>2018-10-14T07:37:25Z</time>
      </trkpt>
      <trkpt lat="48.71714" lon="2.5382">
        <ele>101.823</ele>
        <time>2018-10-14T07:37:29Z</time>
      </trkpt>
      <trkpt lat="48.71717" lon="2.53825">
        <ele>101.843</ele>
        <time>2018-10-14T07:37:31Z</time>
      </trkpt>
      <trkpt lat="48.71719" lon="2.5383">
        <ele>101.863</ele>
        <time>2018-10-14T07:37:33Z</time>
      </trkpt>
      <trkpt lat="48.71721" lon="2.53833">
        <ele>101.882</ele>
        <time>2018-10-14T07:37:35Z</time>
      </trkpt>
      <trkpt lat="48.71723" lon="2.53836">
        <ele>101.902</ele>
        <time>2018-10-14T07:37:37Z</time>
      </trkpt>
      <trkpt lat="48.71727" lon="2.53841">
        <ele>101.95</ele>
        <time>2018-10-14T07:37:42Z</time>
      </trkpt>
      <trkpt lat="48.71732" lon="2.53846">
        <ele>101.978</ele>
        <time>2018-10-14T07:37:45Z</time>
      </trkpt>
      <trkpt lat="48.71734" lon="2.53848">
        <ele>101.988</ele>
        <time>2018-10-14T07:37:46Z</time>
      </trkpt>
      <trkpt lat="48.71738" lon="2.53853">
        <ele>102.027</ele>
        <time>2018-10-14T07:37:50Z</time>
      </trkpt>
      <trkpt lat="48.7174" lon="2.53857">
        <ele>102.047</ele>
        <time>2018-10-14T07:37:52Z</time>
      </trkpt>
      <trkpt lat="48.71742" lon="2.5386">
        <ele>102.058</ele>
        <time>2018-10-14T07:37:53Z</time>
      </trkpt>
      <trkpt lat="48.71745" lon="2.53864">
        <ele>102.078</ele>
        <time>2018-10-14T07:37:55Z</time>
      </trkpt>
      <trkpt lat="48.71747" lon="2.53867">
        <ele>102.099</ele>
        <time>2018-10-14T07:37:57Z</time>
      </trkpt>
      <trkpt lat="48.71749" lon="2.53871">
        <ele>102.14</ele>
        <time>2018-10-14T07:38:01Z</time>
      </trkpt>
      <trkpt lat="48.71752" lon="2.53878">
        <ele>102.18</ele>
        <time>2018-10-14T07:38:05Z</time>
      </trkpt>
      <trkpt lat="48.71756" lon="2.53883">
        <ele>102.211</ele>
        <time>2018-10-14T07:38:08Z</time>
      </trkpt>
      <trkpt lat="48.71758" lon="2.53887">
        <ele>102.231</ele>
        <time>2018-10-14T07:38:10Z</time>
      </trkpt>
      <trkpt lat="48.71762" lon="2.53892">
        <ele>102.262</ele>
        <time>2018-10-14T07:38:13Z</time>
      </trkpt>
      <trkpt lat="48.71764" lon="2.53894">
        <ele>102.282</ele>
        <time>2018-10-14T07:38:15Z</time>
      </trkpt>
      <trkpt lat="48.71769" lon="2.53899">
        <ele>102.324</ele>
        <time>2018-10-14T07:38:19Z</time>
      </trkpt>
      <trkpt lat="48.71771" lon="2.53901">
        <ele>102.344</ele>
        <time>2018-10-14T07:38:21Z</time>
      </trkpt>
      <trkpt lat="48.71775" lon="2.53908">
        <ele>102.391</ele>
        <time>2018-10-14T07:38:26Z</time>
      </trkpt>
      <trkpt lat="48.71779" lon="2.53912">
        <ele>102.427</ele>
        <time>2018-10-14T07:38:30Z</time>
      </trkpt>
      <trkpt lat="48.71781" lon="2.53915">
        <ele>102.446</ele>
        <time>2018-10-14T07:38:32Z</time>
      </trkpt>
      <trkpt lat="48.71785" lon="2.53921">
        <ele>102.483</ele>
        <time>2018-10-14T07:38:36Z</time>
      </trkpt>
      <trkpt lat="48.71789" lon="2.53928">
        <ele>102.514</ele>
        <time>2018-10-14T07:38:39Z</time>
      </trkpt>
      <trkpt lat="48.71792" lon="2.53933">
        <ele>102.545</ele>
        <time>2018-10-14T07:38:42Z</time>
      </trkpt>
      <trkpt lat="48.71794" lon="2.53939">
        <ele>102.575</ele>
        <time>2018-10-14T07:38:45Z</time>
      </trkpt>
      <trkpt lat="48.71796" lon="2.53942">
        <ele>102.595</ele>
        <time>2018-10-14T07:38:47Z</time>
      </trkpt>
      <trkpt lat="48.71798" lon="2.53946">
        <ele>102.616</ele>
        <time>2018-10-14T07:38:49Z</time>
      </trkpt>
      <trkpt lat="48.718" lon="2.53949">
        <ele>102.637</ele>
        <time>2018-10-14T07:38:51Z</time>
      </trkpt>
      <trkpt lat="48.71801" lon="2.53956">
        <ele>102.678</ele>
        <time>2018-10-14T07:38:55Z</time>
      </trkpt>
      <trkpt lat="48.71802" lon="2.53963">
        <ele>102.707</ele>
        <time>2018-10-14T07:38:58Z</time>
      </trkpt>
      <trkpt lat="48.718" lon="2.53971">
        <ele>102.744</ele>
        <time>2018-10-14T07:39:02Z</time>
      </trkpt>
      <trkpt lat="48.718" lon="2.53976">
        <ele>102.771</ele>
        <time>2018-10-14T07:39:05Z</time>
      </trkpt>
      <trkpt lat="48.71799" lon="2.5398">
        <ele>102.788</ele>
        <time>2018-10-14T07:39:07Z</time>
      </trkpt>
      <trkpt lat="48.71798" lon="2.53984">
        <ele>102.805</ele>
        <time>2018-10-14T07:39:09Z</time>
      </trkpt>
      <trkpt lat="48.71797" lon="2.53991">
        <ele>102.839</ele>
        <time>2018-10-14T07:39:13Z</time>
      </trkpt>
      <trkpt lat="48.71797" lon="2.53998">
        <ele>102.873</ele>
        <time>2018-10-14T07:39:17Z</time>
      </trkpt>
      <trkpt lat="48.71796" lon="2.54004">
        <ele>102.89</ele>
        <time>2018-10-14T07:39:19Z</time>
      </trkpt>
      <trkpt lat="48.71795" lon="2.54013">
        <ele>102.915</ele>
        <time>2018-10-14T07:39:22Z</time>
      </trkpt>
      <trkpt lat="48.71794" lon="2.54018">
        <ele>102.933</ele>
        <time>2018-10-14T07:39:24Z</time>
      </trkpt>
      <trkpt lat="48.71795" lon="2.54025">
        <ele>102.97</ele>
        <time>2018-10-14T07:39:28Z</time>
      </trkpt>
      <trkpt lat="48.71797" lon="2.54032">
        <ele>103.011</ele>
        <time>2018-10-14T07:39:32Z</time>
      </trkpt>
      <trkpt lat="48.71799" lon="2.54039">
        <ele>103.055</ele>
        <time>2018-10-14T07:39:36Z</time>
      </trkpt>
      <trkpt lat="48.71801" lon="2.54046">
        <ele>103.09</ele>
        <time>2018-10-14T07:39:39Z</time>
      </trkpt>
      <trkpt lat="48.71803" lon="2.54053">
        <ele>103.139</ele>
        <time>2018-10-14T07:39:43Z</time>
      </trkpt>
      <trkpt lat="48.71805" lon="2.54061">
        <ele>103.234</ele>
        <time>2018-10-14T07:39:51Z</time>
      </trkpt>
      <trkpt lat="48.71807" lon="2.54067">
        <ele>103.256</ele>
        <time>2018-10-14T07:39:53Z</time>
      </trkpt>
      <trkpt lat="48.71808" lon="2.54071">
        <ele>103.278</ele>
        <time>2018-10-14T07:39:55Z</time>
      </trkpt>
      <trkpt lat="48.71811" lon="2.54077">
        <ele>103.321</ele>
        <time>2018-10-14T07:39:59Z</time>
      </trkpt>
      <trkpt lat="48.71815" lon="2.54082">
        <ele>103.353</ele>
        <time>2018-10-14T07:40:02Z</time>
      </trkpt>
      <trkpt lat="48.71818" lon="2.54088">
        <ele>103.397</ele>
        <time>2018-10-14T07:40:06Z</time>
      </trkpt>
      <trkpt lat="48.71822" lon="2.54093">
        <ele>103.44</ele>
        <time>2018-10-14T07:40:10Z</time>
      </trkpt>
      <trkpt lat="48.71826" lon="2.54097">
        <ele>103.471</ele>
        <time>2018-10-14T07:40:13Z</time>
      </trkpt>
      <trkpt lat="48.71832" lon="2.54099">
        <ele>103.502</ele>
        <time>2018-10-14T07:40:16Z</time>
      </trkpt>
      <trkpt lat="48.71836" lon="2.54101">
        <ele>103.521</ele>
        <time>2018-10-14T07:40:18Z</time>
      </trkpt>
      <trkpt lat="48.7184" lon="2.54103">
        <ele>103.541</ele>
        <time>2018-10-14T07:40:20Z</time>
      </trkpt>
      <trkpt lat="48.71842" lon="2.54104">
        <ele>103.551</ele>
        <time>2018-10-14T07:40:21Z</time>
      </trkpt>
      <trkpt lat="48.71848" lon="2.54106">
        <ele>103.579</ele>
        <time>2018-10-14T07:40:24Z</time>
      </trkpt>
      <trkpt lat="48.71853" lon="2.54109">
        <ele>103.616</ele>
        <time>2018-10-14T07:40:28Z</time>
      </trkpt>
      <trkpt lat="48.71856" lon="2.5411">
        <ele>103.642</ele>
        <time>2018-10-14T07:40:31Z</time>
      </trkpt>
      <trkpt lat="48.71859" lon="2.54111">
        <ele>103.667</ele>
        <time>2018-10-14T07:40:34Z</time>
      </trkpt>
      <trkpt lat="48.71862" lon="2.54112">
        <ele>103.684</ele>
        <time>2018-10-14T07:40:36Z</time>
      </trkpt>
      <trkpt lat="48.71864" lon="2.54114">
        <ele>103.701</ele>
        <time>2018-10-14T07:40:38Z</time>
      </trkpt>
      <trkpt lat="48.71868" lon="2.54115">
        <ele>103.729</ele>
        <time>2018-10-14T07:40:41Z</time>
      </trkpt>
      <trkpt lat="48.71871" lon="2.54116">
        <ele>103.748</ele>
        <time>2018-10-14T07:40:43Z</time>
      </trkpt>
      <trkpt lat="48.71876" lon="2.54118">
        <ele>103.776</ele>
        <time>2018-10-14T07:40:46Z</time>
      </trkpt>
      <trkpt lat="48.71881" lon="2.54117">
        <ele>103.812</ele>
        <time>2018-10-14T07:40:50Z</time>
      </trkpt>
      <trkpt lat="48.71883" lon="2.54116">
        <ele>103.832</ele>
        <time>2018-10-14T07:40:53Z</time>
      </trkpt>
      <trkpt lat="48.71883" lon="2.54116">
        <ele>103.832</ele>
        <time>2018-10-14T07:46:03Z</time>
      </trkpt>
      <trkpt lat="48.71893" lon="2.54127">
        <ele>103.766</ele>
        <time>2018-10-14T07:46:04Z</time>
      </trkpt>
      <trkpt lat="48.71895" lon="2.54134">
        <ele>103.747</ele>
        <time>2018-10-14T07:46:08Z</time>
      </trkpt>
      <trkpt lat="48.71897" lon="2.54138">
        <ele>103.738</ele>
        <time>2018-10-14T07:46:10Z</time>
      </trkpt>
      <trkpt lat="48.71899" lon="2.54145">
        <ele>103.725</ele>
        <time>2018-10-14T07:46:13Z</time>
      </trkpt>
      <trkpt lat="48.719" lon="2.5415">
        <ele>103.716</ele>
        <time>2018-10-14T07:46:15Z</time>
      </trkpt>
      <trkpt lat="48.71902" lon="2.54155">
        <ele>103.707</ele>
        <time>2018-10-14T07:46:17Z</time>
      </trkpt>
      <trkpt lat="48.71903" lon="2.54159">
        <ele>103.697</ele>
        <time>2018-10-14T07:46:19Z</time>
      </trkpt>
      <trkpt lat="48.71906" lon="2.54165">
        <ele>103.682</ele>
        <time>2018-10-14T07:46:22Z</time>
      </trkpt>
      <trkpt lat="48.7191" lon="2.5417">
        <ele>103.663</ele>
        <time>2018-10-14T07:46:26Z</time>
      </trkpt>
      <trkpt lat="48.71914" lon="2.54174">
        <ele>103.653</ele>
        <time>2018-10-14T07:46:28Z</time>
      </trkpt>
      <trkpt lat="48.71917" lon="2.54179">
        <ele>103.637</ele>
        <time>2018-10-14T07:46:31Z</time>
      </trkpt>
      <trkpt lat="48.7192" lon="2.54186">
        <ele>103.616</ele>
        <time>2018-10-14T07:46:35Z</time>
      </trkpt>
      <trkpt lat="48.71923" lon="2.54193">
        <ele>103.595</ele>
        <time>2018-10-14T07:46:39Z</time>
      </trkpt>
      <trkpt lat="48.71924" lon="2.54198">
        <ele>103.585</ele>
        <time>2018-10-14T07:46:41Z</time>
      </trkpt>
      <trkpt lat="48.71927" lon="2.54204">
        <ele>103.563</ele>
        <time>2018-10-14T07:46:45Z</time>
      </trkpt>
      <trkpt lat="48.71931" lon="2.5421">
        <ele>103.538</ele>
        <time>2018-10-14T07:46:50Z</time>
      </trkpt>
      <trkpt lat="48.71933" lon="2.54217">
        <ele>103.518</ele>
        <time>2018-10-14T07:46:54Z</time>
      </trkpt>
      <trkpt lat="48.71935" lon="2.54223">
        <ele>103.503</ele>
        <time>2018-10-14T07:46:57Z</time>
      </trkpt>
      <trkpt lat="48.71938" lon="2.54228">
        <ele>103.488</ele>
        <time>2018-10-14T07:47:00Z</time>
      </trkpt>
      <trkpt lat="48.7194" lon="2.54235">
        <ele>103.475</ele>
        <time>2018-10-14T07:47:03Z</time>
      </trkpt>
      <trkpt lat="48.71943" lon="2.54242">
        <ele>103.463</ele>
        <time>2018-10-14T07:47:06Z</time>
      </trkpt>
      <trkpt lat="48.71945" lon="2.54246">
        <ele>103.457</ele>
        <time>2018-10-14T07:47:08Z</time>
      </trkpt>
      <trkpt lat="48.71949" lon="2.54253">
        <ele>103.445</ele>
        <time>2018-10-14T07:47:12Z</time>
      </trkpt>
      <trkpt lat="48.71952" lon="2.54257">
        <ele>103.434</ele>
        <time>2018-10-14T07:47:16Z</time>
      </trkpt>
      <trkpt lat="48.71953" lon="2.54266">
        <ele>103.426</ele>
        <time>2018-10-14T07:47:20Z</time>
      </trkpt>
      <trkpt lat="48.71956" lon="2.54273">
        <ele>103.421</ele>
        <time>2018-10-14T07:47:24Z</time>
      </trkpt>
      <trkpt lat="48.7196" lon="2.54277">
        <ele>103.419</ele>
        <time>2018-10-14T07:47:27Z</time>
      </trkpt>
      <trkpt lat="48.71962" lon="2.5428">
        <ele>103.42</ele>
        <time>2018-10-14T07:47:29Z</time>
      </trkpt>
      <trkpt lat="48.71966" lon="2.54288">
        <ele>103.423</ele>
        <time>2018-10-14T07:47:34Z</time>
      </trkpt>
      <trkpt lat="48.71969" lon="2.54294">
        <ele>103.425</ele>
        <time>2018-10-14T07:47:38Z</time>
      </trkpt>
      <trkpt lat="48.71972" lon="2.54298">
        <ele>103.426</ele>
        <time>2018-10-14T07:47:40Z</time>
      </trkpt>
      <trkpt lat="48.71974" lon="2.543">
        <ele>103.427</ele>
        <time>2018-10-14T07:47:41Z</time>
      </trkpt>
      <trkpt lat="48.71975" lon="2.54303">
        <ele>103.429</ele>
        <time>2018-10-14T07:47:42Z</time>
      </trkpt>
      <trkpt lat="48.71977" lon="2.54305">
        <ele>103.43</ele>
        <time>2018-10-14T07:47:43Z</time>
      </trkpt>
      <trkpt lat="48.71979" lon="2.54309">
        <ele>103.434</ele>
        <time>2018-10-14T07:47:45Z</time>
      </trkpt>
      <trkpt lat="48.71982" lon="2.54314">
        <ele>103.438</ele>
        <time>2018-10-14T07:47:47Z</time>
      </trkpt>
      <trkpt lat="48.71985" lon="2.54318">
        <ele>103.441</ele>
        <time>2018-10-14T07:47:49Z</time>
      </trkpt>
      <trkpt lat="48.71986" lon="2.54321">
        <ele>103.445</ele>
        <time>2018-10-14T07:47:51Z</time>
      </trkpt>
      <trkpt lat="48.71989" lon="2.54328">
        <ele>103.451</ele>
        <time>2018-10-14T07:47:55Z</time>
      </trkpt>
      <trkpt lat="48.71991" lon="2.54332">
        <ele>103.453</ele>
        <time>2018-10-14T07:47:57Z</time>
      </trkpt>
      <trkpt lat="48.71993" lon="2.54335">
        <ele>103.456</ele>
        <time>2018-10-14T07:47:59Z</time>
      </trkpt>
      <trkpt lat="48.71994" lon="2.54338">
        <ele>103.459</ele>
        <time>2018-10-14T07:48:01Z</time>
      </trkpt>
      <trkpt lat="48.71995" lon="2.54341">
        <ele>103.464</ele>
        <time>2018-10-14T07:48:03Z</time>
      </trkpt>
      <trkpt lat="48.71996" lon="2.54345">
        <ele>103.468</ele>
        <time>2018-10-14T07:48:05Z</time>
      </trkpt>
      <trkpt lat="48.71999" lon="2.54352">
        <ele>103.48</ele>
        <time>2018-10-14T07:48:09Z</time>
      </trkpt>
      <trkpt lat="48.72001" lon="2.54354">
        <ele>103.489</ele>
        <time>2018-10-14T07:48:11Z</time>
      </trkpt>
      <trkpt lat="48.72005" lon="2.54352">
        <ele>103.507</ele>
        <time>2018-10-14T07:48:15Z</time>
      </trkpt>
      <trkpt lat="48.7201" lon="2.54348">
        <ele>103.521</ele>
        <time>2018-10-14T07:48:18Z</time>
      </trkpt>
      <trkpt lat="48.72014" lon="2.54342">
        <ele>103.535</ele>
        <time>2018-10-14T07:48:21Z</time>
      </trkpt>
      <trkpt lat="48.72016" lon="2.5434">
        <ele>103.545</ele>
        <time>2018-10-14T07:48:23Z</time>
      </trkpt>
      <trkpt lat="48.72021" lon="2.54335">
        <ele>103.569</ele>
        <time>2018-10-14T07:48:28Z</time>
      </trkpt>
      <trkpt lat="48.72025" lon="2.54332">
        <ele>103.591</ele>
        <time>2018-10-14T07:48:32Z</time>
      </trkpt>
      <trkpt lat="48.7203" lon="2.54334">
        <ele>103.617</ele>
        <time>2018-10-14T07:48:37Z</time>
      </trkpt>
      <trkpt lat="48.72033" lon="2.54335">
        <ele>103.628</ele>
        <time>2018-10-14T07:48:39Z</time>
      </trkpt>
      <trkpt lat="48.72036" lon="2.54335">
        <ele>103.639</ele>
        <time>2018-10-14T07:48:41Z</time>
      </trkpt>
      <trkpt lat="48.7204" lon="2.54334">
        <ele>103.657</ele>
        <time>2018-10-14T07:48:44Z</time>
      </trkpt>
      <trkpt lat="48.72043" lon="2.54327">
        <ele>103.678</ele>
        <time>2018-10-14T07:48:47Z</time>
      </trkpt>
      <trkpt lat="48.72045" lon="2.54321">
        <ele>103.702</ele>
        <time>2018-10-14T07:48:50Z</time>
      </trkpt>
      <trkpt lat="48.72047" lon="2.54318">
        <ele>103.718</ele>
        <time>2018-10-14T07:48:52Z</time>
      </trkpt>
      <trkpt lat="48.72048" lon="2.54313">
        <ele>103.744</ele>
        <time>2018-10-14T07:48:55Z</time>
      </trkpt>
      <trkpt lat="48.72052" lon="2.54307">
        <ele>103.782</ele>
        <time>2018-10-14T07:48:59Z</time>
      </trkpt>
      <trkpt lat="48.72054" lon="2.543">
        <ele>103.823</ele>
        <time>2018-10-14T07:49:03Z</time>
      </trkpt>
      <trkpt lat="48.72055" lon="2.54296">
        <ele>103.844</ele>
        <time>2018-10-14T07:49:05Z</time>
      </trkpt>
      <trkpt lat="48.72061" lon="2.54291">
        <ele>103.901</ele>
        <time>2018-10-14T07:49:10Z</time>
      </trkpt>
      <trkpt lat="48.72064" lon="2.54289">
        <ele>103.924</ele>
        <time>2018-10-14T07:49:12Z</time>
      </trkpt>
      <trkpt lat="48.72067" lon="2.54288">
        <ele>103.948</ele>
        <time>2018-10-14T07:49:14Z</time>
      </trkpt>
      <trkpt lat="48.72071" lon="2.54284">
        <ele>103.996</ele>
        <time>2018-10-14T07:49:18Z</time>
      </trkpt>
      <trkpt lat="48.72076" lon="2.54283">
        <ele>104.07</ele>
        <time>2018-10-14T07:49:24Z</time>
      </trkpt>
      <trkpt lat="48.72079" lon="2.54283">
        <ele>104.094</ele>
        <time>2018-10-14T07:49:26Z</time>
      </trkpt>
      <trkpt lat="48.72084" lon="2.54284">
        <ele>104.143</ele>
        <time>2018-10-14T07:49:30Z</time>
      </trkpt>
      <trkpt lat="48.72087" lon="2.54285">
        <ele>104.169</ele>
        <time>2018-10-14T07:49:32Z</time>
      </trkpt>
      <trkpt lat="48.72093" lon="2.54287">
        <ele>104.219</ele>
        <time>2018-10-14T07:49:36Z</time>
      </trkpt>
      <trkpt lat="48.72096" lon="2.54288">
        <ele>104.243</ele>
        <time>2018-10-14T07:49:38Z</time>
      </trkpt>
      <trkpt lat="48.72101" lon="2.5429">
        <ele>104.278</ele>
        <time>2018-10-14T07:49:41Z</time>
      </trkpt>
      <trkpt lat="48.72103" lon="2.54291">
        <ele>104.301</ele>
        <time>2018-10-14T07:49:43Z</time>
      </trkpt>
      <trkpt lat="48.72107" lon="2.54292">
        <ele>104.323</ele>
        <time>2018-10-14T07:49:45Z</time>
      </trkpt>
      <trkpt lat="48.72109" lon="2.54293">
        <ele>104.335</ele>
        <time>2018-10-14T07:49:46Z</time>
      </trkpt>
      <trkpt lat="48.72116" lon="2.54296">
        <ele>104.377</ele>
        <time>2018-10-14T07:49:50Z</time>
      </trkpt>
      <trkpt lat="48.72119" lon="2.54298">
        <ele>104.395</ele>
        <time>2018-10-14T07:49:52Z</time>
      </trkpt>
      <trkpt lat="48.72125" lon="2.54302">
        <ele>104.44</ele>
        <time>2018-10-14T07:49:58Z</time>
      </trkpt>
      <trkpt lat="48.72132" lon="2.54305">
        <ele>104.469</ele>
        <time>2018-10-14T07:50:02Z</time>
      </trkpt>
      <trkpt lat="48.72138" lon="2.54306">
        <ele>104.493</ele>
        <time>2018-10-14T07:50:05Z</time>
      </trkpt>
      <trkpt lat="48.72141" lon="2.54306">
        <ele>104.51</ele>
        <time>2018-10-14T07:50:07Z</time>
      </trkpt>
      <trkpt lat="48.72144" lon="2.54307">
        <ele>104.527</ele>
        <time>2018-10-14T07:50:09Z</time>
      </trkpt>
      <trkpt lat="48.72148" lon="2.54307">
        <ele>104.545</ele>
        <time>2018-10-14T07:50:11Z</time>
      </trkpt>
      <trkpt lat="48.72152" lon="2.54307">
        <ele>104.562</ele>
        <time>2018-10-14T07:50:13Z</time>
      </trkpt>
      <trkpt lat="48.72155" lon="2.54307">
        <ele>104.579</ele>
        <time>2018-10-14T07:50:15Z</time>
      </trkpt>
      <trkpt lat="48.72159" lon="2.54307">
        <ele>104.596</ele>
        <time>2018-10-14T07:50:17Z</time>
      </trkpt>
      <trkpt lat="48.72164" lon="2.54309">
        <ele>104.625</ele>
        <time>2018-10-14T07:50:20Z</time>
      </trkpt>
      <trkpt lat="48.72169" lon="2.5431">
        <ele>104.659</ele>
        <time>2018-10-14T07:50:24Z</time>
      </trkpt>
      <trkpt lat="48.72172" lon="2.5431">
        <ele>104.682</ele>
        <time>2018-10-14T07:50:27Z</time>
      </trkpt>
      <trkpt lat="48.72175" lon="2.54311">
        <ele>104.704</ele>
        <time>2018-10-14T07:50:30Z</time>
      </trkpt>
      <trkpt lat="48.72178" lon="2.54312">
        <ele>104.718</ele>
        <time>2018-10-14T07:50:32Z</time>
      </trkpt>
      <trkpt lat="48.72182" lon="2.54314">
        <ele>104.747</ele>
        <time>2018-10-14T07:50:36Z</time>
      </trkpt>
      <trkpt lat="48.72187" lon="2.54317">
        <ele>104.769</ele>
        <time>2018-10-14T07:50:39Z</time>
      </trkpt>
      <trkpt lat="48.7219" lon="2.54319">
        <ele>104.782</ele>
        <time>2018-10-14T07:50:41Z</time>
      </trkpt>
      <trkpt lat="48.72192" lon="2.5432">
        <ele>104.796</ele>
        <time>2018-10-14T07:50:43Z</time>
      </trkpt>
      <trkpt lat="48.72196" lon="2.54323">
        <ele>104.811</ele>
        <time>2018-10-14T07:50:45Z</time>
      </trkpt>
      <trkpt lat="48.72198" lon="2.54324">
        <ele>104.819</ele>
        <time>2018-10-14T07:50:46Z</time>
      </trkpt>
      <trkpt lat="48.72201" lon="2.54326">
        <ele>104.834</ele>
        <time>2018-10-14T07:50:48Z</time>
      </trkpt>
      <trkpt lat="48.72204" lon="2.54328">
        <ele>104.85</ele>
        <time>2018-10-14T07:50:50Z</time>
      </trkpt>
      <trkpt lat="48.72207" lon="2.5433">
        <ele>104.866</ele>
        <time>2018-10-14T07:50:52Z</time>
      </trkpt>
      <trkpt lat="48.72212" lon="2.54332">
        <ele>104.892</ele>
        <time>2018-10-14T07:50:55Z</time>
      </trkpt>
      <trkpt lat="48.72215" lon="2.54333">
        <ele>104.909</ele>
        <time>2018-10-14T07:50:57Z</time>
      </trkpt>
      <trkpt lat="48.72217" lon="2.54334">
        <ele>104.925</ele>
        <time>2018-10-14T07:50:59Z</time>
      </trkpt>
      <trkpt lat="48.72223" lon="2.54335">
        <ele>104.966</ele>
        <time>2018-10-14T07:51:04Z</time>
      </trkpt>
      <trkpt lat="48.72227" lon="2.54336">
        <ele>104.981</ele>
        <time>2018-10-14T07:51:06Z</time>
      </trkpt>
      <trkpt lat="48.7223" lon="2.54337">
        <ele>104.996</ele>
        <time>2018-10-14T07:51:08Z</time>
      </trkpt>
      <trkpt lat="48.72234" lon="2.54338">
        <ele>105.011</ele>
        <time>2018-10-14T07:51:10Z</time>
      </trkpt>
      <trkpt lat="48.72236" lon="2.54338">
        <ele>105.025</ele>
        <time>2018-10-14T07:51:12Z</time>
      </trkpt>
      <trkpt lat="48.72238" lon="2.54339">
        <ele>105.046</ele>
        <time>2018-10-14T07:51:15Z</time>
      </trkpt>
      <trkpt lat="48.72238" lon="2.54339">
        <ele>57.5</ele>
        <time>2018-10-14T07:51:23Z</time>
      </trkpt>
      <trkpt lat="48.72238" lon="2.54339">
        <ele>57.5</ele>
        <time>2018-10-14T07:51:44Z</time>
      </trkpt>
      <trkpt lat="48.7225" lon="2.54354">
        <ele>105.073</ele>
        <time>2018-10-14T07:51:44Z</time>
      </trkpt>
      <trkpt lat="48.72253" lon="2.54361">
        <ele>105.071</ele>
        <time>2018-10-14T07:51:47Z</time>
      </trkpt>
      <trkpt lat="48.72255" lon="2.54365">
        <ele>105.069</ele>
        <time>2018-10-14T07:51:49Z</time>
      </trkpt>
      <trkpt lat="48.72257" lon="2.54372">
        <ele>105.066</ele>
        <time>2018-10-14T07:51:54Z</time>
      </trkpt>
      <trkpt lat="48.72258" lon="2.5438">
        <ele>105.063</ele>
        <time>2018-10-14T07:51:58Z</time>
      </trkpt>
      <trkpt lat="48.72261" lon="2.54387">
        <ele>105.058</ele>
        <time>2018-10-14T07:52:01Z</time>
      </trkpt>
      <trkpt lat="48.72263" lon="2.54394">
        <ele>105.054</ele>
        <time>2018-10-14T07:52:04Z</time>
      </trkpt>
      <trkpt lat="48.72264" lon="2.54402">
        <ele>105.051</ele>
        <time>2018-10-14T07:52:07Z</time>
      </trkpt>
      <trkpt lat="48.72267" lon="2.54409">
        <ele>105.048</ele>
        <time>2018-10-14T07:52:10Z</time>
      </trkpt>
      <trkpt lat="48.72269" lon="2.54413">
        <ele>105.047</ele>
        <time>2018-10-14T07:52:12Z</time>
      </trkpt>
      <trkpt lat="48.7227" lon="2.54417">
        <ele>105.047</ele>
        <time>2018-10-14T07:52:14Z</time>
      </trkpt>
      <trkpt lat="48.72275" lon="2.54422">
        <ele>105.047</ele>
        <time>2018-10-14T07:52:18Z</time>
      </trkpt>
      <trkpt lat="48.72276" lon="2.54425">
        <ele>105.048</ele>
        <time>2018-10-14T07:52:20Z</time>
      </trkpt>
      <trkpt lat="48.72279" lon="2.54428">
        <ele>105.05</ele>
        <time>2018-10-14T07:52:23Z</time>
      </trkpt>
      <trkpt lat="48.72282" lon="2.54432">
        <ele>105.052</ele>
        <time>2018-10-14T07:52:26Z</time>
      </trkpt>
      <trkpt lat="48.72285" lon="2.54438">
        <ele>105.056</ele>
        <time>2018-10-14T07:52:30Z</time>
      </trkpt>
      <trkpt lat="48.72287" lon="2.54441">
        <ele>105.059</ele>
        <time>2018-10-14T07:52:32Z</time>
      </trkpt>
      <trkpt lat="48.72289" lon="2.54444">
        <ele>105.063</ele>
        <time>2018-10-14T07:52:34Z</time>
      </trkpt>
      <trkpt lat="48.72293" lon="2.5445">
        <ele>105.073</ele>
        <time>2018-10-14T07:52:39Z</time>
      </trkpt>
      <trkpt lat="48.72294" lon="2.54453">
        <ele>105.081</ele>
        <time>2018-10-14T07:52:42Z</time>
      </trkpt>
      <trkpt lat="48.72299" lon="2.54455">
        <ele>105.093</ele>
        <time>2018-10-14T07:52:46Z</time>
      </trkpt>
      <trkpt lat="48.72305" lon="2.54458">
        <ele>105.11</ele>
        <time>2018-10-14T07:52:50Z</time>
      </trkpt>
      <trkpt lat="48.7231" lon="2.54459">
        <ele>105.12</ele>
        <time>2018-10-14T07:52:52Z</time>
      </trkpt>
      <trkpt lat="48.72314" lon="2.5446">
        <ele>105.131</ele>
        <time>2018-10-14T07:52:54Z</time>
      </trkpt>
      <trkpt lat="48.72318" lon="2.54461">
        <ele>105.143</ele>
        <time>2018-10-14T07:52:56Z</time>
      </trkpt>
      <trkpt lat="48.72322" lon="2.5446">
        <ele>105.161</ele>
        <time>2018-10-14T07:52:59Z</time>
      </trkpt>
      <trkpt lat="48.72327" lon="2.54459">
        <ele>105.18</ele>
        <time>2018-10-14T07:53:02Z</time>
      </trkpt>
      <trkpt lat="48.7233" lon="2.54459">
        <ele>105.193</ele>
        <time>2018-10-14T07:53:04Z</time>
      </trkpt>
      <trkpt lat="48.72333" lon="2.54458">
        <ele>105.206</ele>
        <time>2018-10-14T07:53:06Z</time>
      </trkpt>
      <trkpt lat="48.72338" lon="2.54455">
        <ele>105.234</ele>
        <time>2018-10-14T07:53:10Z</time>
      </trkpt>
      <trkpt lat="48.72342" lon="2.5445">
        <ele>105.261</ele>
        <time>2018-10-14T07:53:14Z</time>
      </trkpt>
      <trkpt lat="48.72345" lon="2.54447">
        <ele>105.274</ele>
        <time>2018-10-14T07:53:16Z</time>
      </trkpt>
      <trkpt lat="48.72347" lon="2.54444">
        <ele>105.288</ele>
        <time>2018-10-14T07:53:18Z</time>
      </trkpt>
      <trkpt lat="48.7235" lon="2.54439">
        <ele>105.318</ele>
        <time>2018-10-14T07:53:22Z</time>
      </trkpt>
      <trkpt lat="48.72354" lon="2.54436">
        <ele>105.342</ele>
        <time>2018-10-14T07:53:25Z</time>
      </trkpt>
      <trkpt lat="48.72359" lon="2.54433">
        <ele>105.376</ele>
        <time>2018-10-14T07:53:29Z</time>
      </trkpt>
      <trkpt lat="48.72365" lon="2.54428">
        <ele>105.409</ele>
        <time>2018-10-14T07:53:33Z</time>
      </trkpt>
      <trkpt lat="48.7237" lon="2.54427">
        <ele>105.434</ele>
        <time>2018-10-14T07:53:36Z</time>
      </trkpt>
      <trkpt lat="48.72373" lon="2.54426">
        <ele>105.45</ele>
        <time>2018-10-14T07:53:38Z</time>
      </trkpt>
      <trkpt lat="48.72378" lon="2.54424">
        <ele>105.474</ele>
        <time>2018-10-14T07:53:41Z</time>
      </trkpt>
      <trkpt lat="48.72381" lon="2.54422">
        <ele>105.49</ele>
        <time>2018-10-14T07:53:43Z</time>
      </trkpt>
      <trkpt lat="48.72384" lon="2.54421">
        <ele>105.505</ele>
        <time>2018-10-14T07:53:45Z</time>
      </trkpt>
      <trkpt lat="48.72388" lon="2.54419">
        <ele>105.536</ele>
        <time>2018-10-14T07:53:49Z</time>
      </trkpt>
      <trkpt lat="48.72392" lon="2.54415">
        <ele>105.572</ele>
        <time>2018-10-14T07:53:53Z</time>
      </trkpt>
      <trkpt lat="48.72394" lon="2.54412">
        <ele>105.602</ele>
        <time>2018-10-14T07:53:56Z</time>
      </trkpt>
      <trkpt lat="48.72398" lon="2.54408">
        <ele>105.656</ele>
        <time>2018-10-14T07:54:01Z</time>
      </trkpt>
      <trkpt lat="48.72402" lon="2.54403">
        <ele>105.687</ele>
        <time>2018-10-14T07:54:04Z</time>
      </trkpt>
      <trkpt lat="48.72407" lon="2.544">
        <ele>105.715</ele>
        <time>2018-10-14T07:54:07Z</time>
      </trkpt>
      <trkpt lat="48.7241" lon="2.54399">
        <ele>105.723</ele>
        <time>2018-10-14T07:54:08Z</time>
      </trkpt>
      <trkpt lat="48.72415" lon="2.54397">
        <ele>105.747</ele>
        <time>2018-10-14T07:54:11Z</time>
      </trkpt>
      <trkpt lat="48.72421" lon="2.54397">
        <ele>105.781</ele>
        <time>2018-10-14T07:54:16Z</time>
      </trkpt>
      <trkpt lat="48.72425" lon="2.54395">
        <ele>105.802</ele>
        <time>2018-10-14T07:54:19Z</time>
      </trkpt>
      <trkpt lat="48.72429" lon="2.54394">
        <ele>105.817</ele>
        <time>2018-10-14T07:54:21Z</time>
      </trkpt>
      <trkpt lat="48.72432" lon="2.54394">
        <ele>105.835</ele>
        <time>2018-10-14T07:54:23Z</time>
      </trkpt>
      <trkpt lat="48.72434" lon="2.54393">
        <ele>105.852</ele>
        <time>2018-10-14T07:54:25Z</time>
      </trkpt>
      <trkpt lat="48.72439" lon="2.54391">
        <ele>105.879</ele>
        <time>2018-10-14T07:54:28Z</time>
      </trkpt>
      <trkpt lat="48.72443" lon="2.54388">
        <ele>105.906</ele>
        <time>2018-10-14T07:54:31Z</time>
      </trkpt>
      <trkpt lat="48.72445" lon="2.54386">
        <ele>105.925</ele>
        <time>2018-10-14T07:54:33Z</time>
      </trkpt>
      <trkpt lat="48.72449" lon="2.54381">
        <ele>105.953</ele>
        <time>2018-10-14T07:54:36Z</time>
      </trkpt>
      <trkpt lat="48.72451" lon="2.54378">
        <ele>105.981</ele>
        <time>2018-10-14T07:54:39Z</time>
      </trkpt>
      <trkpt lat="48.72456" lon="2.54374">
        <ele>106.017</ele>
        <time>2018-10-14T07:54:43Z</time>
      </trkpt>
      <trkpt lat="48.72458" lon="2.54369">
        <ele>106.061</ele>
        <time>2018-10-14T07:54:48Z</time>
      </trkpt>
      <trkpt lat="48.72463" lon="2.54366">
        <ele>106.087</ele>
        <time>2018-10-14T07:54:51Z</time>
      </trkpt>
      <trkpt lat="48.72466" lon="2.54363">
        <ele>106.113</ele>
        <time>2018-10-14T07:54:54Z</time>
      </trkpt>
      <trkpt lat="48.72471" lon="2.54356">
        <ele>106.147</ele>
        <time>2018-10-14T07:54:58Z</time>
      </trkpt>
      <trkpt lat="48.72473" lon="2.54354">
        <ele>106.156</ele>
        <time>2018-10-14T07:54:59Z</time>
      </trkpt>
      <trkpt lat="48.72476" lon="2.54347">
        <ele>106.181</ele>
        <time>2018-10-14T07:55:02Z</time>
      </trkpt>
      <trkpt lat="48.72477" lon="2.54341">
        <ele>106.212</ele>
        <time>2018-10-14T07:55:06Z</time>
      </trkpt>
      <trkpt lat="48.72478" lon="2.54337">
        <ele>106.233</ele>
        <time>2018-10-14T07:55:09Z</time>
      </trkpt>
      <trkpt lat="48.72479" lon="2.54334">
        <ele>106.246</ele>
        <time>2018-10-14T07:55:11Z</time>
      </trkpt>
      <trkpt lat="48.72482" lon="2.54327">
        <ele>106.268</ele>
        <time>2018-10-14T07:55:15Z</time>
      </trkpt>
      <trkpt lat="48.72488" lon="2.54323">
        <ele>106.291</ele>
        <time>2018-10-14T07:55:19Z</time>
      </trkpt>
      <trkpt lat="48.72495" lon="2.54323">
        <ele>106.311</ele>
        <time>2018-10-14T07:55:22Z</time>
      </trkpt>
      <trkpt lat="48.72497" lon="2.54323">
        <ele>106.317</ele>
        <time>2018-10-14T07:55:23Z</time>
      </trkpt>
      <trkpt lat="48.72502" lon="2.54327">
        <ele>106.344</ele>
        <time>2018-10-14T07:55:27Z</time>
      </trkpt>
      <trkpt lat="48.72505" lon="2.54329">
        <ele>106.386</ele>
        <time>2018-10-14T07:55:34Z</time>
      </trkpt>
      <trkpt lat="48.72508" lon="2.54335">
        <ele>106.422</ele>
        <time>2018-10-14T07:55:40Z</time>
      </trkpt>
      <trkpt lat="48.7251" lon="2.54338">
        <ele>106.433</ele>
        <time>2018-10-14T07:55:42Z</time>
      </trkpt>
      <trkpt lat="48.72512" lon="2.54342">
        <ele>106.455</ele>
        <time>2018-10-14T07:55:46Z</time>
      </trkpt>
      <trkpt lat="48.72547" lon="2.54391">
        <ele>106.729</ele>
        <time>2018-10-14T07:56:17Z</time>
      </trkpt>
      <trkpt lat="48.72552" lon="2.54386">
        <ele>106.748</ele>
        <time>2018-10-14T07:56:21Z</time>
      </trkpt>
      <trkpt lat="48.72558" lon="2.54386">
        <ele>106.792</ele>
        <time>2018-10-14T07:56:26Z</time>
      </trkpt>
      <trkpt lat="48.72558" lon="2.54386">
        <ele>58.7</ele>
        <time>2018-10-14T07:56:34Z</time>
      </trkpt>
      <trkpt lat="48.72558" lon="2.54386">
        <ele>58.7</ele>
        <time>2018-10-14T07:56:39Z</time>
      </trkpt>
      <trkpt lat="48.72566" lon="2.54392">
        <ele>107.368</ele>
        <time>2018-10-14T07:56:39Z</time>
      </trkpt>
      <trkpt lat="48.72571" lon="2.54394">
        <ele>107.643</ele>
        <time>2018-10-14T07:56:43Z</time>
      </trkpt>
      <trkpt lat="48.72575" lon="2.54398">
        <ele>108.069</ele>
        <time>2018-10-14T07:56:49Z</time>
      </trkpt>
      <trkpt lat="48.72575" lon="2.54398">
        <ele>58.9</ele>
        <time>2018-10-14T07:56:56Z</time>
      </trkpt>
      <trkpt lat="48.72575" lon="2.54398">
        <ele>58.9</ele>
        <time>2018-10-14T07:57:00Z</time>
      </trkpt>
      <trkpt lat="48.72584" lon="2.54406">
        <ele>108.725</ele>
        <time>2018-10-14T07:57:00Z</time>
      </trkpt>
      <trkpt lat="48.7259" lon="2.5441">
        <ele>109.046</ele>
        <time>2018-10-14T07:57:06Z</time>
      </trkpt>
      <trkpt lat="48.72592" lon="2.54412">
        <ele>109.096</ele>
        <time>2018-10-14T07:57:07Z</time>
      </trkpt>
      <trkpt lat="48.72597" lon="2.54416">
        <ele>109.268</ele>
        <time>2018-10-14T07:57:10Z</time>
      </trkpt>
      <trkpt lat="48.72601" lon="2.54418">
        <ele>109.398</ele>
        <time>2018-10-14T07:57:12Z</time>
      </trkpt>
      <trkpt lat="48.72603" lon="2.54419">
        <ele>109.472</ele>
        <time>2018-10-14T07:57:13Z</time>
      </trkpt>
      <trkpt lat="48.72607" lon="2.54424">
        <ele>109.698</ele>
        <time>2018-10-14T07:57:16Z</time>
      </trkpt>
      <trkpt lat="48.72609" lon="2.54426">
        <ele>109.845</ele>
        <time>2018-10-14T07:57:18Z</time>
      </trkpt>
      <trkpt lat="48.72612" lon="2.54429">
        <ele>109.984</ele>
        <time>2018-10-14T07:57:20Z</time>
      </trkpt>
      <trkpt lat="48.72614" lon="2.54432">
        <ele>110.112</ele>
        <time>2018-10-14T07:57:22Z</time>
      </trkpt>
      <trkpt lat="48.72619" lon="2.54439">
        <ele>110.43</ele>
        <time>2018-10-14T07:57:28Z</time>
      </trkpt>
      <trkpt lat="48.72622" lon="2.54442">
        <ele>110.555</ele>
        <time>2018-10-14T07:57:31Z</time>
      </trkpt>
      <trkpt lat="48.72626" lon="2.54445">
        <ele>110.659</ele>
        <time>2018-10-14T07:57:34Z</time>
      </trkpt>
      <trkpt lat="48.72629" lon="2.54448">
        <ele>110.724</ele>
        <time>2018-10-14T07:57:36Z</time>
      </trkpt>
      <trkpt lat="48.72631" lon="2.5445">
        <ele>110.782</ele>
        <time>2018-10-14T07:57:38Z</time>
      </trkpt>
      <trkpt lat="48.72635" lon="2.54454">
        <ele>110.889</ele>
        <time>2018-10-14T07:57:42Z</time>
      </trkpt>
      <trkpt lat="48.72637" lon="2.54457">
        <ele>110.942</ele>
        <time>2018-10-14T07:57:44Z</time>
      </trkpt>
      <trkpt lat="48.7264" lon="2.54462">
        <ele>111.027</ele>
        <time>2018-10-14T07:57:47Z</time>
      </trkpt>
      <trkpt lat="48.72643" lon="2.54466">
        <ele>111.083</ele>
        <time>2018-10-14T07:57:49Z</time>
      </trkpt>
      <trkpt lat="48.72646" lon="2.54473">
        <ele>111.175</ele>
        <time>2018-10-14T07:57:53Z</time>
      </trkpt>
      <trkpt lat="48.72649" lon="2.54477">
        <ele>111.235</ele>
        <time>2018-10-14T07:57:56Z</time>
      </trkpt>
      <trkpt lat="48.7265" lon="2.5448">
        <ele>111.269</ele>
        <time>2018-10-14T07:57:58Z</time>
      </trkpt>
      <trkpt lat="48.72654" lon="2.54486">
        <ele>111.334</ele>
        <time>2018-10-14T07:58:03Z</time>
      </trkpt>
      <trkpt lat="48.72658" lon="2.54493">
        <ele>111.364</ele>
        <time>2018-10-14T07:58:06Z</time>
      </trkpt>
      <trkpt lat="48.72662" lon="2.54498">
        <ele>111.39</ele>
        <time>2018-10-14T07:58:09Z</time>
      </trkpt>
      <trkpt lat="48.72666" lon="2.54506">
        <ele>111.42</ele>
        <time>2018-10-14T07:58:13Z</time>
      </trkpt>
      <trkpt lat="48.72668" lon="2.54509">
        <ele>111.432</ele>
        <time>2018-10-14T07:58:15Z</time>
      </trkpt>
      <trkpt lat="48.7267" lon="2.54516">
        <ele>111.458</ele>
        <time>2018-10-14T07:58:19Z</time>
      </trkpt>
      <trkpt lat="48.72674" lon="2.54522">
        <ele>111.509</ele>
        <time>2018-10-14T07:58:24Z</time>
      </trkpt>
      <trkpt lat="48.72677" lon="2.54529">
        <ele>111.555</ele>
        <time>2018-10-14T07:58:28Z</time>
      </trkpt>
      <trkpt lat="48.72681" lon="2.54534">
        <ele>111.591</ele>
        <time>2018-10-14T07:58:32Z</time>
      </trkpt>
      <trkpt lat="48.72685" lon="2.54538">
        <ele>111.63</ele>
        <time>2018-10-14T07:58:37Z</time>
      </trkpt>
      <trkpt lat="48.72691" lon="2.54541">
        <ele>111.663</ele>
        <time>2018-10-14T07:58:42Z</time>
      </trkpt>
      <trkpt lat="48.72696" lon="2.54544">
        <ele>111.676</ele>
        <time>2018-10-14T07:58:45Z</time>
      </trkpt>
      <trkpt lat="48.72699" lon="2.54546">
        <ele>111.685</ele>
        <time>2018-10-14T07:58:48Z</time>
      </trkpt>
      <trkpt lat="48.72703" lon="2.54548">
        <ele>111.692</ele>
        <time>2018-10-14T07:58:54Z</time>
      </trkpt>
      <trkpt lat="48.72709" lon="2.54547">
        <ele>111.691</ele>
        <time>2018-10-14T07:58:58Z</time>
      </trkpt>
      <trkpt lat="48.72715" lon="2.54544">
        <ele>111.683</ele>
        <time>2018-10-14T07:59:01Z</time>
      </trkpt>
      <trkpt lat="48.72718" lon="2.54543">
        <ele>111.675</ele>
        <time>2018-10-14T07:59:03Z</time>
      </trkpt>
      <trkpt lat="48.72721" lon="2.54541">
        <ele>111.667</ele>
        <time>2018-10-14T07:59:05Z</time>
      </trkpt>
      <trkpt lat="48.72727" lon="2.54541">
        <ele>111.649</ele>
        <time>2018-10-14T07:59:09Z</time>
      </trkpt>
      <trkpt lat="48.72732" lon="2.54542">
        <ele>111.628</ele>
        <time>2018-10-14T07:59:14Z</time>
      </trkpt>
      <trkpt lat="48.72735" lon="2.54542">
        <ele>111.622</ele>
        <time>2018-10-14T07:59:16Z</time>
      </trkpt>
      <trkpt lat="48.72739" lon="2.54542">
        <ele>111.618</ele>
        <time>2018-10-14T07:59:18Z</time>
      </trkpt>
      <trkpt lat="48.72745" lon="2.54544">
        <ele>111.611</ele>
        <time>2018-10-14T07:59:22Z</time>
      </trkpt>
      <trkpt lat="48.7275" lon="2.54547">
        <ele>111.604</ele>
        <time>2018-10-14T07:59:26Z</time>
      </trkpt>
      <trkpt lat="48.72755" lon="2.54546">
        <ele>111.597</ele>
        <time>2018-10-14T07:59:30Z</time>
      </trkpt>
      <trkpt lat="48.72771" lon="2.54539">
        <ele>111.564</ele>
        <time>2018-10-14T07:59:42Z</time>
      </trkpt>
      <trkpt lat="48.72776" lon="2.5454">
        <ele>111.563</ele>
        <time>2018-10-14T07:59:45Z</time>
      </trkpt>
      <trkpt lat="48.72781" lon="2.5454">
        <ele>111.56</ele>
        <time>2018-10-14T07:59:48Z</time>
      </trkpt>
      <trkpt lat="48.72786" lon="2.54543">
        <ele>111.554</ele>
        <time>2018-10-14T07:59:51Z</time>
      </trkpt>
      <trkpt lat="48.72791" lon="2.54547">
        <ele>111.545</ele>
        <time>2018-10-14T07:59:55Z</time>
      </trkpt>
      <trkpt lat="48.72795" lon="2.54552">
        <ele>111.52</ele>
        <time>2018-10-14T08:00:01Z</time>
      </trkpt>
      <trkpt lat="48.72799" lon="2.54555">
        <ele>111.498</ele>
        <time>2018-10-14T08:00:05Z</time>
      </trkpt>
      <trkpt lat="48.72801" lon="2.54557">
        <ele>111.458</ele>
        <time>2018-10-14T08:00:10Z</time>
      </trkpt>
      <trkpt lat="48.72807" lon="2.54561">
        <ele>111.412</ele>
        <time>2018-10-14T08:00:14Z</time>
      </trkpt>
      <trkpt lat="48.72811" lon="2.54564">
        <ele>111.383</ele>
        <time>2018-10-14T08:00:16Z</time>
      </trkpt>
      <trkpt lat="48.72815" lon="2.54568">
        <ele>111.336</ele>
        <time>2018-10-14T08:00:19Z</time>
      </trkpt>
      <trkpt lat="48.7282" lon="2.54572">
        <ele>111.288</ele>
        <time>2018-10-14T08:00:22Z</time>
      </trkpt>
      <trkpt lat="48.72827" lon="2.54571">
        <ele>111.226</ele>
        <time>2018-10-14T08:00:26Z</time>
      </trkpt>
      <trkpt lat="48.72831" lon="2.5457">
        <ele>111.18</ele>
        <time>2018-10-14T08:00:29Z</time>
      </trkpt>
      <trkpt lat="48.72837" lon="2.54567">
        <ele>111.122</ele>
        <time>2018-10-14T08:00:33Z</time>
      </trkpt>
      <trkpt lat="48.72842" lon="2.54567">
        <ele>111.082</ele>
        <time>2018-10-14T08:00:36Z</time>
      </trkpt>
      <trkpt lat="48.72845" lon="2.54566">
        <ele>111.057</ele>
        <time>2018-10-14T08:00:38Z</time>
      </trkpt>
      <trkpt lat="48.7285" lon="2.54567">
        <ele>111.004</ele>
        <time>2018-10-14T08:00:43Z</time>
      </trkpt>
      <trkpt lat="48.72855" lon="2.54567">
        <ele>110.977</ele>
        <time>2018-10-14T08:00:46Z</time>
      </trkpt>
      <trkpt lat="48.7286" lon="2.54567">
        <ele>110.952</ele>
        <time>2018-10-14T08:00:49Z</time>
      </trkpt>
      <trkpt lat="48.72864" lon="2.54567">
        <ele>110.936</ele>
        <time>2018-10-14T08:00:51Z</time>
      </trkpt>
      <trkpt lat="48.7287" lon="2.54568">
        <ele>110.916</ele>
        <time>2018-10-14T08:00:54Z</time>
      </trkpt>
      <trkpt lat="48.72873" lon="2.54569">
        <ele>110.904</ele>
        <time>2018-10-14T08:00:56Z</time>
      </trkpt>
      <trkpt lat="48.72878" lon="2.54572">
        <ele>110.874</ele>
        <time>2018-10-14T08:01:02Z</time>
      </trkpt>
      <trkpt lat="48.72881" lon="2.54574">
        <ele>110.864</ele>
        <time>2018-10-14T08:01:04Z</time>
      </trkpt>
      <trkpt lat="48.72884" lon="2.54576">
        <ele>110.854</ele>
        <time>2018-10-14T08:01:06Z</time>
      </trkpt>
      <trkpt lat="48.72887" lon="2.54578">
        <ele>110.849</ele>
        <time>2018-10-14T08:01:07Z</time>
      </trkpt>
      <trkpt lat="48.72889" lon="2.54579">
        <ele>110.844</ele>
        <time>2018-10-14T08:01:08Z</time>
      </trkpt>
      <trkpt lat="48.72892" lon="2.5458">
        <ele>110.839</ele>
        <time>2018-10-14T08:01:09Z</time>
      </trkpt>
      <trkpt lat="48.72896" lon="2.54583">
        <ele>110.828</ele>
        <time>2018-10-14T08:01:11Z</time>
      </trkpt>
      <trkpt lat="48.729" lon="2.54585">
        <ele>110.818</ele>
        <time>2018-10-14T08:01:13Z</time>
      </trkpt>
      <trkpt lat="48.72904" lon="2.54589">
        <ele>110.802</ele>
        <time>2018-10-14T08:01:17Z</time>
      </trkpt>
      <trkpt lat="48.72906" lon="2.54591">
        <ele>110.796</ele>
        <time>2018-10-14T08:01:19Z</time>
      </trkpt>
      <trkpt lat="48.7291" lon="2.54595">
        <ele>110.785</ele>
        <time>2018-10-14T08:01:23Z</time>
      </trkpt>
      <trkpt lat="48.72914" lon="2.54601">
        <ele>110.773</ele>
        <time>2018-10-14T08:01:27Z</time>
      </trkpt>
      <trkpt lat="48.72916" lon="2.54606">
        <ele>110.767</ele>
        <time>2018-10-14T08:01:29Z</time>
      </trkpt>
      <trkpt lat="48.72919" lon="2.54613">
        <ele>110.749</ele>
        <time>2018-10-14T08:01:33Z</time>
      </trkpt>
      <trkpt lat="48.7292" lon="2.54619">
        <ele>110.718</ele>
        <time>2018-10-14T08:01:37Z</time>
      </trkpt>
      <trkpt lat="48.72922" lon="2.54626">
        <ele>110.677</ele>
        <time>2018-10-14T08:01:41Z</time>
      </trkpt>
      <trkpt lat="48.72926" lon="2.54633">
        <ele>110.621</ele>
        <time>2018-10-14T08:01:46Z</time>
      </trkpt>
      <trkpt lat="48.72929" lon="2.54639">
        <ele>110.578</ele>
        <time>2018-10-14T08:01:50Z</time>
      </trkpt>
      <trkpt lat="48.72931" lon="2.54647">
        <ele>110.529</ele>
        <time>2018-10-14T08:01:55Z</time>
      </trkpt>
      <trkpt lat="48.72932" lon="2.54651">
        <ele>110.51</ele>
        <time>2018-10-14T08:01:57Z</time>
      </trkpt>
      <trkpt lat="48.72932" lon="2.54659">
        <ele>110.476</ele>
        <time>2018-10-14T08:02:01Z</time>
      </trkpt>
      <trkpt lat="48.72935" lon="2.54669">
        <ele>110.441</ele>
        <time>2018-10-14T08:02:06Z</time>
      </trkpt>
      <trkpt lat="48.72937" lon="2.54674">
        <ele>110.423</ele>
        <time>2018-10-14T08:02:09Z</time>
      </trkpt>
      <trkpt lat="48.72939" lon="2.54681">
        <ele>110.4</ele>
        <time>2018-10-14T08:02:13Z</time>
      </trkpt>
      <trkpt lat="48.72942" lon="2.54689">
        <ele>110.38</ele>
        <time>2018-10-14T08:02:17Z</time>
      </trkpt>
      <trkpt lat="48.72943" lon="2.54696">
        <ele>110.365</ele>
        <time>2018-10-14T08:02:20Z</time>
      </trkpt>
      <trkpt lat="48.72944" lon="2.547">
        <ele>110.355</ele>
        <time>2018-10-14T08:02:22Z</time>
      </trkpt>
      <trkpt lat="48.72945" lon="2.54706">
        <ele>110.34</ele>
        <time>2018-10-14T08:02:25Z</time>
      </trkpt>
      <trkpt lat="48.72946" lon="2.54711">
        <ele>110.323</ele>
        <time>2018-10-14T08:02:28Z</time>
      </trkpt>
      <trkpt lat="48.72947" lon="2.54719">
        <ele>110.307</ele>
        <time>2018-10-14T08:02:31Z</time>
      </trkpt>
      <trkpt lat="48.72946" lon="2.54728">
        <ele>110.281</ele>
        <time>2018-10-14T08:02:37Z</time>
      </trkpt>
      <trkpt lat="48.72947" lon="2.54735">
        <ele>110.268</ele>
        <time>2018-10-14T08:02:40Z</time>
      </trkpt>
      <trkpt lat="48.72947" lon="2.54735">
        <ele>110.268</ele>
        <time>2018-10-14T08:02:45Z</time>
      </trkpt>
      <trkpt lat="48.72947" lon="2.54735">
        <ele>59.2</ele>
        <time>2018-10-14T08:02:45Z</time>
      </trkpt>
      <trkpt lat="48.72947" lon="2.54735">
        <ele>59.2</ele>
        <time>2018-10-14T08:02:49Z</time>
      </trkpt>
      <trkpt lat="48.72946" lon="2.54752">
        <ele>110.236</ele>
        <time>2018-10-14T08:02:49Z</time>
      </trkpt>
      <trkpt lat="48.72946" lon="2.54756">
        <ele>110.23</ele>
        <time>2018-10-14T08:02:51Z</time>
      </trkpt>
      <trkpt lat="48.72944" lon="2.54764">
        <ele>110.216</ele>
        <time>2018-10-14T08:02:55Z</time>
      </trkpt>
      <trkpt lat="48.72944" lon="2.54771">
        <ele>110.199</ele>
        <time>2018-10-14T08:02:59Z</time>
      </trkpt>
      <trkpt lat="48.72945" lon="2.5478">
        <ele>110.182</ele>
        <time>2018-10-14T08:03:03Z</time>
      </trkpt>
      <trkpt lat="48.72945" lon="2.54788">
        <ele>110.171</ele>
        <time>2018-10-14T08:03:06Z</time>
      </trkpt>
      <trkpt lat="48.72947" lon="2.54796">
        <ele>110.161</ele>
        <time>2018-10-14T08:03:09Z</time>
      </trkpt>
      <trkpt lat="48.72947" lon="2.54804">
        <ele>110.152</ele>
        <time>2018-10-14T08:03:12Z</time>
      </trkpt>
      <trkpt lat="48.72946" lon="2.54811">
        <ele>110.139</ele>
        <time>2018-10-14T08:03:15Z</time>
      </trkpt>
      <trkpt lat="48.72947" lon="2.54819">
        <ele>110.117</ele>
        <time>2018-10-14T08:03:19Z</time>
      </trkpt>
      <trkpt lat="48.72947" lon="2.54823">
        <ele>110.1</ele>
        <time>2018-10-14T08:03:22Z</time>
      </trkpt>
      <trkpt lat="48.72948" lon="2.54827">
        <ele>110.087</ele>
        <time>2018-10-14T08:03:24Z</time>
      </trkpt>
      <trkpt lat="48.72948" lon="2.54831">
        <ele>110.073</ele>
        <time>2018-10-14T08:03:26Z</time>
      </trkpt>
      <trkpt lat="48.72949" lon="2.54836">
        <ele>110.06</ele>
        <time>2018-10-14T08:03:28Z</time>
      </trkpt>
      <trkpt lat="48.72951" lon="2.54844">
        <ele>110.037</ele>
        <time>2018-10-14T08:03:31Z</time>
      </trkpt>
      <trkpt lat="48.72952" lon="2.54851">
        <ele>110</ele>
        <time>2018-10-14T08:03:35Z</time>
      </trkpt>
      <trkpt lat="48.72955" lon="2.54857">
        <ele>109.954</ele>
        <time>2018-10-14T08:03:39Z</time>
      </trkpt>
      <trkpt lat="48.72957" lon="2.54863">
        <ele>109.92</ele>
        <time>2018-10-14T08:03:42Z</time>
      </trkpt>
      <trkpt lat="48.72959" lon="2.5487">
        <ele>109.885</ele>
        <time>2018-10-14T08:03:45Z</time>
      </trkpt>
      <trkpt lat="48.72962" lon="2.54877">
        <ele>109.837</ele>
        <time>2018-10-14T08:03:49Z</time>
      </trkpt>
      <trkpt lat="48.72963" lon="2.5488">
        <ele>109.816</ele>
        <time>2018-10-14T08:03:51Z</time>
      </trkpt>
      <trkpt lat="48.72965" lon="2.54887">
        <ele>109.785</ele>
        <time>2018-10-14T08:03:54Z</time>
      </trkpt>
      <trkpt lat="48.72966" lon="2.54891">
        <ele>109.754</ele>
        <time>2018-10-14T08:03:57Z</time>
      </trkpt>
      <trkpt lat="48.72967" lon="2.54894">
        <ele>109.733</ele>
        <time>2018-10-14T08:03:59Z</time>
      </trkpt>
      <trkpt lat="48.72968" lon="2.54902">
        <ele>109.686</ele>
        <time>2018-10-14T08:04:03Z</time>
      </trkpt>
      <trkpt lat="48.72969" lon="2.54908">
        <ele>109.647</ele>
        <time>2018-10-14T08:04:06Z</time>
      </trkpt>
      <trkpt lat="48.7297" lon="2.54915">
        <ele>109.607</ele>
        <time>2018-10-14T08:04:09Z</time>
      </trkpt>
      <trkpt lat="48.72974" lon="2.54923">
        <ele>109.569</ele>
        <time>2018-10-14T08:04:12Z</time>
      </trkpt>
      <trkpt lat="48.72975" lon="2.54925">
        <ele>109.544</ele>
        <time>2018-10-14T08:04:14Z</time>
      </trkpt>
      <trkpt lat="48.72977" lon="2.5493">
        <ele>109.508</ele>
        <time>2018-10-14T08:04:17Z</time>
      </trkpt>
      <trkpt lat="48.72979" lon="2.54933">
        <ele>109.486</ele>
        <time>2018-10-14T08:04:19Z</time>
      </trkpt>
      <trkpt lat="48.72982" lon="2.54939">
        <ele>109.454</ele>
        <time>2018-10-14T08:04:22Z</time>
      </trkpt>
      <trkpt lat="48.72986" lon="2.54944">
        <ele>109.414</ele>
        <time>2018-10-14T08:04:26Z</time>
      </trkpt>
      <trkpt lat="48.72989" lon="2.54949">
        <ele>109.387</ele>
        <time>2018-10-14T08:04:29Z</time>
      </trkpt>
      <trkpt lat="48.72993" lon="2.54955">
        <ele>109.343</ele>
        <time>2018-10-14T08:04:34Z</time>
      </trkpt>
      <trkpt lat="48.72995" lon="2.54957">
        <ele>109.333</ele>
        <time>2018-10-14T08:04:35Z</time>
      </trkpt>
      <trkpt lat="48.72998" lon="2.54961">
        <ele>109.315</ele>
        <time>2018-10-14T08:04:37Z</time>
      </trkpt>
      <trkpt lat="48.73001" lon="2.54965">
        <ele>109.297</ele>
        <time>2018-10-14T08:04:39Z</time>
      </trkpt>
      <trkpt lat="48.73004" lon="2.54968">
        <ele>109.28</ele>
        <time>2018-10-14T08:04:41Z</time>
      </trkpt>
      <trkpt lat="48.73006" lon="2.54974">
        <ele>109.249</ele>
        <time>2018-10-14T08:04:45Z</time>
      </trkpt>
      <trkpt lat="48.73008" lon="2.54978">
        <ele>109.214</ele>
        <time>2018-10-14T08:04:50Z</time>
      </trkpt>
      <trkpt lat="48.7301" lon="2.54984">
        <ele>109.2</ele>
        <time>2018-10-14T08:04:52Z</time>
      </trkpt>
      <trkpt lat="48.73014" lon="2.54991">
        <ele>109.181</ele>
        <time>2018-10-14T08:04:55Z</time>
      </trkpt>
      <trkpt lat="48.73016" lon="2.54997">
        <ele>109.169</ele>
        <time>2018-10-14T08:04:57Z</time>
      </trkpt>
      <trkpt lat="48.73018" lon="2.55001">
        <ele>109.158</ele>
        <time>2018-10-14T08:04:59Z</time>
      </trkpt>
      <trkpt lat="48.7302" lon="2.55008">
        <ele>109.135</ele>
        <time>2018-10-14T08:05:04Z</time>
      </trkpt>
      <trkpt lat="48.7302" lon="2.55016">
        <ele>109.113</ele>
        <time>2018-10-14T08:05:08Z</time>
      </trkpt>
      <trkpt lat="48.73021" lon="2.55024">
        <ele>109.096</ele>
        <time>2018-10-14T08:05:11Z</time>
      </trkpt>
      <trkpt lat="48.73022" lon="2.55028">
        <ele>109.085</ele>
        <time>2018-10-14T08:05:13Z</time>
      </trkpt>
      <trkpt lat="48.73023" lon="2.55035">
        <ele>109.064</ele>
        <time>2018-10-14T08:05:17Z</time>
      </trkpt>
      <trkpt lat="48.73024" lon="2.55038">
        <ele>109.053</ele>
        <time>2018-10-14T08:05:19Z</time>
      </trkpt>
      <trkpt lat="48.73027" lon="2.55046">
        <ele>109.036</ele>
        <time>2018-10-14T08:05:23Z</time>
      </trkpt>
      <trkpt lat="48.73029" lon="2.55053">
        <ele>109.019</ele>
        <time>2018-10-14T08:05:27Z</time>
      </trkpt>
      <trkpt lat="48.73033" lon="2.55059">
        <ele>109.003</ele>
        <time>2018-10-14T08:05:31Z</time>
      </trkpt>
      <trkpt lat="48.73034" lon="2.55062">
        <ele>108.996</ele>
        <time>2018-10-14T08:05:33Z</time>
      </trkpt>
      <trkpt lat="48.73037" lon="2.55069">
        <ele>108.983</ele>
        <time>2018-10-14T08:05:37Z</time>
      </trkpt>
      <trkpt lat="48.73041" lon="2.55074">
        <ele>108.974</ele>
        <time>2018-10-14T08:05:40Z</time>
      </trkpt>
      <trkpt lat="48.73043" lon="2.55077">
        <ele>108.968</ele>
        <time>2018-10-14T08:05:42Z</time>
      </trkpt>
      <trkpt lat="48.73045" lon="2.55081">
        <ele>108.959</ele>
        <time>2018-10-14T08:05:45Z</time>
      </trkpt>
      <trkpt lat="48.73048" lon="2.55088">
        <ele>108.944</ele>
        <time>2018-10-14T08:05:49Z</time>
      </trkpt>
      <trkpt lat="48.7305" lon="2.55095">
        <ele>108.929</ele>
        <time>2018-10-14T08:05:52Z</time>
      </trkpt>
      <trkpt lat="48.73051" lon="2.55101">
        <ele>108.912</ele>
        <time>2018-10-14T08:05:55Z</time>
      </trkpt>
      <trkpt lat="48.73051" lon="2.55105">
        <ele>108.899</ele>
        <time>2018-10-14T08:05:57Z</time>
      </trkpt>
      <trkpt lat="48.73049" lon="2.55114">
        <ele>108.87</ele>
        <time>2018-10-14T08:06:01Z</time>
      </trkpt>
      <trkpt lat="48.73048" lon="2.55118">
        <ele>108.856</ele>
        <time>2018-10-14T08:06:03Z</time>
      </trkpt>
      <trkpt lat="48.73046" lon="2.55124">
        <ele>108.826</ele>
        <time>2018-10-14T08:06:07Z</time>
      </trkpt>
      <trkpt lat="48.73043" lon="2.55131">
        <ele>108.791</ele>
        <time>2018-10-14T08:06:12Z</time>
      </trkpt>
      <trkpt lat="48.7304" lon="2.55135">
        <ele>108.772</ele>
        <time>2018-10-14T08:06:15Z</time>
      </trkpt>
      <trkpt lat="48.73036" lon="2.55139">
        <ele>108.754</ele>
        <time>2018-10-14T08:06:18Z</time>
      </trkpt>
      <trkpt lat="48.73034" lon="2.55142">
        <ele>108.744</ele>
        <time>2018-10-14T08:06:20Z</time>
      </trkpt>
      <trkpt lat="48.7303" lon="2.55148">
        <ele>108.724</ele>
        <time>2018-10-14T08:06:24Z</time>
      </trkpt>
      <trkpt lat="48.73026" lon="2.55154">
        <ele>108.704</ele>
        <time>2018-10-14T08:06:28Z</time>
      </trkpt>
      <trkpt lat="48.73023" lon="2.55158">
        <ele>108.693</ele>
        <time>2018-10-14T08:06:30Z</time>
      </trkpt>
      <trkpt lat="48.7302" lon="2.55162">
        <ele>108.679</ele>
        <time>2018-10-14T08:06:33Z</time>
      </trkpt>
      <trkpt lat="48.73018" lon="2.5517">
        <ele>108.664</ele>
        <time>2018-10-14T08:06:37Z</time>
      </trkpt>
      <trkpt lat="48.73017" lon="2.55177">
        <ele>108.654</ele>
        <time>2018-10-14T08:06:41Z</time>
      </trkpt>
      <trkpt lat="48.73016" lon="2.55184">
        <ele>108.65</ele>
        <time>2018-10-14T08:06:44Z</time>
      </trkpt>
      <trkpt lat="48.73015" lon="2.55188">
        <ele>108.649</ele>
        <time>2018-10-14T08:06:46Z</time>
      </trkpt>
      <trkpt lat="48.73014" lon="2.55192">
        <ele>108.649</ele>
        <time>2018-10-14T08:06:49Z</time>
      </trkpt>
      <trkpt lat="48.73011" lon="2.55197">
        <ele>108.653</ele>
        <time>2018-10-14T08:06:52Z</time>
      </trkpt>
      <trkpt lat="48.73008" lon="2.55204">
        <ele>108.658</ele>
        <time>2018-10-14T08:06:55Z</time>
      </trkpt>
      <trkpt lat="48.73007" lon="2.55213">
        <ele>108.667</ele>
        <time>2018-10-14T08:07:00Z</time>
      </trkpt>
      <trkpt lat="48.73007" lon="2.55216">
        <ele>108.671</ele>
        <time>2018-10-14T08:07:02Z</time>
      </trkpt>
      <trkpt lat="48.73012" lon="2.55221">
        <ele>108.68</ele>
        <time>2018-10-14T08:07:06Z</time>
      </trkpt>
      <trkpt lat="48.73015" lon="2.55223">
        <ele>108.685</ele>
        <time>2018-10-14T08:07:08Z</time>
      </trkpt>
      <trkpt lat="48.73018" lon="2.55224">
        <ele>108.691</ele>
        <time>2018-10-14T08:07:10Z</time>
      </trkpt>
      <trkpt lat="48.73021" lon="2.55226">
        <ele>108.697</ele>
        <time>2018-10-14T08:07:12Z</time>
      </trkpt>
      <trkpt lat="48.73025" lon="2.55229">
        <ele>108.707</ele>
        <time>2018-10-14T08:07:16Z</time>
      </trkpt>
      <trkpt lat="48.73025" lon="2.55229">
        <ele>108.707</ele>
        <time>2018-10-14T08:07:24Z</time>
      </trkpt>
      <trkpt lat="48.73025" lon="2.55229">
        <ele>63.3</ele>
        <time>2018-10-14T08:07:24Z</time>
      </trkpt>
      <trkpt lat="48.73025" lon="2.55229">
        <ele>63.3</ele>
        <time>2018-10-14T08:08:08Z</time>
      </trkpt>
      <trkpt lat="48.73053" lon="2.55236">
        <ele>108.822</ele>
        <time>2018-10-14T08:08:08Z</time>
      </trkpt>
      <trkpt lat="48.73057" lon="2.55238">
        <ele>108.846</ele>
        <time>2018-10-14T08:08:13Z</time>
      </trkpt>
      <trkpt lat="48.73062" lon="2.55237">
        <ele>108.891</ele>
        <time>2018-10-14T08:08:21Z</time>
      </trkpt>
      <trkpt lat="48.73065" lon="2.55236">
        <ele>108.915</ele>
        <time>2018-10-14T08:08:24Z</time>
      </trkpt>
      <trkpt lat="48.73071" lon="2.55237">
        <ele>108.94</ele>
        <time>2018-10-14T08:08:27Z</time>
      </trkpt>
      <trkpt lat="48.73075" lon="2.55235">
        <ele>108.969</ele>
        <time>2018-10-14T08:08:30Z</time>
      </trkpt>
      <trkpt lat="48.73081" lon="2.55235">
        <ele>109.016</ele>
        <time>2018-10-14T08:08:34Z</time>
      </trkpt>
      <trkpt lat="48.73086" lon="2.55236">
        <ele>109.058</ele>
        <time>2018-10-14T08:08:37Z</time>
      </trkpt>
      <trkpt lat="48.73092" lon="2.55234">
        <ele>109.19</ele>
        <time>2018-10-14T08:08:45Z</time>
      </trkpt>
      <trkpt lat="48.73099" lon="2.55231">
        <ele>109.294</ele>
        <time>2018-10-14T08:08:51Z</time>
      </trkpt>
      <trkpt lat="48.73104" lon="2.55231">
        <ele>109.396</ele>
        <time>2018-10-14T08:08:57Z</time>
      </trkpt>
      <trkpt lat="48.73107" lon="2.55231">
        <ele>109.429</ele>
        <time>2018-10-14T08:08:59Z</time>
      </trkpt>
      <trkpt lat="48.73112" lon="2.55228">
        <ele>109.526</ele>
        <time>2018-10-14T08:09:05Z</time>
      </trkpt>
      <trkpt lat="48.73117" lon="2.55228">
        <ele>109.589</ele>
        <time>2018-10-14T08:09:09Z</time>
      </trkpt>
      <trkpt lat="48.73122" lon="2.55225">
        <ele>109.651</ele>
        <time>2018-10-14T08:09:13Z</time>
      </trkpt>
      <trkpt lat="48.73125" lon="2.55221">
        <ele>109.715</ele>
        <time>2018-10-14T08:09:18Z</time>
      </trkpt>
      <trkpt lat="48.7313" lon="2.55218">
        <ele>109.763</ele>
        <time>2018-10-14T08:09:21Z</time>
      </trkpt>
      <trkpt lat="48.73135" lon="2.55216">
        <ele>109.828</ele>
        <time>2018-10-14T08:09:25Z</time>
      </trkpt>
      <trkpt lat="48.73139" lon="2.55215">
        <ele>109.877</ele>
        <time>2018-10-14T08:09:28Z</time>
      </trkpt>
      <trkpt lat="48.73143" lon="2.55213">
        <ele>109.909</ele>
        <time>2018-10-14T08:09:30Z</time>
      </trkpt>
      <trkpt lat="48.73148" lon="2.55213">
        <ele>109.974</ele>
        <time>2018-10-14T08:09:34Z</time>
      </trkpt>
      <trkpt lat="48.73152" lon="2.5521">
        <ele>110.063</ele>
        <time>2018-10-14T08:09:39Z</time>
      </trkpt>
      <trkpt lat="48.73156" lon="2.55204">
        <ele>110.142</ele>
        <time>2018-10-14T08:09:43Z</time>
      </trkpt>
      <trkpt lat="48.73159" lon="2.55198">
        <ele>110.225</ele>
        <time>2018-10-14T08:09:47Z</time>
      </trkpt>
      <trkpt lat="48.73161" lon="2.55193">
        <ele>110.273</ele>
        <time>2018-10-14T08:09:49Z</time>
      </trkpt>
      <trkpt lat="48.73163" lon="2.55186">
        <ele>110.4</ele>
        <time>2018-10-14T08:09:54Z</time>
      </trkpt>
      <trkpt lat="48.73164" lon="2.55183">
        <ele>110.481</ele>
        <time>2018-10-14T08:09:57Z</time>
      </trkpt>
      <trkpt lat="48.73166" lon="2.55176">
        <ele>110.566</ele>
        <time>2018-10-14T08:10:00Z</time>
      </trkpt>
      <trkpt lat="48.73167" lon="2.5517">
        <ele>110.651</ele>
        <time>2018-10-14T08:10:03Z</time>
      </trkpt>
      <trkpt lat="48.73167" lon="2.55163">
        <ele>110.765</ele>
        <time>2018-10-14T08:10:07Z</time>
      </trkpt>
      <trkpt lat="48.73169" lon="2.55155">
        <ele>110.909</ele>
        <time>2018-10-14T08:10:12Z</time>
      </trkpt>
      <trkpt lat="48.73169" lon="2.55149">
        <ele>111.031</ele>
        <time>2018-10-14T08:10:16Z</time>
      </trkpt>
      <trkpt lat="48.73167" lon="2.55141">
        <ele>111.22</ele>
        <time>2018-10-14T08:10:22Z</time>
      </trkpt>
      <trkpt lat="48.7317" lon="2.55135">
        <ele>111.396</ele>
        <time>2018-10-14T08:10:28Z</time>
      </trkpt>
      <trkpt lat="48.73174" lon="2.55131">
        <ele>111.549</ele>
        <time>2018-10-14T08:10:32Z</time>
      </trkpt>
      <trkpt lat="48.73181" lon="2.55122">
        <ele>111.665</ele>
        <time>2018-10-14T08:10:35Z</time>
      </trkpt>
      <trkpt lat="48.73186" lon="2.55114">
        <ele>111.819</ele>
        <time>2018-10-14T08:10:39Z</time>
      </trkpt>
      <trkpt lat="48.73188" lon="2.55111">
        <ele>111.858</ele>
        <time>2018-10-14T08:10:40Z</time>
      </trkpt>
      <trkpt lat="48.73191" lon="2.55108">
        <ele>111.934</ele>
        <time>2018-10-14T08:10:42Z</time>
      </trkpt>
      <trkpt lat="48.73194" lon="2.55102">
        <ele>112.046</ele>
        <time>2018-10-14T08:10:45Z</time>
      </trkpt>
      <trkpt lat="48.73196" lon="2.55099">
        <ele>112.118</ele>
        <time>2018-10-14T08:10:47Z</time>
      </trkpt>
      <trkpt lat="48.73197" lon="2.55092">
        <ele>112.224</ele>
        <time>2018-10-14T08:10:50Z</time>
      </trkpt>
      <trkpt lat="48.73199" lon="2.55087">
        <ele>112.294</ele>
        <time>2018-10-14T08:10:52Z</time>
      </trkpt>
      <trkpt lat="48.73199" lon="2.5508">
        <ele>112.395</ele>
        <time>2018-10-14T08:10:55Z</time>
      </trkpt>
      <trkpt lat="48.732" lon="2.55076">
        <ele>112.46</ele>
        <time>2018-10-14T08:10:57Z</time>
      </trkpt>
      <trkpt lat="48.732" lon="2.55072">
        <ele>112.525</ele>
        <time>2018-10-14T08:10:59Z</time>
      </trkpt>
      <trkpt lat="48.73202" lon="2.55065">
        <ele>112.684</ele>
        <time>2018-10-14T08:11:04Z</time>
      </trkpt>
      <trkpt lat="48.73202" lon="2.55065">
        <ele>83.4</ele>
        <time>2018-10-14T08:11:10Z</time>
      </trkpt>
      <trkpt lat="48.73202" lon="2.55065">
        <ele>83.4</ele>
        <time>2018-10-14T08:11:23Z</time>
      </trkpt>
      <trkpt lat="48.73216" lon="2.55059">
        <ele>113.345</ele>
        <time>2018-10-14T08:11:23Z</time>
      </trkpt>
      <trkpt lat="48.73222" lon="2.55058">
        <ele>113.463</ele>
        <time>2018-10-14T08:11:26Z</time>
      </trkpt>
      <trkpt lat="48.73226" lon="2.55056">
        <ele>113.544</ele>
        <time>2018-10-14T08:11:28Z</time>
      </trkpt>
      <trkpt lat="48.73231" lon="2.55054">
        <ele>113.626</ele>
        <time>2018-10-14T08:11:30Z</time>
      </trkpt>
      <trkpt lat="48.73236" lon="2.55052">
        <ele>113.825</ele>
        <time>2018-10-14T08:11:35Z</time>
      </trkpt>
      <trkpt lat="48.73238" lon="2.55051">
        <ele>113.905</ele>
        <time>2018-10-14T08:11:37Z</time>
      </trkpt>
      <trkpt lat="48.73243" lon="2.5505">
        <ele>114.019</ele>
        <time>2018-10-14T08:11:40Z</time>
      </trkpt>
      <trkpt lat="48.73246" lon="2.55049">
        <ele>114.092</ele>
        <time>2018-10-14T08:11:42Z</time>
      </trkpt>
      <trkpt lat="48.73251" lon="2.5505">
        <ele>114.229</ele>
        <time>2018-10-14T08:11:46Z</time>
      </trkpt>
      <trkpt lat="48.73253" lon="2.55051">
        <ele>114.328</ele>
        <time>2018-10-14T08:11:49Z</time>
      </trkpt>
      <trkpt lat="48.73257" lon="2.55045">
        <ele>114.487</ele>
        <time>2018-10-14T08:11:54Z</time>
      </trkpt>
      <trkpt lat="48.73264" lon="2.55046">
        <ele>114.667</ele>
        <time>2018-10-14T08:12:00Z</time>
      </trkpt>
      <trkpt lat="48.73268" lon="2.55046">
        <ele>114.729</ele>
        <time>2018-10-14T08:12:02Z</time>
      </trkpt>
      <trkpt lat="48.73272" lon="2.55044">
        <ele>114.891</ele>
        <time>2018-10-14T08:12:07Z</time>
      </trkpt>
      <trkpt lat="48.73277" lon="2.55043">
        <ele>115.078</ele>
        <time>2018-10-14T08:12:12Z</time>
      </trkpt>
      <trkpt lat="48.7328" lon="2.55042">
        <ele>115.196</ele>
        <time>2018-10-14T08:12:15Z</time>
      </trkpt>
      <trkpt lat="48.73285" lon="2.55043">
        <ele>115.357</ele>
        <time>2018-10-14T08:12:19Z</time>
      </trkpt>
      <trkpt lat="48.73292" lon="2.55041">
        <ele>115.558</ele>
        <time>2018-10-14T08:12:24Z</time>
      </trkpt>
      <trkpt lat="48.73297" lon="2.55042">
        <ele>115.768</ele>
        <time>2018-10-14T08:12:29Z</time>
      </trkpt>
      <trkpt lat="48.73301" lon="2.55037">
        <ele>115.942</ele>
        <time>2018-10-14T08:12:33Z</time>
      </trkpt>
      <trkpt lat="48.73303" lon="2.5503">
        <ele>116.271</ele>
        <time>2018-10-14T08:12:40Z</time>
      </trkpt>
      <trkpt lat="48.73304" lon="2.55022">
        <ele>116.508</ele>
        <time>2018-10-14T08:12:45Z</time>
      </trkpt>
      <trkpt lat="48.73305" lon="2.55017">
        <ele>116.607</ele>
        <time>2018-10-14T08:12:47Z</time>
      </trkpt>
      <trkpt lat="48.73307" lon="2.55009">
        <ele>116.76</ele>
        <time>2018-10-14T08:12:50Z</time>
      </trkpt>
      <trkpt lat="48.73311" lon="2.55">
        <ele>116.921</ele>
        <time>2018-10-14T08:12:53Z</time>
      </trkpt>
      <trkpt lat="48.73314" lon="2.54991">
        <ele>117.087</ele>
        <time>2018-10-14T08:12:56Z</time>
      </trkpt>
      <trkpt lat="48.73315" lon="2.54983">
        <ele>117.308</ele>
        <time>2018-10-14T08:13:00Z</time>
      </trkpt>
      <trkpt lat="48.73316" lon="2.54978">
        <ele>117.471</ele>
        <time>2018-10-14T08:13:03Z</time>
      </trkpt>
      <trkpt lat="48.73316" lon="2.54969">
        <ele>117.634</ele>
        <time>2018-10-14T08:13:06Z</time>
      </trkpt>
      <trkpt lat="48.73315" lon="2.54964">
        <ele>117.744</ele>
        <time>2018-10-14T08:13:08Z</time>
      </trkpt>
      <trkpt lat="48.73316" lon="2.54958">
        <ele>117.914</ele>
        <time>2018-10-14T08:13:11Z</time>
      </trkpt>
      <trkpt lat="48.73315" lon="2.54951">
        <ele>118.086</ele>
        <time>2018-10-14T08:13:14Z</time>
      </trkpt>
      <trkpt lat="48.73315" lon="2.54948">
        <ele>118.201</ele>
        <time>2018-10-14T08:13:16Z</time>
      </trkpt>
      <trkpt lat="48.73317" lon="2.54941">
        <ele>118.489</ele>
        <time>2018-10-14T08:13:21Z</time>
      </trkpt>
      <trkpt lat="48.73318" lon="2.54937">
        <ele>118.605</ele>
        <time>2018-10-14T08:13:23Z</time>
      </trkpt>
      <trkpt lat="48.73318" lon="2.54928">
        <ele>118.837</ele>
        <time>2018-10-14T08:13:27Z</time>
      </trkpt>
      <trkpt lat="48.73318" lon="2.54919">
        <ele>119.065</ele>
        <time>2018-10-14T08:13:31Z</time>
      </trkpt>
      <trkpt lat="48.73317" lon="2.54913">
        <ele>119.286</ele>
        <time>2018-10-14T08:13:35Z</time>
      </trkpt>
      <trkpt lat="48.73317" lon="2.54908">
        <ele>119.446</ele>
        <time>2018-10-14T08:13:38Z</time>
      </trkpt>
      <trkpt lat="48.73316" lon="2.54902">
        <ele>119.552</ele>
        <time>2018-10-14T08:13:40Z</time>
      </trkpt>
      <trkpt lat="48.73316" lon="2.54897">
        <ele>119.656</ele>
        <time>2018-10-14T08:13:42Z</time>
      </trkpt>
      <trkpt lat="48.73317" lon="2.54887">
        <ele>119.865</ele>
        <time>2018-10-14T08:13:46Z</time>
      </trkpt>
      <trkpt lat="48.73316" lon="2.54879">
        <ele>120.118</ele>
        <time>2018-10-14T08:13:51Z</time>
      </trkpt>
      <trkpt lat="48.73316" lon="2.5487">
        <ele>120.315</ele>
        <time>2018-10-14T08:13:55Z</time>
      </trkpt>
      <trkpt lat="48.73317" lon="2.54864">
        <ele>120.459</ele>
        <time>2018-10-14T08:13:58Z</time>
      </trkpt>
      <trkpt lat="48.73319" lon="2.54859">
        <ele>120.599</ele>
        <time>2018-10-14T08:14:01Z</time>
      </trkpt>
      <trkpt lat="48.73319" lon="2.54852">
        <ele>120.779</ele>
        <time>2018-10-14T08:14:05Z</time>
      </trkpt>
      <trkpt lat="48.73322" lon="2.54844">
        <ele>120.913</ele>
        <time>2018-10-14T08:14:08Z</time>
      </trkpt>
      <trkpt lat="48.73323" lon="2.5484">
        <ele>121</ele>
        <time>2018-10-14T08:14:10Z</time>
      </trkpt>
      <trkpt lat="48.73323" lon="2.54831">
        <ele>121.169</ele>
        <time>2018-10-14T08:14:14Z</time>
      </trkpt>
      <trkpt lat="48.73323" lon="2.54831">
        <ele>121.169</ele>
        <time>2018-10-14T08:14:22Z</time>
      </trkpt>
      <trkpt lat="48.73323" lon="2.54831">
        <ele>90.3</ele>
        <time>2018-10-14T08:14:22Z</time>
      </trkpt>
      <trkpt lat="48.73323" lon="2.54831">
        <ele>90.3</ele>
        <time>2018-10-14T08:15:11Z</time>
      </trkpt>
      <trkpt lat="48.73331" lon="2.54808">
        <ele>123.038</ele>
        <time>2018-10-14T08:15:11Z</time>
      </trkpt>
      <trkpt lat="48.73333" lon="2.54804">
        <ele>123.154</ele>
        <time>2018-10-14T08:15:14Z</time>
      </trkpt>
      <trkpt lat="48.73335" lon="2.54799">
        <ele>123.265</ele>
        <time>2018-10-14T08:15:17Z</time>
      </trkpt>
      <trkpt lat="48.73337" lon="2.54792">
        <ele>123.371</ele>
        <time>2018-10-14T08:15:20Z</time>
      </trkpt>
      <trkpt lat="48.73338" lon="2.54787">
        <ele>123.44</ele>
        <time>2018-10-14T08:15:22Z</time>
      </trkpt>
      <trkpt lat="48.7334" lon="2.54779">
        <ele>123.539</ele>
        <time>2018-10-14T08:15:25Z</time>
      </trkpt>
      <trkpt lat="48.73341" lon="2.54774">
        <ele>123.634</ele>
        <time>2018-10-14T08:15:28Z</time>
      </trkpt>
      <trkpt lat="48.73345" lon="2.54767">
        <ele>123.756</ele>
        <time>2018-10-14T08:15:32Z</time>
      </trkpt>
      <trkpt lat="48.73344" lon="2.54758">
        <ele>123.925</ele>
        <time>2018-10-14T08:15:38Z</time>
      </trkpt>
      <trkpt lat="48.73344" lon="2.54753">
        <ele>124.002</ele>
        <time>2018-10-14T08:15:41Z</time>
      </trkpt>
      <trkpt lat="48.73344" lon="2.54745">
        <ele>124.097</ele>
        <time>2018-10-14T08:15:45Z</time>
      </trkpt>
      <trkpt lat="48.73345" lon="2.5474">
        <ele>124.163</ele>
        <time>2018-10-14T08:15:48Z</time>
      </trkpt>
      <trkpt lat="48.73346" lon="2.54732">
        <ele>124.29</ele>
        <time>2018-10-14T08:15:54Z</time>
      </trkpt>
      <trkpt lat="48.73347" lon="2.54728">
        <ele>124.33</ele>
        <time>2018-10-14T08:15:56Z</time>
      </trkpt>
      <trkpt lat="48.73349" lon="2.5472">
        <ele>124.409</ele>
        <time>2018-10-14T08:16:00Z</time>
      </trkpt>
      <trkpt lat="48.73352" lon="2.54713">
        <ele>124.484</ele>
        <time>2018-10-14T08:16:04Z</time>
      </trkpt>
      <trkpt lat="48.73353" lon="2.54709">
        <ele>124.54</ele>
        <time>2018-10-14T08:16:07Z</time>
      </trkpt>
      <trkpt lat="48.73355" lon="2.54703">
        <ele>124.609</ele>
        <time>2018-10-14T08:16:11Z</time>
      </trkpt>
      <trkpt lat="48.73357" lon="2.54696">
        <ele>124.674</ele>
        <time>2018-10-14T08:16:15Z</time>
      </trkpt>
      <trkpt lat="48.73358" lon="2.54692">
        <ele>124.704</ele>
        <time>2018-10-14T08:16:17Z</time>
      </trkpt>
      <trkpt lat="48.73359" lon="2.54688">
        <ele>124.746</ele>
        <time>2018-10-14T08:16:20Z</time>
      </trkpt>
      <trkpt lat="48.73363" lon="2.54683">
        <ele>124.81</ele>
        <time>2018-10-14T08:16:25Z</time>
      </trkpt>
      <trkpt lat="48.73368" lon="2.54685">
        <ele>124.859</ele>
        <time>2018-10-14T08:16:29Z</time>
      </trkpt>
      <trkpt lat="48.73377" lon="2.54686">
        <ele>124.894</ele>
        <time>2018-10-14T08:16:32Z</time>
      </trkpt>
      <trkpt lat="48.73381" lon="2.54689">
        <ele>124.93</ele>
        <time>2018-10-14T08:16:35Z</time>
      </trkpt>
      <trkpt lat="48.73384" lon="2.54694">
        <ele>125.018</ele>
        <time>2018-10-14T08:16:42Z</time>
      </trkpt>
      <trkpt lat="48.73388" lon="2.54699">
        <ele>125.073</ele>
        <time>2018-10-14T08:16:46Z</time>
      </trkpt>
      <trkpt lat="48.73395" lon="2.54706">
        <ele>125.145</ele>
        <time>2018-10-14T08:16:51Z</time>
      </trkpt>
      <trkpt lat="48.73397" lon="2.54712">
        <ele>125.189</ele>
        <time>2018-10-14T08:16:54Z</time>
      </trkpt>
      <trkpt lat="48.73399" lon="2.54716">
        <ele>125.217</ele>
        <time>2018-10-14T08:16:56Z</time>
      </trkpt>
      <trkpt lat="48.73402" lon="2.54721">
        <ele>125.259</ele>
        <time>2018-10-14T08:16:59Z</time>
      </trkpt>
      <trkpt lat="48.73404" lon="2.54724">
        <ele>125.286</ele>
        <time>2018-10-14T08:17:01Z</time>
      </trkpt>
      <trkpt lat="48.73407" lon="2.5473">
        <ele>125.325</ele>
        <time>2018-10-14T08:17:04Z</time>
      </trkpt>
      <trkpt lat="48.73411" lon="2.54735">
        <ele>125.366</ele>
        <time>2018-10-14T08:17:07Z</time>
      </trkpt>
      <trkpt lat="48.73414" lon="2.54742">
        <ele>125.422</ele>
        <time>2018-10-14T08:17:11Z</time>
      </trkpt>
      <trkpt lat="48.73416" lon="2.54746">
        <ele>125.461</ele>
        <time>2018-10-14T08:17:14Z</time>
      </trkpt>
      <trkpt lat="48.73419" lon="2.54751">
        <ele>125.511</ele>
        <time>2018-10-14T08:17:18Z</time>
      </trkpt>
      <trkpt lat="48.73424" lon="2.54757">
        <ele>125.565</ele>
        <time>2018-10-14T08:17:22Z</time>
      </trkpt>
      <trkpt lat="48.73428" lon="2.5476">
        <ele>125.606</ele>
        <time>2018-10-14T08:17:25Z</time>
      </trkpt>
      <trkpt lat="48.73429" lon="2.54767">
        <ele>125.649</ele>
        <time>2018-10-14T08:17:28Z</time>
      </trkpt>
      <trkpt lat="48.7343" lon="2.54771">
        <ele>125.663</ele>
        <time>2018-10-14T08:17:29Z</time>
      </trkpt>
      <trkpt lat="48.73431" lon="2.54779">
        <ele>125.708</ele>
        <time>2018-10-14T08:17:32Z</time>
      </trkpt>
      <trkpt lat="48.73432" lon="2.54786">
        <ele>125.79</ele>
        <time>2018-10-14T08:17:37Z</time>
      </trkpt>
      <trkpt lat="48.73434" lon="2.54791">
        <ele>125.825</ele>
        <time>2018-10-14T08:17:39Z</time>
      </trkpt>
      <trkpt lat="48.73435" lon="2.54795">
        <ele>125.86</ele>
        <time>2018-10-14T08:17:41Z</time>
      </trkpt>
      <trkpt lat="48.73438" lon="2.54803">
        <ele>125.936</ele>
        <time>2018-10-14T08:17:45Z</time>
      </trkpt>
      <trkpt lat="48.7344" lon="2.54809">
        <ele>126.015</ele>
        <time>2018-10-14T08:17:49Z</time>
      </trkpt>
      <trkpt lat="48.73443" lon="2.54814">
        <ele>126.095</ele>
        <time>2018-10-14T08:17:53Z</time>
      </trkpt>
      <trkpt lat="48.73445" lon="2.54818">
        <ele>126.135</ele>
        <time>2018-10-14T08:17:55Z</time>
      </trkpt>
      <trkpt lat="48.73448" lon="2.54825">
        <ele>126.192</ele>
        <time>2018-10-14T08:17:58Z</time>
      </trkpt>
      <trkpt lat="48.7345" lon="2.5483">
        <ele>126.25</ele>
        <time>2018-10-14T08:18:01Z</time>
      </trkpt>
      <trkpt lat="48.73452" lon="2.54837">
        <ele>126.309</ele>
        <time>2018-10-14T08:18:04Z</time>
      </trkpt>
      <trkpt lat="48.73455" lon="2.54846">
        <ele>126.39</ele>
        <time>2018-10-14T08:18:08Z</time>
      </trkpt>
      <trkpt lat="48.73456" lon="2.54853">
        <ele>126.468</ele>
        <time>2018-10-14T08:18:12Z</time>
      </trkpt>
      <trkpt lat="48.73457" lon="2.54858">
        <ele>126.523</ele>
        <time>2018-10-14T08:18:15Z</time>
      </trkpt>
      <trkpt lat="48.73457" lon="2.54862">
        <ele>126.558</ele>
        <time>2018-10-14T08:18:17Z</time>
      </trkpt>
      <trkpt lat="48.73461" lon="2.54868">
        <ele>126.608</ele>
        <time>2018-10-14T08:18:20Z</time>
      </trkpt>
      <trkpt lat="48.73464" lon="2.54873">
        <ele>126.689</ele>
        <time>2018-10-14T08:18:25Z</time>
      </trkpt>
      <trkpt lat="48.73466" lon="2.54881">
        <ele>126.759</ele>
        <time>2018-10-14T08:18:29Z</time>
      </trkpt>
      <trkpt lat="48.73468" lon="2.54887">
        <ele>126.812</ele>
        <time>2018-10-14T08:18:32Z</time>
      </trkpt>
      <trkpt lat="48.7347" lon="2.54893">
        <ele>126.865</ele>
        <time>2018-10-14T08:18:35Z</time>
      </trkpt>
      <trkpt lat="48.73473" lon="2.54899">
        <ele>126.939</ele>
        <time>2018-10-14T08:18:39Z</time>
      </trkpt>
      <trkpt lat="48.73475" lon="2.54902">
        <ele>126.995</ele>
        <time>2018-10-14T08:18:42Z</time>
      </trkpt>
      <trkpt lat="48.73479" lon="2.54911">
        <ele>127.132</ele>
        <time>2018-10-14T08:18:49Z</time>
      </trkpt>
      <trkpt lat="48.73481" lon="2.54917">
        <ele>127.192</ele>
        <time>2018-10-14T08:18:52Z</time>
      </trkpt>
      <trkpt lat="48.7348" lon="2.54925">
        <ele>127.252</ele>
        <time>2018-10-14T08:18:55Z</time>
      </trkpt>
      <trkpt lat="48.73481" lon="2.54932">
        <ele>127.314</ele>
        <time>2018-10-14T08:18:58Z</time>
      </trkpt>
      <trkpt lat="48.73481" lon="2.54939">
        <ele>127.378</ele>
        <time>2018-10-14T08:19:01Z</time>
      </trkpt>
      <trkpt lat="48.73483" lon="2.54946">
        <ele>127.445</ele>
        <time>2018-10-14T08:19:04Z</time>
      </trkpt>
      <trkpt lat="48.73493" lon="2.54946">
        <ele>127.534</ele>
        <time>2018-10-14T08:19:08Z</time>
      </trkpt>
      <trkpt lat="48.73499" lon="2.54949">
        <ele>127.604</ele>
        <time>2018-10-14T08:19:11Z</time>
      </trkpt>
      <trkpt lat="48.73502" lon="2.54951">
        <ele>127.628</ele>
        <time>2018-10-14T08:19:12Z</time>
      </trkpt>
      <trkpt lat="48.73506" lon="2.54956">
        <ele>127.702</ele>
        <time>2018-10-14T08:19:15Z</time>
      </trkpt>
      <trkpt lat="48.7351" lon="2.54963">
        <ele>127.803</ele>
        <time>2018-10-14T08:19:19Z</time>
      </trkpt>
      <trkpt lat="48.73513" lon="2.54971">
        <ele>127.884</ele>
        <time>2018-10-14T08:19:22Z</time>
      </trkpt>
      <trkpt lat="48.73514" lon="2.54979">
        <ele>127.969</ele>
        <time>2018-10-14T08:19:25Z</time>
      </trkpt>
      <trkpt lat="48.73516" lon="2.54985">
        <ele>128.059</ele>
        <time>2018-10-14T08:19:28Z</time>
      </trkpt>
      <trkpt lat="48.73516" lon="2.54992">
        <ele>128.151</ele>
        <time>2018-10-14T08:19:31Z</time>
      </trkpt>
      <trkpt lat="48.73518" lon="2.54999">
        <ele>128.27</ele>
        <time>2018-10-14T08:19:35Z</time>
      </trkpt>
      <trkpt lat="48.7352" lon="2.55006">
        <ele>128.41</ele>
        <time>2018-10-14T08:19:40Z</time>
      </trkpt>
      <trkpt lat="48.73521" lon="2.55011">
        <ele>128.49</ele>
        <time>2018-10-14T08:19:43Z</time>
      </trkpt>
      <trkpt lat="48.73522" lon="2.55017">
        <ele>128.542</ele>
        <time>2018-10-14T08:19:45Z</time>
      </trkpt>
      <trkpt lat="48.73523" lon="2.55021">
        <ele>128.594</ele>
        <time>2018-10-14T08:19:47Z</time>
      </trkpt>
      <trkpt lat="48.73524" lon="2.55026">
        <ele>128.672</ele>
        <time>2018-10-14T08:19:50Z</time>
      </trkpt>
      <trkpt lat="48.73525" lon="2.55033">
        <ele>128.781</ele>
        <time>2018-10-14T08:19:54Z</time>
      </trkpt>
      <trkpt lat="48.73526" lon="2.55041">
        <ele>128.865</ele>
        <time>2018-10-14T08:19:57Z</time>
      </trkpt>
      <trkpt lat="48.73528" lon="2.55048">
        <ele>128.975</ele>
        <time>2018-10-14T08:20:01Z</time>
      </trkpt>
      <trkpt lat="48.7353" lon="2.55053">
        <ele>129.058</ele>
        <time>2018-10-14T08:20:04Z</time>
      </trkpt>
      <trkpt lat="48.73531" lon="2.5506">
        <ele>129.139</ele>
        <time>2018-10-14T08:20:07Z</time>
      </trkpt>
      <trkpt lat="48.73532" lon="2.55065">
        <ele>129.22</ele>
        <time>2018-10-14T08:20:10Z</time>
      </trkpt>
      <trkpt lat="48.73535" lon="2.55074">
        <ele>129.324</ele>
        <time>2018-10-14T08:20:14Z</time>
      </trkpt>
      <trkpt lat="48.73536" lon="2.55077">
        <ele>129.375</ele>
        <time>2018-10-14T08:20:16Z</time>
      </trkpt>
      <trkpt lat="48.73538" lon="2.55084">
        <ele>129.495</ele>
        <time>2018-10-14T08:20:21Z</time>
      </trkpt>
      <trkpt lat="48.7354" lon="2.55091">
        <ele>129.59</ele>
        <time>2018-10-14T08:20:25Z</time>
      </trkpt>
      <trkpt lat="48.73543" lon="2.55097">
        <ele>129.703</ele>
        <time>2018-10-14T08:20:30Z</time>
      </trkpt>
      <trkpt lat="48.73544" lon="2.551">
        <ele>129.745</ele>
        <time>2018-10-14T08:20:32Z</time>
      </trkpt>
      <trkpt lat="48.73546" lon="2.55104">
        <ele>129.785</ele>
        <time>2018-10-14T08:20:34Z</time>
      </trkpt>
      <trkpt lat="48.7355" lon="2.5511">
        <ele>129.878</ele>
        <time>2018-10-14T08:20:39Z</time>
      </trkpt>
      <trkpt lat="48.73553" lon="2.55114">
        <ele>129.927</ele>
        <time>2018-10-14T08:20:42Z</time>
      </trkpt>
      <trkpt lat="48.73557" lon="2.55117">
        <ele>130.013</ele>
        <time>2018-10-14T08:20:48Z</time>
      </trkpt>
      <trkpt lat="48.73561" lon="2.55123">
        <ele>130.05</ele>
        <time>2018-10-14T08:20:51Z</time>
      </trkpt>
      <trkpt lat="48.73564" lon="2.55129">
        <ele>130.11</ele>
        <time>2018-10-14T08:20:56Z</time>
      </trkpt>
      <trkpt lat="48.73567" lon="2.55135">
        <ele>130.146</ele>
        <time>2018-10-14T08:20:59Z</time>
      </trkpt>
      <trkpt lat="48.73571" lon="2.55139">
        <ele>130.196</ele>
        <time>2018-10-14T08:21:03Z</time>
      </trkpt>
      <trkpt lat="48.73574" lon="2.55145">
        <ele>130.252</ele>
        <time>2018-10-14T08:21:08Z</time>
      </trkpt>
      <trkpt lat="48.73578" lon="2.55149">
        <ele>130.283</ele>
        <time>2018-10-14T08:21:11Z</time>
      </trkpt>
      <trkpt lat="48.73582" lon="2.55154">
        <ele>130.314</ele>
        <time>2018-10-14T08:21:14Z</time>
      </trkpt>
      <trkpt lat="48.73584" lon="2.55157">
        <ele>130.346</ele>
        <time>2018-10-14T08:21:17Z</time>
      </trkpt>
      <trkpt lat="48.73586" lon="2.5516">
        <ele>130.379</ele>
        <time>2018-10-14T08:21:20Z</time>
      </trkpt>
      <trkpt lat="48.73588" lon="2.55166">
        <ele>130.436</ele>
        <time>2018-10-14T08:21:25Z</time>
      </trkpt>
      <trkpt lat="48.73591" lon="2.55172">
        <ele>130.472</ele>
        <time>2018-10-14T08:21:28Z</time>
      </trkpt>
      <trkpt lat="48.73595" lon="2.55178">
        <ele>130.52</ele>
        <time>2018-10-14T08:21:32Z</time>
      </trkpt>
      <trkpt lat="48.736" lon="2.55179">
        <ele>130.546</ele>
        <time>2018-10-14T08:21:34Z</time>
      </trkpt>
      <trkpt lat="48.73603" lon="2.55185">
        <ele>130.584</ele>
        <time>2018-10-14T08:21:37Z</time>
      </trkpt>
      <trkpt lat="48.73606" lon="2.55191">
        <ele>130.661</ele>
        <time>2018-10-14T08:21:44Z</time>
      </trkpt>
      <trkpt lat="48.7361" lon="2.55197">
        <ele>130.7</ele>
        <time>2018-10-14T08:21:48Z</time>
      </trkpt>
      <trkpt lat="48.73613" lon="2.55203">
        <ele>130.739</ele>
        <time>2018-10-14T08:21:52Z</time>
      </trkpt>
      <trkpt lat="48.73617" lon="2.55208">
        <ele>130.768</ele>
        <time>2018-10-14T08:21:55Z</time>
      </trkpt>
      <trkpt lat="48.73622" lon="2.55214">
        <ele>130.798</ele>
        <time>2018-10-14T08:21:58Z</time>
      </trkpt>
      <trkpt lat="48.73625" lon="2.55216">
        <ele>130.819</ele>
        <time>2018-10-14T08:22:00Z</time>
      </trkpt>
      <trkpt lat="48.73627" lon="2.55219">
        <ele>130.84</ele>
        <time>2018-10-14T08:22:02Z</time>
      </trkpt>
      <trkpt lat="48.73632" lon="2.55223">
        <ele>130.894</ele>
        <time>2018-10-14T08:22:07Z</time>
      </trkpt>
      <trkpt lat="48.73635" lon="2.55226">
        <ele>130.916</ele>
        <time>2018-10-14T08:22:09Z</time>
      </trkpt>
      <trkpt lat="48.73639" lon="2.55231">
        <ele>130.95</ele>
        <time>2018-10-14T08:22:12Z</time>
      </trkpt>
      <trkpt lat="48.73642" lon="2.55234">
        <ele>130.973</ele>
        <time>2018-10-14T08:22:14Z</time>
      </trkpt>
      <trkpt lat="48.73646" lon="2.55237">
        <ele>131.006</ele>
        <time>2018-10-14T08:22:17Z</time>
      </trkpt>
      <trkpt lat="48.73651" lon="2.55241">
        <ele>131.051</ele>
        <time>2018-10-14T08:22:21Z</time>
      </trkpt>
      <trkpt lat="48.73655" lon="2.55245">
        <ele>131.086</ele>
        <time>2018-10-14T08:22:24Z</time>
      </trkpt>
      <trkpt lat="48.73661" lon="2.55253">
        <ele>131.143</ele>
        <time>2018-10-14T08:22:29Z</time>
      </trkpt>
      <trkpt lat="48.73664" lon="2.55256">
        <ele>131.166</ele>
        <time>2018-10-14T08:22:31Z</time>
      </trkpt>
      <trkpt lat="48.73667" lon="2.55259">
        <ele>131.204</ele>
        <time>2018-10-14T08:22:34Z</time>
      </trkpt>
      <trkpt lat="48.7367" lon="2.55266">
        <ele>131.274</ele>
        <time>2018-10-14T08:22:40Z</time>
      </trkpt>
      <trkpt lat="48.73673" lon="2.55273">
        <ele>131.325</ele>
        <time>2018-10-14T08:22:45Z</time>
      </trkpt>
      <trkpt lat="48.73674" lon="2.55276">
        <ele>131.345</ele>
        <time>2018-10-14T08:22:47Z</time>
      </trkpt>
      <trkpt lat="48.73675" lon="2.55283">
        <ele>131.376</ele>
        <time>2018-10-14T08:22:50Z</time>
      </trkpt>
      <trkpt lat="48.73677" lon="2.55291">
        <ele>131.419</ele>
        <time>2018-10-14T08:22:54Z</time>
      </trkpt>
      <trkpt lat="48.73682" lon="2.55296">
        <ele>131.464</ele>
        <time>2018-10-14T08:22:58Z</time>
      </trkpt>
      <trkpt lat="48.73686" lon="2.55299">
        <ele>131.505</ele>
        <time>2018-10-14T08:23:02Z</time>
      </trkpt>
      <trkpt lat="48.7369" lon="2.55301">
        <ele>131.546</ele>
        <time>2018-10-14T08:23:06Z</time>
      </trkpt>
      <trkpt lat="48.73696" lon="2.55305">
        <ele>131.59</ele>
        <time>2018-10-14T08:23:10Z</time>
      </trkpt>
      <trkpt lat="48.73699" lon="2.55307">
        <ele>131.612</ele>
        <time>2018-10-14T08:23:12Z</time>
      </trkpt>
      <trkpt lat="48.73702" lon="2.55308">
        <ele>131.634</ele>
        <time>2018-10-14T08:23:14Z</time>
      </trkpt>
      <trkpt lat="48.73709" lon="2.55309">
        <ele>131.686</ele>
        <time>2018-10-14T08:23:19Z</time>
      </trkpt>
      <trkpt lat="48.73714" lon="2.55309">
        <ele>131.718</ele>
        <time>2018-10-14T08:23:22Z</time>
      </trkpt>
      <trkpt lat="48.7372" lon="2.5531">
        <ele>131.751</ele>
        <time>2018-10-14T08:23:25Z</time>
      </trkpt>
      <trkpt lat="48.73724" lon="2.5531">
        <ele>131.785</ele>
        <time>2018-10-14T08:23:28Z</time>
      </trkpt>
      <trkpt lat="48.7373" lon="2.55312">
        <ele>131.852</ele>
        <time>2018-10-14T08:23:34Z</time>
      </trkpt>
      <trkpt lat="48.73731" lon="2.5532">
        <ele>131.904</ele>
        <time>2018-10-14T08:23:39Z</time>
      </trkpt>
      <trkpt lat="48.73732" lon="2.55327">
        <ele>131.968</ele>
        <time>2018-10-14T08:23:46Z</time>
      </trkpt>
      <trkpt lat="48.73736" lon="2.55332">
        <ele>132.01</ele>
        <time>2018-10-14T08:23:50Z</time>
      </trkpt>
      <trkpt lat="48.73742" lon="2.55335">
        <ele>132.051</ele>
        <time>2018-10-14T08:23:54Z</time>
      </trkpt>
      <trkpt lat="48.73745" lon="2.55337">
        <ele>132.072</ele>
        <time>2018-10-14T08:23:56Z</time>
      </trkpt>
      <trkpt lat="48.73747" lon="2.55338">
        <ele>132.082</ele>
        <time>2018-10-14T08:23:57Z</time>
      </trkpt>
      <trkpt lat="48.73752" lon="2.55343">
        <ele>132.124</ele>
        <time>2018-10-14T08:24:01Z</time>
      </trkpt>
      <trkpt lat="48.73753" lon="2.55345">
        <ele>132.134</ele>
        <time>2018-10-14T08:24:02Z</time>
      </trkpt>
      <trkpt lat="48.73756" lon="2.55351">
        <ele>132.169</ele>
        <time>2018-10-14T08:24:05Z</time>
      </trkpt>
      <trkpt lat="48.73757" lon="2.55358">
        <ele>132.205</ele>
        <time>2018-10-14T08:24:08Z</time>
      </trkpt>
      <trkpt lat="48.73756" lon="2.55367">
        <ele>132.254</ele>
        <time>2018-10-14T08:24:12Z</time>
      </trkpt>
      <trkpt lat="48.73756" lon="2.5537">
        <ele>132.279</ele>
        <time>2018-10-14T08:24:14Z</time>
      </trkpt>
      <trkpt lat="48.73756" lon="2.55376">
        <ele>132.315</ele>
        <time>2018-10-14T08:24:17Z</time>
      </trkpt>
      <trkpt lat="48.73756" lon="2.55382">
        <ele>132.349</ele>
        <time>2018-10-14T08:24:20Z</time>
      </trkpt>
      <trkpt lat="48.73758" lon="2.55388">
        <ele>132.398</ele>
        <time>2018-10-14T08:24:24Z</time>
      </trkpt>
      <trkpt lat="48.73761" lon="2.55394">
        <ele>132.439</ele>
        <time>2018-10-14T08:24:27Z</time>
      </trkpt>
      <trkpt lat="48.73763" lon="2.55398">
        <ele>132.467</ele>
        <time>2018-10-14T08:24:29Z</time>
      </trkpt>
      <trkpt lat="48.73765" lon="2.55405">
        <ele>132.508</ele>
        <time>2018-10-14T08:24:32Z</time>
      </trkpt>
      <trkpt lat="48.73766" lon="2.5541">
        <ele>132.535</ele>
        <time>2018-10-14T08:24:34Z</time>
      </trkpt>
      <trkpt lat="48.7377" lon="2.55414">
        <ele>132.616</ele>
        <time>2018-10-14T08:24:40Z</time>
      </trkpt>
      <trkpt lat="48.73773" lon="2.5542">
        <ele>132.681</ele>
        <time>2018-10-14T08:24:45Z</time>
      </trkpt>
      <trkpt lat="48.73778" lon="2.55417">
        <ele>132.758</ele>
        <time>2018-10-14T08:25:00Z</time>
      </trkpt>
      <trkpt lat="48.73783" lon="2.55421">
        <ele>132.837</ele>
        <time>2018-10-14T08:25:06Z</time>
      </trkpt>
      <trkpt lat="48.73787" lon="2.55427">
        <ele>132.886</ele>
        <time>2018-10-14T08:25:10Z</time>
      </trkpt>
      <trkpt lat="48.7379" lon="2.55433">
        <ele>132.922</ele>
        <time>2018-10-14T08:25:13Z</time>
      </trkpt>
      <trkpt lat="48.73792" lon="2.55438">
        <ele>133.002</ele>
        <time>2018-10-14T08:25:20Z</time>
      </trkpt>
      <trkpt lat="48.73794" lon="2.55443">
        <ele>133.034</ele>
        <time>2018-10-14T08:25:23Z</time>
      </trkpt>
      <trkpt lat="48.73798" lon="2.55448">
        <ele>133.077</ele>
        <time>2018-10-14T08:25:27Z</time>
      </trkpt>
      <trkpt lat="48.738" lon="2.5545">
        <ele>133.098</ele>
        <time>2018-10-14T08:25:29Z</time>
      </trkpt>
      <trkpt lat="48.73803" lon="2.55455">
        <ele>133.139</ele>
        <time>2018-10-14T08:25:33Z</time>
      </trkpt>
      <trkpt lat="48.73805" lon="2.5546">
        <ele>133.17</ele>
        <time>2018-10-14T08:25:36Z</time>
      </trkpt>
      <trkpt lat="48.73809" lon="2.55465">
        <ele>133.204</ele>
        <time>2018-10-14T08:25:39Z</time>
      </trkpt>
      <trkpt lat="48.73813" lon="2.55471">
        <ele>133.256</ele>
        <time>2018-10-14T08:25:43Z</time>
      </trkpt>
      <trkpt lat="48.73816" lon="2.55476">
        <ele>133.315</ele>
        <time>2018-10-14T08:25:47Z</time>
      </trkpt>
      <trkpt lat="48.73817" lon="2.55483">
        <ele>133.392</ele>
        <time>2018-10-14T08:25:52Z</time>
      </trkpt>
      <trkpt lat="48.7382" lon="2.55489">
        <ele>133.452</ele>
        <time>2018-10-14T08:25:56Z</time>
      </trkpt>
      <trkpt lat="48.73825" lon="2.55495">
        <ele>133.521</ele>
        <time>2018-10-14T08:26:01Z</time>
      </trkpt>
      <trkpt lat="48.73828" lon="2.55501">
        <ele>133.571</ele>
        <time>2018-10-14T08:26:05Z</time>
      </trkpt>
      <trkpt lat="48.73832" lon="2.55508">
        <ele>133.618</ele>
        <time>2018-10-14T08:26:09Z</time>
      </trkpt>
      <trkpt lat="48.73834" lon="2.55513">
        <ele>133.664</ele>
        <time>2018-10-14T08:26:13Z</time>
      </trkpt>
      <trkpt lat="48.73838" lon="2.55518">
        <ele>133.708</ele>
        <time>2018-10-14T08:26:17Z</time>
      </trkpt>
      <trkpt lat="48.7384" lon="2.55525">
        <ele>133.743</ele>
        <time>2018-10-14T08:26:20Z</time>
      </trkpt>
      <trkpt lat="48.73841" lon="2.55533">
        <ele>133.791</ele>
        <time>2018-10-14T08:26:24Z</time>
      </trkpt>
      <trkpt lat="48.73844" lon="2.55539">
        <ele>133.856</ele>
        <time>2018-10-14T08:26:29Z</time>
      </trkpt>
      <trkpt lat="48.73846" lon="2.55547">
        <ele>133.907</ele>
        <time>2018-10-14T08:26:33Z</time>
      </trkpt>
      <trkpt lat="48.73847" lon="2.55551">
        <ele>133.933</ele>
        <time>2018-10-14T08:26:35Z</time>
      </trkpt>
      <trkpt lat="48.73848" lon="2.55556">
        <ele>133.957</ele>
        <time>2018-10-14T08:26:37Z</time>
      </trkpt>
      <trkpt lat="48.73849" lon="2.55563">
        <ele>134.002</ele>
        <time>2018-10-14T08:26:41Z</time>
      </trkpt>
      <trkpt lat="48.7385" lon="2.55569">
        <ele>134.035</ele>
        <time>2018-10-14T08:26:44Z</time>
      </trkpt>
      <trkpt lat="48.7385" lon="2.55576">
        <ele>134.075</ele>
        <time>2018-10-14T08:26:48Z</time>
      </trkpt>
      <trkpt lat="48.73851" lon="2.55583">
        <ele>134.106</ele>
        <time>2018-10-14T08:26:51Z</time>
      </trkpt>
      <trkpt lat="48.73851" lon="2.55591">
        <ele>134.161</ele>
        <time>2018-10-14T08:26:56Z</time>
      </trkpt>
      <trkpt lat="48.73851" lon="2.55599">
        <ele>134.201</ele>
        <time>2018-10-14T08:27:00Z</time>
      </trkpt>
      <trkpt lat="48.73851" lon="2.55606">
        <ele>134.236</ele>
        <time>2018-10-14T08:27:04Z</time>
      </trkpt>
      <trkpt lat="48.7385" lon="2.55613">
        <ele>134.272</ele>
        <time>2018-10-14T08:27:08Z</time>
      </trkpt>
      <trkpt lat="48.73849" lon="2.55618">
        <ele>134.309</ele>
        <time>2018-10-14T08:27:12Z</time>
      </trkpt>
      <trkpt lat="48.73848" lon="2.55623">
        <ele>134.336</ele>
        <time>2018-10-14T08:27:15Z</time>
      </trkpt>
      <trkpt lat="48.73847" lon="2.5563">
        <ele>134.364</ele>
        <time>2018-10-14T08:27:18Z</time>
      </trkpt>
      <trkpt lat="48.73844" lon="2.55638">
        <ele>134.403</ele>
        <time>2018-10-14T08:27:22Z</time>
      </trkpt>
      <trkpt lat="48.73844" lon="2.55648">
        <ele>134.433</ele>
        <time>2018-10-14T08:27:25Z</time>
      </trkpt>
      <trkpt lat="48.73845" lon="2.55655">
        <ele>134.478</ele>
        <time>2018-10-14T08:27:30Z</time>
      </trkpt>
      <trkpt lat="48.7385" lon="2.55661">
        <ele>134.503</ele>
        <time>2018-10-14T08:27:33Z</time>
      </trkpt>
      <trkpt lat="48.73852" lon="2.55664">
        <ele>134.519</ele>
        <time>2018-10-14T08:27:35Z</time>
      </trkpt>
      <trkpt lat="48.73854" lon="2.55671">
        <ele>134.54</ele>
        <time>2018-10-14T08:27:38Z</time>
      </trkpt>
      <trkpt lat="48.73855" lon="2.55674">
        <ele>134.559</ele>
        <time>2018-10-14T08:27:41Z</time>
      </trkpt>
      <trkpt lat="48.73859" lon="2.5568">
        <ele>134.583</ele>
        <time>2018-10-14T08:27:45Z</time>
      </trkpt>
      <trkpt lat="48.73861" lon="2.55687">
        <ele>134.596</ele>
        <time>2018-10-14T08:27:48Z</time>
      </trkpt>
      <trkpt lat="48.73863" lon="2.55692">
        <ele>134.601</ele>
        <time>2018-10-14T08:27:50Z</time>
      </trkpt>
      <trkpt lat="48.73865" lon="2.55696">
        <ele>134.604</ele>
        <time>2018-10-14T08:27:52Z</time>
      </trkpt>
      <trkpt lat="48.73867" lon="2.55702">
        <ele>134.607</ele>
        <time>2018-10-14T08:27:55Z</time>
      </trkpt>
      <trkpt lat="48.73869" lon="2.55711">
        <ele>134.61</ele>
        <time>2018-10-14T08:28:00Z</time>
      </trkpt>
      <trkpt lat="48.73871" lon="2.55719">
        <ele>134.611</ele>
        <time>2018-10-14T08:28:04Z</time>
      </trkpt>
      <trkpt lat="48.73873" lon="2.55728">
        <ele>134.613</ele>
        <time>2018-10-14T08:28:08Z</time>
      </trkpt>
      <trkpt lat="48.73874" lon="2.55736">
        <ele>134.614</ele>
        <time>2018-10-14T08:28:13Z</time>
      </trkpt>
      <trkpt lat="48.73875" lon="2.55743">
        <ele>134.617</ele>
        <time>2018-10-14T08:28:16Z</time>
      </trkpt>
      <trkpt lat="48.7388" lon="2.55752">
        <ele>134.625</ele>
        <time>2018-10-14T08:28:20Z</time>
      </trkpt>
      <trkpt lat="48.73881" lon="2.55759">
        <ele>134.631</ele>
        <time>2018-10-14T08:28:23Z</time>
      </trkpt>
      <trkpt lat="48.73883" lon="2.55765">
        <ele>134.641</ele>
        <time>2018-10-14T08:28:27Z</time>
      </trkpt>
      <trkpt lat="48.73885" lon="2.55772">
        <ele>134.651</ele>
        <time>2018-10-14T08:28:31Z</time>
      </trkpt>
      <trkpt lat="48.7389" lon="2.55779">
        <ele>134.67</ele>
        <time>2018-10-14T08:28:36Z</time>
      </trkpt>
      <trkpt lat="48.73894" lon="2.55785">
        <ele>134.699</ele>
        <time>2018-10-14T08:28:41Z</time>
      </trkpt>
      <trkpt lat="48.73897" lon="2.55792">
        <ele>134.718</ele>
        <time>2018-10-14T08:28:44Z</time>
      </trkpt>
      <trkpt lat="48.73898" lon="2.55795">
        <ele>134.733</ele>
        <time>2018-10-14T08:28:46Z</time>
      </trkpt>
      <trkpt lat="48.73899" lon="2.55802">
        <ele>134.768</ele>
        <time>2018-10-14T08:28:50Z</time>
      </trkpt>
      <trkpt lat="48.73901" lon="2.55809">
        <ele>134.805</ele>
        <time>2018-10-14T08:28:54Z</time>
      </trkpt>
      <trkpt lat="48.73903" lon="2.55815">
        <ele>134.835</ele>
        <time>2018-10-14T08:28:57Z</time>
      </trkpt>
      <trkpt lat="48.73906" lon="2.55821">
        <ele>134.864</ele>
        <time>2018-10-14T08:29:00Z</time>
      </trkpt>
      <trkpt lat="48.73908" lon="2.55823">
        <ele>134.884</ele>
        <time>2018-10-14T08:29:02Z</time>
      </trkpt>
      <trkpt lat="48.7391" lon="2.5583">
        <ele>134.936</ele>
        <time>2018-10-14T08:29:07Z</time>
      </trkpt>
      <trkpt lat="48.73913" lon="2.55835">
        <ele>134.967</ele>
        <time>2018-10-14T08:29:10Z</time>
      </trkpt>
      <trkpt lat="48.73916" lon="2.55841">
        <ele>135</ele>
        <time>2018-10-14T08:29:13Z</time>
      </trkpt>
      <trkpt lat="48.73918" lon="2.55848">
        <ele>135.033</ele>
        <time>2018-10-14T08:29:16Z</time>
      </trkpt>
      <trkpt lat="48.7392" lon="2.55852">
        <ele>135.056</ele>
        <time>2018-10-14T08:29:18Z</time>
      </trkpt>
      <trkpt lat="48.73921" lon="2.55856">
        <ele>135.079</ele>
        <time>2018-10-14T08:29:20Z</time>
      </trkpt>
      <trkpt lat="48.73923" lon="2.55859">
        <ele>135.112</ele>
        <time>2018-10-14T08:29:23Z</time>
      </trkpt>
      <trkpt lat="48.73924" lon="2.55863">
        <ele>135.144</ele>
        <time>2018-10-14T08:29:26Z</time>
      </trkpt>
      <trkpt lat="48.73928" lon="2.5587">
        <ele>135.185</ele>
        <time>2018-10-14T08:29:30Z</time>
      </trkpt>
      <trkpt lat="48.7393" lon="2.55874">
        <ele>135.217</ele>
        <time>2018-10-14T08:29:33Z</time>
      </trkpt>
      <trkpt lat="48.73934" lon="2.55878">
        <ele>135.275</ele>
        <time>2018-10-14T08:29:38Z</time>
      </trkpt>
      <trkpt lat="48.73939" lon="2.55881">
        <ele>135.324</ele>
        <time>2018-10-14T08:29:42Z</time>
      </trkpt>
      <trkpt lat="48.73943" lon="2.55882">
        <ele>135.369</ele>
        <time>2018-10-14T08:29:46Z</time>
      </trkpt>
      <trkpt lat="48.73946" lon="2.55883">
        <ele>135.389</ele>
        <time>2018-10-14T08:29:48Z</time>
      </trkpt>
      <trkpt lat="48.73949" lon="2.55884">
        <ele>135.418</ele>
        <time>2018-10-14T08:29:51Z</time>
      </trkpt>
      <trkpt lat="48.73954" lon="2.55885">
        <ele>135.446</ele>
        <time>2018-10-14T08:29:54Z</time>
      </trkpt>
      <trkpt lat="48.73958" lon="2.55885">
        <ele>135.473</ele>
        <time>2018-10-14T08:29:57Z</time>
      </trkpt>
      <trkpt lat="48.73964" lon="2.55887">
        <ele>135.504</ele>
        <time>2018-10-14T08:30:01Z</time>
      </trkpt>
      <trkpt lat="48.73968" lon="2.55887">
        <ele>135.531</ele>
        <time>2018-10-14T08:30:05Z</time>
      </trkpt>
      <trkpt lat="48.73971" lon="2.55887">
        <ele>135.543</ele>
        <time>2018-10-14T08:30:07Z</time>
      </trkpt>
      <trkpt lat="48.73976" lon="2.55886">
        <ele>135.558</ele>
        <time>2018-10-14T08:30:10Z</time>
      </trkpt>
      <trkpt lat="48.73981" lon="2.55886">
        <ele>135.572</ele>
        <time>2018-10-14T08:30:13Z</time>
      </trkpt>
      <trkpt lat="48.73986" lon="2.55883">
        <ele>135.585</ele>
        <time>2018-10-14T08:30:16Z</time>
      </trkpt>
      <trkpt lat="48.73992" lon="2.55883">
        <ele>135.597</ele>
        <time>2018-10-14T08:30:19Z</time>
      </trkpt>
      <trkpt lat="48.73997" lon="2.55883">
        <ele>135.609</ele>
        <time>2018-10-14T08:30:22Z</time>
      </trkpt>
      <trkpt lat="48.74" lon="2.55883">
        <ele>135.617</ele>
        <time>2018-10-14T08:30:24Z</time>
      </trkpt>
      <trkpt lat="48.74005" lon="2.55879">
        <ele>135.628</ele>
        <time>2018-10-14T08:30:28Z</time>
      </trkpt>
      <trkpt lat="48.74011" lon="2.55878">
        <ele>135.635</ele>
        <time>2018-10-14T08:30:32Z</time>
      </trkpt>
      <trkpt lat="48.74014" lon="2.55878">
        <ele>135.637</ele>
        <time>2018-10-14T08:30:34Z</time>
      </trkpt>
      <trkpt lat="48.74017" lon="2.55878">
        <ele>135.642</ele>
        <time>2018-10-14T08:30:38Z</time>
      </trkpt>
      <trkpt lat="48.74021" lon="2.55878">
        <ele>135.647</ele>
        <time>2018-10-14T08:30:41Z</time>
      </trkpt>
      <trkpt lat="48.74026" lon="2.55878">
        <ele>135.655</ele>
        <time>2018-10-14T08:30:44Z</time>
      </trkpt>
      <trkpt lat="48.74031" lon="2.55877">
        <ele>135.665</ele>
        <time>2018-10-14T08:30:47Z</time>
      </trkpt>
      <trkpt lat="48.74036" lon="2.55879">
        <ele>135.687</ele>
        <time>2018-10-14T08:30:52Z</time>
      </trkpt>
      <trkpt lat="48.74041" lon="2.5588">
        <ele>135.705</ele>
        <time>2018-10-14T08:30:55Z</time>
      </trkpt>
      <trkpt lat="48.74044" lon="2.55881">
        <ele>135.718</ele>
        <time>2018-10-14T08:30:57Z</time>
      </trkpt>
      <trkpt lat="48.7405" lon="2.55882">
        <ele>135.755</ele>
        <time>2018-10-14T08:31:02Z</time>
      </trkpt>
      <trkpt lat="48.74053" lon="2.55882">
        <ele>135.769</ele>
        <time>2018-10-14T08:31:04Z</time>
      </trkpt>
      <trkpt lat="48.74058" lon="2.55883">
        <ele>135.795</ele>
        <time>2018-10-14T08:31:08Z</time>
      </trkpt>
      <trkpt lat="48.74064" lon="2.55886">
        <ele>135.829</ele>
        <time>2018-10-14T08:31:13Z</time>
      </trkpt>
      <trkpt lat="48.74068" lon="2.55888">
        <ele>135.85</ele>
        <time>2018-10-14T08:31:16Z</time>
      </trkpt>
      <trkpt lat="48.74073" lon="2.5589">
        <ele>135.87</ele>
        <time>2018-10-14T08:31:19Z</time>
      </trkpt>
      <trkpt lat="48.74077" lon="2.55894">
        <ele>135.897</ele>
        <time>2018-10-14T08:31:23Z</time>
      </trkpt>
      <trkpt lat="48.74081" lon="2.55899">
        <ele>135.924</ele>
        <time>2018-10-14T08:31:27Z</time>
      </trkpt>
      <trkpt lat="48.74086" lon="2.55904">
        <ele>135.946</ele>
        <time>2018-10-14T08:31:31Z</time>
      </trkpt>
      <trkpt lat="48.74088" lon="2.55906">
        <ele>135.954</ele>
        <time>2018-10-14T08:31:33Z</time>
      </trkpt>
      <trkpt lat="48.74091" lon="2.55909">
        <ele>135.962</ele>
        <time>2018-10-14T08:31:35Z</time>
      </trkpt>
      <trkpt lat="48.74093" lon="2.55912">
        <ele>135.969</ele>
        <time>2018-10-14T08:31:37Z</time>
      </trkpt>
      <trkpt lat="48.74097" lon="2.55915">
        <ele>135.984</ele>
        <time>2018-10-14T08:31:41Z</time>
      </trkpt>
      <trkpt lat="48.741" lon="2.55917">
        <ele>135.998</ele>
        <time>2018-10-14T08:31:44Z</time>
      </trkpt>
      <trkpt lat="48.74103" lon="2.55919">
        <ele>136.009</ele>
        <time>2018-10-14T08:31:46Z</time>
      </trkpt>
      <trkpt lat="48.74108" lon="2.55919">
        <ele>136.037</ele>
        <time>2018-10-14T08:31:50Z</time>
      </trkpt>
      <trkpt lat="48.74114" lon="2.55919">
        <ele>136.061</ele>
        <time>2018-10-14T08:31:53Z</time>
      </trkpt>
      <trkpt lat="48.74119" lon="2.55917">
        <ele>136.087</ele>
        <time>2018-10-14T08:31:56Z</time>
      </trkpt>
      <trkpt lat="48.74123" lon="2.55915">
        <ele>136.116</ele>
        <time>2018-10-14T08:31:59Z</time>
      </trkpt>
      <trkpt lat="48.74126" lon="2.55914">
        <ele>136.136</ele>
        <time>2018-10-14T08:32:01Z</time>
      </trkpt>
      <trkpt lat="48.74128" lon="2.55913">
        <ele>136.158</ele>
        <time>2018-10-14T08:32:03Z</time>
      </trkpt>
      <trkpt lat="48.74133" lon="2.55909">
        <ele>136.201</ele>
        <time>2018-10-14T08:32:07Z</time>
      </trkpt>
      <trkpt lat="48.74139" lon="2.55908">
        <ele>136.242</ele>
        <time>2018-10-14T08:32:11Z</time>
      </trkpt>
      <trkpt lat="48.74143" lon="2.55907">
        <ele>136.281</ele>
        <time>2018-10-14T08:32:15Z</time>
      </trkpt>
      <trkpt lat="48.74145" lon="2.55906">
        <ele>136.3</ele>
        <time>2018-10-14T08:32:17Z</time>
      </trkpt>
      <trkpt lat="48.74148" lon="2.55905">
        <ele>136.327</ele>
        <time>2018-10-14T08:32:20Z</time>
      </trkpt>
      <trkpt lat="48.74148" lon="2.55905">
        <ele>99</ele>
        <time>2018-10-14T08:32:28Z</time>
      </trkpt>
      <trkpt lat="48.74148" lon="2.55905">
        <ele>99</ele>
        <time>2018-10-14T08:43:34Z</time>
      </trkpt>
      <trkpt lat="48.74166" lon="2.55908">
        <ele>139.02</ele>
        <time>2018-10-14T08:43:34Z</time>
      </trkpt>
      <trkpt lat="48.7417" lon="2.55912">
        <ele>139.091</ele>
        <time>2018-10-14T08:43:38Z</time>
      </trkpt>
      <trkpt lat="48.74174" lon="2.55916">
        <ele>139.173</ele>
        <time>2018-10-14T08:43:43Z</time>
      </trkpt>
      <trkpt lat="48.74179" lon="2.55918">
        <ele>139.245</ele>
        <time>2018-10-14T08:43:48Z</time>
      </trkpt>
      <trkpt lat="48.74184" lon="2.55919">
        <ele>139.307</ele>
        <time>2018-10-14T08:43:53Z</time>
      </trkpt>
      <trkpt lat="48.74187" lon="2.5592">
        <ele>139.331</ele>
        <time>2018-10-14T08:43:55Z</time>
      </trkpt>
      <trkpt lat="48.74192" lon="2.55919">
        <ele>139.364</ele>
        <time>2018-10-14T08:43:58Z</time>
      </trkpt>
      <trkpt lat="48.74195" lon="2.55919">
        <ele>139.385</ele>
        <time>2018-10-14T08:44:00Z</time>
      </trkpt>
      <trkpt lat="48.742" lon="2.55918">
        <ele>139.433</ele>
        <time>2018-10-14T08:44:05Z</time>
      </trkpt>
      <trkpt lat="48.74202" lon="2.55918">
        <ele>139.451</ele>
        <time>2018-10-14T08:44:07Z</time>
      </trkpt>
      <trkpt lat="48.74205" lon="2.55918">
        <ele>139.467</ele>
        <time>2018-10-14T08:44:09Z</time>
      </trkpt>
      <trkpt lat="48.7421" lon="2.55915">
        <ele>139.508</ele>
        <time>2018-10-14T08:44:14Z</time>
      </trkpt>
      <trkpt lat="48.74213" lon="2.55914">
        <ele>139.522</ele>
        <time>2018-10-14T08:44:16Z</time>
      </trkpt>
      <trkpt lat="48.74218" lon="2.55916">
        <ele>139.543</ele>
        <time>2018-10-14T08:44:20Z</time>
      </trkpt>
      <trkpt lat="48.74221" lon="2.55916">
        <ele>139.55</ele>
        <time>2018-10-14T08:44:22Z</time>
      </trkpt>
      <trkpt lat="48.74224" lon="2.55917">
        <ele>139.557</ele>
        <time>2018-10-14T08:44:24Z</time>
      </trkpt>
      <trkpt lat="48.74224" lon="2.55917">
        <ele>139.557</ele>
        <time>2018-10-14T08:44:29Z</time>
      </trkpt>
      <trkpt lat="48.74224" lon="2.55917">
        <ele>99.9</ele>
        <time>2018-10-14T08:44:29Z</time>
      </trkpt>
      <trkpt lat="48.74224" lon="2.55917">
        <ele>99.9</ele>
        <time>2018-10-14T08:44:34Z</time>
      </trkpt>
      <trkpt lat="48.74234" lon="2.55917">
        <ele>139.586</ele>
        <time>2018-10-14T08:44:34Z</time>
      </trkpt>
      <trkpt lat="48.74238" lon="2.55916">
        <ele>139.594</ele>
        <time>2018-10-14T08:44:38Z</time>
      </trkpt>
      <trkpt lat="48.74243" lon="2.55915">
        <ele>139.6</ele>
        <time>2018-10-14T08:44:41Z</time>
      </trkpt>
      <trkpt lat="48.74248" lon="2.55915">
        <ele>139.602</ele>
        <time>2018-10-14T08:44:44Z</time>
      </trkpt>
      <trkpt lat="48.7425" lon="2.55914">
        <ele>139.602</ele>
        <time>2018-10-14T08:44:46Z</time>
      </trkpt>
      <trkpt lat="48.74254" lon="2.55914">
        <ele>139.6</ele>
        <time>2018-10-14T08:44:48Z</time>
      </trkpt>
      <trkpt lat="48.7426" lon="2.55912">
        <ele>139.593</ele>
        <time>2018-10-14T08:44:52Z</time>
      </trkpt>
      <trkpt lat="48.74265" lon="2.55911">
        <ele>139.586</ele>
        <time>2018-10-14T08:44:55Z</time>
      </trkpt>
      <trkpt lat="48.74268" lon="2.5591">
        <ele>139.581</ele>
        <time>2018-10-14T08:44:57Z</time>
      </trkpt>
      <trkpt lat="48.74272" lon="2.55906">
        <ele>139.572</ele>
        <time>2018-10-14T08:45:01Z</time>
      </trkpt>
      <trkpt lat="48.74277" lon="2.55902">
        <ele>139.562</ele>
        <time>2018-10-14T08:45:05Z</time>
      </trkpt>
      <trkpt lat="48.74281" lon="2.55898">
        <ele>139.553</ele>
        <time>2018-10-14T08:45:08Z</time>
      </trkpt>
      <trkpt lat="48.74284" lon="2.55896">
        <ele>139.546</ele>
        <time>2018-10-14T08:45:10Z</time>
      </trkpt>
      <trkpt lat="48.74286" lon="2.55893">
        <ele>139.535</ele>
        <time>2018-10-14T08:45:13Z</time>
      </trkpt>
      <trkpt lat="48.7429" lon="2.5589">
        <ele>139.52</ele>
        <time>2018-10-14T08:45:17Z</time>
      </trkpt>
      <trkpt lat="48.74293" lon="2.55888">
        <ele>139.512</ele>
        <time>2018-10-14T08:45:19Z</time>
      </trkpt>
      <trkpt lat="48.74298" lon="2.55886">
        <ele>139.502</ele>
        <time>2018-10-14T08:45:22Z</time>
      </trkpt>
      <trkpt lat="48.74303" lon="2.55884">
        <ele>139.491</ele>
        <time>2018-10-14T08:45:25Z</time>
      </trkpt>
      <trkpt lat="48.74308" lon="2.5588">
        <ele>139.462</ele>
        <time>2018-10-14T08:45:32Z</time>
      </trkpt>
      <trkpt lat="48.74311" lon="2.55877">
        <ele>139.452</ele>
        <time>2018-10-14T08:45:34Z</time>
      </trkpt>
      <trkpt lat="48.74315" lon="2.55872">
        <ele>139.436</ele>
        <time>2018-10-14T08:45:37Z</time>
      </trkpt>
      <trkpt lat="48.74316" lon="2.5587">
        <ele>139.425</ele>
        <time>2018-10-14T08:45:39Z</time>
      </trkpt>
      <trkpt lat="48.7432" lon="2.55867">
        <ele>139.398</ele>
        <time>2018-10-14T08:45:43Z</time>
      </trkpt>
      <trkpt lat="48.74325" lon="2.55864">
        <ele>139.37</ele>
        <time>2018-10-14T08:45:47Z</time>
      </trkpt>
      <trkpt lat="48.74328" lon="2.55862">
        <ele>139.363</ele>
        <time>2018-10-14T08:45:48Z</time>
      </trkpt>
      <trkpt lat="48.74334" lon="2.55856">
        <ele>139.339</ele>
        <time>2018-10-14T08:45:52Z</time>
      </trkpt>
      <trkpt lat="48.74338" lon="2.55851">
        <ele>139.323</ele>
        <time>2018-10-14T08:45:55Z</time>
      </trkpt>
      <trkpt lat="48.74343" lon="2.55848">
        <ele>139.308</ele>
        <time>2018-10-14T08:45:58Z</time>
      </trkpt>
      <trkpt lat="48.74345" lon="2.55846">
        <ele>139.298</ele>
        <time>2018-10-14T08:46:00Z</time>
      </trkpt>
      <trkpt lat="48.74347" lon="2.55845">
        <ele>139.288</ele>
        <time>2018-10-14T08:46:02Z</time>
      </trkpt>
      <trkpt lat="48.7435" lon="2.55843">
        <ele>139.274</ele>
        <time>2018-10-14T08:46:05Z</time>
      </trkpt>
      <trkpt lat="48.74355" lon="2.55842">
        <ele>139.259</ele>
        <time>2018-10-14T08:46:09Z</time>
      </trkpt>
      <trkpt lat="48.7436" lon="2.5584">
        <ele>139.249</ele>
        <time>2018-10-14T08:46:12Z</time>
      </trkpt>
      <trkpt lat="48.74364" lon="2.55838">
        <ele>139.241</ele>
        <time>2018-10-14T08:46:15Z</time>
      </trkpt>
      <trkpt lat="48.74369" lon="2.55835">
        <ele>139.227</ele>
        <time>2018-10-14T08:46:20Z</time>
      </trkpt>
      <trkpt lat="48.74373" lon="2.55833">
        <ele>139.216</ele>
        <time>2018-10-14T08:46:23Z</time>
      </trkpt>
      <trkpt lat="48.74378" lon="2.55831">
        <ele>139.202</ele>
        <time>2018-10-14T08:46:26Z</time>
      </trkpt>
      <trkpt lat="48.74382" lon="2.55831">
        <ele>139.192</ele>
        <time>2018-10-14T08:46:28Z</time>
      </trkpt>
      <trkpt lat="48.74384" lon="2.5583">
        <ele>139.181</ele>
        <time>2018-10-14T08:46:30Z</time>
      </trkpt>
      <trkpt lat="48.74389" lon="2.55828">
        <ele>139.155</ele>
        <time>2018-10-14T08:46:34Z</time>
      </trkpt>
      <trkpt lat="48.74392" lon="2.55827">
        <ele>139.141</ele>
        <time>2018-10-14T08:46:36Z</time>
      </trkpt>
      <trkpt lat="48.74397" lon="2.55825">
        <ele>139.114</ele>
        <time>2018-10-14T08:46:40Z</time>
      </trkpt>
      <trkpt lat="48.74401" lon="2.55824">
        <ele>139.093</ele>
        <time>2018-10-14T08:46:43Z</time>
      </trkpt>
      <trkpt lat="48.74406" lon="2.55824">
        <ele>139.071</ele>
        <time>2018-10-14T08:46:46Z</time>
      </trkpt>
      <trkpt lat="48.74412" lon="2.55825">
        <ele>139.039</ele>
        <time>2018-10-14T08:46:50Z</time>
      </trkpt>
      <trkpt lat="48.74415" lon="2.55826">
        <ele>139.015</ele>
        <time>2018-10-14T08:46:53Z</time>
      </trkpt>
      <trkpt lat="48.7442" lon="2.55829">
        <ele>138.987</ele>
        <time>2018-10-14T08:46:57Z</time>
      </trkpt>
      <trkpt lat="48.74423" lon="2.55831">
        <ele>138.975</ele>
        <time>2018-10-14T08:46:59Z</time>
      </trkpt>
      <trkpt lat="48.74428" lon="2.55834">
        <ele>138.957</ele>
        <time>2018-10-14T08:47:02Z</time>
      </trkpt>
      <trkpt lat="48.74431" lon="2.55836">
        <ele>138.947</ele>
        <time>2018-10-14T08:47:04Z</time>
      </trkpt>
      <trkpt lat="48.74434" lon="2.55838">
        <ele>138.932</ele>
        <time>2018-10-14T08:47:07Z</time>
      </trkpt>
      <trkpt lat="48.74436" lon="2.5584">
        <ele>138.923</ele>
        <time>2018-10-14T08:47:09Z</time>
      </trkpt>
      <trkpt lat="48.74439" lon="2.55841">
        <ele>138.914</ele>
        <time>2018-10-14T08:47:11Z</time>
      </trkpt>
      <trkpt lat="48.74443" lon="2.55845">
        <ele>138.902</ele>
        <time>2018-10-14T08:47:14Z</time>
      </trkpt>
      <trkpt lat="48.74446" lon="2.55847">
        <ele>138.894</ele>
        <time>2018-10-14T08:47:16Z</time>
      </trkpt>
      <trkpt lat="48.74448" lon="2.55849">
        <ele>138.886</ele>
        <time>2018-10-14T08:47:18Z</time>
      </trkpt>
      <trkpt lat="48.74451" lon="2.55852">
        <ele>138.878</ele>
        <time>2018-10-14T08:47:20Z</time>
      </trkpt>
      <trkpt lat="48.74455" lon="2.55856">
        <ele>138.868</ele>
        <time>2018-10-14T08:47:23Z</time>
      </trkpt>
      <trkpt lat="48.74459" lon="2.55861">
        <ele>138.857</ele>
        <time>2018-10-14T08:47:27Z</time>
      </trkpt>
      <trkpt lat="48.74464" lon="2.55867">
        <ele>138.847</ele>
        <time>2018-10-14T08:47:32Z</time>
      </trkpt>
      <trkpt lat="48.74467" lon="2.5587">
        <ele>138.842</ele>
        <time>2018-10-14T08:47:34Z</time>
      </trkpt>
      <trkpt lat="48.74469" lon="2.55873">
        <ele>138.837</ele>
        <time>2018-10-14T08:47:36Z</time>
      </trkpt>
      <trkpt lat="48.74471" lon="2.55876">
        <ele>138.831</ele>
        <time>2018-10-14T08:47:38Z</time>
      </trkpt>
      <trkpt lat="48.74474" lon="2.55882">
        <ele>138.823</ele>
        <time>2018-10-14T08:47:41Z</time>
      </trkpt>
      <trkpt lat="48.74477" lon="2.55887">
        <ele>138.817</ele>
        <time>2018-10-14T08:47:44Z</time>
      </trkpt>
      <trkpt lat="48.74481" lon="2.55893">
        <ele>138.808</ele>
        <time>2018-10-14T08:47:48Z</time>
      </trkpt>
      <trkpt lat="48.74483" lon="2.55895">
        <ele>138.803</ele>
        <time>2018-10-14T08:47:50Z</time>
      </trkpt>
      <trkpt lat="48.74488" lon="2.55904">
        <ele>138.783</ele>
        <time>2018-10-14T08:47:56Z</time>
      </trkpt>
      <trkpt lat="48.74492" lon="2.55908">
        <ele>138.771</ele>
        <time>2018-10-14T08:47:59Z</time>
      </trkpt>
      <trkpt lat="48.74495" lon="2.55911">
        <ele>138.763</ele>
        <time>2018-10-14T08:48:01Z</time>
      </trkpt>
      <trkpt lat="48.74497" lon="2.55914">
        <ele>138.755</ele>
        <time>2018-10-14T08:48:03Z</time>
      </trkpt>
      <trkpt lat="48.74502" lon="2.5592">
        <ele>138.741</ele>
        <time>2018-10-14T08:48:07Z</time>
      </trkpt>
      <trkpt lat="48.74506" lon="2.55923">
        <ele>138.729</ele>
        <time>2018-10-14T08:48:11Z</time>
      </trkpt>
      <trkpt lat="48.7451" lon="2.55928">
        <ele>138.718</ele>
        <time>2018-10-14T08:48:15Z</time>
      </trkpt>
      <trkpt lat="48.74512" lon="2.55931">
        <ele>138.713</ele>
        <time>2018-10-14T08:48:17Z</time>
      </trkpt>
      <trkpt lat="48.74515" lon="2.55934">
        <ele>138.709</ele>
        <time>2018-10-14T08:48:19Z</time>
      </trkpt>
      <trkpt lat="48.74517" lon="2.55936">
        <ele>138.704</ele>
        <time>2018-10-14T08:48:21Z</time>
      </trkpt>
      <trkpt lat="48.74519" lon="2.55938">
        <ele>138.699</ele>
        <time>2018-10-14T08:48:23Z</time>
      </trkpt>
      <trkpt lat="48.74524" lon="2.55942">
        <ele>138.682</ele>
        <time>2018-10-14T08:48:30Z</time>
      </trkpt>
      <trkpt lat="48.7453" lon="2.55944">
        <ele>138.665</ele>
        <time>2018-10-14T08:48:36Z</time>
      </trkpt>
      <trkpt lat="48.74533" lon="2.55939">
        <ele>138.654</ele>
        <time>2018-10-14T08:48:39Z</time>
      </trkpt>
      <trkpt lat="48.74535" lon="2.55935">
        <ele>138.646</ele>
        <time>2018-10-14T08:48:41Z</time>
      </trkpt>
      <trkpt lat="48.74538" lon="2.5593">
        <ele>138.631</ele>
        <time>2018-10-14T08:48:44Z</time>
      </trkpt>
      <trkpt lat="48.74542" lon="2.55925">
        <ele>138.611</ele>
        <time>2018-10-14T08:48:48Z</time>
      </trkpt>
      <trkpt lat="48.74545" lon="2.55918">
        <ele>138.589</ele>
        <time>2018-10-14T08:48:52Z</time>
      </trkpt>
      <trkpt lat="48.74548" lon="2.55912">
        <ele>138.565</ele>
        <time>2018-10-14T08:48:56Z</time>
      </trkpt>
      <trkpt lat="48.74552" lon="2.55906">
        <ele>138.541</ele>
        <time>2018-10-14T08:49:00Z</time>
      </trkpt>
      <trkpt lat="48.74555" lon="2.55901">
        <ele>138.519</ele>
        <time>2018-10-14T08:49:04Z</time>
      </trkpt>
      <trkpt lat="48.74557" lon="2.55899">
        <ele>138.51</ele>
        <time>2018-10-14T08:49:06Z</time>
      </trkpt>
      <trkpt lat="48.74559" lon="2.55895">
        <ele>138.495</ele>
        <time>2018-10-14T08:49:09Z</time>
      </trkpt>
      <trkpt lat="48.74562" lon="2.55886">
        <ele>138.477</ele>
        <time>2018-10-14T08:49:13Z</time>
      </trkpt>
      <trkpt lat="48.74564" lon="2.55881">
        <ele>138.468</ele>
        <time>2018-10-14T08:49:15Z</time>
      </trkpt>
      <trkpt lat="48.74566" lon="2.55877">
        <ele>138.46</ele>
        <time>2018-10-14T08:49:17Z</time>
      </trkpt>
      <trkpt lat="48.74569" lon="2.55872">
        <ele>138.442</ele>
        <time>2018-10-14T08:49:21Z</time>
      </trkpt>
      <trkpt lat="48.74572" lon="2.55867">
        <ele>138.424</ele>
        <time>2018-10-14T08:49:25Z</time>
      </trkpt>
      <trkpt lat="48.74574" lon="2.55864">
        <ele>138.414</ele>
        <time>2018-10-14T08:49:27Z</time>
      </trkpt>
      <trkpt lat="48.74576" lon="2.55861">
        <ele>138.405</ele>
        <time>2018-10-14T08:49:29Z</time>
      </trkpt>
      <trkpt lat="48.74578" lon="2.55858">
        <ele>138.397</ele>
        <time>2018-10-14T08:49:31Z</time>
      </trkpt>
      <trkpt lat="48.74581" lon="2.55854">
        <ele>138.377</ele>
        <time>2018-10-14T08:49:36Z</time>
      </trkpt>
      <trkpt lat="48.74583" lon="2.55847">
        <ele>138.358</ele>
        <time>2018-10-14T08:49:40Z</time>
      </trkpt>
      <trkpt lat="48.74587" lon="2.5584">
        <ele>138.343</ele>
        <time>2018-10-14T08:49:43Z</time>
      </trkpt>
      <trkpt lat="48.7459" lon="2.55835">
        <ele>138.329</ele>
        <time>2018-10-14T08:49:46Z</time>
      </trkpt>
      <trkpt lat="48.74592" lon="2.55832">
        <ele>138.316</ele>
        <time>2018-10-14T08:49:49Z</time>
      </trkpt>
      <trkpt lat="48.74595" lon="2.55825">
        <ele>138.297</ele>
        <time>2018-10-14T08:49:53Z</time>
      </trkpt>
      <trkpt lat="48.74599" lon="2.55819">
        <ele>138.28</ele>
        <time>2018-10-14T08:49:56Z</time>
      </trkpt>
      <trkpt lat="48.74604" lon="2.55815">
        <ele>138.26</ele>
        <time>2018-10-14T08:49:59Z</time>
      </trkpt>
      <trkpt lat="48.74607" lon="2.55807">
        <ele>138.218</ele>
        <time>2018-10-14T08:50:05Z</time>
      </trkpt>
      <trkpt lat="48.74608" lon="2.55803">
        <ele>138.204</ele>
        <time>2018-10-14T08:50:07Z</time>
      </trkpt>
      <trkpt lat="48.7461" lon="2.55799">
        <ele>138.184</ele>
        <time>2018-10-14T08:50:10Z</time>
      </trkpt>
      <trkpt lat="48.7461" lon="2.55799">
        <ele>138.184</ele>
        <time>2018-10-14T08:50:17Z</time>
      </trkpt>
      <trkpt lat="48.7461" lon="2.55799">
        <ele>98</ele>
        <time>2018-10-14T08:50:17Z</time>
      </trkpt>
      <trkpt lat="48.7461" lon="2.55799">
        <ele>98</ele>
        <time>2018-10-14T08:50:26Z</time>
      </trkpt>
      <trkpt lat="48.74616" lon="2.55784">
        <ele>138.087</ele>
        <time>2018-10-14T08:50:26Z</time>
      </trkpt>
      <trkpt lat="48.7462" lon="2.55776">
        <ele>138.064</ele>
        <time>2018-10-14T08:50:30Z</time>
      </trkpt>
      <trkpt lat="48.74622" lon="2.5577">
        <ele>138.042</ele>
        <time>2018-10-14T08:50:34Z</time>
      </trkpt>
      <trkpt lat="48.74625" lon="2.55764">
        <ele>138.021</ele>
        <time>2018-10-14T08:50:38Z</time>
      </trkpt>
      <trkpt lat="48.74629" lon="2.55758">
        <ele>137.998</ele>
        <time>2018-10-14T08:50:42Z</time>
      </trkpt>
      <trkpt lat="48.74631" lon="2.55752">
        <ele>137.98</ele>
        <time>2018-10-14T08:50:45Z</time>
      </trkpt>
      <trkpt lat="48.74634" lon="2.55744">
        <ele>137.953</ele>
        <time>2018-10-14T08:50:49Z</time>
      </trkpt>
      <trkpt lat="48.74638" lon="2.55739">
        <ele>137.923</ele>
        <time>2018-10-14T08:50:53Z</time>
      </trkpt>
      <trkpt lat="48.74642" lon="2.55734">
        <ele>137.9</ele>
        <time>2018-10-14T08:50:56Z</time>
      </trkpt>
      <trkpt lat="48.74646" lon="2.5573">
        <ele>137.859</ele>
        <time>2018-10-14T08:51:01Z</time>
      </trkpt>
      <trkpt lat="48.74649" lon="2.55727">
        <ele>137.843</ele>
        <time>2018-10-14T08:51:03Z</time>
      </trkpt>
      <trkpt lat="48.74653" lon="2.55722">
        <ele>137.822</ele>
        <time>2018-10-14T08:51:06Z</time>
      </trkpt>
      <trkpt lat="48.74656" lon="2.55717">
        <ele>137.8</ele>
        <time>2018-10-14T08:51:09Z</time>
      </trkpt>
      <trkpt lat="48.74659" lon="2.55712">
        <ele>137.764</ele>
        <time>2018-10-14T08:51:14Z</time>
      </trkpt>
      <trkpt lat="48.74662" lon="2.55707">
        <ele>137.748</ele>
        <time>2018-10-14T08:51:16Z</time>
      </trkpt>
      <trkpt lat="48.74665" lon="2.55703">
        <ele>137.732</ele>
        <time>2018-10-14T08:51:18Z</time>
      </trkpt>
      <trkpt lat="48.74667" lon="2.557">
        <ele>137.724</ele>
        <time>2018-10-14T08:51:19Z</time>
      </trkpt>
      <trkpt lat="48.74669" lon="2.55694">
        <ele>137.693</ele>
        <time>2018-10-14T08:51:23Z</time>
      </trkpt>
      <trkpt lat="48.74669" lon="2.55694">
        <ele>97</ele>
        <time>2018-10-14T08:51:28Z</time>
      </trkpt>
      <trkpt lat="48.74669" lon="2.55694">
        <ele>97</ele>
        <time>2018-10-14T08:51:34Z</time>
      </trkpt>
      <trkpt lat="48.74677" lon="2.55686">
        <ele>137.61</ele>
        <time>2018-10-14T08:51:34Z</time>
      </trkpt>
      <trkpt lat="48.74681" lon="2.55681">
        <ele>137.566</ele>
        <time>2018-10-14T08:51:40Z</time>
      </trkpt>
      <trkpt lat="48.74684" lon="2.55678">
        <ele>137.547</ele>
        <time>2018-10-14T08:51:43Z</time>
      </trkpt>
      <trkpt lat="48.74686" lon="2.55671">
        <ele>137.524</ele>
        <time>2018-10-14T08:51:47Z</time>
      </trkpt>
      <trkpt lat="48.74688" lon="2.55664">
        <ele>137.503</ele>
        <time>2018-10-14T08:51:51Z</time>
      </trkpt>
      <trkpt lat="48.74689" lon="2.5566">
        <ele>137.482</ele>
        <time>2018-10-14T08:51:55Z</time>
      </trkpt>
      <trkpt lat="48.7469" lon="2.55657">
        <ele>137.466</ele>
        <time>2018-10-14T08:51:58Z</time>
      </trkpt>
      <trkpt lat="48.74693" lon="2.55651">
        <ele>137.442</ele>
        <time>2018-10-14T08:52:02Z</time>
      </trkpt>
      <trkpt lat="48.74695" lon="2.55648">
        <ele>137.429</ele>
        <time>2018-10-14T08:52:04Z</time>
      </trkpt>
      <trkpt lat="48.74698" lon="2.55645">
        <ele>137.408</ele>
        <time>2018-10-14T08:52:07Z</time>
      </trkpt>
      <trkpt lat="48.747" lon="2.55642">
        <ele>137.394</ele>
        <time>2018-10-14T08:52:09Z</time>
      </trkpt>
      <trkpt lat="48.74702" lon="2.55639">
        <ele>137.38</ele>
        <time>2018-10-14T08:52:11Z</time>
      </trkpt>
      <trkpt lat="48.74706" lon="2.55633">
        <ele>137.36</ele>
        <time>2018-10-14T08:52:14Z</time>
      </trkpt>
      <trkpt lat="48.74708" lon="2.55626">
        <ele>137.338</ele>
        <time>2018-10-14T08:52:17Z</time>
      </trkpt>
      <trkpt lat="48.74712" lon="2.5562">
        <ele>137.307</ele>
        <time>2018-10-14T08:52:21Z</time>
      </trkpt>
      <trkpt lat="48.74716" lon="2.55616">
        <ele>137.264</ele>
        <time>2018-10-14T08:52:26Z</time>
      </trkpt>
      <trkpt lat="48.74719" lon="2.55614">
        <ele>137.236</ele>
        <time>2018-10-14T08:52:29Z</time>
      </trkpt>
      <trkpt lat="48.74721" lon="2.55612">
        <ele>137.218</ele>
        <time>2018-10-14T08:52:31Z</time>
      </trkpt>
      <trkpt lat="48.74724" lon="2.55606">
        <ele>137.183</ele>
        <time>2018-10-14T08:52:35Z</time>
      </trkpt>
      <trkpt lat="48.74729" lon="2.556">
        <ele>137.154</ele>
        <time>2018-10-14T08:52:38Z</time>
      </trkpt>
      <trkpt lat="48.74732" lon="2.55593">
        <ele>137.122</ele>
        <time>2018-10-14T08:52:41Z</time>
      </trkpt>
      <trkpt lat="48.74733" lon="2.5559">
        <ele>137.101</ele>
        <time>2018-10-14T08:52:43Z</time>
      </trkpt>
      <trkpt lat="48.74738" lon="2.55586">
        <ele>137.06</ele>
        <time>2018-10-14T08:52:47Z</time>
      </trkpt>
      <trkpt lat="48.74742" lon="2.5558">
        <ele>137.02</ele>
        <time>2018-10-14T08:52:51Z</time>
      </trkpt>
      <trkpt lat="48.74745" lon="2.55574">
        <ele>136.989</ele>
        <time>2018-10-14T08:52:54Z</time>
      </trkpt>
      <trkpt lat="48.74748" lon="2.55567">
        <ele>136.944</ele>
        <time>2018-10-14T08:52:58Z</time>
      </trkpt>
      <trkpt lat="48.74751" lon="2.55561">
        <ele>136.909</ele>
        <time>2018-10-14T08:53:01Z</time>
      </trkpt>
      <trkpt lat="48.74752" lon="2.55557">
        <ele>136.885</ele>
        <time>2018-10-14T08:53:03Z</time>
      </trkpt>
      <trkpt lat="48.74754" lon="2.55553">
        <ele>136.861</ele>
        <time>2018-10-14T08:53:05Z</time>
      </trkpt>
      <trkpt lat="48.74756" lon="2.55546">
        <ele>136.799</ele>
        <time>2018-10-14T08:53:10Z</time>
      </trkpt>
      <trkpt lat="48.74761" lon="2.55536">
        <ele>136.72</ele>
        <time>2018-10-14T08:53:16Z</time>
      </trkpt>
      <trkpt lat="48.74764" lon="2.55529">
        <ele>136.664</ele>
        <time>2018-10-14T08:53:20Z</time>
      </trkpt>
      <trkpt lat="48.74768" lon="2.55523">
        <ele>136.593</ele>
        <time>2018-10-14T08:53:25Z</time>
      </trkpt>
      <trkpt lat="48.7477" lon="2.5552">
        <ele>136.565</ele>
        <time>2018-10-14T08:53:27Z</time>
      </trkpt>
      <trkpt lat="48.74772" lon="2.55517">
        <ele>136.537</ele>
        <time>2018-10-14T08:53:29Z</time>
      </trkpt>
      <trkpt lat="48.74774" lon="2.55514">
        <ele>136.51</ele>
        <time>2018-10-14T08:53:31Z</time>
      </trkpt>
      <trkpt lat="48.74779" lon="2.55512">
        <ele>136.439</ele>
        <time>2018-10-14T08:53:37Z</time>
      </trkpt>
      <trkpt lat="48.74783" lon="2.55507">
        <ele>136.398</ele>
        <time>2018-10-14T08:53:40Z</time>
      </trkpt>
      <trkpt lat="48.74787" lon="2.55505">
        <ele>136.331</ele>
        <time>2018-10-14T08:53:45Z</time>
      </trkpt>
      <trkpt lat="48.74789" lon="2.55496">
        <ele>136.282</ele>
        <time>2018-10-14T08:53:49Z</time>
      </trkpt>
      <trkpt lat="48.74792" lon="2.5549">
        <ele>136.238</ele>
        <time>2018-10-14T08:53:53Z</time>
      </trkpt>
      <trkpt lat="48.74795" lon="2.55483">
        <ele>136.187</ele>
        <time>2018-10-14T08:53:58Z</time>
      </trkpt>
      <trkpt lat="48.74798" lon="2.55478">
        <ele>136.141</ele>
        <time>2018-10-14T08:54:03Z</time>
      </trkpt>
      <trkpt lat="48.74801" lon="2.55474">
        <ele>136.106</ele>
        <time>2018-10-14T08:54:07Z</time>
      </trkpt>
      <trkpt lat="48.74804" lon="2.55467">
        <ele>136.072</ele>
        <time>2018-10-14T08:54:11Z</time>
      </trkpt>
      <trkpt lat="48.74805" lon="2.55464">
        <ele>136.049</ele>
        <time>2018-10-14T08:54:14Z</time>
      </trkpt>
      <trkpt lat="48.74807" lon="2.55457">
        <ele>136.008</ele>
        <time>2018-10-14T08:54:20Z</time>
      </trkpt>
      <trkpt lat="48.74811" lon="2.55453">
        <ele>135.982</ele>
        <time>2018-10-14T08:54:24Z</time>
      </trkpt>
      <trkpt lat="48.74814" lon="2.55447">
        <ele>135.956</ele>
        <time>2018-10-14T08:54:28Z</time>
      </trkpt>
      <trkpt lat="48.74816" lon="2.55444">
        <ele>135.938</ele>
        <time>2018-10-14T08:54:31Z</time>
      </trkpt>
      <trkpt lat="48.74818" lon="2.55439">
        <ele>135.921</ele>
        <time>2018-10-14T08:54:34Z</time>
      </trkpt>
      <trkpt lat="48.7482" lon="2.55433">
        <ele>135.904</ele>
        <time>2018-10-14T08:54:37Z</time>
      </trkpt>
      <trkpt lat="48.74821" lon="2.55429">
        <ele>135.892</ele>
        <time>2018-10-14T08:54:39Z</time>
      </trkpt>
      <trkpt lat="48.74824" lon="2.55424">
        <ele>135.867</ele>
        <time>2018-10-14T08:54:43Z</time>
      </trkpt>
      <trkpt lat="48.74827" lon="2.55419">
        <ele>135.835</ele>
        <time>2018-10-14T08:54:49Z</time>
      </trkpt>
      <trkpt lat="48.74827" lon="2.55419">
        <ele>135.835</ele>
        <time>2018-10-14T08:57:55Z</time>
      </trkpt>
      <trkpt lat="48.74844" lon="2.55399">
        <ele>135.63</ele>
        <time>2018-10-14T08:57:59Z</time>
      </trkpt>
      <trkpt lat="48.74846" lon="2.55396">
        <ele>135.625</ele>
        <time>2018-10-14T08:58:01Z</time>
      </trkpt>
      <trkpt lat="48.74849" lon="2.55389">
        <ele>135.616</ele>
        <time>2018-10-14T08:58:05Z</time>
      </trkpt>
      <trkpt lat="48.74853" lon="2.55382">
        <ele>135.611</ele>
        <time>2018-10-14T08:58:08Z</time>
      </trkpt>
      <trkpt lat="48.74855" lon="2.55379">
        <ele>135.608</ele>
        <time>2018-10-14T08:58:10Z</time>
      </trkpt>
      <trkpt lat="48.74857" lon="2.55376">
        <ele>135.606</ele>
        <time>2018-10-14T08:58:12Z</time>
      </trkpt>
      <trkpt lat="48.74859" lon="2.5537">
        <ele>135.598</ele>
        <time>2018-10-14T08:58:17Z</time>
      </trkpt>
      <trkpt lat="48.74863" lon="2.55363">
        <ele>135.594</ele>
        <time>2018-10-14T08:58:21Z</time>
      </trkpt>
      <trkpt lat="48.74866" lon="2.55357">
        <ele>135.59</ele>
        <time>2018-10-14T08:58:26Z</time>
      </trkpt>
      <trkpt lat="48.74868" lon="2.55353">
        <ele>135.589</ele>
        <time>2018-10-14T08:58:29Z</time>
      </trkpt>
      <trkpt lat="48.74872" lon="2.55347">
        <ele>135.586</ele>
        <time>2018-10-14T08:58:34Z</time>
      </trkpt>
      <trkpt lat="48.74875" lon="2.55342">
        <ele>135.582</ele>
        <time>2018-10-14T08:58:37Z</time>
      </trkpt>
      <trkpt lat="48.74878" lon="2.55336">
        <ele>135.579</ele>
        <time>2018-10-14T08:58:40Z</time>
      </trkpt>
      <trkpt lat="48.74881" lon="2.55329">
        <ele>135.574</ele>
        <time>2018-10-14T08:58:43Z</time>
      </trkpt>
      <trkpt lat="48.74885" lon="2.55324">
        <ele>135.568</ele>
        <time>2018-10-14T08:58:47Z</time>
      </trkpt>
      <trkpt lat="48.74887" lon="2.55316">
        <ele>135.562</ele>
        <time>2018-10-14T08:58:52Z</time>
      </trkpt>
      <trkpt lat="48.74888" lon="2.55312">
        <ele>135.559</ele>
        <time>2018-10-14T08:58:54Z</time>
      </trkpt>
      <trkpt lat="48.74891" lon="2.55306">
        <ele>135.553</ele>
        <time>2018-10-14T08:58:57Z</time>
      </trkpt>
      <trkpt lat="48.74894" lon="2.55303">
        <ele>135.548</ele>
        <time>2018-10-14T08:58:59Z</time>
      </trkpt>
      <trkpt lat="48.74898" lon="2.55298">
        <ele>135.54</ele>
        <time>2018-10-14T08:59:02Z</time>
      </trkpt>
      <trkpt lat="48.74901" lon="2.55293">
        <ele>135.53</ele>
        <time>2018-10-14T08:59:06Z</time>
      </trkpt>
      <trkpt lat="48.74903" lon="2.55289">
        <ele>135.526</ele>
        <time>2018-10-14T08:59:08Z</time>
      </trkpt>
      <trkpt lat="48.74905" lon="2.55286">
        <ele>135.521</ele>
        <time>2018-10-14T08:59:10Z</time>
      </trkpt>
      <trkpt lat="48.74908" lon="2.55282">
        <ele>135.512</ele>
        <time>2018-10-14T08:59:14Z</time>
      </trkpt>
      <trkpt lat="48.74911" lon="2.55277">
        <ele>135.504</ele>
        <time>2018-10-14T08:59:17Z</time>
      </trkpt>
      <trkpt lat="48.74914" lon="2.55272">
        <ele>135.499</ele>
        <time>2018-10-14T08:59:20Z</time>
      </trkpt>
      <trkpt lat="48.74915" lon="2.55264">
        <ele>135.493</ele>
        <time>2018-10-14T08:59:24Z</time>
      </trkpt>
      <trkpt lat="48.74914" lon="2.55258">
        <ele>135.486</ele>
        <time>2018-10-14T08:59:28Z</time>
      </trkpt>
      <trkpt lat="48.74915" lon="2.5525">
        <ele>135.479</ele>
        <time>2018-10-14T08:59:32Z</time>
      </trkpt>
      <trkpt lat="48.74916" lon="2.55244">
        <ele>135.474</ele>
        <time>2018-10-14T08:59:35Z</time>
      </trkpt>
      <trkpt lat="48.74918" lon="2.55236">
        <ele>135.468</ele>
        <time>2018-10-14T08:59:39Z</time>
      </trkpt>
      <trkpt lat="48.7492" lon="2.55231">
        <ele>135.465</ele>
        <time>2018-10-14T08:59:41Z</time>
      </trkpt>
      <trkpt lat="48.74921" lon="2.55226">
        <ele>135.463</ele>
        <time>2018-10-14T08:59:43Z</time>
      </trkpt>
      <trkpt lat="48.74922" lon="2.55222">
        <ele>135.461</ele>
        <time>2018-10-14T08:59:45Z</time>
      </trkpt>
      <trkpt lat="48.74924" lon="2.55218">
        <ele>135.459</ele>
        <time>2018-10-14T08:59:47Z</time>
      </trkpt>
      <trkpt lat="48.74927" lon="2.55213">
        <ele>135.456</ele>
        <time>2018-10-14T08:59:50Z</time>
      </trkpt>
      <trkpt lat="48.74927" lon="2.55206">
        <ele>135.453</ele>
        <time>2018-10-14T08:59:53Z</time>
      </trkpt>
      <trkpt lat="48.74926" lon="2.55201">
        <ele>135.452</ele>
        <time>2018-10-14T08:59:55Z</time>
      </trkpt>
      <trkpt lat="48.74926" lon="2.55197">
        <ele>135.449</ele>
        <time>2018-10-14T08:59:57Z</time>
      </trkpt>
      <trkpt lat="48.74926" lon="2.55193">
        <ele>135.446</ele>
        <time>2018-10-14T08:59:59Z</time>
      </trkpt>
      <trkpt lat="48.74929" lon="2.55185">
        <ele>135.442</ele>
        <time>2018-10-14T09:00:03Z</time>
      </trkpt>
      <trkpt lat="48.74932" lon="2.55178">
        <ele>135.437</ele>
        <time>2018-10-14T09:00:07Z</time>
      </trkpt>
      <trkpt lat="48.74934" lon="2.5517">
        <ele>135.43</ele>
        <time>2018-10-14T09:00:11Z</time>
      </trkpt>
      <trkpt lat="48.74935" lon="2.55164">
        <ele>135.424</ele>
        <time>2018-10-14T09:00:14Z</time>
      </trkpt>
      <trkpt lat="48.74938" lon="2.55157">
        <ele>135.415</ele>
        <time>2018-10-14T09:00:18Z</time>
      </trkpt>
      <trkpt lat="48.7494" lon="2.55153">
        <ele>135.409</ele>
        <time>2018-10-14T09:00:20Z</time>
      </trkpt>
      <trkpt lat="48.74942" lon="2.55148">
        <ele>135.401</ele>
        <time>2018-10-14T09:00:23Z</time>
      </trkpt>
      <trkpt lat="48.74945" lon="2.5514">
        <ele>135.388</ele>
        <time>2018-10-14T09:00:27Z</time>
      </trkpt>
      <trkpt lat="48.74947" lon="2.55132">
        <ele>135.378</ele>
        <time>2018-10-14T09:00:30Z</time>
      </trkpt>
      <trkpt lat="48.74948" lon="2.55129">
        <ele>135.371</ele>
        <time>2018-10-14T09:00:32Z</time>
      </trkpt>
      <trkpt lat="48.7495" lon="2.55125">
        <ele>135.362</ele>
        <time>2018-10-14T09:00:35Z</time>
      </trkpt>
      <trkpt lat="48.74952" lon="2.55119">
        <ele>135.354</ele>
        <time>2018-10-14T09:00:38Z</time>
      </trkpt>
      <trkpt lat="48.74954" lon="2.55111">
        <ele>135.345</ele>
        <time>2018-10-14T09:00:41Z</time>
      </trkpt>
      <trkpt lat="48.74955" lon="2.55105">
        <ele>135.338</ele>
        <time>2018-10-14T09:00:43Z</time>
      </trkpt>
      <trkpt lat="48.74957" lon="2.55098">
        <ele>135.329</ele>
        <time>2018-10-14T09:00:46Z</time>
      </trkpt>
      <trkpt lat="48.74958" lon="2.55094">
        <ele>135.324</ele>
        <time>2018-10-14T09:00:48Z</time>
      </trkpt>
      <trkpt lat="48.7496" lon="2.55089">
        <ele>135.316</ele>
        <time>2018-10-14T09:00:51Z</time>
      </trkpt>
      <trkpt lat="48.74961" lon="2.55081">
        <ele>135.309</ele>
        <time>2018-10-14T09:00:54Z</time>
      </trkpt>
      <trkpt lat="48.74965" lon="2.55076">
        <ele>135.299</ele>
        <time>2018-10-14T09:00:58Z</time>
      </trkpt>
      <trkpt lat="48.74968" lon="2.55071">
        <ele>135.29</ele>
        <time>2018-10-14T09:01:02Z</time>
      </trkpt>
      <trkpt lat="48.7497" lon="2.55064">
        <ele>135.278</ele>
        <time>2018-10-14T09:01:06Z</time>
      </trkpt>
      <trkpt lat="48.7497" lon="2.55057">
        <ele>135.27</ele>
        <time>2018-10-14T09:01:09Z</time>
      </trkpt>
      <trkpt lat="48.74971" lon="2.55053">
        <ele>135.261</ele>
        <time>2018-10-14T09:01:12Z</time>
      </trkpt>
      <trkpt lat="48.74974" lon="2.55048">
        <ele>135.248</ele>
        <time>2018-10-14T09:01:16Z</time>
      </trkpt>
      <trkpt lat="48.74976" lon="2.55041">
        <ele>135.238</ele>
        <time>2018-10-14T09:01:19Z</time>
      </trkpt>
      <trkpt lat="48.74977" lon="2.55032">
        <ele>135.229</ele>
        <time>2018-10-14T09:01:22Z</time>
      </trkpt>
      <trkpt lat="48.74976" lon="2.55025">
        <ele>135.221</ele>
        <time>2018-10-14T09:01:26Z</time>
      </trkpt>
      <trkpt lat="48.74978" lon="2.55017">
        <ele>135.212</ele>
        <time>2018-10-14T09:01:32Z</time>
      </trkpt>
      <trkpt lat="48.74981" lon="2.55011">
        <ele>135.204</ele>
        <time>2018-10-14T09:01:36Z</time>
      </trkpt>
      <trkpt lat="48.74983" lon="2.55007">
        <ele>135.199</ele>
        <time>2018-10-14T09:01:39Z</time>
      </trkpt>
      <trkpt lat="48.74985" lon="2.55">
        <ele>135.193</ele>
        <time>2018-10-14T09:01:42Z</time>
      </trkpt>
      <trkpt lat="48.74986" lon="2.54992">
        <ele>135.187</ele>
        <time>2018-10-14T09:01:46Z</time>
      </trkpt>
      <trkpt lat="48.74989" lon="2.54987">
        <ele>135.184</ele>
        <time>2018-10-14T09:01:49Z</time>
      </trkpt>
      <trkpt lat="48.74993" lon="2.54981">
        <ele>135.182</ele>
        <time>2018-10-14T09:01:53Z</time>
      </trkpt>
      <trkpt lat="48.74996" lon="2.54974">
        <ele>135.183</ele>
        <time>2018-10-14T09:01:56Z</time>
      </trkpt>
      <trkpt lat="48.74998" lon="2.54967">
        <ele>135.186</ele>
        <time>2018-10-14T09:01:59Z</time>
      </trkpt>
      <trkpt lat="48.75" lon="2.54961">
        <ele>135.189</ele>
        <time>2018-10-14T09:02:02Z</time>
      </trkpt>
      <trkpt lat="48.75" lon="2.54953">
        <ele>135.194</ele>
        <time>2018-10-14T09:02:06Z</time>
      </trkpt>
      <trkpt lat="48.75003" lon="2.54946">
        <ele>135.2</ele>
        <time>2018-10-14T09:02:10Z</time>
      </trkpt>
      <trkpt lat="48.75006" lon="2.5494">
        <ele>135.205</ele>
        <time>2018-10-14T09:02:13Z</time>
      </trkpt>
      <trkpt lat="48.75008" lon="2.54933">
        <ele>135.211</ele>
        <time>2018-10-14T09:02:17Z</time>
      </trkpt>
      <trkpt lat="48.75009" lon="2.5493">
        <ele>135.215</ele>
        <time>2018-10-14T09:02:20Z</time>
      </trkpt>
      <trkpt lat="48.75012" lon="2.54923">
        <ele>135.216</ele>
        <time>2018-10-14T09:02:25Z</time>
      </trkpt>
      <trkpt lat="48.75014" lon="2.54917">
        <ele>135.215</ele>
        <time>2018-10-14T09:02:28Z</time>
      </trkpt>
      <trkpt lat="48.75015" lon="2.54912">
        <ele>135.215</ele>
        <time>2018-10-14T09:02:30Z</time>
      </trkpt>
      <trkpt lat="48.75015" lon="2.54904">
        <ele>135.211</ele>
        <time>2018-10-14T09:02:35Z</time>
      </trkpt>
      <trkpt lat="48.75018" lon="2.54898">
        <ele>135.208</ele>
        <time>2018-10-14T09:02:40Z</time>
      </trkpt>
      <trkpt lat="48.75021" lon="2.54893">
        <ele>135.205</ele>
        <time>2018-10-14T09:02:45Z</time>
      </trkpt>
      <trkpt lat="48.75023" lon="2.54889">
        <ele>135.201</ele>
        <time>2018-10-14T09:02:48Z</time>
      </trkpt>
      <trkpt lat="48.75025" lon="2.54881">
        <ele>135.198</ele>
        <time>2018-10-14T09:02:50Z</time>
      </trkpt>
      <trkpt lat="48.75026" lon="2.54875">
        <ele>135.196</ele>
        <time>2018-10-14T09:02:52Z</time>
      </trkpt>
      <trkpt lat="48.75026" lon="2.54867">
        <ele>135.195</ele>
        <time>2018-10-14T09:02:55Z</time>
      </trkpt>
      <trkpt lat="48.75027" lon="2.54864">
        <ele>135.194</ele>
        <time>2018-10-14T09:02:57Z</time>
      </trkpt>
      <trkpt lat="48.75029" lon="2.54855">
        <ele>135.194</ele>
        <time>2018-10-14T09:03:01Z</time>
      </trkpt>
      <trkpt lat="48.75032" lon="2.54849">
        <ele>135.193</ele>
        <time>2018-10-14T09:03:04Z</time>
      </trkpt>
      <trkpt lat="48.75034" lon="2.54843">
        <ele>135.193</ele>
        <time>2018-10-14T09:03:09Z</time>
      </trkpt>
      <trkpt lat="48.75036" lon="2.54836">
        <ele>135.187</ele>
        <time>2018-10-14T09:03:14Z</time>
      </trkpt>
      <trkpt lat="48.75037" lon="2.5483">
        <ele>135.185</ele>
        <time>2018-10-14T09:03:17Z</time>
      </trkpt>
      <trkpt lat="48.75039" lon="2.54824">
        <ele>135.182</ele>
        <time>2018-10-14T09:03:20Z</time>
      </trkpt>
      <trkpt lat="48.75043" lon="2.54817">
        <ele>135.178</ele>
        <time>2018-10-14T09:03:24Z</time>
      </trkpt>
      <trkpt lat="48.75044" lon="2.5481">
        <ele>135.174</ele>
        <time>2018-10-14T09:03:27Z</time>
      </trkpt>
      <trkpt lat="48.75044" lon="2.54806">
        <ele>135.173</ele>
        <time>2018-10-14T09:03:28Z</time>
      </trkpt>
      <trkpt lat="48.75046" lon="2.54801">
        <ele>135.171</ele>
        <time>2018-10-14T09:03:30Z</time>
      </trkpt>
      <trkpt lat="48.75047" lon="2.54797">
        <ele>135.17</ele>
        <time>2018-10-14T09:03:32Z</time>
      </trkpt>
      <trkpt lat="48.7505" lon="2.54791">
        <ele>135.167</ele>
        <time>2018-10-14T09:03:36Z</time>
      </trkpt>
      <trkpt lat="48.75053" lon="2.54784">
        <ele>135.164</ele>
        <time>2018-10-14T09:03:39Z</time>
      </trkpt>
      <trkpt lat="48.75055" lon="2.54778">
        <ele>135.161</ele>
        <time>2018-10-14T09:03:42Z</time>
      </trkpt>
      <trkpt lat="48.75056" lon="2.54774">
        <ele>135.159</ele>
        <time>2018-10-14T09:03:44Z</time>
      </trkpt>
      <trkpt lat="48.75058" lon="2.5477">
        <ele>135.158</ele>
        <time>2018-10-14T09:03:46Z</time>
      </trkpt>
      <trkpt lat="48.75058" lon="2.54762">
        <ele>135.157</ele>
        <time>2018-10-14T09:03:49Z</time>
      </trkpt>
      <trkpt lat="48.75058" lon="2.54756">
        <ele>135.157</ele>
        <time>2018-10-14T09:03:52Z</time>
      </trkpt>
      <trkpt lat="48.7506" lon="2.54748">
        <ele>135.156</ele>
        <time>2018-10-14T09:03:57Z</time>
      </trkpt>
      <trkpt lat="48.75061" lon="2.54745">
        <ele>135.155</ele>
        <time>2018-10-14T09:03:59Z</time>
      </trkpt>
      <trkpt lat="48.75061" lon="2.54737">
        <ele>135.153</ele>
        <time>2018-10-14T09:04:02Z</time>
      </trkpt>
      <trkpt lat="48.75064" lon="2.5473">
        <ele>135.149</ele>
        <time>2018-10-14T09:04:06Z</time>
      </trkpt>
      <trkpt lat="48.75067" lon="2.54721">
        <ele>135.139</ele>
        <time>2018-10-14T09:04:12Z</time>
      </trkpt>
      <trkpt lat="48.75071" lon="2.54715">
        <ele>135.132</ele>
        <time>2018-10-14T09:04:15Z</time>
      </trkpt>
      <trkpt lat="48.75074" lon="2.54709">
        <ele>135.121</ele>
        <time>2018-10-14T09:04:18Z</time>
      </trkpt>
      <trkpt lat="48.75075" lon="2.54702">
        <ele>135.105</ele>
        <time>2018-10-14T09:04:22Z</time>
      </trkpt>
      <trkpt lat="48.75075" lon="2.54696">
        <ele>135.094</ele>
        <time>2018-10-14T09:04:25Z</time>
      </trkpt>
      <trkpt lat="48.75076" lon="2.5469">
        <ele>135.086</ele>
        <time>2018-10-14T09:04:28Z</time>
      </trkpt>
      <trkpt lat="48.75076" lon="2.54686">
        <ele>135.08</ele>
        <time>2018-10-14T09:04:30Z</time>
      </trkpt>
      <trkpt lat="48.75077" lon="2.54682">
        <ele>135.073</ele>
        <time>2018-10-14T09:04:32Z</time>
      </trkpt>
      <trkpt lat="48.75079" lon="2.54676">
        <ele>135.062</ele>
        <time>2018-10-14T09:04:35Z</time>
      </trkpt>
      <trkpt lat="48.75081" lon="2.5467">
        <ele>135.049</ele>
        <time>2018-10-14T09:04:38Z</time>
      </trkpt>
      <trkpt lat="48.75083" lon="2.54667">
        <ele>135.039</ele>
        <time>2018-10-14T09:04:40Z</time>
      </trkpt>
      <trkpt lat="48.75084" lon="2.5466">
        <ele>135.025</ele>
        <time>2018-10-14T09:04:43Z</time>
      </trkpt>
      <trkpt lat="48.75086" lon="2.54654">
        <ele>135.011</ele>
        <time>2018-10-14T09:04:46Z</time>
      </trkpt>
      <trkpt lat="48.75087" lon="2.54647">
        <ele>134.996</ele>
        <time>2018-10-14T09:04:49Z</time>
      </trkpt>
      <trkpt lat="48.75088" lon="2.54642">
        <ele>134.982</ele>
        <time>2018-10-14T09:04:52Z</time>
      </trkpt>
      <trkpt lat="48.75091" lon="2.54634">
        <ele>134.965</ele>
        <time>2018-10-14T09:04:56Z</time>
      </trkpt>
      <trkpt lat="48.75094" lon="2.54628">
        <ele>134.952</ele>
        <time>2018-10-14T09:04:59Z</time>
      </trkpt>
      <trkpt lat="48.75096" lon="2.54621">
        <ele>134.945</ele>
        <time>2018-10-14T09:05:01Z</time>
      </trkpt>
      <trkpt lat="48.75101" lon="2.54615">
        <ele>134.931</ele>
        <time>2018-10-14T09:05:05Z</time>
      </trkpt>
      <trkpt lat="48.75105" lon="2.54612">
        <ele>134.916</ele>
        <time>2018-10-14T09:05:09Z</time>
      </trkpt>
      <trkpt lat="48.75108" lon="2.5461">
        <ele>134.904</ele>
        <time>2018-10-14T09:05:12Z</time>
      </trkpt>
      <trkpt lat="48.75112" lon="2.54609">
        <ele>134.888</ele>
        <time>2018-10-14T09:05:16Z</time>
      </trkpt>
      <trkpt lat="48.75117" lon="2.5461">
        <ele>134.873</ele>
        <time>2018-10-14T09:05:20Z</time>
      </trkpt>
      <trkpt lat="48.75122" lon="2.54613">
        <ele>134.863</ele>
        <time>2018-10-14T09:05:23Z</time>
      </trkpt>
      <trkpt lat="48.75126" lon="2.54616">
        <ele>134.852</ele>
        <time>2018-10-14T09:05:27Z</time>
      </trkpt>
      <trkpt lat="48.75129" lon="2.54619">
        <ele>134.846</ele>
        <time>2018-10-14T09:05:29Z</time>
      </trkpt>
      <trkpt lat="48.75131" lon="2.5462">
        <ele>134.84</ele>
        <time>2018-10-14T09:05:31Z</time>
      </trkpt>
      <trkpt lat="48.75134" lon="2.54622">
        <ele>134.834</ele>
        <time>2018-10-14T09:05:33Z</time>
      </trkpt>
      <trkpt lat="48.75138" lon="2.54627">
        <ele>134.815</ele>
        <time>2018-10-14T09:05:39Z</time>
      </trkpt>
      <trkpt lat="48.75143" lon="2.5463">
        <ele>134.803</ele>
        <time>2018-10-14T09:05:43Z</time>
      </trkpt>
      <trkpt lat="48.75148" lon="2.54634">
        <ele>134.795</ele>
        <time>2018-10-14T09:05:46Z</time>
      </trkpt>
      <trkpt lat="48.75152" lon="2.54637">
        <ele>134.788</ele>
        <time>2018-10-14T09:05:49Z</time>
      </trkpt>
      <trkpt lat="48.75156" lon="2.5464">
        <ele>134.781</ele>
        <time>2018-10-14T09:05:52Z</time>
      </trkpt>
      <trkpt lat="48.75159" lon="2.54643">
        <ele>134.776</ele>
        <time>2018-10-14T09:05:54Z</time>
      </trkpt>
      <trkpt lat="48.75164" lon="2.54646">
        <ele>134.766</ele>
        <time>2018-10-14T09:05:58Z</time>
      </trkpt>
      <trkpt lat="48.75167" lon="2.54648">
        <ele>134.757</ele>
        <time>2018-10-14T09:06:01Z</time>
      </trkpt>
      <trkpt lat="48.7517" lon="2.5465">
        <ele>134.751</ele>
        <time>2018-10-14T09:06:03Z</time>
      </trkpt>
      <trkpt lat="48.75174" lon="2.54655">
        <ele>134.742</ele>
        <time>2018-10-14T09:06:06Z</time>
      </trkpt>
      <trkpt lat="48.75176" lon="2.54657">
        <ele>134.736</ele>
        <time>2018-10-14T09:06:08Z</time>
      </trkpt>
      <trkpt lat="48.75179" lon="2.5466">
        <ele>134.728</ele>
        <time>2018-10-14T09:06:11Z</time>
      </trkpt>
      <trkpt lat="48.75181" lon="2.54662">
        <ele>134.723</ele>
        <time>2018-10-14T09:06:13Z</time>
      </trkpt>
      <trkpt lat="48.75183" lon="2.54664">
        <ele>134.714</ele>
        <time>2018-10-14T09:06:16Z</time>
      </trkpt>
      <trkpt lat="48.75185" lon="2.54666">
        <ele>134.706</ele>
        <time>2018-10-14T09:06:18Z</time>
      </trkpt>
      <trkpt lat="48.75189" lon="2.5467">
        <ele>134.695</ele>
        <time>2018-10-14T09:06:21Z</time>
      </trkpt>
      <trkpt lat="48.75191" lon="2.54672">
        <ele>134.688</ele>
        <time>2018-10-14T09:06:23Z</time>
      </trkpt>
      <trkpt lat="48.75196" lon="2.54675">
        <ele>134.678</ele>
        <time>2018-10-14T09:06:26Z</time>
      </trkpt>
      <trkpt lat="48.752" lon="2.54678">
        <ele>134.669</ele>
        <time>2018-10-14T09:06:29Z</time>
      </trkpt>
      <trkpt lat="48.75205" lon="2.5468">
        <ele>134.662</ele>
        <time>2018-10-14T09:06:32Z</time>
      </trkpt>
      <trkpt lat="48.75209" lon="2.54683">
        <ele>134.657</ele>
        <time>2018-10-14T09:06:36Z</time>
      </trkpt>
      <trkpt lat="48.75213" lon="2.54688">
        <ele>134.657</ele>
        <time>2018-10-14T09:06:40Z</time>
      </trkpt>
      <trkpt lat="48.75214" lon="2.5469">
        <ele>134.657</ele>
        <time>2018-10-14T09:06:42Z</time>
      </trkpt>
      <trkpt lat="48.75219" lon="2.54694">
        <ele>134.653</ele>
        <time>2018-10-14T09:06:47Z</time>
      </trkpt>
      <trkpt lat="48.75224" lon="2.54695">
        <ele>134.647</ele>
        <time>2018-10-14T09:06:52Z</time>
      </trkpt>
      <trkpt lat="48.75229" lon="2.547">
        <ele>134.645</ele>
        <time>2018-10-14T09:06:54Z</time>
      </trkpt>
      <trkpt lat="48.75233" lon="2.54703">
        <ele>134.643</ele>
        <time>2018-10-14T09:06:56Z</time>
      </trkpt>
      <trkpt lat="48.75238" lon="2.54706">
        <ele>134.638</ele>
        <time>2018-10-14T09:07:00Z</time>
      </trkpt>
      <trkpt lat="48.75243" lon="2.54711">
        <ele>134.632</ele>
        <time>2018-10-14T09:07:05Z</time>
      </trkpt>
      <trkpt lat="48.75245" lon="2.54713">
        <ele>134.63</ele>
        <time>2018-10-14T09:07:07Z</time>
      </trkpt>
      <trkpt lat="48.75249" lon="2.54716">
        <ele>134.626</ele>
        <time>2018-10-14T09:07:10Z</time>
      </trkpt>
      <trkpt lat="48.75252" lon="2.54718">
        <ele>134.623</ele>
        <time>2018-10-14T09:07:13Z</time>
      </trkpt>
      <trkpt lat="48.75257" lon="2.54721">
        <ele>134.621</ele>
        <time>2018-10-14T09:07:17Z</time>
      </trkpt>
      <trkpt lat="48.75262" lon="2.54725">
        <ele>134.62</ele>
        <time>2018-10-14T09:07:20Z</time>
      </trkpt>
      <trkpt lat="48.75267" lon="2.54728">
        <ele>134.623</ele>
        <time>2018-10-14T09:07:25Z</time>
      </trkpt>
      <trkpt lat="48.7527" lon="2.54729">
        <ele>134.624</ele>
        <time>2018-10-14T09:07:27Z</time>
      </trkpt>
      <trkpt lat="48.75275" lon="2.54732">
        <ele>134.626</ele>
        <time>2018-10-14T09:07:30Z</time>
      </trkpt>
      <trkpt lat="48.75279" lon="2.54735">
        <ele>134.627</ele>
        <time>2018-10-14T09:07:33Z</time>
      </trkpt>
      <trkpt lat="48.75284" lon="2.54738">
        <ele>134.628</ele>
        <time>2018-10-14T09:07:36Z</time>
      </trkpt>
      <trkpt lat="48.75286" lon="2.54739">
        <ele>134.627</ele>
        <time>2018-10-14T09:07:39Z</time>
      </trkpt>
      <trkpt lat="48.75289" lon="2.54742">
        <ele>134.625</ele>
        <time>2018-10-14T09:07:42Z</time>
      </trkpt>
      <trkpt lat="48.75293" lon="2.54746">
        <ele>134.624</ele>
        <time>2018-10-14T09:07:45Z</time>
      </trkpt>
      <trkpt lat="48.75296" lon="2.54749">
        <ele>134.622</ele>
        <time>2018-10-14T09:07:47Z</time>
      </trkpt>
      <trkpt lat="48.75298" lon="2.54752">
        <ele>134.62</ele>
        <time>2018-10-14T09:07:49Z</time>
      </trkpt>
      <trkpt lat="48.753" lon="2.54754">
        <ele>134.618</ele>
        <time>2018-10-14T09:07:51Z</time>
      </trkpt>
      <trkpt lat="48.75304" lon="2.54757">
        <ele>134.616</ele>
        <time>2018-10-14T09:07:54Z</time>
      </trkpt>
      <trkpt lat="48.75307" lon="2.54758">
        <ele>134.614</ele>
        <time>2018-10-14T09:07:56Z</time>
      </trkpt>
      <trkpt lat="48.75313" lon="2.54762">
        <ele>134.615</ele>
        <time>2018-10-14T09:07:59Z</time>
      </trkpt>
      <trkpt lat="48.75315" lon="2.54765">
        <ele>134.616</ele>
        <time>2018-10-14T09:08:01Z</time>
      </trkpt>
      <trkpt lat="48.75318" lon="2.54766">
        <ele>134.617</ele>
        <time>2018-10-14T09:08:03Z</time>
      </trkpt>
      <trkpt lat="48.7532" lon="2.54768">
        <ele>134.619</ele>
        <time>2018-10-14T09:08:05Z</time>
      </trkpt>
      <trkpt lat="48.75324" lon="2.54772">
        <ele>134.621</ele>
        <time>2018-10-14T09:08:08Z</time>
      </trkpt>
      <trkpt lat="48.75328" lon="2.54776">
        <ele>134.625</ele>
        <time>2018-10-14T09:08:11Z</time>
      </trkpt>
      <trkpt lat="48.7533" lon="2.54779">
        <ele>134.627</ele>
        <time>2018-10-14T09:08:13Z</time>
      </trkpt>
      <trkpt lat="48.75335" lon="2.5478">
        <ele>134.63</ele>
        <time>2018-10-14T09:08:16Z</time>
      </trkpt>
      <trkpt lat="48.75339" lon="2.54782">
        <ele>134.631</ele>
        <time>2018-10-14T09:08:18Z</time>
      </trkpt>
      <trkpt lat="48.75343" lon="2.54782">
        <ele>134.633</ele>
        <time>2018-10-14T09:08:22Z</time>
      </trkpt>
      <trkpt lat="48.75349" lon="2.54778">
        <ele>134.633</ele>
        <time>2018-10-14T09:08:26Z</time>
      </trkpt>
      <trkpt lat="48.75353" lon="2.54774">
        <ele>134.632</ele>
        <time>2018-10-14T09:08:29Z</time>
      </trkpt>
      <trkpt lat="48.75355" lon="2.54771">
        <ele>134.632</ele>
        <time>2018-10-14T09:08:31Z</time>
      </trkpt>
      <trkpt lat="48.75358" lon="2.54765">
        <ele>134.632</ele>
        <time>2018-10-14T09:08:35Z</time>
      </trkpt>
      <trkpt lat="48.75362" lon="2.5476">
        <ele>134.632</ele>
        <time>2018-10-14T09:08:38Z</time>
      </trkpt>
      <trkpt lat="48.75365" lon="2.54756">
        <ele>134.633</ele>
        <time>2018-10-14T09:08:40Z</time>
      </trkpt>
      <trkpt lat="48.75367" lon="2.54752">
        <ele>134.634</ele>
        <time>2018-10-14T09:08:42Z</time>
      </trkpt>
      <trkpt lat="48.75369" lon="2.54747">
        <ele>134.635</ele>
        <time>2018-10-14T09:08:44Z</time>
      </trkpt>
      <trkpt lat="48.75373" lon="2.54743">
        <ele>134.638</ele>
        <time>2018-10-14T09:08:47Z</time>
      </trkpt>
      <trkpt lat="48.75376" lon="2.54739">
        <ele>134.642</ele>
        <time>2018-10-14T09:08:52Z</time>
      </trkpt>
      <trkpt lat="48.75379" lon="2.54735">
        <ele>134.645</ele>
        <time>2018-10-14T09:08:55Z</time>
      </trkpt>
      <trkpt lat="48.75381" lon="2.54732">
        <ele>134.646</ele>
        <time>2018-10-14T09:08:57Z</time>
      </trkpt>
      <trkpt lat="48.75385" lon="2.54726">
        <ele>134.649</ele>
        <time>2018-10-14T09:09:01Z</time>
      </trkpt>
      <trkpt lat="48.75389" lon="2.54722">
        <ele>134.651</ele>
        <time>2018-10-14T09:09:05Z</time>
      </trkpt>
      <trkpt lat="48.75393" lon="2.54717">
        <ele>134.652</ele>
        <time>2018-10-14T09:09:10Z</time>
      </trkpt>
      <trkpt lat="48.75398" lon="2.54714">
        <ele>134.653</ele>
        <time>2018-10-14T09:09:15Z</time>
      </trkpt>
      <trkpt lat="48.75402" lon="2.54711">
        <ele>134.654</ele>
        <time>2018-10-14T09:09:17Z</time>
      </trkpt>
      <trkpt lat="48.75406" lon="2.54706">
        <ele>134.657</ele>
        <time>2018-10-14T09:09:20Z</time>
      </trkpt>
      <trkpt lat="48.75408" lon="2.54703">
        <ele>134.658</ele>
        <time>2018-10-14T09:09:22Z</time>
      </trkpt>
      <trkpt lat="48.7541" lon="2.547">
        <ele>134.658</ele>
        <time>2018-10-14T09:09:24Z</time>
      </trkpt>
      <trkpt lat="48.75412" lon="2.54696">
        <ele>134.658</ele>
        <time>2018-10-14T09:09:26Z</time>
      </trkpt>
      <trkpt lat="48.75416" lon="2.54692">
        <ele>134.658</ele>
        <time>2018-10-14T09:09:30Z</time>
      </trkpt>
      <trkpt lat="48.75421" lon="2.54688">
        <ele>134.66</ele>
        <time>2018-10-14T09:09:34Z</time>
      </trkpt>
      <trkpt lat="48.75425" lon="2.54682">
        <ele>134.664</ele>
        <time>2018-10-14T09:09:39Z</time>
      </trkpt>
      <trkpt lat="48.75429" lon="2.54678">
        <ele>134.668</ele>
        <time>2018-10-14T09:09:42Z</time>
      </trkpt>
      <trkpt lat="48.75432" lon="2.54673">
        <ele>134.673</ele>
        <time>2018-10-14T09:09:45Z</time>
      </trkpt>
      <trkpt lat="48.75435" lon="2.54665">
        <ele>134.678</ele>
        <time>2018-10-14T09:09:51Z</time>
      </trkpt>
      <trkpt lat="48.75439" lon="2.5466">
        <ele>134.678</ele>
        <time>2018-10-14T09:09:57Z</time>
      </trkpt>
      <trkpt lat="48.75443" lon="2.54656">
        <ele>134.675</ele>
        <time>2018-10-14T09:10:01Z</time>
      </trkpt>
      <trkpt lat="48.75446" lon="2.54652">
        <ele>134.672</ele>
        <time>2018-10-14T09:10:03Z</time>
      </trkpt>
      <trkpt lat="48.75449" lon="2.54649">
        <ele>134.67</ele>
        <time>2018-10-14T09:10:05Z</time>
      </trkpt>
      <trkpt lat="48.75453" lon="2.54643">
        <ele>134.666</ele>
        <time>2018-10-14T09:10:10Z</time>
      </trkpt>
      <trkpt lat="48.75456" lon="2.54638">
        <ele>134.665</ele>
        <time>2018-10-14T09:10:14Z</time>
      </trkpt>
      <trkpt lat="48.75458" lon="2.54635">
        <ele>134.665</ele>
        <time>2018-10-14T09:10:16Z</time>
      </trkpt>
      <trkpt lat="48.75461" lon="2.54631">
        <ele>134.665</ele>
        <time>2018-10-14T09:10:19Z</time>
      </trkpt>
      <trkpt lat="48.75464" lon="2.54628">
        <ele>134.664</ele>
        <time>2018-10-14T09:10:21Z</time>
      </trkpt>
      <trkpt lat="48.75468" lon="2.54625">
        <ele>134.661</ele>
        <time>2018-10-14T09:10:24Z</time>
      </trkpt>
      <trkpt lat="48.75471" lon="2.54624">
        <ele>134.659</ele>
        <time>2018-10-14T09:10:26Z</time>
      </trkpt>
      <trkpt lat="48.75475" lon="2.54619">
        <ele>134.655</ele>
        <time>2018-10-14T09:10:29Z</time>
      </trkpt>
      <trkpt lat="48.75479" lon="2.54615">
        <ele>134.652</ele>
        <time>2018-10-14T09:10:32Z</time>
      </trkpt>
      <trkpt lat="48.75481" lon="2.54613">
        <ele>134.649</ele>
        <time>2018-10-14T09:10:34Z</time>
      </trkpt>
      <trkpt lat="48.75483" lon="2.5461">
        <ele>134.645</ele>
        <time>2018-10-14T09:10:36Z</time>
      </trkpt>
      <trkpt lat="48.75485" lon="2.54608">
        <ele>134.641</ele>
        <time>2018-10-14T09:10:38Z</time>
      </trkpt>
      <trkpt lat="48.7549" lon="2.54604">
        <ele>134.636</ele>
        <time>2018-10-14T09:10:42Z</time>
      </trkpt>
      <trkpt lat="48.75493" lon="2.54602">
        <ele>134.633</ele>
        <time>2018-10-14T09:10:45Z</time>
      </trkpt>
      <trkpt lat="48.75498" lon="2.54596">
        <ele>134.628</ele>
        <time>2018-10-14T09:10:49Z</time>
      </trkpt>
      <trkpt lat="48.755" lon="2.54594">
        <ele>134.624</ele>
        <time>2018-10-14T09:10:51Z</time>
      </trkpt>
      <trkpt lat="48.75503" lon="2.54592">
        <ele>134.621</ele>
        <time>2018-10-14T09:10:53Z</time>
      </trkpt>
      <trkpt lat="48.75506" lon="2.54589">
        <ele>134.617</ele>
        <time>2018-10-14T09:10:56Z</time>
      </trkpt>
      <trkpt lat="48.75508" lon="2.54587">
        <ele>134.614</ele>
        <time>2018-10-14T09:10:58Z</time>
      </trkpt>
      <trkpt lat="48.75512" lon="2.54583">
        <ele>134.607</ele>
        <time>2018-10-14T09:11:01Z</time>
      </trkpt>
      <trkpt lat="48.75515" lon="2.54577">
        <ele>134.599</ele>
        <time>2018-10-14T09:11:04Z</time>
      </trkpt>
      <trkpt lat="48.75519" lon="2.54574">
        <ele>134.582</ele>
        <time>2018-10-14T09:11:09Z</time>
      </trkpt>
      <trkpt lat="48.75521" lon="2.54572">
        <ele>134.575</ele>
        <time>2018-10-14T09:11:11Z</time>
      </trkpt>
      <trkpt lat="48.75524" lon="2.54569">
        <ele>134.565</ele>
        <time>2018-10-14T09:11:14Z</time>
      </trkpt>
      <trkpt lat="48.75527" lon="2.54562">
        <ele>134.55</ele>
        <time>2018-10-14T09:11:21Z</time>
      </trkpt>
      <trkpt lat="48.75532" lon="2.54558">
        <ele>134.542</ele>
        <time>2018-10-14T09:11:24Z</time>
      </trkpt>
      <trkpt lat="48.75535" lon="2.54555">
        <ele>134.538</ele>
        <time>2018-10-14T09:11:26Z</time>
      </trkpt>
      <trkpt lat="48.75538" lon="2.54553">
        <ele>134.532</ele>
        <time>2018-10-14T09:11:28Z</time>
      </trkpt>
      <trkpt lat="48.75542" lon="2.54548">
        <ele>134.523</ele>
        <time>2018-10-14T09:11:32Z</time>
      </trkpt>
      <trkpt lat="48.75546" lon="2.54545">
        <ele>134.515</ele>
        <time>2018-10-14T09:11:36Z</time>
      </trkpt>
      <trkpt lat="48.75549" lon="2.54544">
        <ele>134.513</ele>
        <time>2018-10-14T09:11:38Z</time>
      </trkpt>
      <trkpt lat="48.75553" lon="2.54539">
        <ele>134.515</ele>
        <time>2018-10-14T09:11:42Z</time>
      </trkpt>
      <trkpt lat="48.75557" lon="2.54533">
        <ele>134.517</ele>
        <time>2018-10-14T09:11:46Z</time>
      </trkpt>
      <trkpt lat="48.75561" lon="2.54529">
        <ele>134.519</ele>
        <time>2018-10-14T09:11:50Z</time>
      </trkpt>
      <trkpt lat="48.75564" lon="2.54527">
        <ele>134.521</ele>
        <time>2018-10-14T09:11:52Z</time>
      </trkpt>
      <trkpt lat="48.75568" lon="2.54522">
        <ele>134.527</ele>
        <time>2018-10-14T09:11:57Z</time>
      </trkpt>
      <trkpt lat="48.75573" lon="2.54517">
        <ele>134.53</ele>
        <time>2018-10-14T09:12:00Z</time>
      </trkpt>
      <trkpt lat="48.75577" lon="2.54512">
        <ele>134.532</ele>
        <time>2018-10-14T09:12:03Z</time>
      </trkpt>
      <trkpt lat="48.75581" lon="2.54505">
        <ele>134.529</ele>
        <time>2018-10-14T09:12:09Z</time>
      </trkpt>
      <trkpt lat="48.75583" lon="2.54498">
        <ele>134.528</ele>
        <time>2018-10-14T09:12:13Z</time>
      </trkpt>
      <trkpt lat="48.75586" lon="2.54491">
        <ele>134.527</ele>
        <time>2018-10-14T09:12:17Z</time>
      </trkpt>
      <trkpt lat="48.7559" lon="2.54486">
        <ele>134.526</ele>
        <time>2018-10-14T09:12:20Z</time>
      </trkpt>
      <trkpt lat="48.75594" lon="2.54481">
        <ele>134.523</ele>
        <time>2018-10-14T09:12:24Z</time>
      </trkpt>
      <trkpt lat="48.75597" lon="2.54475">
        <ele>134.519</ele>
        <time>2018-10-14T09:12:27Z</time>
      </trkpt>
      <trkpt lat="48.75599" lon="2.54473">
        <ele>134.517</ele>
        <time>2018-10-14T09:12:29Z</time>
      </trkpt>
      <trkpt lat="48.75601" lon="2.5447">
        <ele>134.515</ele>
        <time>2018-10-14T09:12:31Z</time>
      </trkpt>
      <trkpt lat="48.75605" lon="2.54466">
        <ele>134.51</ele>
        <time>2018-10-14T09:12:34Z</time>
      </trkpt>
      <trkpt lat="48.75609" lon="2.54462">
        <ele>134.499</ele>
        <time>2018-10-14T09:12:39Z</time>
      </trkpt>
      <trkpt lat="48.75612" lon="2.54455">
        <ele>134.489</ele>
        <time>2018-10-14T09:12:43Z</time>
      </trkpt>
      <trkpt lat="48.75613" lon="2.5445">
        <ele>134.484</ele>
        <time>2018-10-14T09:12:45Z</time>
      </trkpt>
      <trkpt lat="48.75617" lon="2.54444">
        <ele>134.473</ele>
        <time>2018-10-14T09:12:49Z</time>
      </trkpt>
      <trkpt lat="48.75619" lon="2.54441">
        <ele>134.469</ele>
        <time>2018-10-14T09:12:51Z</time>
      </trkpt>
      <trkpt lat="48.75621" lon="2.54437">
        <ele>134.464</ele>
        <time>2018-10-14T09:12:53Z</time>
      </trkpt>
      <trkpt lat="48.75625" lon="2.54433">
        <ele>134.459</ele>
        <time>2018-10-14T09:12:56Z</time>
      </trkpt>
      <trkpt lat="48.75629" lon="2.5443">
        <ele>134.453</ele>
        <time>2018-10-14T09:13:00Z</time>
      </trkpt>
      <trkpt lat="48.75632" lon="2.54424">
        <ele>134.448</ele>
        <time>2018-10-14T09:13:04Z</time>
      </trkpt>
      <trkpt lat="48.75634" lon="2.54417">
        <ele>134.444</ele>
        <time>2018-10-14T09:13:07Z</time>
      </trkpt>
      <trkpt lat="48.75635" lon="2.54412">
        <ele>134.442</ele>
        <time>2018-10-14T09:13:09Z</time>
      </trkpt>
      <trkpt lat="48.75637" lon="2.54406">
        <ele>134.439</ele>
        <time>2018-10-14T09:13:11Z</time>
      </trkpt>
      <trkpt lat="48.75638" lon="2.54403">
        <ele>134.437</ele>
        <time>2018-10-14T09:13:13Z</time>
      </trkpt>
      <trkpt lat="48.75641" lon="2.54397">
        <ele>134.434</ele>
        <time>2018-10-14T09:13:16Z</time>
      </trkpt>
      <trkpt lat="48.75644" lon="2.54392">
        <ele>134.43</ele>
        <time>2018-10-14T09:13:19Z</time>
      </trkpt>
      <trkpt lat="48.75646" lon="2.54388">
        <ele>134.427</ele>
        <time>2018-10-14T09:13:21Z</time>
      </trkpt>
      <trkpt lat="48.75649" lon="2.54385">
        <ele>134.424</ele>
        <time>2018-10-14T09:13:23Z</time>
      </trkpt>
      <trkpt lat="48.7565" lon="2.54382">
        <ele>134.424</ele>
        <time>2018-10-14T09:13:25Z</time>
      </trkpt>
      <trkpt lat="48.75652" lon="2.54379">
        <ele>134.427</ele>
        <time>2018-10-14T09:13:27Z</time>
      </trkpt>
      <trkpt lat="48.75654" lon="2.54375">
        <ele>134.437</ele>
        <time>2018-10-14T09:13:30Z</time>
      </trkpt>
      <trkpt lat="48.75656" lon="2.5437">
        <ele>134.451</ele>
        <time>2018-10-14T09:13:33Z</time>
      </trkpt>
      <trkpt lat="48.7566" lon="2.54364">
        <ele>134.473</ele>
        <time>2018-10-14T09:13:36Z</time>
      </trkpt>
      <trkpt lat="48.75661" lon="2.54361">
        <ele>134.489</ele>
        <time>2018-10-14T09:13:38Z</time>
      </trkpt>
      <trkpt lat="48.75664" lon="2.54356">
        <ele>134.505</ele>
        <time>2018-10-14T09:13:40Z</time>
      </trkpt>
      <trkpt lat="48.75666" lon="2.5435">
        <ele>134.556</ele>
        <time>2018-10-14T09:13:46Z</time>
      </trkpt>
      <trkpt lat="48.75668" lon="2.54343">
        <ele>134.59</ele>
        <time>2018-10-14T09:13:50Z</time>
      </trkpt>
      <trkpt lat="48.75671" lon="2.54337">
        <ele>134.615</ele>
        <time>2018-10-14T09:13:53Z</time>
      </trkpt>
      <trkpt lat="48.75675" lon="2.54332">
        <ele>134.644</ele>
        <time>2018-10-14T09:13:57Z</time>
      </trkpt>
      <trkpt lat="48.75676" lon="2.54329">
        <ele>134.666</ele>
        <time>2018-10-14T09:14:00Z</time>
      </trkpt>
      <trkpt lat="48.75678" lon="2.54325">
        <ele>134.68</ele>
        <time>2018-10-14T09:14:02Z</time>
      </trkpt>
      <trkpt lat="48.75681" lon="2.54321">
        <ele>134.695</ele>
        <time>2018-10-14T09:14:04Z</time>
      </trkpt>
      <trkpt lat="48.75682" lon="2.54318">
        <ele>134.708</ele>
        <time>2018-10-14T09:14:06Z</time>
      </trkpt>
      <trkpt lat="48.75686" lon="2.54311">
        <ele>134.735</ele>
        <time>2018-10-14T09:14:10Z</time>
      </trkpt>
      <trkpt lat="48.75688" lon="2.54306">
        <ele>134.759</ele>
        <time>2018-10-14T09:14:13Z</time>
      </trkpt>
      <trkpt lat="48.7569" lon="2.54302">
        <ele>134.787</ele>
        <time>2018-10-14T09:14:16Z</time>
      </trkpt>
      <trkpt lat="48.75693" lon="2.54295">
        <ele>134.829</ele>
        <time>2018-10-14T09:14:20Z</time>
      </trkpt>
      <trkpt lat="48.75694" lon="2.54292">
        <ele>134.851</ele>
        <time>2018-10-14T09:14:22Z</time>
      </trkpt>
      <trkpt lat="48.75695" lon="2.54289">
        <ele>134.873</ele>
        <time>2018-10-14T09:14:24Z</time>
      </trkpt>
      <trkpt lat="48.75698" lon="2.54284">
        <ele>134.907</ele>
        <time>2018-10-14T09:14:27Z</time>
      </trkpt>
      <trkpt lat="48.757" lon="2.5428">
        <ele>134.927</ele>
        <time>2018-10-14T09:14:29Z</time>
      </trkpt>
      <trkpt lat="48.75702" lon="2.54276">
        <ele>134.947</ele>
        <time>2018-10-14T09:14:31Z</time>
      </trkpt>
      <trkpt lat="48.75706" lon="2.54271">
        <ele>134.992</ele>
        <time>2018-10-14T09:14:36Z</time>
      </trkpt>
      <trkpt lat="48.75708" lon="2.54267">
        <ele>135.018</ele>
        <time>2018-10-14T09:14:39Z</time>
      </trkpt>
      <trkpt lat="48.75712" lon="2.54262">
        <ele>135.046</ele>
        <time>2018-10-14T09:14:42Z</time>
      </trkpt>
      <trkpt lat="48.75716" lon="2.54255">
        <ele>135.078</ele>
        <time>2018-10-14T09:14:45Z</time>
      </trkpt>
      <trkpt lat="48.75718" lon="2.54251">
        <ele>135.102</ele>
        <time>2018-10-14T09:14:47Z</time>
      </trkpt>
      <trkpt lat="48.75722" lon="2.54243">
        <ele>135.154</ele>
        <time>2018-10-14T09:14:51Z</time>
      </trkpt>
      <trkpt lat="48.75723" lon="2.54239">
        <ele>135.181</ele>
        <time>2018-10-14T09:14:53Z</time>
      </trkpt>
      <trkpt lat="48.75726" lon="2.54232">
        <ele>135.269</ele>
        <time>2018-10-14T09:14:59Z</time>
      </trkpt>
      <trkpt lat="48.75727" lon="2.54229">
        <ele>135.301</ele>
        <time>2018-10-14T09:15:01Z</time>
      </trkpt>
      <trkpt lat="48.7573" lon="2.54223">
        <ele>135.385</ele>
        <time>2018-10-14T09:15:06Z</time>
      </trkpt>
      <trkpt lat="48.75732" lon="2.5422">
        <ele>135.42</ele>
        <time>2018-10-14T09:15:08Z</time>
      </trkpt>
      <trkpt lat="48.75735" lon="2.54215">
        <ele>135.469</ele>
        <time>2018-10-14T09:15:11Z</time>
      </trkpt>
      <trkpt lat="48.7574" lon="2.54208">
        <ele>135.519</ele>
        <time>2018-10-14T09:15:14Z</time>
      </trkpt>
      <trkpt lat="48.75743" lon="2.54204">
        <ele>135.552</ele>
        <time>2018-10-14T09:15:16Z</time>
      </trkpt>
      <trkpt lat="48.75747" lon="2.54199">
        <ele>135.618</ele>
        <time>2018-10-14T09:15:20Z</time>
      </trkpt>
      <trkpt lat="48.7575" lon="2.54193">
        <ele>135.685</ele>
        <time>2018-10-14T09:15:24Z</time>
      </trkpt>
      <trkpt lat="48.75753" lon="2.54186">
        <ele>135.751</ele>
        <time>2018-10-14T09:15:28Z</time>
      </trkpt>
      <trkpt lat="48.75756" lon="2.5418">
        <ele>135.799</ele>
        <time>2018-10-14T09:15:31Z</time>
      </trkpt>
      <trkpt lat="48.75758" lon="2.54177">
        <ele>135.832</ele>
        <time>2018-10-14T09:15:33Z</time>
      </trkpt>
      <trkpt lat="48.75759" lon="2.54173">
        <ele>135.864</ele>
        <time>2018-10-14T09:15:35Z</time>
      </trkpt>
      <trkpt lat="48.75761" lon="2.5417">
        <ele>135.898</ele>
        <time>2018-10-14T09:15:37Z</time>
      </trkpt>
      <trkpt lat="48.75764" lon="2.54165">
        <ele>135.948</ele>
        <time>2018-10-14T09:15:40Z</time>
      </trkpt>
      <trkpt lat="48.75767" lon="2.54159">
        <ele>135.999</ele>
        <time>2018-10-14T09:15:43Z</time>
      </trkpt>
      <trkpt lat="48.75769" lon="2.54154">
        <ele>136.033</ele>
        <time>2018-10-14T09:15:45Z</time>
      </trkpt>
      <trkpt lat="48.7577" lon="2.5415">
        <ele>136.066</ele>
        <time>2018-10-14T09:15:47Z</time>
      </trkpt>
      <trkpt lat="48.75774" lon="2.54144">
        <ele>136.144</ele>
        <time>2018-10-14T09:15:52Z</time>
      </trkpt>
      <trkpt lat="48.75775" lon="2.54141">
        <ele>136.174</ele>
        <time>2018-10-14T09:15:54Z</time>
      </trkpt>
      <trkpt lat="48.75778" lon="2.54136">
        <ele>136.234</ele>
        <time>2018-10-14T09:15:58Z</time>
      </trkpt>
      <trkpt lat="48.75779" lon="2.54133">
        <ele>136.266</ele>
        <time>2018-10-14T09:16:00Z</time>
      </trkpt>
      <trkpt lat="48.7578" lon="2.5413">
        <ele>136.297</ele>
        <time>2018-10-14T09:16:02Z</time>
      </trkpt>
      <trkpt lat="48.75783" lon="2.54125">
        <ele>136.347</ele>
        <time>2018-10-14T09:16:05Z</time>
      </trkpt>
      <trkpt lat="48.75784" lon="2.54122">
        <ele>136.381</ele>
        <time>2018-10-14T09:16:07Z</time>
      </trkpt>
      <trkpt lat="48.75788" lon="2.54117">
        <ele>136.435</ele>
        <time>2018-10-14T09:16:10Z</time>
      </trkpt>
      <trkpt lat="48.75792" lon="2.54112">
        <ele>136.489</ele>
        <time>2018-10-14T09:16:13Z</time>
      </trkpt>
      <trkpt lat="48.75794" lon="2.54105">
        <ele>136.546</ele>
        <time>2018-10-14T09:16:16Z</time>
      </trkpt>
      <trkpt lat="48.75795" lon="2.54097">
        <ele>136.623</ele>
        <time>2018-10-14T09:16:20Z</time>
      </trkpt>
      <trkpt lat="48.75797" lon="2.5409">
        <ele>136.737</ele>
        <time>2018-10-14T09:16:26Z</time>
      </trkpt>
      <trkpt lat="48.75804" lon="2.54086">
        <ele>136.832</ele>
        <time>2018-10-14T09:16:31Z</time>
      </trkpt>
      <trkpt lat="48.75809" lon="2.54084">
        <ele>136.947</ele>
        <time>2018-10-14T09:16:37Z</time>
      </trkpt>
      <trkpt lat="48.75817" lon="2.54086">
        <ele>137.221</ele>
        <time>2018-10-14T09:17:12Z</time>
      </trkpt>
      <trkpt lat="48.75816" lon="2.54093">
        <ele>137.41</ele>
        <time>2018-10-14T09:17:27Z</time>
      </trkpt>
      <trkpt lat="48.75818" lon="2.54102">
        <ele>137.696</ele>
        <time>2018-10-14T09:18:05Z</time>
      </trkpt>
      <trkpt lat="48.75819" lon="2.54109">
        <ele>137.738</ele>
        <time>2018-10-14T09:18:08Z</time>
      </trkpt>
      <trkpt lat="48.75819" lon="2.54113">
        <ele>137.763</ele>
        <time>2018-10-14T09:18:10Z</time>
      </trkpt>
      <trkpt lat="48.75821" lon="2.5412">
        <ele>137.813</ele>
        <time>2018-10-14T09:18:15Z</time>
      </trkpt>
      <trkpt lat="48.75823" lon="2.54126">
        <ele>137.841</ele>
        <time>2018-10-14T09:18:18Z</time>
      </trkpt>
      <trkpt lat="48.75824" lon="2.5413">
        <ele>137.862</ele>
        <time>2018-10-14T09:18:20Z</time>
      </trkpt>
      <trkpt lat="48.75826" lon="2.54139">
        <ele>137.915</ele>
        <time>2018-10-14T09:18:25Z</time>
      </trkpt>
      <trkpt lat="48.75827" lon="2.54144">
        <ele>137.936</ele>
        <time>2018-10-14T09:18:27Z</time>
      </trkpt>
      <trkpt lat="48.75829" lon="2.54151">
        <ele>137.978</ele>
        <time>2018-10-14T09:18:31Z</time>
      </trkpt>
      <trkpt lat="48.75831" lon="2.54156">
        <ele>137.999</ele>
        <time>2018-10-14T09:18:33Z</time>
      </trkpt>
      <trkpt lat="48.75832" lon="2.5416">
        <ele>138.019</ele>
        <time>2018-10-14T09:18:35Z</time>
      </trkpt>
      <trkpt lat="48.75834" lon="2.54164">
        <ele>138.046</ele>
        <time>2018-10-14T09:18:38Z</time>
      </trkpt>
      <trkpt lat="48.75835" lon="2.54168">
        <ele>138.071</ele>
        <time>2018-10-14T09:18:41Z</time>
      </trkpt>
      <trkpt lat="48.75837" lon="2.54174">
        <ele>138.094</ele>
        <time>2018-10-14T09:18:44Z</time>
      </trkpt>
      <trkpt lat="48.7584" lon="2.5418">
        <ele>138.121</ele>
        <time>2018-10-14T09:18:48Z</time>
      </trkpt>
      <trkpt lat="48.75842" lon="2.54185">
        <ele>138.133</ele>
        <time>2018-10-14T09:18:50Z</time>
      </trkpt>
      <trkpt lat="48.75844" lon="2.5419">
        <ele>138.145</ele>
        <time>2018-10-14T09:18:52Z</time>
      </trkpt>
      <trkpt lat="48.75846" lon="2.54195">
        <ele>138.156</ele>
        <time>2018-10-14T09:18:54Z</time>
      </trkpt>
      <trkpt lat="48.75848" lon="2.54203">
        <ele>138.175</ele>
        <time>2018-10-14T09:18:58Z</time>
      </trkpt>
      <trkpt lat="48.75852" lon="2.54208">
        <ele>138.191</ele>
        <time>2018-10-14T09:19:02Z</time>
      </trkpt>
      <trkpt lat="48.75854" lon="2.54211">
        <ele>138.198</ele>
        <time>2018-10-14T09:19:04Z</time>
      </trkpt>
      <trkpt lat="48.75857" lon="2.54218">
        <ele>138.209</ele>
        <time>2018-10-14T09:19:07Z</time>
      </trkpt>
      <trkpt lat="48.75861" lon="2.54224">
        <ele>138.22</ele>
        <time>2018-10-14T09:19:10Z</time>
      </trkpt>
      <trkpt lat="48.75863" lon="2.54227">
        <ele>138.228</ele>
        <time>2018-10-14T09:19:12Z</time>
      </trkpt>
      <trkpt lat="48.75865" lon="2.5423">
        <ele>138.24</ele>
        <time>2018-10-14T09:19:15Z</time>
      </trkpt>
      <trkpt lat="48.75867" lon="2.54238">
        <ele>138.258</ele>
        <time>2018-10-14T09:19:20Z</time>
      </trkpt>
      <trkpt lat="48.75868" lon="2.54242">
        <ele>138.265</ele>
        <time>2018-10-14T09:19:22Z</time>
      </trkpt>
      <trkpt lat="48.75869" lon="2.54246">
        <ele>138.273</ele>
        <time>2018-10-14T09:19:25Z</time>
      </trkpt>
      <trkpt lat="48.75871" lon="2.5425">
        <ele>138.28</ele>
        <time>2018-10-14T09:19:28Z</time>
      </trkpt>
      <trkpt lat="48.75872" lon="2.54254">
        <ele>138.284</ele>
        <time>2018-10-14T09:19:30Z</time>
      </trkpt>
      <trkpt lat="48.75875" lon="2.54261">
        <ele>138.294</ele>
        <time>2018-10-14T09:19:34Z</time>
      </trkpt>
      <trkpt lat="48.75876" lon="2.54264">
        <ele>138.302</ele>
        <time>2018-10-14T09:19:36Z</time>
      </trkpt>
      <trkpt lat="48.75878" lon="2.54271">
        <ele>138.321</ele>
        <time>2018-10-14T09:19:40Z</time>
      </trkpt>
      <trkpt lat="48.75881" lon="2.54278">
        <ele>138.338</ele>
        <time>2018-10-14T09:19:43Z</time>
      </trkpt>
      <trkpt lat="48.75884" lon="2.54284">
        <ele>138.354</ele>
        <time>2018-10-14T09:19:46Z</time>
      </trkpt>
      <trkpt lat="48.75887" lon="2.54289">
        <ele>138.366</ele>
        <time>2018-10-14T09:19:48Z</time>
      </trkpt>
      <trkpt lat="48.7589" lon="2.54297">
        <ele>138.386</ele>
        <time>2018-10-14T09:19:52Z</time>
      </trkpt>
      <trkpt lat="48.75894" lon="2.54302">
        <ele>138.406</ele>
        <time>2018-10-14T09:19:57Z</time>
      </trkpt>
      <trkpt lat="48.75897" lon="2.54308">
        <ele>138.417</ele>
        <time>2018-10-14T09:20:00Z</time>
      </trkpt>
      <trkpt lat="48.759" lon="2.54315">
        <ele>138.429</ele>
        <time>2018-10-14T09:20:04Z</time>
      </trkpt>
      <trkpt lat="48.75902" lon="2.54322">
        <ele>138.447</ele>
        <time>2018-10-14T09:20:10Z</time>
      </trkpt>
      <trkpt lat="48.75904" lon="2.54329">
        <ele>138.456</ele>
        <time>2018-10-14T09:20:13Z</time>
      </trkpt>
      <trkpt lat="48.75905" lon="2.54335">
        <ele>138.462</ele>
        <time>2018-10-14T09:20:15Z</time>
      </trkpt>
      <trkpt lat="48.75909" lon="2.54343">
        <ele>138.47</ele>
        <time>2018-10-14T09:20:18Z</time>
      </trkpt>
      <trkpt lat="48.75913" lon="2.54348">
        <ele>138.477</ele>
        <time>2018-10-14T09:20:21Z</time>
      </trkpt>
      <trkpt lat="48.75914" lon="2.54351">
        <ele>138.485</ele>
        <time>2018-10-14T09:20:25Z</time>
      </trkpt>
      <trkpt lat="48.75917" lon="2.54357">
        <ele>138.488</ele>
        <time>2018-10-14T09:20:29Z</time>
      </trkpt>
      <trkpt lat="48.75919" lon="2.54361">
        <ele>138.488</ele>
        <time>2018-10-14T09:20:31Z</time>
      </trkpt>
      <trkpt lat="48.7592" lon="2.54368">
        <ele>138.487</ele>
        <time>2018-10-14T09:20:34Z</time>
      </trkpt>
      <trkpt lat="48.75921" lon="2.54372">
        <ele>138.488</ele>
        <time>2018-10-14T09:20:36Z</time>
      </trkpt>
      <trkpt lat="48.75923" lon="2.54379">
        <ele>138.487</ele>
        <time>2018-10-14T09:20:40Z</time>
      </trkpt>
      <trkpt lat="48.75926" lon="2.54386">
        <ele>138.489</ele>
        <time>2018-10-14T09:20:45Z</time>
      </trkpt>
      <trkpt lat="48.75929" lon="2.54393">
        <ele>138.49</ele>
        <time>2018-10-14T09:20:48Z</time>
      </trkpt>
      <trkpt lat="48.75934" lon="2.54399">
        <ele>138.492</ele>
        <time>2018-10-14T09:20:53Z</time>
      </trkpt>
      <trkpt lat="48.75938" lon="2.54406">
        <ele>138.492</ele>
        <time>2018-10-14T09:20:58Z</time>
      </trkpt>
      <trkpt lat="48.7594" lon="2.54415">
        <ele>138.491</ele>
        <time>2018-10-14T09:21:02Z</time>
      </trkpt>
      <trkpt lat="48.75941" lon="2.54419">
        <ele>138.49</ele>
        <time>2018-10-14T09:21:05Z</time>
      </trkpt>
      <trkpt lat="48.75945" lon="2.54426">
        <ele>138.488</ele>
        <time>2018-10-14T09:21:09Z</time>
      </trkpt>
      <trkpt lat="48.75947" lon="2.54432">
        <ele>138.485</ele>
        <time>2018-10-14T09:21:12Z</time>
      </trkpt>
      <trkpt lat="48.75951" lon="2.54438">
        <ele>138.484</ele>
        <time>2018-10-14T09:21:15Z</time>
      </trkpt>
      <trkpt lat="48.75954" lon="2.54441">
        <ele>138.485</ele>
        <time>2018-10-14T09:21:17Z</time>
      </trkpt>
      <trkpt lat="48.75957" lon="2.54443">
        <ele>138.486</ele>
        <time>2018-10-14T09:21:19Z</time>
      </trkpt>
      <trkpt lat="48.7596" lon="2.54448">
        <ele>138.486</ele>
        <time>2018-10-14T09:21:21Z</time>
      </trkpt>
      <trkpt lat="48.75962" lon="2.54451">
        <ele>138.487</ele>
        <time>2018-10-14T09:21:22Z</time>
      </trkpt>
      <trkpt lat="48.75964" lon="2.54458">
        <ele>138.489</ele>
        <time>2018-10-14T09:21:24Z</time>
      </trkpt>
      <trkpt lat="48.75965" lon="2.54461">
        <ele>138.493</ele>
        <time>2018-10-14T09:21:27Z</time>
      </trkpt>
      <trkpt lat="48.75966" lon="2.54469">
        <ele>138.5</ele>
        <time>2018-10-14T09:21:32Z</time>
      </trkpt>
      <trkpt lat="48.75968" lon="2.54476">
        <ele>138.504</ele>
        <time>2018-10-14T09:21:36Z</time>
      </trkpt>
      <trkpt lat="48.7597" lon="2.54482">
        <ele>138.503</ele>
        <time>2018-10-14T09:21:41Z</time>
      </trkpt>
      <trkpt lat="48.75974" lon="2.54486">
        <ele>138.502</ele>
        <time>2018-10-14T09:21:44Z</time>
      </trkpt>
      <trkpt lat="48.75976" lon="2.54489">
        <ele>138.501</ele>
        <time>2018-10-14T09:21:46Z</time>
      </trkpt>
      <trkpt lat="48.75981" lon="2.54488">
        <ele>138.502</ele>
        <time>2018-10-14T09:21:51Z</time>
      </trkpt>
      <trkpt lat="48.75987" lon="2.54486">
        <ele>138.505</ele>
        <time>2018-10-14T09:21:55Z</time>
      </trkpt>
      <trkpt lat="48.75992" lon="2.54485">
        <ele>138.508</ele>
        <time>2018-10-14T09:21:57Z</time>
      </trkpt>
      <trkpt lat="48.75997" lon="2.54485">
        <ele>138.516</ele>
        <time>2018-10-14T09:22:00Z</time>
      </trkpt>
      <trkpt lat="48.76001" lon="2.54484">
        <ele>138.534</ele>
        <time>2018-10-14T09:22:04Z</time>
      </trkpt>
      <trkpt lat="48.76007" lon="2.54484">
        <ele>138.556</ele>
        <time>2018-10-14T09:22:08Z</time>
      </trkpt>
      <trkpt lat="48.76011" lon="2.54483">
        <ele>138.574</ele>
        <time>2018-10-14T09:22:11Z</time>
      </trkpt>
      <trkpt lat="48.76015" lon="2.54481">
        <ele>138.587</ele>
        <time>2018-10-14T09:22:13Z</time>
      </trkpt>
      <trkpt lat="48.76019" lon="2.5448">
        <ele>138.6</ele>
        <time>2018-10-14T09:22:15Z</time>
      </trkpt>
      <trkpt lat="48.76024" lon="2.54478">
        <ele>138.619</ele>
        <time>2018-10-14T09:22:18Z</time>
      </trkpt>
      <trkpt lat="48.76029" lon="2.54476">
        <ele>138.64</ele>
        <time>2018-10-14T09:22:21Z</time>
      </trkpt>
      <trkpt lat="48.76034" lon="2.54475">
        <ele>138.677</ele>
        <time>2018-10-14T09:22:26Z</time>
      </trkpt>
      <trkpt lat="48.76037" lon="2.54474">
        <ele>138.7</ele>
        <time>2018-10-14T09:22:29Z</time>
      </trkpt>
      <trkpt lat="48.76042" lon="2.54474">
        <ele>138.745</ele>
        <time>2018-10-14T09:22:35Z</time>
      </trkpt>
      <trkpt lat="48.76047" lon="2.54471">
        <ele>138.775</ele>
        <time>2018-10-14T09:22:39Z</time>
      </trkpt>
      <trkpt lat="48.76052" lon="2.54469">
        <ele>138.803</ele>
        <time>2018-10-14T09:22:43Z</time>
      </trkpt>
      <trkpt lat="48.76057" lon="2.54468">
        <ele>138.827</ele>
        <time>2018-10-14T09:22:46Z</time>
      </trkpt>
      <trkpt lat="48.76062" lon="2.54465">
        <ele>138.882</ele>
        <time>2018-10-14T09:22:52Z</time>
      </trkpt>
      <trkpt lat="48.76067" lon="2.54465">
        <ele>138.909</ele>
        <time>2018-10-14T09:22:55Z</time>
      </trkpt>
      <trkpt lat="48.76072" lon="2.54464">
        <ele>138.927</ele>
        <time>2018-10-14T09:22:57Z</time>
      </trkpt>
      <trkpt lat="48.76078" lon="2.54464">
        <ele>138.962</ele>
        <time>2018-10-14T09:23:01Z</time>
      </trkpt>
      <trkpt lat="48.76081" lon="2.54465">
        <ele>138.98</ele>
        <time>2018-10-14T09:23:03Z</time>
      </trkpt>
      <trkpt lat="48.76084" lon="2.54466">
        <ele>138.998</ele>
        <time>2018-10-14T09:23:05Z</time>
      </trkpt>
      <trkpt lat="48.76089" lon="2.54465">
        <ele>139.036</ele>
        <time>2018-10-14T09:23:09Z</time>
      </trkpt>
      <trkpt lat="48.76094" lon="2.54464">
        <ele>139.076</ele>
        <time>2018-10-14T09:23:13Z</time>
      </trkpt>
      <trkpt lat="48.76101" lon="2.54462">
        <ele>139.105</ele>
        <time>2018-10-14T09:23:16Z</time>
      </trkpt>
      <trkpt lat="48.76106" lon="2.54459">
        <ele>139.143</ele>
        <time>2018-10-14T09:23:20Z</time>
      </trkpt>
      <trkpt lat="48.76111" lon="2.54459">
        <ele>139.214</ele>
        <time>2018-10-14T09:23:27Z</time>
      </trkpt>
      <trkpt lat="48.76117" lon="2.54456">
        <ele>139.247</ele>
        <time>2018-10-14T09:23:30Z</time>
      </trkpt>
      <trkpt lat="48.76122" lon="2.54456">
        <ele>139.279</ele>
        <time>2018-10-14T09:23:33Z</time>
      </trkpt>
      <trkpt lat="48.76126" lon="2.54453">
        <ele>139.311</ele>
        <time>2018-10-14T09:23:36Z</time>
      </trkpt>
      <trkpt lat="48.76132" lon="2.54452">
        <ele>139.353</ele>
        <time>2018-10-14T09:23:40Z</time>
      </trkpt>
      <trkpt lat="48.76136" lon="2.54451">
        <ele>139.384</ele>
        <time>2018-10-14T09:23:43Z</time>
      </trkpt>
      <trkpt lat="48.76142" lon="2.54445">
        <ele>139.414</ele>
        <time>2018-10-14T09:23:46Z</time>
      </trkpt>
      <trkpt lat="48.76144" lon="2.54438">
        <ele>139.445</ele>
        <time>2018-10-14T09:23:49Z</time>
      </trkpt>
      <trkpt lat="48.76146" lon="2.54431">
        <ele>139.486</ele>
        <time>2018-10-14T09:23:53Z</time>
      </trkpt>
      <trkpt lat="48.76146" lon="2.54424">
        <ele>139.518</ele>
        <time>2018-10-14T09:23:56Z</time>
      </trkpt>
      <trkpt lat="48.76147" lon="2.5442">
        <ele>139.539</ele>
        <time>2018-10-14T09:23:58Z</time>
      </trkpt>
      <trkpt lat="48.76147" lon="2.54416">
        <ele>139.559</ele>
        <time>2018-10-14T09:24:00Z</time>
      </trkpt>
      <trkpt lat="48.76148" lon="2.54412">
        <ele>139.588</ele>
        <time>2018-10-14T09:24:03Z</time>
      </trkpt>
      <trkpt lat="48.76148" lon="2.54408">
        <ele>139.606</ele>
        <time>2018-10-14T09:24:05Z</time>
      </trkpt>
      <trkpt lat="48.76149" lon="2.54401">
        <ele>139.631</ele>
        <time>2018-10-14T09:24:08Z</time>
      </trkpt>
      <trkpt lat="48.7615" lon="2.54396">
        <ele>139.647</ele>
        <time>2018-10-14T09:24:10Z</time>
      </trkpt>
      <trkpt lat="48.7615" lon="2.54392">
        <ele>139.662</ele>
        <time>2018-10-14T09:24:12Z</time>
      </trkpt>
      <trkpt lat="48.76153" lon="2.54387">
        <ele>139.682</ele>
        <time>2018-10-14T09:24:15Z</time>
      </trkpt>
      <trkpt lat="48.76156" lon="2.5438">
        <ele>139.707</ele>
        <time>2018-10-14T09:24:19Z</time>
      </trkpt>
      <trkpt lat="48.76158" lon="2.54372">
        <ele>139.731</ele>
        <time>2018-10-14T09:24:23Z</time>
      </trkpt>
      <trkpt lat="48.76157" lon="2.54365">
        <ele>139.749</ele>
        <time>2018-10-14T09:24:26Z</time>
      </trkpt>
      <trkpt lat="48.76157" lon="2.54358">
        <ele>139.767</ele>
        <time>2018-10-14T09:24:29Z</time>
      </trkpt>
      <trkpt lat="48.76157" lon="2.54354">
        <ele>139.78</ele>
        <time>2018-10-14T09:24:31Z</time>
      </trkpt>
      <trkpt lat="48.76157" lon="2.54351">
        <ele>139.793</ele>
        <time>2018-10-14T09:24:33Z</time>
      </trkpt>
      <trkpt lat="48.76157" lon="2.54346">
        <ele>139.807</ele>
        <time>2018-10-14T09:24:35Z</time>
      </trkpt>
      <trkpt lat="48.7616" lon="2.54339">
        <ele>139.826</ele>
        <time>2018-10-14T09:24:38Z</time>
      </trkpt>
      <trkpt lat="48.76162" lon="2.54332">
        <ele>139.844</ele>
        <time>2018-10-14T09:24:41Z</time>
      </trkpt>
      <trkpt lat="48.76164" lon="2.54328">
        <ele>139.855</ele>
        <time>2018-10-14T09:24:43Z</time>
      </trkpt>
      <trkpt lat="48.76164" lon="2.54328">
        <ele>98</ele>
        <time>2018-10-14T09:24:48Z</time>
      </trkpt>
      <trkpt lat="48.76164" lon="2.54328">
        <ele>98</ele>
        <time>2018-10-14T09:24:52Z</time>
      </trkpt>
      <trkpt lat="48.76165" lon="2.54312">
        <ele>139.902</ele>
        <time>2018-10-14T09:24:52Z</time>
      </trkpt>
      <trkpt lat="48.76166" lon="2.54304">
        <ele>139.917</ele>
        <time>2018-10-14T09:24:55Z</time>
      </trkpt>
      <trkpt lat="48.76166" lon="2.54299">
        <ele>139.934</ele>
        <time>2018-10-14T09:24:58Z</time>
      </trkpt>
      <trkpt lat="48.76165" lon="2.54291">
        <ele>139.96</ele>
        <time>2018-10-14T09:25:02Z</time>
      </trkpt>
      <trkpt lat="48.76167" lon="2.54284">
        <ele>139.991</ele>
        <time>2018-10-14T09:25:07Z</time>
      </trkpt>
      <trkpt lat="48.76169" lon="2.54278">
        <ele>140.025</ele>
        <time>2018-10-14T09:25:12Z</time>
      </trkpt>
      <trkpt lat="48.76169" lon="2.54278">
        <ele>97.9</ele>
        <time>2018-10-14T09:25:21Z</time>
      </trkpt>
      <trkpt lat="48.76169" lon="2.54278">
        <ele>97.9</ele>
        <time>2018-10-14T09:25:59Z</time>
      </trkpt>
      <trkpt lat="48.76166" lon="2.54256">
        <ele>140.191</ele>
        <time>2018-10-14T09:25:59Z</time>
      </trkpt>
      <trkpt lat="48.76165" lon="2.54253">
        <ele>140.201</ele>
        <time>2018-10-14T09:26:01Z</time>
      </trkpt>
      <trkpt lat="48.76161" lon="2.54248">
        <ele>140.218</ele>
        <time>2018-10-14T09:26:04Z</time>
      </trkpt>
      <trkpt lat="48.76156" lon="2.54245">
        <ele>140.243</ele>
        <time>2018-10-14T09:26:08Z</time>
      </trkpt>
      <trkpt lat="48.76155" lon="2.54237">
        <ele>140.27</ele>
        <time>2018-10-14T09:26:12Z</time>
      </trkpt>
      <trkpt lat="48.76153" lon="2.54231">
        <ele>140.3</ele>
        <time>2018-10-14T09:26:16Z</time>
      </trkpt>
      <trkpt lat="48.76152" lon="2.54225">
        <ele>140.321</ele>
        <time>2018-10-14T09:26:19Z</time>
      </trkpt>
      <trkpt lat="48.76152" lon="2.54216">
        <ele>140.351</ele>
        <time>2018-10-14T09:26:23Z</time>
      </trkpt>
      <trkpt lat="48.76152" lon="2.54208">
        <ele>140.385</ele>
        <time>2018-10-14T09:26:27Z</time>
      </trkpt>
      <trkpt lat="48.76152" lon="2.54204">
        <ele>140.403</ele>
        <time>2018-10-14T09:26:29Z</time>
      </trkpt>
      <trkpt lat="48.76151" lon="2.54201">
        <ele>140.422</ele>
        <time>2018-10-14T09:26:31Z</time>
      </trkpt>
      <trkpt lat="48.76151" lon="2.54196">
        <ele>140.442</ele>
        <time>2018-10-14T09:26:33Z</time>
      </trkpt>
      <trkpt lat="48.76151" lon="2.54192">
        <ele>140.462</ele>
        <time>2018-10-14T09:26:35Z</time>
      </trkpt>
      <trkpt lat="48.76152" lon="2.54186">
        <ele>140.481</ele>
        <time>2018-10-14T09:26:37Z</time>
      </trkpt>
      <trkpt lat="48.76152" lon="2.54181">
        <ele>140.5</ele>
        <time>2018-10-14T09:26:39Z</time>
      </trkpt>
      <trkpt lat="48.76154" lon="2.54172">
        <ele>140.537</ele>
        <time>2018-10-14T09:26:43Z</time>
      </trkpt>
      <trkpt lat="48.76155" lon="2.54164">
        <ele>140.572</ele>
        <time>2018-10-14T09:26:47Z</time>
      </trkpt>
      <trkpt lat="48.76157" lon="2.54157">
        <ele>140.603</ele>
        <time>2018-10-14T09:26:51Z</time>
      </trkpt>
      <trkpt lat="48.76158" lon="2.54154">
        <ele>140.617</ele>
        <time>2018-10-14T09:26:53Z</time>
      </trkpt>
      <trkpt lat="48.7616" lon="2.54145">
        <ele>140.642</ele>
        <time>2018-10-14T09:26:57Z</time>
      </trkpt>
      <trkpt lat="48.76162" lon="2.54138">
        <ele>140.658</ele>
        <time>2018-10-14T09:27:00Z</time>
      </trkpt>
      <trkpt lat="48.76163" lon="2.54135">
        <ele>140.671</ele>
        <time>2018-10-14T09:27:02Z</time>
      </trkpt>
      <trkpt lat="48.76164" lon="2.54128">
        <ele>140.696</ele>
        <time>2018-10-14T09:27:06Z</time>
      </trkpt>
      <trkpt lat="48.76164" lon="2.54118">
        <ele>140.72</ele>
        <time>2018-10-14T09:27:11Z</time>
      </trkpt>
      <trkpt lat="48.76165" lon="2.54114">
        <ele>140.729</ele>
        <time>2018-10-14T09:27:13Z</time>
      </trkpt>
      <trkpt lat="48.76165" lon="2.54107">
        <ele>140.743</ele>
        <time>2018-10-14T09:27:16Z</time>
      </trkpt>
      <trkpt lat="48.76164" lon="2.54101">
        <ele>140.757</ele>
        <time>2018-10-14T09:27:19Z</time>
      </trkpt>
      <trkpt lat="48.76163" lon="2.54097">
        <ele>140.767</ele>
        <time>2018-10-14T09:27:21Z</time>
      </trkpt>
      <trkpt lat="48.76163" lon="2.5409">
        <ele>140.789</ele>
        <time>2018-10-14T09:27:25Z</time>
      </trkpt>
      <trkpt lat="48.76161" lon="2.54082">
        <ele>140.811</ele>
        <time>2018-10-14T09:27:29Z</time>
      </trkpt>
      <trkpt lat="48.7616" lon="2.54077">
        <ele>140.82</ele>
        <time>2018-10-14T09:27:31Z</time>
      </trkpt>
      <trkpt lat="48.76157" lon="2.5407">
        <ele>140.834</ele>
        <time>2018-10-14T09:27:35Z</time>
      </trkpt>
      <trkpt lat="48.76155" lon="2.54063">
        <ele>140.845</ele>
        <time>2018-10-14T09:27:38Z</time>
      </trkpt>
      <trkpt lat="48.76153" lon="2.5406">
        <ele>140.852</ele>
        <time>2018-10-14T09:27:40Z</time>
      </trkpt>
      <trkpt lat="48.7615" lon="2.54053">
        <ele>140.861</ele>
        <time>2018-10-14T09:27:44Z</time>
      </trkpt>
      <trkpt lat="48.76149" lon="2.54049">
        <ele>140.864</ele>
        <time>2018-10-14T09:27:47Z</time>
      </trkpt>
      <trkpt lat="48.76146" lon="2.54044">
        <ele>140.864</ele>
        <time>2018-10-14T09:27:50Z</time>
      </trkpt>
      <trkpt lat="48.76143" lon="2.54038">
        <ele>140.863</ele>
        <time>2018-10-14T09:27:53Z</time>
      </trkpt>
      <trkpt lat="48.76142" lon="2.54034">
        <ele>140.861</ele>
        <time>2018-10-14T09:27:55Z</time>
      </trkpt>
      <trkpt lat="48.7614" lon="2.5403">
        <ele>140.859</ele>
        <time>2018-10-14T09:27:57Z</time>
      </trkpt>
      <trkpt lat="48.76138" lon="2.54023">
        <ele>140.856</ele>
        <time>2018-10-14T09:28:00Z</time>
      </trkpt>
      <trkpt lat="48.76138" lon="2.54015">
        <ele>140.854</ele>
        <time>2018-10-14T09:28:04Z</time>
      </trkpt>
      <trkpt lat="48.7614" lon="2.54008">
        <ele>140.853</ele>
        <time>2018-10-14T09:28:08Z</time>
      </trkpt>
      <trkpt lat="48.76143" lon="2.54001">
        <ele>140.851</ele>
        <time>2018-10-14T09:28:11Z</time>
      </trkpt>
      <trkpt lat="48.76147" lon="2.53995">
        <ele>140.847</ele>
        <time>2018-10-14T09:28:14Z</time>
      </trkpt>
      <trkpt lat="48.7615" lon="2.53991">
        <ele>140.843</ele>
        <time>2018-10-14T09:28:16Z</time>
      </trkpt>
      <trkpt lat="48.76152" lon="2.53988">
        <ele>140.84</ele>
        <time>2018-10-14T09:28:18Z</time>
      </trkpt>
      <trkpt lat="48.76157" lon="2.53985">
        <ele>140.832</ele>
        <time>2018-10-14T09:28:22Z</time>
      </trkpt>
      <trkpt lat="48.76159" lon="2.53983">
        <ele>140.827</ele>
        <time>2018-10-14T09:28:24Z</time>
      </trkpt>
      <trkpt lat="48.76163" lon="2.53977">
        <ele>140.811</ele>
        <time>2018-10-14T09:28:30Z</time>
      </trkpt>
      <trkpt lat="48.76165" lon="2.53974">
        <ele>140.808</ele>
        <time>2018-10-14T09:28:31Z</time>
      </trkpt>
      <trkpt lat="48.76168" lon="2.53972">
        <ele>140.805</ele>
        <time>2018-10-14T09:28:32Z</time>
      </trkpt>
      <trkpt lat="48.7617" lon="2.5397">
        <ele>140.802</ele>
        <time>2018-10-14T09:28:33Z</time>
      </trkpt>
      <trkpt lat="48.7617" lon="2.53962">
        <ele>140.786</ele>
        <time>2018-10-14T09:28:38Z</time>
      </trkpt>
      <trkpt lat="48.76166" lon="2.53957">
        <ele>140.776</ele>
        <time>2018-10-14T09:28:41Z</time>
      </trkpt>
      <trkpt lat="48.76161" lon="2.53957">
        <ele>140.767</ele>
        <time>2018-10-14T09:28:44Z</time>
      </trkpt>
      <trkpt lat="48.76157" lon="2.53954">
        <ele>140.751</ele>
        <time>2018-10-14T09:28:48Z</time>
      </trkpt>
      <trkpt lat="48.76157" lon="2.53954">
        <ele>140.751</ele>
        <time>2018-10-14T09:28:56Z</time>
      </trkpt>
      <trkpt lat="48.76157" lon="2.53954">
        <ele>97</ele>
        <time>2018-10-14T09:28:56Z</time>
      </trkpt>
      <trkpt lat="48.76157" lon="2.53954">
        <ele>97</ele>
        <time>2018-10-14T09:29:05Z</time>
      </trkpt>
      <trkpt lat="48.76141" lon="2.53942">
        <ele>140.685</ele>
        <time>2018-10-14T09:29:05Z</time>
      </trkpt>
      <trkpt lat="48.76136" lon="2.5394">
        <ele>140.668</ele>
        <time>2018-10-14T09:29:08Z</time>
      </trkpt>
      <trkpt lat="48.76132" lon="2.53937">
        <ele>140.649</ele>
        <time>2018-10-14T09:29:11Z</time>
      </trkpt>
      <trkpt lat="48.76129" lon="2.53935">
        <ele>140.636</ele>
        <time>2018-10-14T09:29:13Z</time>
      </trkpt>
      <trkpt lat="48.76127" lon="2.53934">
        <ele>140.624</ele>
        <time>2018-10-14T09:29:15Z</time>
      </trkpt>
      <trkpt lat="48.76123" lon="2.53932">
        <ele>140.595</ele>
        <time>2018-10-14T09:29:20Z</time>
      </trkpt>
      <trkpt lat="48.7612" lon="2.53925">
        <ele>140.579</ele>
        <time>2018-10-14T09:29:24Z</time>
      </trkpt>
      <trkpt lat="48.76114" lon="2.5392">
        <ele>140.568</ele>
        <time>2018-10-14T09:29:28Z</time>
      </trkpt>
      <trkpt lat="48.76109" lon="2.53917">
        <ele>140.564</ele>
        <time>2018-10-14T09:29:31Z</time>
      </trkpt>
      <trkpt lat="48.76105" lon="2.53915">
        <ele>140.563</ele>
        <time>2018-10-14T09:29:33Z</time>
      </trkpt>
      <trkpt lat="48.76103" lon="2.53914">
        <ele>140.562</ele>
        <time>2018-10-14T09:29:35Z</time>
      </trkpt>
      <trkpt lat="48.76099" lon="2.53912">
        <ele>140.562</ele>
        <time>2018-10-14T09:29:37Z</time>
      </trkpt>
      <trkpt lat="48.76096" lon="2.5391">
        <ele>140.561</ele>
        <time>2018-10-14T09:29:40Z</time>
      </trkpt>
      <trkpt lat="48.76091" lon="2.53905">
        <ele>140.559</ele>
        <time>2018-10-14T09:29:45Z</time>
      </trkpt>
      <trkpt lat="48.76088" lon="2.53899">
        <ele>140.551</ele>
        <time>2018-10-14T09:29:49Z</time>
      </trkpt>
      <trkpt lat="48.76083" lon="2.53893">
        <ele>140.533</ele>
        <time>2018-10-14T09:29:54Z</time>
      </trkpt>
      <trkpt lat="48.76079" lon="2.53888">
        <ele>140.518</ele>
        <time>2018-10-14T09:29:58Z</time>
      </trkpt>
      <trkpt lat="48.76076" lon="2.53883">
        <ele>140.51</ele>
        <time>2018-10-14T09:30:01Z</time>
      </trkpt>
      <trkpt lat="48.76072" lon="2.53879">
        <ele>140.5</ele>
        <time>2018-10-14T09:30:05Z</time>
      </trkpt>
      <trkpt lat="48.7607" lon="2.53877">
        <ele>140.494</ele>
        <time>2018-10-14T09:30:07Z</time>
      </trkpt>
      <trkpt lat="48.76065" lon="2.53874">
        <ele>140.485</ele>
        <time>2018-10-14T09:30:11Z</time>
      </trkpt>
      <trkpt lat="48.7606" lon="2.53873">
        <ele>140.476</ele>
        <time>2018-10-14T09:30:15Z</time>
      </trkpt>
      <trkpt lat="48.76055" lon="2.53871">
        <ele>140.469</ele>
        <time>2018-10-14T09:30:20Z</time>
      </trkpt>
      <trkpt lat="48.7605" lon="2.53874">
        <ele>140.467</ele>
        <time>2018-10-14T09:30:23Z</time>
      </trkpt>
      <trkpt lat="48.76047" lon="2.53878">
        <ele>140.466</ele>
        <time>2018-10-14T09:30:25Z</time>
      </trkpt>
      <trkpt lat="48.76045" lon="2.53881">
        <ele>140.466</ele>
        <time>2018-10-14T09:30:27Z</time>
      </trkpt>
      <trkpt lat="48.76041" lon="2.53887">
        <ele>140.465</ele>
        <time>2018-10-14T09:30:32Z</time>
      </trkpt>
      <trkpt lat="48.76038" lon="2.53892">
        <ele>140.465</ele>
        <time>2018-10-14T09:30:34Z</time>
      </trkpt>
      <trkpt lat="48.76036" lon="2.53897">
        <ele>140.465</ele>
        <time>2018-10-14T09:30:37Z</time>
      </trkpt>
      <trkpt lat="48.76031" lon="2.53901">
        <ele>140.467</ele>
        <time>2018-10-14T09:30:43Z</time>
      </trkpt>
      <trkpt lat="48.76027" lon="2.53904">
        <ele>140.468</ele>
        <time>2018-10-14T09:30:48Z</time>
      </trkpt>
      <trkpt lat="48.76021" lon="2.53906">
        <ele>140.47</ele>
        <time>2018-10-14T09:30:54Z</time>
      </trkpt>
      <trkpt lat="48.76016" lon="2.53909">
        <ele>140.471</ele>
        <time>2018-10-14T09:30:56Z</time>
      </trkpt>
      <trkpt lat="48.7601" lon="2.53909">
        <ele>140.478</ele>
        <time>2018-10-14T09:31:00Z</time>
      </trkpt>
      <trkpt lat="48.76005" lon="2.53907">
        <ele>140.486</ele>
        <time>2018-10-14T09:31:04Z</time>
      </trkpt>
      <trkpt lat="48.76" lon="2.53907">
        <ele>140.494</ele>
        <time>2018-10-14T09:31:11Z</time>
      </trkpt>
      <trkpt lat="48.75996" lon="2.53901">
        <ele>140.496</ele>
        <time>2018-10-14T09:31:15Z</time>
      </trkpt>
      <trkpt lat="48.75994" lon="2.53899">
        <ele>140.498</ele>
        <time>2018-10-14T09:31:17Z</time>
      </trkpt>
      <trkpt lat="48.75992" lon="2.53896">
        <ele>140.501</ele>
        <time>2018-10-14T09:31:19Z</time>
      </trkpt>
      <trkpt lat="48.75988" lon="2.53892">
        <ele>140.507</ele>
        <time>2018-10-14T09:31:22Z</time>
      </trkpt>
      <trkpt lat="48.75984" lon="2.53891">
        <ele>140.515</ele>
        <time>2018-10-14T09:31:25Z</time>
      </trkpt>
      <trkpt lat="48.75979" lon="2.53888">
        <ele>140.524</ele>
        <time>2018-10-14T09:31:28Z</time>
      </trkpt>
      <trkpt lat="48.75975" lon="2.53884">
        <ele>140.538</ele>
        <time>2018-10-14T09:31:32Z</time>
      </trkpt>
      <trkpt lat="48.75973" lon="2.53881">
        <ele>140.547</ele>
        <time>2018-10-14T09:31:34Z</time>
      </trkpt>
      <trkpt lat="48.75971" lon="2.53879">
        <ele>140.557</ele>
        <time>2018-10-14T09:31:36Z</time>
      </trkpt>
      <trkpt lat="48.75969" lon="2.53872">
        <ele>140.577</ele>
        <time>2018-10-14T09:31:40Z</time>
      </trkpt>
      <trkpt lat="48.75965" lon="2.53865">
        <ele>140.59</ele>
        <time>2018-10-14T09:31:43Z</time>
      </trkpt>
      <trkpt lat="48.75961" lon="2.5386">
        <ele>140.607</ele>
        <time>2018-10-14T09:31:47Z</time>
      </trkpt>
      <trkpt lat="48.75959" lon="2.53858">
        <ele>140.616</ele>
        <time>2018-10-14T09:31:49Z</time>
      </trkpt>
      <trkpt lat="48.75957" lon="2.53855">
        <ele>140.624</ele>
        <time>2018-10-14T09:31:51Z</time>
      </trkpt>
      <trkpt lat="48.75951" lon="2.53851">
        <ele>140.649</ele>
        <time>2018-10-14T09:31:59Z</time>
      </trkpt>
      <trkpt lat="48.7595" lon="2.53844">
        <ele>140.662</ele>
        <time>2018-10-14T09:32:14Z</time>
      </trkpt>
      <trkpt lat="48.7595" lon="2.5383">
        <ele>140.866</ele>
        <time>2018-10-14T09:33:02Z</time>
      </trkpt>
      <trkpt lat="48.75948" lon="2.53823">
        <ele>140.942</ele>
        <time>2018-10-14T09:33:05Z</time>
      </trkpt>
      <trkpt lat="48.75947" lon="2.53819">
        <ele>140.992</ele>
        <time>2018-10-14T09:33:07Z</time>
      </trkpt>
      <trkpt lat="48.75943" lon="2.53814">
        <ele>141.14</ele>
        <time>2018-10-14T09:33:13Z</time>
      </trkpt>
      <trkpt lat="48.75944" lon="2.53806">
        <ele>141.254</ele>
        <time>2018-10-14T09:33:18Z</time>
      </trkpt>
      <trkpt lat="48.75949" lon="2.53802">
        <ele>141.355</ele>
        <time>2018-10-14T09:33:23Z</time>
      </trkpt>
      <trkpt lat="48.75952" lon="2.53796">
        <ele>141.431</ele>
        <time>2018-10-14T09:33:27Z</time>
      </trkpt>
      <trkpt lat="48.75955" lon="2.53792">
        <ele>141.488</ele>
        <time>2018-10-14T09:33:30Z</time>
      </trkpt>
      <trkpt lat="48.75958" lon="2.53785">
        <ele>141.558</ele>
        <time>2018-10-14T09:33:34Z</time>
      </trkpt>
      <trkpt lat="48.7596" lon="2.53779">
        <ele>141.655</ele>
        <time>2018-10-14T09:33:40Z</time>
      </trkpt>
      <trkpt lat="48.75961" lon="2.53775">
        <ele>141.685</ele>
        <time>2018-10-14T09:33:42Z</time>
      </trkpt>
      <trkpt lat="48.75964" lon="2.5377">
        <ele>141.743</ele>
        <time>2018-10-14T09:33:46Z</time>
      </trkpt>
      <trkpt lat="48.75966" lon="2.53763">
        <ele>141.8</ele>
        <time>2018-10-14T09:33:50Z</time>
      </trkpt>
      <trkpt lat="48.75968" lon="2.53758">
        <ele>141.829</ele>
        <time>2018-10-14T09:33:52Z</time>
      </trkpt>
      <trkpt lat="48.75972" lon="2.53751">
        <ele>141.869</ele>
        <time>2018-10-14T09:33:55Z</time>
      </trkpt>
      <trkpt lat="48.75974" lon="2.53745">
        <ele>141.908</ele>
        <time>2018-10-14T09:33:58Z</time>
      </trkpt>
      <trkpt lat="48.75976" lon="2.53741">
        <ele>141.943</ele>
        <time>2018-10-14T09:34:01Z</time>
      </trkpt>
      <trkpt lat="48.75978" lon="2.53735">
        <ele>141.975</ele>
        <time>2018-10-14T09:34:04Z</time>
      </trkpt>
      <trkpt lat="48.7598" lon="2.53732">
        <ele>141.996</ele>
        <time>2018-10-14T09:34:06Z</time>
      </trkpt>
      <trkpt lat="48.75984" lon="2.53728">
        <ele>142.041</ele>
        <time>2018-10-14T09:34:10Z</time>
      </trkpt>
      <trkpt lat="48.75988" lon="2.53723">
        <ele>142.088</ele>
        <time>2018-10-14T09:34:14Z</time>
      </trkpt>
      <trkpt lat="48.75989" lon="2.53717">
        <ele>142.137</ele>
        <time>2018-10-14T09:34:18Z</time>
      </trkpt>
      <trkpt lat="48.75992" lon="2.5371">
        <ele>142.174</ele>
        <time>2018-10-14T09:34:21Z</time>
      </trkpt>
      <trkpt lat="48.75996" lon="2.53705">
        <ele>142.223</ele>
        <time>2018-10-14T09:34:25Z</time>
      </trkpt>
      <trkpt lat="48.75998" lon="2.53698">
        <ele>142.282</ele>
        <time>2018-10-14T09:34:30Z</time>
      </trkpt>
      <trkpt lat="48.75999" lon="2.53691">
        <ele>142.316</ele>
        <time>2018-10-14T09:34:33Z</time>
      </trkpt>
      <trkpt lat="48.76" lon="2.53687">
        <ele>142.35</ele>
        <time>2018-10-14T09:34:36Z</time>
      </trkpt>
      <trkpt lat="48.76001" lon="2.53682">
        <ele>142.384</ele>
        <time>2018-10-14T09:34:39Z</time>
      </trkpt>
      <trkpt lat="48.76002" lon="2.53678">
        <ele>142.407</ele>
        <time>2018-10-14T09:34:41Z</time>
      </trkpt>
      <trkpt lat="48.76003" lon="2.53673">
        <ele>142.431</ele>
        <time>2018-10-14T09:34:43Z</time>
      </trkpt>
      <trkpt lat="48.76006" lon="2.53667">
        <ele>142.478</ele>
        <time>2018-10-14T09:34:47Z</time>
      </trkpt>
      <trkpt lat="48.76007" lon="2.53662">
        <ele>142.525</ele>
        <time>2018-10-14T09:34:51Z</time>
      </trkpt>
      <trkpt lat="48.76008" lon="2.53658">
        <ele>142.549</ele>
        <time>2018-10-14T09:34:53Z</time>
      </trkpt>
      <trkpt lat="48.76009" lon="2.53651">
        <ele>142.598</ele>
        <time>2018-10-14T09:34:57Z</time>
      </trkpt>
      <trkpt lat="48.7601" lon="2.53643">
        <ele>142.647</ele>
        <time>2018-10-14T09:35:01Z</time>
      </trkpt>
      <trkpt lat="48.76005" lon="2.53639">
        <ele>142.713</ele>
        <time>2018-10-14T09:35:07Z</time>
      </trkpt>
      <trkpt lat="48.76002" lon="2.53636">
        <ele>142.743</ele>
        <time>2018-10-14T09:35:10Z</time>
      </trkpt>
      <trkpt lat="48.75999" lon="2.5363">
        <ele>142.788</ele>
        <time>2018-10-14T09:35:15Z</time>
      </trkpt>
      <trkpt lat="48.75995" lon="2.53625">
        <ele>142.821</ele>
        <time>2018-10-14T09:35:19Z</time>
      </trkpt>
      <trkpt lat="48.75993" lon="2.53622">
        <ele>142.829</ele>
        <time>2018-10-14T09:35:20Z</time>
      </trkpt>
      <trkpt lat="48.7599" lon="2.53619">
        <ele>142.849</ele>
        <time>2018-10-14T09:35:23Z</time>
      </trkpt>
      <trkpt lat="48.75987" lon="2.53616">
        <ele>142.869</ele>
        <time>2018-10-14T09:35:26Z</time>
      </trkpt>
      <trkpt lat="48.75985" lon="2.53614">
        <ele>142.882</ele>
        <time>2018-10-14T09:35:28Z</time>
      </trkpt>
      <trkpt lat="48.7598" lon="2.5361">
        <ele>142.9</ele>
        <time>2018-10-14T09:35:31Z</time>
      </trkpt>
      <trkpt lat="48.75977" lon="2.53604">
        <ele>142.923</ele>
        <time>2018-10-14T09:35:35Z</time>
      </trkpt>
      <trkpt lat="48.75975" lon="2.53602">
        <ele>142.935</ele>
        <time>2018-10-14T09:35:37Z</time>
      </trkpt>
      <trkpt lat="48.75972" lon="2.53595">
        <ele>142.971</ele>
        <time>2018-10-14T09:35:44Z</time>
      </trkpt>
      <trkpt lat="48.75967" lon="2.53591">
        <ele>142.996</ele>
        <time>2018-10-14T09:35:49Z</time>
      </trkpt>
      <trkpt lat="48.75963" lon="2.53585">
        <ele>143.005</ele>
        <time>2018-10-14T09:35:51Z</time>
      </trkpt>
      <trkpt lat="48.75962" lon="2.53582">
        <ele>143.009</ele>
        <time>2018-10-14T09:35:52Z</time>
      </trkpt>
      <trkpt lat="48.75959" lon="2.53576">
        <ele>143.021</ele>
        <time>2018-10-14T09:35:55Z</time>
      </trkpt>
      <trkpt lat="48.75958" lon="2.53569">
        <ele>143.044</ele>
        <time>2018-10-14T09:36:01Z</time>
      </trkpt>
      <trkpt lat="48.75957" lon="2.53565">
        <ele>143.053</ele>
        <time>2018-10-14T09:36:03Z</time>
      </trkpt>
      <trkpt lat="48.75957" lon="2.53561">
        <ele>143.061</ele>
        <time>2018-10-14T09:36:05Z</time>
      </trkpt>
      <trkpt lat="48.75955" lon="2.53555">
        <ele>143.077</ele>
        <time>2018-10-14T09:36:09Z</time>
      </trkpt>
      <trkpt lat="48.75954" lon="2.53548">
        <ele>143.095</ele>
        <time>2018-10-14T09:36:13Z</time>
      </trkpt>
      <trkpt lat="48.75952" lon="2.53539">
        <ele>143.116</ele>
        <time>2018-10-14T09:36:17Z</time>
      </trkpt>
      <trkpt lat="48.75951" lon="2.53535">
        <ele>143.126</ele>
        <time>2018-10-14T09:36:19Z</time>
      </trkpt>
      <trkpt lat="48.75949" lon="2.53527">
        <ele>143.143</ele>
        <time>2018-10-14T09:36:23Z</time>
      </trkpt>
      <trkpt lat="48.7595" lon="2.53519">
        <ele>143.155</ele>
        <time>2018-10-14T09:36:27Z</time>
      </trkpt>
      <trkpt lat="48.75948" lon="2.53511">
        <ele>143.166</ele>
        <time>2018-10-14T09:36:31Z</time>
      </trkpt>
      <trkpt lat="48.75945" lon="2.53504">
        <ele>143.172</ele>
        <time>2018-10-14T09:36:36Z</time>
      </trkpt>
      <trkpt lat="48.75944" lon="2.53499">
        <ele>143.174</ele>
        <time>2018-10-14T09:36:38Z</time>
      </trkpt>
      <trkpt lat="48.75942" lon="2.53493">
        <ele>143.177</ele>
        <time>2018-10-14T09:36:41Z</time>
      </trkpt>
      <trkpt lat="48.75939" lon="2.53486">
        <ele>143.183</ele>
        <time>2018-10-14T09:36:45Z</time>
      </trkpt>
      <trkpt lat="48.75937" lon="2.53478">
        <ele>143.19</ele>
        <time>2018-10-14T09:36:49Z</time>
      </trkpt>
      <trkpt lat="48.75935" lon="2.5347">
        <ele>143.197</ele>
        <time>2018-10-14T09:36:54Z</time>
      </trkpt>
      <trkpt lat="48.75933" lon="2.53463">
        <ele>143.201</ele>
        <time>2018-10-14T09:36:58Z</time>
      </trkpt>
      <trkpt lat="48.75929" lon="2.53457">
        <ele>143.209</ele>
        <time>2018-10-14T09:37:03Z</time>
      </trkpt>
      <trkpt lat="48.75926" lon="2.53451">
        <ele>143.223</ele>
        <time>2018-10-14T09:37:09Z</time>
      </trkpt>
      <trkpt lat="48.75924" lon="2.53444">
        <ele>143.189</ele>
        <time>2018-10-14T09:37:33Z</time>
      </trkpt>
      <trkpt lat="48.7593" lon="2.53438">
        <ele>143.168</ele>
        <time>2018-10-14T09:37:37Z</time>
      </trkpt>
      <trkpt lat="48.75933" lon="2.53433">
        <ele>143.135</ele>
        <time>2018-10-14T09:37:42Z</time>
      </trkpt>
      <trkpt lat="48.75936" lon="2.53427">
        <ele>143.099</ele>
        <time>2018-10-14T09:37:47Z</time>
      </trkpt>
      <trkpt lat="48.75938" lon="2.53423">
        <ele>143.08</ele>
        <time>2018-10-14T09:37:50Z</time>
      </trkpt>
      <trkpt lat="48.7594" lon="2.53418">
        <ele>143.053</ele>
        <time>2018-10-14T09:37:55Z</time>
      </trkpt>
      <trkpt lat="48.75945" lon="2.53413">
        <ele>143.033</ele>
        <time>2018-10-14T09:37:59Z</time>
      </trkpt>
      <trkpt lat="48.75948" lon="2.53407">
        <ele>143.016</ele>
        <time>2018-10-14T09:38:04Z</time>
      </trkpt>
      <trkpt lat="48.75951" lon="2.53403">
        <ele>143.001</ele>
        <time>2018-10-14T09:38:09Z</time>
      </trkpt>
      <trkpt lat="48.75955" lon="2.53398">
        <ele>142.993</ele>
        <time>2018-10-14T09:38:13Z</time>
      </trkpt>
      <trkpt lat="48.75959" lon="2.53394">
        <ele>142.988</ele>
        <time>2018-10-14T09:38:17Z</time>
      </trkpt>
      <trkpt lat="48.75961" lon="2.53391">
        <ele>142.988</ele>
        <time>2018-10-14T09:38:19Z</time>
      </trkpt>
      <trkpt lat="48.75964" lon="2.53385">
        <ele>142.988</ele>
        <time>2018-10-14T09:38:23Z</time>
      </trkpt>
      <trkpt lat="48.75967" lon="2.53378">
        <ele>142.992</ele>
        <time>2018-10-14T09:38:27Z</time>
      </trkpt>
      <trkpt lat="48.7597" lon="2.53373">
        <ele>142.995</ele>
        <time>2018-10-14T09:38:29Z</time>
      </trkpt>
      <trkpt lat="48.75973" lon="2.53369">
        <ele>142.997</ele>
        <time>2018-10-14T09:38:31Z</time>
      </trkpt>
      <trkpt lat="48.75975" lon="2.53364">
        <ele>142.999</ele>
        <time>2018-10-14T09:38:33Z</time>
      </trkpt>
      <trkpt lat="48.75977" lon="2.53361">
        <ele>143.001</ele>
        <time>2018-10-14T09:38:35Z</time>
      </trkpt>
      <trkpt lat="48.7598" lon="2.53353">
        <ele>143.004</ele>
        <time>2018-10-14T09:38:39Z</time>
      </trkpt>
      <trkpt lat="48.75983" lon="2.53348">
        <ele>143.005</ele>
        <time>2018-10-14T09:38:42Z</time>
      </trkpt>
      <trkpt lat="48.75984" lon="2.53341">
        <ele>143.007</ele>
        <time>2018-10-14T09:38:47Z</time>
      </trkpt>
      <trkpt lat="48.75985" lon="2.53337">
        <ele>143.009</ele>
        <time>2018-10-14T09:38:49Z</time>
      </trkpt>
      <trkpt lat="48.75985" lon="2.53329">
        <ele>143.013</ele>
        <time>2018-10-14T09:38:52Z</time>
      </trkpt>
      <trkpt lat="48.75983" lon="2.53321">
        <ele>143.018</ele>
        <time>2018-10-14T09:38:55Z</time>
      </trkpt>
      <trkpt lat="48.75982" lon="2.53318">
        <ele>143.021</ele>
        <time>2018-10-14T09:38:57Z</time>
      </trkpt>
      <trkpt lat="48.75982" lon="2.53318">
        <ele>98</ele>
        <time>2018-10-14T09:39:04Z</time>
      </trkpt>
      <trkpt lat="48.75982" lon="2.53318">
        <ele>98</ele>
        <time>2018-10-14T09:39:06Z</time>
      </trkpt>
      <trkpt lat="48.75982" lon="2.53305">
        <ele>143.033</ele>
        <time>2018-10-14T09:39:06Z</time>
      </trkpt>
      <trkpt lat="48.7598" lon="2.53297">
        <ele>143.038</ele>
        <time>2018-10-14T09:39:09Z</time>
      </trkpt>
      <trkpt lat="48.75977" lon="2.53289">
        <ele>143.043</ele>
        <time>2018-10-14T09:39:12Z</time>
      </trkpt>
      <trkpt lat="48.75977" lon="2.5328">
        <ele>143.048</ele>
        <time>2018-10-14T09:39:15Z</time>
      </trkpt>
      <trkpt lat="48.75977" lon="2.53272">
        <ele>143.056</ele>
        <time>2018-10-14T09:39:18Z</time>
      </trkpt>
      <trkpt lat="48.75976" lon="2.53265">
        <ele>143.068</ele>
        <time>2018-10-14T09:39:23Z</time>
      </trkpt>
      <trkpt lat="48.75972" lon="2.53259">
        <ele>143.079</ele>
        <time>2018-10-14T09:39:28Z</time>
      </trkpt>
      <trkpt lat="48.75969" lon="2.53249">
        <ele>143.091</ele>
        <time>2018-10-14T09:39:33Z</time>
      </trkpt>
      <trkpt lat="48.75965" lon="2.53244">
        <ele>143.107</ele>
        <time>2018-10-14T09:39:38Z</time>
      </trkpt>
      <trkpt lat="48.7596" lon="2.5324">
        <ele>143.118</ele>
        <time>2018-10-14T09:39:41Z</time>
      </trkpt>
      <trkpt lat="48.75957" lon="2.53235">
        <ele>143.134</ele>
        <time>2018-10-14T09:39:45Z</time>
      </trkpt>
      <trkpt lat="48.75953" lon="2.53229">
        <ele>143.147</ele>
        <time>2018-10-14T09:39:48Z</time>
      </trkpt>
      <trkpt lat="48.75951" lon="2.53226">
        <ele>143.158</ele>
        <time>2018-10-14T09:39:50Z</time>
      </trkpt>
      <trkpt lat="48.75947" lon="2.53222">
        <ele>143.176</ele>
        <time>2018-10-14T09:39:53Z</time>
      </trkpt>
      <trkpt lat="48.75943" lon="2.53217">
        <ele>143.213</ele>
        <time>2018-10-14T09:39:58Z</time>
      </trkpt>
      <trkpt lat="48.75938" lon="2.53213">
        <ele>143.236</ele>
        <time>2018-10-14T09:40:01Z</time>
      </trkpt>
      <trkpt lat="48.75935" lon="2.53211">
        <ele>143.252</ele>
        <time>2018-10-14T09:40:03Z</time>
      </trkpt>
      <trkpt lat="48.75931" lon="2.5321">
        <ele>143.287</ele>
        <time>2018-10-14T09:40:07Z</time>
      </trkpt>
      <trkpt lat="48.75931" lon="2.5321">
        <ele>143.287</ele>
        <time>2018-10-14T09:40:14Z</time>
      </trkpt>
      <trkpt lat="48.75931" lon="2.5321">
        <ele>98</ele>
        <time>2018-10-14T09:40:14Z</time>
      </trkpt>
      <trkpt lat="48.75931" lon="2.5321">
        <ele>98</ele>
        <time>2018-10-14T09:40:26Z</time>
      </trkpt>
      <trkpt lat="48.75916" lon="2.53199">
        <ele>143.419</ele>
        <time>2018-10-14T09:40:26Z</time>
      </trkpt>
      <trkpt lat="48.75912" lon="2.53195">
        <ele>143.445</ele>
        <time>2018-10-14T09:40:30Z</time>
      </trkpt>
      <trkpt lat="48.75909" lon="2.53192">
        <ele>143.455</ele>
        <time>2018-10-14T09:40:32Z</time>
      </trkpt>
      <trkpt lat="48.75906" lon="2.53186">
        <ele>143.476</ele>
        <time>2018-10-14T09:40:36Z</time>
      </trkpt>
      <trkpt lat="48.75903" lon="2.53179">
        <ele>143.496</ele>
        <time>2018-10-14T09:40:40Z</time>
      </trkpt>
      <trkpt lat="48.759" lon="2.53174">
        <ele>143.513</ele>
        <time>2018-10-14T09:40:43Z</time>
      </trkpt>
      <trkpt lat="48.75896" lon="2.5317">
        <ele>143.53</ele>
        <time>2018-10-14T09:40:46Z</time>
      </trkpt>
      <trkpt lat="48.75891" lon="2.53168">
        <ele>143.544</ele>
        <time>2018-10-14T09:40:49Z</time>
      </trkpt>
      <trkpt lat="48.75889" lon="2.53167">
        <ele>143.56</ele>
        <time>2018-10-14T09:40:54Z</time>
      </trkpt>
      <trkpt lat="48.75885" lon="2.53172">
        <ele>143.581</ele>
        <time>2018-10-14T09:41:04Z</time>
      </trkpt>
      <trkpt lat="48.75881" lon="2.53178">
        <ele>143.587</ele>
        <time>2018-10-14T09:41:10Z</time>
      </trkpt>
      <trkpt lat="48.75878" lon="2.53182">
        <ele>143.59</ele>
        <time>2018-10-14T09:41:12Z</time>
      </trkpt>
      <trkpt lat="48.75876" lon="2.53184">
        <ele>143.592</ele>
        <time>2018-10-14T09:41:14Z</time>
      </trkpt>
      <trkpt lat="48.75872" lon="2.53191">
        <ele>143.602</ele>
        <time>2018-10-14T09:41:19Z</time>
      </trkpt>
      <trkpt lat="48.75869" lon="2.53197">
        <ele>143.608</ele>
        <time>2018-10-14T09:41:22Z</time>
      </trkpt>
      <trkpt lat="48.75866" lon="2.53204">
        <ele>143.614</ele>
        <time>2018-10-14T09:41:25Z</time>
      </trkpt>
      <trkpt lat="48.75863" lon="2.53209">
        <ele>143.62</ele>
        <time>2018-10-14T09:41:28Z</time>
      </trkpt>
      <trkpt lat="48.75861" lon="2.53212">
        <ele>143.626</ele>
        <time>2018-10-14T09:41:31Z</time>
      </trkpt>
      <trkpt lat="48.75859" lon="2.53216">
        <ele>143.628</ele>
        <time>2018-10-14T09:41:33Z</time>
      </trkpt>
      <trkpt lat="48.75856" lon="2.5322">
        <ele>143.63</ele>
        <time>2018-10-14T09:41:35Z</time>
      </trkpt>
      <trkpt lat="48.75851" lon="2.5322">
        <ele>143.638</ele>
        <time>2018-10-14T09:41:40Z</time>
      </trkpt>
      <trkpt lat="48.75845" lon="2.53216">
        <ele>143.646</ele>
        <time>2018-10-14T09:41:44Z</time>
      </trkpt>
      <trkpt lat="48.75842" lon="2.53215">
        <ele>143.652</ele>
        <time>2018-10-14T09:41:47Z</time>
      </trkpt>
      <trkpt lat="48.75838" lon="2.5321">
        <ele>143.663</ele>
        <time>2018-10-14T09:41:52Z</time>
      </trkpt>
      <trkpt lat="48.75835" lon="2.53207">
        <ele>143.667</ele>
        <time>2018-10-14T09:41:54Z</time>
      </trkpt>
      <trkpt lat="48.75832" lon="2.53204">
        <ele>143.671</ele>
        <time>2018-10-14T09:41:56Z</time>
      </trkpt>
      <trkpt lat="48.75828" lon="2.53199">
        <ele>143.679</ele>
        <time>2018-10-14T09:42:00Z</time>
      </trkpt>
      <trkpt lat="48.75826" lon="2.53195">
        <ele>143.681</ele>
        <time>2018-10-14T09:42:02Z</time>
      </trkpt>
      <trkpt lat="48.75823" lon="2.5319">
        <ele>143.681</ele>
        <time>2018-10-14T09:42:06Z</time>
      </trkpt>
      <trkpt lat="48.75819" lon="2.53185">
        <ele>143.679</ele>
        <time>2018-10-14T09:42:09Z</time>
      </trkpt>
      <trkpt lat="48.75816" lon="2.53181">
        <ele>143.675</ele>
        <time>2018-10-14T09:42:11Z</time>
      </trkpt>
      <trkpt lat="48.75814" lon="2.53178">
        <ele>143.67</ele>
        <time>2018-10-14T09:42:13Z</time>
      </trkpt>
      <trkpt lat="48.75814" lon="2.53178">
        <ele>98</ele>
        <time>2018-10-14T09:42:20Z</time>
      </trkpt>
      <trkpt lat="48.75814" lon="2.53178">
        <ele>98</ele>
        <time>2018-10-14T09:42:25Z</time>
      </trkpt>
      <trkpt lat="48.75814" lon="2.53165">
        <ele>143.63</ele>
        <time>2018-10-14T09:42:25Z</time>
      </trkpt>
      <trkpt lat="48.75818" lon="2.53159">
        <ele>143.611</ele>
        <time>2018-10-14T09:42:30Z</time>
      </trkpt>
      <trkpt lat="48.7582" lon="2.53155">
        <ele>143.601</ele>
        <time>2018-10-14T09:42:33Z</time>
      </trkpt>
      <trkpt lat="48.75824" lon="2.53148">
        <ele>143.586</ele>
        <time>2018-10-14T09:42:38Z</time>
      </trkpt>
      <trkpt lat="48.75828" lon="2.53144">
        <ele>143.578</ele>
        <time>2018-10-14T09:42:42Z</time>
      </trkpt>
      <trkpt lat="48.75832" lon="2.53136">
        <ele>143.575</ele>
        <time>2018-10-14T09:42:46Z</time>
      </trkpt>
      <trkpt lat="48.75834" lon="2.53132">
        <ele>143.572</ele>
        <time>2018-10-14T09:42:48Z</time>
      </trkpt>
      <trkpt lat="48.75837" lon="2.53128">
        <ele>143.569</ele>
        <time>2018-10-14T09:42:50Z</time>
      </trkpt>
      <trkpt lat="48.75841" lon="2.53122">
        <ele>143.566</ele>
        <time>2018-10-14T09:42:53Z</time>
      </trkpt>
      <trkpt lat="48.75844" lon="2.53116">
        <ele>143.564</ele>
        <time>2018-10-14T09:42:56Z</time>
      </trkpt>
      <trkpt lat="48.75846" lon="2.53111">
        <ele>143.564</ele>
        <time>2018-10-14T09:42:59Z</time>
      </trkpt>
      <trkpt lat="48.75849" lon="2.53104">
        <ele>143.563</ele>
        <time>2018-10-14T09:43:02Z</time>
      </trkpt>
      <trkpt lat="48.75852" lon="2.53099">
        <ele>143.56</ele>
        <time>2018-10-14T09:43:05Z</time>
      </trkpt>
      <trkpt lat="48.75854" lon="2.53095">
        <ele>143.557</ele>
        <time>2018-10-14T09:43:07Z</time>
      </trkpt>
      <trkpt lat="48.75855" lon="2.53091">
        <ele>143.553</ele>
        <time>2018-10-14T09:43:09Z</time>
      </trkpt>
      <trkpt lat="48.75859" lon="2.53086">
        <ele>143.544</ele>
        <time>2018-10-14T09:43:12Z</time>
      </trkpt>
      <trkpt lat="48.75862" lon="2.53083">
        <ele>143.537</ele>
        <time>2018-10-14T09:43:14Z</time>
      </trkpt>
      <trkpt lat="48.75865" lon="2.53079">
        <ele>143.529</ele>
        <time>2018-10-14T09:43:17Z</time>
      </trkpt>
      <trkpt lat="48.75868" lon="2.53074">
        <ele>143.521</ele>
        <time>2018-10-14T09:43:21Z</time>
      </trkpt>
      <trkpt lat="48.75869" lon="2.53071">
        <ele>143.517</ele>
        <time>2018-10-14T09:43:23Z</time>
      </trkpt>
      <trkpt lat="48.75873" lon="2.53066">
        <ele>143.508</ele>
        <time>2018-10-14T09:43:27Z</time>
      </trkpt>
      <trkpt lat="48.75876" lon="2.53063">
        <ele>143.503</ele>
        <time>2018-10-14T09:43:30Z</time>
      </trkpt>
      <trkpt lat="48.75878" lon="2.53056">
        <ele>143.497</ele>
        <time>2018-10-14T09:43:33Z</time>
      </trkpt>
      <trkpt lat="48.75881" lon="2.53047">
        <ele>143.494</ele>
        <time>2018-10-14T09:43:36Z</time>
      </trkpt>
      <trkpt lat="48.75885" lon="2.53041">
        <ele>143.491</ele>
        <time>2018-10-14T09:43:40Z</time>
      </trkpt>
      <trkpt lat="48.75887" lon="2.53037">
        <ele>143.492</ele>
        <time>2018-10-14T09:43:42Z</time>
      </trkpt>
      <trkpt lat="48.7589" lon="2.53031">
        <ele>143.496</ele>
        <time>2018-10-14T09:43:45Z</time>
      </trkpt>
      <trkpt lat="48.75894" lon="2.53027">
        <ele>143.504</ele>
        <time>2018-10-14T09:43:48Z</time>
      </trkpt>
      <trkpt lat="48.759" lon="2.53027">
        <ele>143.517</ele>
        <time>2018-10-14T09:43:53Z</time>
      </trkpt>
      <trkpt lat="48.75905" lon="2.53024">
        <ele>143.53</ele>
        <time>2018-10-14T09:43:58Z</time>
      </trkpt>
      <trkpt lat="48.75909" lon="2.53019">
        <ele>143.549</ele>
        <time>2018-10-14T09:44:02Z</time>
      </trkpt>
      <trkpt lat="48.75912" lon="2.53012">
        <ele>143.577</ele>
        <time>2018-10-14T09:44:06Z</time>
      </trkpt>
      <trkpt lat="48.75912" lon="2.53004">
        <ele>143.609</ele>
        <time>2018-10-14T09:44:10Z</time>
      </trkpt>
      <trkpt lat="48.75912" lon="2.52999">
        <ele>143.665</ele>
        <time>2018-10-14T09:44:16Z</time>
      </trkpt>
      <trkpt lat="48.75909" lon="2.52993">
        <ele>143.721</ele>
        <time>2018-10-14T09:44:22Z</time>
      </trkpt>
      <trkpt lat="48.75907" lon="2.52989">
        <ele>143.745</ele>
        <time>2018-10-14T09:44:25Z</time>
      </trkpt>
      <trkpt lat="48.75908" lon="2.52982">
        <ele>143.775</ele>
        <time>2018-10-14T09:44:30Z</time>
      </trkpt>
      <trkpt lat="48.75908" lon="2.52982">
        <ele>143.775</ele>
        <time>2018-10-14T09:44:37Z</time>
      </trkpt>
      <trkpt lat="48.75908" lon="2.52982">
        <ele>98</ele>
        <time>2018-10-14T09:44:37Z</time>
      </trkpt>
      <trkpt lat="48.75908" lon="2.52982">
        <ele>98</ele>
        <time>2018-10-14T09:46:05Z</time>
      </trkpt>
      <trkpt lat="48.75902" lon="2.5295">
        <ele>144.32</ele>
        <time>2018-10-14T09:46:05Z</time>
      </trkpt>
      <trkpt lat="48.75901" lon="2.52944">
        <ele>144.362</ele>
        <time>2018-10-14T09:46:08Z</time>
      </trkpt>
      <trkpt lat="48.75898" lon="2.52938">
        <ele>144.432</ele>
        <time>2018-10-14T09:46:13Z</time>
      </trkpt>
      <trkpt lat="48.75896" lon="2.52931">
        <ele>144.488</ele>
        <time>2018-10-14T09:46:17Z</time>
      </trkpt>
      <trkpt lat="48.75895" lon="2.52927">
        <ele>144.514</ele>
        <time>2018-10-14T09:46:19Z</time>
      </trkpt>
      <trkpt lat="48.75892" lon="2.52921">
        <ele>144.565</ele>
        <time>2018-10-14T09:46:23Z</time>
      </trkpt>
      <trkpt lat="48.7589" lon="2.52916">
        <ele>144.592</ele>
        <time>2018-10-14T09:46:25Z</time>
      </trkpt>
      <trkpt lat="48.75888" lon="2.52913">
        <ele>144.619</ele>
        <time>2018-10-14T09:46:27Z</time>
      </trkpt>
      <trkpt lat="48.75887" lon="2.52909">
        <ele>144.645</ele>
        <time>2018-10-14T09:46:29Z</time>
      </trkpt>
      <trkpt lat="48.75885" lon="2.52906">
        <ele>144.669</ele>
        <time>2018-10-14T09:46:31Z</time>
      </trkpt>
      <trkpt lat="48.75884" lon="2.52902">
        <ele>144.691</ele>
        <time>2018-10-14T09:46:33Z</time>
      </trkpt>
      <trkpt lat="48.75882" lon="2.52894">
        <ele>144.72</ele>
        <time>2018-10-14T09:46:36Z</time>
      </trkpt>
      <trkpt lat="48.75881" lon="2.52886">
        <ele>144.756</ele>
        <time>2018-10-14T09:46:40Z</time>
      </trkpt>
      <trkpt lat="48.7588" lon="2.52878">
        <ele>144.783</ele>
        <time>2018-10-14T09:46:43Z</time>
      </trkpt>
      <trkpt lat="48.75878" lon="2.52871">
        <ele>144.808</ele>
        <time>2018-10-14T09:46:46Z</time>
      </trkpt>
      <trkpt lat="48.75876" lon="2.52863">
        <ele>144.841</ele>
        <time>2018-10-14T09:46:50Z</time>
      </trkpt>
      <trkpt lat="48.75874" lon="2.52859">
        <ele>144.863</ele>
        <time>2018-10-14T09:46:53Z</time>
      </trkpt>
      <trkpt lat="48.75872" lon="2.52855">
        <ele>144.878</ele>
        <time>2018-10-14T09:46:55Z</time>
      </trkpt>
      <trkpt lat="48.7587" lon="2.52847">
        <ele>144.906</ele>
        <time>2018-10-14T09:46:59Z</time>
      </trkpt>
      <trkpt lat="48.75869" lon="2.52844">
        <ele>144.92</ele>
        <time>2018-10-14T09:47:01Z</time>
      </trkpt>
      <trkpt lat="48.75868" lon="2.52835">
        <ele>144.953</ele>
        <time>2018-10-14T09:47:06Z</time>
      </trkpt>
      <trkpt lat="48.75867" lon="2.52827">
        <ele>144.98</ele>
        <time>2018-10-14T09:47:10Z</time>
      </trkpt>
      <trkpt lat="48.75866" lon="2.52819">
        <ele>145.009</ele>
        <time>2018-10-14T09:47:14Z</time>
      </trkpt>
      <trkpt lat="48.75865" lon="2.52813">
        <ele>145.03</ele>
        <time>2018-10-14T09:47:17Z</time>
      </trkpt>
      <trkpt lat="48.75865" lon="2.52806">
        <ele>145.044</ele>
        <time>2018-10-14T09:47:19Z</time>
      </trkpt>
      <trkpt lat="48.75864" lon="2.52802">
        <ele>145.051</ele>
        <time>2018-10-14T09:47:20Z</time>
      </trkpt>
      <trkpt lat="48.75863" lon="2.52795">
        <ele>145.081</ele>
        <time>2018-10-14T09:47:24Z</time>
      </trkpt>
      <trkpt lat="48.7586" lon="2.52788">
        <ele>145.112</ele>
        <time>2018-10-14T09:47:28Z</time>
      </trkpt>
      <trkpt lat="48.75859" lon="2.52785">
        <ele>145.127</ele>
        <time>2018-10-14T09:47:30Z</time>
      </trkpt>
      <trkpt lat="48.75858" lon="2.52774">
        <ele>145.159</ele>
        <time>2018-10-14T09:47:34Z</time>
      </trkpt>
      <trkpt lat="48.75857" lon="2.52769">
        <ele>145.175</ele>
        <time>2018-10-14T09:47:36Z</time>
      </trkpt>
      <trkpt lat="48.75854" lon="2.52762">
        <ele>145.206</ele>
        <time>2018-10-14T09:47:40Z</time>
      </trkpt>
      <trkpt lat="48.75852" lon="2.52757">
        <ele>145.221</ele>
        <time>2018-10-14T09:47:42Z</time>
      </trkpt>
      <trkpt lat="48.75851" lon="2.52754">
        <ele>145.236</ele>
        <time>2018-10-14T09:47:44Z</time>
      </trkpt>
      <trkpt lat="48.75849" lon="2.5275">
        <ele>145.27</ele>
        <time>2018-10-14T09:47:49Z</time>
      </trkpt>
      <trkpt lat="48.75849" lon="2.5274">
        <ele>145.289</ele>
        <time>2018-10-14T09:47:52Z</time>
      </trkpt>
      <trkpt lat="48.75846" lon="2.52732">
        <ele>145.308</ele>
        <time>2018-10-14T09:47:55Z</time>
      </trkpt>
      <trkpt lat="48.75845" lon="2.52724">
        <ele>145.328</ele>
        <time>2018-10-14T09:47:58Z</time>
      </trkpt>
      <trkpt lat="48.75844" lon="2.52717">
        <ele>145.352</ele>
        <time>2018-10-14T09:48:02Z</time>
      </trkpt>
      <trkpt lat="48.75844" lon="2.52717">
        <ele>145.352</ele>
        <time>2018-10-14T09:48:10Z</time>
      </trkpt>
      <trkpt lat="48.75844" lon="2.52717">
        <ele>98</ele>
        <time>2018-10-14T09:48:10Z</time>
      </trkpt>
      <trkpt lat="48.75844" lon="2.52717">
        <ele>98</ele>
        <time>2018-10-14T09:48:30Z</time>
      </trkpt>
      <trkpt lat="48.75848" lon="2.52697">
        <ele>145.454</ele>
        <time>2018-10-14T09:48:30Z</time>
      </trkpt>
      <trkpt lat="48.7585" lon="2.5269">
        <ele>145.47</ele>
        <time>2018-10-14T09:48:34Z</time>
      </trkpt>
      <trkpt lat="48.75851" lon="2.52683">
        <ele>145.483</ele>
        <time>2018-10-14T09:48:37Z</time>
      </trkpt>
      <trkpt lat="48.75852" lon="2.52679">
        <ele>145.492</ele>
        <time>2018-10-14T09:48:39Z</time>
      </trkpt>
      <trkpt lat="48.75852" lon="2.52674">
        <ele>145.502</ele>
        <time>2018-10-14T09:48:41Z</time>
      </trkpt>
      <trkpt lat="48.75852" lon="2.5267">
        <ele>145.511</ele>
        <time>2018-10-14T09:48:43Z</time>
      </trkpt>
      <trkpt lat="48.75848" lon="2.52662">
        <ele>145.534</ele>
        <time>2018-10-14T09:48:48Z</time>
      </trkpt>
      <trkpt lat="48.75843" lon="2.5266">
        <ele>145.548</ele>
        <time>2018-10-14T09:48:52Z</time>
      </trkpt>
      <trkpt lat="48.75841" lon="2.52654">
        <ele>145.563</ele>
        <time>2018-10-14T09:48:57Z</time>
      </trkpt>
      <trkpt lat="48.75837" lon="2.52648">
        <ele>145.572</ele>
        <time>2018-10-14T09:49:01Z</time>
      </trkpt>
      <trkpt lat="48.75834" lon="2.52641">
        <ele>145.586</ele>
        <time>2018-10-14T09:49:05Z</time>
      </trkpt>
      <trkpt lat="48.7583" lon="2.52638">
        <ele>145.598</ele>
        <time>2018-10-14T09:49:09Z</time>
      </trkpt>
      <trkpt lat="48.75824" lon="2.52636">
        <ele>145.605</ele>
        <time>2018-10-14T09:49:12Z</time>
      </trkpt>
      <trkpt lat="48.75819" lon="2.52631">
        <ele>145.609</ele>
        <time>2018-10-14T09:49:15Z</time>
      </trkpt>
      <trkpt lat="48.75817" lon="2.52629">
        <ele>145.611</ele>
        <time>2018-10-14T09:49:18Z</time>
      </trkpt>
      <trkpt lat="48.75814" lon="2.52625">
        <ele>145.612</ele>
        <time>2018-10-14T09:49:21Z</time>
      </trkpt>
      <trkpt lat="48.7581" lon="2.52621">
        <ele>145.614</ele>
        <time>2018-10-14T09:49:25Z</time>
      </trkpt>
      <trkpt lat="48.75807" lon="2.52619">
        <ele>145.616</ele>
        <time>2018-10-14T09:49:27Z</time>
      </trkpt>
      <trkpt lat="48.75803" lon="2.52613">
        <ele>145.627</ele>
        <time>2018-10-14T09:49:33Z</time>
      </trkpt>
      <trkpt lat="48.75803" lon="2.52606">
        <ele>145.636</ele>
        <time>2018-10-14T09:49:36Z</time>
      </trkpt>
      <trkpt lat="48.758" lon="2.52597">
        <ele>145.65</ele>
        <time>2018-10-14T09:49:40Z</time>
      </trkpt>
      <trkpt lat="48.75797" lon="2.52589">
        <ele>145.659</ele>
        <time>2018-10-14T09:49:43Z</time>
      </trkpt>
      <trkpt lat="48.75797" lon="2.5258">
        <ele>145.672</ele>
        <time>2018-10-14T09:49:47Z</time>
      </trkpt>
      <trkpt lat="48.75795" lon="2.52573">
        <ele>145.681</ele>
        <time>2018-10-14T09:49:50Z</time>
      </trkpt>
      <trkpt lat="48.75795" lon="2.52568">
        <ele>145.686</ele>
        <time>2018-10-14T09:49:52Z</time>
      </trkpt>
      <trkpt lat="48.75796" lon="2.5256">
        <ele>145.7</ele>
        <time>2018-10-14T09:49:57Z</time>
      </trkpt>
      <trkpt lat="48.75797" lon="2.52554">
        <ele>145.707</ele>
        <time>2018-10-14T09:50:00Z</time>
      </trkpt>
      <trkpt lat="48.75798" lon="2.52545">
        <ele>145.718</ele>
        <time>2018-10-14T09:50:05Z</time>
      </trkpt>
      <trkpt lat="48.75796" lon="2.52537">
        <ele>145.73</ele>
        <time>2018-10-14T09:50:09Z</time>
      </trkpt>
      <trkpt lat="48.75796" lon="2.52534">
        <ele>145.739</ele>
        <time>2018-10-14T09:50:12Z</time>
      </trkpt>
      <trkpt lat="48.75793" lon="2.52527">
        <ele>145.753</ele>
        <time>2018-10-14T09:50:17Z</time>
      </trkpt>
      <trkpt lat="48.75789" lon="2.52523">
        <ele>145.759</ele>
        <time>2018-10-14T09:50:20Z</time>
      </trkpt>
      <trkpt lat="48.75785" lon="2.52517">
        <ele>145.762</ele>
        <time>2018-10-14T09:50:23Z</time>
      </trkpt>
      <trkpt lat="48.75782" lon="2.5251">
        <ele>145.766</ele>
        <time>2018-10-14T09:50:27Z</time>
      </trkpt>
      <trkpt lat="48.75779" lon="2.52504">
        <ele>145.773</ele>
        <time>2018-10-14T09:50:31Z</time>
      </trkpt>
      <trkpt lat="48.75777" lon="2.52497">
        <ele>145.78</ele>
        <time>2018-10-14T09:50:34Z</time>
      </trkpt>
      <trkpt lat="48.75777" lon="2.52489">
        <ele>145.789</ele>
        <time>2018-10-14T09:50:38Z</time>
      </trkpt>
      <trkpt lat="48.75781" lon="2.52482">
        <ele>145.798</ele>
        <time>2018-10-14T09:50:42Z</time>
      </trkpt>
      <trkpt lat="48.75783" lon="2.52473">
        <ele>145.806</ele>
        <time>2018-10-14T09:50:46Z</time>
      </trkpt>
      <trkpt lat="48.75784" lon="2.52468">
        <ele>145.81</ele>
        <time>2018-10-14T09:50:48Z</time>
      </trkpt>
      <trkpt lat="48.75785" lon="2.52462">
        <ele>145.817</ele>
        <time>2018-10-14T09:50:51Z</time>
      </trkpt>
      <trkpt lat="48.75786" lon="2.52458">
        <ele>145.822</ele>
        <time>2018-10-14T09:50:53Z</time>
      </trkpt>
      <trkpt lat="48.75789" lon="2.52452">
        <ele>145.833</ele>
        <time>2018-10-14T09:50:57Z</time>
      </trkpt>
      <trkpt lat="48.75791" lon="2.52448">
        <ele>145.841</ele>
        <time>2018-10-14T09:51:00Z</time>
      </trkpt>
      <trkpt lat="48.75794" lon="2.52443">
        <ele>145.849</ele>
        <time>2018-10-14T09:51:04Z</time>
      </trkpt>
      <trkpt lat="48.75798" lon="2.52437">
        <ele>145.857</ele>
        <time>2018-10-14T09:51:08Z</time>
      </trkpt>
      <trkpt lat="48.758" lon="2.52431">
        <ele>145.863</ele>
        <time>2018-10-14T09:51:11Z</time>
      </trkpt>
      <trkpt lat="48.75804" lon="2.52426">
        <ele>145.873</ele>
        <time>2018-10-14T09:51:15Z</time>
      </trkpt>
      <trkpt lat="48.75808" lon="2.5242">
        <ele>145.884</ele>
        <time>2018-10-14T09:51:22Z</time>
      </trkpt>
      <trkpt lat="48.75812" lon="2.52414">
        <ele>145.885</ele>
        <time>2018-10-14T09:51:26Z</time>
      </trkpt>
      <trkpt lat="48.75815" lon="2.52406">
        <ele>145.884</ele>
        <time>2018-10-14T09:51:30Z</time>
      </trkpt>
      <trkpt lat="48.75814" lon="2.52399">
        <ele>145.882</ele>
        <time>2018-10-14T09:51:32Z</time>
      </trkpt>
      <trkpt lat="48.75812" lon="2.5239">
        <ele>145.878</ele>
        <time>2018-10-14T09:51:35Z</time>
      </trkpt>
      <trkpt lat="48.75813" lon="2.52381">
        <ele>145.873</ele>
        <time>2018-10-14T09:51:38Z</time>
      </trkpt>
      <trkpt lat="48.75815" lon="2.52374">
        <ele>145.865</ele>
        <time>2018-10-14T09:51:42Z</time>
      </trkpt>
      <trkpt lat="48.75815" lon="2.52374">
        <ele>95.5</ele>
        <time>2018-10-14T09:51:47Z</time>
      </trkpt>
      <trkpt lat="48.75815" lon="2.52374">
        <ele>95.5</ele>
        <time>2018-10-14T09:51:52Z</time>
      </trkpt>
      <trkpt lat="48.75821" lon="2.52361">
        <ele>145.837</ele>
        <time>2018-10-14T09:51:52Z</time>
      </trkpt>
      <trkpt lat="48.75822" lon="2.52354">
        <ele>145.826</ele>
        <time>2018-10-14T09:51:55Z</time>
      </trkpt>
      <trkpt lat="48.75823" lon="2.52347">
        <ele>145.811</ele>
        <time>2018-10-14T09:51:59Z</time>
      </trkpt>
      <trkpt lat="48.75826" lon="2.5234">
        <ele>145.798</ele>
        <time>2018-10-14T09:52:03Z</time>
      </trkpt>
      <trkpt lat="48.75828" lon="2.52332">
        <ele>145.783</ele>
        <time>2018-10-14T09:52:08Z</time>
      </trkpt>
      <trkpt lat="48.75826" lon="2.52324">
        <ele>145.771</ele>
        <time>2018-10-14T09:52:12Z</time>
      </trkpt>
      <trkpt lat="48.75824" lon="2.52316">
        <ele>145.759</ele>
        <time>2018-10-14T09:52:16Z</time>
      </trkpt>
      <trkpt lat="48.75825" lon="2.52307">
        <ele>145.75</ele>
        <time>2018-10-14T09:52:19Z</time>
      </trkpt>
      <trkpt lat="48.75828" lon="2.52301">
        <ele>145.739</ele>
        <time>2018-10-14T09:52:23Z</time>
      </trkpt>
      <trkpt lat="48.75832" lon="2.52295">
        <ele>145.732</ele>
        <time>2018-10-14T09:52:26Z</time>
      </trkpt>
      <trkpt lat="48.75835" lon="2.5229">
        <ele>145.724</ele>
        <time>2018-10-14T09:52:29Z</time>
      </trkpt>
      <trkpt lat="48.7584" lon="2.52287">
        <ele>145.711</ele>
        <time>2018-10-14T09:52:34Z</time>
      </trkpt>
      <trkpt lat="48.75843" lon="2.52279">
        <ele>145.7</ele>
        <time>2018-10-14T09:52:38Z</time>
      </trkpt>
      <trkpt lat="48.75844" lon="2.52276">
        <ele>145.695</ele>
        <time>2018-10-14T09:52:41Z</time>
      </trkpt>
      <trkpt lat="48.75844" lon="2.52269">
        <ele>145.688</ele>
        <time>2018-10-14T09:52:44Z</time>
      </trkpt>
      <trkpt lat="48.75843" lon="2.5226">
        <ele>145.679</ele>
        <time>2018-10-14T09:52:47Z</time>
      </trkpt>
      <trkpt lat="48.75844" lon="2.52253">
        <ele>145.668</ele>
        <time>2018-10-14T09:52:51Z</time>
      </trkpt>
      <trkpt lat="48.75845" lon="2.52245">
        <ele>145.655</ele>
        <time>2018-10-14T09:52:55Z</time>
      </trkpt>
      <trkpt lat="48.75846" lon="2.5224">
        <ele>145.645</ele>
        <time>2018-10-14T09:52:58Z</time>
      </trkpt>
      <trkpt lat="48.75846" lon="2.52235">
        <ele>145.637</ele>
        <time>2018-10-14T09:53:00Z</time>
      </trkpt>
      <trkpt lat="48.7585" lon="2.52226">
        <ele>145.624</ele>
        <time>2018-10-14T09:53:04Z</time>
      </trkpt>
      <trkpt lat="48.75851" lon="2.52222">
        <ele>145.618</ele>
        <time>2018-10-14T09:53:06Z</time>
      </trkpt>
      <trkpt lat="48.75852" lon="2.52218">
        <ele>145.611</ele>
        <time>2018-10-14T09:53:08Z</time>
      </trkpt>
      <trkpt lat="48.75853" lon="2.5221">
        <ele>145.602</ele>
        <time>2018-10-14T09:53:11Z</time>
      </trkpt>
      <trkpt lat="48.75853" lon="2.52205">
        <ele>145.596</ele>
        <time>2018-10-14T09:53:13Z</time>
      </trkpt>
      <trkpt lat="48.75853" lon="2.52196">
        <ele>145.585</ele>
        <time>2018-10-14T09:53:16Z</time>
      </trkpt>
      <trkpt lat="48.75853" lon="2.52193">
        <ele>145.577</ele>
        <time>2018-10-14T09:53:18Z</time>
      </trkpt>
      <trkpt lat="48.75854" lon="2.52186">
        <ele>145.564</ele>
        <time>2018-10-14T09:53:21Z</time>
      </trkpt>
      <trkpt lat="48.75855" lon="2.52182">
        <ele>145.555</ele>
        <time>2018-10-14T09:53:23Z</time>
      </trkpt>
      <trkpt lat="48.75857" lon="2.52173">
        <ele>145.538</ele>
        <time>2018-10-14T09:53:27Z</time>
      </trkpt>
      <trkpt lat="48.75858" lon="2.52169">
        <ele>145.529</ele>
        <time>2018-10-14T09:53:29Z</time>
      </trkpt>
      <trkpt lat="48.7586" lon="2.52163">
        <ele>145.512</ele>
        <time>2018-10-14T09:53:33Z</time>
      </trkpt>
      <trkpt lat="48.75867" lon="2.52156">
        <ele>145.49</ele>
        <time>2018-10-14T09:53:39Z</time>
      </trkpt>
      <trkpt lat="48.75869" lon="2.52154">
        <ele>145.487</ele>
        <time>2018-10-14T09:53:40Z</time>
      </trkpt>
      <trkpt lat="48.75873" lon="2.5215">
        <ele>145.476</ele>
        <time>2018-10-14T09:53:43Z</time>
      </trkpt>
      <trkpt lat="48.75874" lon="2.52142">
        <ele>145.454</ele>
        <time>2018-10-14T09:53:47Z</time>
      </trkpt>
      <trkpt lat="48.75877" lon="2.52136">
        <ele>145.425</ele>
        <time>2018-10-14T09:53:51Z</time>
      </trkpt>
      <trkpt lat="48.75879" lon="2.52132">
        <ele>145.394</ele>
        <time>2018-10-14T09:53:55Z</time>
      </trkpt>
      <trkpt lat="48.75879" lon="2.52132">
        <ele>81.9</ele>
        <time>2018-10-14T09:54:03Z</time>
      </trkpt>
      <trkpt lat="48.75879" lon="2.52132">
        <ele>81.9</ele>
        <time>2018-10-14T09:55:09Z</time>
      </trkpt>
      <trkpt lat="48.75899" lon="2.52095">
        <ele>144.948</ele>
        <time>2018-10-14T09:55:09Z</time>
      </trkpt>
      <trkpt lat="48.75901" lon="2.5209">
        <ele>144.918</ele>
        <time>2018-10-14T09:55:12Z</time>
      </trkpt>
      <trkpt lat="48.75904" lon="2.52085">
        <ele>144.869</ele>
        <time>2018-10-14T09:55:17Z</time>
      </trkpt>
      <trkpt lat="48.75907" lon="2.52081">
        <ele>144.851</ele>
        <time>2018-10-14T09:55:19Z</time>
      </trkpt>
      <trkpt lat="48.75909" lon="2.52075">
        <ele>144.833</ele>
        <time>2018-10-14T09:55:21Z</time>
      </trkpt>
      <trkpt lat="48.75913" lon="2.52064">
        <ele>144.79</ele>
        <time>2018-10-14T09:55:26Z</time>
      </trkpt>
      <trkpt lat="48.75917" lon="2.52059">
        <ele>144.754</ele>
        <time>2018-10-14T09:55:30Z</time>
      </trkpt>
      <trkpt lat="48.75919" lon="2.52052">
        <ele>144.706</ele>
        <time>2018-10-14T09:55:35Z</time>
      </trkpt>
      <trkpt lat="48.75921" lon="2.52048">
        <ele>144.687</ele>
        <time>2018-10-14T09:55:37Z</time>
      </trkpt>
      <trkpt lat="48.75925" lon="2.52042">
        <ele>144.648</ele>
        <time>2018-10-14T09:55:41Z</time>
      </trkpt>
      <trkpt lat="48.75928" lon="2.52034">
        <ele>144.617</ele>
        <time>2018-10-14T09:55:44Z</time>
      </trkpt>
      <trkpt lat="48.75929" lon="2.52028">
        <ele>144.596</ele>
        <time>2018-10-14T09:55:46Z</time>
      </trkpt>
      <trkpt lat="48.75937" lon="2.52018">
        <ele>144.524</ele>
        <time>2018-10-14T09:55:53Z</time>
      </trkpt>
      <trkpt lat="48.75943" lon="2.52012">
        <ele>144.485</ele>
        <time>2018-10-14T09:55:57Z</time>
      </trkpt>
      <trkpt lat="48.75949" lon="2.52011">
        <ele>144.464</ele>
        <time>2018-10-14T09:55:59Z</time>
      </trkpt>
      <trkpt lat="48.75953" lon="2.52007">
        <ele>144.418</ele>
        <time>2018-10-14T09:56:03Z</time>
      </trkpt>
      <trkpt lat="48.75955" lon="2.52006">
        <ele>144.371</ele>
        <time>2018-10-14T09:56:07Z</time>
      </trkpt>
      <trkpt lat="48.75959" lon="2.52">
        <ele>144.295</ele>
        <time>2018-10-14T09:56:13Z</time>
      </trkpt>
      <trkpt lat="48.75964" lon="2.51993">
        <ele>144.255</ele>
        <time>2018-10-14T09:56:16Z</time>
      </trkpt>
      <trkpt lat="48.75966" lon="2.5199">
        <ele>144.215</ele>
        <time>2018-10-14T09:56:19Z</time>
      </trkpt>
      <trkpt lat="48.75971" lon="2.51986">
        <ele>144.135</ele>
        <time>2018-10-14T09:56:25Z</time>
      </trkpt>
      <trkpt lat="48.75973" lon="2.51979">
        <ele>144.078</ele>
        <time>2018-10-14T09:56:29Z</time>
      </trkpt>
      <trkpt lat="48.75977" lon="2.51975">
        <ele>144.063</ele>
        <time>2018-10-14T09:56:30Z</time>
      </trkpt>
      <trkpt lat="48.75979" lon="2.51972">
        <ele>144.017</ele>
        <time>2018-10-14T09:56:33Z</time>
      </trkpt>
      <trkpt lat="48.75982" lon="2.51967">
        <ele>143.909</ele>
        <time>2018-10-14T09:56:40Z</time>
      </trkpt>
      <trkpt lat="48.75986" lon="2.51961">
        <ele>143.837</ele>
        <time>2018-10-14T09:56:45Z</time>
      </trkpt>
      <trkpt lat="48.7599" lon="2.51956">
        <ele>143.78</ele>
        <time>2018-10-14T09:56:49Z</time>
      </trkpt>
      <trkpt lat="48.75994" lon="2.51947">
        <ele>143.736</ele>
        <time>2018-10-14T09:56:52Z</time>
      </trkpt>
      <trkpt lat="48.75998" lon="2.51941">
        <ele>143.689</ele>
        <time>2018-10-14T09:56:55Z</time>
      </trkpt>
      <trkpt lat="48.76003" lon="2.51937">
        <ele>143.641</ele>
        <time>2018-10-14T09:56:58Z</time>
      </trkpt>
      <trkpt lat="48.76007" lon="2.51934">
        <ele>143.591</ele>
        <time>2018-10-14T09:57:01Z</time>
      </trkpt>
      <trkpt lat="48.76013" lon="2.51934">
        <ele>143.555</ele>
        <time>2018-10-14T09:57:03Z</time>
      </trkpt>
      <trkpt lat="48.76017" lon="2.51929">
        <ele>143.459</ele>
        <time>2018-10-14T09:57:08Z</time>
      </trkpt>
      <trkpt lat="48.76021" lon="2.51923">
        <ele>143.4</ele>
        <time>2018-10-14T09:57:11Z</time>
      </trkpt>
      <trkpt lat="48.76024" lon="2.51916">
        <ele>143.323</ele>
        <time>2018-10-14T09:57:15Z</time>
      </trkpt>
      <trkpt lat="48.76027" lon="2.51912">
        <ele>143.268</ele>
        <time>2018-10-14T09:57:18Z</time>
      </trkpt>
      <trkpt lat="48.76027" lon="2.51912">
        <ele>68</ele>
        <time>2018-10-14T09:57:23Z</time>
      </trkpt>
      <trkpt lat="48.76027" lon="2.51912">
        <ele>68</ele>
        <time>2018-10-14T09:57:26Z</time>
      </trkpt>
      <trkpt lat="48.76031" lon="2.51904">
        <ele>143.128</ele>
        <time>2018-10-14T09:57:26Z</time>
      </trkpt>
      <trkpt lat="48.76034" lon="2.51898">
        <ele>143.058</ele>
        <time>2018-10-14T09:57:30Z</time>
      </trkpt>
      <trkpt lat="48.76037" lon="2.51893">
        <ele>142.987</ele>
        <time>2018-10-14T09:57:34Z</time>
      </trkpt>
      <trkpt lat="48.76042" lon="2.51888">
        <ele>142.933</ele>
        <time>2018-10-14T09:57:37Z</time>
      </trkpt>
      <trkpt lat="48.76045" lon="2.51882">
        <ele>142.859</ele>
        <time>2018-10-14T09:57:41Z</time>
      </trkpt>
      <trkpt lat="48.76049" lon="2.51874">
        <ele>142.779</ele>
        <time>2018-10-14T09:57:45Z</time>
      </trkpt>
      <trkpt lat="48.7605" lon="2.51866">
        <ele>142.716</ele>
        <time>2018-10-14T09:57:48Z</time>
      </trkpt>
      <trkpt lat="48.76052" lon="2.5186">
        <ele>142.651</ele>
        <time>2018-10-14T09:57:51Z</time>
      </trkpt>
      <trkpt lat="48.76058" lon="2.51854">
        <ele>142.566</ele>
        <time>2018-10-14T09:57:55Z</time>
      </trkpt>
      <trkpt lat="48.76061" lon="2.51849">
        <ele>142.5</ele>
        <time>2018-10-14T09:57:58Z</time>
      </trkpt>
      <trkpt lat="48.76063" lon="2.51845">
        <ele>142.454</ele>
        <time>2018-10-14T09:58:00Z</time>
      </trkpt>
      <trkpt lat="48.76067" lon="2.5184">
        <ele>142.338</ele>
        <time>2018-10-14T09:58:05Z</time>
      </trkpt>
      <trkpt lat="48.76069" lon="2.51833">
        <ele>142.246</ele>
        <time>2018-10-14T09:58:09Z</time>
      </trkpt>
      <trkpt lat="48.76074" lon="2.51829">
        <ele>142.113</ele>
        <time>2018-10-14T09:58:15Z</time>
      </trkpt>
      <trkpt lat="48.76078" lon="2.51825">
        <ele>141.989</ele>
        <time>2018-10-14T09:58:21Z</time>
      </trkpt>
      <trkpt lat="48.76081" lon="2.51823">
        <ele>141.93</ele>
        <time>2018-10-14T09:58:24Z</time>
      </trkpt>
      <trkpt lat="48.76087" lon="2.51817">
        <ele>141.835</ele>
        <time>2018-10-14T09:58:29Z</time>
      </trkpt>
      <trkpt lat="48.76089" lon="2.51814">
        <ele>141.817</ele>
        <time>2018-10-14T09:58:30Z</time>
      </trkpt>
      <trkpt lat="48.76093" lon="2.51809">
        <ele>141.742</ele>
        <time>2018-10-14T09:58:34Z</time>
      </trkpt>
      <trkpt lat="48.76095" lon="2.51803">
        <ele>141.651</ele>
        <time>2018-10-14T09:58:39Z</time>
      </trkpt>
      <trkpt lat="48.76096" lon="2.518">
        <ele>141.615</ele>
        <time>2018-10-14T09:58:41Z</time>
      </trkpt>
      <trkpt lat="48.76101" lon="2.51794">
        <ele>141.543</ele>
        <time>2018-10-14T09:58:45Z</time>
      </trkpt>
      <trkpt lat="48.76104" lon="2.5179">
        <ele>141.474</ele>
        <time>2018-10-14T09:58:49Z</time>
      </trkpt>
      <trkpt lat="48.76107" lon="2.51783">
        <ele>141.424</ele>
        <time>2018-10-14T09:58:52Z</time>
      </trkpt>
      <trkpt lat="48.76112" lon="2.51779">
        <ele>141.359</ele>
        <time>2018-10-14T09:58:56Z</time>
      </trkpt>
      <trkpt lat="48.76116" lon="2.51773">
        <ele>141.311</ele>
        <time>2018-10-14T09:58:59Z</time>
      </trkpt>
      <trkpt lat="48.7612" lon="2.51769">
        <ele>141.203</ele>
        <time>2018-10-14T09:59:06Z</time>
      </trkpt>
      <trkpt lat="48.76124" lon="2.51763">
        <ele>141.145</ele>
        <time>2018-10-14T09:59:10Z</time>
      </trkpt>
      <trkpt lat="48.76127" lon="2.51759">
        <ele>141.1</ele>
        <time>2018-10-14T09:59:13Z</time>
      </trkpt>
      <trkpt lat="48.76132" lon="2.51759">
        <ele>140.967</ele>
        <time>2018-10-14T09:59:21Z</time>
      </trkpt>
      <trkpt lat="48.76135" lon="2.51755">
        <ele>140.897</ele>
        <time>2018-10-14T09:59:25Z</time>
      </trkpt>
      <trkpt lat="48.76139" lon="2.51745">
        <ele>140.862</ele>
        <time>2018-10-14T09:59:27Z</time>
      </trkpt>
      <trkpt lat="48.76141" lon="2.51737">
        <ele>140.786</ele>
        <time>2018-10-14T09:59:31Z</time>
      </trkpt>
      <trkpt lat="48.76146" lon="2.51735">
        <ele>140.708</ele>
        <time>2018-10-14T09:59:35Z</time>
      </trkpt>
      <trkpt lat="48.76147" lon="2.51726">
        <ele>140.651</ele>
        <time>2018-10-14T09:59:38Z</time>
      </trkpt>
      <trkpt lat="48.76147" lon="2.51718">
        <ele>140.611</ele>
        <time>2018-10-14T09:59:40Z</time>
      </trkpt>
      <trkpt lat="48.76147" lon="2.51713">
        <ele>140.531</ele>
        <time>2018-10-14T09:59:44Z</time>
      </trkpt>
      <trkpt lat="48.76143" lon="2.51706">
        <ele>140.449</ele>
        <time>2018-10-14T09:59:48Z</time>
      </trkpt>
      <trkpt lat="48.76141" lon="2.51699">
        <ele>140.347</ele>
        <time>2018-10-14T09:59:53Z</time>
      </trkpt>
      <trkpt lat="48.7614" lon="2.51695">
        <ele>140.307</ele>
        <time>2018-10-14T09:59:55Z</time>
      </trkpt>
      <trkpt lat="48.76139" lon="2.51688">
        <ele>140.186</ele>
        <time>2018-10-14T10:00:01Z</time>
      </trkpt>
      <trkpt lat="48.76135" lon="2.5168">
        <ele>140.123</ele>
        <time>2018-10-14T10:00:04Z</time>
      </trkpt>
      <trkpt lat="48.76134" lon="2.51676">
        <ele>140.08</ele>
        <time>2018-10-14T10:00:06Z</time>
      </trkpt>
      <trkpt lat="48.76134" lon="2.51667">
        <ele>139.97</ele>
        <time>2018-10-14T10:00:11Z</time>
      </trkpt>
      <trkpt lat="48.76133" lon="2.5166">
        <ele>139.821</ele>
        <time>2018-10-14T10:00:17Z</time>
      </trkpt>
      <trkpt lat="48.76134" lon="2.51652">
        <ele>139.717</ele>
        <time>2018-10-14T10:00:21Z</time>
      </trkpt>
      <trkpt lat="48.76134" lon="2.51648">
        <ele>139.663</ele>
        <time>2018-10-14T10:00:23Z</time>
      </trkpt>
      <trkpt lat="48.76134" lon="2.5164">
        <ele>139.582</ele>
        <time>2018-10-14T10:00:26Z</time>
      </trkpt>
      <trkpt lat="48.76133" lon="2.51633">
        <ele>139.523</ele>
        <time>2018-10-14T10:00:29Z</time>
      </trkpt>
      <trkpt lat="48.76133" lon="2.51626">
        <ele>139.44</ele>
        <time>2018-10-14T10:00:32Z</time>
      </trkpt>
      <trkpt lat="48.76132" lon="2.51623">
        <ele>139.384</ele>
        <time>2018-10-14T10:00:34Z</time>
      </trkpt>
      <trkpt lat="48.76132" lon="2.51617">
        <ele>139.303</ele>
        <time>2018-10-14T10:00:37Z</time>
      </trkpt>
      <trkpt lat="48.76132" lon="2.51611">
        <ele>139.194</ele>
        <time>2018-10-14T10:00:41Z</time>
      </trkpt>
      <trkpt lat="48.7613" lon="2.51604">
        <ele>139.052</ele>
        <time>2018-10-14T10:00:46Z</time>
      </trkpt>
      <trkpt lat="48.76131" lon="2.51596">
        <ele>138.959</ele>
        <time>2018-10-14T10:00:49Z</time>
      </trkpt>
      <trkpt lat="48.7613" lon="2.51588">
        <ele>138.827</ele>
        <time>2018-10-14T10:00:53Z</time>
      </trkpt>
      <trkpt lat="48.76131" lon="2.51578">
        <ele>138.723</ele>
        <time>2018-10-14T10:00:56Z</time>
      </trkpt>
      <trkpt lat="48.7613" lon="2.51571">
        <ele>138.544</ele>
        <time>2018-10-14T10:01:01Z</time>
      </trkpt>
      <trkpt lat="48.7613" lon="2.51565">
        <ele>138.403</ele>
        <time>2018-10-14T10:01:05Z</time>
      </trkpt>
      <trkpt lat="48.7613" lon="2.51558">
        <ele>138.296</ele>
        <time>2018-10-14T10:01:08Z</time>
      </trkpt>
      <trkpt lat="48.76128" lon="2.51552">
        <ele>138.153</ele>
        <time>2018-10-14T10:01:12Z</time>
      </trkpt>
      <trkpt lat="48.76128" lon="2.51545">
        <ele>138.047</ele>
        <time>2018-10-14T10:01:15Z</time>
      </trkpt>
      <trkpt lat="48.76129" lon="2.51536">
        <ele>137.902</ele>
        <time>2018-10-14T10:01:19Z</time>
      </trkpt>
      <trkpt lat="48.76129" lon="2.51528">
        <ele>137.598</ele>
        <time>2018-10-14T10:01:27Z</time>
      </trkpt>
      <trkpt lat="48.76131" lon="2.51518">
        <ele>137.38</ele>
        <time>2018-10-14T10:01:33Z</time>
      </trkpt>
      <trkpt lat="48.76133" lon="2.51512">
        <ele>137.31</ele>
        <time>2018-10-14T10:01:35Z</time>
      </trkpt>
      <trkpt lat="48.76134" lon="2.51507">
        <ele>137.207</ele>
        <time>2018-10-14T10:01:38Z</time>
      </trkpt>
      <trkpt lat="48.76138" lon="2.515">
        <ele>137.048</ele>
        <time>2018-10-14T10:01:43Z</time>
      </trkpt>
      <trkpt lat="48.7614" lon="2.51493">
        <ele>136.954</ele>
        <time>2018-10-14T10:01:46Z</time>
      </trkpt>
      <trkpt lat="48.76141" lon="2.51485">
        <ele>136.859</ele>
        <time>2018-10-14T10:01:49Z</time>
      </trkpt>
      <trkpt lat="48.76141" lon="2.51478">
        <ele>136.762</ele>
        <time>2018-10-14T10:01:52Z</time>
      </trkpt>
      <trkpt lat="48.7614" lon="2.5147">
        <ele>136.668</ele>
        <time>2018-10-14T10:01:55Z</time>
      </trkpt>
      <trkpt lat="48.7614" lon="2.5147">
        <ele>55.9</ele>
        <time>2018-10-14T10:02:00Z</time>
      </trkpt>
      <trkpt lat="48.7614" lon="2.5147">
        <ele>55.9</ele>
        <time>2018-10-14T10:02:06Z</time>
      </trkpt>
      <trkpt lat="48.76141" lon="2.51457">
        <ele>136.345</ele>
        <time>2018-10-14T10:02:06Z</time>
      </trkpt>
      <trkpt lat="48.76143" lon="2.51448">
        <ele>136.26</ele>
        <time>2018-10-14T10:02:09Z</time>
      </trkpt>
      <trkpt lat="48.76144" lon="2.51444">
        <ele>136.202</ele>
        <time>2018-10-14T10:02:11Z</time>
      </trkpt>
      <trkpt lat="48.76145" lon="2.51438">
        <ele>136.141</ele>
        <time>2018-10-14T10:02:13Z</time>
      </trkpt>
      <trkpt lat="48.76147" lon="2.51431">
        <ele>136.078</ele>
        <time>2018-10-14T10:02:15Z</time>
      </trkpt>
      <trkpt lat="48.76147" lon="2.51427">
        <ele>136.012</ele>
        <time>2018-10-14T10:02:17Z</time>
      </trkpt>
      <trkpt lat="48.76147" lon="2.51418">
        <ele>135.884</ele>
        <time>2018-10-14T10:02:21Z</time>
      </trkpt>
      <trkpt lat="48.76146" lon="2.51412">
        <ele>135.788</ele>
        <time>2018-10-14T10:02:24Z</time>
      </trkpt>
      <trkpt lat="48.76146" lon="2.51409">
        <ele>135.723</ele>
        <time>2018-10-14T10:02:26Z</time>
      </trkpt>
      <trkpt lat="48.76149" lon="2.51403">
        <ele>135.482</ele>
        <time>2018-10-14T10:02:33Z</time>
      </trkpt>
      <trkpt lat="48.76149" lon="2.51394">
        <ele>135.376</ele>
        <time>2018-10-14T10:02:36Z</time>
      </trkpt>
      <trkpt lat="48.76148" lon="2.51386">
        <ele>135.265</ele>
        <time>2018-10-14T10:02:39Z</time>
      </trkpt>
      <trkpt lat="48.76146" lon="2.5138">
        <ele>135.074</ele>
        <time>2018-10-14T10:02:44Z</time>
      </trkpt>
      <trkpt lat="48.76143" lon="2.51374">
        <ele>134.955</ele>
        <time>2018-10-14T10:02:47Z</time>
      </trkpt>
      <trkpt lat="48.76141" lon="2.51368">
        <ele>134.763</ele>
        <time>2018-10-14T10:02:52Z</time>
      </trkpt>
      <trkpt lat="48.76139" lon="2.5136">
        <ele>134.615</ele>
        <time>2018-10-14T10:02:56Z</time>
      </trkpt>
      <trkpt lat="48.76139" lon="2.51357">
        <ele>134.542</ele>
        <time>2018-10-14T10:02:58Z</time>
      </trkpt>
      <trkpt lat="48.76138" lon="2.5135">
        <ele>134.433</ele>
        <time>2018-10-14T10:03:01Z</time>
      </trkpt>
      <trkpt lat="48.76138" lon="2.51343">
        <ele>134.291</ele>
        <time>2018-10-14T10:03:05Z</time>
      </trkpt>
      <trkpt lat="48.76138" lon="2.51338">
        <ele>134.188</ele>
        <time>2018-10-14T10:03:08Z</time>
      </trkpt>
      <trkpt lat="48.76136" lon="2.51331">
        <ele>134.052</ele>
        <time>2018-10-14T10:03:12Z</time>
      </trkpt>
      <trkpt lat="48.76136" lon="2.51324">
        <ele>133.985</ele>
        <time>2018-10-14T10:03:14Z</time>
      </trkpt>
      <trkpt lat="48.76136" lon="2.51315">
        <ele>133.886</ele>
        <time>2018-10-14T10:03:17Z</time>
      </trkpt>
      <trkpt lat="48.76138" lon="2.51308">
        <ele>133.786</ele>
        <time>2018-10-14T10:03:20Z</time>
      </trkpt>
      <trkpt lat="48.76137" lon="2.51301">
        <ele>133.683</ele>
        <time>2018-10-14T10:03:23Z</time>
      </trkpt>
      <trkpt lat="48.76137" lon="2.51295">
        <ele>133.542</ele>
        <time>2018-10-14T10:03:27Z</time>
      </trkpt>
      <trkpt lat="48.76136" lon="2.51289">
        <ele>133.47</ele>
        <time>2018-10-14T10:03:29Z</time>
      </trkpt>
      <trkpt lat="48.76134" lon="2.51283">
        <ele>133.398</ele>
        <time>2018-10-14T10:03:31Z</time>
      </trkpt>
      <trkpt lat="48.76132" lon="2.51278">
        <ele>133.326</ele>
        <time>2018-10-14T10:03:33Z</time>
      </trkpt>
      <trkpt lat="48.76132" lon="2.51271">
        <ele>133.217</ele>
        <time>2018-10-14T10:03:36Z</time>
      </trkpt>
      <trkpt lat="48.7613" lon="2.51263">
        <ele>133.062</ele>
        <time>2018-10-14T10:03:40Z</time>
      </trkpt>
      <trkpt lat="48.76129" lon="2.51259">
        <ele>132.977</ele>
        <time>2018-10-14T10:03:42Z</time>
      </trkpt>
      <trkpt lat="48.76127" lon="2.51253">
        <ele>132.764</ele>
        <time>2018-10-14T10:03:47Z</time>
      </trkpt>
      <trkpt lat="48.76126" lon="2.51244">
        <ele>132.634</ele>
        <time>2018-10-14T10:03:50Z</time>
      </trkpt>
      <trkpt lat="48.76123" lon="2.51236">
        <ele>132.502</ele>
        <time>2018-10-14T10:03:53Z</time>
      </trkpt>
      <trkpt lat="48.76123" lon="2.51228">
        <ele>132.325</ele>
        <time>2018-10-14T10:03:57Z</time>
      </trkpt>
      <trkpt lat="48.76125" lon="2.51222">
        <ele>132.151</ele>
        <time>2018-10-14T10:04:01Z</time>
      </trkpt>
      <trkpt lat="48.76126" lon="2.51215">
        <ele>131.985</ele>
        <time>2018-10-14T10:04:05Z</time>
      </trkpt>
      <trkpt lat="48.76126" lon="2.51208">
        <ele>131.83</ele>
        <time>2018-10-14T10:04:09Z</time>
      </trkpt>
      <trkpt lat="48.76126" lon="2.512">
        <ele>131.61</ele>
        <time>2018-10-14T10:04:15Z</time>
      </trkpt>
      <trkpt lat="48.76127" lon="2.51196">
        <ele>131.503</ele>
        <time>2018-10-14T10:04:18Z</time>
      </trkpt>
      <trkpt lat="48.76126" lon="2.51189">
        <ele>131.397</ele>
        <time>2018-10-14T10:04:21Z</time>
      </trkpt>
      <trkpt lat="48.76125" lon="2.51182">
        <ele>131.327</ele>
        <time>2018-10-14T10:04:23Z</time>
      </trkpt>
      <trkpt lat="48.76125" lon="2.51177">
        <ele>131.221</ele>
        <time>2018-10-14T10:04:26Z</time>
      </trkpt>
      <trkpt lat="48.76125" lon="2.51169">
        <ele>131.043</ele>
        <time>2018-10-14T10:04:31Z</time>
      </trkpt>
      <trkpt lat="48.76126" lon="2.51161">
        <ele>130.861</ele>
        <time>2018-10-14T10:04:36Z</time>
      </trkpt>
      <trkpt lat="48.76126" lon="2.51153">
        <ele>130.747</ele>
        <time>2018-10-14T10:04:39Z</time>
      </trkpt>
      <trkpt lat="48.76128" lon="2.51144">
        <ele>130.626</ele>
        <time>2018-10-14T10:04:42Z</time>
      </trkpt>
      <trkpt lat="48.76129" lon="2.51139">
        <ele>130.541</ele>
        <time>2018-10-14T10:04:44Z</time>
      </trkpt>
      <trkpt lat="48.76129" lon="2.51135">
        <ele>130.456</ele>
        <time>2018-10-14T10:04:46Z</time>
      </trkpt>
      <trkpt lat="48.7613" lon="2.51128">
        <ele>130.331</ele>
        <time>2018-10-14T10:04:49Z</time>
      </trkpt>
      <trkpt lat="48.76129" lon="2.5112">
        <ele>130.167</ele>
        <time>2018-10-14T10:04:53Z</time>
      </trkpt>
      <trkpt lat="48.76128" lon="2.51117">
        <ele>130.126</ele>
        <time>2018-10-14T10:04:54Z</time>
      </trkpt>
      <trkpt lat="48.76127" lon="2.51113">
        <ele>130.007</ele>
        <time>2018-10-14T10:04:57Z</time>
      </trkpt>
      <trkpt lat="48.76127" lon="2.51109">
        <ele>129.889</ele>
        <time>2018-10-14T10:05:00Z</time>
      </trkpt>
      <trkpt lat="48.76126" lon="2.51104">
        <ele>129.771</ele>
        <time>2018-10-14T10:05:03Z</time>
      </trkpt>
      <trkpt lat="48.76126" lon="2.51097">
        <ele>129.611</ele>
        <time>2018-10-14T10:05:07Z</time>
      </trkpt>
      <trkpt lat="48.76125" lon="2.51092">
        <ele>129.528</ele>
        <time>2018-10-14T10:05:09Z</time>
      </trkpt>
      <trkpt lat="48.76125" lon="2.51088">
        <ele>129.486</ele>
        <time>2018-10-14T10:05:10Z</time>
      </trkpt>
      <trkpt lat="48.76125" lon="2.51081">
        <ele>129.315</ele>
        <time>2018-10-14T10:05:14Z</time>
      </trkpt>
      <trkpt lat="48.76125" lon="2.51073">
        <ele>129.147</ele>
        <time>2018-10-14T10:05:18Z</time>
      </trkpt>
      <trkpt lat="48.76125" lon="2.5107">
        <ele>129.06</ele>
        <time>2018-10-14T10:05:20Z</time>
      </trkpt>
      <trkpt lat="48.76125" lon="2.51065">
        <ele>128.93</ele>
        <time>2018-10-14T10:05:23Z</time>
      </trkpt>
      <trkpt lat="48.76124" lon="2.51061">
        <ele>128.795</ele>
        <time>2018-10-14T10:05:26Z</time>
      </trkpt>
      <trkpt lat="48.76125" lon="2.51054">
        <ele>128.563</ele>
        <time>2018-10-14T10:05:31Z</time>
      </trkpt>
      <trkpt lat="48.76129" lon="2.51046">
        <ele>128.335</ele>
        <time>2018-10-14T10:05:36Z</time>
      </trkpt>
      <trkpt lat="48.76134" lon="2.51041">
        <ele>128.205</ele>
        <time>2018-10-14T10:05:39Z</time>
      </trkpt>
      <trkpt lat="48.76136" lon="2.51038">
        <ele>128.122</ele>
        <time>2018-10-14T10:05:41Z</time>
      </trkpt>
      <trkpt lat="48.7614" lon="2.51034">
        <ele>128.001</ele>
        <time>2018-10-14T10:05:44Z</time>
      </trkpt>
      <trkpt lat="48.76144" lon="2.51028">
        <ele>127.77</ele>
        <time>2018-10-14T10:05:50Z</time>
      </trkpt>
      <trkpt lat="48.76149" lon="2.51024">
        <ele>127.621</ele>
        <time>2018-10-14T10:05:54Z</time>
      </trkpt>
      <trkpt lat="48.76151" lon="2.51017">
        <ele>127.441</ele>
        <time>2018-10-14T10:05:59Z</time>
      </trkpt>
      <trkpt lat="48.76155" lon="2.51013">
        <ele>127.334</ele>
        <time>2018-10-14T10:06:02Z</time>
      </trkpt>
      <trkpt lat="48.76158" lon="2.51005">
        <ele>127.227</ele>
        <time>2018-10-14T10:06:05Z</time>
      </trkpt>
      <trkpt lat="48.76158" lon="2.50997">
        <ele>127.08</ele>
        <time>2018-10-14T10:06:09Z</time>
      </trkpt>
      <trkpt lat="48.76158" lon="2.50997">
        <ele>127.08</ele>
        <time>2018-10-14T10:06:17Z</time>
      </trkpt>
      <trkpt lat="48.76158" lon="2.50997">
        <ele>46</ele>
        <time>2018-10-14T10:06:17Z</time>
      </trkpt>
      <trkpt lat="48.76158" lon="2.50997">
        <ele>46</ele>
        <time>2018-10-14T10:07:18Z</time>
      </trkpt>
      <trkpt lat="48.76133" lon="2.50982">
        <ele>125.588</ele>
        <time>2018-10-14T10:07:18Z</time>
      </trkpt>
      <trkpt lat="48.76131" lon="2.50982">
        <ele>125.462</ele>
        <time>2018-10-14T10:07:22Z</time>
      </trkpt>
      <trkpt lat="48.76125" lon="2.5098">
        <ele>125.284</ele>
        <time>2018-10-14T10:07:28Z</time>
      </trkpt>
      <trkpt lat="48.76123" lon="2.50979">
        <ele>125.229</ele>
        <time>2018-10-14T10:07:30Z</time>
      </trkpt>
      <trkpt lat="48.76119" lon="2.50974">
        <ele>125.123</ele>
        <time>2018-10-14T10:07:34Z</time>
      </trkpt>
      <trkpt lat="48.76115" lon="2.5097">
        <ele>125.017</ele>
        <time>2018-10-14T10:07:39Z</time>
      </trkpt>
      <trkpt lat="48.7611" lon="2.50967">
        <ele>124.931</ele>
        <time>2018-10-14T10:07:43Z</time>
      </trkpt>
      <trkpt lat="48.76107" lon="2.50966">
        <ele>124.902</ele>
        <time>2018-10-14T10:07:44Z</time>
      </trkpt>
      <trkpt lat="48.761" lon="2.50961">
        <ele>124.847</ele>
        <time>2018-10-14T10:07:46Z</time>
      </trkpt>
      <trkpt lat="48.76097" lon="2.50954">
        <ele>124.765</ele>
        <time>2018-10-14T10:07:49Z</time>
      </trkpt>
      <trkpt lat="48.76093" lon="2.50949">
        <ele>124.661</ele>
        <time>2018-10-14T10:07:53Z</time>
      </trkpt>
      <trkpt lat="48.76089" lon="2.50944">
        <ele>124.585</ele>
        <time>2018-10-14T10:07:56Z</time>
      </trkpt>
      <trkpt lat="48.76087" lon="2.50941">
        <ele>124.535</ele>
        <time>2018-10-14T10:07:58Z</time>
      </trkpt>
      <trkpt lat="48.76086" lon="2.50934">
        <ele>124.435</ele>
        <time>2018-10-14T10:08:02Z</time>
      </trkpt>
      <trkpt lat="48.76083" lon="2.50924">
        <ele>124.286</ele>
        <time>2018-10-14T10:08:08Z</time>
      </trkpt>
      <trkpt lat="48.76081" lon="2.50917">
        <ele>124.215</ele>
        <time>2018-10-14T10:08:11Z</time>
      </trkpt>
      <trkpt lat="48.76077" lon="2.50911">
        <ele>124.074</ele>
        <time>2018-10-14T10:08:17Z</time>
      </trkpt>
      <trkpt lat="48.76074" lon="2.50907">
        <ele>124.005</ele>
        <time>2018-10-14T10:08:20Z</time>
      </trkpt>
      <trkpt lat="48.76071" lon="2.50903">
        <ele>123.959</ele>
        <time>2018-10-14T10:08:22Z</time>
      </trkpt>
      <trkpt lat="48.76066" lon="2.509">
        <ele>123.89</ele>
        <time>2018-10-14T10:08:25Z</time>
      </trkpt>
      <trkpt lat="48.76062" lon="2.50896">
        <ele>123.824</ele>
        <time>2018-10-14T10:08:28Z</time>
      </trkpt>
      <trkpt lat="48.76058" lon="2.50892">
        <ele>123.67</ele>
        <time>2018-10-14T10:08:35Z</time>
      </trkpt>
      <trkpt lat="48.76054" lon="2.50886">
        <ele>123.561</ele>
        <time>2018-10-14T10:08:40Z</time>
      </trkpt>
      <trkpt lat="48.76049" lon="2.50884">
        <ele>123.474</ele>
        <time>2018-10-14T10:08:44Z</time>
      </trkpt>
      <trkpt lat="48.76044" lon="2.50887">
        <ele>123.406</ele>
        <time>2018-10-14T10:08:47Z</time>
      </trkpt>
      <trkpt lat="48.76041" lon="2.50888">
        <ele>123.357</ele>
        <time>2018-10-14T10:08:49Z</time>
      </trkpt>
      <trkpt lat="48.76036" lon="2.50888">
        <ele>123.235</ele>
        <time>2018-10-14T10:08:54Z</time>
      </trkpt>
      <trkpt lat="48.76032" lon="2.50889">
        <ele>123.163</ele>
        <time>2018-10-14T10:08:57Z</time>
      </trkpt>
      <trkpt lat="48.76027" lon="2.50888">
        <ele>123.116</ele>
        <time>2018-10-14T10:08:59Z</time>
      </trkpt>
      <trkpt lat="48.76022" lon="2.50886">
        <ele>123.044</ele>
        <time>2018-10-14T10:09:02Z</time>
      </trkpt>
      <trkpt lat="48.76019" lon="2.50885">
        <ele>122.972</ele>
        <time>2018-10-14T10:09:05Z</time>
      </trkpt>
      <trkpt lat="48.76014" lon="2.50886">
        <ele>122.902</ele>
        <time>2018-10-14T10:09:08Z</time>
      </trkpt>
      <trkpt lat="48.7601" lon="2.50886">
        <ele>122.789</ele>
        <time>2018-10-14T10:09:13Z</time>
      </trkpt>
      <trkpt lat="48.76006" lon="2.50891">
        <ele>122.701</ele>
        <time>2018-10-14T10:09:17Z</time>
      </trkpt>
      <trkpt lat="48.76003" lon="2.50896">
        <ele>122.632</ele>
        <time>2018-10-14T10:09:20Z</time>
      </trkpt>
      <trkpt lat="48.75998" lon="2.50898">
        <ele>122.47</ele>
        <time>2018-10-14T10:09:28Z</time>
      </trkpt>
      <trkpt lat="48.75994" lon="2.509">
        <ele>122.426</ele>
        <time>2018-10-14T10:09:30Z</time>
      </trkpt>
      <trkpt lat="48.75989" lon="2.50904">
        <ele>122.358</ele>
        <time>2018-10-14T10:09:33Z</time>
      </trkpt>
      <trkpt lat="48.75985" lon="2.50904">
        <ele>122.288</ele>
        <time>2018-10-14T10:09:36Z</time>
      </trkpt>
      <trkpt lat="48.7598" lon="2.50901">
        <ele>122.216</ele>
        <time>2018-10-14T10:09:39Z</time>
      </trkpt>
      <trkpt lat="48.75977" lon="2.509">
        <ele>122.168</ele>
        <time>2018-10-14T10:09:41Z</time>
      </trkpt>
      <trkpt lat="48.75971" lon="2.50898">
        <ele>122.073</ele>
        <time>2018-10-14T10:09:45Z</time>
      </trkpt>
      <trkpt lat="48.75966" lon="2.50893">
        <ele>121.977</ele>
        <time>2018-10-14T10:09:49Z</time>
      </trkpt>
      <trkpt lat="48.75962" lon="2.50887">
        <ele>121.884</ele>
        <time>2018-10-14T10:09:53Z</time>
      </trkpt>
      <trkpt lat="48.75957" lon="2.50884">
        <ele>121.791</ele>
        <time>2018-10-14T10:09:57Z</time>
      </trkpt>
      <trkpt lat="48.75953" lon="2.50881">
        <ele>121.636</ele>
        <time>2018-10-14T10:10:04Z</time>
      </trkpt>
      <trkpt lat="48.75949" lon="2.50879">
        <ele>121.472</ele>
        <time>2018-10-14T10:10:11Z</time>
      </trkpt>
      <trkpt lat="48.75946" lon="2.50878">
        <ele>121.426</ele>
        <time>2018-10-14T10:10:13Z</time>
      </trkpt>
      <trkpt lat="48.75943" lon="2.50876">
        <ele>121.356</ele>
        <time>2018-10-14T10:10:16Z</time>
      </trkpt>
      <trkpt lat="48.75941" lon="2.50869">
        <ele>121.262</ele>
        <time>2018-10-14T10:10:20Z</time>
      </trkpt>
      <trkpt lat="48.75937" lon="2.50865">
        <ele>121.145</ele>
        <time>2018-10-14T10:10:25Z</time>
      </trkpt>
      <trkpt lat="48.75933" lon="2.50861">
        <ele>121.077</ele>
        <time>2018-10-14T10:10:28Z</time>
      </trkpt>
      <trkpt lat="48.75927" lon="2.50858">
        <ele>121.01</ele>
        <time>2018-10-14T10:10:31Z</time>
      </trkpt>
      <trkpt lat="48.75922" lon="2.50852">
        <ele>120.922</ele>
        <time>2018-10-14T10:10:35Z</time>
      </trkpt>
      <trkpt lat="48.7592" lon="2.50849">
        <ele>120.879</ele>
        <time>2018-10-14T10:10:37Z</time>
      </trkpt>
      <trkpt lat="48.75917" lon="2.50846">
        <ele>120.815</ele>
        <time>2018-10-14T10:10:40Z</time>
      </trkpt>
      <trkpt lat="48.75913" lon="2.50837">
        <ele>120.715</ele>
        <time>2018-10-14T10:10:45Z</time>
      </trkpt>
      <trkpt lat="48.75911" lon="2.5083">
        <ele>120.637</ele>
        <time>2018-10-14T10:10:49Z</time>
      </trkpt>
      <trkpt lat="48.75906" lon="2.50825">
        <ele>120.54</ele>
        <time>2018-10-14T10:10:54Z</time>
      </trkpt>
      <trkpt lat="48.75902" lon="2.50818">
        <ele>120.481</ele>
        <time>2018-10-14T10:10:57Z</time>
      </trkpt>
      <trkpt lat="48.75899" lon="2.50814">
        <ele>120.441</ele>
        <time>2018-10-14T10:10:59Z</time>
      </trkpt>
      <trkpt lat="48.75892" lon="2.50809">
        <ele>120.382</ele>
        <time>2018-10-14T10:11:02Z</time>
      </trkpt>
      <trkpt lat="48.75889" lon="2.50806">
        <ele>120.344</ele>
        <time>2018-10-14T10:11:04Z</time>
      </trkpt>
      <trkpt lat="48.75884" lon="2.50804">
        <ele>120.267</ele>
        <time>2018-10-14T10:11:08Z</time>
      </trkpt>
      <trkpt lat="48.7588" lon="2.50799">
        <ele>120.172</ele>
        <time>2018-10-14T10:11:13Z</time>
      </trkpt>
      <trkpt lat="48.75876" lon="2.50796">
        <ele>120.113</ele>
        <time>2018-10-14T10:11:17Z</time>
      </trkpt>
      <trkpt lat="48.75871" lon="2.50797">
        <ele>120.058</ele>
        <time>2018-10-14T10:11:20Z</time>
      </trkpt>
      <trkpt lat="48.75867" lon="2.50797">
        <ele>120.003</ele>
        <time>2018-10-14T10:11:23Z</time>
      </trkpt>
      <trkpt lat="48.75863" lon="2.508">
        <ele>119.929</ele>
        <time>2018-10-14T10:11:27Z</time>
      </trkpt>
      <trkpt lat="48.75857" lon="2.50804">
        <ele>119.855</ele>
        <time>2018-10-14T10:11:31Z</time>
      </trkpt>
      <trkpt lat="48.75853" lon="2.50807">
        <ele>119.797</ele>
        <time>2018-10-14T10:11:34Z</time>
      </trkpt>
      <trkpt lat="48.75849" lon="2.50813">
        <ele>119.737</ele>
        <time>2018-10-14T10:11:37Z</time>
      </trkpt>
      <trkpt lat="48.75846" lon="2.50821">
        <ele>119.67</ele>
        <time>2018-10-14T10:11:40Z</time>
      </trkpt>
      <trkpt lat="48.75844" lon="2.50824">
        <ele>119.645</ele>
        <time>2018-10-14T10:11:41Z</time>
      </trkpt>
      <trkpt lat="48.75843" lon="2.50827">
        <ele>119.619</ele>
        <time>2018-10-14T10:11:42Z</time>
      </trkpt>
      <trkpt lat="48.75841" lon="2.50832">
        <ele>119.563</ele>
        <time>2018-10-14T10:11:44Z</time>
      </trkpt>
      <trkpt lat="48.75838" lon="2.50837">
        <ele>119.503</ele>
        <time>2018-10-14T10:11:46Z</time>
      </trkpt>
      <trkpt lat="48.75837" lon="2.50844">
        <ele>119.403</ele>
        <time>2018-10-14T10:11:49Z</time>
      </trkpt>
      <trkpt lat="48.75836" lon="2.50849">
        <ele>119.211</ele>
        <time>2018-10-14T10:11:54Z</time>
      </trkpt>
      <trkpt lat="48.75836" lon="2.50849">
        <ele>47.6</ele>
        <time>2018-10-14T10:11:59Z</time>
      </trkpt>
      <trkpt lat="48.75836" lon="2.50849">
        <ele>47.6</ele>
        <time>2018-10-14T10:15:25Z</time>
      </trkpt>
      <trkpt lat="48.75828" lon="2.50884">
        <ele>114.016</ele>
        <time>2018-10-14T10:15:25Z</time>
      </trkpt>
      <trkpt lat="48.75826" lon="2.50887">
        <ele>113.833</ele>
        <time>2018-10-14T10:15:28Z</time>
      </trkpt>
      <trkpt lat="48.75824" lon="2.50891">
        <ele>113.659</ele>
        <time>2018-10-14T10:15:31Z</time>
      </trkpt>
      <trkpt lat="48.75822" lon="2.50894">
        <ele>113.547</ele>
        <time>2018-10-14T10:15:33Z</time>
      </trkpt>
      <trkpt lat="48.75819" lon="2.50899">
        <ele>113.332</ele>
        <time>2018-10-14T10:15:37Z</time>
      </trkpt>
      <trkpt lat="48.75816" lon="2.50905">
        <ele>113.08</ele>
        <time>2018-10-14T10:15:42Z</time>
      </trkpt>
      <trkpt lat="48.75813" lon="2.5091">
        <ele>112.85</ele>
        <time>2018-10-14T10:15:47Z</time>
      </trkpt>
      <trkpt lat="48.75809" lon="2.50914">
        <ele>112.72</ele>
        <time>2018-10-14T10:15:50Z</time>
      </trkpt>
      <trkpt lat="48.75807" lon="2.50917">
        <ele>112.596</ele>
        <time>2018-10-14T10:15:53Z</time>
      </trkpt>
      <trkpt lat="48.75803" lon="2.50925">
        <ele>112.44</ele>
        <time>2018-10-14T10:15:57Z</time>
      </trkpt>
      <trkpt lat="48.75801" lon="2.50932">
        <ele>112.366</ele>
        <time>2018-10-14T10:15:59Z</time>
      </trkpt>
      <trkpt lat="48.75799" lon="2.50938">
        <ele>112.258</ele>
        <time>2018-10-14T10:16:02Z</time>
      </trkpt>
      <trkpt lat="48.75798" lon="2.50941">
        <ele>112.189</ele>
        <time>2018-10-14T10:16:04Z</time>
      </trkpt>
      <trkpt lat="48.75795" lon="2.50949">
        <ele>112.086</ele>
        <time>2018-10-14T10:16:07Z</time>
      </trkpt>
      <trkpt lat="48.75793" lon="2.50953">
        <ele>112.017</ele>
        <time>2018-10-14T10:16:09Z</time>
      </trkpt>
      <trkpt lat="48.75792" lon="2.50957">
        <ele>111.949</ele>
        <time>2018-10-14T10:16:11Z</time>
      </trkpt>
      <trkpt lat="48.75788" lon="2.50965">
        <ele>111.817</ele>
        <time>2018-10-14T10:16:15Z</time>
      </trkpt>
      <trkpt lat="48.75785" lon="2.50972">
        <ele>111.661</ele>
        <time>2018-10-14T10:16:20Z</time>
      </trkpt>
      <trkpt lat="48.75783" lon="2.50977">
        <ele>111.57</ele>
        <time>2018-10-14T10:16:23Z</time>
      </trkpt>
      <trkpt lat="48.75781" lon="2.50983">
        <ele>111.416</ele>
        <time>2018-10-14T10:16:28Z</time>
      </trkpt>
      <trkpt lat="48.75778" lon="2.50991">
        <ele>111.292</ele>
        <time>2018-10-14T10:16:32Z</time>
      </trkpt>
      <trkpt lat="48.75776" lon="2.50994">
        <ele>111.229</ele>
        <time>2018-10-14T10:16:34Z</time>
      </trkpt>
      <trkpt lat="48.75774" lon="2.51001">
        <ele>111.078</ele>
        <time>2018-10-14T10:16:39Z</time>
      </trkpt>
      <trkpt lat="48.75773" lon="2.51006">
        <ele>110.993</ele>
        <time>2018-10-14T10:16:42Z</time>
      </trkpt>
      <trkpt lat="48.75773" lon="2.51009">
        <ele>110.937</ele>
        <time>2018-10-14T10:16:44Z</time>
      </trkpt>
      <trkpt lat="48.75772" lon="2.51013">
        <ele>110.883</ele>
        <time>2018-10-14T10:16:46Z</time>
      </trkpt>
      <trkpt lat="48.75768" lon="2.5102">
        <ele>110.782</ele>
        <time>2018-10-14T10:16:50Z</time>
      </trkpt>
      <trkpt lat="48.75764" lon="2.51026">
        <ele>110.687</ele>
        <time>2018-10-14T10:16:54Z</time>
      </trkpt>
      <trkpt lat="48.75761" lon="2.51033">
        <ele>110.57</ele>
        <time>2018-10-14T10:16:59Z</time>
      </trkpt>
      <trkpt lat="48.75759" lon="2.51038">
        <ele>110.523</ele>
        <time>2018-10-14T10:17:01Z</time>
      </trkpt>
      <trkpt lat="48.75758" lon="2.51041">
        <ele>110.478</ele>
        <time>2018-10-14T10:17:03Z</time>
      </trkpt>
      <trkpt lat="48.75756" lon="2.51045">
        <ele>110.433</ele>
        <time>2018-10-14T10:17:05Z</time>
      </trkpt>
      <trkpt lat="48.75755" lon="2.51048">
        <ele>110.388</ele>
        <time>2018-10-14T10:17:07Z</time>
      </trkpt>
      <trkpt lat="48.75752" lon="2.51054">
        <ele>110.322</ele>
        <time>2018-10-14T10:17:10Z</time>
      </trkpt>
      <trkpt lat="48.75749" lon="2.51062">
        <ele>110.254</ele>
        <time>2018-10-14T10:17:13Z</time>
      </trkpt>
      <trkpt lat="48.75747" lon="2.51067">
        <ele>110.209</ele>
        <time>2018-10-14T10:17:15Z</time>
      </trkpt>
      <trkpt lat="48.75746" lon="2.51074">
        <ele>110.095</ele>
        <time>2018-10-14T10:17:20Z</time>
      </trkpt>
      <trkpt lat="48.75743" lon="2.51081">
        <ele>110.006</ele>
        <time>2018-10-14T10:17:24Z</time>
      </trkpt>
      <trkpt lat="48.75741" lon="2.51085">
        <ele>109.963</ele>
        <time>2018-10-14T10:17:26Z</time>
      </trkpt>
      <trkpt lat="48.75738" lon="2.51092">
        <ele>109.875</ele>
        <time>2018-10-14T10:17:30Z</time>
      </trkpt>
      <trkpt lat="48.75737" lon="2.51096">
        <ele>109.83</ele>
        <time>2018-10-14T10:17:32Z</time>
      </trkpt>
      <trkpt lat="48.75734" lon="2.51103">
        <ele>109.699</ele>
        <time>2018-10-14T10:17:38Z</time>
      </trkpt>
      <trkpt lat="48.75732" lon="2.5111">
        <ele>109.633</ele>
        <time>2018-10-14T10:17:41Z</time>
      </trkpt>
      <trkpt lat="48.75729" lon="2.51116">
        <ele>109.565</ele>
        <time>2018-10-14T10:17:44Z</time>
      </trkpt>
      <trkpt lat="48.75728" lon="2.51121">
        <ele>109.501</ele>
        <time>2018-10-14T10:17:47Z</time>
      </trkpt>
      <trkpt lat="48.75726" lon="2.51127">
        <ele>109.418</ele>
        <time>2018-10-14T10:17:51Z</time>
      </trkpt>
      <trkpt lat="48.75723" lon="2.51134">
        <ele>109.321</ele>
        <time>2018-10-14T10:17:56Z</time>
      </trkpt>
      <trkpt lat="48.75722" lon="2.51138">
        <ele>109.282</ele>
        <time>2018-10-14T10:17:58Z</time>
      </trkpt>
      <trkpt lat="48.7572" lon="2.51142">
        <ele>109.243</ele>
        <time>2018-10-14T10:18:00Z</time>
      </trkpt>
      <trkpt lat="48.75716" lon="2.51148">
        <ele>109.166</ele>
        <time>2018-10-14T10:18:04Z</time>
      </trkpt>
      <trkpt lat="48.75714" lon="2.51152">
        <ele>109.128</ele>
        <time>2018-10-14T10:18:06Z</time>
      </trkpt>
      <trkpt lat="48.75712" lon="2.51159">
        <ele>109.053</ele>
        <time>2018-10-14T10:18:10Z</time>
      </trkpt>
      <trkpt lat="48.75711" lon="2.51163">
        <ele>109.018</ele>
        <time>2018-10-14T10:18:12Z</time>
      </trkpt>
      <trkpt lat="48.7571" lon="2.51167">
        <ele>108.982</ele>
        <time>2018-10-14T10:18:14Z</time>
      </trkpt>
      <trkpt lat="48.75709" lon="2.51174">
        <ele>108.911</ele>
        <time>2018-10-14T10:18:18Z</time>
      </trkpt>
      <trkpt lat="48.75705" lon="2.51178">
        <ele>108.845</ele>
        <time>2018-10-14T10:18:22Z</time>
      </trkpt>
      <trkpt lat="48.75702" lon="2.51182">
        <ele>108.8</ele>
        <time>2018-10-14T10:18:25Z</time>
      </trkpt>
      <trkpt lat="48.75699" lon="2.51185">
        <ele>108.772</ele>
        <time>2018-10-14T10:18:27Z</time>
      </trkpt>
      <trkpt lat="48.75696" lon="2.51191">
        <ele>108.731</ele>
        <time>2018-10-14T10:18:30Z</time>
      </trkpt>
      <trkpt lat="48.75693" lon="2.51195">
        <ele>108.705</ele>
        <time>2018-10-14T10:18:32Z</time>
      </trkpt>
      <trkpt lat="48.75692" lon="2.51201">
        <ele>108.653</ele>
        <time>2018-10-14T10:18:36Z</time>
      </trkpt>
      <trkpt lat="48.75688" lon="2.51209">
        <ele>108.603</ele>
        <time>2018-10-14T10:18:40Z</time>
      </trkpt>
      <trkpt lat="48.75686" lon="2.51213">
        <ele>108.579</ele>
        <time>2018-10-14T10:18:42Z</time>
      </trkpt>
      <trkpt lat="48.75684" lon="2.5122">
        <ele>108.534</ele>
        <time>2018-10-14T10:18:46Z</time>
      </trkpt>
      <trkpt lat="48.75682" lon="2.51226">
        <ele>108.492</ele>
        <time>2018-10-14T10:18:50Z</time>
      </trkpt>
      <trkpt lat="48.75682" lon="2.51229">
        <ele>108.472</ele>
        <time>2018-10-14T10:18:52Z</time>
      </trkpt>
      <trkpt lat="48.75681" lon="2.51236">
        <ele>108.445</ele>
        <time>2018-10-14T10:18:55Z</time>
      </trkpt>
      <trkpt lat="48.75678" lon="2.51243">
        <ele>108.408</ele>
        <time>2018-10-14T10:19:00Z</time>
      </trkpt>
      <trkpt lat="48.75676" lon="2.5125">
        <ele>108.374</ele>
        <time>2018-10-14T10:19:06Z</time>
      </trkpt>
      <trkpt lat="48.75672" lon="2.51257">
        <ele>108.364</ele>
        <time>2018-10-14T10:19:09Z</time>
      </trkpt>
      <trkpt lat="48.7567" lon="2.51261">
        <ele>108.36</ele>
        <time>2018-10-14T10:19:11Z</time>
      </trkpt>
      <trkpt lat="48.75668" lon="2.51268">
        <ele>108.354</ele>
        <time>2018-10-14T10:19:15Z</time>
      </trkpt>
      <trkpt lat="48.75664" lon="2.51275">
        <ele>108.347</ele>
        <time>2018-10-14T10:19:19Z</time>
      </trkpt>
      <trkpt lat="48.75663" lon="2.51282">
        <ele>108.337</ele>
        <time>2018-10-14T10:19:23Z</time>
      </trkpt>
      <trkpt lat="48.75659" lon="2.5129">
        <ele>108.324</ele>
        <time>2018-10-14T10:19:30Z</time>
      </trkpt>
      <trkpt lat="48.75658" lon="2.51294">
        <ele>108.32</ele>
        <time>2018-10-14T10:19:32Z</time>
      </trkpt>
      <trkpt lat="48.75656" lon="2.51301">
        <ele>108.315</ele>
        <time>2018-10-14T10:19:35Z</time>
      </trkpt>
      <trkpt lat="48.75653" lon="2.51306">
        <ele>108.31</ele>
        <time>2018-10-14T10:19:38Z</time>
      </trkpt>
      <trkpt lat="48.75651" lon="2.5131">
        <ele>108.306</ele>
        <time>2018-10-14T10:19:40Z</time>
      </trkpt>
      <trkpt lat="48.75649" lon="2.51314">
        <ele>108.301</ele>
        <time>2018-10-14T10:19:43Z</time>
      </trkpt>
      <trkpt lat="48.75646" lon="2.51322">
        <ele>108.297</ele>
        <time>2018-10-14T10:19:50Z</time>
      </trkpt>
      <trkpt lat="48.75643" lon="2.51327">
        <ele>108.3</ele>
        <time>2018-10-14T10:19:53Z</time>
      </trkpt>
      <trkpt lat="48.75641" lon="2.51331">
        <ele>108.303</ele>
        <time>2018-10-14T10:19:55Z</time>
      </trkpt>
      <trkpt lat="48.75638" lon="2.51338">
        <ele>108.311</ele>
        <time>2018-10-14T10:19:59Z</time>
      </trkpt>
      <trkpt lat="48.75636" lon="2.51344">
        <ele>108.322</ele>
        <time>2018-10-14T10:20:03Z</time>
      </trkpt>
      <trkpt lat="48.75633" lon="2.51352">
        <ele>108.336</ele>
        <time>2018-10-14T10:20:07Z</time>
      </trkpt>
      <trkpt lat="48.7563" lon="2.5136">
        <ele>108.353</ele>
        <time>2018-10-14T10:20:11Z</time>
      </trkpt>
      <trkpt lat="48.75628" lon="2.51364">
        <ele>108.365</ele>
        <time>2018-10-14T10:20:13Z</time>
      </trkpt>
      <trkpt lat="48.75625" lon="2.51369">
        <ele>108.389</ele>
        <time>2018-10-14T10:20:16Z</time>
      </trkpt>
      <trkpt lat="48.75623" lon="2.51375">
        <ele>108.437</ele>
        <time>2018-10-14T10:20:21Z</time>
      </trkpt>
      <trkpt lat="48.75622" lon="2.51379">
        <ele>108.458</ele>
        <time>2018-10-14T10:20:23Z</time>
      </trkpt>
      <trkpt lat="48.75619" lon="2.51385">
        <ele>108.505</ele>
        <time>2018-10-14T10:20:27Z</time>
      </trkpt>
      <trkpt lat="48.75616" lon="2.51392">
        <ele>108.555</ele>
        <time>2018-10-14T10:20:31Z</time>
      </trkpt>
      <trkpt lat="48.75614" lon="2.51398">
        <ele>108.58</ele>
        <time>2018-10-14T10:20:33Z</time>
      </trkpt>
      <trkpt lat="48.75611" lon="2.51403">
        <ele>108.635</ele>
        <time>2018-10-14T10:20:37Z</time>
      </trkpt>
      <trkpt lat="48.75609" lon="2.5141">
        <ele>108.711</ele>
        <time>2018-10-14T10:20:42Z</time>
      </trkpt>
      <trkpt lat="48.75606" lon="2.51417">
        <ele>108.778</ele>
        <time>2018-10-14T10:20:46Z</time>
      </trkpt>
      <trkpt lat="48.75603" lon="2.51424">
        <ele>108.851</ele>
        <time>2018-10-14T10:20:50Z</time>
      </trkpt>
      <trkpt lat="48.75601" lon="2.51433">
        <ele>108.929</ele>
        <time>2018-10-14T10:20:54Z</time>
      </trkpt>
      <trkpt lat="48.756" lon="2.51438">
        <ele>108.969</ele>
        <time>2018-10-14T10:20:56Z</time>
      </trkpt>
      <trkpt lat="48.75596" lon="2.51443">
        <ele>109.07</ele>
        <time>2018-10-14T10:21:01Z</time>
      </trkpt>
      <trkpt lat="48.75594" lon="2.51446">
        <ele>109.11</ele>
        <time>2018-10-14T10:21:03Z</time>
      </trkpt>
      <trkpt lat="48.75592" lon="2.51452">
        <ele>109.207</ele>
        <time>2018-10-14T10:21:08Z</time>
      </trkpt>
      <trkpt lat="48.75588" lon="2.51459">
        <ele>109.278</ele>
        <time>2018-10-14T10:21:12Z</time>
      </trkpt>
      <trkpt lat="48.75585" lon="2.51464">
        <ele>109.366</ele>
        <time>2018-10-14T10:21:17Z</time>
      </trkpt>
      <trkpt lat="48.75582" lon="2.51471">
        <ele>109.459</ele>
        <time>2018-10-14T10:21:22Z</time>
      </trkpt>
      <trkpt lat="48.75579" lon="2.51478">
        <ele>109.536</ele>
        <time>2018-10-14T10:21:26Z</time>
      </trkpt>
      <trkpt lat="48.75577" lon="2.51486">
        <ele>109.618</ele>
        <time>2018-10-14T10:21:30Z</time>
      </trkpt>
      <trkpt lat="48.75576" lon="2.51493">
        <ele>109.685</ele>
        <time>2018-10-14T10:21:33Z</time>
      </trkpt>
      <trkpt lat="48.75573" lon="2.51498">
        <ele>109.806</ele>
        <time>2018-10-14T10:21:38Z</time>
      </trkpt>
      <trkpt lat="48.75569" lon="2.51506">
        <ele>109.881</ele>
        <time>2018-10-14T10:21:41Z</time>
      </trkpt>
      <trkpt lat="48.75568" lon="2.51513">
        <ele>110.055</ele>
        <time>2018-10-14T10:21:48Z</time>
      </trkpt>
      <trkpt lat="48.75565" lon="2.51522">
        <ele>110.177</ele>
        <time>2018-10-14T10:21:53Z</time>
      </trkpt>
      <trkpt lat="48.75562" lon="2.51527">
        <ele>110.279</ele>
        <time>2018-10-14T10:21:57Z</time>
      </trkpt>
      <trkpt lat="48.75561" lon="2.51533">
        <ele>110.355</ele>
        <time>2018-10-14T10:22:00Z</time>
      </trkpt>
      <trkpt lat="48.75559" lon="2.51537">
        <ele>110.407</ele>
        <time>2018-10-14T10:22:02Z</time>
      </trkpt>
      <trkpt lat="48.75558" lon="2.51541">
        <ele>110.457</ele>
        <time>2018-10-14T10:22:04Z</time>
      </trkpt>
      <trkpt lat="48.75555" lon="2.51548">
        <ele>110.619</ele>
        <time>2018-10-14T10:22:10Z</time>
      </trkpt>
      <trkpt lat="48.75553" lon="2.51553">
        <ele>110.674</ele>
        <time>2018-10-14T10:22:12Z</time>
      </trkpt>
      <trkpt lat="48.75551" lon="2.51556">
        <ele>110.729</ele>
        <time>2018-10-14T10:22:14Z</time>
      </trkpt>
      <trkpt lat="48.7555" lon="2.5156">
        <ele>110.784</ele>
        <time>2018-10-14T10:22:16Z</time>
      </trkpt>
      <trkpt lat="48.75549" lon="2.51564">
        <ele>110.868</ele>
        <time>2018-10-14T10:22:19Z</time>
      </trkpt>
      <trkpt lat="48.75546" lon="2.5157">
        <ele>110.981</ele>
        <time>2018-10-14T10:22:23Z</time>
      </trkpt>
      <trkpt lat="48.75543" lon="2.51576">
        <ele>111.097</ele>
        <time>2018-10-14T10:22:27Z</time>
      </trkpt>
      <trkpt lat="48.75539" lon="2.5158">
        <ele>111.304</ele>
        <time>2018-10-14T10:22:34Z</time>
      </trkpt>
      <trkpt lat="48.75536" lon="2.51587">
        <ele>111.507</ele>
        <time>2018-10-14T10:22:41Z</time>
      </trkpt>
      <trkpt lat="48.75532" lon="2.51589">
        <ele>111.662</ele>
        <time>2018-10-14T10:22:46Z</time>
      </trkpt>
      <trkpt lat="48.75528" lon="2.51595">
        <ele>111.792</ele>
        <time>2018-10-14T10:22:50Z</time>
      </trkpt>
      <trkpt lat="48.75525" lon="2.51601">
        <ele>112.063</ele>
        <time>2018-10-14T10:22:58Z</time>
      </trkpt>
      <trkpt lat="48.75524" lon="2.51608">
        <ele>112.235</ele>
        <time>2018-10-14T10:23:03Z</time>
      </trkpt>
      <trkpt lat="48.75523" lon="2.51612">
        <ele>112.335</ele>
        <time>2018-10-14T10:23:06Z</time>
      </trkpt>
      <trkpt lat="48.75521" lon="2.51619">
        <ele>112.468</ele>
        <time>2018-10-14T10:23:10Z</time>
      </trkpt>
      <trkpt lat="48.75517" lon="2.51623">
        <ele>112.567</ele>
        <time>2018-10-14T10:23:13Z</time>
      </trkpt>
      <trkpt lat="48.75512" lon="2.51622">
        <ele>112.6</ele>
        <time>2018-10-14T10:23:14Z</time>
      </trkpt>
      <trkpt lat="48.75512" lon="2.51622">
        <ele>84.7</ele>
        <time>2018-10-14T10:23:21Z</time>
      </trkpt>
      <trkpt lat="48.75512" lon="2.51622">
        <ele>84.7</ele>
        <time>2018-10-14T10:24:04Z</time>
      </trkpt>
      <trkpt lat="48.75495" lon="2.51654">
        <ele>114.132</ele>
        <time>2018-10-14T10:24:04Z</time>
      </trkpt>
      <trkpt lat="48.75493" lon="2.51661">
        <ele>114.295</ele>
        <time>2018-10-14T10:24:10Z</time>
      </trkpt>
      <trkpt lat="48.75489" lon="2.51667">
        <ele>114.399</ele>
        <time>2018-10-14T10:24:14Z</time>
      </trkpt>
      <trkpt lat="48.75487" lon="2.51671">
        <ele>114.45</ele>
        <time>2018-10-14T10:24:16Z</time>
      </trkpt>
      <trkpt lat="48.75485" lon="2.51674">
        <ele>114.5</ele>
        <time>2018-10-14T10:24:18Z</time>
      </trkpt>
      <trkpt lat="48.75484" lon="2.51678">
        <ele>114.548</ele>
        <time>2018-10-14T10:24:20Z</time>
      </trkpt>
      <trkpt lat="48.75482" lon="2.51681">
        <ele>114.618</ele>
        <time>2018-10-14T10:24:23Z</time>
      </trkpt>
      <trkpt lat="48.75479" lon="2.51687">
        <ele>114.754</ele>
        <time>2018-10-14T10:24:29Z</time>
      </trkpt>
      <trkpt lat="48.75478" lon="2.51691">
        <ele>114.797</ele>
        <time>2018-10-14T10:24:31Z</time>
      </trkpt>
      <trkpt lat="48.75477" lon="2.51699">
        <ele>114.893</ele>
        <time>2018-10-14T10:24:35Z</time>
      </trkpt>
      <trkpt lat="48.75476" lon="2.51706">
        <ele>115.041</ele>
        <time>2018-10-14T10:24:41Z</time>
      </trkpt>
      <trkpt lat="48.75475" lon="2.51711">
        <ele>115.092</ele>
        <time>2018-10-14T10:24:43Z</time>
      </trkpt>
      <trkpt lat="48.75474" lon="2.51719">
        <ele>115.174</ele>
        <time>2018-10-14T10:24:46Z</time>
      </trkpt>
      <trkpt lat="48.75474" lon="2.51724">
        <ele>115.261</ele>
        <time>2018-10-14T10:24:49Z</time>
      </trkpt>
      <trkpt lat="48.7547" lon="2.5173">
        <ele>115.384</ele>
        <time>2018-10-14T10:24:53Z</time>
      </trkpt>
      <trkpt lat="48.75466" lon="2.51736">
        <ele>115.547</ele>
        <time>2018-10-14T10:24:58Z</time>
      </trkpt>
      <trkpt lat="48.75462" lon="2.51743">
        <ele>115.674</ele>
        <time>2018-10-14T10:25:02Z</time>
      </trkpt>
      <trkpt lat="48.75459" lon="2.51749">
        <ele>115.797</ele>
        <time>2018-10-14T10:25:06Z</time>
      </trkpt>
      <trkpt lat="48.75457" lon="2.51752">
        <ele>115.858</ele>
        <time>2018-10-14T10:25:08Z</time>
      </trkpt>
      <trkpt lat="48.75455" lon="2.51755">
        <ele>115.917</ele>
        <time>2018-10-14T10:25:10Z</time>
      </trkpt>
      <trkpt lat="48.75451" lon="2.51759">
        <ele>116.007</ele>
        <time>2018-10-14T10:25:13Z</time>
      </trkpt>
      <trkpt lat="48.75448" lon="2.51764">
        <ele>116.25</ele>
        <time>2018-10-14T10:25:21Z</time>
      </trkpt>
      <trkpt lat="48.75448" lon="2.51772">
        <ele>116.425</ele>
        <time>2018-10-14T10:25:26Z</time>
      </trkpt>
      <trkpt lat="48.75444" lon="2.51778">
        <ele>116.621</ele>
        <time>2018-10-14T10:25:31Z</time>
      </trkpt>
      <trkpt lat="48.75442" lon="2.51785">
        <ele>116.736</ele>
        <time>2018-10-14T10:25:34Z</time>
      </trkpt>
      <trkpt lat="48.7544" lon="2.51788">
        <ele>116.813</ele>
        <time>2018-10-14T10:25:36Z</time>
      </trkpt>
      <trkpt lat="48.75439" lon="2.51795">
        <ele>116.973</ele>
        <time>2018-10-14T10:25:40Z</time>
      </trkpt>
      <trkpt lat="48.75438" lon="2.51804">
        <ele>117.146</ele>
        <time>2018-10-14T10:25:44Z</time>
      </trkpt>
      <trkpt lat="48.75436" lon="2.51811">
        <ele>117.331</ele>
        <time>2018-10-14T10:25:48Z</time>
      </trkpt>
      <trkpt lat="48.75435" lon="2.51815">
        <ele>117.474</ele>
        <time>2018-10-14T10:25:51Z</time>
      </trkpt>
      <trkpt lat="48.75434" lon="2.51819">
        <ele>117.571</ele>
        <time>2018-10-14T10:25:53Z</time>
      </trkpt>
      <trkpt lat="48.75432" lon="2.51823">
        <ele>117.668</ele>
        <time>2018-10-14T10:25:55Z</time>
      </trkpt>
      <trkpt lat="48.75429" lon="2.51832">
        <ele>117.918</ele>
        <time>2018-10-14T10:26:00Z</time>
      </trkpt>
      <trkpt lat="48.75427" lon="2.5184">
        <ele>118.174</ele>
        <time>2018-10-14T10:26:05Z</time>
      </trkpt>
      <trkpt lat="48.75424" lon="2.51848">
        <ele>118.384</ele>
        <time>2018-10-14T10:26:09Z</time>
      </trkpt>
      <trkpt lat="48.75423" lon="2.51851">
        <ele>118.544</ele>
        <time>2018-10-14T10:26:12Z</time>
      </trkpt>
      <trkpt lat="48.7542" lon="2.51859">
        <ele>118.816</ele>
        <time>2018-10-14T10:26:17Z</time>
      </trkpt>
      <trkpt lat="48.75418" lon="2.51866">
        <ele>119.031</ele>
        <time>2018-10-14T10:26:21Z</time>
      </trkpt>
      <trkpt lat="48.75415" lon="2.51874">
        <ele>119.244</ele>
        <time>2018-10-14T10:26:25Z</time>
      </trkpt>
      <trkpt lat="48.75414" lon="2.51879">
        <ele>119.402</ele>
        <time>2018-10-14T10:26:28Z</time>
      </trkpt>
      <trkpt lat="48.75413" lon="2.51883">
        <ele>119.506</ele>
        <time>2018-10-14T10:26:30Z</time>
      </trkpt>
      <trkpt lat="48.75412" lon="2.51886">
        <ele>119.61</ele>
        <time>2018-10-14T10:26:32Z</time>
      </trkpt>
      <trkpt lat="48.75408" lon="2.51893">
        <ele>119.819</ele>
        <time>2018-10-14T10:26:36Z</time>
      </trkpt>
      <trkpt lat="48.75406" lon="2.519">
        <ele>120.033</ele>
        <time>2018-10-14T10:26:40Z</time>
      </trkpt>
      <trkpt lat="48.75404" lon="2.51907">
        <ele>120.251</ele>
        <time>2018-10-14T10:26:44Z</time>
      </trkpt>
      <trkpt lat="48.75403" lon="2.51912">
        <ele>120.414</ele>
        <time>2018-10-14T10:26:47Z</time>
      </trkpt>
      <trkpt lat="48.754" lon="2.51919">
        <ele>120.638</ele>
        <time>2018-10-14T10:26:51Z</time>
      </trkpt>
      <trkpt lat="48.75399" lon="2.51923">
        <ele>120.755</ele>
        <time>2018-10-14T10:26:53Z</time>
      </trkpt>
      <trkpt lat="48.75397" lon="2.51926">
        <ele>120.875</ele>
        <time>2018-10-14T10:26:55Z</time>
      </trkpt>
      <trkpt lat="48.75396" lon="2.51929">
        <ele>120.999</ele>
        <time>2018-10-14T10:26:57Z</time>
      </trkpt>
      <trkpt lat="48.75393" lon="2.51934">
        <ele>121.188</ele>
        <time>2018-10-14T10:27:00Z</time>
      </trkpt>
      <trkpt lat="48.75391" lon="2.51938">
        <ele>121.314</ele>
        <time>2018-10-14T10:27:02Z</time>
      </trkpt>
      <trkpt lat="48.75391" lon="2.51946">
        <ele>121.633</ele>
        <time>2018-10-14T10:27:07Z</time>
      </trkpt>
      <trkpt lat="48.7539" lon="2.5195">
        <ele>121.762</ele>
        <time>2018-10-14T10:27:09Z</time>
      </trkpt>
      <trkpt lat="48.75388" lon="2.51958">
        <ele>121.961</ele>
        <time>2018-10-14T10:27:12Z</time>
      </trkpt>
      <trkpt lat="48.75386" lon="2.51962">
        <ele>122.164</ele>
        <time>2018-10-14T10:27:15Z</time>
      </trkpt>
      <trkpt lat="48.75384" lon="2.5197">
        <ele>122.513</ele>
        <time>2018-10-14T10:27:20Z</time>
      </trkpt>
      <trkpt lat="48.75384" lon="2.51978">
        <ele>122.722</ele>
        <time>2018-10-14T10:27:23Z</time>
      </trkpt>
      <trkpt lat="48.75384" lon="2.51982">
        <ele>122.859</ele>
        <time>2018-10-14T10:27:25Z</time>
      </trkpt>
      <trkpt lat="48.75381" lon="2.51989">
        <ele>123.264</ele>
        <time>2018-10-14T10:27:31Z</time>
      </trkpt>
      <trkpt lat="48.75379" lon="2.51996">
        <ele>123.457</ele>
        <time>2018-10-14T10:27:34Z</time>
      </trkpt>
      <trkpt lat="48.75378" lon="2.52003">
        <ele>123.645</ele>
        <time>2018-10-14T10:27:37Z</time>
      </trkpt>
      <trkpt lat="48.75376" lon="2.52011">
        <ele>123.83</ele>
        <time>2018-10-14T10:27:40Z</time>
      </trkpt>
      <trkpt lat="48.75374" lon="2.5202">
        <ele>124.066</ele>
        <time>2018-10-14T10:27:44Z</time>
      </trkpt>
      <trkpt lat="48.75374" lon="2.52025">
        <ele>124.182</ele>
        <time>2018-10-14T10:27:46Z</time>
      </trkpt>
      <trkpt lat="48.75374" lon="2.52029">
        <ele>124.297</ele>
        <time>2018-10-14T10:27:48Z</time>
      </trkpt>
      <trkpt lat="48.75372" lon="2.52036">
        <ele>124.524</ele>
        <time>2018-10-14T10:27:52Z</time>
      </trkpt>
      <trkpt lat="48.75371" lon="2.52042">
        <ele>124.637</ele>
        <time>2018-10-14T10:27:54Z</time>
      </trkpt>
      <trkpt lat="48.75368" lon="2.52048">
        <ele>124.858</ele>
        <time>2018-10-14T10:27:58Z</time>
      </trkpt>
      <trkpt lat="48.75367" lon="2.52056">
        <ele>125.018</ele>
        <time>2018-10-14T10:28:01Z</time>
      </trkpt>
      <trkpt lat="48.75367" lon="2.52056">
        <ele>96</ele>
        <time>2018-10-14T10:28:08Z</time>
      </trkpt>
      <trkpt lat="48.75367" lon="2.52056">
        <ele>96</ele>
        <time>2018-10-14T10:28:13Z</time>
      </trkpt>
      <trkpt lat="48.75364" lon="2.52069">
        <ele>125.631</ele>
        <time>2018-10-14T10:28:13Z</time>
      </trkpt>
      <trkpt lat="48.75364" lon="2.52078">
        <ele>125.887</ele>
        <time>2018-10-14T10:28:18Z</time>
      </trkpt>
      <trkpt lat="48.75364" lon="2.52082">
        <ele>126.037</ele>
        <time>2018-10-14T10:28:21Z</time>
      </trkpt>
      <trkpt lat="48.75362" lon="2.5209">
        <ele>126.287</ele>
        <time>2018-10-14T10:28:26Z</time>
      </trkpt>
      <trkpt lat="48.75361" lon="2.52093">
        <ele>126.387</ele>
        <time>2018-10-14T10:28:28Z</time>
      </trkpt>
      <trkpt lat="48.75359" lon="2.52098">
        <ele>126.54</ele>
        <time>2018-10-14T10:28:31Z</time>
      </trkpt>
      <trkpt lat="48.75357" lon="2.52104">
        <ele>126.863</ele>
        <time>2018-10-14T10:28:37Z</time>
      </trkpt>
      <trkpt lat="48.75355" lon="2.52107">
        <ele>127.035</ele>
        <time>2018-10-14T10:28:40Z</time>
      </trkpt>
      <trkpt lat="48.75353" lon="2.52116">
        <ele>127.378</ele>
        <time>2018-10-14T10:28:46Z</time>
      </trkpt>
      <trkpt lat="48.75354" lon="2.52124">
        <ele>127.602</ele>
        <time>2018-10-14T10:28:50Z</time>
      </trkpt>
      <trkpt lat="48.75354" lon="2.52131">
        <ele>127.714</ele>
        <time>2018-10-14T10:28:52Z</time>
      </trkpt>
      <trkpt lat="48.75354" lon="2.52138">
        <ele>127.881</ele>
        <time>2018-10-14T10:28:55Z</time>
      </trkpt>
      <trkpt lat="48.75354" lon="2.52146">
        <ele>128.099</ele>
        <time>2018-10-14T10:28:59Z</time>
      </trkpt>
      <trkpt lat="48.75352" lon="2.52155">
        <ele>128.258</ele>
        <time>2018-10-14T10:29:02Z</time>
      </trkpt>
      <trkpt lat="48.75351" lon="2.5216">
        <ele>128.363</ele>
        <time>2018-10-14T10:29:04Z</time>
      </trkpt>
      <trkpt lat="48.75348" lon="2.52166">
        <ele>128.569</ele>
        <time>2018-10-14T10:29:08Z</time>
      </trkpt>
      <trkpt lat="48.75348" lon="2.52173">
        <ele>128.719</ele>
        <time>2018-10-14T10:29:11Z</time>
      </trkpt>
      <trkpt lat="48.75346" lon="2.5218">
        <ele>128.913</ele>
        <time>2018-10-14T10:29:15Z</time>
      </trkpt>
      <trkpt lat="48.75346" lon="2.52188">
        <ele>129.142</ele>
        <time>2018-10-14T10:29:20Z</time>
      </trkpt>
      <trkpt lat="48.75345" lon="2.52193">
        <ele>129.371</ele>
        <time>2018-10-14T10:29:26Z</time>
      </trkpt>
      <trkpt lat="48.75345" lon="2.52193">
        <ele>96.6</ele>
        <time>2018-10-14T10:29:33Z</time>
      </trkpt>
      <trkpt lat="48.75345" lon="2.52193">
        <ele>96.6</ele>
        <time>2018-10-14T10:29:42Z</time>
      </trkpt>
      <trkpt lat="48.75347" lon="2.522">
        <ele>129.937</ele>
        <time>2018-10-14T10:29:42Z</time>
      </trkpt>
      <trkpt lat="48.75347" lon="2.52208">
        <ele>130.102</ele>
        <time>2018-10-14T10:29:46Z</time>
      </trkpt>
      <trkpt lat="48.75347" lon="2.52214">
        <ele>130.222</ele>
        <time>2018-10-14T10:29:49Z</time>
      </trkpt>
      <trkpt lat="48.75346" lon="2.52221">
        <ele>130.338</ele>
        <time>2018-10-14T10:29:52Z</time>
      </trkpt>
      <trkpt lat="48.75345" lon="2.52226">
        <ele>130.414</ele>
        <time>2018-10-14T10:29:54Z</time>
      </trkpt>
      <trkpt lat="48.75343" lon="2.52234">
        <ele>130.564</ele>
        <time>2018-10-14T10:29:58Z</time>
      </trkpt>
      <trkpt lat="48.75341" lon="2.5224">
        <ele>130.675</ele>
        <time>2018-10-14T10:30:01Z</time>
      </trkpt>
      <trkpt lat="48.75339" lon="2.52246">
        <ele>130.785</ele>
        <time>2018-10-14T10:30:04Z</time>
      </trkpt>
      <trkpt lat="48.75338" lon="2.52252">
        <ele>130.959</ele>
        <time>2018-10-14T10:30:09Z</time>
      </trkpt>
      <trkpt lat="48.75337" lon="2.52256">
        <ele>131.061</ele>
        <time>2018-10-14T10:30:12Z</time>
      </trkpt>
      <trkpt lat="48.75337" lon="2.5226">
        <ele>131.129</ele>
        <time>2018-10-14T10:30:14Z</time>
      </trkpt>
      <trkpt lat="48.75336" lon="2.52265">
        <ele>131.196</ele>
        <time>2018-10-14T10:30:16Z</time>
      </trkpt>
      <trkpt lat="48.75337" lon="2.52273">
        <ele>131.297</ele>
        <time>2018-10-14T10:30:19Z</time>
      </trkpt>
      <trkpt lat="48.7534" lon="2.52279">
        <ele>131.4</ele>
        <time>2018-10-14T10:30:22Z</time>
      </trkpt>
      <trkpt lat="48.75341" lon="2.52281">
        <ele>131.47</ele>
        <time>2018-10-14T10:30:24Z</time>
      </trkpt>
      <trkpt lat="48.75343" lon="2.52288">
        <ele>131.614</ele>
        <time>2018-10-14T10:30:28Z</time>
      </trkpt>
      <trkpt lat="48.75344" lon="2.52291">
        <ele>131.685</ele>
        <time>2018-10-14T10:30:30Z</time>
      </trkpt>
      <trkpt lat="48.75344" lon="2.52291">
        <ele>96.8</ele>
        <time>2018-10-14T10:30:38Z</time>
      </trkpt>
      <trkpt lat="48.75344" lon="2.52291">
        <ele>96.8</ele>
        <time>2018-10-14T10:30:44Z</time>
      </trkpt>
      <trkpt lat="48.75334" lon="2.52295">
        <ele>132.223</ele>
        <time>2018-10-14T10:30:44Z</time>
      </trkpt>
      <trkpt lat="48.7533" lon="2.52294">
        <ele>132.304</ele>
        <time>2018-10-14T10:30:46Z</time>
      </trkpt>
      <trkpt lat="48.75327" lon="2.52293">
        <ele>132.385</ele>
        <time>2018-10-14T10:30:48Z</time>
      </trkpt>
      <trkpt lat="48.75323" lon="2.5229">
        <ele>132.506</ele>
        <time>2018-10-14T10:30:51Z</time>
      </trkpt>
      <trkpt lat="48.75318" lon="2.52289">
        <ele>132.669</ele>
        <time>2018-10-14T10:30:55Z</time>
      </trkpt>
      <trkpt lat="48.75313" lon="2.52287">
        <ele>132.787</ele>
        <time>2018-10-14T10:30:58Z</time>
      </trkpt>
      <trkpt lat="48.75313" lon="2.52287">
        <ele>132.787</ele>
        <time>2018-10-14T10:31:03Z</time>
      </trkpt>
      <trkpt lat="48.75313" lon="2.52287">
        <ele>97</ele>
        <time>2018-10-14T10:31:03Z</time>
      </trkpt>
      <trkpt lat="48.75313" lon="2.52287">
        <ele>97</ele>
        <time>2018-10-14T10:31:17Z</time>
      </trkpt>
      <trkpt lat="48.75299" lon="2.52278">
        <ele>133.553</ele>
        <time>2018-10-14T10:31:17Z</time>
      </trkpt>
      <trkpt lat="48.75295" lon="2.52273">
        <ele>133.717</ele>
        <time>2018-10-14T10:31:21Z</time>
      </trkpt>
      <trkpt lat="48.75291" lon="2.5227">
        <ele>133.838</ele>
        <time>2018-10-14T10:31:24Z</time>
      </trkpt>
      <trkpt lat="48.75286" lon="2.52267">
        <ele>134.032</ele>
        <time>2018-10-14T10:31:29Z</time>
      </trkpt>
      <trkpt lat="48.75284" lon="2.52266">
        <ele>134.106</ele>
        <time>2018-10-14T10:31:31Z</time>
      </trkpt>
      <trkpt lat="48.75282" lon="2.52264">
        <ele>134.179</ele>
        <time>2018-10-14T10:31:33Z</time>
      </trkpt>
      <trkpt lat="48.75277" lon="2.52263">
        <ele>134.319</ele>
        <time>2018-10-14T10:31:37Z</time>
      </trkpt>
      <trkpt lat="48.75271" lon="2.52263">
        <ele>134.457</ele>
        <time>2018-10-14T10:31:41Z</time>
      </trkpt>
      <trkpt lat="48.75265" lon="2.52262">
        <ele>134.631</ele>
        <time>2018-10-14T10:31:46Z</time>
      </trkpt>
      <trkpt lat="48.7526" lon="2.52261">
        <ele>134.735</ele>
        <time>2018-10-14T10:31:49Z</time>
      </trkpt>
      <trkpt lat="48.75257" lon="2.52262">
        <ele>134.839</ele>
        <time>2018-10-14T10:31:52Z</time>
      </trkpt>
      <trkpt lat="48.75252" lon="2.52261">
        <ele>134.971</ele>
        <time>2018-10-14T10:31:56Z</time>
      </trkpt>
      <trkpt lat="48.75247" lon="2.5226">
        <ele>135.129</ele>
        <time>2018-10-14T10:32:01Z</time>
      </trkpt>
      <trkpt lat="48.75244" lon="2.5226">
        <ele>135.219</ele>
        <time>2018-10-14T10:32:04Z</time>
      </trkpt>
      <trkpt lat="48.75238" lon="2.52262">
        <ele>135.333</ele>
        <time>2018-10-14T10:32:08Z</time>
      </trkpt>
      <trkpt lat="48.75235" lon="2.52262">
        <ele>135.387</ele>
        <time>2018-10-14T10:32:10Z</time>
      </trkpt>
      <trkpt lat="48.75233" lon="2.52262">
        <ele>135.441</ele>
        <time>2018-10-14T10:32:12Z</time>
      </trkpt>
      <trkpt lat="48.75226" lon="2.52264">
        <ele>135.575</ele>
        <time>2018-10-14T10:32:17Z</time>
      </trkpt>
      <trkpt lat="48.7522" lon="2.52263">
        <ele>135.688</ele>
        <time>2018-10-14T10:32:21Z</time>
      </trkpt>
      <trkpt lat="48.75218" lon="2.52254">
        <ele>135.866</ele>
        <time>2018-10-14T10:32:27Z</time>
      </trkpt>
      <trkpt lat="48.75218" lon="2.52249">
        <ele>135.925</ele>
        <time>2018-10-14T10:32:29Z</time>
      </trkpt>
      <trkpt lat="48.75214" lon="2.52244">
        <ele>136.01</ele>
        <time>2018-10-14T10:32:32Z</time>
      </trkpt>
      <trkpt lat="48.75212" lon="2.52239">
        <ele>136.095</ele>
        <time>2018-10-14T10:32:35Z</time>
      </trkpt>
      <trkpt lat="48.75207" lon="2.52234">
        <ele>136.236</ele>
        <time>2018-10-14T10:32:40Z</time>
      </trkpt>
      <trkpt lat="48.75204" lon="2.52231">
        <ele>136.292</ele>
        <time>2018-10-14T10:32:42Z</time>
      </trkpt>
      <trkpt lat="48.75199" lon="2.52231">
        <ele>136.402</ele>
        <time>2018-10-14T10:32:46Z</time>
      </trkpt>
      <trkpt lat="48.75195" lon="2.52226">
        <ele>136.537</ele>
        <time>2018-10-14T10:32:51Z</time>
      </trkpt>
      <trkpt lat="48.75191" lon="2.52223">
        <ele>136.592</ele>
        <time>2018-10-14T10:32:53Z</time>
      </trkpt>
      <trkpt lat="48.75186" lon="2.52221">
        <ele>136.766</ele>
        <time>2018-10-14T10:32:59Z</time>
      </trkpt>
      <trkpt lat="48.75182" lon="2.52218">
        <ele>136.852</ele>
        <time>2018-10-14T10:33:02Z</time>
      </trkpt>
      <trkpt lat="48.75177" lon="2.52217">
        <ele>136.961</ele>
        <time>2018-10-14T10:33:06Z</time>
      </trkpt>
      <trkpt lat="48.75173" lon="2.52217">
        <ele>137.04</ele>
        <time>2018-10-14T10:33:09Z</time>
      </trkpt>
      <trkpt lat="48.75168" lon="2.52217">
        <ele>137.115</ele>
        <time>2018-10-14T10:33:12Z</time>
      </trkpt>
      <trkpt lat="48.75165" lon="2.52217">
        <ele>137.163</ele>
        <time>2018-10-14T10:33:14Z</time>
      </trkpt>
      <trkpt lat="48.7516" lon="2.52219">
        <ele>137.235</ele>
        <time>2018-10-14T10:33:17Z</time>
      </trkpt>
      <trkpt lat="48.75156" lon="2.5222">
        <ele>137.305</ele>
        <time>2018-10-14T10:33:20Z</time>
      </trkpt>
      <trkpt lat="48.75152" lon="2.52219">
        <ele>137.396</ele>
        <time>2018-10-14T10:33:24Z</time>
      </trkpt>
      <trkpt lat="48.75148" lon="2.52218">
        <ele>137.462</ele>
        <time>2018-10-14T10:33:27Z</time>
      </trkpt>
      <trkpt lat="48.75143" lon="2.52214">
        <ele>137.547</ele>
        <time>2018-10-14T10:33:31Z</time>
      </trkpt>
      <trkpt lat="48.7514" lon="2.5221">
        <ele>137.651</ele>
        <time>2018-10-14T10:33:36Z</time>
      </trkpt>
      <trkpt lat="48.75136" lon="2.52205">
        <ele>137.733</ele>
        <time>2018-10-14T10:33:40Z</time>
      </trkpt>
      <trkpt lat="48.75133" lon="2.52198">
        <ele>137.812</ele>
        <time>2018-10-14T10:33:44Z</time>
      </trkpt>
      <trkpt lat="48.75131" lon="2.52194">
        <ele>137.85</ele>
        <time>2018-10-14T10:33:46Z</time>
      </trkpt>
      <trkpt lat="48.75126" lon="2.5219">
        <ele>137.905</ele>
        <time>2018-10-14T10:33:49Z</time>
      </trkpt>
      <trkpt lat="48.75121" lon="2.52189">
        <ele>137.989</ele>
        <time>2018-10-14T10:33:54Z</time>
      </trkpt>
      <trkpt lat="48.75115" lon="2.52187">
        <ele>138.068</ele>
        <time>2018-10-14T10:33:59Z</time>
      </trkpt>
      <trkpt lat="48.75112" lon="2.52181">
        <ele>138.13</ele>
        <time>2018-10-14T10:34:03Z</time>
      </trkpt>
      <trkpt lat="48.75107" lon="2.52177">
        <ele>138.191</ele>
        <time>2018-10-14T10:34:07Z</time>
      </trkpt>
      <trkpt lat="48.75105" lon="2.52175">
        <ele>138.222</ele>
        <time>2018-10-14T10:34:09Z</time>
      </trkpt>
      <trkpt lat="48.751" lon="2.52174">
        <ele>138.269</ele>
        <time>2018-10-14T10:34:12Z</time>
      </trkpt>
      <trkpt lat="48.75097" lon="2.52167">
        <ele>138.368</ele>
        <time>2018-10-14T10:34:18Z</time>
      </trkpt>
      <trkpt lat="48.75094" lon="2.52161">
        <ele>138.418</ele>
        <time>2018-10-14T10:34:21Z</time>
      </trkpt>
      <trkpt lat="48.75092" lon="2.52156">
        <ele>138.453</ele>
        <time>2018-10-14T10:34:23Z</time>
      </trkpt>
      <trkpt lat="48.75089" lon="2.52149">
        <ele>138.505</ele>
        <time>2018-10-14T10:34:26Z</time>
      </trkpt>
      <trkpt lat="48.75084" lon="2.52145">
        <ele>138.553</ele>
        <time>2018-10-14T10:34:29Z</time>
      </trkpt>
      <trkpt lat="48.75082" lon="2.52143">
        <ele>138.597</ele>
        <time>2018-10-14T10:34:32Z</time>
      </trkpt>
      <trkpt lat="48.75079" lon="2.52137">
        <ele>138.641</ele>
        <time>2018-10-14T10:34:35Z</time>
      </trkpt>
      <trkpt lat="48.75077" lon="2.52134">
        <ele>138.684</ele>
        <time>2018-10-14T10:34:38Z</time>
      </trkpt>
      <trkpt lat="48.75074" lon="2.52127">
        <ele>138.728</ele>
        <time>2018-10-14T10:34:41Z</time>
      </trkpt>
      <trkpt lat="48.75073" lon="2.52124">
        <ele>138.743</ele>
        <time>2018-10-14T10:34:42Z</time>
      </trkpt>
      <trkpt lat="48.7507" lon="2.5212">
        <ele>138.818</ele>
        <time>2018-10-14T10:34:47Z</time>
      </trkpt>
      <trkpt lat="48.75065" lon="2.52115">
        <ele>138.897</ele>
        <time>2018-10-14T10:34:52Z</time>
      </trkpt>
      <trkpt lat="48.75063" lon="2.52113">
        <ele>138.929</ele>
        <time>2018-10-14T10:34:54Z</time>
      </trkpt>
      <trkpt lat="48.7506" lon="2.52109">
        <ele>138.961</ele>
        <time>2018-10-14T10:34:56Z</time>
      </trkpt>
      <trkpt lat="48.75058" lon="2.52107">
        <ele>138.995</ele>
        <time>2018-10-14T10:34:58Z</time>
      </trkpt>
      <trkpt lat="48.75056" lon="2.52104">
        <ele>139.081</ele>
        <time>2018-10-14T10:35:03Z</time>
      </trkpt>
      <trkpt lat="48.75052" lon="2.52097">
        <ele>139.133</ele>
        <time>2018-10-14T10:35:06Z</time>
      </trkpt>
      <trkpt lat="48.75049" lon="2.52092">
        <ele>139.186</ele>
        <time>2018-10-14T10:35:09Z</time>
      </trkpt>
      <trkpt lat="48.75045" lon="2.52085">
        <ele>139.286</ele>
        <time>2018-10-14T10:35:15Z</time>
      </trkpt>
      <trkpt lat="48.7504" lon="2.52081">
        <ele>139.352</ele>
        <time>2018-10-14T10:35:19Z</time>
      </trkpt>
      <trkpt lat="48.75035" lon="2.5208">
        <ele>139.403</ele>
        <time>2018-10-14T10:35:22Z</time>
      </trkpt>
      <trkpt lat="48.7503" lon="2.52082">
        <ele>139.531</ele>
        <time>2018-10-14T10:35:29Z</time>
      </trkpt>
      <trkpt lat="48.75026" lon="2.52086">
        <ele>139.627</ele>
        <time>2018-10-14T10:35:34Z</time>
      </trkpt>
      <trkpt lat="48.75021" lon="2.52089">
        <ele>139.723</ele>
        <time>2018-10-14T10:35:39Z</time>
      </trkpt>
      <trkpt lat="48.75016" lon="2.5209">
        <ele>139.824</ele>
        <time>2018-10-14T10:35:44Z</time>
      </trkpt>
      <trkpt lat="48.75011" lon="2.52088">
        <ele>139.926</ele>
        <time>2018-10-14T10:35:49Z</time>
      </trkpt>
      <trkpt lat="48.75008" lon="2.52087">
        <ele>139.987</ele>
        <time>2018-10-14T10:35:52Z</time>
      </trkpt>
      <trkpt lat="48.75005" lon="2.52082">
        <ele>140.113</ele>
        <time>2018-10-14T10:35:58Z</time>
      </trkpt>
      <trkpt lat="48.74999" lon="2.52077">
        <ele>140.248</ele>
        <time>2018-10-14T10:36:04Z</time>
      </trkpt>
      <trkpt lat="48.74996" lon="2.52072">
        <ele>140.317</ele>
        <time>2018-10-14T10:36:07Z</time>
      </trkpt>
      <trkpt lat="48.74991" lon="2.52068">
        <ele>140.408</ele>
        <time>2018-10-14T10:36:11Z</time>
      </trkpt>
      <trkpt lat="48.74986" lon="2.52066">
        <ele>140.519</ele>
        <time>2018-10-14T10:36:16Z</time>
      </trkpt>
      <trkpt lat="48.74981" lon="2.52065">
        <ele>140.582</ele>
        <time>2018-10-14T10:36:19Z</time>
      </trkpt>
      <trkpt lat="48.74976" lon="2.52063">
        <ele>140.659</ele>
        <time>2018-10-14T10:36:23Z</time>
      </trkpt>
      <trkpt lat="48.74971" lon="2.5206">
        <ele>140.744</ele>
        <time>2018-10-14T10:36:28Z</time>
      </trkpt>
      <trkpt lat="48.74966" lon="2.52059">
        <ele>140.791</ele>
        <time>2018-10-14T10:36:31Z</time>
      </trkpt>
      <trkpt lat="48.74961" lon="2.52057">
        <ele>140.848</ele>
        <time>2018-10-14T10:36:35Z</time>
      </trkpt>
      <trkpt lat="48.74957" lon="2.52054">
        <ele>140.888</ele>
        <time>2018-10-14T10:36:38Z</time>
      </trkpt>
      <trkpt lat="48.74952" lon="2.52051">
        <ele>140.941</ele>
        <time>2018-10-14T10:36:42Z</time>
      </trkpt>
      <trkpt lat="48.74949" lon="2.52049">
        <ele>140.982</ele>
        <time>2018-10-14T10:36:46Z</time>
      </trkpt>
      <trkpt lat="48.74945" lon="2.52041">
        <ele>141.055</ele>
        <time>2018-10-14T10:36:52Z</time>
      </trkpt>
      <trkpt lat="48.7494" lon="2.52037">
        <ele>141.089</ele>
        <time>2018-10-14T10:36:55Z</time>
      </trkpt>
      <trkpt lat="48.74938" lon="2.52035">
        <ele>141.109</ele>
        <time>2018-10-14T10:36:57Z</time>
      </trkpt>
      <trkpt lat="48.74933" lon="2.52033">
        <ele>141.136</ele>
        <time>2018-10-14T10:37:00Z</time>
      </trkpt>
      <trkpt lat="48.7493" lon="2.52032">
        <ele>141.153</ele>
        <time>2018-10-14T10:37:02Z</time>
      </trkpt>
      <trkpt lat="48.74927" lon="2.52028">
        <ele>141.191</ele>
        <time>2018-10-14T10:37:07Z</time>
      </trkpt>
      <trkpt lat="48.74923" lon="2.52025">
        <ele>141.215</ele>
        <time>2018-10-14T10:37:10Z</time>
      </trkpt>
      <trkpt lat="48.74918" lon="2.52023">
        <ele>141.246</ele>
        <time>2018-10-14T10:37:14Z</time>
      </trkpt>
      <trkpt lat="48.74914" lon="2.52018">
        <ele>141.281</ele>
        <time>2018-10-14T10:37:19Z</time>
      </trkpt>
      <trkpt lat="48.74909" lon="2.52016">
        <ele>141.3</ele>
        <time>2018-10-14T10:37:22Z</time>
      </trkpt>
      <trkpt lat="48.74905" lon="2.52014">
        <ele>141.322</ele>
        <time>2018-10-14T10:37:26Z</time>
      </trkpt>
      <trkpt lat="48.74902" lon="2.52012">
        <ele>141.331</ele>
        <time>2018-10-14T10:37:28Z</time>
      </trkpt>
      <trkpt lat="48.749" lon="2.52011">
        <ele>141.336</ele>
        <time>2018-10-14T10:37:29Z</time>
      </trkpt>
      <trkpt lat="48.74894" lon="2.52009">
        <ele>141.354</ele>
        <time>2018-10-14T10:37:33Z</time>
      </trkpt>
      <trkpt lat="48.74889" lon="2.52012">
        <ele>141.367</ele>
        <time>2018-10-14T10:37:37Z</time>
      </trkpt>
      <trkpt lat="48.74886" lon="2.52017">
        <ele>141.38</ele>
        <time>2018-10-14T10:37:41Z</time>
      </trkpt>
      <trkpt lat="48.74883" lon="2.52023">
        <ele>141.39</ele>
        <time>2018-10-14T10:37:44Z</time>
      </trkpt>
      <trkpt lat="48.74881" lon="2.52031">
        <ele>141.404</ele>
        <time>2018-10-14T10:37:48Z</time>
      </trkpt>
      <trkpt lat="48.74881" lon="2.52034">
        <ele>141.411</ele>
        <time>2018-10-14T10:37:50Z</time>
      </trkpt>
      <trkpt lat="48.74878" lon="2.5204">
        <ele>141.425</ele>
        <time>2018-10-14T10:37:54Z</time>
      </trkpt>
      <trkpt lat="48.74873" lon="2.52046">
        <ele>141.438</ele>
        <time>2018-10-14T10:37:58Z</time>
      </trkpt>
      <trkpt lat="48.74871" lon="2.52049">
        <ele>141.444</ele>
        <time>2018-10-14T10:38:00Z</time>
      </trkpt>
      <trkpt lat="48.74865" lon="2.5205">
        <ele>141.46</ele>
        <time>2018-10-14T10:38:04Z</time>
      </trkpt>
      <trkpt lat="48.74861" lon="2.52049">
        <ele>141.473</ele>
        <time>2018-10-14T10:38:07Z</time>
      </trkpt>
      <trkpt lat="48.74857" lon="2.52048">
        <ele>141.487</ele>
        <time>2018-10-14T10:38:10Z</time>
      </trkpt>
      <trkpt lat="48.74852" lon="2.52044">
        <ele>141.501</ele>
        <time>2018-10-14T10:38:13Z</time>
      </trkpt>
      <trkpt lat="48.7485" lon="2.52042">
        <ele>141.51</ele>
        <time>2018-10-14T10:38:15Z</time>
      </trkpt>
      <trkpt lat="48.74846" lon="2.5204">
        <ele>141.525</ele>
        <time>2018-10-14T10:38:19Z</time>
      </trkpt>
      <trkpt lat="48.7484" lon="2.52033">
        <ele>141.537</ele>
        <time>2018-10-14T10:38:24Z</time>
      </trkpt>
      <trkpt lat="48.74838" lon="2.5203">
        <ele>141.538</ele>
        <time>2018-10-14T10:38:27Z</time>
      </trkpt>
      <trkpt lat="48.74834" lon="2.52027">
        <ele>141.538</ele>
        <time>2018-10-14T10:38:33Z</time>
      </trkpt>
      <trkpt lat="48.74834" lon="2.52027">
        <ele>141.538</ele>
        <time>2018-10-14T10:42:54Z</time>
      </trkpt>
      <trkpt lat="48.74825" lon="2.52026">
        <ele>145.341</ele>
        <time>2018-10-14T11:12:59Z</time>
      </trkpt>
      <trkpt lat="48.74821" lon="2.52034">
        <ele>145.319</ele>
        <time>2018-10-14T11:13:07Z</time>
      </trkpt>
      <trkpt lat="48.74819" lon="2.52038">
        <ele>145.307</ele>
        <time>2018-10-14T11:13:10Z</time>
      </trkpt>
      <trkpt lat="48.74819" lon="2.52038">
        <ele>145.307</ele>
        <time>2018-10-14T11:13:17Z</time>
      </trkpt>
      <trkpt lat="48.74819" lon="2.52038">
        <ele>95</ele>
        <time>2018-10-14T11:13:17Z</time>
      </trkpt>
      <trkpt lat="48.74819" lon="2.52038">
        <ele>95</ele>
        <time>2018-10-14T11:20:56Z</time>
      </trkpt>
      <trkpt lat="48.74797" lon="2.52011">
        <ele>143.044</ele>
        <time>2018-10-14T11:20:56Z</time>
      </trkpt>
      <trkpt lat="48.74795" lon="2.52008">
        <ele>143.012</ele>
        <time>2018-10-14T11:20:59Z</time>
      </trkpt>
      <trkpt lat="48.74791" lon="2.52003">
        <ele>142.955</ele>
        <time>2018-10-14T11:21:05Z</time>
      </trkpt>
      <trkpt lat="48.74787" lon="2.51998">
        <ele>142.9</ele>
        <time>2018-10-14T11:21:12Z</time>
      </trkpt>
      <trkpt lat="48.74785" lon="2.51991">
        <ele>142.85</ele>
        <time>2018-10-14T11:21:22Z</time>
      </trkpt>
      <trkpt lat="48.74779" lon="2.51987">
        <ele>142.826</ele>
        <time>2018-10-14T11:21:30Z</time>
      </trkpt>
      <trkpt lat="48.74774" lon="2.51984">
        <ele>142.816</ele>
        <time>2018-10-14T11:21:34Z</time>
      </trkpt>
      <trkpt lat="48.74771" lon="2.51979">
        <ele>142.809</ele>
        <time>2018-10-14T11:21:37Z</time>
      </trkpt>
      <trkpt lat="48.74769" lon="2.51973">
        <ele>142.803</ele>
        <time>2018-10-14T11:21:40Z</time>
      </trkpt>
      <trkpt lat="48.74767" lon="2.51966">
        <ele>142.799</ele>
        <time>2018-10-14T11:21:43Z</time>
      </trkpt>
      <trkpt lat="48.74766" lon="2.51962">
        <ele>142.798</ele>
        <time>2018-10-14T11:21:45Z</time>
      </trkpt>
      <trkpt lat="48.74765" lon="2.51954">
        <ele>142.797</ele>
        <time>2018-10-14T11:21:49Z</time>
      </trkpt>
      <trkpt lat="48.74763" lon="2.51947">
        <ele>142.799</ele>
        <time>2018-10-14T11:21:53Z</time>
      </trkpt>
      <trkpt lat="48.74762" lon="2.5194">
        <ele>142.801</ele>
        <time>2018-10-14T11:21:56Z</time>
      </trkpt>
      <trkpt lat="48.74761" lon="2.51935">
        <ele>142.804</ele>
        <time>2018-10-14T11:21:58Z</time>
      </trkpt>
      <trkpt lat="48.74762" lon="2.51928">
        <ele>142.814</ele>
        <time>2018-10-14T11:22:04Z</time>
      </trkpt>
      <trkpt lat="48.7476" lon="2.51921">
        <ele>142.826</ele>
        <time>2018-10-14T11:22:08Z</time>
      </trkpt>
      <trkpt lat="48.7476" lon="2.51912">
        <ele>142.851</ele>
        <time>2018-10-14T11:22:14Z</time>
      </trkpt>
      <trkpt lat="48.74759" lon="2.51907">
        <ele>142.86</ele>
        <time>2018-10-14T11:22:16Z</time>
      </trkpt>
      <trkpt lat="48.7476" lon="2.51899">
        <ele>142.872</ele>
        <time>2018-10-14T11:22:19Z</time>
      </trkpt>
      <trkpt lat="48.74759" lon="2.51892">
        <ele>142.886</ele>
        <time>2018-10-14T11:22:22Z</time>
      </trkpt>
      <trkpt lat="48.74758" lon="2.51887">
        <ele>142.9</ele>
        <time>2018-10-14T11:22:25Z</time>
      </trkpt>
      <trkpt lat="48.74758" lon="2.51881">
        <ele>142.919</ele>
        <time>2018-10-14T11:22:29Z</time>
      </trkpt>
      <trkpt lat="48.74759" lon="2.51876">
        <ele>142.928</ele>
        <time>2018-10-14T11:22:31Z</time>
      </trkpt>
      <trkpt lat="48.74759" lon="2.51872">
        <ele>142.937</ele>
        <time>2018-10-14T11:22:33Z</time>
      </trkpt>
      <trkpt lat="48.74759" lon="2.51865">
        <ele>142.952</ele>
        <time>2018-10-14T11:22:36Z</time>
      </trkpt>
      <trkpt lat="48.74759" lon="2.51858">
        <ele>142.968</ele>
        <time>2018-10-14T11:22:39Z</time>
      </trkpt>
      <trkpt lat="48.74759" lon="2.51855">
        <ele>142.98</ele>
        <time>2018-10-14T11:22:41Z</time>
      </trkpt>
      <trkpt lat="48.74758" lon="2.5185">
        <ele>142.992</ele>
        <time>2018-10-14T11:22:43Z</time>
      </trkpt>
      <trkpt lat="48.74757" lon="2.51845">
        <ele>143.004</ele>
        <time>2018-10-14T11:22:45Z</time>
      </trkpt>
      <trkpt lat="48.74757" lon="2.5184">
        <ele>143.017</ele>
        <time>2018-10-14T11:22:47Z</time>
      </trkpt>
      <trkpt lat="48.74756" lon="2.51836">
        <ele>143.03</ele>
        <time>2018-10-14T11:22:49Z</time>
      </trkpt>
      <trkpt lat="48.74754" lon="2.51827">
        <ele>143.057</ele>
        <time>2018-10-14T11:22:53Z</time>
      </trkpt>
      <trkpt lat="48.74752" lon="2.51822">
        <ele>143.078</ele>
        <time>2018-10-14T11:22:56Z</time>
      </trkpt>
      <trkpt lat="48.7475" lon="2.51814">
        <ele>143.105</ele>
        <time>2018-10-14T11:23:00Z</time>
      </trkpt>
      <trkpt lat="48.74749" lon="2.5181">
        <ele>143.118</ele>
        <time>2018-10-14T11:23:02Z</time>
      </trkpt>
      <trkpt lat="48.74749" lon="2.51807">
        <ele>143.13</ele>
        <time>2018-10-14T11:23:04Z</time>
      </trkpt>
      <trkpt lat="48.74747" lon="2.51799">
        <ele>143.151</ele>
        <time>2018-10-14T11:23:08Z</time>
      </trkpt>
      <trkpt lat="48.74745" lon="2.51792">
        <ele>143.166</ele>
        <time>2018-10-14T11:23:12Z</time>
      </trkpt>
      <trkpt lat="48.74744" lon="2.51785">
        <ele>143.18</ele>
        <time>2018-10-14T11:23:17Z</time>
      </trkpt>
      <trkpt lat="48.74744" lon="2.5178">
        <ele>143.183</ele>
        <time>2018-10-14T11:23:19Z</time>
      </trkpt>
      <trkpt lat="48.74744" lon="2.51776">
        <ele>143.186</ele>
        <time>2018-10-14T11:23:21Z</time>
      </trkpt>
      <trkpt lat="48.74742" lon="2.51769">
        <ele>143.188</ele>
        <time>2018-10-14T11:23:24Z</time>
      </trkpt>
      <trkpt lat="48.74741" lon="2.51763">
        <ele>143.188</ele>
        <time>2018-10-14T11:23:26Z</time>
      </trkpt>
      <trkpt lat="48.7474" lon="2.51758">
        <ele>143.188</ele>
        <time>2018-10-14T11:23:28Z</time>
      </trkpt>
      <trkpt lat="48.7474" lon="2.51754">
        <ele>143.188</ele>
        <time>2018-10-14T11:23:30Z</time>
      </trkpt>
      <trkpt lat="48.74739" lon="2.5175">
        <ele>143.188</ele>
        <time>2018-10-14T11:23:33Z</time>
      </trkpt>
      <trkpt lat="48.74737" lon="2.51743">
        <ele>143.187</ele>
        <time>2018-10-14T11:23:39Z</time>
      </trkpt>
      <trkpt lat="48.74736" lon="2.51734">
        <ele>143.184</ele>
        <time>2018-10-14T11:23:43Z</time>
      </trkpt>
      <trkpt lat="48.74736" lon="2.51727">
        <ele>143.178</ele>
        <time>2018-10-14T11:23:46Z</time>
      </trkpt>
      <trkpt lat="48.74735" lon="2.51723">
        <ele>143.172</ele>
        <time>2018-10-14T11:23:48Z</time>
      </trkpt>
      <trkpt lat="48.74735" lon="2.51716">
        <ele>143.161</ele>
        <time>2018-10-14T11:23:52Z</time>
      </trkpt>
      <trkpt lat="48.74735" lon="2.51713">
        <ele>143.155</ele>
        <time>2018-10-14T11:23:54Z</time>
      </trkpt>
      <trkpt lat="48.74735" lon="2.51707">
        <ele>143.145</ele>
        <time>2018-10-14T11:23:57Z</time>
      </trkpt>
      <trkpt lat="48.74733" lon="2.51699">
        <ele>143.129</ele>
        <time>2018-10-14T11:24:01Z</time>
      </trkpt>
      <trkpt lat="48.74731" lon="2.51692">
        <ele>143.115</ele>
        <time>2018-10-14T11:24:05Z</time>
      </trkpt>
      <trkpt lat="48.74729" lon="2.51685">
        <ele>143.103</ele>
        <time>2018-10-14T11:24:10Z</time>
      </trkpt>
      <trkpt lat="48.74727" lon="2.51678">
        <ele>143.097</ele>
        <time>2018-10-14T11:24:14Z</time>
      </trkpt>
      <trkpt lat="48.74726" lon="2.51671">
        <ele>143.092</ele>
        <time>2018-10-14T11:24:17Z</time>
      </trkpt>
      <trkpt lat="48.74725" lon="2.51666">
        <ele>143.09</ele>
        <time>2018-10-14T11:24:19Z</time>
      </trkpt>
      <trkpt lat="48.74725" lon="2.51662">
        <ele>143.089</ele>
        <time>2018-10-14T11:24:21Z</time>
      </trkpt>
      <trkpt lat="48.74726" lon="2.51655">
        <ele>143.084</ele>
        <time>2018-10-14T11:24:25Z</time>
      </trkpt>
      <trkpt lat="48.74727" lon="2.5165">
        <ele>143.078</ele>
        <time>2018-10-14T11:24:28Z</time>
      </trkpt>
      <trkpt lat="48.74728" lon="2.51646">
        <ele>143.072</ele>
        <time>2018-10-14T11:24:31Z</time>
      </trkpt>
      <trkpt lat="48.74728" lon="2.51637">
        <ele>143.064</ele>
        <time>2018-10-14T11:24:35Z</time>
      </trkpt>
      <trkpt lat="48.74727" lon="2.5163">
        <ele>143.058</ele>
        <time>2018-10-14T11:24:39Z</time>
      </trkpt>
      <trkpt lat="48.74724" lon="2.51623">
        <ele>143.056</ele>
        <time>2018-10-14T11:24:43Z</time>
      </trkpt>
      <trkpt lat="48.74723" lon="2.51615">
        <ele>143.062</ele>
        <time>2018-10-14T11:24:48Z</time>
      </trkpt>
      <trkpt lat="48.74721" lon="2.51608">
        <ele>143.07</ele>
        <time>2018-10-14T11:24:52Z</time>
      </trkpt>
      <trkpt lat="48.7472" lon="2.51601">
        <ele>143.078</ele>
        <time>2018-10-14T11:24:55Z</time>
      </trkpt>
      <trkpt lat="48.74718" lon="2.51596">
        <ele>143.088</ele>
        <time>2018-10-14T11:24:58Z</time>
      </trkpt>
      <trkpt lat="48.74717" lon="2.51587">
        <ele>143.106</ele>
        <time>2018-10-14T11:25:03Z</time>
      </trkpt>
      <trkpt lat="48.74716" lon="2.5158">
        <ele>143.117</ele>
        <time>2018-10-14T11:25:06Z</time>
      </trkpt>
      <trkpt lat="48.74716" lon="2.51574">
        <ele>143.126</ele>
        <time>2018-10-14T11:25:08Z</time>
      </trkpt>
      <trkpt lat="48.74716" lon="2.51569">
        <ele>143.135</ele>
        <time>2018-10-14T11:25:10Z</time>
      </trkpt>
      <trkpt lat="48.74716" lon="2.51565">
        <ele>143.145</ele>
        <time>2018-10-14T11:25:12Z</time>
      </trkpt>
      <trkpt lat="48.74717" lon="2.51558">
        <ele>143.18</ele>
        <time>2018-10-14T11:25:19Z</time>
      </trkpt>
      <trkpt lat="48.74719" lon="2.5155">
        <ele>143.193</ele>
        <time>2018-10-14T11:25:22Z</time>
      </trkpt>
      <trkpt lat="48.7472" lon="2.51545">
        <ele>143.202</ele>
        <time>2018-10-14T11:25:24Z</time>
      </trkpt>
      <trkpt lat="48.74723" lon="2.51539">
        <ele>143.214</ele>
        <time>2018-10-14T11:25:27Z</time>
      </trkpt>
      <trkpt lat="48.74723" lon="2.51539">
        <ele>143.214</ele>
        <time>2018-10-14T11:25:32Z</time>
      </trkpt>
      <trkpt lat="48.74723" lon="2.51539">
        <ele>91</ele>
        <time>2018-10-14T11:25:32Z</time>
      </trkpt>
      <trkpt lat="48.74723" lon="2.51539">
        <ele>91</ele>
        <time>2018-10-14T11:25:50Z</time>
      </trkpt>
      <trkpt lat="48.74736" lon="2.51517">
        <ele>143.296</ele>
        <time>2018-10-14T11:25:50Z</time>
      </trkpt>
      <trkpt lat="48.7474" lon="2.51511">
        <ele>143.305</ele>
        <time>2018-10-14T11:25:54Z</time>
      </trkpt>
      <trkpt lat="48.74743" lon="2.51504">
        <ele>143.31</ele>
        <time>2018-10-14T11:25:58Z</time>
      </trkpt>
      <trkpt lat="48.74746" lon="2.51497">
        <ele>143.314</ele>
        <time>2018-10-14T11:26:03Z</time>
      </trkpt>
      <trkpt lat="48.74748" lon="2.51494">
        <ele>143.314</ele>
        <time>2018-10-14T11:26:05Z</time>
      </trkpt>
      <trkpt lat="48.7475" lon="2.5149">
        <ele>143.313</ele>
        <time>2018-10-14T11:26:07Z</time>
      </trkpt>
      <trkpt lat="48.74753" lon="2.51487">
        <ele>143.311</ele>
        <time>2018-10-14T11:26:09Z</time>
      </trkpt>
      <trkpt lat="48.74754" lon="2.51484">
        <ele>143.309</ele>
        <time>2018-10-14T11:26:11Z</time>
      </trkpt>
      <trkpt lat="48.74757" lon="2.51478">
        <ele>143.301</ele>
        <time>2018-10-14T11:26:16Z</time>
      </trkpt>
      <trkpt lat="48.7476" lon="2.51473">
        <ele>143.293</ele>
        <time>2018-10-14T11:26:19Z</time>
      </trkpt>
      <trkpt lat="48.74763" lon="2.51467">
        <ele>143.282</ele>
        <time>2018-10-14T11:26:22Z</time>
      </trkpt>
      <trkpt lat="48.74764" lon="2.51463">
        <ele>143.269</ele>
        <time>2018-10-14T11:26:25Z</time>
      </trkpt>
      <trkpt lat="48.74768" lon="2.51458">
        <ele>143.24</ele>
        <time>2018-10-14T11:26:31Z</time>
      </trkpt>
      <trkpt lat="48.7477" lon="2.51456">
        <ele>143.229</ele>
        <time>2018-10-14T11:26:33Z</time>
      </trkpt>
      <trkpt lat="48.74772" lon="2.51452">
        <ele>143.211</ele>
        <time>2018-10-14T11:26:36Z</time>
      </trkpt>
      <trkpt lat="48.74777" lon="2.51448">
        <ele>143.184</ele>
        <time>2018-10-14T11:26:40Z</time>
      </trkpt>
      <trkpt lat="48.7478" lon="2.51443">
        <ele>143.156</ele>
        <time>2018-10-14T11:26:44Z</time>
      </trkpt>
      <trkpt lat="48.74782" lon="2.5144">
        <ele>143.141</ele>
        <time>2018-10-14T11:26:46Z</time>
      </trkpt>
      <trkpt lat="48.74785" lon="2.51434">
        <ele>143.119</ele>
        <time>2018-10-14T11:26:49Z</time>
      </trkpt>
      <trkpt lat="48.74787" lon="2.5143">
        <ele>143.105</ele>
        <time>2018-10-14T11:26:51Z</time>
      </trkpt>
      <trkpt lat="48.7479" lon="2.51426">
        <ele>143.068</ele>
        <time>2018-10-14T11:26:56Z</time>
      </trkpt>
      <trkpt lat="48.74795" lon="2.51419">
        <ele>143.033</ele>
        <time>2018-10-14T11:27:01Z</time>
      </trkpt>
      <trkpt lat="48.74797" lon="2.51416">
        <ele>143.02</ele>
        <time>2018-10-14T11:27:03Z</time>
      </trkpt>
      <trkpt lat="48.74799" lon="2.51413">
        <ele>143.002</ele>
        <time>2018-10-14T11:27:06Z</time>
      </trkpt>
      <trkpt lat="48.74802" lon="2.51409">
        <ele>142.985</ele>
        <time>2018-10-14T11:27:09Z</time>
      </trkpt>
      <trkpt lat="48.74803" lon="2.51406">
        <ele>142.974</ele>
        <time>2018-10-14T11:27:11Z</time>
      </trkpt>
      <trkpt lat="48.74805" lon="2.51404">
        <ele>142.962</ele>
        <time>2018-10-14T11:27:13Z</time>
      </trkpt>
      <trkpt lat="48.74808" lon="2.514">
        <ele>142.944</ele>
        <time>2018-10-14T11:27:16Z</time>
      </trkpt>
      <trkpt lat="48.7481" lon="2.51396">
        <ele>142.933</ele>
        <time>2018-10-14T11:27:18Z</time>
      </trkpt>
      <trkpt lat="48.74813" lon="2.5139">
        <ele>142.917</ele>
        <time>2018-10-14T11:27:21Z</time>
      </trkpt>
      <trkpt lat="48.74815" lon="2.51386">
        <ele>142.908</ele>
        <time>2018-10-14T11:27:23Z</time>
      </trkpt>
      <trkpt lat="48.74819" lon="2.51381">
        <ele>142.889</ele>
        <time>2018-10-14T11:27:27Z</time>
      </trkpt>
      <trkpt lat="48.74821" lon="2.51377">
        <ele>142.875</ele>
        <time>2018-10-14T11:27:30Z</time>
      </trkpt>
      <trkpt lat="48.74823" lon="2.51371">
        <ele>142.855</ele>
        <time>2018-10-14T11:27:34Z</time>
      </trkpt>
      <trkpt lat="48.74825" lon="2.51368">
        <ele>142.846</ele>
        <time>2018-10-14T11:27:36Z</time>
      </trkpt>
      <trkpt lat="48.74828" lon="2.51363">
        <ele>142.837</ele>
        <time>2018-10-14T11:27:38Z</time>
      </trkpt>
      <trkpt lat="48.74829" lon="2.51359">
        <ele>142.828</ele>
        <time>2018-10-14T11:27:40Z</time>
      </trkpt>
      <trkpt lat="48.74833" lon="2.51354">
        <ele>142.807</ele>
        <time>2018-10-14T11:27:45Z</time>
      </trkpt>
      <trkpt lat="48.74835" lon="2.51352">
        <ele>142.795</ele>
        <time>2018-10-14T11:27:48Z</time>
      </trkpt>
      <trkpt lat="48.74838" lon="2.51345">
        <ele>142.778</ele>
        <time>2018-10-14T11:27:53Z</time>
      </trkpt>
      <trkpt lat="48.7484" lon="2.51341">
        <ele>142.771</ele>
        <time>2018-10-14T11:27:55Z</time>
      </trkpt>
      <trkpt lat="48.74843" lon="2.51335">
        <ele>142.755</ele>
        <time>2018-10-14T11:27:59Z</time>
      </trkpt>
      <trkpt lat="48.74845" lon="2.51328">
        <ele>142.735</ele>
        <time>2018-10-14T11:28:03Z</time>
      </trkpt>
      <trkpt lat="48.74848" lon="2.51322">
        <ele>142.71</ele>
        <time>2018-10-14T11:28:07Z</time>
      </trkpt>
      <trkpt lat="48.74852" lon="2.51317">
        <ele>142.67</ele>
        <time>2018-10-14T11:28:13Z</time>
      </trkpt>
      <trkpt lat="48.74854" lon="2.51311">
        <ele>142.644</ele>
        <time>2018-10-14T11:28:17Z</time>
      </trkpt>
      <trkpt lat="48.7485" lon="2.51304">
        <ele>142.608</ele>
        <time>2018-10-14T11:28:23Z</time>
      </trkpt>
      <trkpt lat="48.74847" lon="2.51301">
        <ele>142.597</ele>
        <time>2018-10-14T11:28:25Z</time>
      </trkpt>
      <trkpt lat="48.74845" lon="2.51299">
        <ele>142.585</ele>
        <time>2018-10-14T11:28:27Z</time>
      </trkpt>
      <trkpt lat="48.74843" lon="2.51297">
        <ele>142.567</ele>
        <time>2018-10-14T11:28:30Z</time>
      </trkpt>
      <trkpt lat="48.74841" lon="2.51295">
        <ele>142.555</ele>
        <time>2018-10-14T11:28:32Z</time>
      </trkpt>
      <trkpt lat="48.74836" lon="2.51293">
        <ele>142.534</ele>
        <time>2018-10-14T11:28:36Z</time>
      </trkpt>
      <trkpt lat="48.74831" lon="2.51292">
        <ele>142.504</ele>
        <time>2018-10-14T11:28:42Z</time>
      </trkpt>
      <trkpt lat="48.74826" lon="2.51289">
        <ele>142.485</ele>
        <time>2018-10-14T11:28:46Z</time>
      </trkpt>
      <trkpt lat="48.74821" lon="2.51287">
        <ele>142.463</ele>
        <time>2018-10-14T11:28:51Z</time>
      </trkpt>
      <trkpt lat="48.74815" lon="2.51288">
        <ele>142.448</ele>
        <time>2018-10-14T11:28:55Z</time>
      </trkpt>
      <trkpt lat="48.74812" lon="2.51288">
        <ele>142.44</ele>
        <time>2018-10-14T11:28:57Z</time>
      </trkpt>
      <trkpt lat="48.7481" lon="2.51288">
        <ele>142.428</ele>
        <time>2018-10-14T11:29:00Z</time>
      </trkpt>
      <trkpt lat="48.74806" lon="2.51288">
        <ele>142.408</ele>
        <time>2018-10-14T11:29:04Z</time>
      </trkpt>
      <trkpt lat="48.74802" lon="2.51286">
        <ele>142.382</ele>
        <time>2018-10-14T11:29:09Z</time>
      </trkpt>
      <trkpt lat="48.74796" lon="2.51286">
        <ele>142.362</ele>
        <time>2018-10-14T11:29:13Z</time>
      </trkpt>
      <trkpt lat="48.74791" lon="2.51284">
        <ele>142.348</ele>
        <time>2018-10-14T11:29:16Z</time>
      </trkpt>
      <trkpt lat="48.74785" lon="2.5128">
        <ele>142.332</ele>
        <time>2018-10-14T11:29:20Z</time>
      </trkpt>
      <trkpt lat="48.7478" lon="2.51279">
        <ele>142.316</ele>
        <time>2018-10-14T11:29:25Z</time>
      </trkpt>
      <trkpt lat="48.74775" lon="2.51277">
        <ele>142.302</ele>
        <time>2018-10-14T11:29:31Z</time>
      </trkpt>
      <trkpt lat="48.7477" lon="2.51273">
        <ele>142.294</ele>
        <time>2018-10-14T11:29:35Z</time>
      </trkpt>
      <trkpt lat="48.74765" lon="2.51272">
        <ele>142.288</ele>
        <time>2018-10-14T11:29:39Z</time>
      </trkpt>
      <trkpt lat="48.74762" lon="2.51271">
        <ele>142.286</ele>
        <time>2018-10-14T11:29:41Z</time>
      </trkpt>
      <trkpt lat="48.74758" lon="2.5127">
        <ele>142.281</ele>
        <time>2018-10-14T11:29:44Z</time>
      </trkpt>
      <trkpt lat="48.74753" lon="2.5127">
        <ele>142.273</ele>
        <time>2018-10-14T11:29:49Z</time>
      </trkpt>
      <trkpt lat="48.74751" lon="2.51271">
        <ele>142.27</ele>
        <time>2018-10-14T11:29:51Z</time>
      </trkpt>
      <trkpt lat="48.74745" lon="2.51269">
        <ele>142.263</ele>
        <time>2018-10-14T11:29:55Z</time>
      </trkpt>
      <trkpt lat="48.7474" lon="2.51267">
        <ele>142.257</ele>
        <time>2018-10-14T11:29:59Z</time>
      </trkpt>
      <trkpt lat="48.74738" lon="2.51267">
        <ele>142.254</ele>
        <time>2018-10-14T11:30:01Z</time>
      </trkpt>
      <trkpt lat="48.74732" lon="2.51264">
        <ele>142.246</ele>
        <time>2018-10-14T11:30:07Z</time>
      </trkpt>
      <trkpt lat="48.74729" lon="2.51262">
        <ele>142.242</ele>
        <time>2018-10-14T11:30:10Z</time>
      </trkpt>
      <trkpt lat="48.74723" lon="2.5126">
        <ele>142.236</ele>
        <time>2018-10-14T11:30:14Z</time>
      </trkpt>
      <trkpt lat="48.74721" lon="2.5126">
        <ele>142.232</ele>
        <time>2018-10-14T11:30:16Z</time>
      </trkpt>
      <trkpt lat="48.74715" lon="2.51259">
        <ele>142.225</ele>
        <time>2018-10-14T11:30:20Z</time>
      </trkpt>
      <trkpt lat="48.74711" lon="2.51257">
        <ele>142.218</ele>
        <time>2018-10-14T11:30:24Z</time>
      </trkpt>
      <trkpt lat="48.74706" lon="2.51256">
        <ele>142.212</ele>
        <time>2018-10-14T11:30:27Z</time>
      </trkpt>
      <trkpt lat="48.747" lon="2.51255">
        <ele>142.201</ele>
        <time>2018-10-14T11:30:31Z</time>
      </trkpt>
      <trkpt lat="48.74696" lon="2.51253">
        <ele>142.188</ele>
        <time>2018-10-14T11:30:36Z</time>
      </trkpt>
      <trkpt lat="48.74691" lon="2.51252">
        <ele>142.178</ele>
        <time>2018-10-14T11:30:40Z</time>
      </trkpt>
      <trkpt lat="48.74687" lon="2.51252">
        <ele>142.17</ele>
        <time>2018-10-14T11:30:43Z</time>
      </trkpt>
      <trkpt lat="48.74684" lon="2.51251">
        <ele>142.164</ele>
        <time>2018-10-14T11:30:45Z</time>
      </trkpt>
      <trkpt lat="48.74677" lon="2.51249">
        <ele>142.154</ele>
        <time>2018-10-14T11:30:49Z</time>
      </trkpt>
      <trkpt lat="48.74674" lon="2.51247">
        <ele>142.149</ele>
        <time>2018-10-14T11:30:51Z</time>
      </trkpt>
      <trkpt lat="48.7467" lon="2.51246">
        <ele>142.142</ele>
        <time>2018-10-14T11:30:54Z</time>
      </trkpt>
      <trkpt lat="48.74667" lon="2.51246">
        <ele>142.137</ele>
        <time>2018-10-14T11:30:57Z</time>
      </trkpt>
      <trkpt lat="48.74664" lon="2.51245">
        <ele>142.13</ele>
        <time>2018-10-14T11:31:01Z</time>
      </trkpt>
      <trkpt lat="48.74662" lon="2.51244">
        <ele>142.127</ele>
        <time>2018-10-14T11:31:03Z</time>
      </trkpt>
      <trkpt lat="48.7466" lon="2.51243">
        <ele>142.125</ele>
        <time>2018-10-14T11:31:05Z</time>
      </trkpt>
      <trkpt lat="48.74655" lon="2.5124">
        <ele>142.119</ele>
        <time>2018-10-14T11:31:09Z</time>
      </trkpt>
      <trkpt lat="48.74653" lon="2.51238">
        <ele>142.116</ele>
        <time>2018-10-14T11:31:12Z</time>
      </trkpt>
      <trkpt lat="48.74647" lon="2.51238">
        <ele>142.112</ele>
        <time>2018-10-14T11:31:15Z</time>
      </trkpt>
      <trkpt lat="48.74641" lon="2.51239">
        <ele>142.11</ele>
        <time>2018-10-14T11:31:18Z</time>
      </trkpt>
      <trkpt lat="48.74636" lon="2.51239">
        <ele>142.108</ele>
        <time>2018-10-14T11:31:21Z</time>
      </trkpt>
      <trkpt lat="48.74631" lon="2.51239">
        <ele>142.106</ele>
        <time>2018-10-14T11:31:24Z</time>
      </trkpt>
      <trkpt lat="48.74626" lon="2.51236">
        <ele>142.103</ele>
        <time>2018-10-14T11:31:28Z</time>
      </trkpt>
      <trkpt lat="48.74621" lon="2.51234">
        <ele>142.102</ele>
        <time>2018-10-14T11:31:32Z</time>
      </trkpt>
      <trkpt lat="48.74618" lon="2.51233">
        <ele>142.103</ele>
        <time>2018-10-14T11:31:34Z</time>
      </trkpt>
      <trkpt lat="48.74615" lon="2.51233">
        <ele>142.103</ele>
        <time>2018-10-14T11:31:36Z</time>
      </trkpt>
      <trkpt lat="48.7461" lon="2.5123">
        <ele>142.106</ele>
        <time>2018-10-14T11:31:42Z</time>
      </trkpt>
      <trkpt lat="48.74606" lon="2.5123">
        <ele>142.108</ele>
        <time>2018-10-14T11:31:46Z</time>
      </trkpt>
      <trkpt lat="48.74603" lon="2.5123">
        <ele>142.109</ele>
        <time>2018-10-14T11:31:48Z</time>
      </trkpt>
      <trkpt lat="48.746" lon="2.5123">
        <ele>142.111</ele>
        <time>2018-10-14T11:31:50Z</time>
      </trkpt>
      <trkpt lat="48.74598" lon="2.5123">
        <ele>142.114</ele>
        <time>2018-10-14T11:31:52Z</time>
      </trkpt>
      <trkpt lat="48.74593" lon="2.51226">
        <ele>142.122</ele>
        <time>2018-10-14T11:31:55Z</time>
      </trkpt>
      <trkpt lat="48.74588" lon="2.51223">
        <ele>142.132</ele>
        <time>2018-10-14T11:31:58Z</time>
      </trkpt>
      <trkpt lat="48.74583" lon="2.51221">
        <ele>142.147</ele>
        <time>2018-10-14T11:32:02Z</time>
      </trkpt>
      <trkpt lat="48.74581" lon="2.5122">
        <ele>142.155</ele>
        <time>2018-10-14T11:32:04Z</time>
      </trkpt>
      <trkpt lat="48.74575" lon="2.5122">
        <ele>142.175</ele>
        <time>2018-10-14T11:32:09Z</time>
      </trkpt>
      <trkpt lat="48.7457" lon="2.51219">
        <ele>142.186</ele>
        <time>2018-10-14T11:32:12Z</time>
      </trkpt>
      <trkpt lat="48.74565" lon="2.51217">
        <ele>142.197</ele>
        <time>2018-10-14T11:32:15Z</time>
      </trkpt>
      <trkpt lat="48.74562" lon="2.51216">
        <ele>142.203</ele>
        <time>2018-10-14T11:32:17Z</time>
      </trkpt>
      <trkpt lat="48.74558" lon="2.51215">
        <ele>142.21</ele>
        <time>2018-10-14T11:32:20Z</time>
      </trkpt>
      <trkpt lat="48.74555" lon="2.51214">
        <ele>142.215</ele>
        <time>2018-10-14T11:32:22Z</time>
      </trkpt>
      <trkpt lat="48.74551" lon="2.51213">
        <ele>142.223</ele>
        <time>2018-10-14T11:32:27Z</time>
      </trkpt>
      <trkpt lat="48.74546" lon="2.51212">
        <ele>142.228</ele>
        <time>2018-10-14T11:32:31Z</time>
      </trkpt>
      <trkpt lat="48.74541" lon="2.51209">
        <ele>142.231</ele>
        <time>2018-10-14T11:32:34Z</time>
      </trkpt>
      <trkpt lat="48.74538" lon="2.51207">
        <ele>142.233</ele>
        <time>2018-10-14T11:32:36Z</time>
      </trkpt>
      <trkpt lat="48.74533" lon="2.51206">
        <ele>142.237</ele>
        <time>2018-10-14T11:32:40Z</time>
      </trkpt>
      <trkpt lat="48.7453" lon="2.51205">
        <ele>142.239</ele>
        <time>2018-10-14T11:32:42Z</time>
      </trkpt>
      <trkpt lat="48.74527" lon="2.51204">
        <ele>142.243</ele>
        <time>2018-10-14T11:32:45Z</time>
      </trkpt>
      <trkpt lat="48.74524" lon="2.51204">
        <ele>142.246</ele>
        <time>2018-10-14T11:32:47Z</time>
      </trkpt>
      <trkpt lat="48.74521" lon="2.51203">
        <ele>142.25</ele>
        <time>2018-10-14T11:32:49Z</time>
      </trkpt>
      <trkpt lat="48.74516" lon="2.51201">
        <ele>142.257</ele>
        <time>2018-10-14T11:32:52Z</time>
      </trkpt>
      <trkpt lat="48.74511" lon="2.512">
        <ele>142.269</ele>
        <time>2018-10-14T11:32:55Z</time>
      </trkpt>
      <trkpt lat="48.74509" lon="2.51199">
        <ele>142.278</ele>
        <time>2018-10-14T11:32:57Z</time>
      </trkpt>
      <trkpt lat="48.74506" lon="2.51198">
        <ele>142.296</ele>
        <time>2018-10-14T11:33:00Z</time>
      </trkpt>
      <trkpt lat="48.74503" lon="2.51197">
        <ele>142.316</ele>
        <time>2018-10-14T11:33:03Z</time>
      </trkpt>
      <trkpt lat="48.74497" lon="2.51194">
        <ele>142.346</ele>
        <time>2018-10-14T11:33:07Z</time>
      </trkpt>
      <trkpt lat="48.74494" lon="2.51192">
        <ele>142.37</ele>
        <time>2018-10-14T11:33:10Z</time>
      </trkpt>
      <trkpt lat="48.74491" lon="2.51185">
        <ele>142.419</ele>
        <time>2018-10-14T11:33:16Z</time>
      </trkpt>
      <trkpt lat="48.74491" lon="2.51177">
        <ele>142.456</ele>
        <time>2018-10-14T11:33:21Z</time>
      </trkpt>
      <trkpt lat="48.74491" lon="2.51177">
        <ele>142.456</ele>
        <time>2018-10-14T11:33:29Z</time>
      </trkpt>
      <trkpt lat="48.74491" lon="2.51177">
        <ele>91</ele>
        <time>2018-10-14T11:33:29Z</time>
      </trkpt>
      <trkpt lat="48.74491" lon="2.51177">
        <ele>91</ele>
        <time>2018-10-14T11:34:51Z</time>
      </trkpt>
      <trkpt lat="48.7448" lon="2.51141">
        <ele>142.395</ele>
        <time>2018-10-14T11:34:51Z</time>
      </trkpt>
      <trkpt lat="48.74477" lon="2.5114">
        <ele>142.382</ele>
        <time>2018-10-14T11:34:53Z</time>
      </trkpt>
      <trkpt lat="48.74472" lon="2.51139">
        <ele>142.357</ele>
        <time>2018-10-14T11:34:57Z</time>
      </trkpt>
      <trkpt lat="48.74468" lon="2.51134">
        <ele>142.337</ele>
        <time>2018-10-14T11:35:01Z</time>
      </trkpt>
      <trkpt lat="48.74466" lon="2.51132">
        <ele>142.328</ele>
        <time>2018-10-14T11:35:03Z</time>
      </trkpt>
      <trkpt lat="48.74464" lon="2.5113">
        <ele>142.32</ele>
        <time>2018-10-14T11:35:05Z</time>
      </trkpt>
      <trkpt lat="48.74462" lon="2.51128">
        <ele>142.312</ele>
        <time>2018-10-14T11:35:07Z</time>
      </trkpt>
      <trkpt lat="48.74458" lon="2.51126">
        <ele>142.3</ele>
        <time>2018-10-14T11:35:10Z</time>
      </trkpt>
      <trkpt lat="48.74456" lon="2.51124">
        <ele>142.289</ele>
        <time>2018-10-14T11:35:13Z</time>
      </trkpt>
      <trkpt lat="48.74451" lon="2.51121">
        <ele>142.274</ele>
        <time>2018-10-14T11:35:18Z</time>
      </trkpt>
      <trkpt lat="48.74444" lon="2.51117">
        <ele>142.269</ele>
        <time>2018-10-14T11:35:21Z</time>
      </trkpt>
      <trkpt lat="48.74441" lon="2.51114">
        <ele>142.266</ele>
        <time>2018-10-14T11:35:23Z</time>
      </trkpt>
      <trkpt lat="48.74437" lon="2.51108">
        <ele>142.26</ele>
        <time>2018-10-14T11:35:27Z</time>
      </trkpt>
      <trkpt lat="48.74433" lon="2.51107">
        <ele>142.254</ele>
        <time>2018-10-14T11:35:32Z</time>
      </trkpt>
      <trkpt lat="48.74428" lon="2.51104">
        <ele>142.25</ele>
        <time>2018-10-14T11:35:36Z</time>
      </trkpt>
      <trkpt lat="48.74423" lon="2.51107">
        <ele>142.247</ele>
        <time>2018-10-14T11:35:39Z</time>
      </trkpt>
      <trkpt lat="48.7442" lon="2.51109">
        <ele>142.246</ele>
        <time>2018-10-14T11:35:41Z</time>
      </trkpt>
      <trkpt lat="48.74418" lon="2.51111">
        <ele>142.244</ele>
        <time>2018-10-14T11:35:43Z</time>
      </trkpt>
      <trkpt lat="48.74414" lon="2.51115">
        <ele>142.24</ele>
        <time>2018-10-14T11:35:48Z</time>
      </trkpt>
      <trkpt lat="48.74408" lon="2.51116">
        <ele>142.235</ele>
        <time>2018-10-14T11:35:53Z</time>
      </trkpt>
      <trkpt lat="48.74406" lon="2.51116">
        <ele>142.232</ele>
        <time>2018-10-14T11:35:56Z</time>
      </trkpt>
      <trkpt lat="48.74401" lon="2.51118">
        <ele>142.229</ele>
        <time>2018-10-14T11:36:00Z</time>
      </trkpt>
      <trkpt lat="48.74399" lon="2.51118">
        <ele>142.228</ele>
        <time>2018-10-14T11:36:02Z</time>
      </trkpt>
      <trkpt lat="48.74395" lon="2.51118">
        <ele>142.225</ele>
        <time>2018-10-14T11:36:06Z</time>
      </trkpt>
      <trkpt lat="48.74389" lon="2.51119">
        <ele>142.222</ele>
        <time>2018-10-14T11:36:10Z</time>
      </trkpt>
      <trkpt lat="48.74389" lon="2.51119">
        <ele>92</ele>
        <time>2018-10-14T11:36:17Z</time>
      </trkpt>
      <trkpt lat="48.74389" lon="2.51119">
        <ele>92</ele>
        <time>2018-10-14T11:36:22Z</time>
      </trkpt>
      <trkpt lat="48.74382" lon="2.51117">
        <ele>142.213</ele>
        <time>2018-10-14T11:36:22Z</time>
      </trkpt>
      <trkpt lat="48.74378" lon="2.51114">
        <ele>142.218</ele>
        <time>2018-10-14T11:36:26Z</time>
      </trkpt>
      <trkpt lat="48.74373" lon="2.51113">
        <ele>142.225</ele>
        <time>2018-10-14T11:36:30Z</time>
      </trkpt>
      <trkpt lat="48.74368" lon="2.51114">
        <ele>142.237</ele>
        <time>2018-10-14T11:36:36Z</time>
      </trkpt>
      <trkpt lat="48.74368" lon="2.51114">
        <ele>142.237</ele>
        <time>2018-10-14T11:36:43Z</time>
      </trkpt>
      <trkpt lat="48.74368" lon="2.51114">
        <ele>92</ele>
        <time>2018-10-14T11:36:43Z</time>
      </trkpt>
      <trkpt lat="48.74368" lon="2.51114">
        <ele>92</ele>
        <time>2018-10-14T11:36:58Z</time>
      </trkpt>
      <trkpt lat="48.74354" lon="2.51108">
        <ele>142.26</ele>
        <time>2018-10-14T11:36:58Z</time>
      </trkpt>
      <trkpt lat="48.74352" lon="2.51108">
        <ele>142.264</ele>
        <time>2018-10-14T11:37:00Z</time>
      </trkpt>
      <trkpt lat="48.74349" lon="2.51107">
        <ele>142.268</ele>
        <time>2018-10-14T11:37:02Z</time>
      </trkpt>
      <trkpt lat="48.74344" lon="2.51107">
        <ele>142.276</ele>
        <time>2018-10-14T11:37:06Z</time>
      </trkpt>
      <trkpt lat="48.74339" lon="2.51106">
        <ele>142.284</ele>
        <time>2018-10-14T11:37:10Z</time>
      </trkpt>
      <trkpt lat="48.74335" lon="2.51107">
        <ele>142.292</ele>
        <time>2018-10-14T11:37:15Z</time>
      </trkpt>
      <trkpt lat="48.7433" lon="2.51109">
        <ele>142.298</ele>
        <time>2018-10-14T11:37:19Z</time>
      </trkpt>
      <trkpt lat="48.74325" lon="2.51108">
        <ele>142.309</ele>
        <time>2018-10-14T11:37:24Z</time>
      </trkpt>
      <trkpt lat="48.74319" lon="2.51109">
        <ele>142.326</ele>
        <time>2018-10-14T11:37:29Z</time>
      </trkpt>
      <trkpt lat="48.74315" lon="2.51109">
        <ele>142.343</ele>
        <time>2018-10-14T11:37:33Z</time>
      </trkpt>
      <trkpt lat="48.74312" lon="2.51108">
        <ele>142.352</ele>
        <time>2018-10-14T11:37:35Z</time>
      </trkpt>
      <trkpt lat="48.7431" lon="2.51108">
        <ele>142.361</ele>
        <time>2018-10-14T11:37:37Z</time>
      </trkpt>
      <trkpt lat="48.74305" lon="2.51106">
        <ele>142.385</ele>
        <time>2018-10-14T11:37:42Z</time>
      </trkpt>
      <trkpt lat="48.743" lon="2.51105">
        <ele>142.402</ele>
        <time>2018-10-14T11:37:46Z</time>
      </trkpt>
      <trkpt lat="48.74298" lon="2.51104">
        <ele>142.409</ele>
        <time>2018-10-14T11:37:48Z</time>
      </trkpt>
      <trkpt lat="48.74292" lon="2.51106">
        <ele>142.433</ele>
        <time>2018-10-14T11:37:54Z</time>
      </trkpt>
      <trkpt lat="48.7429" lon="2.51107">
        <ele>142.45</ele>
        <time>2018-10-14T11:37:58Z</time>
      </trkpt>
      <trkpt lat="48.74285" lon="2.51103">
        <ele>142.467</ele>
        <time>2018-10-14T11:38:02Z</time>
      </trkpt>
      <trkpt lat="48.74281" lon="2.51101">
        <ele>142.488</ele>
        <time>2018-10-14T11:38:06Z</time>
      </trkpt>
      <trkpt lat="48.74278" lon="2.511">
        <ele>142.5</ele>
        <time>2018-10-14T11:38:08Z</time>
      </trkpt>
      <trkpt lat="48.74274" lon="2.51098">
        <ele>142.513</ele>
        <time>2018-10-14T11:38:10Z</time>
      </trkpt>
      <trkpt lat="48.74269" lon="2.51096">
        <ele>142.54</ele>
        <time>2018-10-14T11:38:14Z</time>
      </trkpt>
      <trkpt lat="48.74265" lon="2.51092">
        <ele>142.558</ele>
        <time>2018-10-14T11:38:17Z</time>
      </trkpt>
      <trkpt lat="48.7426" lon="2.51089">
        <ele>142.58</ele>
        <time>2018-10-14T11:38:21Z</time>
      </trkpt>
      <trkpt lat="48.74257" lon="2.51087">
        <ele>142.595</ele>
        <time>2018-10-14T11:38:24Z</time>
      </trkpt>
      <trkpt lat="48.74251" lon="2.51088">
        <ele>142.609</ele>
        <time>2018-10-14T11:38:27Z</time>
      </trkpt>
      <trkpt lat="48.74246" lon="2.5109">
        <ele>142.629</ele>
        <time>2018-10-14T11:38:31Z</time>
      </trkpt>
      <trkpt lat="48.74242" lon="2.51091">
        <ele>142.648</ele>
        <time>2018-10-14T11:38:35Z</time>
      </trkpt>
      <trkpt lat="48.7424" lon="2.51092">
        <ele>142.657</ele>
        <time>2018-10-14T11:38:37Z</time>
      </trkpt>
      <trkpt lat="48.74234" lon="2.51092">
        <ele>142.675</ele>
        <time>2018-10-14T11:38:41Z</time>
      </trkpt>
      <trkpt lat="48.74232" lon="2.51092">
        <ele>142.683</ele>
        <time>2018-10-14T11:38:43Z</time>
      </trkpt>
      <trkpt lat="48.74227" lon="2.5109">
        <ele>142.7</ele>
        <time>2018-10-14T11:38:47Z</time>
      </trkpt>
      <trkpt lat="48.74222" lon="2.5109">
        <ele>142.718</ele>
        <time>2018-10-14T11:38:51Z</time>
      </trkpt>
      <trkpt lat="48.74216" lon="2.51088">
        <ele>142.734</ele>
        <time>2018-10-14T11:38:55Z</time>
      </trkpt>
      <trkpt lat="48.74211" lon="2.51084">
        <ele>142.751</ele>
        <time>2018-10-14T11:39:00Z</time>
      </trkpt>
      <trkpt lat="48.74208" lon="2.51083">
        <ele>142.758</ele>
        <time>2018-10-14T11:39:02Z</time>
      </trkpt>
      <trkpt lat="48.74202" lon="2.51081">
        <ele>142.768</ele>
        <time>2018-10-14T11:39:05Z</time>
      </trkpt>
      <trkpt lat="48.74199" lon="2.5108">
        <ele>142.776</ele>
        <time>2018-10-14T11:39:07Z</time>
      </trkpt>
      <trkpt lat="48.74196" lon="2.5108">
        <ele>142.785</ele>
        <time>2018-10-14T11:39:09Z</time>
      </trkpt>
      <trkpt lat="48.74191" lon="2.51075">
        <ele>142.802</ele>
        <time>2018-10-14T11:39:13Z</time>
      </trkpt>
      <trkpt lat="48.74188" lon="2.51073">
        <ele>142.81</ele>
        <time>2018-10-14T11:39:15Z</time>
      </trkpt>
      <trkpt lat="48.74186" lon="2.51071">
        <ele>142.818</ele>
        <time>2018-10-14T11:39:17Z</time>
      </trkpt>
      <trkpt lat="48.74182" lon="2.51068">
        <ele>142.839</ele>
        <time>2018-10-14T11:39:22Z</time>
      </trkpt>
      <trkpt lat="48.7418" lon="2.51067">
        <ele>142.848</ele>
        <time>2018-10-14T11:39:24Z</time>
      </trkpt>
      <trkpt lat="48.74174" lon="2.51066">
        <ele>142.876</ele>
        <time>2018-10-14T11:39:30Z</time>
      </trkpt>
      <trkpt lat="48.74169" lon="2.51067">
        <ele>142.889</ele>
        <time>2018-10-14T11:39:33Z</time>
      </trkpt>
      <trkpt lat="48.74164" lon="2.51069">
        <ele>142.907</ele>
        <time>2018-10-14T11:39:37Z</time>
      </trkpt>
      <trkpt lat="48.7416" lon="2.5107">
        <ele>142.925</ele>
        <time>2018-10-14T11:39:41Z</time>
      </trkpt>
      <trkpt lat="48.74156" lon="2.51071">
        <ele>142.943</ele>
        <time>2018-10-14T11:39:45Z</time>
      </trkpt>
      <trkpt lat="48.74151" lon="2.5107">
        <ele>142.962</ele>
        <time>2018-10-14T11:39:49Z</time>
      </trkpt>
      <trkpt lat="48.74147" lon="2.51068">
        <ele>142.97</ele>
        <time>2018-10-14T11:39:51Z</time>
      </trkpt>
      <trkpt lat="48.74144" lon="2.51067">
        <ele>142.978</ele>
        <time>2018-10-14T11:39:53Z</time>
      </trkpt>
      <trkpt lat="48.74139" lon="2.51067">
        <ele>142.995</ele>
        <time>2018-10-14T11:39:57Z</time>
      </trkpt>
      <trkpt lat="48.74136" lon="2.51067">
        <ele>143.002</ele>
        <time>2018-10-14T11:39:59Z</time>
      </trkpt>
      <trkpt lat="48.74133" lon="2.51066">
        <ele>143.01</ele>
        <time>2018-10-14T11:40:01Z</time>
      </trkpt>
      <trkpt lat="48.74129" lon="2.51063">
        <ele>143.029</ele>
        <time>2018-10-14T11:40:06Z</time>
      </trkpt>
      <trkpt lat="48.74124" lon="2.51059">
        <ele>143.042</ele>
        <time>2018-10-14T11:40:09Z</time>
      </trkpt>
      <trkpt lat="48.74121" lon="2.51055">
        <ele>143.05</ele>
        <time>2018-10-14T11:40:11Z</time>
      </trkpt>
      <trkpt lat="48.74116" lon="2.51051">
        <ele>143.063</ele>
        <time>2018-10-14T11:40:14Z</time>
      </trkpt>
      <trkpt lat="48.74112" lon="2.51049">
        <ele>143.077</ele>
        <time>2018-10-14T11:40:18Z</time>
      </trkpt>
      <trkpt lat="48.74106" lon="2.51049">
        <ele>143.086</ele>
        <time>2018-10-14T11:40:21Z</time>
      </trkpt>
      <trkpt lat="48.74102" lon="2.51049">
        <ele>143.096</ele>
        <time>2018-10-14T11:40:24Z</time>
      </trkpt>
      <trkpt lat="48.74099" lon="2.51049">
        <ele>143.103</ele>
        <time>2018-10-14T11:40:26Z</time>
      </trkpt>
      <trkpt lat="48.74094" lon="2.51045">
        <ele>143.121</ele>
        <time>2018-10-14T11:40:31Z</time>
      </trkpt>
      <trkpt lat="48.74089" lon="2.51044">
        <ele>143.134</ele>
        <time>2018-10-14T11:40:35Z</time>
      </trkpt>
      <trkpt lat="48.74084" lon="2.51042">
        <ele>143.146</ele>
        <time>2018-10-14T11:40:40Z</time>
      </trkpt>
      <trkpt lat="48.74078" lon="2.51041">
        <ele>143.159</ele>
        <time>2018-10-14T11:40:46Z</time>
      </trkpt>
      <trkpt lat="48.74074" lon="2.5104">
        <ele>143.166</ele>
        <time>2018-10-14T11:40:50Z</time>
      </trkpt>
      <trkpt lat="48.74068" lon="2.51039">
        <ele>143.173</ele>
        <time>2018-10-14T11:40:54Z</time>
      </trkpt>
      <trkpt lat="48.74062" lon="2.51036">
        <ele>143.184</ele>
        <time>2018-10-14T11:40:59Z</time>
      </trkpt>
      <trkpt lat="48.74056" lon="2.51032">
        <ele>143.197</ele>
        <time>2018-10-14T11:41:04Z</time>
      </trkpt>
      <trkpt lat="48.74051" lon="2.5103">
        <ele>143.209</ele>
        <time>2018-10-14T11:41:09Z</time>
      </trkpt>
      <trkpt lat="48.74048" lon="2.51029">
        <ele>143.212</ele>
        <time>2018-10-14T11:41:11Z</time>
      </trkpt>
      <trkpt lat="48.74043" lon="2.51027">
        <ele>143.22</ele>
        <time>2018-10-14T11:41:16Z</time>
      </trkpt>
      <trkpt lat="48.74038" lon="2.51027">
        <ele>143.229</ele>
        <time>2018-10-14T11:41:20Z</time>
      </trkpt>
      <trkpt lat="48.74033" lon="2.51025">
        <ele>143.238</ele>
        <time>2018-10-14T11:41:24Z</time>
      </trkpt>
      <trkpt lat="48.74025" lon="2.51019">
        <ele>143.248</ele>
        <time>2018-10-14T11:41:28Z</time>
      </trkpt>
      <trkpt lat="48.74023" lon="2.51017">
        <ele>143.252</ele>
        <time>2018-10-14T11:41:30Z</time>
      </trkpt>
      <trkpt lat="48.74017" lon="2.51011">
        <ele>143.264</ele>
        <time>2018-10-14T11:41:36Z</time>
      </trkpt>
      <trkpt lat="48.74013" lon="2.51008">
        <ele>143.268</ele>
        <time>2018-10-14T11:41:40Z</time>
      </trkpt>
      <trkpt lat="48.7401" lon="2.51007">
        <ele>143.268</ele>
        <time>2018-10-14T11:41:42Z</time>
      </trkpt>
      <trkpt lat="48.74008" lon="2.51006">
        <ele>143.269</ele>
        <time>2018-10-14T11:41:44Z</time>
      </trkpt>
      <trkpt lat="48.74003" lon="2.51002">
        <ele>143.269</ele>
        <time>2018-10-14T11:41:48Z</time>
      </trkpt>
      <trkpt lat="48.73998" lon="2.51">
        <ele>143.269</ele>
        <time>2018-10-14T11:41:51Z</time>
      </trkpt>
      <trkpt lat="48.73995" lon="2.50999">
        <ele>143.269</ele>
        <time>2018-10-14T11:41:53Z</time>
      </trkpt>
      <trkpt lat="48.73989" lon="2.50999">
        <ele>143.268</ele>
        <time>2018-10-14T11:41:58Z</time>
      </trkpt>
      <trkpt lat="48.73986" lon="2.50999">
        <ele>143.265</ele>
        <time>2018-10-14T11:42:01Z</time>
      </trkpt>
      <trkpt lat="48.73984" lon="2.50999">
        <ele>143.263</ele>
        <time>2018-10-14T11:42:03Z</time>
      </trkpt>
      <trkpt lat="48.73979" lon="2.50997">
        <ele>143.258</ele>
        <time>2018-10-14T11:42:06Z</time>
      </trkpt>
      <trkpt lat="48.73974" lon="2.50993">
        <ele>143.251</ele>
        <time>2018-10-14T11:42:11Z</time>
      </trkpt>
      <trkpt lat="48.73972" lon="2.50992">
        <ele>143.249</ele>
        <time>2018-10-14T11:42:13Z</time>
      </trkpt>
      <trkpt lat="48.73967" lon="2.50989">
        <ele>143.247</ele>
        <time>2018-10-14T11:42:16Z</time>
      </trkpt>
      <trkpt lat="48.73965" lon="2.50987">
        <ele>143.245</ele>
        <time>2018-10-14T11:42:18Z</time>
      </trkpt>
      <trkpt lat="48.7396" lon="2.50984">
        <ele>143.242</ele>
        <time>2018-10-14T11:42:22Z</time>
      </trkpt>
      <trkpt lat="48.73956" lon="2.50981">
        <ele>143.238</ele>
        <time>2018-10-14T11:42:25Z</time>
      </trkpt>
      <trkpt lat="48.73951" lon="2.50979">
        <ele>143.231</ele>
        <time>2018-10-14T11:42:28Z</time>
      </trkpt>
      <trkpt lat="48.73947" lon="2.50976">
        <ele>143.222</ele>
        <time>2018-10-14T11:42:31Z</time>
      </trkpt>
      <trkpt lat="48.73945" lon="2.50974">
        <ele>143.215</ele>
        <time>2018-10-14T11:42:33Z</time>
      </trkpt>
      <trkpt lat="48.73942" lon="2.50972">
        <ele>143.202</ele>
        <time>2018-10-14T11:42:36Z</time>
      </trkpt>
      <trkpt lat="48.73938" lon="2.5097">
        <ele>143.188</ele>
        <time>2018-10-14T11:42:39Z</time>
      </trkpt>
      <trkpt lat="48.73934" lon="2.50968">
        <ele>143.174</ele>
        <time>2018-10-14T11:42:42Z</time>
      </trkpt>
      <trkpt lat="48.73929" lon="2.50966">
        <ele>143.159</ele>
        <time>2018-10-14T11:42:45Z</time>
      </trkpt>
      <trkpt lat="48.73927" lon="2.50965">
        <ele>143.148</ele>
        <time>2018-10-14T11:42:47Z</time>
      </trkpt>
      <trkpt lat="48.73924" lon="2.50965">
        <ele>143.136</ele>
        <time>2018-10-14T11:42:49Z</time>
      </trkpt>
      <trkpt lat="48.73919" lon="2.5096">
        <ele>143.112</ele>
        <time>2018-10-14T11:42:53Z</time>
      </trkpt>
      <trkpt lat="48.73916" lon="2.50957">
        <ele>143.101</ele>
        <time>2018-10-14T11:42:55Z</time>
      </trkpt>
      <trkpt lat="48.73911" lon="2.50953">
        <ele>143.083</ele>
        <time>2018-10-14T11:42:58Z</time>
      </trkpt>
      <trkpt lat="48.73907" lon="2.5095">
        <ele>143.064</ele>
        <time>2018-10-14T11:43:01Z</time>
      </trkpt>
      <trkpt lat="48.73902" lon="2.50948">
        <ele>143.023</ele>
        <time>2018-10-14T11:43:07Z</time>
      </trkpt>
      <trkpt lat="48.73898" lon="2.50946">
        <ele>143</ele>
        <time>2018-10-14T11:43:10Z</time>
      </trkpt>
      <trkpt lat="48.73893" lon="2.50944">
        <ele>142.973</ele>
        <time>2018-10-14T11:43:13Z</time>
      </trkpt>
      <trkpt lat="48.73887" lon="2.50941">
        <ele>142.94</ele>
        <time>2018-10-14T11:43:16Z</time>
      </trkpt>
      <trkpt lat="48.73883" lon="2.50939">
        <ele>142.915</ele>
        <time>2018-10-14T11:43:18Z</time>
      </trkpt>
      <trkpt lat="48.73877" lon="2.50937">
        <ele>142.876</ele>
        <time>2018-10-14T11:43:21Z</time>
      </trkpt>
      <trkpt lat="48.73872" lon="2.50937">
        <ele>142.836</ele>
        <time>2018-10-14T11:43:24Z</time>
      </trkpt>
      <trkpt lat="48.73869" lon="2.50936">
        <ele>142.808</ele>
        <time>2018-10-14T11:43:26Z</time>
      </trkpt>
      <trkpt lat="48.73866" lon="2.50935">
        <ele>142.781</ele>
        <time>2018-10-14T11:43:28Z</time>
      </trkpt>
      <trkpt lat="48.73863" lon="2.50934">
        <ele>142.754</ele>
        <time>2018-10-14T11:43:30Z</time>
      </trkpt>
      <trkpt lat="48.73861" lon="2.50933">
        <ele>142.727</ele>
        <time>2018-10-14T11:43:32Z</time>
      </trkpt>
      <trkpt lat="48.73859" lon="2.50932">
        <ele>142.702</ele>
        <time>2018-10-14T11:43:34Z</time>
      </trkpt>
      <trkpt lat="48.73856" lon="2.50931">
        <ele>142.677</ele>
        <time>2018-10-14T11:43:36Z</time>
      </trkpt>
      <trkpt lat="48.73853" lon="2.50929">
        <ele>142.644</ele>
        <time>2018-10-14T11:43:39Z</time>
      </trkpt>
      <trkpt lat="48.73847" lon="2.50928">
        <ele>142.605</ele>
        <time>2018-10-14T11:43:43Z</time>
      </trkpt>
      <trkpt lat="48.73844" lon="2.50927">
        <ele>142.579</ele>
        <time>2018-10-14T11:43:46Z</time>
      </trkpt>
      <trkpt lat="48.73841" lon="2.50926">
        <ele>142.564</ele>
        <time>2018-10-14T11:43:48Z</time>
      </trkpt>
      <trkpt lat="48.73839" lon="2.50925">
        <ele>142.55</ele>
        <time>2018-10-14T11:43:50Z</time>
      </trkpt>
      <trkpt lat="48.73833" lon="2.50924">
        <ele>142.532</ele>
        <time>2018-10-14T11:43:53Z</time>
      </trkpt>
      <trkpt lat="48.73828" lon="2.50921">
        <ele>142.515</ele>
        <time>2018-10-14T11:43:56Z</time>
      </trkpt>
      <trkpt lat="48.73823" lon="2.5092">
        <ele>142.501</ele>
        <time>2018-10-14T11:43:59Z</time>
      </trkpt>
      <trkpt lat="48.73819" lon="2.50918">
        <ele>142.489</ele>
        <time>2018-10-14T11:44:02Z</time>
      </trkpt>
      <trkpt lat="48.73816" lon="2.50915">
        <ele>142.483</ele>
        <time>2018-10-14T11:44:04Z</time>
      </trkpt>
      <trkpt lat="48.73813" lon="2.50913">
        <ele>142.477</ele>
        <time>2018-10-14T11:44:06Z</time>
      </trkpt>
      <trkpt lat="48.73807" lon="2.5091">
        <ele>142.464</ele>
        <time>2018-10-14T11:44:11Z</time>
      </trkpt>
      <trkpt lat="48.73804" lon="2.50908">
        <ele>142.461</ele>
        <time>2018-10-14T11:44:13Z</time>
      </trkpt>
      <trkpt lat="48.73798" lon="2.50906">
        <ele>142.451</ele>
        <time>2018-10-14T11:44:18Z</time>
      </trkpt>
      <trkpt lat="48.73794" lon="2.50905">
        <ele>142.442</ele>
        <time>2018-10-14T11:44:21Z</time>
      </trkpt>
      <trkpt lat="48.73788" lon="2.50904">
        <ele>142.431</ele>
        <time>2018-10-14T11:44:24Z</time>
      </trkpt>
      <trkpt lat="48.73785" lon="2.50903">
        <ele>142.423</ele>
        <time>2018-10-14T11:44:26Z</time>
      </trkpt>
      <trkpt lat="48.73783" lon="2.50903">
        <ele>142.416</ele>
        <time>2018-10-14T11:44:28Z</time>
      </trkpt>
      <trkpt lat="48.73777" lon="2.509">
        <ele>142.401</ele>
        <time>2018-10-14T11:44:32Z</time>
      </trkpt>
      <trkpt lat="48.73774" lon="2.50898">
        <ele>142.393</ele>
        <time>2018-10-14T11:44:34Z</time>
      </trkpt>
      <trkpt lat="48.73771" lon="2.50896">
        <ele>142.385</ele>
        <time>2018-10-14T11:44:36Z</time>
      </trkpt>
      <trkpt lat="48.73768" lon="2.50894">
        <ele>142.377</ele>
        <time>2018-10-14T11:44:38Z</time>
      </trkpt>
      <trkpt lat="48.73763" lon="2.50891">
        <ele>142.362</ele>
        <time>2018-10-14T11:44:42Z</time>
      </trkpt>
      <trkpt lat="48.7376" lon="2.50889">
        <ele>142.354</ele>
        <time>2018-10-14T11:44:44Z</time>
      </trkpt>
      <trkpt lat="48.73758" lon="2.50888">
        <ele>142.346</ele>
        <time>2018-10-14T11:44:46Z</time>
      </trkpt>
      <trkpt lat="48.73755" lon="2.50886">
        <ele>142.338</ele>
        <time>2018-10-14T11:44:48Z</time>
      </trkpt>
      <trkpt lat="48.73751" lon="2.50884">
        <ele>142.319</ele>
        <time>2018-10-14T11:44:53Z</time>
      </trkpt>
      <trkpt lat="48.73748" lon="2.50883">
        <ele>142.308</ele>
        <time>2018-10-14T11:44:56Z</time>
      </trkpt>
      <trkpt lat="48.73743" lon="2.50883">
        <ele>142.291</ele>
        <time>2018-10-14T11:45:01Z</time>
      </trkpt>
      <trkpt lat="48.73738" lon="2.50881">
        <ele>142.28</ele>
        <time>2018-10-14T11:45:05Z</time>
      </trkpt>
      <trkpt lat="48.73733" lon="2.50879">
        <ele>142.271</ele>
        <time>2018-10-14T11:45:09Z</time>
      </trkpt>
      <trkpt lat="48.7373" lon="2.50878">
        <ele>142.266</ele>
        <time>2018-10-14T11:45:11Z</time>
      </trkpt>
      <trkpt lat="48.73728" lon="2.50876">
        <ele>142.261</ele>
        <time>2018-10-14T11:45:13Z</time>
      </trkpt>
      <trkpt lat="48.73724" lon="2.50874">
        <ele>142.253</ele>
        <time>2018-10-14T11:45:16Z</time>
      </trkpt>
      <trkpt lat="48.73719" lon="2.50872">
        <ele>142.244</ele>
        <time>2018-10-14T11:45:19Z</time>
      </trkpt>
      <trkpt lat="48.73717" lon="2.5087">
        <ele>142.239</ele>
        <time>2018-10-14T11:45:21Z</time>
      </trkpt>
      <trkpt lat="48.73714" lon="2.50869">
        <ele>142.235</ele>
        <time>2018-10-14T11:45:23Z</time>
      </trkpt>
      <trkpt lat="48.73711" lon="2.50867">
        <ele>142.231</ele>
        <time>2018-10-14T11:45:25Z</time>
      </trkpt>
      <trkpt lat="48.73709" lon="2.50866">
        <ele>142.226</ele>
        <time>2018-10-14T11:45:27Z</time>
      </trkpt>
      <trkpt lat="48.73704" lon="2.50864">
        <ele>142.215</ele>
        <time>2018-10-14T11:45:32Z</time>
      </trkpt>
      <trkpt lat="48.73702" lon="2.50863">
        <ele>142.212</ele>
        <time>2018-10-14T11:45:34Z</time>
      </trkpt>
      <trkpt lat="48.73702" lon="2.50863">
        <ele>92</ele>
        <time>2018-10-14T11:45:41Z</time>
      </trkpt>
      <trkpt lat="48.73702" lon="2.50863">
        <ele>92</ele>
        <time>2018-10-14T11:46:47Z</time>
      </trkpt>
      <trkpt lat="48.73685" lon="2.50832">
        <ele>142.085</ele>
        <time>2018-10-14T11:46:47Z</time>
      </trkpt>
      <trkpt lat="48.73681" lon="2.50826">
        <ele>142.075</ele>
        <time>2018-10-14T11:46:50Z</time>
      </trkpt>
      <trkpt lat="48.73679" lon="2.5082">
        <ele>142.063</ele>
        <time>2018-10-14T11:46:53Z</time>
      </trkpt>
      <trkpt lat="48.73679" lon="2.50813">
        <ele>142.049</ele>
        <time>2018-10-14T11:46:57Z</time>
      </trkpt>
      <trkpt lat="48.73678" lon="2.50809">
        <ele>142.042</ele>
        <time>2018-10-14T11:46:59Z</time>
      </trkpt>
      <trkpt lat="48.73677" lon="2.50804">
        <ele>142.036</ele>
        <time>2018-10-14T11:47:01Z</time>
      </trkpt>
      <trkpt lat="48.73676" lon="2.50798">
        <ele>142.031</ele>
        <time>2018-10-14T11:47:03Z</time>
      </trkpt>
      <trkpt lat="48.73673" lon="2.50792">
        <ele>142.021</ele>
        <time>2018-10-14T11:47:07Z</time>
      </trkpt>
      <trkpt lat="48.73672" lon="2.50788">
        <ele>142.016</ele>
        <time>2018-10-14T11:47:09Z</time>
      </trkpt>
      <trkpt lat="48.73671" lon="2.50784">
        <ele>142.011</ele>
        <time>2018-10-14T11:47:11Z</time>
      </trkpt>
      <trkpt lat="48.7367" lon="2.50777">
        <ele>142.001</ele>
        <time>2018-10-14T11:47:15Z</time>
      </trkpt>
      <trkpt lat="48.73669" lon="2.50773">
        <ele>141.995</ele>
        <time>2018-10-14T11:47:17Z</time>
      </trkpt>
      <trkpt lat="48.73669" lon="2.50769">
        <ele>141.985</ele>
        <time>2018-10-14T11:47:20Z</time>
      </trkpt>
      <trkpt lat="48.73668" lon="2.50766">
        <ele>141.978</ele>
        <time>2018-10-14T11:47:22Z</time>
      </trkpt>
      <trkpt lat="48.73667" lon="2.50761">
        <ele>141.972</ele>
        <time>2018-10-14T11:47:24Z</time>
      </trkpt>
      <trkpt lat="48.73666" lon="2.50758">
        <ele>141.965</ele>
        <time>2018-10-14T11:47:26Z</time>
      </trkpt>
      <trkpt lat="48.73665" lon="2.50754">
        <ele>141.958</ele>
        <time>2018-10-14T11:47:28Z</time>
      </trkpt>
      <trkpt lat="48.73663" lon="2.50747">
        <ele>141.949</ele>
        <time>2018-10-14T11:47:31Z</time>
      </trkpt>
      <trkpt lat="48.7366" lon="2.50739">
        <ele>141.94</ele>
        <time>2018-10-14T11:47:35Z</time>
      </trkpt>
      <trkpt lat="48.73658" lon="2.50731">
        <ele>141.934</ele>
        <time>2018-10-14T11:47:39Z</time>
      </trkpt>
      <trkpt lat="48.73657" lon="2.50725">
        <ele>141.935</ele>
        <time>2018-10-14T11:47:41Z</time>
      </trkpt>
      <trkpt lat="48.73656" lon="2.50718">
        <ele>141.946</ele>
        <time>2018-10-14T11:47:45Z</time>
      </trkpt>
      <trkpt lat="48.73653" lon="2.50711">
        <ele>141.967</ele>
        <time>2018-10-14T11:47:49Z</time>
      </trkpt>
      <trkpt lat="48.7365" lon="2.50705">
        <ele>141.993</ele>
        <time>2018-10-14T11:47:53Z</time>
      </trkpt>
      <trkpt lat="48.73647" lon="2.50699">
        <ele>142.006</ele>
        <time>2018-10-14T11:47:55Z</time>
      </trkpt>
      <trkpt lat="48.73644" lon="2.50693">
        <ele>142.019</ele>
        <time>2018-10-14T11:47:57Z</time>
      </trkpt>
      <trkpt lat="48.73642" lon="2.50685">
        <ele>142.043</ele>
        <time>2018-10-14T11:48:01Z</time>
      </trkpt>
      <trkpt lat="48.73641" lon="2.50677">
        <ele>142.067</ele>
        <time>2018-10-14T11:48:05Z</time>
      </trkpt>
      <trkpt lat="48.73641" lon="2.5067">
        <ele>142.089</ele>
        <time>2018-10-14T11:48:08Z</time>
      </trkpt>
      <trkpt lat="48.73642" lon="2.5066">
        <ele>142.115</ele>
        <time>2018-10-14T11:48:11Z</time>
      </trkpt>
      <trkpt lat="48.73644" lon="2.50653">
        <ele>142.14</ele>
        <time>2018-10-14T11:48:14Z</time>
      </trkpt>
      <trkpt lat="48.73647" lon="2.50647">
        <ele>142.164</ele>
        <time>2018-10-14T11:48:17Z</time>
      </trkpt>
      <trkpt lat="48.73649" lon="2.5064">
        <ele>142.192</ele>
        <time>2018-10-14T11:48:21Z</time>
      </trkpt>
      <trkpt lat="48.73652" lon="2.50634">
        <ele>142.22</ele>
        <time>2018-10-14T11:48:25Z</time>
      </trkpt>
      <trkpt lat="48.73654" lon="2.50629">
        <ele>142.24</ele>
        <time>2018-10-14T11:48:28Z</time>
      </trkpt>
      <trkpt lat="48.73657" lon="2.50623">
        <ele>142.259</ele>
        <time>2018-10-14T11:48:31Z</time>
      </trkpt>
      <trkpt lat="48.73659" lon="2.5062">
        <ele>142.272</ele>
        <time>2018-10-14T11:48:33Z</time>
      </trkpt>
      <trkpt lat="48.7366" lon="2.50614">
        <ele>142.293</ele>
        <time>2018-10-14T11:48:36Z</time>
      </trkpt>
      <trkpt lat="48.73663" lon="2.50607">
        <ele>142.325</ele>
        <time>2018-10-14T11:48:40Z</time>
      </trkpt>
      <trkpt lat="48.73664" lon="2.506">
        <ele>142.351</ele>
        <time>2018-10-14T11:48:43Z</time>
      </trkpt>
      <trkpt lat="48.73665" lon="2.50596">
        <ele>142.368</ele>
        <time>2018-10-14T11:48:45Z</time>
      </trkpt>
      <trkpt lat="48.73667" lon="2.50588">
        <ele>142.401</ele>
        <time>2018-10-14T11:48:49Z</time>
      </trkpt>
      <trkpt lat="48.73667" lon="2.5058">
        <ele>142.446</ele>
        <time>2018-10-14T11:48:54Z</time>
      </trkpt>
      <trkpt lat="48.73668" lon="2.50572">
        <ele>142.477</ele>
        <time>2018-10-14T11:48:57Z</time>
      </trkpt>
      <trkpt lat="48.7367" lon="2.50564">
        <ele>142.506</ele>
        <time>2018-10-14T11:49:00Z</time>
      </trkpt>
      <trkpt lat="48.73671" lon="2.50561">
        <ele>142.525</ele>
        <time>2018-10-14T11:49:02Z</time>
      </trkpt>
      <trkpt lat="48.73672" lon="2.50556">
        <ele>142.544</ele>
        <time>2018-10-14T11:49:04Z</time>
      </trkpt>
      <trkpt lat="48.73673" lon="2.50551">
        <ele>142.563</ele>
        <time>2018-10-14T11:49:06Z</time>
      </trkpt>
      <trkpt lat="48.73674" lon="2.50547">
        <ele>142.582</ele>
        <time>2018-10-14T11:49:08Z</time>
      </trkpt>
      <trkpt lat="48.73676" lon="2.50542">
        <ele>142.611</ele>
        <time>2018-10-14T11:49:11Z</time>
      </trkpt>
      <trkpt lat="48.73677" lon="2.50534">
        <ele>142.653</ele>
        <time>2018-10-14T11:49:16Z</time>
      </trkpt>
      <trkpt lat="48.73678" lon="2.50528">
        <ele>142.673</ele>
        <time>2018-10-14T11:49:19Z</time>
      </trkpt>
      <trkpt lat="48.73678" lon="2.5052">
        <ele>142.692</ele>
        <time>2018-10-14T11:49:23Z</time>
      </trkpt>
      <trkpt lat="48.73679" lon="2.50512">
        <ele>142.701</ele>
        <time>2018-10-14T11:49:26Z</time>
      </trkpt>
      <trkpt lat="48.7368" lon="2.50507">
        <ele>142.705</ele>
        <time>2018-10-14T11:49:28Z</time>
      </trkpt>
      <trkpt lat="48.73681" lon="2.50502">
        <ele>142.705</ele>
        <time>2018-10-14T11:49:30Z</time>
      </trkpt>
      <trkpt lat="48.73685" lon="2.50496">
        <ele>142.696</ele>
        <time>2018-10-14T11:49:35Z</time>
      </trkpt>
      <trkpt lat="48.73688" lon="2.50489">
        <ele>142.683</ele>
        <time>2018-10-14T11:49:39Z</time>
      </trkpt>
      <trkpt lat="48.73689" lon="2.50485">
        <ele>142.677</ele>
        <time>2018-10-14T11:49:41Z</time>
      </trkpt>
      <trkpt lat="48.73691" lon="2.50477">
        <ele>142.668</ele>
        <time>2018-10-14T11:49:44Z</time>
      </trkpt>
      <trkpt lat="48.73692" lon="2.50473">
        <ele>142.663</ele>
        <time>2018-10-14T11:49:46Z</time>
      </trkpt>
      <trkpt lat="48.73693" lon="2.5047">
        <ele>142.658</ele>
        <time>2018-10-14T11:49:48Z</time>
      </trkpt>
      <trkpt lat="48.73696" lon="2.50462">
        <ele>142.651</ele>
        <time>2018-10-14T11:49:51Z</time>
      </trkpt>
      <trkpt lat="48.737" lon="2.50456">
        <ele>142.644</ele>
        <time>2018-10-14T11:49:54Z</time>
      </trkpt>
      <trkpt lat="48.73702" lon="2.50449">
        <ele>142.637</ele>
        <time>2018-10-14T11:49:58Z</time>
      </trkpt>
      <trkpt lat="48.73703" lon="2.50445">
        <ele>142.635</ele>
        <time>2018-10-14T11:50:01Z</time>
      </trkpt>
      <trkpt lat="48.73706" lon="2.50438">
        <ele>142.639</ele>
        <time>2018-10-14T11:50:05Z</time>
      </trkpt>
      <trkpt lat="48.73707" lon="2.50434">
        <ele>142.643</ele>
        <time>2018-10-14T11:50:07Z</time>
      </trkpt>
      <trkpt lat="48.73708" lon="2.5043">
        <ele>142.647</ele>
        <time>2018-10-14T11:50:09Z</time>
      </trkpt>
      <trkpt lat="48.73711" lon="2.50422">
        <ele>142.654</ele>
        <time>2018-10-14T11:50:13Z</time>
      </trkpt>
      <trkpt lat="48.7371" lon="2.50413">
        <ele>142.657</ele>
        <time>2018-10-14T11:50:16Z</time>
      </trkpt>
      <trkpt lat="48.7371" lon="2.50407">
        <ele>142.657</ele>
        <time>2018-10-14T11:50:18Z</time>
      </trkpt>
      <trkpt lat="48.73712" lon="2.504">
        <ele>142.657</ele>
        <time>2018-10-14T11:50:21Z</time>
      </trkpt>
      <trkpt lat="48.73713" lon="2.50395">
        <ele>142.658</ele>
        <time>2018-10-14T11:50:23Z</time>
      </trkpt>
      <trkpt lat="48.73716" lon="2.50388">
        <ele>142.659</ele>
        <time>2018-10-14T11:50:27Z</time>
      </trkpt>
      <trkpt lat="48.73718" lon="2.50384">
        <ele>142.66</ele>
        <time>2018-10-14T11:50:29Z</time>
      </trkpt>
      <trkpt lat="48.7372" lon="2.50377">
        <ele>142.661</ele>
        <time>2018-10-14T11:50:32Z</time>
      </trkpt>
      <trkpt lat="48.73721" lon="2.5037">
        <ele>142.659</ele>
        <time>2018-10-14T11:50:36Z</time>
      </trkpt>
      <trkpt lat="48.73722" lon="2.50366">
        <ele>142.656</ele>
        <time>2018-10-14T11:50:39Z</time>
      </trkpt>
      <trkpt lat="48.73723" lon="2.50361">
        <ele>142.656</ele>
        <time>2018-10-14T11:50:44Z</time>
      </trkpt>
      <trkpt lat="48.73724" lon="2.50356">
        <ele>142.657</ele>
        <time>2018-10-14T11:50:46Z</time>
      </trkpt>
      <trkpt lat="48.73724" lon="2.50348">
        <ele>142.662</ele>
        <time>2018-10-14T11:50:49Z</time>
      </trkpt>
      <trkpt lat="48.73725" lon="2.50341">
        <ele>142.67</ele>
        <time>2018-10-14T11:50:53Z</time>
      </trkpt>
      <trkpt lat="48.73727" lon="2.50333">
        <ele>142.682</ele>
        <time>2018-10-14T11:50:57Z</time>
      </trkpt>
      <trkpt lat="48.73729" lon="2.50327">
        <ele>142.692</ele>
        <time>2018-10-14T11:51:00Z</time>
      </trkpt>
      <trkpt lat="48.73729" lon="2.5032">
        <ele>142.702</ele>
        <time>2018-10-14T11:51:03Z</time>
      </trkpt>
      <trkpt lat="48.73731" lon="2.50311">
        <ele>142.713</ele>
        <time>2018-10-14T11:51:07Z</time>
      </trkpt>
      <trkpt lat="48.73733" lon="2.50303">
        <ele>142.721</ele>
        <time>2018-10-14T11:51:10Z</time>
      </trkpt>
      <trkpt lat="48.73734" lon="2.50298">
        <ele>142.726</ele>
        <time>2018-10-14T11:51:12Z</time>
      </trkpt>
      <trkpt lat="48.73736" lon="2.50292">
        <ele>142.739</ele>
        <time>2018-10-14T11:51:18Z</time>
      </trkpt>
      <trkpt lat="48.73738" lon="2.50288">
        <ele>142.744</ele>
        <time>2018-10-14T11:51:21Z</time>
      </trkpt>
      <trkpt lat="48.7374" lon="2.50282">
        <ele>142.746</ele>
        <time>2018-10-14T11:51:28Z</time>
      </trkpt>
      <trkpt lat="48.7374" lon="2.50282">
        <ele>91.7</ele>
        <time>2018-10-14T11:51:36Z</time>
      </trkpt>
      <trkpt lat="48.7374" lon="2.50282">
        <ele>91.7</ele>
        <time>2018-10-14T11:51:40Z</time>
      </trkpt>
      <trkpt lat="48.73726" lon="2.50281">
        <ele>142.753</ele>
        <time>2018-10-14T11:51:40Z</time>
      </trkpt>
      <trkpt lat="48.73723" lon="2.50281">
        <ele>142.755</ele>
        <time>2018-10-14T11:51:42Z</time>
      </trkpt>
      <trkpt lat="48.73718" lon="2.50282">
        <ele>142.759</ele>
        <time>2018-10-14T11:51:45Z</time>
      </trkpt>
      <trkpt lat="48.73716" lon="2.50283">
        <ele>142.761</ele>
        <time>2018-10-14T11:51:47Z</time>
      </trkpt>
      <trkpt lat="48.73712" lon="2.50284">
        <ele>142.764</ele>
        <time>2018-10-14T11:51:49Z</time>
      </trkpt>
      <trkpt lat="48.73707" lon="2.50286">
        <ele>142.767</ele>
        <time>2018-10-14T11:51:52Z</time>
      </trkpt>
      <trkpt lat="48.73702" lon="2.50286">
        <ele>142.774</ele>
        <time>2018-10-14T11:51:56Z</time>
      </trkpt>
      <trkpt lat="48.73697" lon="2.50285">
        <ele>142.782</ele>
        <time>2018-10-14T11:51:59Z</time>
      </trkpt>
      <trkpt lat="48.73693" lon="2.50286">
        <ele>142.793</ele>
        <time>2018-10-14T11:52:03Z</time>
      </trkpt>
      <trkpt lat="48.7369" lon="2.50287">
        <ele>142.801</ele>
        <time>2018-10-14T11:52:06Z</time>
      </trkpt>
      <trkpt lat="48.73687" lon="2.50288">
        <ele>142.808</ele>
        <time>2018-10-14T11:52:08Z</time>
      </trkpt>
      <trkpt lat="48.73683" lon="2.50289">
        <ele>142.82</ele>
        <time>2018-10-14T11:52:11Z</time>
      </trkpt>
      <trkpt lat="48.73677" lon="2.50292">
        <ele>142.838</ele>
        <time>2018-10-14T11:52:15Z</time>
      </trkpt>
      <trkpt lat="48.73671" lon="2.50292">
        <ele>142.853</ele>
        <time>2018-10-14T11:52:18Z</time>
      </trkpt>
      <trkpt lat="48.73666" lon="2.50293">
        <ele>142.863</ele>
        <time>2018-10-14T11:52:20Z</time>
      </trkpt>
      <trkpt lat="48.73664" lon="2.50294">
        <ele>142.872</ele>
        <time>2018-10-14T11:52:22Z</time>
      </trkpt>
      <trkpt lat="48.7366" lon="2.50294">
        <ele>142.885</ele>
        <time>2018-10-14T11:52:25Z</time>
      </trkpt>
      <trkpt lat="48.73657" lon="2.50295">
        <ele>142.895</ele>
        <time>2018-10-14T11:52:27Z</time>
      </trkpt>
      <trkpt lat="48.73657" lon="2.50295">
        <ele>92</ele>
        <time>2018-10-14T11:52:32Z</time>
      </trkpt>
      <trkpt lat="48.73657" lon="2.50295">
        <ele>92</ele>
        <time>2018-10-14T11:52:36Z</time>
      </trkpt>
      <trkpt lat="48.7365" lon="2.50293">
        <ele>142.934</ele>
        <time>2018-10-14T11:52:36Z</time>
      </trkpt>
      <trkpt lat="48.73644" lon="2.50295">
        <ele>142.956</ele>
        <time>2018-10-14T11:52:41Z</time>
      </trkpt>
      <trkpt lat="48.7364" lon="2.50296">
        <ele>142.968</ele>
        <time>2018-10-14T11:52:44Z</time>
      </trkpt>
      <trkpt lat="48.73635" lon="2.50294">
        <ele>142.989</ele>
        <time>2018-10-14T11:52:49Z</time>
      </trkpt>
      <trkpt lat="48.7363" lon="2.50294">
        <ele>143.002</ele>
        <time>2018-10-14T11:52:52Z</time>
      </trkpt>
      <trkpt lat="48.73625" lon="2.50294">
        <ele>143.02</ele>
        <time>2018-10-14T11:52:56Z</time>
      </trkpt>
      <trkpt lat="48.7362" lon="2.50294">
        <ele>143.033</ele>
        <time>2018-10-14T11:52:59Z</time>
      </trkpt>
      <trkpt lat="48.73616" lon="2.50294">
        <ele>143.047</ele>
        <time>2018-10-14T11:53:02Z</time>
      </trkpt>
      <trkpt lat="48.73612" lon="2.50294">
        <ele>143.06</ele>
        <time>2018-10-14T11:53:05Z</time>
      </trkpt>
      <trkpt lat="48.73608" lon="2.50293">
        <ele>143.069</ele>
        <time>2018-10-14T11:53:07Z</time>
      </trkpt>
      <trkpt lat="48.73603" lon="2.50291">
        <ele>143.083</ele>
        <time>2018-10-14T11:53:10Z</time>
      </trkpt>
      <trkpt lat="48.73598" lon="2.5029">
        <ele>143.097</ele>
        <time>2018-10-14T11:53:13Z</time>
      </trkpt>
      <trkpt lat="48.73593" lon="2.50291">
        <ele>143.112</ele>
        <time>2018-10-14T11:53:17Z</time>
      </trkpt>
      <trkpt lat="48.73588" lon="2.50293">
        <ele>143.127</ele>
        <time>2018-10-14T11:53:21Z</time>
      </trkpt>
      <trkpt lat="48.73583" lon="2.50295">
        <ele>143.14</ele>
        <time>2018-10-14T11:53:25Z</time>
      </trkpt>
      <trkpt lat="48.73579" lon="2.50295">
        <ele>143.149</ele>
        <time>2018-10-14T11:53:28Z</time>
      </trkpt>
      <trkpt lat="48.73573" lon="2.50297">
        <ele>143.154</ele>
        <time>2018-10-14T11:53:31Z</time>
      </trkpt>
      <trkpt lat="48.73568" lon="2.50298">
        <ele>143.154</ele>
        <time>2018-10-14T11:53:33Z</time>
      </trkpt>
      <trkpt lat="48.73565" lon="2.50298">
        <ele>143.154</ele>
        <time>2018-10-14T11:53:34Z</time>
      </trkpt>
      <trkpt lat="48.73561" lon="2.50298">
        <ele>143.154</ele>
        <time>2018-10-14T11:53:36Z</time>
      </trkpt>
      <trkpt lat="48.73558" lon="2.50298">
        <ele>143.154</ele>
        <time>2018-10-14T11:53:38Z</time>
      </trkpt>
      <trkpt lat="48.73555" lon="2.50298">
        <ele>143.156</ele>
        <time>2018-10-14T11:53:40Z</time>
      </trkpt>
      <trkpt lat="48.7355" lon="2.503">
        <ele>143.167</ele>
        <time>2018-10-14T11:53:46Z</time>
      </trkpt>
      <trkpt lat="48.73547" lon="2.50301">
        <ele>143.175</ele>
        <time>2018-10-14T11:53:48Z</time>
      </trkpt>
      <trkpt lat="48.73544" lon="2.50302">
        <ele>143.183</ele>
        <time>2018-10-14T11:53:50Z</time>
      </trkpt>
      <trkpt lat="48.7354" lon="2.50303">
        <ele>143.197</ele>
        <time>2018-10-14T11:53:53Z</time>
      </trkpt>
      <trkpt lat="48.73537" lon="2.50303">
        <ele>143.207</ele>
        <time>2018-10-14T11:53:55Z</time>
      </trkpt>
      <trkpt lat="48.73531" lon="2.50303">
        <ele>143.229</ele>
        <time>2018-10-14T11:53:59Z</time>
      </trkpt>
      <trkpt lat="48.73526" lon="2.50302">
        <ele>143.257</ele>
        <time>2018-10-14T11:54:04Z</time>
      </trkpt>
      <trkpt lat="48.73521" lon="2.50303">
        <ele>143.274</ele>
        <time>2018-10-14T11:54:07Z</time>
      </trkpt>
      <trkpt lat="48.73515" lon="2.50304">
        <ele>143.295</ele>
        <time>2018-10-14T11:54:11Z</time>
      </trkpt>
      <trkpt lat="48.73509" lon="2.50304">
        <ele>143.317</ele>
        <time>2018-10-14T11:54:15Z</time>
      </trkpt>
      <trkpt lat="48.73506" lon="2.50303">
        <ele>143.333</ele>
        <time>2018-10-14T11:54:18Z</time>
      </trkpt>
      <trkpt lat="48.73501" lon="2.50304">
        <ele>143.36</ele>
        <time>2018-10-14T11:54:23Z</time>
      </trkpt>
      <trkpt lat="48.73497" lon="2.50305">
        <ele>143.383</ele>
        <time>2018-10-14T11:54:27Z</time>
      </trkpt>
      <trkpt lat="48.73494" lon="2.50306">
        <ele>143.395</ele>
        <time>2018-10-14T11:54:29Z</time>
      </trkpt>
      <trkpt lat="48.7349" lon="2.50304">
        <ele>143.412</ele>
        <time>2018-10-14T11:54:32Z</time>
      </trkpt>
      <trkpt lat="48.73485" lon="2.50305">
        <ele>143.428</ele>
        <time>2018-10-14T11:54:35Z</time>
      </trkpt>
      <trkpt lat="48.73481" lon="2.50305">
        <ele>143.437</ele>
        <time>2018-10-14T11:54:37Z</time>
      </trkpt>
      <trkpt lat="48.73477" lon="2.50306">
        <ele>143.445</ele>
        <time>2018-10-14T11:54:39Z</time>
      </trkpt>
      <trkpt lat="48.73473" lon="2.50306">
        <ele>143.451</ele>
        <time>2018-10-14T11:54:41Z</time>
      </trkpt>
      <trkpt lat="48.73471" lon="2.50307">
        <ele>143.455</ele>
        <time>2018-10-14T11:54:43Z</time>
      </trkpt>
      <trkpt lat="48.73465" lon="2.50305">
        <ele>143.462</ele>
        <time>2018-10-14T11:54:47Z</time>
      </trkpt>
      <trkpt lat="48.73459" lon="2.50303">
        <ele>143.469</ele>
        <time>2018-10-14T11:54:51Z</time>
      </trkpt>
      <trkpt lat="48.73456" lon="2.50302">
        <ele>143.476</ele>
        <time>2018-10-14T11:54:54Z</time>
      </trkpt>
      <trkpt lat="48.73453" lon="2.50301">
        <ele>143.48</ele>
        <time>2018-10-14T11:54:56Z</time>
      </trkpt>
      <trkpt lat="48.73448" lon="2.50301">
        <ele>143.487</ele>
        <time>2018-10-14T11:55:00Z</time>
      </trkpt>
      <trkpt lat="48.73443" lon="2.50302">
        <ele>143.489</ele>
        <time>2018-10-14T11:55:03Z</time>
      </trkpt>
      <trkpt lat="48.7344" lon="2.50302">
        <ele>143.489</ele>
        <time>2018-10-14T11:55:05Z</time>
      </trkpt>
      <trkpt lat="48.73434" lon="2.50302">
        <ele>143.49</ele>
        <time>2018-10-14T11:55:09Z</time>
      </trkpt>
      <trkpt lat="48.73429" lon="2.50305">
        <ele>143.493</ele>
        <time>2018-10-14T11:55:12Z</time>
      </trkpt>
      <trkpt lat="48.73426" lon="2.50306">
        <ele>143.497</ele>
        <time>2018-10-14T11:55:14Z</time>
      </trkpt>
      <trkpt lat="48.73422" lon="2.50307">
        <ele>143.51</ele>
        <time>2018-10-14T11:55:18Z</time>
      </trkpt>
      <trkpt lat="48.73419" lon="2.50307">
        <ele>143.517</ele>
        <time>2018-10-14T11:55:20Z</time>
      </trkpt>
      <trkpt lat="48.73415" lon="2.50308">
        <ele>143.526</ele>
        <time>2018-10-14T11:55:22Z</time>
      </trkpt>
      <trkpt lat="48.73412" lon="2.50309">
        <ele>143.539</ele>
        <time>2018-10-14T11:55:25Z</time>
      </trkpt>
      <trkpt lat="48.73409" lon="2.5031">
        <ele>143.554</ele>
        <time>2018-10-14T11:55:28Z</time>
      </trkpt>
      <trkpt lat="48.73407" lon="2.50311">
        <ele>143.571</ele>
        <time>2018-10-14T11:55:31Z</time>
      </trkpt>
      <trkpt lat="48.73403" lon="2.50313">
        <ele>143.598</ele>
        <time>2018-10-14T11:55:35Z</time>
      </trkpt>
      <trkpt lat="48.73399" lon="2.50315">
        <ele>143.622</ele>
        <time>2018-10-14T11:55:38Z</time>
      </trkpt>
      <trkpt lat="48.73394" lon="2.50315">
        <ele>143.66</ele>
        <time>2018-10-14T11:55:42Z</time>
      </trkpt>
      <trkpt lat="48.7339" lon="2.50316">
        <ele>143.694</ele>
        <time>2018-10-14T11:55:45Z</time>
      </trkpt>
      <trkpt lat="48.73387" lon="2.50316">
        <ele>143.734</ele>
        <time>2018-10-14T11:55:48Z</time>
      </trkpt>
      <trkpt lat="48.73382" lon="2.50317">
        <ele>143.776</ele>
        <time>2018-10-14T11:55:51Z</time>
      </trkpt>
      <trkpt lat="48.73379" lon="2.50317">
        <ele>143.791</ele>
        <time>2018-10-14T11:55:52Z</time>
      </trkpt>
      <trkpt lat="48.73376" lon="2.50317">
        <ele>143.821</ele>
        <time>2018-10-14T11:55:54Z</time>
      </trkpt>
      <trkpt lat="48.7337" lon="2.50315">
        <ele>143.879</ele>
        <time>2018-10-14T11:55:58Z</time>
      </trkpt>
      <trkpt lat="48.73367" lon="2.50314">
        <ele>143.921</ele>
        <time>2018-10-14T11:56:01Z</time>
      </trkpt>
      <trkpt lat="48.73361" lon="2.50314">
        <ele>143.974</ele>
        <time>2018-10-14T11:56:05Z</time>
      </trkpt>
      <trkpt lat="48.73357" lon="2.50314">
        <ele>144.042</ele>
        <time>2018-10-14T11:56:10Z</time>
      </trkpt>
      <trkpt lat="48.73353" lon="2.50315">
        <ele>144.082</ele>
        <time>2018-10-14T11:56:13Z</time>
      </trkpt>
      <trkpt lat="48.73353" lon="2.50315">
        <ele>91</ele>
        <time>2018-10-14T11:56:21Z</time>
      </trkpt>
      <trkpt lat="48.73353" lon="2.50315">
        <ele>91</ele>
        <time>2018-10-14T11:56:29Z</time>
      </trkpt>
      <trkpt lat="48.73354" lon="2.50297">
        <ele>144.317</ele>
        <time>2018-10-14T11:56:29Z</time>
      </trkpt>
      <trkpt lat="48.73356" lon="2.50287">
        <ele>144.385</ele>
        <time>2018-10-14T11:56:35Z</time>
      </trkpt>
      <trkpt lat="48.73356" lon="2.50282">
        <ele>144.413</ele>
        <time>2018-10-14T11:56:38Z</time>
      </trkpt>
      <trkpt lat="48.73356" lon="2.50274">
        <ele>144.438</ele>
        <time>2018-10-14T11:56:41Z</time>
      </trkpt>
      <trkpt lat="48.73355" lon="2.50266">
        <ele>144.472</ele>
        <time>2018-10-14T11:56:45Z</time>
      </trkpt>
      <trkpt lat="48.73355" lon="2.50256">
        <ele>144.496</ele>
        <time>2018-10-14T11:56:48Z</time>
      </trkpt>
      <trkpt lat="48.73354" lon="2.50251">
        <ele>144.511</ele>
        <time>2018-10-14T11:56:50Z</time>
      </trkpt>
      <trkpt lat="48.73354" lon="2.50243">
        <ele>144.538</ele>
        <time>2018-10-14T11:56:54Z</time>
      </trkpt>
      <trkpt lat="48.73354" lon="2.5024">
        <ele>144.544</ele>
        <time>2018-10-14T11:56:55Z</time>
      </trkpt>
      <trkpt lat="48.73354" lon="2.50234">
        <ele>144.556</ele>
        <time>2018-10-14T11:56:57Z</time>
      </trkpt>
      <trkpt lat="48.73353" lon="2.50226">
        <ele>144.577</ele>
        <time>2018-10-14T11:57:01Z</time>
      </trkpt>
      <trkpt lat="48.73354" lon="2.50219">
        <ele>144.596</ele>
        <time>2018-10-14T11:57:05Z</time>
      </trkpt>
      <trkpt lat="48.73355" lon="2.50215">
        <ele>144.611</ele>
        <time>2018-10-14T11:57:08Z</time>
      </trkpt>
      <trkpt lat="48.73356" lon="2.50208">
        <ele>144.628</ele>
        <time>2018-10-14T11:57:11Z</time>
      </trkpt>
      <trkpt lat="48.73357" lon="2.50205">
        <ele>144.638</ele>
        <time>2018-10-14T11:57:13Z</time>
      </trkpt>
      <trkpt lat="48.73358" lon="2.50197">
        <ele>144.666</ele>
        <time>2018-10-14T11:57:18Z</time>
      </trkpt>
      <trkpt lat="48.73358" lon="2.5019">
        <ele>144.693</ele>
        <time>2018-10-14T11:57:23Z</time>
      </trkpt>
      <trkpt lat="48.73358" lon="2.50182">
        <ele>144.712</ele>
        <time>2018-10-14T11:57:27Z</time>
      </trkpt>
      <trkpt lat="48.73359" lon="2.50173">
        <ele>144.727</ele>
        <time>2018-10-14T11:57:31Z</time>
      </trkpt>
      <trkpt lat="48.73359" lon="2.50169">
        <ele>144.733</ele>
        <time>2018-10-14T11:57:33Z</time>
      </trkpt>
      <trkpt lat="48.7336" lon="2.50164">
        <ele>144.739</ele>
        <time>2018-10-14T11:57:35Z</time>
      </trkpt>
      <trkpt lat="48.73361" lon="2.50157">
        <ele>144.751</ele>
        <time>2018-10-14T11:57:38Z</time>
      </trkpt>
      <trkpt lat="48.73362" lon="2.50152">
        <ele>144.759</ele>
        <time>2018-10-14T11:57:40Z</time>
      </trkpt>
      <trkpt lat="48.73363" lon="2.50148">
        <ele>144.768</ele>
        <time>2018-10-14T11:57:42Z</time>
      </trkpt>
      <trkpt lat="48.73364" lon="2.50141">
        <ele>144.78</ele>
        <time>2018-10-14T11:57:45Z</time>
      </trkpt>
      <trkpt lat="48.73364" lon="2.50134">
        <ele>144.79</ele>
        <time>2018-10-14T11:57:48Z</time>
      </trkpt>
      <trkpt lat="48.73364" lon="2.50129">
        <ele>144.8</ele>
        <time>2018-10-14T11:57:51Z</time>
      </trkpt>
      <trkpt lat="48.73363" lon="2.50122">
        <ele>144.809</ele>
        <time>2018-10-14T11:57:54Z</time>
      </trkpt>
      <trkpt lat="48.73362" lon="2.50114">
        <ele>144.821</ele>
        <time>2018-10-14T11:57:59Z</time>
      </trkpt>
      <trkpt lat="48.73362" lon="2.50106">
        <ele>144.83</ele>
        <time>2018-10-14T11:58:03Z</time>
      </trkpt>
      <trkpt lat="48.73367" lon="2.50092">
        <ele>144.84</ele>
        <time>2018-10-14T11:58:08Z</time>
      </trkpt>
      <trkpt lat="48.73368" lon="2.50086">
        <ele>144.844</ele>
        <time>2018-10-14T11:58:11Z</time>
      </trkpt>
      <trkpt lat="48.73369" lon="2.50079">
        <ele>144.849</ele>
        <time>2018-10-14T11:58:15Z</time>
      </trkpt>
      <trkpt lat="48.73371" lon="2.50073">
        <ele>144.855</ele>
        <time>2018-10-14T11:58:18Z</time>
      </trkpt>
      <trkpt lat="48.73373" lon="2.50068">
        <ele>144.861</ele>
        <time>2018-10-14T11:58:22Z</time>
      </trkpt>
      <trkpt lat="48.73375" lon="2.50063">
        <ele>144.865</ele>
        <time>2018-10-14T11:58:25Z</time>
      </trkpt>
      <trkpt lat="48.73377" lon="2.50058">
        <ele>144.866</ele>
        <time>2018-10-14T11:58:27Z</time>
      </trkpt>
      <trkpt lat="48.73379" lon="2.50051">
        <ele>144.864</ele>
        <time>2018-10-14T11:58:30Z</time>
      </trkpt>
      <trkpt lat="48.7338" lon="2.50043">
        <ele>144.859</ele>
        <time>2018-10-14T11:58:34Z</time>
      </trkpt>
      <trkpt lat="48.73381" lon="2.50039">
        <ele>144.856</ele>
        <time>2018-10-14T11:58:36Z</time>
      </trkpt>
      <trkpt lat="48.73382" lon="2.5003">
        <ele>144.851</ele>
        <time>2018-10-14T11:58:39Z</time>
      </trkpt>
      <trkpt lat="48.73383" lon="2.50023">
        <ele>144.849</ele>
        <time>2018-10-14T11:58:42Z</time>
      </trkpt>
      <trkpt lat="48.73383" lon="2.50016">
        <ele>144.847</ele>
        <time>2018-10-14T11:58:46Z</time>
      </trkpt>
      <trkpt lat="48.73381" lon="2.50009">
        <ele>144.846</ele>
        <time>2018-10-14T11:58:50Z</time>
      </trkpt>
      <trkpt lat="48.7338" lon="2.50005">
        <ele>144.845</ele>
        <time>2018-10-14T11:58:52Z</time>
      </trkpt>
      <trkpt lat="48.73379" lon="2.50001">
        <ele>144.844</ele>
        <time>2018-10-14T11:58:54Z</time>
      </trkpt>
      <trkpt lat="48.73377" lon="2.49994">
        <ele>144.843</ele>
        <time>2018-10-14T11:58:57Z</time>
      </trkpt>
      <trkpt lat="48.73376" lon="2.49986">
        <ele>144.842</ele>
        <time>2018-10-14T11:59:01Z</time>
      </trkpt>
      <trkpt lat="48.73374" lon="2.49979">
        <ele>144.843</ele>
        <time>2018-10-14T11:59:05Z</time>
      </trkpt>
      <trkpt lat="48.73373" lon="2.49972">
        <ele>144.845</ele>
        <time>2018-10-14T11:59:09Z</time>
      </trkpt>
      <trkpt lat="48.73372" lon="2.49968">
        <ele>144.845</ele>
        <time>2018-10-14T11:59:11Z</time>
      </trkpt>
      <trkpt lat="48.73372" lon="2.49961">
        <ele>144.846</ele>
        <time>2018-10-14T11:59:15Z</time>
      </trkpt>
      <trkpt lat="48.73374" lon="2.49953">
        <ele>144.847</ele>
        <time>2018-10-14T11:59:19Z</time>
      </trkpt>
      <trkpt lat="48.73375" lon="2.49948">
        <ele>144.849</ele>
        <time>2018-10-14T11:59:21Z</time>
      </trkpt>
      <trkpt lat="48.73375" lon="2.49943">
        <ele>144.853</ele>
        <time>2018-10-14T11:59:23Z</time>
      </trkpt>
      <trkpt lat="48.73376" lon="2.49938">
        <ele>144.856</ele>
        <time>2018-10-14T11:59:25Z</time>
      </trkpt>
      <trkpt lat="48.73378" lon="2.49932">
        <ele>144.864</ele>
        <time>2018-10-14T11:59:29Z</time>
      </trkpt>
      <trkpt lat="48.73378" lon="2.49922">
        <ele>144.873</ele>
        <time>2018-10-14T11:59:34Z</time>
      </trkpt>
      <trkpt lat="48.73378" lon="2.49912">
        <ele>144.886</ele>
        <time>2018-10-14T11:59:40Z</time>
      </trkpt>
      <trkpt lat="48.73378" lon="2.49906">
        <ele>144.892</ele>
        <time>2018-10-14T11:59:43Z</time>
      </trkpt>
      <trkpt lat="48.73378" lon="2.49898">
        <ele>144.895</ele>
        <time>2018-10-14T11:59:46Z</time>
      </trkpt>
      <trkpt lat="48.73379" lon="2.49891">
        <ele>144.897</ele>
        <time>2018-10-14T11:59:49Z</time>
      </trkpt>
      <trkpt lat="48.73382" lon="2.49883">
        <ele>144.895</ele>
        <time>2018-10-14T11:59:53Z</time>
      </trkpt>
      <trkpt lat="48.73384" lon="2.49875">
        <ele>144.895</ele>
        <time>2018-10-14T11:59:57Z</time>
      </trkpt>
      <trkpt lat="48.73385" lon="2.49867">
        <ele>144.895</ele>
        <time>2018-10-14T12:00:01Z</time>
      </trkpt>
      <trkpt lat="48.73385" lon="2.49864">
        <ele>144.895</ele>
        <time>2018-10-14T12:00:03Z</time>
      </trkpt>
      <trkpt lat="48.73384" lon="2.49855">
        <ele>144.893</ele>
        <time>2018-10-14T12:00:07Z</time>
      </trkpt>
      <trkpt lat="48.73384" lon="2.49847">
        <ele>144.892</ele>
        <time>2018-10-14T12:00:10Z</time>
      </trkpt>
      <trkpt lat="48.73384" lon="2.49838">
        <ele>144.892</ele>
        <time>2018-10-14T12:00:14Z</time>
      </trkpt>
      <trkpt lat="48.73383" lon="2.49829">
        <ele>144.896</ele>
        <time>2018-10-14T12:00:19Z</time>
      </trkpt>
      <trkpt lat="48.73382" lon="2.49822">
        <ele>144.899</ele>
        <time>2018-10-14T12:00:23Z</time>
      </trkpt>
      <trkpt lat="48.7338" lon="2.49812">
        <ele>144.902</ele>
        <time>2018-10-14T12:00:27Z</time>
      </trkpt>
      <trkpt lat="48.7338" lon="2.49805">
        <ele>144.904</ele>
        <time>2018-10-14T12:00:30Z</time>
      </trkpt>
      <trkpt lat="48.7338" lon="2.498">
        <ele>144.905</ele>
        <time>2018-10-14T12:00:32Z</time>
      </trkpt>
      <trkpt lat="48.73381" lon="2.49796">
        <ele>144.907</ele>
        <time>2018-10-14T12:00:34Z</time>
      </trkpt>
      <trkpt lat="48.73382" lon="2.49788">
        <ele>144.912</ele>
        <time>2018-10-14T12:00:38Z</time>
      </trkpt>
      <trkpt lat="48.73382" lon="2.49785">
        <ele>144.916</ele>
        <time>2018-10-14T12:00:40Z</time>
      </trkpt>
      <trkpt lat="48.73384" lon="2.4978">
        <ele>144.921</ele>
        <time>2018-10-14T12:00:43Z</time>
      </trkpt>
      <trkpt lat="48.73385" lon="2.49774">
        <ele>144.925</ele>
        <time>2018-10-14T12:00:45Z</time>
      </trkpt>
      <trkpt lat="48.73386" lon="2.4977">
        <ele>144.929</ele>
        <time>2018-10-14T12:00:47Z</time>
      </trkpt>
      <trkpt lat="48.73387" lon="2.49766">
        <ele>144.932</ele>
        <time>2018-10-14T12:00:49Z</time>
      </trkpt>
      <trkpt lat="48.7339" lon="2.4976">
        <ele>144.935</ele>
        <time>2018-10-14T12:00:52Z</time>
      </trkpt>
      <trkpt lat="48.73392" lon="2.49755">
        <ele>144.936</ele>
        <time>2018-10-14T12:00:54Z</time>
      </trkpt>
      <trkpt lat="48.73394" lon="2.49748">
        <ele>144.936</ele>
        <time>2018-10-14T12:00:59Z</time>
      </trkpt>
      <trkpt lat="48.73394" lon="2.49741">
        <ele>144.934</ele>
        <time>2018-10-14T12:01:03Z</time>
      </trkpt>
      <trkpt lat="48.73395" lon="2.49734">
        <ele>144.927</ele>
        <time>2018-10-14T12:01:08Z</time>
      </trkpt>
      <trkpt lat="48.73396" lon="2.4973">
        <ele>144.92</ele>
        <time>2018-10-14T12:01:14Z</time>
      </trkpt>
      <trkpt lat="48.73396" lon="2.4973">
        <ele>91.3</ele>
        <time>2018-10-14T12:01:21Z</time>
      </trkpt>
      <trkpt lat="48.73396" lon="2.4973">
        <ele>91.3</ele>
        <time>2018-10-14T12:05:39Z</time>
      </trkpt>
      <trkpt lat="48.73403" lon="2.49708">
        <ele>145.267</ele>
        <time>2018-10-14T12:05:39Z</time>
      </trkpt>
      <trkpt lat="48.73407" lon="2.49703">
        <ele>145.294</ele>
        <time>2018-10-14T12:05:44Z</time>
      </trkpt>
      <trkpt lat="48.73407" lon="2.49703">
        <ele>91</ele>
        <time>2018-10-14T12:05:51Z</time>
      </trkpt>
      <trkpt lat="48.73407" lon="2.49703">
        <ele>91</ele>
        <time>2018-10-14T12:05:55Z</time>
      </trkpt>
      <trkpt lat="48.73413" lon="2.49684">
        <ele>145.344</ele>
        <time>2018-10-14T12:05:55Z</time>
      </trkpt>
      <trkpt lat="48.7341" lon="2.49676">
        <ele>145.352</ele>
        <time>2018-10-14T12:05:57Z</time>
      </trkpt>
      <trkpt lat="48.73408" lon="2.49668">
        <ele>145.363</ele>
        <time>2018-10-14T12:06:00Z</time>
      </trkpt>
      <trkpt lat="48.73403" lon="2.49664">
        <ele>145.373</ele>
        <time>2018-10-14T12:06:03Z</time>
      </trkpt>
      <trkpt lat="48.73398" lon="2.49662">
        <ele>145.381</ele>
        <time>2018-10-14T12:06:08Z</time>
      </trkpt>
      <trkpt lat="48.73394" lon="2.49663">
        <ele>145.383</ele>
        <time>2018-10-14T12:06:11Z</time>
      </trkpt>
      <trkpt lat="48.73389" lon="2.49664">
        <ele>145.385</ele>
        <time>2018-10-14T12:06:15Z</time>
      </trkpt>
      <trkpt lat="48.73386" lon="2.49659">
        <ele>145.387</ele>
        <time>2018-10-14T12:06:19Z</time>
      </trkpt>
      <trkpt lat="48.73385" lon="2.49652">
        <ele>145.389</ele>
        <time>2018-10-14T12:06:24Z</time>
      </trkpt>
      <trkpt lat="48.73384" lon="2.49644">
        <ele>145.392</ele>
        <time>2018-10-14T12:06:28Z</time>
      </trkpt>
      <trkpt lat="48.73383" lon="2.4964">
        <ele>145.392</ele>
        <time>2018-10-14T12:06:30Z</time>
      </trkpt>
      <trkpt lat="48.73383" lon="2.49636">
        <ele>145.391</ele>
        <time>2018-10-14T12:06:32Z</time>
      </trkpt>
      <trkpt lat="48.73382" lon="2.49629">
        <ele>145.389</ele>
        <time>2018-10-14T12:06:35Z</time>
      </trkpt>
      <trkpt lat="48.73382" lon="2.49622">
        <ele>145.382</ele>
        <time>2018-10-14T12:06:39Z</time>
      </trkpt>
      <trkpt lat="48.73381" lon="2.49615">
        <ele>145.37</ele>
        <time>2018-10-14T12:06:43Z</time>
      </trkpt>
      <trkpt lat="48.73383" lon="2.49607">
        <ele>145.354</ele>
        <time>2018-10-14T12:06:47Z</time>
      </trkpt>
      <trkpt lat="48.73383" lon="2.49603">
        <ele>145.345</ele>
        <time>2018-10-14T12:06:49Z</time>
      </trkpt>
      <trkpt lat="48.73384" lon="2.49599">
        <ele>145.335</ele>
        <time>2018-10-14T12:06:51Z</time>
      </trkpt>
      <trkpt lat="48.73385" lon="2.49594">
        <ele>145.324</ele>
        <time>2018-10-14T12:06:53Z</time>
      </trkpt>
      <trkpt lat="48.73386" lon="2.49588">
        <ele>145.299</ele>
        <time>2018-10-14T12:06:57Z</time>
      </trkpt>
      <trkpt lat="48.73388" lon="2.49584">
        <ele>145.284</ele>
        <time>2018-10-14T12:06:59Z</time>
      </trkpt>
      <trkpt lat="48.73389" lon="2.49578">
        <ele>145.261</ele>
        <time>2018-10-14T12:07:02Z</time>
      </trkpt>
      <trkpt lat="48.73391" lon="2.49569">
        <ele>145.227</ele>
        <time>2018-10-14T12:07:06Z</time>
      </trkpt>
      <trkpt lat="48.73392" lon="2.49565">
        <ele>145.21</ele>
        <time>2018-10-14T12:07:08Z</time>
      </trkpt>
      <trkpt lat="48.73393" lon="2.49559">
        <ele>145.183</ele>
        <time>2018-10-14T12:07:11Z</time>
      </trkpt>
      <trkpt lat="48.73394" lon="2.49552">
        <ele>145.149</ele>
        <time>2018-10-14T12:07:15Z</time>
      </trkpt>
      <trkpt lat="48.73395" lon="2.49547">
        <ele>145.133</ele>
        <time>2018-10-14T12:07:17Z</time>
      </trkpt>
      <trkpt lat="48.73395" lon="2.49539">
        <ele>145.11</ele>
        <time>2018-10-14T12:07:20Z</time>
      </trkpt>
      <trkpt lat="48.73395" lon="2.49534">
        <ele>145.095</ele>
        <time>2018-10-14T12:07:22Z</time>
      </trkpt>
      <trkpt lat="48.73395" lon="2.49526">
        <ele>145.067</ele>
        <time>2018-10-14T12:07:26Z</time>
      </trkpt>
      <trkpt lat="48.73395" lon="2.49522">
        <ele>145.047</ele>
        <time>2018-10-14T12:07:29Z</time>
      </trkpt>
      <trkpt lat="48.73395" lon="2.49512">
        <ele>145.022</ele>
        <time>2018-10-14T12:07:33Z</time>
      </trkpt>
      <trkpt lat="48.73396" lon="2.49503">
        <ele>144.997</ele>
        <time>2018-10-14T12:07:37Z</time>
      </trkpt>
      <trkpt lat="48.73397" lon="2.49499">
        <ele>144.986</ele>
        <time>2018-10-14T12:07:39Z</time>
      </trkpt>
      <trkpt lat="48.73397" lon="2.49495">
        <ele>144.975</ele>
        <time>2018-10-14T12:07:41Z</time>
      </trkpt>
      <trkpt lat="48.73398" lon="2.4949">
        <ele>144.961</ele>
        <time>2018-10-14T12:07:44Z</time>
      </trkpt>
      <trkpt lat="48.73399" lon="2.49482">
        <ele>144.943</ele>
        <time>2018-10-14T12:07:48Z</time>
      </trkpt>
      <trkpt lat="48.73399" lon="2.49475">
        <ele>144.927</ele>
        <time>2018-10-14T12:07:52Z</time>
      </trkpt>
      <trkpt lat="48.73397" lon="2.49468">
        <ele>144.92</ele>
        <time>2018-10-14T12:07:54Z</time>
      </trkpt>
      <trkpt lat="48.73397" lon="2.49458">
        <ele>144.909</ele>
        <time>2018-10-14T12:07:57Z</time>
      </trkpt>
      <trkpt lat="48.73397" lon="2.49453">
        <ele>144.901</ele>
        <time>2018-10-14T12:07:59Z</time>
      </trkpt>
      <trkpt lat="48.73397" lon="2.49446">
        <ele>144.882</ele>
        <time>2018-10-14T12:08:03Z</time>
      </trkpt>
      <trkpt lat="48.73397" lon="2.49441">
        <ele>144.864</ele>
        <time>2018-10-14T12:08:06Z</time>
      </trkpt>
      <trkpt lat="48.73397" lon="2.49433">
        <ele>144.829</ele>
        <time>2018-10-14T12:08:12Z</time>
      </trkpt>
      <trkpt lat="48.73399" lon="2.49424">
        <ele>144.806</ele>
        <time>2018-10-14T12:08:16Z</time>
      </trkpt>
      <trkpt lat="48.73401" lon="2.49418">
        <ele>144.777</ele>
        <time>2018-10-14T12:08:21Z</time>
      </trkpt>
      <trkpt lat="48.73403" lon="2.49413">
        <ele>144.758</ele>
        <time>2018-10-14T12:08:24Z</time>
      </trkpt>
      <trkpt lat="48.73405" lon="2.49406">
        <ele>144.736</ele>
        <time>2018-10-14T12:08:27Z</time>
      </trkpt>
      <trkpt lat="48.73407" lon="2.494">
        <ele>144.713</ele>
        <time>2018-10-14T12:08:30Z</time>
      </trkpt>
      <trkpt lat="48.7341" lon="2.49393">
        <ele>144.667</ele>
        <time>2018-10-14T12:08:35Z</time>
      </trkpt>
      <trkpt lat="48.7341" lon="2.49386">
        <ele>144.627</ele>
        <time>2018-10-14T12:08:39Z</time>
      </trkpt>
      <trkpt lat="48.73411" lon="2.49378">
        <ele>144.583</ele>
        <time>2018-10-14T12:08:43Z</time>
      </trkpt>
      <trkpt lat="48.73411" lon="2.49371">
        <ele>144.538</ele>
        <time>2018-10-14T12:08:47Z</time>
      </trkpt>
      <trkpt lat="48.73412" lon="2.49364">
        <ele>144.494</ele>
        <time>2018-10-14T12:08:51Z</time>
      </trkpt>
      <trkpt lat="48.73411" lon="2.49357">
        <ele>144.442</ele>
        <time>2018-10-14T12:08:56Z</time>
      </trkpt>
      <trkpt lat="48.73407" lon="2.49353">
        <ele>144.396</ele>
        <time>2018-10-14T12:09:01Z</time>
      </trkpt>
      <trkpt lat="48.73403" lon="2.49351">
        <ele>144.361</ele>
        <time>2018-10-14T12:09:06Z</time>
      </trkpt>
      <trkpt lat="48.73398" lon="2.49351">
        <ele>144.338</ele>
        <time>2018-10-14T12:09:10Z</time>
      </trkpt>
      <trkpt lat="48.73394" lon="2.49355">
        <ele>144.323</ele>
        <time>2018-10-14T12:09:13Z</time>
      </trkpt>
      <trkpt lat="48.73388" lon="2.49359">
        <ele>144.301</ele>
        <time>2018-10-14T12:09:19Z</time>
      </trkpt>
      <trkpt lat="48.73384" lon="2.4936">
        <ele>144.292</ele>
        <time>2018-10-14T12:09:22Z</time>
      </trkpt>
      <trkpt lat="48.73378" lon="2.49356">
        <ele>144.278</ele>
        <time>2018-10-14T12:09:26Z</time>
      </trkpt>
      <trkpt lat="48.73375" lon="2.4935">
        <ele>144.263</ele>
        <time>2018-10-14T12:09:30Z</time>
      </trkpt>
      <trkpt lat="48.73373" lon="2.49343">
        <ele>144.246</ele>
        <time>2018-10-14T12:09:36Z</time>
      </trkpt>
      <trkpt lat="48.73371" lon="2.49337">
        <ele>144.239</ele>
        <time>2018-10-14T12:09:39Z</time>
      </trkpt>
      <trkpt lat="48.73369" lon="2.4933">
        <ele>144.231</ele>
        <time>2018-10-14T12:09:43Z</time>
      </trkpt>
      <trkpt lat="48.73368" lon="2.49323">
        <ele>144.224</ele>
        <time>2018-10-14T12:09:50Z</time>
      </trkpt>
      <trkpt lat="48.73366" lon="2.49316">
        <ele>144.228</ele>
        <time>2018-10-14T12:09:58Z</time>
      </trkpt>
      <trkpt lat="48.73365" lon="2.49308">
        <ele>144.237</ele>
        <time>2018-10-14T12:10:03Z</time>
      </trkpt>
      <trkpt lat="48.73365" lon="2.49301">
        <ele>144.248</ele>
        <time>2018-10-14T12:10:07Z</time>
      </trkpt>
      <trkpt lat="48.73365" lon="2.49291">
        <ele>144.272</ele>
        <time>2018-10-14T12:10:16Z</time>
      </trkpt>
      <trkpt lat="48.73362" lon="2.49285">
        <ele>144.283</ele>
        <time>2018-10-14T12:10:21Z</time>
      </trkpt>
      <trkpt lat="48.73359" lon="2.49279">
        <ele>144.293</ele>
        <time>2018-10-14T12:10:26Z</time>
      </trkpt>
      <trkpt lat="48.73357" lon="2.4927">
        <ele>144.313</ele>
        <time>2018-10-14T12:10:33Z</time>
      </trkpt>
      <trkpt lat="48.73356" lon="2.49264">
        <ele>144.323</ele>
        <time>2018-10-14T12:10:36Z</time>
      </trkpt>
      <trkpt lat="48.73356" lon="2.49256">
        <ele>144.339</ele>
        <time>2018-10-14T12:10:40Z</time>
      </trkpt>
      <trkpt lat="48.73356" lon="2.49249">
        <ele>144.367</ele>
        <time>2018-10-14T12:10:46Z</time>
      </trkpt>
      <trkpt lat="48.73357" lon="2.49242">
        <ele>144.387</ele>
        <time>2018-10-14T12:10:50Z</time>
      </trkpt>
      <trkpt lat="48.73356" lon="2.4923">
        <ele>144.414</ele>
        <time>2018-10-14T12:10:55Z</time>
      </trkpt>
      <trkpt lat="48.73355" lon="2.49227">
        <ele>144.432</ele>
        <time>2018-10-14T12:10:58Z</time>
      </trkpt>
      <trkpt lat="48.73355" lon="2.4922">
        <ele>144.459</ele>
        <time>2018-10-14T12:11:02Z</time>
      </trkpt>
      <trkpt lat="48.73354" lon="2.49212">
        <ele>144.497</ele>
        <time>2018-10-14T12:11:08Z</time>
      </trkpt>
      <trkpt lat="48.73352" lon="2.49203">
        <ele>144.522</ele>
        <time>2018-10-14T12:11:12Z</time>
      </trkpt>
      <trkpt lat="48.73351" lon="2.49195">
        <ele>144.534</ele>
        <time>2018-10-14T12:11:14Z</time>
      </trkpt>
      <trkpt lat="48.7335" lon="2.4919">
        <ele>144.545</ele>
        <time>2018-10-14T12:11:16Z</time>
      </trkpt>
      <trkpt lat="48.73349" lon="2.49186">
        <ele>144.554</ele>
        <time>2018-10-14T12:11:18Z</time>
      </trkpt>
      <trkpt lat="48.73348" lon="2.49182">
        <ele>144.563</ele>
        <time>2018-10-14T12:11:20Z</time>
      </trkpt>
      <trkpt lat="48.73347" lon="2.49178">
        <ele>144.572</ele>
        <time>2018-10-14T12:11:22Z</time>
      </trkpt>
      <trkpt lat="48.73347" lon="2.4917">
        <ele>144.588</ele>
        <time>2018-10-14T12:11:27Z</time>
      </trkpt>
      <trkpt lat="48.73346" lon="2.49163">
        <ele>144.616</ele>
        <time>2018-10-14T12:11:33Z</time>
      </trkpt>
      <trkpt lat="48.73345" lon="2.49157">
        <ele>144.63</ele>
        <time>2018-10-14T12:11:36Z</time>
      </trkpt>
      <trkpt lat="48.73343" lon="2.4915">
        <ele>144.651</ele>
        <time>2018-10-14T12:11:40Z</time>
      </trkpt>
      <trkpt lat="48.73342" lon="2.49146">
        <ele>144.661</ele>
        <time>2018-10-14T12:11:42Z</time>
      </trkpt>
      <trkpt lat="48.73339" lon="2.4914">
        <ele>144.676</ele>
        <time>2018-10-14T12:11:45Z</time>
      </trkpt>
      <trkpt lat="48.73338" lon="2.49134">
        <ele>144.693</ele>
        <time>2018-10-14T12:11:48Z</time>
      </trkpt>
      <trkpt lat="48.73337" lon="2.49126">
        <ele>144.717</ele>
        <time>2018-10-14T12:11:52Z</time>
      </trkpt>
      <trkpt lat="48.73337" lon="2.49118">
        <ele>144.75</ele>
        <time>2018-10-14T12:11:57Z</time>
      </trkpt>
      <trkpt lat="48.73336" lon="2.4911">
        <ele>144.783</ele>
        <time>2018-10-14T12:12:02Z</time>
      </trkpt>
      <trkpt lat="48.73335" lon="2.49105">
        <ele>144.795</ele>
        <time>2018-10-14T12:12:04Z</time>
      </trkpt>
      <trkpt lat="48.73334" lon="2.491">
        <ele>144.808</ele>
        <time>2018-10-14T12:12:06Z</time>
      </trkpt>
      <trkpt lat="48.73332" lon="2.49092">
        <ele>144.826</ele>
        <time>2018-10-14T12:12:09Z</time>
      </trkpt>
      <trkpt lat="48.73331" lon="2.49084">
        <ele>144.862</ele>
        <time>2018-10-14T12:12:16Z</time>
      </trkpt>
      <trkpt lat="48.7333" lon="2.49078">
        <ele>144.877</ele>
        <time>2018-10-14T12:12:19Z</time>
      </trkpt>
      <trkpt lat="48.7333" lon="2.49072">
        <ele>144.888</ele>
        <time>2018-10-14T12:12:21Z</time>
      </trkpt>
      <trkpt lat="48.73329" lon="2.49068">
        <ele>144.899</ele>
        <time>2018-10-14T12:12:23Z</time>
      </trkpt>
      <trkpt lat="48.73328" lon="2.49064">
        <ele>144.91</ele>
        <time>2018-10-14T12:12:25Z</time>
      </trkpt>
      <trkpt lat="48.73326" lon="2.49055">
        <ele>144.928</ele>
        <time>2018-10-14T12:12:29Z</time>
      </trkpt>
      <trkpt lat="48.73325" lon="2.49047">
        <ele>144.947</ele>
        <time>2018-10-14T12:12:33Z</time>
      </trkpt>
      <trkpt lat="48.73325" lon="2.49042">
        <ele>144.963</ele>
        <time>2018-10-14T12:12:37Z</time>
      </trkpt>
      <trkpt lat="48.73323" lon="2.49033">
        <ele>144.99</ele>
        <time>2018-10-14T12:12:44Z</time>
      </trkpt>
      <trkpt lat="48.73322" lon="2.49026">
        <ele>145.002</ele>
        <time>2018-10-14T12:12:47Z</time>
      </trkpt>
      <trkpt lat="48.73321" lon="2.49019">
        <ele>145.013</ele>
        <time>2018-10-14T12:12:50Z</time>
      </trkpt>
      <trkpt lat="48.73321" lon="2.49014">
        <ele>145.021</ele>
        <time>2018-10-14T12:12:52Z</time>
      </trkpt>
      <trkpt lat="48.73321" lon="2.49008">
        <ele>145.031</ele>
        <time>2018-10-14T12:12:55Z</time>
      </trkpt>
      <trkpt lat="48.73321" lon="2.49003">
        <ele>145.036</ele>
        <time>2018-10-14T12:12:57Z</time>
      </trkpt>
      <trkpt lat="48.7332" lon="2.48995">
        <ele>145.042</ele>
        <time>2018-10-14T12:13:00Z</time>
      </trkpt>
      <trkpt lat="48.73319" lon="2.48991">
        <ele>145.047</ele>
        <time>2018-10-14T12:13:02Z</time>
      </trkpt>
      <trkpt lat="48.73318" lon="2.48987">
        <ele>145.052</ele>
        <time>2018-10-14T12:13:04Z</time>
      </trkpt>
      <trkpt lat="48.73318" lon="2.4898">
        <ele>145.068</ele>
        <time>2018-10-14T12:13:09Z</time>
      </trkpt>
      <trkpt lat="48.73317" lon="2.48976">
        <ele>145.08</ele>
        <time>2018-10-14T12:13:12Z</time>
      </trkpt>
      <trkpt lat="48.73316" lon="2.48971">
        <ele>145.089</ele>
        <time>2018-10-14T12:13:14Z</time>
      </trkpt>
      <trkpt lat="48.73316" lon="2.48965">
        <ele>145.099</ele>
        <time>2018-10-14T12:13:16Z</time>
      </trkpt>
      <trkpt lat="48.73316" lon="2.48957">
        <ele>145.125</ele>
        <time>2018-10-14T12:13:21Z</time>
      </trkpt>
      <trkpt lat="48.73315" lon="2.4895">
        <ele>145.154</ele>
        <time>2018-10-14T12:13:26Z</time>
      </trkpt>
      <trkpt lat="48.73315" lon="2.48941">
        <ele>145.176</ele>
        <time>2018-10-14T12:13:30Z</time>
      </trkpt>
      <trkpt lat="48.73314" lon="2.48932">
        <ele>145.19</ele>
        <time>2018-10-14T12:13:33Z</time>
      </trkpt>
      <trkpt lat="48.73314" lon="2.48928">
        <ele>145.2</ele>
        <time>2018-10-14T12:13:35Z</time>
      </trkpt>
      <trkpt lat="48.73313" lon="2.48921">
        <ele>145.218</ele>
        <time>2018-10-14T12:13:39Z</time>
      </trkpt>
      <trkpt lat="48.73311" lon="2.48913">
        <ele>145.241</ele>
        <time>2018-10-14T12:13:44Z</time>
      </trkpt>
      <trkpt lat="48.7331" lon="2.48906">
        <ele>145.26</ele>
        <time>2018-10-14T12:13:48Z</time>
      </trkpt>
      <trkpt lat="48.73307" lon="2.489">
        <ele>145.27</ele>
        <time>2018-10-14T12:13:50Z</time>
      </trkpt>
      <trkpt lat="48.73304" lon="2.48892">
        <ele>145.289</ele>
        <time>2018-10-14T12:13:54Z</time>
      </trkpt>
      <trkpt lat="48.73303" lon="2.48889">
        <ele>145.299</ele>
        <time>2018-10-14T12:13:56Z</time>
      </trkpt>
      <trkpt lat="48.73301" lon="2.48884">
        <ele>145.308</ele>
        <time>2018-10-14T12:13:58Z</time>
      </trkpt>
      <trkpt lat="48.733" lon="2.48876">
        <ele>145.331</ele>
        <time>2018-10-14T12:14:03Z</time>
      </trkpt>
      <trkpt lat="48.73299" lon="2.48868">
        <ele>145.356</ele>
        <time>2018-10-14T12:14:08Z</time>
      </trkpt>
      <trkpt lat="48.73298" lon="2.48864">
        <ele>145.365</ele>
        <time>2018-10-14T12:14:10Z</time>
      </trkpt>
      <trkpt lat="48.73298" lon="2.48857">
        <ele>145.378</ele>
        <time>2018-10-14T12:14:13Z</time>
      </trkpt>
      <trkpt lat="48.73297" lon="2.48849">
        <ele>145.396</ele>
        <time>2018-10-14T12:14:17Z</time>
      </trkpt>
      <trkpt lat="48.73297" lon="2.48841">
        <ele>145.412</ele>
        <time>2018-10-14T12:14:20Z</time>
      </trkpt>
      <trkpt lat="48.73296" lon="2.48837">
        <ele>145.424</ele>
        <time>2018-10-14T12:14:22Z</time>
      </trkpt>
      <trkpt lat="48.73296" lon="2.48828">
        <ele>145.448</ele>
        <time>2018-10-14T12:14:26Z</time>
      </trkpt>
      <trkpt lat="48.73294" lon="2.48821">
        <ele>145.474</ele>
        <time>2018-10-14T12:14:30Z</time>
      </trkpt>
      <trkpt lat="48.73292" lon="2.48814">
        <ele>145.495</ele>
        <time>2018-10-14T12:14:33Z</time>
      </trkpt>
      <trkpt lat="48.73291" lon="2.48808">
        <ele>145.515</ele>
        <time>2018-10-14T12:14:36Z</time>
      </trkpt>
      <trkpt lat="48.73289" lon="2.48801">
        <ele>145.535</ele>
        <time>2018-10-14T12:14:39Z</time>
      </trkpt>
      <trkpt lat="48.73288" lon="2.48798">
        <ele>145.549</ele>
        <time>2018-10-14T12:14:41Z</time>
      </trkpt>
      <trkpt lat="48.73288" lon="2.4879">
        <ele>145.573</ele>
        <time>2018-10-14T12:14:45Z</time>
      </trkpt>
      <trkpt lat="48.73287" lon="2.48782">
        <ele>145.596</ele>
        <time>2018-10-14T12:14:49Z</time>
      </trkpt>
      <trkpt lat="48.73286" lon="2.48777">
        <ele>145.607</ele>
        <time>2018-10-14T12:14:51Z</time>
      </trkpt>
      <trkpt lat="48.73286" lon="2.48769">
        <ele>145.628</ele>
        <time>2018-10-14T12:14:55Z</time>
      </trkpt>
      <trkpt lat="48.73285" lon="2.48761">
        <ele>145.647</ele>
        <time>2018-10-14T12:14:59Z</time>
      </trkpt>
      <trkpt lat="48.73284" lon="2.48755">
        <ele>145.659</ele>
        <time>2018-10-14T12:15:02Z</time>
      </trkpt>
      <trkpt lat="48.73283" lon="2.48751">
        <ele>145.666</ele>
        <time>2018-10-14T12:15:04Z</time>
      </trkpt>
      <trkpt lat="48.73283" lon="2.48747">
        <ele>145.672</ele>
        <time>2018-10-14T12:15:06Z</time>
      </trkpt>
      <trkpt lat="48.73283" lon="2.4874">
        <ele>145.682</ele>
        <time>2018-10-14T12:15:09Z</time>
      </trkpt>
      <trkpt lat="48.73282" lon="2.48732">
        <ele>145.692</ele>
        <time>2018-10-14T12:15:13Z</time>
      </trkpt>
      <trkpt lat="48.73282" lon="2.48728">
        <ele>145.696</ele>
        <time>2018-10-14T12:15:15Z</time>
      </trkpt>
      <trkpt lat="48.7328" lon="2.48721">
        <ele>145.707</ele>
        <time>2018-10-14T12:15:20Z</time>
      </trkpt>
      <trkpt lat="48.73279" lon="2.48717">
        <ele>145.715</ele>
        <time>2018-10-14T12:15:23Z</time>
      </trkpt>
      <trkpt lat="48.73276" lon="2.4871">
        <ele>145.725</ele>
        <time>2018-10-14T12:15:27Z</time>
      </trkpt>
      <trkpt lat="48.73276" lon="2.48702">
        <ele>145.732</ele>
        <time>2018-10-14T12:15:31Z</time>
      </trkpt>
      <trkpt lat="48.73274" lon="2.48695">
        <ele>145.738</ele>
        <time>2018-10-14T12:15:35Z</time>
      </trkpt>
      <trkpt lat="48.73274" lon="2.48687">
        <ele>145.746</ele>
        <time>2018-10-14T12:15:39Z</time>
      </trkpt>
      <trkpt lat="48.73273" lon="2.48682">
        <ele>145.756</ele>
        <time>2018-10-14T12:15:43Z</time>
      </trkpt>
      <trkpt lat="48.73272" lon="2.48678">
        <ele>145.768</ele>
        <time>2018-10-14T12:15:47Z</time>
      </trkpt>
      <trkpt lat="48.73269" lon="2.48674">
        <ele>145.776</ele>
        <time>2018-10-14T12:15:51Z</time>
      </trkpt>
      <trkpt lat="48.73264" lon="2.48671">
        <ele>145.779</ele>
        <time>2018-10-14T12:15:55Z</time>
      </trkpt>
      <trkpt lat="48.73256" lon="2.48669">
        <ele>145.778</ele>
        <time>2018-10-14T12:15:59Z</time>
      </trkpt>
      <trkpt lat="48.73253" lon="2.48667">
        <ele>145.775</ele>
        <time>2018-10-14T12:16:01Z</time>
      </trkpt>
      <trkpt lat="48.73248" lon="2.48667">
        <ele>145.769</ele>
        <time>2018-10-14T12:16:04Z</time>
      </trkpt>
      <trkpt lat="48.73243" lon="2.48668">
        <ele>145.761</ele>
        <time>2018-10-14T12:16:07Z</time>
      </trkpt>
      <trkpt lat="48.7324" lon="2.48668">
        <ele>145.756</ele>
        <time>2018-10-14T12:16:09Z</time>
      </trkpt>
      <trkpt lat="48.73235" lon="2.48671">
        <ele>145.741</ele>
        <time>2018-10-14T12:16:15Z</time>
      </trkpt>
      <trkpt lat="48.73232" lon="2.48672">
        <ele>145.737</ele>
        <time>2018-10-14T12:16:17Z</time>
      </trkpt>
      <trkpt lat="48.73228" lon="2.48673">
        <ele>145.729</ele>
        <time>2018-10-14T12:16:22Z</time>
      </trkpt>
      <trkpt lat="48.73228" lon="2.48673">
        <ele>145.729</ele>
        <time>2018-10-14T12:16:29Z</time>
      </trkpt>
      <trkpt lat="48.73228" lon="2.48673">
        <ele>89.6</ele>
        <time>2018-10-14T12:16:29Z</time>
      </trkpt>
      <trkpt lat="48.73228" lon="2.48673">
        <ele>89.6</ele>
        <time>2018-10-14T12:16:39Z</time>
      </trkpt>
      <trkpt lat="48.73212" lon="2.48692">
        <ele>145.723</ele>
        <time>2018-10-14T12:16:39Z</time>
      </trkpt>
      <trkpt lat="48.7321" lon="2.48695">
        <ele>145.723</ele>
        <time>2018-10-14T12:16:41Z</time>
      </trkpt>
      <trkpt lat="48.73209" lon="2.48698">
        <ele>145.723</ele>
        <time>2018-10-14T12:16:43Z</time>
      </trkpt>
      <trkpt lat="48.73204" lon="2.48701">
        <ele>145.723</ele>
        <time>2018-10-14T12:16:47Z</time>
      </trkpt>
      <trkpt lat="48.732" lon="2.48706">
        <ele>145.724</ele>
        <time>2018-10-14T12:16:51Z</time>
      </trkpt>
      <trkpt lat="48.73198" lon="2.48709">
        <ele>145.724</ele>
        <time>2018-10-14T12:16:53Z</time>
      </trkpt>
      <trkpt lat="48.73195" lon="2.48713">
        <ele>145.724</ele>
        <time>2018-10-14T12:16:56Z</time>
      </trkpt>
      <trkpt lat="48.73193" lon="2.48719">
        <ele>145.725</ele>
        <time>2018-10-14T12:16:59Z</time>
      </trkpt>
      <trkpt lat="48.73189" lon="2.48725">
        <ele>145.727</ele>
        <time>2018-10-14T12:17:03Z</time>
      </trkpt>
      <trkpt lat="48.73186" lon="2.4873">
        <ele>145.728</ele>
        <time>2018-10-14T12:17:07Z</time>
      </trkpt>
      <trkpt lat="48.7318" lon="2.48734">
        <ele>145.728</ele>
        <time>2018-10-14T12:17:11Z</time>
      </trkpt>
      <trkpt lat="48.73176" lon="2.48739">
        <ele>145.729</ele>
        <time>2018-10-14T12:17:15Z</time>
      </trkpt>
      <trkpt lat="48.73174" lon="2.48742">
        <ele>145.731</ele>
        <time>2018-10-14T12:17:17Z</time>
      </trkpt>
      <trkpt lat="48.7317" lon="2.48746">
        <ele>145.735</ele>
        <time>2018-10-14T12:17:20Z</time>
      </trkpt>
      <trkpt lat="48.73167" lon="2.48753">
        <ele>145.745</ele>
        <time>2018-10-14T12:17:24Z</time>
      </trkpt>
      <trkpt lat="48.73164" lon="2.48761">
        <ele>145.752</ele>
        <time>2018-10-14T12:17:27Z</time>
      </trkpt>
      <trkpt lat="48.73163" lon="2.48764">
        <ele>145.757</ele>
        <time>2018-10-14T12:17:29Z</time>
      </trkpt>
      <trkpt lat="48.7316" lon="2.4877">
        <ele>145.768</ele>
        <time>2018-10-14T12:17:33Z</time>
      </trkpt>
      <trkpt lat="48.73156" lon="2.48774">
        <ele>145.778</ele>
        <time>2018-10-14T12:17:37Z</time>
      </trkpt>
      <trkpt lat="48.73154" lon="2.48776">
        <ele>145.784</ele>
        <time>2018-10-14T12:17:39Z</time>
      </trkpt>
      <trkpt lat="48.73151" lon="2.48778">
        <ele>145.791</ele>
        <time>2018-10-14T12:17:41Z</time>
      </trkpt>
      <trkpt lat="48.73146" lon="2.4878">
        <ele>145.8</ele>
        <time>2018-10-14T12:17:44Z</time>
      </trkpt>
      <trkpt lat="48.73142" lon="2.48785">
        <ele>145.813</ele>
        <time>2018-10-14T12:17:49Z</time>
      </trkpt>
      <trkpt lat="48.73138" lon="2.4879">
        <ele>145.825</ele>
        <time>2018-10-14T12:17:53Z</time>
      </trkpt>
      <trkpt lat="48.73134" lon="2.48797">
        <ele>145.839</ele>
        <time>2018-10-14T12:17:57Z</time>
      </trkpt>
      <trkpt lat="48.73132" lon="2.488">
        <ele>145.851</ele>
        <time>2018-10-14T12:18:00Z</time>
      </trkpt>
      <trkpt lat="48.7313" lon="2.48804">
        <ele>145.863</ele>
        <time>2018-10-14T12:18:03Z</time>
      </trkpt>
      <trkpt lat="48.73128" lon="2.48811">
        <ele>145.879</ele>
        <time>2018-10-14T12:18:07Z</time>
      </trkpt>
      <trkpt lat="48.73124" lon="2.48817">
        <ele>145.895</ele>
        <time>2018-10-14T12:18:11Z</time>
      </trkpt>
      <trkpt lat="48.7312" lon="2.48824">
        <ele>145.904</ele>
        <time>2018-10-14T12:18:14Z</time>
      </trkpt>
      <trkpt lat="48.73116" lon="2.48828">
        <ele>145.914</ele>
        <time>2018-10-14T12:18:17Z</time>
      </trkpt>
      <trkpt lat="48.73113" lon="2.48831">
        <ele>145.92</ele>
        <time>2018-10-14T12:18:19Z</time>
      </trkpt>
      <trkpt lat="48.73111" lon="2.48834">
        <ele>145.926</ele>
        <time>2018-10-14T12:18:21Z</time>
      </trkpt>
      <trkpt lat="48.73107" lon="2.48839">
        <ele>145.937</ele>
        <time>2018-10-14T12:18:24Z</time>
      </trkpt>
      <trkpt lat="48.73104" lon="2.48845">
        <ele>145.958</ele>
        <time>2018-10-14T12:18:28Z</time>
      </trkpt>
      <trkpt lat="48.73101" lon="2.48849">
        <ele>145.976</ele>
        <time>2018-10-14T12:18:31Z</time>
      </trkpt>
      <trkpt lat="48.73097" lon="2.48854">
        <ele>146.001</ele>
        <time>2018-10-14T12:18:35Z</time>
      </trkpt>
      <trkpt lat="48.73094" lon="2.48859">
        <ele>146.031</ele>
        <time>2018-10-14T12:18:40Z</time>
      </trkpt>
      <trkpt lat="48.73089" lon="2.48862">
        <ele>146.059</ele>
        <time>2018-10-14T12:18:46Z</time>
      </trkpt>
      <trkpt lat="48.73085" lon="2.48867">
        <ele>146.082</ele>
        <time>2018-10-14T12:18:50Z</time>
      </trkpt>
      <trkpt lat="48.73079" lon="2.4887">
        <ele>146.098</ele>
        <time>2018-10-14T12:18:53Z</time>
      </trkpt>
      <trkpt lat="48.73072" lon="2.48871">
        <ele>146.112</ele>
        <time>2018-10-14T12:18:56Z</time>
      </trkpt>
      <trkpt lat="48.73067" lon="2.48873">
        <ele>146.128</ele>
        <time>2018-10-14T12:19:00Z</time>
      </trkpt>
      <trkpt lat="48.73062" lon="2.48872">
        <ele>146.146</ele>
        <time>2018-10-14T12:19:06Z</time>
      </trkpt>
      <trkpt lat="48.73059" lon="2.48872">
        <ele>146.159</ele>
        <time>2018-10-14T12:19:10Z</time>
      </trkpt>
      <trkpt lat="48.73056" lon="2.48866">
        <ele>146.194</ele>
        <time>2018-10-14T12:19:17Z</time>
      </trkpt>
      <trkpt lat="48.73054" lon="2.48859">
        <ele>146.213</ele>
        <time>2018-10-14T12:19:22Z</time>
      </trkpt>
      <trkpt lat="48.7305" lon="2.48853">
        <ele>146.225</ele>
        <time>2018-10-14T12:19:26Z</time>
      </trkpt>
      <trkpt lat="48.73047" lon="2.48844">
        <ele>146.232</ele>
        <time>2018-10-14T12:19:31Z</time>
      </trkpt>
      <trkpt lat="48.73045" lon="2.48835">
        <ele>146.232</ele>
        <time>2018-10-14T12:19:34Z</time>
      </trkpt>
      <trkpt lat="48.73044" lon="2.4883">
        <ele>146.232</ele>
        <time>2018-10-14T12:19:36Z</time>
      </trkpt>
      <trkpt lat="48.73042" lon="2.48826">
        <ele>146.232</ele>
        <time>2018-10-14T12:19:38Z</time>
      </trkpt>
      <trkpt lat="48.73038" lon="2.48818">
        <ele>146.234</ele>
        <time>2018-10-14T12:19:42Z</time>
      </trkpt>
      <trkpt lat="48.73036" lon="2.48814">
        <ele>146.235</ele>
        <time>2018-10-14T12:19:45Z</time>
      </trkpt>
      <trkpt lat="48.73034" lon="2.48808">
        <ele>146.236</ele>
        <time>2018-10-14T12:19:49Z</time>
      </trkpt>
      <trkpt lat="48.73032" lon="2.48802">
        <ele>146.237</ele>
        <time>2018-10-14T12:19:52Z</time>
      </trkpt>
      <trkpt lat="48.73029" lon="2.48795">
        <ele>146.236</ele>
        <time>2018-10-14T12:19:55Z</time>
      </trkpt>
      <trkpt lat="48.73027" lon="2.48788">
        <ele>146.232</ele>
        <time>2018-10-14T12:19:58Z</time>
      </trkpt>
      <trkpt lat="48.73026" lon="2.48783">
        <ele>146.228</ele>
        <time>2018-10-14T12:20:00Z</time>
      </trkpt>
      <trkpt lat="48.73024" lon="2.48775">
        <ele>146.22</ele>
        <time>2018-10-14T12:20:04Z</time>
      </trkpt>
      <trkpt lat="48.73022" lon="2.48768">
        <ele>146.215</ele>
        <time>2018-10-14T12:20:08Z</time>
      </trkpt>
      <trkpt lat="48.7302" lon="2.4876">
        <ele>146.21</ele>
        <time>2018-10-14T12:20:13Z</time>
      </trkpt>
      <trkpt lat="48.7302" lon="2.48756">
        <ele>146.21</ele>
        <time>2018-10-14T12:20:15Z</time>
      </trkpt>
      <trkpt lat="48.73018" lon="2.48749">
        <ele>146.207</ele>
        <time>2018-10-14T12:20:19Z</time>
      </trkpt>
      <trkpt lat="48.73017" lon="2.48746">
        <ele>146.205</ele>
        <time>2018-10-14T12:20:21Z</time>
      </trkpt>
      <trkpt lat="48.73015" lon="2.48741">
        <ele>146.201</ele>
        <time>2018-10-14T12:20:24Z</time>
      </trkpt>
      <trkpt lat="48.73013" lon="2.48734">
        <ele>146.192</ele>
        <time>2018-10-14T12:20:29Z</time>
      </trkpt>
      <trkpt lat="48.73011" lon="2.48729">
        <ele>146.186</ele>
        <time>2018-10-14T12:20:32Z</time>
      </trkpt>
      <trkpt lat="48.7301" lon="2.48726">
        <ele>146.183</ele>
        <time>2018-10-14T12:20:34Z</time>
      </trkpt>
      <trkpt lat="48.73006" lon="2.4872">
        <ele>146.179</ele>
        <time>2018-10-14T12:20:37Z</time>
      </trkpt>
      <trkpt lat="48.73004" lon="2.48716">
        <ele>146.177</ele>
        <time>2018-10-14T12:20:39Z</time>
      </trkpt>
      <trkpt lat="48.73" lon="2.48709">
        <ele>146.174</ele>
        <time>2018-10-14T12:20:42Z</time>
      </trkpt>
      <trkpt lat="48.72998" lon="2.48703">
        <ele>146.172</ele>
        <time>2018-10-14T12:20:45Z</time>
      </trkpt>
      <trkpt lat="48.72997" lon="2.48699">
        <ele>146.171</ele>
        <time>2018-10-14T12:20:47Z</time>
      </trkpt>
      <trkpt lat="48.72995" lon="2.48695">
        <ele>146.17</ele>
        <time>2018-10-14T12:20:50Z</time>
      </trkpt>
      <trkpt lat="48.72993" lon="2.4869">
        <ele>146.17</ele>
        <time>2018-10-14T12:20:54Z</time>
      </trkpt>
      <trkpt lat="48.72991" lon="2.48683">
        <ele>146.171</ele>
        <time>2018-10-14T12:20:58Z</time>
      </trkpt>
      <trkpt lat="48.72989" lon="2.48672">
        <ele>146.172</ele>
        <time>2018-10-14T12:21:02Z</time>
      </trkpt>
      <trkpt lat="48.72988" lon="2.48667">
        <ele>146.173</ele>
        <time>2018-10-14T12:21:04Z</time>
      </trkpt>
      <trkpt lat="48.72985" lon="2.4866">
        <ele>146.178</ele>
        <time>2018-10-14T12:21:08Z</time>
      </trkpt>
      <trkpt lat="48.72982" lon="2.48654">
        <ele>146.183</ele>
        <time>2018-10-14T12:21:12Z</time>
      </trkpt>
      <trkpt lat="48.72978" lon="2.48646">
        <ele>146.188</ele>
        <time>2018-10-14T12:21:15Z</time>
      </trkpt>
      <trkpt lat="48.72977" lon="2.48638">
        <ele>146.193</ele>
        <time>2018-10-14T12:21:18Z</time>
      </trkpt>
      <trkpt lat="48.72976" lon="2.48631">
        <ele>146.2</ele>
        <time>2018-10-14T12:21:22Z</time>
      </trkpt>
      <trkpt lat="48.72975" lon="2.48628">
        <ele>146.206</ele>
        <time>2018-10-14T12:21:25Z</time>
      </trkpt>
      <trkpt lat="48.72974" lon="2.48621">
        <ele>146.219</ele>
        <time>2018-10-14T12:21:29Z</time>
      </trkpt>
      <trkpt lat="48.72973" lon="2.48617">
        <ele>146.227</ele>
        <time>2018-10-14T12:21:31Z</time>
      </trkpt>
      <trkpt lat="48.72969" lon="2.48611">
        <ele>146.241</ele>
        <time>2018-10-14T12:21:34Z</time>
      </trkpt>
      <trkpt lat="48.72966" lon="2.48606">
        <ele>146.263</ele>
        <time>2018-10-14T12:21:38Z</time>
      </trkpt>
      <trkpt lat="48.72964" lon="2.48599">
        <ele>146.281</ele>
        <time>2018-10-14T12:21:42Z</time>
      </trkpt>
      <trkpt lat="48.72963" lon="2.48591">
        <ele>146.296</ele>
        <time>2018-10-14T12:21:46Z</time>
      </trkpt>
      <trkpt lat="48.72962" lon="2.48586">
        <ele>146.306</ele>
        <time>2018-10-14T12:21:49Z</time>
      </trkpt>
      <trkpt lat="48.72962" lon="2.48582">
        <ele>146.314</ele>
        <time>2018-10-14T12:21:51Z</time>
      </trkpt>
      <trkpt lat="48.7296" lon="2.48573">
        <ele>146.33</ele>
        <time>2018-10-14T12:21:55Z</time>
      </trkpt>
      <trkpt lat="48.72959" lon="2.48569">
        <ele>146.337</ele>
        <time>2018-10-14T12:21:57Z</time>
      </trkpt>
      <trkpt lat="48.72958" lon="2.48566">
        <ele>146.343</ele>
        <time>2018-10-14T12:21:59Z</time>
      </trkpt>
      <trkpt lat="48.72957" lon="2.48562">
        <ele>146.349</ele>
        <time>2018-10-14T12:22:01Z</time>
      </trkpt>
      <trkpt lat="48.72955" lon="2.48555">
        <ele>146.358</ele>
        <time>2018-10-14T12:22:05Z</time>
      </trkpt>
      <trkpt lat="48.72953" lon="2.48548">
        <ele>146.365</ele>
        <time>2018-10-14T12:22:08Z</time>
      </trkpt>
      <trkpt lat="48.7295" lon="2.4854">
        <ele>146.375</ele>
        <time>2018-10-14T12:22:12Z</time>
      </trkpt>
      <trkpt lat="48.72948" lon="2.48535">
        <ele>146.379</ele>
        <time>2018-10-14T12:22:14Z</time>
      </trkpt>
      <trkpt lat="48.72946" lon="2.48531">
        <ele>146.381</ele>
        <time>2018-10-14T12:22:16Z</time>
      </trkpt>
      <trkpt lat="48.72945" lon="2.48527">
        <ele>146.383</ele>
        <time>2018-10-14T12:22:18Z</time>
      </trkpt>
      <trkpt lat="48.72943" lon="2.4852">
        <ele>146.383</ele>
        <time>2018-10-14T12:22:21Z</time>
      </trkpt>
      <trkpt lat="48.72942" lon="2.48514">
        <ele>146.383</ele>
        <time>2018-10-14T12:22:24Z</time>
      </trkpt>
      <trkpt lat="48.72939" lon="2.48506">
        <ele>146.377</ele>
        <time>2018-10-14T12:22:28Z</time>
      </trkpt>
      <trkpt lat="48.72938" lon="2.48501">
        <ele>146.366</ele>
        <time>2018-10-14T12:22:34Z</time>
      </trkpt>
      <trkpt lat="48.72936" lon="2.48494">
        <ele>146.358</ele>
        <time>2018-10-14T12:22:37Z</time>
      </trkpt>
      <trkpt lat="48.72934" lon="2.48487">
        <ele>146.353</ele>
        <time>2018-10-14T12:22:39Z</time>
      </trkpt>
      <trkpt lat="48.72933" lon="2.48479">
        <ele>146.345</ele>
        <time>2018-10-14T12:22:42Z</time>
      </trkpt>
      <trkpt lat="48.72931" lon="2.48474">
        <ele>146.34</ele>
        <time>2018-10-14T12:22:44Z</time>
      </trkpt>
      <trkpt lat="48.7293" lon="2.4847">
        <ele>146.336</ele>
        <time>2018-10-14T12:22:46Z</time>
      </trkpt>
      <trkpt lat="48.72927" lon="2.48465">
        <ele>146.33</ele>
        <time>2018-10-14T12:22:49Z</time>
      </trkpt>
      <trkpt lat="48.72921" lon="2.48462">
        <ele>146.327</ele>
        <time>2018-10-14T12:22:53Z</time>
      </trkpt>
      <trkpt lat="48.72917" lon="2.4846">
        <ele>146.325</ele>
        <time>2018-10-14T12:22:56Z</time>
      </trkpt>
      <trkpt lat="48.72917" lon="2.4846">
        <ele>89</ele>
        <time>2018-10-14T12:23:04Z</time>
      </trkpt>
      <trkpt lat="48.72917" lon="2.4846">
        <ele>89</ele>
        <time>2018-10-14T12:23:11Z</time>
      </trkpt>
      <trkpt lat="48.72912" lon="2.48464">
        <ele>146.316</ele>
        <time>2018-10-14T12:23:11Z</time>
      </trkpt>
      <trkpt lat="48.72907" lon="2.48467">
        <ele>146.318</ele>
        <time>2018-10-14T12:23:15Z</time>
      </trkpt>
      <trkpt lat="48.72904" lon="2.48469">
        <ele>146.321</ele>
        <time>2018-10-14T12:23:17Z</time>
      </trkpt>
      <trkpt lat="48.72899" lon="2.48471">
        <ele>146.326</ele>
        <time>2018-10-14T12:23:21Z</time>
      </trkpt>
      <trkpt lat="48.72895" lon="2.48474">
        <ele>146.329</ele>
        <time>2018-10-14T12:23:24Z</time>
      </trkpt>
      <trkpt lat="48.72892" lon="2.48476">
        <ele>146.33</ele>
        <time>2018-10-14T12:23:26Z</time>
      </trkpt>
      <trkpt lat="48.72888" lon="2.48479">
        <ele>146.33</ele>
        <time>2018-10-14T12:23:28Z</time>
      </trkpt>
      <trkpt lat="48.72883" lon="2.4848">
        <ele>146.33</ele>
        <time>2018-10-14T12:23:31Z</time>
      </trkpt>
      <trkpt lat="48.7288" lon="2.48482">
        <ele>146.329</ele>
        <time>2018-10-14T12:23:33Z</time>
      </trkpt>
      <trkpt lat="48.72877" lon="2.48487">
        <ele>146.328</ele>
        <time>2018-10-14T12:23:39Z</time>
      </trkpt>
      <trkpt lat="48.72875" lon="2.48489">
        <ele>146.328</ele>
        <time>2018-10-14T12:23:40Z</time>
      </trkpt>
      <trkpt lat="48.72872" lon="2.48492">
        <ele>146.328</ele>
        <time>2018-10-14T12:23:42Z</time>
      </trkpt>
      <trkpt lat="48.72869" lon="2.48496">
        <ele>146.329</ele>
        <time>2018-10-14T12:23:44Z</time>
      </trkpt>
      <trkpt lat="48.72864" lon="2.48498">
        <ele>146.331</ele>
        <time>2018-10-14T12:23:47Z</time>
      </trkpt>
      <trkpt lat="48.72859" lon="2.48499">
        <ele>146.338</ele>
        <time>2018-10-14T12:23:52Z</time>
      </trkpt>
      <trkpt lat="48.72855" lon="2.48504">
        <ele>146.346</ele>
        <time>2018-10-14T12:23:57Z</time>
      </trkpt>
      <trkpt lat="48.72852" lon="2.48506">
        <ele>146.349</ele>
        <time>2018-10-14T12:24:00Z</time>
      </trkpt>
      <trkpt lat="48.7285" lon="2.48508">
        <ele>146.349</ele>
        <time>2018-10-14T12:24:02Z</time>
      </trkpt>
      <trkpt lat="48.72845" lon="2.48511">
        <ele>146.349</ele>
        <time>2018-10-14T12:24:06Z</time>
      </trkpt>
      <trkpt lat="48.7284" lon="2.48512">
        <ele>146.35</ele>
        <time>2018-10-14T12:24:10Z</time>
      </trkpt>
      <trkpt lat="48.72834" lon="2.48515">
        <ele>146.351</ele>
        <time>2018-10-14T12:24:13Z</time>
      </trkpt>
      <trkpt lat="48.72831" lon="2.48516">
        <ele>146.351</ele>
        <time>2018-10-14T12:24:15Z</time>
      </trkpt>
      <trkpt lat="48.72826" lon="2.48518">
        <ele>146.351</ele>
        <time>2018-10-14T12:24:19Z</time>
      </trkpt>
      <trkpt lat="48.72821" lon="2.48517">
        <ele>146.35</ele>
        <time>2018-10-14T12:24:22Z</time>
      </trkpt>
      <trkpt lat="48.72816" lon="2.4852">
        <ele>146.347</ele>
        <time>2018-10-14T12:24:26Z</time>
      </trkpt>
      <trkpt lat="48.72812" lon="2.48523">
        <ele>146.342</ele>
        <time>2018-10-14T12:24:30Z</time>
      </trkpt>
      <trkpt lat="48.72806" lon="2.48525">
        <ele>146.334</ele>
        <time>2018-10-14T12:24:33Z</time>
      </trkpt>
      <trkpt lat="48.72801" lon="2.48527">
        <ele>146.324</ele>
        <time>2018-10-14T12:24:36Z</time>
      </trkpt>
      <trkpt lat="48.72796" lon="2.48531">
        <ele>146.307</ele>
        <time>2018-10-14T12:24:40Z</time>
      </trkpt>
      <trkpt lat="48.72793" lon="2.48533">
        <ele>146.299</ele>
        <time>2018-10-14T12:24:42Z</time>
      </trkpt>
      <trkpt lat="48.72788" lon="2.48536">
        <ele>146.287</ele>
        <time>2018-10-14T12:24:45Z</time>
      </trkpt>
      <trkpt lat="48.72783" lon="2.48541">
        <ele>146.272</ele>
        <time>2018-10-14T12:24:49Z</time>
      </trkpt>
      <trkpt lat="48.7278" lon="2.48543">
        <ele>146.263</ele>
        <time>2018-10-14T12:24:51Z</time>
      </trkpt>
      <trkpt lat="48.72775" lon="2.48544">
        <ele>146.239</ele>
        <time>2018-10-14T12:24:55Z</time>
      </trkpt>
      <trkpt lat="48.7277" lon="2.48545">
        <ele>146.216</ele>
        <time>2018-10-14T12:24:59Z</time>
      </trkpt>
      <trkpt lat="48.72765" lon="2.48549">
        <ele>146.194</ele>
        <time>2018-10-14T12:25:02Z</time>
      </trkpt>
      <trkpt lat="48.72763" lon="2.4855">
        <ele>146.178</ele>
        <time>2018-10-14T12:25:04Z</time>
      </trkpt>
      <trkpt lat="48.72758" lon="2.48553">
        <ele>146.157</ele>
        <time>2018-10-14T12:25:07Z</time>
      </trkpt>
      <trkpt lat="48.72753" lon="2.48557">
        <ele>146.137</ele>
        <time>2018-10-14T12:25:10Z</time>
      </trkpt>
      <trkpt lat="48.72751" lon="2.48559">
        <ele>146.125</ele>
        <time>2018-10-14T12:25:12Z</time>
      </trkpt>
      <trkpt lat="48.72747" lon="2.4856">
        <ele>146.1</ele>
        <time>2018-10-14T12:25:16Z</time>
      </trkpt>
      <trkpt lat="48.72742" lon="2.4856">
        <ele>146.083</ele>
        <time>2018-10-14T12:25:19Z</time>
      </trkpt>
      <trkpt lat="48.72737" lon="2.48558">
        <ele>146.056</ele>
        <time>2018-10-14T12:25:24Z</time>
      </trkpt>
      <trkpt lat="48.72731" lon="2.48559">
        <ele>146.042</ele>
        <time>2018-10-14T12:25:27Z</time>
      </trkpt>
      <trkpt lat="48.72726" lon="2.48559">
        <ele>146.029</ele>
        <time>2018-10-14T12:25:30Z</time>
      </trkpt>
      <trkpt lat="48.72721" lon="2.48557">
        <ele>146.013</ele>
        <time>2018-10-14T12:25:34Z</time>
      </trkpt>
      <trkpt lat="48.72718" lon="2.48556">
        <ele>146.005</ele>
        <time>2018-10-14T12:25:36Z</time>
      </trkpt>
      <trkpt lat="48.72714" lon="2.48555">
        <ele>145.998</ele>
        <time>2018-10-14T12:25:38Z</time>
      </trkpt>
      <trkpt lat="48.72712" lon="2.48554">
        <ele>145.991</ele>
        <time>2018-10-14T12:25:40Z</time>
      </trkpt>
      <trkpt lat="48.72707" lon="2.48554">
        <ele>145.981</ele>
        <time>2018-10-14T12:25:44Z</time>
      </trkpt>
      <trkpt lat="48.72703" lon="2.48554">
        <ele>145.974</ele>
        <time>2018-10-14T12:25:47Z</time>
      </trkpt>
      <trkpt lat="48.727" lon="2.48553">
        <ele>145.963</ele>
        <time>2018-10-14T12:25:52Z</time>
      </trkpt>
      <trkpt lat="48.72697" lon="2.48548">
        <ele>145.953</ele>
        <time>2018-10-14T12:25:58Z</time>
      </trkpt>
      <trkpt lat="48.72697" lon="2.48541">
        <ele>145.95</ele>
        <time>2018-10-14T12:26:03Z</time>
      </trkpt>
      <trkpt lat="48.72697" lon="2.48532">
        <ele>145.949</ele>
        <time>2018-10-14T12:26:07Z</time>
      </trkpt>
      <trkpt lat="48.72695" lon="2.48524">
        <ele>145.946</ele>
        <time>2018-10-14T12:26:11Z</time>
      </trkpt>
      <trkpt lat="48.72694" lon="2.48518">
        <ele>145.943</ele>
        <time>2018-10-14T12:26:13Z</time>
      </trkpt>
      <trkpt lat="48.72693" lon="2.48513">
        <ele>145.94</ele>
        <time>2018-10-14T12:26:15Z</time>
      </trkpt>
      <trkpt lat="48.72692" lon="2.48509">
        <ele>145.936</ele>
        <time>2018-10-14T12:26:17Z</time>
      </trkpt>
      <trkpt lat="48.72691" lon="2.48501">
        <ele>145.929</ele>
        <time>2018-10-14T12:26:20Z</time>
      </trkpt>
      <trkpt lat="48.72691" lon="2.48498">
        <ele>145.924</ele>
        <time>2018-10-14T12:26:22Z</time>
      </trkpt>
      <trkpt lat="48.7269" lon="2.48494">
        <ele>145.92</ele>
        <time>2018-10-14T12:26:24Z</time>
      </trkpt>
      <trkpt lat="48.72689" lon="2.48488">
        <ele>145.915</ele>
        <time>2018-10-14T12:26:27Z</time>
      </trkpt>
      <trkpt lat="48.72688" lon="2.4848">
        <ele>145.909</ele>
        <time>2018-10-14T12:26:31Z</time>
      </trkpt>
      <trkpt lat="48.72687" lon="2.48473">
        <ele>145.904</ele>
        <time>2018-10-14T12:26:34Z</time>
      </trkpt>
      <trkpt lat="48.72687" lon="2.48469">
        <ele>145.9</ele>
        <time>2018-10-14T12:26:36Z</time>
      </trkpt>
      <trkpt lat="48.72686" lon="2.48465">
        <ele>145.898</ele>
        <time>2018-10-14T12:26:42Z</time>
      </trkpt>
      <trkpt lat="48.72685" lon="2.48459">
        <ele>145.9</ele>
        <time>2018-10-14T12:26:47Z</time>
      </trkpt>
      <trkpt lat="48.72684" lon="2.48451">
        <ele>145.906</ele>
        <time>2018-10-14T12:26:52Z</time>
      </trkpt>
      <trkpt lat="48.72683" lon="2.48447">
        <ele>145.908</ele>
        <time>2018-10-14T12:26:54Z</time>
      </trkpt>
      <trkpt lat="48.72682" lon="2.48442">
        <ele>145.91</ele>
        <time>2018-10-14T12:26:56Z</time>
      </trkpt>
      <trkpt lat="48.7268" lon="2.48432">
        <ele>145.91</ele>
        <time>2018-10-14T12:26:59Z</time>
      </trkpt>
      <trkpt lat="48.72679" lon="2.48426">
        <ele>145.908</ele>
        <time>2018-10-14T12:27:01Z</time>
      </trkpt>
      <trkpt lat="48.72679" lon="2.48419">
        <ele>145.907</ele>
        <time>2018-10-14T12:27:03Z</time>
      </trkpt>
      <trkpt lat="48.72679" lon="2.48419">
        <ele>145.907</ele>
        <time>2018-10-14T12:27:08Z</time>
      </trkpt>
      <trkpt lat="48.72679" lon="2.48419">
        <ele>87</ele>
        <time>2018-10-14T12:27:08Z</time>
      </trkpt>
      <trkpt lat="48.72679" lon="2.48419">
        <ele>87</ele>
        <time>2018-10-14T12:27:13Z</time>
      </trkpt>
      <trkpt lat="48.72677" lon="2.48402">
        <ele>145.894</ele>
        <time>2018-10-14T12:27:13Z</time>
      </trkpt>
      <trkpt lat="48.72677" lon="2.48397">
        <ele>145.888</ele>
        <time>2018-10-14T12:27:15Z</time>
      </trkpt>
      <trkpt lat="48.72675" lon="2.48389">
        <ele>145.876</ele>
        <time>2018-10-14T12:27:19Z</time>
      </trkpt>
      <trkpt lat="48.72673" lon="2.48381">
        <ele>145.87</ele>
        <time>2018-10-14T12:27:22Z</time>
      </trkpt>
      <trkpt lat="48.7267" lon="2.48374">
        <ele>145.865</ele>
        <time>2018-10-14T12:27:25Z</time>
      </trkpt>
      <trkpt lat="48.72667" lon="2.48368">
        <ele>145.859</ele>
        <time>2018-10-14T12:27:29Z</time>
      </trkpt>
      <trkpt lat="48.72666" lon="2.48361">
        <ele>145.849</ele>
        <time>2018-10-14T12:27:34Z</time>
      </trkpt>
      <trkpt lat="48.72665" lon="2.48353">
        <ele>145.841</ele>
        <time>2018-10-14T12:27:38Z</time>
      </trkpt>
      <trkpt lat="48.72664" lon="2.48347">
        <ele>145.836</ele>
        <time>2018-10-14T12:27:40Z</time>
      </trkpt>
      <trkpt lat="48.72663" lon="2.48343">
        <ele>145.832</ele>
        <time>2018-10-14T12:27:42Z</time>
      </trkpt>
      <trkpt lat="48.72662" lon="2.48339">
        <ele>145.827</ele>
        <time>2018-10-14T12:27:44Z</time>
      </trkpt>
      <trkpt lat="48.72661" lon="2.48334">
        <ele>145.822</ele>
        <time>2018-10-14T12:27:46Z</time>
      </trkpt>
      <trkpt lat="48.7266" lon="2.4833">
        <ele>145.818</ele>
        <time>2018-10-14T12:27:48Z</time>
      </trkpt>
      <trkpt lat="48.72659" lon="2.48326">
        <ele>145.814</ele>
        <time>2018-10-14T12:27:50Z</time>
      </trkpt>
      <trkpt lat="48.72658" lon="2.48322">
        <ele>145.811</ele>
        <time>2018-10-14T12:27:52Z</time>
      </trkpt>
      <trkpt lat="48.72657" lon="2.48317">
        <ele>145.806</ele>
        <time>2018-10-14T12:27:55Z</time>
      </trkpt>
      <trkpt lat="48.72655" lon="2.4831">
        <ele>145.801</ele>
        <time>2018-10-14T12:27:59Z</time>
      </trkpt>
      <trkpt lat="48.72652" lon="2.48305">
        <ele>145.794</ele>
        <time>2018-10-14T12:28:02Z</time>
      </trkpt>
      <trkpt lat="48.7265" lon="2.48298">
        <ele>145.787</ele>
        <time>2018-10-14T12:28:05Z</time>
      </trkpt>
      <trkpt lat="48.72646" lon="2.48288">
        <ele>145.776</ele>
        <time>2018-10-14T12:28:10Z</time>
      </trkpt>
      <trkpt lat="48.72644" lon="2.4828">
        <ele>145.768</ele>
        <time>2018-10-14T12:28:13Z</time>
      </trkpt>
      <trkpt lat="48.72644" lon="2.48277">
        <ele>145.766</ele>
        <time>2018-10-14T12:28:14Z</time>
      </trkpt>
      <trkpt lat="48.72643" lon="2.48269">
        <ele>145.759</ele>
        <time>2018-10-14T12:28:18Z</time>
      </trkpt>
      <trkpt lat="48.72643" lon="2.48265">
        <ele>145.756</ele>
        <time>2018-10-14T12:28:20Z</time>
      </trkpt>
      <trkpt lat="48.72643" lon="2.48261">
        <ele>145.753</ele>
        <time>2018-10-14T12:28:23Z</time>
      </trkpt>
      <trkpt lat="48.72642" lon="2.48254">
        <ele>145.753</ele>
        <time>2018-10-14T12:28:27Z</time>
      </trkpt>
      <trkpt lat="48.72641" lon="2.48246">
        <ele>145.758</ele>
        <time>2018-10-14T12:28:30Z</time>
      </trkpt>
      <trkpt lat="48.7264" lon="2.48241">
        <ele>145.761</ele>
        <time>2018-10-14T12:28:32Z</time>
      </trkpt>
      <trkpt lat="48.72638" lon="2.48234">
        <ele>145.769</ele>
        <time>2018-10-14T12:28:37Z</time>
      </trkpt>
      <trkpt lat="48.72637" lon="2.48227">
        <ele>145.775</ele>
        <time>2018-10-14T12:28:43Z</time>
      </trkpt>
      <trkpt lat="48.72636" lon="2.48219">
        <ele>145.776</ele>
        <time>2018-10-14T12:28:47Z</time>
      </trkpt>
      <trkpt lat="48.72635" lon="2.48215">
        <ele>145.776</ele>
        <time>2018-10-14T12:28:49Z</time>
      </trkpt>
      <trkpt lat="48.72633" lon="2.48206">
        <ele>145.776</ele>
        <time>2018-10-14T12:28:52Z</time>
      </trkpt>
      <trkpt lat="48.72631" lon="2.48197">
        <ele>145.775</ele>
        <time>2018-10-14T12:28:55Z</time>
      </trkpt>
      <trkpt lat="48.7263" lon="2.48193">
        <ele>145.775</ele>
        <time>2018-10-14T12:28:57Z</time>
      </trkpt>
      <trkpt lat="48.7263" lon="2.48184">
        <ele>145.775</ele>
        <time>2018-10-14T12:29:01Z</time>
      </trkpt>
      <trkpt lat="48.72629" lon="2.48177">
        <ele>145.777</ele>
        <time>2018-10-14T12:29:04Z</time>
      </trkpt>
      <trkpt lat="48.72628" lon="2.4817">
        <ele>145.779</ele>
        <time>2018-10-14T12:29:07Z</time>
      </trkpt>
      <trkpt lat="48.72624" lon="2.48165">
        <ele>145.78</ele>
        <time>2018-10-14T12:29:10Z</time>
      </trkpt>
      <trkpt lat="48.72623" lon="2.48157">
        <ele>145.782</ele>
        <time>2018-10-14T12:29:13Z</time>
      </trkpt>
      <trkpt lat="48.72621" lon="2.48149">
        <ele>145.785</ele>
        <time>2018-10-14T12:29:16Z</time>
      </trkpt>
      <trkpt lat="48.7262" lon="2.48142">
        <ele>145.789</ele>
        <time>2018-10-14T12:29:19Z</time>
      </trkpt>
      <trkpt lat="48.7262" lon="2.48137">
        <ele>145.793</ele>
        <time>2018-10-14T12:29:22Z</time>
      </trkpt>
      <trkpt lat="48.72619" lon="2.48133">
        <ele>145.796</ele>
        <time>2018-10-14T12:29:24Z</time>
      </trkpt>
      <trkpt lat="48.72617" lon="2.48126">
        <ele>145.799</ele>
        <time>2018-10-14T12:29:27Z</time>
      </trkpt>
      <trkpt lat="48.72616" lon="2.4812">
        <ele>145.805</ele>
        <time>2018-10-14T12:29:30Z</time>
      </trkpt>
      <trkpt lat="48.72614" lon="2.48113">
        <ele>145.816</ele>
        <time>2018-10-14T12:29:35Z</time>
      </trkpt>
      <trkpt lat="48.72612" lon="2.48106">
        <ele>145.822</ele>
        <time>2018-10-14T12:29:38Z</time>
      </trkpt>
      <trkpt lat="48.72611" lon="2.481">
        <ele>145.826</ele>
        <time>2018-10-14T12:29:42Z</time>
      </trkpt>
      <trkpt lat="48.72608" lon="2.48094">
        <ele>145.828</ele>
        <time>2018-10-14T12:29:49Z</time>
      </trkpt>
      <trkpt lat="48.72607" lon="2.48086">
        <ele>145.82</ele>
        <time>2018-10-14T12:29:55Z</time>
      </trkpt>
      <trkpt lat="48.72604" lon="2.48078">
        <ele>145.812</ele>
        <time>2018-10-14T12:29:59Z</time>
      </trkpt>
      <trkpt lat="48.72603" lon="2.48071">
        <ele>145.808</ele>
        <time>2018-10-14T12:30:01Z</time>
      </trkpt>
      <trkpt lat="48.72602" lon="2.48061">
        <ele>145.803</ele>
        <time>2018-10-14T12:30:04Z</time>
      </trkpt>
      <trkpt lat="48.726" lon="2.48052">
        <ele>145.8</ele>
        <time>2018-10-14T12:30:06Z</time>
      </trkpt>
      <trkpt lat="48.72597" lon="2.48043">
        <ele>145.795</ele>
        <time>2018-10-14T12:30:08Z</time>
      </trkpt>
      <trkpt lat="48.72596" lon="2.48035">
        <ele>145.779</ele>
        <time>2018-10-14T12:30:12Z</time>
      </trkpt>
      <trkpt lat="48.72595" lon="2.48031">
        <ele>145.766</ele>
        <time>2018-10-14T12:30:14Z</time>
      </trkpt>
      <trkpt lat="48.72594" lon="2.48027">
        <ele>145.731</ele>
        <time>2018-10-14T12:30:18Z</time>
      </trkpt>
      <trkpt lat="48.72592" lon="2.48019">
        <ele>145.681</ele>
        <time>2018-10-14T12:30:22Z</time>
      </trkpt>
      <trkpt lat="48.72589" lon="2.48014">
        <ele>145.654</ele>
        <time>2018-10-14T12:30:24Z</time>
      </trkpt>
      <trkpt lat="48.72587" lon="2.48006">
        <ele>145.602</ele>
        <time>2018-10-14T12:30:28Z</time>
      </trkpt>
      <trkpt lat="48.72589" lon="2.48">
        <ele>145.524</ele>
        <time>2018-10-14T12:30:34Z</time>
      </trkpt>
      <trkpt lat="48.72589" lon="2.4799">
        <ele>145.484</ele>
        <time>2018-10-14T12:30:37Z</time>
      </trkpt>
      <trkpt lat="48.72587" lon="2.47983">
        <ele>145.446</ele>
        <time>2018-10-14T12:30:40Z</time>
      </trkpt>
      <trkpt lat="48.72586" lon="2.47977">
        <ele>145.41</ele>
        <time>2018-10-14T12:30:43Z</time>
      </trkpt>
      <trkpt lat="48.72584" lon="2.47973">
        <ele>145.386</ele>
        <time>2018-10-14T12:30:45Z</time>
      </trkpt>
      <trkpt lat="48.72582" lon="2.47966">
        <ele>145.352</ele>
        <time>2018-10-14T12:30:48Z</time>
      </trkpt>
      <trkpt lat="48.7258" lon="2.47959">
        <ele>145.29</ele>
        <time>2018-10-14T12:30:54Z</time>
      </trkpt>
      <trkpt lat="48.72579" lon="2.47955">
        <ele>145.272</ele>
        <time>2018-10-14T12:30:56Z</time>
      </trkpt>
      <trkpt lat="48.72576" lon="2.47946">
        <ele>145.213</ele>
        <time>2018-10-14T12:31:03Z</time>
      </trkpt>
      <trkpt lat="48.72576" lon="2.47946">
        <ele>87</ele>
        <time>2018-10-14T12:31:10Z</time>
      </trkpt>
      <trkpt lat="48.72576" lon="2.47946">
        <ele>87</ele>
        <time>2018-10-14T12:33:19Z</time>
      </trkpt>
      <trkpt lat="48.72568" lon="2.47919">
        <ele>144.979</ele>
        <time>2018-10-14T12:33:19Z</time>
      </trkpt>
      <trkpt lat="48.72567" lon="2.47911">
        <ele>144.984</ele>
        <time>2018-10-14T12:33:24Z</time>
      </trkpt>
      <trkpt lat="48.72566" lon="2.47904">
        <ele>144.989</ele>
        <time>2018-10-14T12:33:28Z</time>
      </trkpt>
      <trkpt lat="48.72566" lon="2.47897">
        <ele>144.992</ele>
        <time>2018-10-14T12:33:32Z</time>
      </trkpt>
      <trkpt lat="48.72564" lon="2.47889">
        <ele>144.996</ele>
        <time>2018-10-14T12:33:38Z</time>
      </trkpt>
      <trkpt lat="48.72562" lon="2.47882">
        <ele>144.999</ele>
        <time>2018-10-14T12:33:42Z</time>
      </trkpt>
      <trkpt lat="48.7256" lon="2.47874">
        <ele>145.004</ele>
        <time>2018-10-14T12:33:46Z</time>
      </trkpt>
      <trkpt lat="48.7256" lon="2.47866">
        <ele>145.007</ele>
        <time>2018-10-14T12:33:48Z</time>
      </trkpt>
      <trkpt lat="48.72559" lon="2.47861">
        <ele>145.012</ele>
        <time>2018-10-14T12:33:50Z</time>
      </trkpt>
      <trkpt lat="48.72559" lon="2.47856">
        <ele>145.017</ele>
        <time>2018-10-14T12:33:52Z</time>
      </trkpt>
      <trkpt lat="48.72558" lon="2.47851">
        <ele>145.022</ele>
        <time>2018-10-14T12:33:54Z</time>
      </trkpt>
      <trkpt lat="48.72558" lon="2.47847">
        <ele>145.028</ele>
        <time>2018-10-14T12:33:56Z</time>
      </trkpt>
      <trkpt lat="48.72554" lon="2.47841">
        <ele>145.041</ele>
        <time>2018-10-14T12:34:00Z</time>
      </trkpt>
      <trkpt lat="48.72553" lon="2.47838">
        <ele>145.047</ele>
        <time>2018-10-14T12:34:02Z</time>
      </trkpt>
      <trkpt lat="48.72551" lon="2.47831">
        <ele>145.06</ele>
        <time>2018-10-14T12:34:06Z</time>
      </trkpt>
      <trkpt lat="48.72551" lon="2.47826">
        <ele>145.081</ele>
        <time>2018-10-14T12:34:12Z</time>
      </trkpt>
      <trkpt lat="48.72551" lon="2.47826">
        <ele>87</ele>
        <time>2018-10-14T12:34:19Z</time>
      </trkpt>
      <trkpt lat="48.72551" lon="2.47826">
        <ele>87</ele>
        <time>2018-10-14T12:37:17Z</time>
      </trkpt>
      <trkpt lat="48.72546" lon="2.47794">
        <ele>145.626</ele>
        <time>2018-10-14T12:37:17Z</time>
      </trkpt>
      <trkpt lat="48.72544" lon="2.47787">
        <ele>145.661</ele>
        <time>2018-10-14T12:37:22Z</time>
      </trkpt>
      <trkpt lat="48.7254" lon="2.47782">
        <ele>145.687</ele>
        <time>2018-10-14T12:37:26Z</time>
      </trkpt>
      <trkpt lat="48.72539" lon="2.47775">
        <ele>145.721</ele>
        <time>2018-10-14T12:37:31Z</time>
      </trkpt>
      <trkpt lat="48.72538" lon="2.47768">
        <ele>145.755</ele>
        <time>2018-10-14T12:37:36Z</time>
      </trkpt>
      <trkpt lat="48.72536" lon="2.47762">
        <ele>145.782</ele>
        <time>2018-10-14T12:37:40Z</time>
      </trkpt>
      <trkpt lat="48.72534" lon="2.47754">
        <ele>145.8</ele>
        <time>2018-10-14T12:37:43Z</time>
      </trkpt>
      <trkpt lat="48.72534" lon="2.4775">
        <ele>145.811</ele>
        <time>2018-10-14T12:37:45Z</time>
      </trkpt>
      <trkpt lat="48.72529" lon="2.47744">
        <ele>145.829</ele>
        <time>2018-10-14T12:37:48Z</time>
      </trkpt>
      <trkpt lat="48.72529" lon="2.47737">
        <ele>145.857</ele>
        <time>2018-10-14T12:37:53Z</time>
      </trkpt>
      <trkpt lat="48.72528" lon="2.47731">
        <ele>145.873</ele>
        <time>2018-10-14T12:37:56Z</time>
      </trkpt>
      <trkpt lat="48.72528" lon="2.47727">
        <ele>145.888</ele>
        <time>2018-10-14T12:37:59Z</time>
      </trkpt>
      <trkpt lat="48.72528" lon="2.47721">
        <ele>145.899</ele>
        <time>2018-10-14T12:38:02Z</time>
      </trkpt>
      <trkpt lat="48.72528" lon="2.47713">
        <ele>145.909</ele>
        <time>2018-10-14T12:38:05Z</time>
      </trkpt>
      <trkpt lat="48.72526" lon="2.47705">
        <ele>145.923</ele>
        <time>2018-10-14T12:38:09Z</time>
      </trkpt>
      <trkpt lat="48.72526" lon="2.47701">
        <ele>145.935</ele>
        <time>2018-10-14T12:38:12Z</time>
      </trkpt>
      <trkpt lat="48.72524" lon="2.47695">
        <ele>145.969</ele>
        <time>2018-10-14T12:38:19Z</time>
      </trkpt>
      <trkpt lat="48.72522" lon="2.47687">
        <ele>145.995</ele>
        <time>2018-10-14T12:38:24Z</time>
      </trkpt>
      <trkpt lat="48.72521" lon="2.47679">
        <ele>146.021</ele>
        <time>2018-10-14T12:38:29Z</time>
      </trkpt>
      <trkpt lat="48.72519" lon="2.47672">
        <ele>146.039</ele>
        <time>2018-10-14T12:38:33Z</time>
      </trkpt>
      <trkpt lat="48.72519" lon="2.47665">
        <ele>146.055</ele>
        <time>2018-10-14T12:38:37Z</time>
      </trkpt>
      <trkpt lat="48.72518" lon="2.4766">
        <ele>146.068</ele>
        <time>2018-10-14T12:38:40Z</time>
      </trkpt>
      <trkpt lat="48.72516" lon="2.47654">
        <ele>146.081</ele>
        <time>2018-10-14T12:38:44Z</time>
      </trkpt>
      <trkpt lat="48.72514" lon="2.47647">
        <ele>146.094</ele>
        <time>2018-10-14T12:38:48Z</time>
      </trkpt>
      <trkpt lat="48.72514" lon="2.47647">
        <ele>146.094</ele>
        <time>2018-10-14T12:38:56Z</time>
      </trkpt>
      <trkpt lat="48.72514" lon="2.47647">
        <ele>86.5</ele>
        <time>2018-10-14T12:38:56Z</time>
      </trkpt>
      <trkpt lat="48.72514" lon="2.47647">
        <ele>86.5</ele>
        <time>2018-10-14T12:39:08Z</time>
      </trkpt>
      <trkpt lat="48.7253" lon="2.47642">
        <ele>146.176</ele>
        <time>2018-10-14T12:39:08Z</time>
      </trkpt>
      <trkpt lat="48.72535" lon="2.47643">
        <ele>146.195</ele>
        <time>2018-10-14T12:39:11Z</time>
      </trkpt>
      <trkpt lat="48.72535" lon="2.47643">
        <ele>86</ele>
        <time>2018-10-14T12:39:18Z</time>
      </trkpt>
      <trkpt lat="48.72535" lon="2.47643">
        <ele>86</ele>
        <time>2018-10-14T12:39:22Z</time>
      </trkpt>
      <trkpt lat="48.72544" lon="2.47648">
        <ele>146.242</ele>
        <time>2018-10-14T12:39:22Z</time>
      </trkpt>
      <trkpt lat="48.72546" lon="2.4765">
        <ele>146.264</ele>
        <time>2018-10-14T12:39:26Z</time>
      </trkpt>
      <trkpt lat="48.72546" lon="2.4765">
        <ele>86</ele>
        <time>2018-10-14T12:39:31Z</time>
      </trkpt>
      <trkpt lat="48.72546" lon="2.4765">
        <ele>86</ele>
        <time>2018-10-14T12:39:36Z</time>
      </trkpt>
      <trkpt lat="48.72554" lon="2.47654">
        <ele>146.314</ele>
        <time>2018-10-14T12:39:36Z</time>
      </trkpt>
      <trkpt lat="48.72558" lon="2.47657">
        <ele>146.333</ele>
        <time>2018-10-14T12:39:40Z</time>
      </trkpt>
      <trkpt lat="48.72563" lon="2.47656">
        <ele>146.35</ele>
        <time>2018-10-14T12:39:44Z</time>
      </trkpt>
      <trkpt lat="48.72568" lon="2.47653">
        <ele>146.357</ele>
        <time>2018-10-14T12:39:46Z</time>
      </trkpt>
      <trkpt lat="48.72571" lon="2.47651">
        <ele>146.368</ele>
        <time>2018-10-14T12:39:49Z</time>
      </trkpt>
      <trkpt lat="48.72571" lon="2.47651">
        <ele>86</ele>
        <time>2018-10-14T12:39:54Z</time>
      </trkpt>
      <trkpt lat="48.72571" lon="2.47651">
        <ele>86</ele>
        <time>2018-10-14T12:39:59Z</time>
      </trkpt>
      <trkpt lat="48.72582" lon="2.47651">
        <ele>146.417</ele>
        <time>2018-10-14T12:39:59Z</time>
      </trkpt>
      <trkpt lat="48.72586" lon="2.47655">
        <ele>146.437</ele>
        <time>2018-10-14T12:40:03Z</time>
      </trkpt>
      <trkpt lat="48.72591" lon="2.47655">
        <ele>146.455</ele>
        <time>2018-10-14T12:40:07Z</time>
      </trkpt>
      <trkpt lat="48.72596" lon="2.47652">
        <ele>146.472</ele>
        <time>2018-10-14T12:40:11Z</time>
      </trkpt>
      <trkpt lat="48.72599" lon="2.4765">
        <ele>146.48</ele>
        <time>2018-10-14T12:40:13Z</time>
      </trkpt>
      <trkpt lat="48.72604" lon="2.47648">
        <ele>146.499</ele>
        <time>2018-10-14T12:40:18Z</time>
      </trkpt>
      <trkpt lat="48.72609" lon="2.47649">
        <ele>146.524</ele>
        <time>2018-10-14T12:40:25Z</time>
      </trkpt>
      <trkpt lat="48.72615" lon="2.47646">
        <ele>146.534</ele>
        <time>2018-10-14T12:40:29Z</time>
      </trkpt>
      <trkpt lat="48.7262" lon="2.47642">
        <ele>146.542</ele>
        <time>2018-10-14T12:40:33Z</time>
      </trkpt>
      <trkpt lat="48.72624" lon="2.47642">
        <ele>146.545</ele>
        <time>2018-10-14T12:40:37Z</time>
      </trkpt>
      <trkpt lat="48.72629" lon="2.47644">
        <ele>146.543</ele>
        <time>2018-10-14T12:40:40Z</time>
      </trkpt>
      <trkpt lat="48.72634" lon="2.47644">
        <ele>146.534</ele>
        <time>2018-10-14T12:40:45Z</time>
      </trkpt>
      <trkpt lat="48.7264" lon="2.47641">
        <ele>146.52</ele>
        <time>2018-10-14T12:40:50Z</time>
      </trkpt>
      <trkpt lat="48.72643" lon="2.4764">
        <ele>146.51</ele>
        <time>2018-10-14T12:40:53Z</time>
      </trkpt>
      <trkpt lat="48.72648" lon="2.47639">
        <ele>146.501</ele>
        <time>2018-10-14T12:40:56Z</time>
      </trkpt>
      <trkpt lat="48.72653" lon="2.47643">
        <ele>146.491</ele>
        <time>2018-10-14T12:40:59Z</time>
      </trkpt>
      <trkpt lat="48.72656" lon="2.47648">
        <ele>146.474</ele>
        <time>2018-10-14T12:41:04Z</time>
      </trkpt>
      <trkpt lat="48.72661" lon="2.4765">
        <ele>146.458</ele>
        <time>2018-10-14T12:41:09Z</time>
      </trkpt>
      <trkpt lat="48.72665" lon="2.47652">
        <ele>146.449</ele>
        <time>2018-10-14T12:41:12Z</time>
      </trkpt>
      <trkpt lat="48.72672" lon="2.47651">
        <ele>146.436</ele>
        <time>2018-10-14T12:41:18Z</time>
      </trkpt>
      <trkpt lat="48.72678" lon="2.4765">
        <ele>146.429</ele>
        <time>2018-10-14T12:41:21Z</time>
      </trkpt>
      <trkpt lat="48.7268" lon="2.47649">
        <ele>146.427</ele>
        <time>2018-10-14T12:41:22Z</time>
      </trkpt>
      <trkpt lat="48.72686" lon="2.47647">
        <ele>146.421</ele>
        <time>2018-10-14T12:41:25Z</time>
      </trkpt>
      <trkpt lat="48.7269" lon="2.47643">
        <ele>146.412</ele>
        <time>2018-10-14T12:41:29Z</time>
      </trkpt>
      <trkpt lat="48.72693" lon="2.47642">
        <ele>146.405</ele>
        <time>2018-10-14T12:41:32Z</time>
      </trkpt>
      <trkpt lat="48.72698" lon="2.47639">
        <ele>146.397</ele>
        <time>2018-10-14T12:41:37Z</time>
      </trkpt>
      <trkpt lat="48.72703" lon="2.47637">
        <ele>146.394</ele>
        <time>2018-10-14T12:41:40Z</time>
      </trkpt>
      <trkpt lat="48.72708" lon="2.47638">
        <ele>146.392</ele>
        <time>2018-10-14T12:41:44Z</time>
      </trkpt>
      <trkpt lat="48.72713" lon="2.47638">
        <ele>146.393</ele>
        <time>2018-10-14T12:41:47Z</time>
      </trkpt>
      <trkpt lat="48.72717" lon="2.47634">
        <ele>146.394</ele>
        <time>2018-10-14T12:41:50Z</time>
      </trkpt>
      <trkpt lat="48.7272" lon="2.47628">
        <ele>146.395</ele>
        <time>2018-10-14T12:41:54Z</time>
      </trkpt>
      <trkpt lat="48.72721" lon="2.47621">
        <ele>146.393</ele>
        <time>2018-10-14T12:41:58Z</time>
      </trkpt>
      <trkpt lat="48.72723" lon="2.47613">
        <ele>146.389</ele>
        <time>2018-10-14T12:42:01Z</time>
      </trkpt>
      <trkpt lat="48.72724" lon="2.47606">
        <ele>146.384</ele>
        <time>2018-10-14T12:42:03Z</time>
      </trkpt>
      <trkpt lat="48.72724" lon="2.47599">
        <ele>146.366</ele>
        <time>2018-10-14T12:42:08Z</time>
      </trkpt>
      <trkpt lat="48.72723" lon="2.4759">
        <ele>146.355</ele>
        <time>2018-10-14T12:42:11Z</time>
      </trkpt>
      <trkpt lat="48.72723" lon="2.47585">
        <ele>146.347</ele>
        <time>2018-10-14T12:42:13Z</time>
      </trkpt>
      <trkpt lat="48.72723" lon="2.47581">
        <ele>146.336</ele>
        <time>2018-10-14T12:42:16Z</time>
      </trkpt>
      <trkpt lat="48.72726" lon="2.47574">
        <ele>146.313</ele>
        <time>2018-10-14T12:42:22Z</time>
      </trkpt>
      <trkpt lat="48.72729" lon="2.47569">
        <ele>146.297</ele>
        <time>2018-10-14T12:42:27Z</time>
      </trkpt>
      <trkpt lat="48.72731" lon="2.47566">
        <ele>146.284</ele>
        <time>2018-10-14T12:42:31Z</time>
      </trkpt>
      <trkpt lat="48.72736" lon="2.47562">
        <ele>146.273</ele>
        <time>2018-10-14T12:42:35Z</time>
      </trkpt>
      <trkpt lat="48.72738" lon="2.4756">
        <ele>146.265</ele>
        <time>2018-10-14T12:42:38Z</time>
      </trkpt>
      <trkpt lat="48.72743" lon="2.47557">
        <ele>146.253</ele>
        <time>2018-10-14T12:42:43Z</time>
      </trkpt>
      <trkpt lat="48.72747" lon="2.4755">
        <ele>146.243</ele>
        <time>2018-10-14T12:42:46Z</time>
      </trkpt>
      <trkpt lat="48.72749" lon="2.47544">
        <ele>146.228</ele>
        <time>2018-10-14T12:42:50Z</time>
      </trkpt>
      <trkpt lat="48.72754" lon="2.47541">
        <ele>146.209</ele>
        <time>2018-10-14T12:42:55Z</time>
      </trkpt>
      <trkpt lat="48.72759" lon="2.47543">
        <ele>146.193</ele>
        <time>2018-10-14T12:42:59Z</time>
      </trkpt>
      <trkpt lat="48.72764" lon="2.4754">
        <ele>146.174</ele>
        <time>2018-10-14T12:43:05Z</time>
      </trkpt>
      <trkpt lat="48.72767" lon="2.47539">
        <ele>146.163</ele>
        <time>2018-10-14T12:43:08Z</time>
      </trkpt>
      <trkpt lat="48.72771" lon="2.47533">
        <ele>146.139</ele>
        <time>2018-10-14T12:43:12Z</time>
      </trkpt>
      <trkpt lat="48.72772" lon="2.47525">
        <ele>146.115</ele>
        <time>2018-10-14T12:43:15Z</time>
      </trkpt>
      <trkpt lat="48.72773" lon="2.47522">
        <ele>146.1</ele>
        <time>2018-10-14T12:43:17Z</time>
      </trkpt>
      <trkpt lat="48.72773" lon="2.47518">
        <ele>146.083</ele>
        <time>2018-10-14T12:43:19Z</time>
      </trkpt>
      <trkpt lat="48.72773" lon="2.47518">
        <ele>87.8</ele>
        <time>2018-10-14T12:43:27Z</time>
      </trkpt>
      <trkpt lat="48.72773" lon="2.47518">
        <ele>87.8</ele>
        <time>2018-10-14T12:43:31Z</time>
      </trkpt>
      <trkpt lat="48.72776" lon="2.47507">
        <ele>145.997</ele>
        <time>2018-10-14T12:43:31Z</time>
      </trkpt>
      <trkpt lat="48.72776" lon="2.475">
        <ele>145.97</ele>
        <time>2018-10-14T12:43:35Z</time>
      </trkpt>
      <trkpt lat="48.72777" lon="2.47492">
        <ele>145.935</ele>
        <time>2018-10-14T12:43:40Z</time>
      </trkpt>
      <trkpt lat="48.72777" lon="2.47482">
        <ele>145.897</ele>
        <time>2018-10-14T12:43:45Z</time>
      </trkpt>
      <trkpt lat="48.72778" lon="2.47475">
        <ele>145.871</ele>
        <time>2018-10-14T12:43:49Z</time>
      </trkpt>
      <trkpt lat="48.72778" lon="2.47467">
        <ele>145.846</ele>
        <time>2018-10-14T12:43:53Z</time>
      </trkpt>
      <trkpt lat="48.72778" lon="2.47459">
        <ele>145.812</ele>
        <time>2018-10-14T12:43:58Z</time>
      </trkpt>
      <trkpt lat="48.72778" lon="2.47451">
        <ele>145.785</ele>
        <time>2018-10-14T12:44:02Z</time>
      </trkpt>
      <trkpt lat="48.72777" lon="2.47445">
        <ele>145.772</ele>
        <time>2018-10-14T12:44:04Z</time>
      </trkpt>
      <trkpt lat="48.72777" lon="2.4744">
        <ele>145.759</ele>
        <time>2018-10-14T12:44:06Z</time>
      </trkpt>
      <trkpt lat="48.72776" lon="2.47431">
        <ele>145.732</ele>
        <time>2018-10-14T12:44:10Z</time>
      </trkpt>
      <trkpt lat="48.72774" lon="2.47424">
        <ele>145.699</ele>
        <time>2018-10-14T12:44:15Z</time>
      </trkpt>
      <trkpt lat="48.72772" lon="2.47415">
        <ele>145.67</ele>
        <time>2018-10-14T12:44:19Z</time>
      </trkpt>
      <trkpt lat="48.72772" lon="2.47412">
        <ele>145.653</ele>
        <time>2018-10-14T12:44:21Z</time>
      </trkpt>
      <trkpt lat="48.72771" lon="2.47407">
        <ele>145.626</ele>
        <time>2018-10-14T12:44:24Z</time>
      </trkpt>
      <trkpt lat="48.7277" lon="2.47402">
        <ele>145.598</ele>
        <time>2018-10-14T12:44:27Z</time>
      </trkpt>
      <trkpt lat="48.72769" lon="2.47396">
        <ele>145.58</ele>
        <time>2018-10-14T12:44:29Z</time>
      </trkpt>
      <trkpt lat="48.72768" lon="2.47389">
        <ele>145.544</ele>
        <time>2018-10-14T12:44:33Z</time>
      </trkpt>
      <trkpt lat="48.72767" lon="2.47384">
        <ele>145.525</ele>
        <time>2018-10-14T12:44:35Z</time>
      </trkpt>
      <trkpt lat="48.72768" lon="2.47377">
        <ele>145.484</ele>
        <time>2018-10-14T12:44:39Z</time>
      </trkpt>
      <trkpt lat="48.72768" lon="2.47373">
        <ele>145.462</ele>
        <time>2018-10-14T12:44:41Z</time>
      </trkpt>
      <trkpt lat="48.72767" lon="2.47366">
        <ele>145.426</ele>
        <time>2018-10-14T12:44:44Z</time>
      </trkpt>
      <trkpt lat="48.72767" lon="2.4736">
        <ele>145.388</ele>
        <time>2018-10-14T12:44:47Z</time>
      </trkpt>
      <trkpt lat="48.72767" lon="2.47357">
        <ele>145.363</ele>
        <time>2018-10-14T12:44:49Z</time>
      </trkpt>
      <trkpt lat="48.72767" lon="2.47352">
        <ele>145.338</ele>
        <time>2018-10-14T12:44:51Z</time>
      </trkpt>
      <trkpt lat="48.72766" lon="2.47346">
        <ele>145.291</ele>
        <time>2018-10-14T12:44:55Z</time>
      </trkpt>
      <trkpt lat="48.72765" lon="2.47339">
        <ele>145.258</ele>
        <time>2018-10-14T12:44:58Z</time>
      </trkpt>
      <trkpt lat="48.72765" lon="2.47332">
        <ele>145.219</ele>
        <time>2018-10-14T12:45:02Z</time>
      </trkpt>
      <trkpt lat="48.72766" lon="2.47327">
        <ele>145.193</ele>
        <time>2018-10-14T12:45:05Z</time>
      </trkpt>
      <trkpt lat="48.72765" lon="2.47319">
        <ele>145.157</ele>
        <time>2018-10-14T12:45:09Z</time>
      </trkpt>
      <trkpt lat="48.72765" lon="2.47316">
        <ele>145.138</ele>
        <time>2018-10-14T12:45:11Z</time>
      </trkpt>
      <trkpt lat="48.72765" lon="2.47312">
        <ele>145.119</ele>
        <time>2018-10-14T12:45:13Z</time>
      </trkpt>
      <trkpt lat="48.72764" lon="2.47306">
        <ele>145.099</ele>
        <time>2018-10-14T12:45:15Z</time>
      </trkpt>
      <trkpt lat="48.72764" lon="2.47301">
        <ele>145.079</ele>
        <time>2018-10-14T12:45:17Z</time>
      </trkpt>
      <trkpt lat="48.72763" lon="2.47296">
        <ele>145.059</ele>
        <time>2018-10-14T12:45:19Z</time>
      </trkpt>
      <trkpt lat="48.72763" lon="2.47293">
        <ele>145.038</ele>
        <time>2018-10-14T12:45:21Z</time>
      </trkpt>
      <trkpt lat="48.72759" lon="2.47287">
        <ele>144.983</ele>
        <time>2018-10-14T12:45:26Z</time>
      </trkpt>
      <trkpt lat="48.72759" lon="2.47287">
        <ele>144.983</ele>
        <time>2018-10-14T12:45:33Z</time>
      </trkpt>
      <trkpt lat="48.72759" lon="2.47287">
        <ele>86.5</ele>
        <time>2018-10-14T12:45:33Z</time>
      </trkpt>
      <trkpt lat="48.72759" lon="2.47287">
        <ele>86.5</ele>
        <time>2018-10-14T12:46:14Z</time>
      </trkpt>
      <trkpt lat="48.72753" lon="2.47244">
        <ele>144.7</ele>
        <time>2018-10-14T12:46:14Z</time>
      </trkpt>
      <trkpt lat="48.72754" lon="2.47238">
        <ele>144.676</ele>
        <time>2018-10-14T12:46:18Z</time>
      </trkpt>
      <trkpt lat="48.72754" lon="2.47234">
        <ele>144.656</ele>
        <time>2018-10-14T12:46:21Z</time>
      </trkpt>
      <trkpt lat="48.72754" lon="2.47226">
        <ele>144.623</ele>
        <time>2018-10-14T12:46:26Z</time>
      </trkpt>
      <trkpt lat="48.72754" lon="2.47222">
        <ele>144.609</ele>
        <time>2018-10-14T12:46:28Z</time>
      </trkpt>
      <trkpt lat="48.72754" lon="2.47215">
        <ele>144.577</ele>
        <time>2018-10-14T12:46:32Z</time>
      </trkpt>
      <trkpt lat="48.72754" lon="2.47208">
        <ele>144.542</ele>
        <time>2018-10-14T12:46:36Z</time>
      </trkpt>
      <trkpt lat="48.72753" lon="2.47203">
        <ele>144.515</ele>
        <time>2018-10-14T12:46:39Z</time>
      </trkpt>
      <trkpt lat="48.72753" lon="2.47196">
        <ele>144.478</ele>
        <time>2018-10-14T12:46:43Z</time>
      </trkpt>
      <trkpt lat="48.72753" lon="2.47192">
        <ele>144.448</ele>
        <time>2018-10-14T12:46:46Z</time>
      </trkpt>
      <trkpt lat="48.72754" lon="2.47184">
        <ele>144.39</ele>
        <time>2018-10-14T12:46:52Z</time>
      </trkpt>
      <trkpt lat="48.72755" lon="2.47177">
        <ele>144.348</ele>
        <time>2018-10-14T12:46:56Z</time>
      </trkpt>
      <trkpt lat="48.72754" lon="2.47172">
        <ele>144.316</ele>
        <time>2018-10-14T12:46:59Z</time>
      </trkpt>
      <trkpt lat="48.72754" lon="2.47165">
        <ele>144.271</ele>
        <time>2018-10-14T12:47:03Z</time>
      </trkpt>
      <trkpt lat="48.72753" lon="2.47156">
        <ele>144.225</ele>
        <time>2018-10-14T12:47:07Z</time>
      </trkpt>
      <trkpt lat="48.72752" lon="2.47151">
        <ele>144.202</ele>
        <time>2018-10-14T12:47:09Z</time>
      </trkpt>
      <trkpt lat="48.72751" lon="2.47145">
        <ele>144.169</ele>
        <time>2018-10-14T12:47:12Z</time>
      </trkpt>
      <trkpt lat="48.72749" lon="2.47138">
        <ele>144.117</ele>
        <time>2018-10-14T12:47:17Z</time>
      </trkpt>
      <trkpt lat="48.72748" lon="2.47133">
        <ele>144.076</ele>
        <time>2018-10-14T12:47:21Z</time>
      </trkpt>
      <trkpt lat="48.72746" lon="2.47128">
        <ele>144.047</ele>
        <time>2018-10-14T12:47:24Z</time>
      </trkpt>
      <trkpt lat="48.72741" lon="2.47124">
        <ele>144.01</ele>
        <time>2018-10-14T12:47:28Z</time>
      </trkpt>
      <trkpt lat="48.72737" lon="2.47117">
        <ele>143.983</ele>
        <time>2018-10-14T12:47:31Z</time>
      </trkpt>
      <trkpt lat="48.72735" lon="2.47113">
        <ele>143.966</ele>
        <time>2018-10-14T12:47:33Z</time>
      </trkpt>
      <trkpt lat="48.72733" lon="2.47106">
        <ele>143.925</ele>
        <time>2018-10-14T12:47:38Z</time>
      </trkpt>
      <trkpt lat="48.72732" lon="2.47103">
        <ele>143.909</ele>
        <time>2018-10-14T12:47:40Z</time>
      </trkpt>
      <trkpt lat="48.72732" lon="2.471">
        <ele>143.894</ele>
        <time>2018-10-14T12:47:42Z</time>
      </trkpt>
      <trkpt lat="48.72728" lon="2.47093">
        <ele>143.857</ele>
        <time>2018-10-14T12:47:47Z</time>
      </trkpt>
      <trkpt lat="48.72726" lon="2.47086">
        <ele>143.83</ele>
        <time>2018-10-14T12:47:51Z</time>
      </trkpt>
      <trkpt lat="48.72724" lon="2.47083">
        <ele>143.81</ele>
        <time>2018-10-14T12:47:54Z</time>
      </trkpt>
      <trkpt lat="48.72723" lon="2.47079">
        <ele>143.791</ele>
        <time>2018-10-14T12:47:57Z</time>
      </trkpt>
      <trkpt lat="48.7272" lon="2.47071">
        <ele>143.767</ele>
        <time>2018-10-14T12:48:01Z</time>
      </trkpt>
      <trkpt lat="48.72719" lon="2.47067">
        <ele>143.755</ele>
        <time>2018-10-14T12:48:03Z</time>
      </trkpt>
      <trkpt lat="48.72717" lon="2.4706">
        <ele>143.73</ele>
        <time>2018-10-14T12:48:07Z</time>
      </trkpt>
      <trkpt lat="48.72714" lon="2.47055">
        <ele>143.703</ele>
        <time>2018-10-14T12:48:11Z</time>
      </trkpt>
      <trkpt lat="48.72712" lon="2.47051">
        <ele>143.681</ele>
        <time>2018-10-14T12:48:14Z</time>
      </trkpt>
      <trkpt lat="48.7271" lon="2.47043">
        <ele>143.652</ele>
        <time>2018-10-14T12:48:18Z</time>
      </trkpt>
      <trkpt lat="48.72709" lon="2.47037">
        <ele>143.621</ele>
        <time>2018-10-14T12:48:22Z</time>
      </trkpt>
      <trkpt lat="48.72708" lon="2.47033">
        <ele>143.605</ele>
        <time>2018-10-14T12:48:24Z</time>
      </trkpt>
      <trkpt lat="48.72705" lon="2.47026">
        <ele>143.566</ele>
        <time>2018-10-14T12:48:29Z</time>
      </trkpt>
      <trkpt lat="48.72701" lon="2.4702">
        <ele>143.53</ele>
        <time>2018-10-14T12:48:34Z</time>
      </trkpt>
      <trkpt lat="48.72699" lon="2.47013">
        <ele>143.503</ele>
        <time>2018-10-14T12:48:38Z</time>
      </trkpt>
      <trkpt lat="48.72699" lon="2.47006">
        <ele>143.485</ele>
        <time>2018-10-14T12:48:41Z</time>
      </trkpt>
      <trkpt lat="48.72698" lon="2.47">
        <ele>143.468</ele>
        <time>2018-10-14T12:48:44Z</time>
      </trkpt>
      <trkpt lat="48.72697" lon="2.46991">
        <ele>143.44</ele>
        <time>2018-10-14T12:48:49Z</time>
      </trkpt>
      <trkpt lat="48.72696" lon="2.46984">
        <ele>143.423</ele>
        <time>2018-10-14T12:48:52Z</time>
      </trkpt>
      <trkpt lat="48.72696" lon="2.46979">
        <ele>143.411</ele>
        <time>2018-10-14T12:48:54Z</time>
      </trkpt>
      <trkpt lat="48.72695" lon="2.46975">
        <ele>143.399</ele>
        <time>2018-10-14T12:48:56Z</time>
      </trkpt>
      <trkpt lat="48.72692" lon="2.46966">
        <ele>143.37</ele>
        <time>2018-10-14T12:49:01Z</time>
      </trkpt>
      <trkpt lat="48.7269" lon="2.4696">
        <ele>143.343</ele>
        <time>2018-10-14T12:49:06Z</time>
      </trkpt>
      <trkpt lat="48.7269" lon="2.46952">
        <ele>143.329</ele>
        <time>2018-10-14T12:49:09Z</time>
      </trkpt>
      <trkpt lat="48.72688" lon="2.46945">
        <ele>143.311</ele>
        <time>2018-10-14T12:49:13Z</time>
      </trkpt>
      <trkpt lat="48.72688" lon="2.46941">
        <ele>143.298</ele>
        <time>2018-10-14T12:49:16Z</time>
      </trkpt>
      <trkpt lat="48.72687" lon="2.46933">
        <ele>143.285</ele>
        <time>2018-10-14T12:49:19Z</time>
      </trkpt>
      <trkpt lat="48.72685" lon="2.46926">
        <ele>143.272</ele>
        <time>2018-10-14T12:49:22Z</time>
      </trkpt>
      <trkpt lat="48.72684" lon="2.46921">
        <ele>143.256</ele>
        <time>2018-10-14T12:49:26Z</time>
      </trkpt>
      <trkpt lat="48.72682" lon="2.46912">
        <ele>143.24</ele>
        <time>2018-10-14T12:49:31Z</time>
      </trkpt>
      <trkpt lat="48.7268" lon="2.46906">
        <ele>143.224</ele>
        <time>2018-10-14T12:49:36Z</time>
      </trkpt>
      <trkpt lat="48.72679" lon="2.46898">
        <ele>143.208</ele>
        <time>2018-10-14T12:49:41Z</time>
      </trkpt>
      <trkpt lat="48.72676" lon="2.46891">
        <ele>143.197</ele>
        <time>2018-10-14T12:49:44Z</time>
      </trkpt>
      <trkpt lat="48.72676" lon="2.46884">
        <ele>143.186</ele>
        <time>2018-10-14T12:49:47Z</time>
      </trkpt>
      <trkpt lat="48.72675" lon="2.46879">
        <ele>143.175</ele>
        <time>2018-10-14T12:49:50Z</time>
      </trkpt>
      <trkpt lat="48.72675" lon="2.46875">
        <ele>143.167</ele>
        <time>2018-10-14T12:49:52Z</time>
      </trkpt>
      <trkpt lat="48.72673" lon="2.46864">
        <ele>143.152</ele>
        <time>2018-10-14T12:49:57Z</time>
      </trkpt>
      <trkpt lat="48.72672" lon="2.46857">
        <ele>143.145</ele>
        <time>2018-10-14T12:50:00Z</time>
      </trkpt>
      <trkpt lat="48.72669" lon="2.4685">
        <ele>143.14</ele>
        <time>2018-10-14T12:50:05Z</time>
      </trkpt>
      <trkpt lat="48.72667" lon="2.46843">
        <ele>143.141</ele>
        <time>2018-10-14T12:50:10Z</time>
      </trkpt>
      <trkpt lat="48.72667" lon="2.46835">
        <ele>143.146</ele>
        <time>2018-10-14T12:50:15Z</time>
      </trkpt>
      <trkpt lat="48.72668" lon="2.46831">
        <ele>143.148</ele>
        <time>2018-10-14T12:50:17Z</time>
      </trkpt>
      <trkpt lat="48.72668" lon="2.46824">
        <ele>143.153</ele>
        <time>2018-10-14T12:50:20Z</time>
      </trkpt>
      <trkpt lat="48.72666" lon="2.46815">
        <ele>143.161</ele>
        <time>2018-10-14T12:50:24Z</time>
      </trkpt>
      <trkpt lat="48.72665" lon="2.46807">
        <ele>143.169</ele>
        <time>2018-10-14T12:50:27Z</time>
      </trkpt>
      <trkpt lat="48.72665" lon="2.46804">
        <ele>143.176</ele>
        <time>2018-10-14T12:50:29Z</time>
      </trkpt>
      <trkpt lat="48.72664" lon="2.46798">
        <ele>143.186</ele>
        <time>2018-10-14T12:50:32Z</time>
      </trkpt>
      <trkpt lat="48.72663" lon="2.4679">
        <ele>143.2</ele>
        <time>2018-10-14T12:50:36Z</time>
      </trkpt>
      <trkpt lat="48.72664" lon="2.46783">
        <ele>143.214</ele>
        <time>2018-10-14T12:50:40Z</time>
      </trkpt>
      <trkpt lat="48.72667" lon="2.46776">
        <ele>143.228</ele>
        <time>2018-10-14T12:50:45Z</time>
      </trkpt>
      <trkpt lat="48.72669" lon="2.46769">
        <ele>143.234</ele>
        <time>2018-10-14T12:50:49Z</time>
      </trkpt>
      <trkpt lat="48.7267" lon="2.46761">
        <ele>143.235</ele>
        <time>2018-10-14T12:50:53Z</time>
      </trkpt>
      <trkpt lat="48.7267" lon="2.46758">
        <ele>143.233</ele>
        <time>2018-10-14T12:50:55Z</time>
      </trkpt>
      <trkpt lat="48.72672" lon="2.4675">
        <ele>143.229</ele>
        <time>2018-10-14T12:50:58Z</time>
      </trkpt>
      <trkpt lat="48.72673" lon="2.46746">
        <ele>143.225</ele>
        <time>2018-10-14T12:51:00Z</time>
      </trkpt>
      <trkpt lat="48.72674" lon="2.46739">
        <ele>143.217</ele>
        <time>2018-10-14T12:51:04Z</time>
      </trkpt>
      <trkpt lat="48.72671" lon="2.4673">
        <ele>143.209</ele>
        <time>2018-10-14T12:51:08Z</time>
      </trkpt>
      <trkpt lat="48.7267" lon="2.46726">
        <ele>143.206</ele>
        <time>2018-10-14T12:51:10Z</time>
      </trkpt>
      <trkpt lat="48.72668" lon="2.46721">
        <ele>143.201</ele>
        <time>2018-10-14T12:51:14Z</time>
      </trkpt>
      <trkpt lat="48.72667" lon="2.46713">
        <ele>143.197</ele>
        <time>2018-10-14T12:51:18Z</time>
      </trkpt>
      <trkpt lat="48.72667" lon="2.46705">
        <ele>143.192</ele>
        <time>2018-10-14T12:51:22Z</time>
      </trkpt>
      <trkpt lat="48.72667" lon="2.46695">
        <ele>143.189</ele>
        <time>2018-10-14T12:51:27Z</time>
      </trkpt>
      <trkpt lat="48.72667" lon="2.46691">
        <ele>143.188</ele>
        <time>2018-10-14T12:51:29Z</time>
      </trkpt>
      <trkpt lat="48.72666" lon="2.46683">
        <ele>143.184</ele>
        <time>2018-10-14T12:51:33Z</time>
      </trkpt>
      <trkpt lat="48.72665" lon="2.46675">
        <ele>143.176</ele>
        <time>2018-10-14T12:51:37Z</time>
      </trkpt>
      <trkpt lat="48.72665" lon="2.46669">
        <ele>143.166</ele>
        <time>2018-10-14T12:51:40Z</time>
      </trkpt>
      <trkpt lat="48.72666" lon="2.46662">
        <ele>143.147</ele>
        <time>2018-10-14T12:51:44Z</time>
      </trkpt>
      <trkpt lat="48.72666" lon="2.46654">
        <ele>143.123</ele>
        <time>2018-10-14T12:51:48Z</time>
      </trkpt>
      <trkpt lat="48.72664" lon="2.46646">
        <ele>143.088</ele>
        <time>2018-10-14T12:51:53Z</time>
      </trkpt>
      <trkpt lat="48.72663" lon="2.46641">
        <ele>143.067</ele>
        <time>2018-10-14T12:51:56Z</time>
      </trkpt>
      <trkpt lat="48.72664" lon="2.46632">
        <ele>143.039</ele>
        <time>2018-10-14T12:52:00Z</time>
      </trkpt>
      <trkpt lat="48.72663" lon="2.46625">
        <ele>143.012</ele>
        <time>2018-10-14T12:52:04Z</time>
      </trkpt>
      <trkpt lat="48.72663" lon="2.46621">
        <ele>142.999</ele>
        <time>2018-10-14T12:52:06Z</time>
      </trkpt>
      <trkpt lat="48.72663" lon="2.46617">
        <ele>142.985</ele>
        <time>2018-10-14T12:52:08Z</time>
      </trkpt>
      <trkpt lat="48.72663" lon="2.46612">
        <ele>142.966</ele>
        <time>2018-10-14T12:52:11Z</time>
      </trkpt>
      <trkpt lat="48.72661" lon="2.46605">
        <ele>142.94</ele>
        <time>2018-10-14T12:52:15Z</time>
      </trkpt>
      <trkpt lat="48.7266" lon="2.46597">
        <ele>142.918</ele>
        <time>2018-10-14T12:52:18Z</time>
      </trkpt>
      <trkpt lat="48.72661" lon="2.4659">
        <ele>142.89</ele>
        <time>2018-10-14T12:52:22Z</time>
      </trkpt>
      <trkpt lat="48.7266" lon="2.46583">
        <ele>142.864</ele>
        <time>2018-10-14T12:52:26Z</time>
      </trkpt>
      <trkpt lat="48.72658" lon="2.46575">
        <ele>142.84</ele>
        <time>2018-10-14T12:52:30Z</time>
      </trkpt>
      <trkpt lat="48.72657" lon="2.4657">
        <ele>142.829</ele>
        <time>2018-10-14T12:52:32Z</time>
      </trkpt>
      <trkpt lat="48.72656" lon="2.46567">
        <ele>142.817</ele>
        <time>2018-10-14T12:52:34Z</time>
      </trkpt>
      <trkpt lat="48.72656" lon="2.46567">
        <ele>142.817</ele>
        <time>2018-10-14T12:52:39Z</time>
      </trkpt>
      <trkpt lat="48.72656" lon="2.46567">
        <ele>87.8</ele>
        <time>2018-10-14T12:52:39Z</time>
      </trkpt>
      <trkpt lat="48.72656" lon="2.46567">
        <ele>87.8</ele>
        <time>2018-10-14T12:52:45Z</time>
      </trkpt>
      <trkpt lat="48.72658" lon="2.46552">
        <ele>142.76</ele>
        <time>2018-10-14T12:52:45Z</time>
      </trkpt>
      <trkpt lat="48.72659" lon="2.46549">
        <ele>142.747</ele>
        <time>2018-10-14T12:52:48Z</time>
      </trkpt>
      <trkpt lat="48.72662" lon="2.46544">
        <ele>142.731</ele>
        <time>2018-10-14T12:52:52Z</time>
      </trkpt>
      <trkpt lat="48.72666" lon="2.4654">
        <ele>142.715</ele>
        <time>2018-10-14T12:52:56Z</time>
      </trkpt>
      <trkpt lat="48.72668" lon="2.46538">
        <ele>142.699</ele>
        <time>2018-10-14T12:53:00Z</time>
      </trkpt>
      <trkpt lat="48.72673" lon="2.46534">
        <ele>142.685</ele>
        <time>2018-10-14T12:53:04Z</time>
      </trkpt>
      <trkpt lat="48.72677" lon="2.4653">
        <ele>142.672</ele>
        <time>2018-10-14T12:53:08Z</time>
      </trkpt>
      <trkpt lat="48.72681" lon="2.46525">
        <ele>142.659</ele>
        <time>2018-10-14T12:53:12Z</time>
      </trkpt>
      <trkpt lat="48.72685" lon="2.46521">
        <ele>142.645</ele>
        <time>2018-10-14T12:53:16Z</time>
      </trkpt>
      <trkpt lat="48.7269" lon="2.46517">
        <ele>142.633</ele>
        <time>2018-10-14T12:53:20Z</time>
      </trkpt>
      <trkpt lat="48.72694" lon="2.46512">
        <ele>142.62</ele>
        <time>2018-10-14T12:53:25Z</time>
      </trkpt>
      <trkpt lat="48.72696" lon="2.46509">
        <ele>142.616</ele>
        <time>2018-10-14T12:53:27Z</time>
      </trkpt>
      <trkpt lat="48.72701" lon="2.46507">
        <ele>142.608</ele>
        <time>2018-10-14T12:53:31Z</time>
      </trkpt>
      <trkpt lat="48.72704" lon="2.46501">
        <ele>142.602</ele>
        <time>2018-10-14T12:53:35Z</time>
      </trkpt>
      <trkpt lat="48.72706" lon="2.46494">
        <ele>142.594</ele>
        <time>2018-10-14T12:53:40Z</time>
      </trkpt>
      <trkpt lat="48.72709" lon="2.46488">
        <ele>142.586</ele>
        <time>2018-10-14T12:53:44Z</time>
      </trkpt>
      <trkpt lat="48.72709" lon="2.4648">
        <ele>142.577</ele>
        <time>2018-10-14T12:53:48Z</time>
      </trkpt>
      <trkpt lat="48.72708" lon="2.46473">
        <ele>142.57</ele>
        <time>2018-10-14T12:53:52Z</time>
      </trkpt>
      <trkpt lat="48.72706" lon="2.46465">
        <ele>142.565</ele>
        <time>2018-10-14T12:53:56Z</time>
      </trkpt>
      <trkpt lat="48.72703" lon="2.46458">
        <ele>142.566</ele>
        <time>2018-10-14T12:54:01Z</time>
      </trkpt>
      <trkpt lat="48.72701" lon="2.46454">
        <ele>142.57</ele>
        <time>2018-10-14T12:54:04Z</time>
      </trkpt>
      <trkpt lat="48.72699" lon="2.46447">
        <ele>142.575</ele>
        <time>2018-10-14T12:54:07Z</time>
      </trkpt>
      <trkpt lat="48.72698" lon="2.46439">
        <ele>142.582</ele>
        <time>2018-10-14T12:54:10Z</time>
      </trkpt>
      <trkpt lat="48.72698" lon="2.46432">
        <ele>142.595</ele>
        <time>2018-10-14T12:54:14Z</time>
      </trkpt>
      <trkpt lat="48.72698" lon="2.46427">
        <ele>142.603</ele>
        <time>2018-10-14T12:54:17Z</time>
      </trkpt>
      <trkpt lat="48.72698" lon="2.46419">
        <ele>142.612</ele>
        <time>2018-10-14T12:54:21Z</time>
      </trkpt>
      <trkpt lat="48.727" lon="2.46412">
        <ele>142.616</ele>
        <time>2018-10-14T12:54:25Z</time>
      </trkpt>
      <trkpt lat="48.72703" lon="2.46406">
        <ele>142.617</ele>
        <time>2018-10-14T12:54:29Z</time>
      </trkpt>
      <trkpt lat="48.72704" lon="2.46402">
        <ele>142.616</ele>
        <time>2018-10-14T12:54:31Z</time>
      </trkpt>
      <trkpt lat="48.72706" lon="2.46399">
        <ele>142.615</ele>
        <time>2018-10-14T12:54:33Z</time>
      </trkpt>
      <trkpt lat="48.72707" lon="2.46395">
        <ele>142.612</ele>
        <time>2018-10-14T12:54:36Z</time>
      </trkpt>
      <trkpt lat="48.72711" lon="2.46391">
        <ele>142.607</ele>
        <time>2018-10-14T12:54:40Z</time>
      </trkpt>
      <trkpt lat="48.72715" lon="2.46386">
        <ele>142.599</ele>
        <time>2018-10-14T12:54:44Z</time>
      </trkpt>
      <trkpt lat="48.7272" lon="2.46381">
        <ele>142.59</ele>
        <time>2018-10-14T12:54:47Z</time>
      </trkpt>
      <trkpt lat="48.72724" lon="2.46376">
        <ele>142.576</ele>
        <time>2018-10-14T12:54:50Z</time>
      </trkpt>
      <trkpt lat="48.72728" lon="2.4637">
        <ele>142.552</ele>
        <time>2018-10-14T12:54:54Z</time>
      </trkpt>
      <trkpt lat="48.72732" lon="2.46363">
        <ele>142.527</ele>
        <time>2018-10-14T12:54:58Z</time>
      </trkpt>
      <trkpt lat="48.72735" lon="2.46359">
        <ele>142.515</ele>
        <time>2018-10-14T12:55:00Z</time>
      </trkpt>
      <trkpt lat="48.72736" lon="2.46357">
        <ele>142.497</ele>
        <time>2018-10-14T12:55:03Z</time>
      </trkpt>
      <trkpt lat="48.72739" lon="2.46354">
        <ele>142.48</ele>
        <time>2018-10-14T12:55:06Z</time>
      </trkpt>
      <trkpt lat="48.72741" lon="2.46348">
        <ele>142.464</ele>
        <time>2018-10-14T12:55:09Z</time>
      </trkpt>
      <trkpt lat="48.72742" lon="2.4634">
        <ele>142.437</ele>
        <time>2018-10-14T12:55:14Z</time>
      </trkpt>
      <trkpt lat="48.7274" lon="2.46333">
        <ele>142.414</ele>
        <time>2018-10-14T12:55:19Z</time>
      </trkpt>
      <trkpt lat="48.72736" lon="2.4633">
        <ele>142.398</ele>
        <time>2018-10-14T12:55:23Z</time>
      </trkpt>
      <trkpt lat="48.72731" lon="2.46328">
        <ele>142.386</ele>
        <time>2018-10-14T12:55:26Z</time>
      </trkpt>
      <trkpt lat="48.72728" lon="2.46326">
        <ele>142.374</ele>
        <time>2018-10-14T12:55:29Z</time>
      </trkpt>
      <trkpt lat="48.72723" lon="2.46325">
        <ele>142.361</ele>
        <time>2018-10-14T12:55:33Z</time>
      </trkpt>
      <trkpt lat="48.72718" lon="2.46324">
        <ele>142.347</ele>
        <time>2018-10-14T12:55:38Z</time>
      </trkpt>
      <trkpt lat="48.72715" lon="2.46323">
        <ele>142.342</ele>
        <time>2018-10-14T12:55:40Z</time>
      </trkpt>
      <trkpt lat="48.72712" lon="2.46323">
        <ele>142.338</ele>
        <time>2018-10-14T12:55:42Z</time>
      </trkpt>
      <trkpt lat="48.72709" lon="2.46323">
        <ele>142.332</ele>
        <time>2018-10-14T12:55:45Z</time>
      </trkpt>
      <trkpt lat="48.72704" lon="2.46323">
        <ele>142.325</ele>
        <time>2018-10-14T12:55:48Z</time>
      </trkpt>
      <trkpt lat="48.72699" lon="2.46321">
        <ele>142.318</ele>
        <time>2018-10-14T12:55:51Z</time>
      </trkpt>
      <trkpt lat="48.72694" lon="2.46319">
        <ele>142.312</ele>
        <time>2018-10-14T12:55:54Z</time>
      </trkpt>
      <trkpt lat="48.72692" lon="2.46318">
        <ele>142.305</ele>
        <time>2018-10-14T12:55:57Z</time>
      </trkpt>
      <trkpt lat="48.72687" lon="2.46317">
        <ele>142.297</ele>
        <time>2018-10-14T12:56:01Z</time>
      </trkpt>
      <trkpt lat="48.72683" lon="2.46317">
        <ele>142.293</ele>
        <time>2018-10-14T12:56:03Z</time>
      </trkpt>
      <trkpt lat="48.72681" lon="2.46317">
        <ele>142.29</ele>
        <time>2018-10-14T12:56:05Z</time>
      </trkpt>
      <trkpt lat="48.72676" lon="2.46315">
        <ele>142.286</ele>
        <time>2018-10-14T12:56:09Z</time>
      </trkpt>
      <trkpt lat="48.72673" lon="2.46314">
        <ele>142.284</ele>
        <time>2018-10-14T12:56:11Z</time>
      </trkpt>
      <trkpt lat="48.7267" lon="2.46313">
        <ele>142.283</ele>
        <time>2018-10-14T12:56:14Z</time>
      </trkpt>
      <trkpt lat="48.72666" lon="2.46311">
        <ele>142.283</ele>
        <time>2018-10-14T12:56:17Z</time>
      </trkpt>
      <trkpt lat="48.7266" lon="2.46309">
        <ele>142.284</ele>
        <time>2018-10-14T12:56:21Z</time>
      </trkpt>
      <trkpt lat="48.72657" lon="2.46308">
        <ele>142.284</ele>
        <time>2018-10-14T12:56:23Z</time>
      </trkpt>
      <trkpt lat="48.72654" lon="2.46306">
        <ele>142.284</ele>
        <time>2018-10-14T12:56:26Z</time>
      </trkpt>
      <trkpt lat="48.72649" lon="2.46303">
        <ele>142.287</ele>
        <time>2018-10-14T12:56:30Z</time>
      </trkpt>
      <trkpt lat="48.72647" lon="2.46301">
        <ele>142.289</ele>
        <time>2018-10-14T12:56:32Z</time>
      </trkpt>
      <trkpt lat="48.72643" lon="2.46299">
        <ele>142.291</ele>
        <time>2018-10-14T12:56:34Z</time>
      </trkpt>
      <trkpt lat="48.7264" lon="2.46297">
        <ele>142.293</ele>
        <time>2018-10-14T12:56:36Z</time>
      </trkpt>
      <trkpt lat="48.72637" lon="2.46295">
        <ele>142.294</ele>
        <time>2018-10-14T12:56:38Z</time>
      </trkpt>
      <trkpt lat="48.72631" lon="2.46291">
        <ele>142.296</ele>
        <time>2018-10-14T12:56:42Z</time>
      </trkpt>
      <trkpt lat="48.72629" lon="2.46289">
        <ele>142.295</ele>
        <time>2018-10-14T12:56:44Z</time>
      </trkpt>
      <trkpt lat="48.72625" lon="2.46284">
        <ele>142.294</ele>
        <time>2018-10-14T12:56:47Z</time>
      </trkpt>
      <trkpt lat="48.72622" lon="2.46278">
        <ele>142.294</ele>
        <time>2018-10-14T12:56:51Z</time>
      </trkpt>
      <trkpt lat="48.7262" lon="2.46272">
        <ele>142.296</ele>
        <time>2018-10-14T12:56:55Z</time>
      </trkpt>
      <trkpt lat="48.7262" lon="2.46264">
        <ele>142.299</ele>
        <time>2018-10-14T12:57:00Z</time>
      </trkpt>
      <trkpt lat="48.72621" lon="2.4626">
        <ele>142.301</ele>
        <time>2018-10-14T12:57:02Z</time>
      </trkpt>
      <trkpt lat="48.7262" lon="2.46251">
        <ele>142.304</ele>
        <time>2018-10-14T12:57:06Z</time>
      </trkpt>
      <trkpt lat="48.72619" lon="2.46245">
        <ele>142.305</ele>
        <time>2018-10-14T12:57:08Z</time>
      </trkpt>
      <trkpt lat="48.72619" lon="2.46237">
        <ele>142.308</ele>
        <time>2018-10-14T12:57:12Z</time>
      </trkpt>
      <trkpt lat="48.7262" lon="2.46229">
        <ele>142.311</ele>
        <time>2018-10-14T12:57:17Z</time>
      </trkpt>
      <trkpt lat="48.7262" lon="2.46221">
        <ele>142.312</ele>
        <time>2018-10-14T12:57:21Z</time>
      </trkpt>
      <trkpt lat="48.72619" lon="2.46214">
        <ele>142.313</ele>
        <time>2018-10-14T12:57:24Z</time>
      </trkpt>
      <trkpt lat="48.72619" lon="2.46209">
        <ele>142.314</ele>
        <time>2018-10-14T12:57:26Z</time>
      </trkpt>
      <trkpt lat="48.72618" lon="2.46202">
        <ele>142.316</ele>
        <time>2018-10-14T12:57:29Z</time>
      </trkpt>
      <trkpt lat="48.72618" lon="2.46194">
        <ele>142.32</ele>
        <time>2018-10-14T12:57:33Z</time>
      </trkpt>
      <trkpt lat="48.72617" lon="2.46189">
        <ele>142.322</ele>
        <time>2018-10-14T12:57:36Z</time>
      </trkpt>
      <trkpt lat="48.72617" lon="2.46184">
        <ele>142.322</ele>
        <time>2018-10-14T12:57:38Z</time>
      </trkpt>
      <trkpt lat="48.72617" lon="2.4618">
        <ele>142.321</ele>
        <time>2018-10-14T12:57:40Z</time>
      </trkpt>
      <trkpt lat="48.72617" lon="2.46175">
        <ele>142.32</ele>
        <time>2018-10-14T12:57:42Z</time>
      </trkpt>
      <trkpt lat="48.72617" lon="2.4617">
        <ele>142.317</ele>
        <time>2018-10-14T12:57:44Z</time>
      </trkpt>
      <trkpt lat="48.72617" lon="2.46165">
        <ele>142.316</ele>
        <time>2018-10-14T12:57:46Z</time>
      </trkpt>
      <trkpt lat="48.72616" lon="2.46159">
        <ele>142.313</ele>
        <time>2018-10-14T12:57:49Z</time>
      </trkpt>
      <trkpt lat="48.72616" lon="2.46149">
        <ele>142.314</ele>
        <time>2018-10-14T12:57:53Z</time>
      </trkpt>
      <trkpt lat="48.72616" lon="2.46142">
        <ele>142.319</ele>
        <time>2018-10-14T12:57:57Z</time>
      </trkpt>
      <trkpt lat="48.72615" lon="2.46137">
        <ele>142.325</ele>
        <time>2018-10-14T12:58:00Z</time>
      </trkpt>
      <trkpt lat="48.72615" lon="2.46132">
        <ele>142.331</ele>
        <time>2018-10-14T12:58:02Z</time>
      </trkpt>
      <trkpt lat="48.72615" lon="2.46128">
        <ele>142.337</ele>
        <time>2018-10-14T12:58:04Z</time>
      </trkpt>
      <trkpt lat="48.72614" lon="2.46124">
        <ele>142.344</ele>
        <time>2018-10-14T12:58:06Z</time>
      </trkpt>
      <trkpt lat="48.72614" lon="2.4612">
        <ele>142.352</ele>
        <time>2018-10-14T12:58:08Z</time>
      </trkpt>
      <trkpt lat="48.72613" lon="2.46116">
        <ele>142.361</ele>
        <time>2018-10-14T12:58:10Z</time>
      </trkpt>
      <trkpt lat="48.72613" lon="2.46112">
        <ele>142.37</ele>
        <time>2018-10-14T12:58:12Z</time>
      </trkpt>
      <trkpt lat="48.72612" lon="2.46107">
        <ele>142.38</ele>
        <time>2018-10-14T12:58:14Z</time>
      </trkpt>
      <trkpt lat="48.72611" lon="2.46102">
        <ele>142.389</ele>
        <time>2018-10-14T12:58:16Z</time>
      </trkpt>
      <trkpt lat="48.7261" lon="2.46094">
        <ele>142.409</ele>
        <time>2018-10-14T12:58:20Z</time>
      </trkpt>
      <trkpt lat="48.72608" lon="2.46085">
        <ele>142.425</ele>
        <time>2018-10-14T12:58:23Z</time>
      </trkpt>
      <trkpt lat="48.72607" lon="2.46081">
        <ele>142.436</ele>
        <time>2018-10-14T12:58:25Z</time>
      </trkpt>
      <trkpt lat="48.72606" lon="2.46076">
        <ele>142.448</ele>
        <time>2018-10-14T12:58:27Z</time>
      </trkpt>
      <trkpt lat="48.72605" lon="2.46069">
        <ele>142.466</ele>
        <time>2018-10-14T12:58:30Z</time>
      </trkpt>
      <trkpt lat="48.72605" lon="2.46065">
        <ele>142.477</ele>
        <time>2018-10-14T12:58:32Z</time>
      </trkpt>
      <trkpt lat="48.72604" lon="2.46061">
        <ele>142.488</ele>
        <time>2018-10-14T12:58:34Z</time>
      </trkpt>
      <trkpt lat="48.72602" lon="2.46054">
        <ele>142.51</ele>
        <time>2018-10-14T12:58:38Z</time>
      </trkpt>
      <trkpt lat="48.72601" lon="2.46047">
        <ele>142.53</ele>
        <time>2018-10-14T12:58:42Z</time>
      </trkpt>
      <trkpt lat="48.726" lon="2.46041">
        <ele>142.545</ele>
        <time>2018-10-14T12:58:45Z</time>
      </trkpt>
      <trkpt lat="48.726" lon="2.46036">
        <ele>142.554</ele>
        <time>2018-10-14T12:58:47Z</time>
      </trkpt>
      <trkpt lat="48.72599" lon="2.46032">
        <ele>142.562</ele>
        <time>2018-10-14T12:58:49Z</time>
      </trkpt>
      <trkpt lat="48.72598" lon="2.46027">
        <ele>142.569</ele>
        <time>2018-10-14T12:58:51Z</time>
      </trkpt>
      <trkpt lat="48.72596" lon="2.46021">
        <ele>142.58</ele>
        <time>2018-10-14T12:58:54Z</time>
      </trkpt>
      <trkpt lat="48.72596" lon="2.46017">
        <ele>142.586</ele>
        <time>2018-10-14T12:58:56Z</time>
      </trkpt>
      <trkpt lat="48.72594" lon="2.46012">
        <ele>142.598</ele>
        <time>2018-10-14T12:58:59Z</time>
      </trkpt>
      <trkpt lat="48.72594" lon="2.46009">
        <ele>142.605</ele>
        <time>2018-10-14T12:59:01Z</time>
      </trkpt>
      <trkpt lat="48.72593" lon="2.46005">
        <ele>142.613</ele>
        <time>2018-10-14T12:59:03Z</time>
      </trkpt>
      <trkpt lat="48.72593" lon="2.46">
        <ele>142.621</ele>
        <time>2018-10-14T12:59:05Z</time>
      </trkpt>
      <trkpt lat="48.72592" lon="2.45993">
        <ele>142.632</ele>
        <time>2018-10-14T12:59:08Z</time>
      </trkpt>
      <trkpt lat="48.7259" lon="2.45985">
        <ele>142.642</ele>
        <time>2018-10-14T12:59:11Z</time>
      </trkpt>
      <trkpt lat="48.72589" lon="2.45979">
        <ele>142.649</ele>
        <time>2018-10-14T12:59:13Z</time>
      </trkpt>
      <trkpt lat="48.72588" lon="2.45974">
        <ele>142.656</ele>
        <time>2018-10-14T12:59:15Z</time>
      </trkpt>
      <trkpt lat="48.72587" lon="2.45971">
        <ele>142.663</ele>
        <time>2018-10-14T12:59:17Z</time>
      </trkpt>
      <trkpt lat="48.72586" lon="2.45963">
        <ele>142.678</ele>
        <time>2018-10-14T12:59:21Z</time>
      </trkpt>
      <trkpt lat="48.72586" lon="2.45957">
        <ele>142.69</ele>
        <time>2018-10-14T12:59:24Z</time>
      </trkpt>
      <trkpt lat="48.72584" lon="2.45949">
        <ele>142.702</ele>
        <time>2018-10-14T12:59:28Z</time>
      </trkpt>
      <trkpt lat="48.72583" lon="2.45945">
        <ele>142.708</ele>
        <time>2018-10-14T12:59:30Z</time>
      </trkpt>
      <trkpt lat="48.72582" lon="2.4594">
        <ele>142.716</ele>
        <time>2018-10-14T12:59:33Z</time>
      </trkpt>
      <trkpt lat="48.72582" lon="2.4594">
        <ele>90</ele>
        <time>2018-10-14T12:59:41Z</time>
      </trkpt>
      <trkpt lat="48.72582" lon="2.4594">
        <ele>90</ele>
        <time>2018-10-14T13:00:12Z</time>
      </trkpt>
      <trkpt lat="48.72581" lon="2.45977">
        <ele>142.895</ele>
        <time>2018-10-14T13:00:12Z</time>
      </trkpt>
      <trkpt lat="48.72577" lon="2.45982">
        <ele>142.923</ele>
        <time>2018-10-14T13:00:16Z</time>
      </trkpt>
      <trkpt lat="48.72573" lon="2.45988">
        <ele>142.952</ele>
        <time>2018-10-14T13:00:20Z</time>
      </trkpt>
      <trkpt lat="48.72568" lon="2.45993">
        <ele>142.978</ele>
        <time>2018-10-14T13:00:24Z</time>
      </trkpt>
      <trkpt lat="48.72566" lon="2.45996">
        <ele>142.995</ele>
        <time>2018-10-14T13:00:27Z</time>
      </trkpt>
      <trkpt lat="48.72562" lon="2.46">
        <ele>143.01</ele>
        <time>2018-10-14T13:00:30Z</time>
      </trkpt>
      <trkpt lat="48.72558" lon="2.46003">
        <ele>143.021</ele>
        <time>2018-10-14T13:00:33Z</time>
      </trkpt>
      <trkpt lat="48.72555" lon="2.46006">
        <ele>143.026</ele>
        <time>2018-10-14T13:00:35Z</time>
      </trkpt>
      <trkpt lat="48.72553" lon="2.46008">
        <ele>143.031</ele>
        <time>2018-10-14T13:00:37Z</time>
      </trkpt>
      <trkpt lat="48.7255" lon="2.46011">
        <ele>143.035</ele>
        <time>2018-10-14T13:00:39Z</time>
      </trkpt>
      <trkpt lat="48.72548" lon="2.46014">
        <ele>143.04</ele>
        <time>2018-10-14T13:00:41Z</time>
      </trkpt>
      <trkpt lat="48.72545" lon="2.46016">
        <ele>143.043</ele>
        <time>2018-10-14T13:00:43Z</time>
      </trkpt>
      <trkpt lat="48.72543" lon="2.46019">
        <ele>143.047</ele>
        <time>2018-10-14T13:00:45Z</time>
      </trkpt>
      <trkpt lat="48.72538" lon="2.4602">
        <ele>143.057</ele>
        <time>2018-10-14T13:00:51Z</time>
      </trkpt>
      <trkpt lat="48.72534" lon="2.46021">
        <ele>143.059</ele>
        <time>2018-10-14T13:00:53Z</time>
      </trkpt>
      <trkpt lat="48.72529" lon="2.46019">
        <ele>143.062</ele>
        <time>2018-10-14T13:00:56Z</time>
      </trkpt>
      <trkpt lat="48.72526" lon="2.46018">
        <ele>143.063</ele>
        <time>2018-10-14T13:00:58Z</time>
      </trkpt>
      <trkpt lat="48.72522" lon="2.46017">
        <ele>143.063</ele>
        <time>2018-10-14T13:01:00Z</time>
      </trkpt>
      <trkpt lat="48.72515" lon="2.46015">
        <ele>143.062</ele>
        <time>2018-10-14T13:01:04Z</time>
      </trkpt>
      <trkpt lat="48.72512" lon="2.46015">
        <ele>143.063</ele>
        <time>2018-10-14T13:01:06Z</time>
      </trkpt>
      <trkpt lat="48.72507" lon="2.46014">
        <ele>143.066</ele>
        <time>2018-10-14T13:01:11Z</time>
      </trkpt>
      <trkpt lat="48.72504" lon="2.46015">
        <ele>143.069</ele>
        <time>2018-10-14T13:01:14Z</time>
      </trkpt>
      <trkpt lat="48.72501" lon="2.46015">
        <ele>143.071</ele>
        <time>2018-10-14T13:01:17Z</time>
      </trkpt>
      <trkpt lat="48.72498" lon="2.46015">
        <ele>143.072</ele>
        <time>2018-10-14T13:01:19Z</time>
      </trkpt>
      <trkpt lat="48.72495" lon="2.46015">
        <ele>143.072</ele>
        <time>2018-10-14T13:01:21Z</time>
      </trkpt>
      <trkpt lat="48.72488" lon="2.46014">
        <ele>143.072</ele>
        <time>2018-10-14T13:01:25Z</time>
      </trkpt>
      <trkpt lat="48.72484" lon="2.46013">
        <ele>143.071</ele>
        <time>2018-10-14T13:01:27Z</time>
      </trkpt>
      <trkpt lat="48.72481" lon="2.46013">
        <ele>143.07</ele>
        <time>2018-10-14T13:01:29Z</time>
      </trkpt>
      <trkpt lat="48.72478" lon="2.46012">
        <ele>143.068</ele>
        <time>2018-10-14T13:01:31Z</time>
      </trkpt>
      <trkpt lat="48.72475" lon="2.46011">
        <ele>143.066</ele>
        <time>2018-10-14T13:01:33Z</time>
      </trkpt>
      <trkpt lat="48.72472" lon="2.4601">
        <ele>143.062</ele>
        <time>2018-10-14T13:01:36Z</time>
      </trkpt>
      <trkpt lat="48.72468" lon="2.46009">
        <ele>143.057</ele>
        <time>2018-10-14T13:01:40Z</time>
      </trkpt>
      <trkpt lat="48.72462" lon="2.46008">
        <ele>143.051</ele>
        <time>2018-10-14T13:01:44Z</time>
      </trkpt>
      <trkpt lat="48.72459" lon="2.46007">
        <ele>143.047</ele>
        <time>2018-10-14T13:01:46Z</time>
      </trkpt>
      <trkpt lat="48.72455" lon="2.46006">
        <ele>143.044</ele>
        <time>2018-10-14T13:01:48Z</time>
      </trkpt>
      <trkpt lat="48.72451" lon="2.46006">
        <ele>143.039</ele>
        <time>2018-10-14T13:01:51Z</time>
      </trkpt>
      <trkpt lat="48.72448" lon="2.46005">
        <ele>143.036</ele>
        <time>2018-10-14T13:01:53Z</time>
      </trkpt>
      <trkpt lat="48.72444" lon="2.46005">
        <ele>143.032</ele>
        <time>2018-10-14T13:01:57Z</time>
      </trkpt>
      <trkpt lat="48.7244" lon="2.46005">
        <ele>143.03</ele>
        <time>2018-10-14T13:02:00Z</time>
      </trkpt>
      <trkpt lat="48.72435" lon="2.46004">
        <ele>143.027</ele>
        <time>2018-10-14T13:02:03Z</time>
      </trkpt>
      <trkpt lat="48.72432" lon="2.46003">
        <ele>143.024</ele>
        <time>2018-10-14T13:02:05Z</time>
      </trkpt>
      <trkpt lat="48.72429" lon="2.46002">
        <ele>143.022</ele>
        <time>2018-10-14T13:02:07Z</time>
      </trkpt>
      <trkpt lat="48.72424" lon="2.46003">
        <ele>143.015</ele>
        <time>2018-10-14T13:02:11Z</time>
      </trkpt>
      <trkpt lat="48.72421" lon="2.46002">
        <ele>143.009</ele>
        <time>2018-10-14T13:02:14Z</time>
      </trkpt>
      <trkpt lat="48.72415" lon="2.46">
        <ele>142.999</ele>
        <time>2018-10-14T13:02:18Z</time>
      </trkpt>
      <trkpt lat="48.72412" lon="2.45999">
        <ele>142.993</ele>
        <time>2018-10-14T13:02:20Z</time>
      </trkpt>
      <trkpt lat="48.72408" lon="2.45998">
        <ele>142.987</ele>
        <time>2018-10-14T13:02:22Z</time>
      </trkpt>
      <trkpt lat="48.72405" lon="2.45997">
        <ele>142.98</ele>
        <time>2018-10-14T13:02:24Z</time>
      </trkpt>
      <trkpt lat="48.72403" lon="2.45996">
        <ele>142.973</ele>
        <time>2018-10-14T13:02:26Z</time>
      </trkpt>
      <trkpt lat="48.72398" lon="2.45996">
        <ele>142.956</ele>
        <time>2018-10-14T13:02:31Z</time>
      </trkpt>
      <trkpt lat="48.72395" lon="2.45997">
        <ele>142.945</ele>
        <time>2018-10-14T13:02:34Z</time>
      </trkpt>
      <trkpt lat="48.72391" lon="2.45996">
        <ele>142.926</ele>
        <time>2018-10-14T13:02:39Z</time>
      </trkpt>
      <trkpt lat="48.72391" lon="2.45996">
        <ele>88.1</ele>
        <time>2018-10-14T13:02:47Z</time>
      </trkpt>
      <trkpt lat="48.72391" lon="2.45996">
        <ele>88.1</ele>
        <time>2018-10-14T13:02:53Z</time>
      </trkpt>
      <trkpt lat="48.72387" lon="2.46007">
        <ele>142.889</ele>
        <time>2018-10-14T13:02:53Z</time>
      </trkpt>
      <trkpt lat="48.72386" lon="2.46014">
        <ele>142.881</ele>
        <time>2018-10-14T13:02:56Z</time>
      </trkpt>
      <trkpt lat="48.72386" lon="2.46019">
        <ele>142.875</ele>
        <time>2018-10-14T13:02:58Z</time>
      </trkpt>
      <trkpt lat="48.72386" lon="2.46023">
        <ele>142.869</ele>
        <time>2018-10-14T13:03:00Z</time>
      </trkpt>
      <trkpt lat="48.72386" lon="2.46027">
        <ele>142.862</ele>
        <time>2018-10-14T13:03:02Z</time>
      </trkpt>
      <trkpt lat="48.72386" lon="2.46034">
        <ele>142.851</ele>
        <time>2018-10-14T13:03:05Z</time>
      </trkpt>
      <trkpt lat="48.72386" lon="2.46039">
        <ele>142.84</ele>
        <time>2018-10-14T13:03:08Z</time>
      </trkpt>
      <trkpt lat="48.72386" lon="2.46047">
        <ele>142.826</ele>
        <time>2018-10-14T13:03:12Z</time>
      </trkpt>
      <trkpt lat="48.72386" lon="2.46054">
        <ele>142.812</ele>
        <time>2018-10-14T13:03:16Z</time>
      </trkpt>
      <trkpt lat="48.72386" lon="2.46058">
        <ele>142.805</ele>
        <time>2018-10-14T13:03:18Z</time>
      </trkpt>
      <trkpt lat="48.72387" lon="2.46066">
        <ele>142.789</ele>
        <time>2018-10-14T13:03:23Z</time>
      </trkpt>
      <trkpt lat="48.72388" lon="2.46072">
        <ele>142.774</ele>
        <time>2018-10-14T13:03:28Z</time>
      </trkpt>
      <trkpt lat="48.72388" lon="2.46079">
        <ele>142.762</ele>
        <time>2018-10-14T13:03:32Z</time>
      </trkpt>
      <trkpt lat="48.72388" lon="2.46085">
        <ele>142.757</ele>
        <time>2018-10-14T13:03:34Z</time>
      </trkpt>
      <trkpt lat="48.72389" lon="2.46093">
        <ele>142.747</ele>
        <time>2018-10-14T13:03:38Z</time>
      </trkpt>
      <trkpt lat="48.72389" lon="2.46097">
        <ele>142.743</ele>
        <time>2018-10-14T13:03:40Z</time>
      </trkpt>
      <trkpt lat="48.72389" lon="2.46102">
        <ele>142.739</ele>
        <time>2018-10-14T13:03:42Z</time>
      </trkpt>
      <trkpt lat="48.7239" lon="2.46107">
        <ele>142.735</ele>
        <time>2018-10-14T13:03:44Z</time>
      </trkpt>
      <trkpt lat="48.7239" lon="2.46114">
        <ele>142.73</ele>
        <time>2018-10-14T13:03:47Z</time>
      </trkpt>
      <trkpt lat="48.72389" lon="2.46118">
        <ele>142.727</ele>
        <time>2018-10-14T13:03:49Z</time>
      </trkpt>
      <trkpt lat="48.72389" lon="2.46121">
        <ele>142.723</ele>
        <time>2018-10-14T13:03:52Z</time>
      </trkpt>
      <trkpt lat="48.72389" lon="2.46126">
        <ele>142.72</ele>
        <time>2018-10-14T13:03:55Z</time>
      </trkpt>
      <trkpt lat="48.72389" lon="2.46137">
        <ele>142.715</ele>
        <time>2018-10-14T13:04:00Z</time>
      </trkpt>
      <trkpt lat="48.72389" lon="2.46142">
        <ele>142.714</ele>
        <time>2018-10-14T13:04:02Z</time>
      </trkpt>
      <trkpt lat="48.72389" lon="2.46146">
        <ele>142.712</ele>
        <time>2018-10-14T13:04:04Z</time>
      </trkpt>
      <trkpt lat="48.72389" lon="2.46151">
        <ele>142.712</ele>
        <time>2018-10-14T13:04:06Z</time>
      </trkpt>
      <trkpt lat="48.72389" lon="2.46156">
        <ele>142.711</ele>
        <time>2018-10-14T13:04:08Z</time>
      </trkpt>
      <trkpt lat="48.7239" lon="2.46161">
        <ele>142.711</ele>
        <time>2018-10-14T13:04:10Z</time>
      </trkpt>
      <trkpt lat="48.7239" lon="2.46165">
        <ele>142.71</ele>
        <time>2018-10-14T13:04:12Z</time>
      </trkpt>
      <trkpt lat="48.7239" lon="2.46169">
        <ele>142.709</ele>
        <time>2018-10-14T13:04:14Z</time>
      </trkpt>
      <trkpt lat="48.7239" lon="2.46173">
        <ele>142.708</ele>
        <time>2018-10-14T13:04:16Z</time>
      </trkpt>
      <trkpt lat="48.7239" lon="2.46181">
        <ele>142.704</ele>
        <time>2018-10-14T13:04:21Z</time>
      </trkpt>
      <trkpt lat="48.7239" lon="2.46185">
        <ele>142.702</ele>
        <time>2018-10-14T13:04:23Z</time>
      </trkpt>
      <trkpt lat="48.7239" lon="2.46189">
        <ele>142.701</ele>
        <time>2018-10-14T13:04:25Z</time>
      </trkpt>
      <trkpt lat="48.72389" lon="2.46193">
        <ele>142.7</ele>
        <time>2018-10-14T13:04:27Z</time>
      </trkpt>
      <trkpt lat="48.7239" lon="2.46203">
        <ele>142.698</ele>
        <time>2018-10-14T13:04:32Z</time>
      </trkpt>
      <trkpt lat="48.7239" lon="2.46207">
        <ele>142.697</ele>
        <time>2018-10-14T13:04:34Z</time>
      </trkpt>
      <trkpt lat="48.7239" lon="2.46211">
        <ele>142.697</ele>
        <time>2018-10-14T13:04:36Z</time>
      </trkpt>
      <trkpt lat="48.7239" lon="2.46215">
        <ele>142.697</ele>
        <time>2018-10-14T13:04:38Z</time>
      </trkpt>
      <trkpt lat="48.72389" lon="2.46222">
        <ele>142.696</ele>
        <time>2018-10-14T13:04:42Z</time>
      </trkpt>
      <trkpt lat="48.72389" lon="2.46229">
        <ele>142.695</ele>
        <time>2018-10-14T13:04:45Z</time>
      </trkpt>
      <trkpt lat="48.72389" lon="2.46236">
        <ele>142.694</ele>
        <time>2018-10-14T13:04:49Z</time>
      </trkpt>
      <trkpt lat="48.72389" lon="2.46241">
        <ele>142.692</ele>
        <time>2018-10-14T13:04:52Z</time>
      </trkpt>
      <trkpt lat="48.72389" lon="2.46244">
        <ele>142.692</ele>
        <time>2018-10-14T13:04:54Z</time>
      </trkpt>
      <trkpt lat="48.72387" lon="2.46252">
        <ele>142.691</ele>
        <time>2018-10-14T13:04:58Z</time>
      </trkpt>
      <trkpt lat="48.72386" lon="2.46259">
        <ele>142.691</ele>
        <time>2018-10-14T13:05:01Z</time>
      </trkpt>
      <trkpt lat="48.72385" lon="2.46267">
        <ele>142.692</ele>
        <time>2018-10-14T13:05:06Z</time>
      </trkpt>
      <trkpt lat="48.72386" lon="2.46275">
        <ele>142.692</ele>
        <time>2018-10-14T13:05:09Z</time>
      </trkpt>
      <trkpt lat="48.72388" lon="2.46283">
        <ele>142.694</ele>
        <time>2018-10-14T13:05:12Z</time>
      </trkpt>
      <trkpt lat="48.7239" lon="2.46288">
        <ele>142.695</ele>
        <time>2018-10-14T13:05:14Z</time>
      </trkpt>
      <trkpt lat="48.72391" lon="2.46292">
        <ele>142.697</ele>
        <time>2018-10-14T13:05:16Z</time>
      </trkpt>
      <trkpt lat="48.72391" lon="2.46299">
        <ele>142.704</ele>
        <time>2018-10-14T13:05:21Z</time>
      </trkpt>
      <trkpt lat="48.72391" lon="2.46302">
        <ele>142.707</ele>
        <time>2018-10-14T13:05:23Z</time>
      </trkpt>
      <trkpt lat="48.7239" lon="2.46311">
        <ele>142.713</ele>
        <time>2018-10-14T13:05:27Z</time>
      </trkpt>
      <trkpt lat="48.72387" lon="2.46317">
        <ele>142.717</ele>
        <time>2018-10-14T13:05:31Z</time>
      </trkpt>
      <trkpt lat="48.72385" lon="2.4632">
        <ele>142.719</ele>
        <time>2018-10-14T13:05:33Z</time>
      </trkpt>
      <trkpt lat="48.72385" lon="2.46328">
        <ele>142.727</ele>
        <time>2018-10-14T13:05:38Z</time>
      </trkpt>
      <trkpt lat="48.72386" lon="2.46335">
        <ele>142.732</ele>
        <time>2018-10-14T13:05:41Z</time>
      </trkpt>
      <trkpt lat="48.72389" lon="2.46341">
        <ele>142.74</ele>
        <time>2018-10-14T13:05:45Z</time>
      </trkpt>
      <trkpt lat="48.72388" lon="2.46349">
        <ele>142.749</ele>
        <time>2018-10-14T13:05:50Z</time>
      </trkpt>
      <trkpt lat="48.72385" lon="2.46355">
        <ele>142.752</ele>
        <time>2018-10-14T13:05:54Z</time>
      </trkpt>
      <trkpt lat="48.72385" lon="2.46363">
        <ele>142.754</ele>
        <time>2018-10-14T13:05:57Z</time>
      </trkpt>
      <trkpt lat="48.72384" lon="2.4637">
        <ele>142.755</ele>
        <time>2018-10-14T13:06:00Z</time>
      </trkpt>
      <trkpt lat="48.72385" lon="2.46374">
        <ele>142.754</ele>
        <time>2018-10-14T13:06:02Z</time>
      </trkpt>
      <trkpt lat="48.72385" lon="2.46378">
        <ele>142.752</ele>
        <time>2018-10-14T13:06:04Z</time>
      </trkpt>
      <trkpt lat="48.72385" lon="2.46386">
        <ele>142.746</ele>
        <time>2018-10-14T13:06:07Z</time>
      </trkpt>
      <trkpt lat="48.72386" lon="2.46394">
        <ele>142.738</ele>
        <time>2018-10-14T13:06:10Z</time>
      </trkpt>
      <trkpt lat="48.72386" lon="2.46398">
        <ele>142.731</ele>
        <time>2018-10-14T13:06:12Z</time>
      </trkpt>
      <trkpt lat="48.72386" lon="2.46404">
        <ele>142.717</ele>
        <time>2018-10-14T13:06:15Z</time>
      </trkpt>
      <trkpt lat="48.72386" lon="2.46407">
        <ele>142.7</ele>
        <time>2018-10-14T13:06:18Z</time>
      </trkpt>
      <trkpt lat="48.72387" lon="2.46412">
        <ele>142.687</ele>
        <time>2018-10-14T13:06:20Z</time>
      </trkpt>
      <trkpt lat="48.72387" lon="2.46421">
        <ele>142.659</ele>
        <time>2018-10-14T13:06:24Z</time>
      </trkpt>
      <trkpt lat="48.72387" lon="2.4643">
        <ele>142.626</ele>
        <time>2018-10-14T13:06:28Z</time>
      </trkpt>
      <trkpt lat="48.72387" lon="2.46436">
        <ele>142.59</ele>
        <time>2018-10-14T13:06:32Z</time>
      </trkpt>
      <trkpt lat="48.72388" lon="2.46444">
        <ele>142.552</ele>
        <time>2018-10-14T13:06:36Z</time>
      </trkpt>
      <trkpt lat="48.72389" lon="2.46448">
        <ele>142.532</ele>
        <time>2018-10-14T13:06:38Z</time>
      </trkpt>
      <trkpt lat="48.7239" lon="2.46453">
        <ele>142.51</ele>
        <time>2018-10-14T13:06:40Z</time>
      </trkpt>
      <trkpt lat="48.7239" lon="2.46457">
        <ele>142.487</ele>
        <time>2018-10-14T13:06:42Z</time>
      </trkpt>
      <trkpt lat="48.7239" lon="2.46465">
        <ele>142.429</ele>
        <time>2018-10-14T13:06:47Z</time>
      </trkpt>
      <trkpt lat="48.72391" lon="2.46473">
        <ele>142.392</ele>
        <time>2018-10-14T13:06:50Z</time>
      </trkpt>
      <trkpt lat="48.72391" lon="2.46478">
        <ele>142.367</ele>
        <time>2018-10-14T13:06:52Z</time>
      </trkpt>
      <trkpt lat="48.72393" lon="2.46486">
        <ele>142.318</ele>
        <time>2018-10-14T13:06:56Z</time>
      </trkpt>
      <trkpt lat="48.72393" lon="2.46494">
        <ele>142.257</ele>
        <time>2018-10-14T13:07:01Z</time>
      </trkpt>
      <trkpt lat="48.72393" lon="2.46498">
        <ele>142.233</ele>
        <time>2018-10-14T13:07:03Z</time>
      </trkpt>
      <trkpt lat="48.72393" lon="2.46502">
        <ele>142.209</ele>
        <time>2018-10-14T13:07:05Z</time>
      </trkpt>
      <trkpt lat="48.72394" lon="2.46507">
        <ele>142.186</ele>
        <time>2018-10-14T13:07:07Z</time>
      </trkpt>
      <trkpt lat="48.72394" lon="2.46516">
        <ele>142.127</ele>
        <time>2018-10-14T13:07:12Z</time>
      </trkpt>
      <trkpt lat="48.72394" lon="2.4652">
        <ele>142.104</ele>
        <time>2018-10-14T13:07:14Z</time>
      </trkpt>
      <trkpt lat="48.72394" lon="2.46523">
        <ele>142.081</ele>
        <time>2018-10-14T13:07:16Z</time>
      </trkpt>
      <trkpt lat="48.72395" lon="2.4653">
        <ele>142.046</ele>
        <time>2018-10-14T13:07:19Z</time>
      </trkpt>
      <trkpt lat="48.72395" lon="2.46535">
        <ele>142.023</ele>
        <time>2018-10-14T13:07:21Z</time>
      </trkpt>
      <trkpt lat="48.72396" lon="2.46539">
        <ele>142</ele>
        <time>2018-10-14T13:07:23Z</time>
      </trkpt>
      <trkpt lat="48.72396" lon="2.46548">
        <ele>141.954</ele>
        <time>2018-10-14T13:07:27Z</time>
      </trkpt>
      <trkpt lat="48.72396" lon="2.46555">
        <ele>141.908</ele>
        <time>2018-10-14T13:07:31Z</time>
      </trkpt>
      <trkpt lat="48.72398" lon="2.46562">
        <ele>141.861</ele>
        <time>2018-10-14T13:07:35Z</time>
      </trkpt>
      <trkpt lat="48.72398" lon="2.46565">
        <ele>141.838</ele>
        <time>2018-10-14T13:07:37Z</time>
      </trkpt>
      <trkpt lat="48.72399" lon="2.46569">
        <ele>141.815</ele>
        <time>2018-10-14T13:07:39Z</time>
      </trkpt>
      <trkpt lat="48.724" lon="2.46575">
        <ele>141.793</ele>
        <time>2018-10-14T13:07:41Z</time>
      </trkpt>
      <trkpt lat="48.724" lon="2.46583">
        <ele>141.761</ele>
        <time>2018-10-14T13:07:44Z</time>
      </trkpt>
      <trkpt lat="48.72401" lon="2.46591">
        <ele>141.72</ele>
        <time>2018-10-14T13:07:48Z</time>
      </trkpt>
      <trkpt lat="48.72401" lon="2.46598">
        <ele>141.682</ele>
        <time>2018-10-14T13:07:52Z</time>
      </trkpt>
      <trkpt lat="48.72401" lon="2.46603">
        <ele>141.663</ele>
        <time>2018-10-14T13:07:54Z</time>
      </trkpt>
      <trkpt lat="48.72401" lon="2.46609">
        <ele>141.636</ele>
        <time>2018-10-14T13:07:57Z</time>
      </trkpt>
      <trkpt lat="48.72402" lon="2.46616">
        <ele>141.611</ele>
        <time>2018-10-14T13:08:00Z</time>
      </trkpt>
      <trkpt lat="48.72403" lon="2.46622">
        <ele>141.593</ele>
        <time>2018-10-14T13:08:02Z</time>
      </trkpt>
      <trkpt lat="48.72404" lon="2.46626">
        <ele>141.576</ele>
        <time>2018-10-14T13:08:04Z</time>
      </trkpt>
      <trkpt lat="48.72403" lon="2.46633">
        <ele>141.543</ele>
        <time>2018-10-14T13:08:08Z</time>
      </trkpt>
      <trkpt lat="48.72403" lon="2.46639">
        <ele>141.51</ele>
        <time>2018-10-14T13:08:12Z</time>
      </trkpt>
      <trkpt lat="48.72403" lon="2.46642">
        <ele>141.493</ele>
        <time>2018-10-14T13:08:14Z</time>
      </trkpt>
      <trkpt lat="48.72403" lon="2.46652">
        <ele>141.46</ele>
        <time>2018-10-14T13:08:18Z</time>
      </trkpt>
      <trkpt lat="48.72404" lon="2.46658">
        <ele>141.442</ele>
        <time>2018-10-14T13:08:20Z</time>
      </trkpt>
      <trkpt lat="48.72405" lon="2.46665">
        <ele>141.416</ele>
        <time>2018-10-14T13:08:23Z</time>
      </trkpt>
      <trkpt lat="48.72406" lon="2.46673">
        <ele>141.381</ele>
        <time>2018-10-14T13:08:27Z</time>
      </trkpt>
      <trkpt lat="48.72407" lon="2.46683">
        <ele>141.34</ele>
        <time>2018-10-14T13:08:32Z</time>
      </trkpt>
      <trkpt lat="48.72406" lon="2.4669">
        <ele>141.306</ele>
        <time>2018-10-14T13:08:36Z</time>
      </trkpt>
      <trkpt lat="48.72406" lon="2.46694">
        <ele>141.29</ele>
        <time>2018-10-14T13:08:38Z</time>
      </trkpt>
      <trkpt lat="48.72406" lon="2.46699">
        <ele>141.273</ele>
        <time>2018-10-14T13:08:40Z</time>
      </trkpt>
      <trkpt lat="48.72406" lon="2.46703">
        <ele>141.256</ele>
        <time>2018-10-14T13:08:42Z</time>
      </trkpt>
      <trkpt lat="48.72406" lon="2.46707">
        <ele>141.24</ele>
        <time>2018-10-14T13:08:44Z</time>
      </trkpt>
      <trkpt lat="48.72406" lon="2.46715">
        <ele>141.206</ele>
        <time>2018-10-14T13:08:48Z</time>
      </trkpt>
      <trkpt lat="48.72407" lon="2.46723">
        <ele>141.162</ele>
        <time>2018-10-14T13:08:53Z</time>
      </trkpt>
      <trkpt lat="48.72408" lon="2.4673">
        <ele>141.135</ele>
        <time>2018-10-14T13:08:56Z</time>
      </trkpt>
      <trkpt lat="48.72408" lon="2.46734">
        <ele>141.117</ele>
        <time>2018-10-14T13:08:58Z</time>
      </trkpt>
      <trkpt lat="48.72408" lon="2.46739">
        <ele>141.1</ele>
        <time>2018-10-14T13:09:00Z</time>
      </trkpt>
      <trkpt lat="48.72409" lon="2.46743">
        <ele>141.083</ele>
        <time>2018-10-14T13:09:02Z</time>
      </trkpt>
      <trkpt lat="48.72408" lon="2.46751">
        <ele>141.041</ele>
        <time>2018-10-14T13:09:07Z</time>
      </trkpt>
      <trkpt lat="48.7241" lon="2.46758">
        <ele>141.011</ele>
        <time>2018-10-14T13:09:11Z</time>
      </trkpt>
      <trkpt lat="48.72411" lon="2.46762">
        <ele>140.995</ele>
        <time>2018-10-14T13:09:13Z</time>
      </trkpt>
      <trkpt lat="48.7241" lon="2.46771">
        <ele>140.971</ele>
        <time>2018-10-14T13:09:16Z</time>
      </trkpt>
      <trkpt lat="48.72411" lon="2.46779">
        <ele>140.939</ele>
        <time>2018-10-14T13:09:20Z</time>
      </trkpt>
      <trkpt lat="48.72411" lon="2.46787">
        <ele>140.909</ele>
        <time>2018-10-14T13:09:24Z</time>
      </trkpt>
      <trkpt lat="48.72411" lon="2.46796">
        <ele>140.879</ele>
        <time>2018-10-14T13:09:28Z</time>
      </trkpt>
      <trkpt lat="48.72411" lon="2.468">
        <ele>140.857</ele>
        <time>2018-10-14T13:09:31Z</time>
      </trkpt>
      <trkpt lat="48.72411" lon="2.46805">
        <ele>140.836</ele>
        <time>2018-10-14T13:09:34Z</time>
      </trkpt>
      <trkpt lat="48.72412" lon="2.46813">
        <ele>140.798</ele>
        <time>2018-10-14T13:09:39Z</time>
      </trkpt>
      <trkpt lat="48.72413" lon="2.46821">
        <ele>140.776</ele>
        <time>2018-10-14T13:09:42Z</time>
      </trkpt>
      <trkpt lat="48.72413" lon="2.46826">
        <ele>140.762</ele>
        <time>2018-10-14T13:09:44Z</time>
      </trkpt>
      <trkpt lat="48.72414" lon="2.4683">
        <ele>140.749</ele>
        <time>2018-10-14T13:09:46Z</time>
      </trkpt>
      <trkpt lat="48.72415" lon="2.46839">
        <ele>140.723</ele>
        <time>2018-10-14T13:09:50Z</time>
      </trkpt>
      <trkpt lat="48.72415" lon="2.46847">
        <ele>140.699</ele>
        <time>2018-10-14T13:09:54Z</time>
      </trkpt>
      <trkpt lat="48.72415" lon="2.46856">
        <ele>140.677</ele>
        <time>2018-10-14T13:09:58Z</time>
      </trkpt>
      <trkpt lat="48.72415" lon="2.46864">
        <ele>140.656</ele>
        <time>2018-10-14T13:10:02Z</time>
      </trkpt>
      <trkpt lat="48.72415" lon="2.46868">
        <ele>140.642</ele>
        <time>2018-10-14T13:10:05Z</time>
      </trkpt>
      <trkpt lat="48.72416" lon="2.46876">
        <ele>140.624</ele>
        <time>2018-10-14T13:10:09Z</time>
      </trkpt>
      <trkpt lat="48.72417" lon="2.46882">
        <ele>140.616</ele>
        <time>2018-10-14T13:10:11Z</time>
      </trkpt>
      <trkpt lat="48.72418" lon="2.46889">
        <ele>140.608</ele>
        <time>2018-10-14T13:10:13Z</time>
      </trkpt>
      <trkpt lat="48.72419" lon="2.46894">
        <ele>140.597</ele>
        <time>2018-10-14T13:10:16Z</time>
      </trkpt>
      <trkpt lat="48.72419" lon="2.46898">
        <ele>140.59</ele>
        <time>2018-10-14T13:10:18Z</time>
      </trkpt>
      <trkpt lat="48.7242" lon="2.46903">
        <ele>140.581</ele>
        <time>2018-10-14T13:10:21Z</time>
      </trkpt>
      <trkpt lat="48.7242" lon="2.46908">
        <ele>140.572</ele>
        <time>2018-10-14T13:10:24Z</time>
      </trkpt>
      <trkpt lat="48.72423" lon="2.46915">
        <ele>140.559</ele>
        <time>2018-10-14T13:10:28Z</time>
      </trkpt>
      <trkpt lat="48.72424" lon="2.46922">
        <ele>140.549</ele>
        <time>2018-10-14T13:10:31Z</time>
      </trkpt>
      <trkpt lat="48.72425" lon="2.4693">
        <ele>140.534</ele>
        <time>2018-10-14T13:10:36Z</time>
      </trkpt>
      <trkpt lat="48.72426" lon="2.46937">
        <ele>140.523</ele>
        <time>2018-10-14T13:10:40Z</time>
      </trkpt>
      <trkpt lat="48.72425" lon="2.46945">
        <ele>140.514</ele>
        <time>2018-10-14T13:10:44Z</time>
      </trkpt>
      <trkpt lat="48.72425" lon="2.46949">
        <ele>140.51</ele>
        <time>2018-10-14T13:10:46Z</time>
      </trkpt>
      <trkpt lat="48.72425" lon="2.46954">
        <ele>140.504</ele>
        <time>2018-10-14T13:10:48Z</time>
      </trkpt>
      <trkpt lat="48.72423" lon="2.46962">
        <ele>140.49</ele>
        <time>2018-10-14T13:10:52Z</time>
      </trkpt>
      <trkpt lat="48.72424" lon="2.4697">
        <ele>140.474</ele>
        <time>2018-10-14T13:10:56Z</time>
      </trkpt>
      <trkpt lat="48.72425" lon="2.46975">
        <ele>140.466</ele>
        <time>2018-10-14T13:10:58Z</time>
      </trkpt>
      <trkpt lat="48.72426" lon="2.46983">
        <ele>140.449</ele>
        <time>2018-10-14T13:11:02Z</time>
      </trkpt>
      <trkpt lat="48.72427" lon="2.46988">
        <ele>140.435</ele>
        <time>2018-10-14T13:11:05Z</time>
      </trkpt>
      <trkpt lat="48.72427" lon="2.46996">
        <ele>140.418</ele>
        <time>2018-10-14T13:11:09Z</time>
      </trkpt>
      <trkpt lat="48.72428" lon="2.47003">
        <ele>140.403</ele>
        <time>2018-10-14T13:11:12Z</time>
      </trkpt>
      <trkpt lat="48.72427" lon="2.47011">
        <ele>140.385</ele>
        <time>2018-10-14T13:11:16Z</time>
      </trkpt>
      <trkpt lat="48.72429" lon="2.47019">
        <ele>140.366</ele>
        <time>2018-10-14T13:11:20Z</time>
      </trkpt>
      <trkpt lat="48.7243" lon="2.47023">
        <ele>140.357</ele>
        <time>2018-10-14T13:11:22Z</time>
      </trkpt>
      <trkpt lat="48.72431" lon="2.4703">
        <ele>140.335</ele>
        <time>2018-10-14T13:11:27Z</time>
      </trkpt>
      <trkpt lat="48.72432" lon="2.47034">
        <ele>140.327</ele>
        <time>2018-10-14T13:11:29Z</time>
      </trkpt>
      <trkpt lat="48.72433" lon="2.47041">
        <ele>140.312</ele>
        <time>2018-10-14T13:11:32Z</time>
      </trkpt>
      <trkpt lat="48.72434" lon="2.47045">
        <ele>140.302</ele>
        <time>2018-10-14T13:11:34Z</time>
      </trkpt>
      <trkpt lat="48.72434" lon="2.47051">
        <ele>140.285</ele>
        <time>2018-10-14T13:11:37Z</time>
      </trkpt>
      <trkpt lat="48.72435" lon="2.47056">
        <ele>140.267</ele>
        <time>2018-10-14T13:11:40Z</time>
      </trkpt>
      <trkpt lat="48.72436" lon="2.47063">
        <ele>140.241</ele>
        <time>2018-10-14T13:11:44Z</time>
      </trkpt>
      <trkpt lat="48.72437" lon="2.47069">
        <ele>140.214</ele>
        <time>2018-10-14T13:11:48Z</time>
      </trkpt>
      <trkpt lat="48.72438" lon="2.47073">
        <ele>140.201</ele>
        <time>2018-10-14T13:11:50Z</time>
      </trkpt>
      <trkpt lat="48.72439" lon="2.47081">
        <ele>140.175</ele>
        <time>2018-10-14T13:11:54Z</time>
      </trkpt>
      <trkpt lat="48.72439" lon="2.47088">
        <ele>140.146</ele>
        <time>2018-10-14T13:11:58Z</time>
      </trkpt>
      <trkpt lat="48.72437" lon="2.47096">
        <ele>140.117</ele>
        <time>2018-10-14T13:12:02Z</time>
      </trkpt>
      <trkpt lat="48.72436" lon="2.471">
        <ele>140.105</ele>
        <time>2018-10-14T13:12:04Z</time>
      </trkpt>
      <trkpt lat="48.72435" lon="2.47105">
        <ele>140.094</ele>
        <time>2018-10-14T13:12:06Z</time>
      </trkpt>
      <trkpt lat="48.72433" lon="2.47111">
        <ele>140.081</ele>
        <time>2018-10-14T13:12:09Z</time>
      </trkpt>
      <trkpt lat="48.72433" lon="2.47116">
        <ele>140.071</ele>
        <time>2018-10-14T13:12:12Z</time>
      </trkpt>
      <trkpt lat="48.72433" lon="2.47116">
        <ele>88.1</ele>
        <time>2018-10-14T13:12:19Z</time>
      </trkpt>
      <trkpt lat="48.72433" lon="2.47116">
        <ele>88.1</ele>
        <time>2018-10-14T13:12:26Z</time>
      </trkpt>
      <trkpt lat="48.72431" lon="2.47129">
        <ele>140.033</ele>
        <time>2018-10-14T13:12:26Z</time>
      </trkpt>
      <trkpt lat="48.72432" lon="2.47136">
        <ele>140.019</ele>
        <time>2018-10-14T13:12:29Z</time>
      </trkpt>
      <trkpt lat="48.7243" lon="2.47144">
        <ele>139.992</ele>
        <time>2018-10-14T13:12:34Z</time>
      </trkpt>
      <trkpt lat="48.72424" lon="2.47143">
        <ele>139.958</ele>
        <time>2018-10-14T13:12:40Z</time>
      </trkpt>
      <trkpt lat="48.7242" lon="2.4714">
        <ele>139.938</ele>
        <time>2018-10-14T13:12:44Z</time>
      </trkpt>
      <trkpt lat="48.72418" lon="2.47139">
        <ele>139.93</ele>
        <time>2018-10-14T13:12:46Z</time>
      </trkpt>
      <trkpt lat="48.72415" lon="2.47138">
        <ele>139.922</ele>
        <time>2018-10-14T13:12:48Z</time>
      </trkpt>
      <trkpt lat="48.7241" lon="2.47135">
        <ele>139.911</ele>
        <time>2018-10-14T13:12:51Z</time>
      </trkpt>
      <trkpt lat="48.72405" lon="2.47132">
        <ele>139.899</ele>
        <time>2018-10-14T13:12:54Z</time>
      </trkpt>
      <trkpt lat="48.72402" lon="2.4713">
        <ele>139.891</ele>
        <time>2018-10-14T13:12:56Z</time>
      </trkpt>
      <trkpt lat="48.72398" lon="2.47128">
        <ele>139.88</ele>
        <time>2018-10-14T13:12:59Z</time>
      </trkpt>
      <trkpt lat="48.72394" lon="2.47127">
        <ele>139.874</ele>
        <time>2018-10-14T13:13:01Z</time>
      </trkpt>
      <trkpt lat="48.7239" lon="2.47125">
        <ele>139.86</ele>
        <time>2018-10-14T13:13:05Z</time>
      </trkpt>
      <trkpt lat="48.72387" lon="2.47123">
        <ele>139.852</ele>
        <time>2018-10-14T13:13:07Z</time>
      </trkpt>
      <trkpt lat="48.72385" lon="2.47121">
        <ele>139.843</ele>
        <time>2018-10-14T13:13:09Z</time>
      </trkpt>
      <trkpt lat="48.7238" lon="2.47117">
        <ele>139.826</ele>
        <time>2018-10-14T13:13:13Z</time>
      </trkpt>
      <trkpt lat="48.72376" lon="2.47115">
        <ele>139.805</ele>
        <time>2018-10-14T13:13:17Z</time>
      </trkpt>
      <trkpt lat="48.72371" lon="2.47111">
        <ele>139.781</ele>
        <time>2018-10-14T13:13:21Z</time>
      </trkpt>
      <trkpt lat="48.72366" lon="2.47108">
        <ele>139.76</ele>
        <time>2018-10-14T13:13:25Z</time>
      </trkpt>
      <trkpt lat="48.72361" lon="2.47109">
        <ele>139.741</ele>
        <time>2018-10-14T13:13:29Z</time>
      </trkpt>
      <trkpt lat="48.72356" lon="2.47115">
        <ele>139.728</ele>
        <time>2018-10-14T13:13:32Z</time>
      </trkpt>
      <trkpt lat="48.72353" lon="2.47121">
        <ele>139.712</ele>
        <time>2018-10-14T13:13:35Z</time>
      </trkpt>
      <trkpt lat="48.72351" lon="2.47124">
        <ele>139.701</ele>
        <time>2018-10-14T13:13:37Z</time>
      </trkpt>
      <trkpt lat="48.72349" lon="2.47131">
        <ele>139.682</ele>
        <time>2018-10-14T13:13:40Z</time>
      </trkpt>
      <trkpt lat="48.72347" lon="2.47136">
        <ele>139.668</ele>
        <time>2018-10-14T13:13:42Z</time>
      </trkpt>
      <trkpt lat="48.72346" lon="2.47141">
        <ele>139.652</ele>
        <time>2018-10-14T13:13:44Z</time>
      </trkpt>
      <trkpt lat="48.72345" lon="2.47144">
        <ele>139.634</ele>
        <time>2018-10-14T13:13:46Z</time>
      </trkpt>
      <trkpt lat="48.72342" lon="2.4715">
        <ele>139.606</ele>
        <time>2018-10-14T13:13:49Z</time>
      </trkpt>
      <trkpt lat="48.72339" lon="2.47156">
        <ele>139.565</ele>
        <time>2018-10-14T13:13:53Z</time>
      </trkpt>
      <trkpt lat="48.72337" lon="2.4716">
        <ele>139.532</ele>
        <time>2018-10-14T13:13:56Z</time>
      </trkpt>
      <trkpt lat="48.72337" lon="2.4716">
        <ele>88</ele>
        <time>2018-10-14T13:14:04Z</time>
      </trkpt>
      <trkpt lat="48.72337" lon="2.4716">
        <ele>88</ele>
        <time>2018-10-14T13:14:09Z</time>
      </trkpt>
      <trkpt lat="48.72333" lon="2.47174">
        <ele>139.356</ele>
        <time>2018-10-14T13:14:09Z</time>
      </trkpt>
      <trkpt lat="48.72332" lon="2.47178">
        <ele>139.328</ele>
        <time>2018-10-14T13:14:11Z</time>
      </trkpt>
      <trkpt lat="48.7233" lon="2.47182">
        <ele>139.287</ele>
        <time>2018-10-14T13:14:14Z</time>
      </trkpt>
      <trkpt lat="48.72327" lon="2.47189">
        <ele>139.223</ele>
        <time>2018-10-14T13:14:19Z</time>
      </trkpt>
      <trkpt lat="48.72324" lon="2.47197">
        <ele>139.172</ele>
        <time>2018-10-14T13:14:23Z</time>
      </trkpt>
      <trkpt lat="48.72322" lon="2.47201">
        <ele>139.148</ele>
        <time>2018-10-14T13:14:25Z</time>
      </trkpt>
      <trkpt lat="48.72321" lon="2.47205">
        <ele>139.123</ele>
        <time>2018-10-14T13:14:27Z</time>
      </trkpt>
      <trkpt lat="48.72319" lon="2.47209">
        <ele>139.1</ele>
        <time>2018-10-14T13:14:29Z</time>
      </trkpt>
      <trkpt lat="48.72318" lon="2.47213">
        <ele>139.077</ele>
        <time>2018-10-14T13:14:31Z</time>
      </trkpt>
      <trkpt lat="48.72314" lon="2.4722">
        <ele>139.043</ele>
        <time>2018-10-14T13:14:34Z</time>
      </trkpt>
      <trkpt lat="48.72311" lon="2.47228">
        <ele>139</ele>
        <time>2018-10-14T13:14:38Z</time>
      </trkpt>
      <trkpt lat="48.7231" lon="2.47231">
        <ele>138.98</ele>
        <time>2018-10-14T13:14:40Z</time>
      </trkpt>
      <trkpt lat="48.72309" lon="2.47237">
        <ele>138.939</ele>
        <time>2018-10-14T13:14:44Z</time>
      </trkpt>
      <trkpt lat="48.72306" lon="2.47243">
        <ele>138.911</ele>
        <time>2018-10-14T13:14:47Z</time>
      </trkpt>
      <trkpt lat="48.72304" lon="2.47251">
        <ele>138.875</ele>
        <time>2018-10-14T13:14:51Z</time>
      </trkpt>
      <trkpt lat="48.72302" lon="2.47255">
        <ele>138.85</ele>
        <time>2018-10-14T13:14:54Z</time>
      </trkpt>
      <trkpt lat="48.723" lon="2.47263">
        <ele>138.819</ele>
        <time>2018-10-14T13:14:58Z</time>
      </trkpt>
      <trkpt lat="48.72296" lon="2.47274">
        <ele>138.785</ele>
        <time>2018-10-14T13:15:03Z</time>
      </trkpt>
      <trkpt lat="48.72294" lon="2.47278">
        <ele>138.773</ele>
        <time>2018-10-14T13:15:05Z</time>
      </trkpt>
      <trkpt lat="48.7229" lon="2.47287">
        <ele>138.75</ele>
        <time>2018-10-14T13:15:09Z</time>
      </trkpt>
      <trkpt lat="48.72289" lon="2.47291">
        <ele>138.74</ele>
        <time>2018-10-14T13:15:11Z</time>
      </trkpt>
      <trkpt lat="48.72286" lon="2.47296">
        <ele>138.722</ele>
        <time>2018-10-14T13:15:15Z</time>
      </trkpt>
      <trkpt lat="48.72285" lon="2.47299">
        <ele>138.715</ele>
        <time>2018-10-14T13:15:17Z</time>
      </trkpt>
      <trkpt lat="48.72283" lon="2.47306">
        <ele>138.704</ele>
        <time>2018-10-14T13:15:21Z</time>
      </trkpt>
      <trkpt lat="48.72281" lon="2.47314">
        <ele>138.685</ele>
        <time>2018-10-14T13:15:28Z</time>
      </trkpt>
      <trkpt lat="48.7228" lon="2.47318">
        <ele>138.678</ele>
        <time>2018-10-14T13:15:32Z</time>
      </trkpt>
      <trkpt lat="48.72278" lon="2.47325">
        <ele>138.665</ele>
        <time>2018-10-14T13:15:38Z</time>
      </trkpt>
      <trkpt lat="48.72275" lon="2.47332">
        <ele>138.655</ele>
        <time>2018-10-14T13:15:41Z</time>
      </trkpt>
      <trkpt lat="48.72273" lon="2.47338">
        <ele>138.647</ele>
        <time>2018-10-14T13:15:43Z</time>
      </trkpt>
      <trkpt lat="48.72272" lon="2.47343">
        <ele>138.64</ele>
        <time>2018-10-14T13:15:45Z</time>
      </trkpt>
      <trkpt lat="48.72271" lon="2.47346">
        <ele>138.632</ele>
        <time>2018-10-14T13:15:47Z</time>
      </trkpt>
      <trkpt lat="48.72268" lon="2.47353">
        <ele>138.617</ele>
        <time>2018-10-14T13:15:51Z</time>
      </trkpt>
      <trkpt lat="48.72267" lon="2.47357">
        <ele>138.61</ele>
        <time>2018-10-14T13:15:53Z</time>
      </trkpt>
      <trkpt lat="48.72264" lon="2.47364">
        <ele>138.594</ele>
        <time>2018-10-14T13:15:58Z</time>
      </trkpt>
      <trkpt lat="48.72262" lon="2.47367">
        <ele>138.588</ele>
        <time>2018-10-14T13:16:00Z</time>
      </trkpt>
      <trkpt lat="48.7226" lon="2.47373">
        <ele>138.579</ele>
        <time>2018-10-14T13:16:04Z</time>
      </trkpt>
      <trkpt lat="48.72259" lon="2.47381">
        <ele>138.574</ele>
        <time>2018-10-14T13:16:08Z</time>
      </trkpt>
      <trkpt lat="48.72256" lon="2.47387">
        <ele>138.573</ele>
        <time>2018-10-14T13:16:11Z</time>
      </trkpt>
      <trkpt lat="48.72251" lon="2.4739">
        <ele>138.573</ele>
        <time>2018-10-14T13:16:16Z</time>
      </trkpt>
      <trkpt lat="48.72249" lon="2.47391">
        <ele>138.574</ele>
        <time>2018-10-14T13:16:19Z</time>
      </trkpt>
      <trkpt lat="48.72249" lon="2.47391">
        <ele>138.574</ele>
        <time>2018-10-14T13:16:27Z</time>
      </trkpt>
      <trkpt lat="48.72249" lon="2.47391">
        <ele>89.1</ele>
        <time>2018-10-14T13:16:27Z</time>
      </trkpt>
      <trkpt lat="48.72249" lon="2.47391">
        <ele>89.1</ele>
        <time>2018-10-14T13:16:39Z</time>
      </trkpt>
      <trkpt lat="48.72245" lon="2.47415">
        <ele>138.612</ele>
        <time>2018-10-14T13:16:39Z</time>
      </trkpt>
      <trkpt lat="48.72243" lon="2.47422">
        <ele>138.619</ele>
        <time>2018-10-14T13:16:44Z</time>
      </trkpt>
      <trkpt lat="48.72244" lon="2.4743">
        <ele>138.625</ele>
        <time>2018-10-14T13:16:48Z</time>
      </trkpt>
      <trkpt lat="48.72243" lon="2.47437">
        <ele>138.632</ele>
        <time>2018-10-14T13:16:52Z</time>
      </trkpt>
      <trkpt lat="48.72244" lon="2.47446">
        <ele>138.641</ele>
        <time>2018-10-14T13:16:56Z</time>
      </trkpt>
      <trkpt lat="48.72243" lon="2.47452">
        <ele>138.651</ele>
        <time>2018-10-14T13:16:59Z</time>
      </trkpt>
      <trkpt lat="48.72243" lon="2.47456">
        <ele>138.658</ele>
        <time>2018-10-14T13:17:01Z</time>
      </trkpt>
      <trkpt lat="48.7224" lon="2.47463">
        <ele>138.674</ele>
        <time>2018-10-14T13:17:05Z</time>
      </trkpt>
      <trkpt lat="48.72239" lon="2.47468">
        <ele>138.682</ele>
        <time>2018-10-14T13:17:07Z</time>
      </trkpt>
      <trkpt lat="48.72237" lon="2.47473">
        <ele>138.694</ele>
        <time>2018-10-14T13:17:10Z</time>
      </trkpt>
      <trkpt lat="48.72236" lon="2.47477">
        <ele>138.702</ele>
        <time>2018-10-14T13:17:12Z</time>
      </trkpt>
      <trkpt lat="48.72235" lon="2.47483">
        <ele>138.725</ele>
        <time>2018-10-14T13:17:17Z</time>
      </trkpt>
      <trkpt lat="48.72237" lon="2.47491">
        <ele>138.751</ele>
        <time>2018-10-14T13:17:22Z</time>
      </trkpt>
      <trkpt lat="48.7224" lon="2.475">
        <ele>138.77</ele>
        <time>2018-10-14T13:17:27Z</time>
      </trkpt>
      <trkpt lat="48.72237" lon="2.47507">
        <ele>138.784</ele>
        <time>2018-10-14T13:17:31Z</time>
      </trkpt>
      <trkpt lat="48.72235" lon="2.47514">
        <ele>138.797</ele>
        <time>2018-10-14T13:17:35Z</time>
      </trkpt>
      <trkpt lat="48.72234" lon="2.4752">
        <ele>138.808</ele>
        <time>2018-10-14T13:17:38Z</time>
      </trkpt>
      <trkpt lat="48.72233" lon="2.47524">
        <ele>138.816</ele>
        <time>2018-10-14T13:17:40Z</time>
      </trkpt>
      <trkpt lat="48.72231" lon="2.47532">
        <ele>138.829</ele>
        <time>2018-10-14T13:17:43Z</time>
      </trkpt>
      <trkpt lat="48.72232" lon="2.4754">
        <ele>138.845</ele>
        <time>2018-10-14T13:17:46Z</time>
      </trkpt>
      <trkpt lat="48.72234" lon="2.47547">
        <ele>138.87</ele>
        <time>2018-10-14T13:17:50Z</time>
      </trkpt>
      <trkpt lat="48.72232" lon="2.47555">
        <ele>138.904</ele>
        <time>2018-10-14T13:17:55Z</time>
      </trkpt>
      <trkpt lat="48.72229" lon="2.4756">
        <ele>138.924</ele>
        <time>2018-10-14T13:17:58Z</time>
      </trkpt>
      <trkpt lat="48.72227" lon="2.47563">
        <ele>138.932</ele>
        <time>2018-10-14T13:17:59Z</time>
      </trkpt>
      <trkpt lat="48.72226" lon="2.47567">
        <ele>138.948</ele>
        <time>2018-10-14T13:18:01Z</time>
      </trkpt>
      <trkpt lat="48.72226" lon="2.47567">
        <ele>90.9</ele>
        <time>2018-10-14T13:18:09Z</time>
      </trkpt>
      <trkpt lat="48.72226" lon="2.47567">
        <ele>90.9</ele>
        <time>2018-10-14T13:18:37Z</time>
      </trkpt>
      <trkpt lat="48.72218" lon="2.47586">
        <ele>139.188</ele>
        <time>2018-10-14T13:18:37Z</time>
      </trkpt>
      <trkpt lat="48.72219" lon="2.47594">
        <ele>139.215</ele>
        <time>2018-10-14T13:18:41Z</time>
      </trkpt>
      <trkpt lat="48.72215" lon="2.47599">
        <ele>139.235</ele>
        <time>2018-10-14T13:18:44Z</time>
      </trkpt>
      <trkpt lat="48.72213" lon="2.47602">
        <ele>139.248</ele>
        <time>2018-10-14T13:18:46Z</time>
      </trkpt>
      <trkpt lat="48.72209" lon="2.47606">
        <ele>139.29</ele>
        <time>2018-10-14T13:18:52Z</time>
      </trkpt>
      <trkpt lat="48.72207" lon="2.47613">
        <ele>139.319</ele>
        <time>2018-10-14T13:18:56Z</time>
      </trkpt>
      <trkpt lat="48.72207" lon="2.4762">
        <ele>139.349</ele>
        <time>2018-10-14T13:19:00Z</time>
      </trkpt>
      <trkpt lat="48.72208" lon="2.47628">
        <ele>139.397</ele>
        <time>2018-10-14T13:19:06Z</time>
      </trkpt>
      <trkpt lat="48.72209" lon="2.47632">
        <ele>139.413</ele>
        <time>2018-10-14T13:19:08Z</time>
      </trkpt>
      <trkpt lat="48.72209" lon="2.47636">
        <ele>139.43</ele>
        <time>2018-10-14T13:19:11Z</time>
      </trkpt>
      <trkpt lat="48.72206" lon="2.47642">
        <ele>139.569</ele>
        <time>2018-10-14T13:20:03Z</time>
      </trkpt>
      <trkpt lat="48.722" lon="2.47644">
        <ele>139.612</ele>
        <time>2018-10-14T13:20:11Z</time>
      </trkpt>
      <trkpt lat="48.72195" lon="2.47644">
        <ele>139.629</ele>
        <time>2018-10-14T13:20:14Z</time>
      </trkpt>
      <trkpt lat="48.72192" lon="2.47645">
        <ele>139.64</ele>
        <time>2018-10-14T13:20:16Z</time>
      </trkpt>
      <trkpt lat="48.72189" lon="2.47639">
        <ele>139.666</ele>
        <time>2018-10-14T13:20:21Z</time>
      </trkpt>
      <trkpt lat="48.72188" lon="2.47632">
        <ele>139.693</ele>
        <time>2018-10-14T13:20:27Z</time>
      </trkpt>
      <trkpt lat="48.72186" lon="2.47625">
        <ele>139.716</ele>
        <time>2018-10-14T13:20:32Z</time>
      </trkpt>
      <trkpt lat="48.72185" lon="2.47617">
        <ele>139.733</ele>
        <time>2018-10-14T13:20:36Z</time>
      </trkpt>
      <trkpt lat="48.72185" lon="2.4761">
        <ele>139.749</ele>
        <time>2018-10-14T13:20:40Z</time>
      </trkpt>
      <trkpt lat="48.72185" lon="2.47606">
        <ele>139.761</ele>
        <time>2018-10-14T13:20:43Z</time>
      </trkpt>
      <trkpt lat="48.72186" lon="2.47597">
        <ele>139.776</ele>
        <time>2018-10-14T13:20:47Z</time>
      </trkpt>
      <trkpt lat="48.72183" lon="2.4759">
        <ele>139.797</ele>
        <time>2018-10-14T13:20:53Z</time>
      </trkpt>
      <trkpt lat="48.72179" lon="2.47584">
        <ele>139.807</ele>
        <time>2018-10-14T13:20:56Z</time>
      </trkpt>
      <trkpt lat="48.72174" lon="2.47581">
        <ele>139.818</ele>
        <time>2018-10-14T13:21:00Z</time>
      </trkpt>
      <trkpt lat="48.72165" lon="2.4758">
        <ele>139.823</ele>
        <time>2018-10-14T13:21:03Z</time>
      </trkpt>
      <trkpt lat="48.72161" lon="2.47578">
        <ele>139.828</ele>
        <time>2018-10-14T13:21:06Z</time>
      </trkpt>
      <trkpt lat="48.72155" lon="2.47575">
        <ele>139.839</ele>
        <time>2018-10-14T13:21:10Z</time>
      </trkpt>
      <trkpt lat="48.7215" lon="2.47573">
        <ele>139.847</ele>
        <time>2018-10-14T13:21:13Z</time>
      </trkpt>
      <trkpt lat="48.72146" lon="2.47569">
        <ele>139.854</ele>
        <time>2018-10-14T13:21:16Z</time>
      </trkpt>
      <trkpt lat="48.72141" lon="2.47569">
        <ele>139.863</ele>
        <time>2018-10-14T13:21:20Z</time>
      </trkpt>
      <trkpt lat="48.72137" lon="2.47569">
        <ele>139.869</ele>
        <time>2018-10-14T13:21:23Z</time>
      </trkpt>
      <trkpt lat="48.72132" lon="2.47566">
        <ele>139.879</ele>
        <time>2018-10-14T13:21:27Z</time>
      </trkpt>
      <trkpt lat="48.72129" lon="2.47564">
        <ele>139.884</ele>
        <time>2018-10-14T13:21:29Z</time>
      </trkpt>
      <trkpt lat="48.72126" lon="2.47562">
        <ele>139.89</ele>
        <time>2018-10-14T13:21:32Z</time>
      </trkpt>
      <trkpt lat="48.72123" lon="2.47557">
        <ele>139.91</ele>
        <time>2018-10-14T13:21:39Z</time>
      </trkpt>
      <trkpt lat="48.72122" lon="2.47548">
        <ele>139.927</ele>
        <time>2018-10-14T13:21:43Z</time>
      </trkpt>
      <trkpt lat="48.72121" lon="2.47541">
        <ele>139.946</ele>
        <time>2018-10-14T13:21:46Z</time>
      </trkpt>
      <trkpt lat="48.72119" lon="2.47535">
        <ele>139.971</ele>
        <time>2018-10-14T13:21:50Z</time>
      </trkpt>
      <trkpt lat="48.72114" lon="2.47534">
        <ele>139.99</ele>
        <time>2018-10-14T13:21:53Z</time>
      </trkpt>
      <trkpt lat="48.72108" lon="2.47533">
        <ele>140.008</ele>
        <time>2018-10-14T13:21:56Z</time>
      </trkpt>
      <trkpt lat="48.72104" lon="2.47531">
        <ele>140.027</ele>
        <time>2018-10-14T13:21:59Z</time>
      </trkpt>
      <trkpt lat="48.72101" lon="2.47531">
        <ele>140.038</ele>
        <time>2018-10-14T13:22:01Z</time>
      </trkpt>
      <trkpt lat="48.72096" lon="2.47532">
        <ele>140.064</ele>
        <time>2018-10-14T13:22:06Z</time>
      </trkpt>
      <trkpt lat="48.72091" lon="2.47536">
        <ele>140.083</ele>
        <time>2018-10-14T13:22:10Z</time>
      </trkpt>
      <trkpt lat="48.72088" lon="2.47542">
        <ele>140.107</ele>
        <time>2018-10-14T13:22:15Z</time>
      </trkpt>
      <trkpt lat="48.72085" lon="2.47548">
        <ele>140.124</ele>
        <time>2018-10-14T13:22:19Z</time>
      </trkpt>
      <trkpt lat="48.72086" lon="2.47555">
        <ele>140.137</ele>
        <time>2018-10-14T13:22:22Z</time>
      </trkpt>
      <trkpt lat="48.72086" lon="2.4756">
        <ele>140.144</ele>
        <time>2018-10-14T13:22:24Z</time>
      </trkpt>
      <trkpt lat="48.72085" lon="2.47568">
        <ele>140.157</ele>
        <time>2018-10-14T13:22:28Z</time>
      </trkpt>
      <trkpt lat="48.72082" lon="2.47576">
        <ele>140.17</ele>
        <time>2018-10-14T13:22:32Z</time>
      </trkpt>
      <trkpt lat="48.72081" lon="2.47584">
        <ele>140.18</ele>
        <time>2018-10-14T13:22:35Z</time>
      </trkpt>
      <trkpt lat="48.7208" lon="2.47591">
        <ele>140.19</ele>
        <time>2018-10-14T13:22:38Z</time>
      </trkpt>
      <trkpt lat="48.72077" lon="2.47597">
        <ele>140.203</ele>
        <time>2018-10-14T13:22:42Z</time>
      </trkpt>
      <trkpt lat="48.72075" lon="2.47605">
        <ele>140.219</ele>
        <time>2018-10-14T13:22:46Z</time>
      </trkpt>
      <trkpt lat="48.72073" lon="2.47609">
        <ele>140.232</ele>
        <time>2018-10-14T13:22:49Z</time>
      </trkpt>
      <trkpt lat="48.72071" lon="2.47615">
        <ele>140.252</ele>
        <time>2018-10-14T13:22:53Z</time>
      </trkpt>
      <trkpt lat="48.72068" lon="2.47619">
        <ele>140.267</ele>
        <time>2018-10-14T13:22:56Z</time>
      </trkpt>
      <trkpt lat="48.72065" lon="2.47622">
        <ele>140.275</ele>
        <time>2018-10-14T13:22:58Z</time>
      </trkpt>
      <trkpt lat="48.72061" lon="2.47624">
        <ele>140.292</ele>
        <time>2018-10-14T13:23:02Z</time>
      </trkpt>
      <trkpt lat="48.72057" lon="2.47629">
        <ele>140.306</ele>
        <time>2018-10-14T13:23:05Z</time>
      </trkpt>
      <trkpt lat="48.72055" lon="2.47637">
        <ele>140.322</ele>
        <time>2018-10-14T13:23:08Z</time>
      </trkpt>
      <trkpt lat="48.72053" lon="2.47641">
        <ele>140.334</ele>
        <time>2018-10-14T13:23:10Z</time>
      </trkpt>
      <trkpt lat="48.72049" lon="2.47647">
        <ele>140.358</ele>
        <time>2018-10-14T13:23:14Z</time>
      </trkpt>
      <trkpt lat="48.72045" lon="2.4765">
        <ele>140.381</ele>
        <time>2018-10-14T13:23:18Z</time>
      </trkpt>
      <trkpt lat="48.72041" lon="2.47653">
        <ele>140.397</ele>
        <time>2018-10-14T13:23:21Z</time>
      </trkpt>
      <trkpt lat="48.72038" lon="2.47658">
        <ele>140.407</ele>
        <time>2018-10-14T13:23:23Z</time>
      </trkpt>
      <trkpt lat="48.72035" lon="2.47661">
        <ele>140.43</ele>
        <time>2018-10-14T13:23:27Z</time>
      </trkpt>
      <trkpt lat="48.72035" lon="2.47661">
        <ele>140.43</ele>
        <time>2018-10-14T13:26:04Z</time>
      </trkpt>
      <trkpt lat="48.72019" lon="2.47657">
        <ele>140.917</ele>
        <time>2018-10-14T13:26:07Z</time>
      </trkpt>
      <trkpt lat="48.72014" lon="2.47654">
        <ele>140.922</ele>
        <time>2018-10-14T13:26:11Z</time>
      </trkpt>
      <trkpt lat="48.7201" lon="2.4765">
        <ele>140.925</ele>
        <time>2018-10-14T13:26:14Z</time>
      </trkpt>
      <trkpt lat="48.72006" lon="2.47646">
        <ele>140.929</ele>
        <time>2018-10-14T13:26:17Z</time>
      </trkpt>
      <trkpt lat="48.72003" lon="2.47644">
        <ele>140.931</ele>
        <time>2018-10-14T13:26:19Z</time>
      </trkpt>
      <trkpt lat="48.72" lon="2.47637">
        <ele>140.936</ele>
        <time>2018-10-14T13:26:24Z</time>
      </trkpt>
      <trkpt lat="48.71997" lon="2.47631">
        <ele>140.94</ele>
        <time>2018-10-14T13:26:29Z</time>
      </trkpt>
      <trkpt lat="48.71994" lon="2.47626">
        <ele>140.942</ele>
        <time>2018-10-14T13:26:33Z</time>
      </trkpt>
      <trkpt lat="48.7199" lon="2.4762">
        <ele>140.942</ele>
        <time>2018-10-14T13:26:37Z</time>
      </trkpt>
      <trkpt lat="48.71987" lon="2.47614">
        <ele>140.94</ele>
        <time>2018-10-14T13:26:42Z</time>
      </trkpt>
      <trkpt lat="48.71983" lon="2.47608">
        <ele>140.938</ele>
        <time>2018-10-14T13:26:45Z</time>
      </trkpt>
      <trkpt lat="48.71981" lon="2.47601">
        <ele>140.936</ele>
        <time>2018-10-14T13:26:49Z</time>
      </trkpt>
      <trkpt lat="48.71976" lon="2.47598">
        <ele>140.935</ele>
        <time>2018-10-14T13:26:53Z</time>
      </trkpt>
      <trkpt lat="48.71972" lon="2.47595">
        <ele>140.936</ele>
        <time>2018-10-14T13:26:56Z</time>
      </trkpt>
      <trkpt lat="48.71969" lon="2.47593">
        <ele>140.938</ele>
        <time>2018-10-14T13:26:58Z</time>
      </trkpt>
      <trkpt lat="48.71966" lon="2.47591">
        <ele>140.948</ele>
        <time>2018-10-14T13:27:02Z</time>
      </trkpt>
      <trkpt lat="48.71966" lon="2.47591">
        <ele>90.1</ele>
        <time>2018-10-14T13:27:08Z</time>
      </trkpt>
      <trkpt lat="48.71966" lon="2.47591">
        <ele>90.1</ele>
        <time>2018-10-14T13:27:14Z</time>
      </trkpt>
      <trkpt lat="48.71959" lon="2.47583">
        <ele>141.007</ele>
        <time>2018-10-14T13:27:14Z</time>
      </trkpt>
      <trkpt lat="48.71959" lon="2.47583">
        <ele>141.007</ele>
        <time>2018-10-14T13:27:22Z</time>
      </trkpt>
      <trkpt lat="48.71959" lon="2.47583">
        <ele>89.5</ele>
        <time>2018-10-14T13:27:22Z</time>
      </trkpt>
      <trkpt lat="48.71959" lon="2.47583">
        <ele>89.5</ele>
        <time>2018-10-14T13:29:12Z</time>
      </trkpt>
      <trkpt lat="48.71975" lon="2.47545">
        <ele>141.278</ele>
        <time>2018-10-14T13:29:12Z</time>
      </trkpt>
      <trkpt lat="48.71975" lon="2.47538">
        <ele>141.279</ele>
        <time>2018-10-14T13:29:15Z</time>
      </trkpt>
      <trkpt lat="48.71976" lon="2.47534">
        <ele>141.28</ele>
        <time>2018-10-14T13:29:18Z</time>
      </trkpt>
      <trkpt lat="48.71976" lon="2.47534">
        <ele>89.3</ele>
        <time>2018-10-14T13:29:25Z</time>
      </trkpt>
      <trkpt lat="48.71976" lon="2.47534">
        <ele>89.3</ele>
        <time>2018-10-14T13:30:08Z</time>
      </trkpt>
      <trkpt lat="48.72002" lon="2.47507">
        <ele>141.386</ele>
        <time>2018-10-14T13:30:08Z</time>
      </trkpt>
      <trkpt lat="48.72003" lon="2.47498">
        <ele>141.42</ele>
        <time>2018-10-14T13:30:13Z</time>
      </trkpt>
      <trkpt lat="48.72005" lon="2.47492">
        <ele>141.458</ele>
        <time>2018-10-14T13:30:18Z</time>
      </trkpt>
      <trkpt lat="48.72006" lon="2.47487">
        <ele>141.49</ele>
        <time>2018-10-14T13:30:22Z</time>
      </trkpt>
      <trkpt lat="48.72006" lon="2.4748">
        <ele>141.534</ele>
        <time>2018-10-14T13:30:28Z</time>
      </trkpt>
      <trkpt lat="48.72005" lon="2.47472">
        <ele>141.574</ele>
        <time>2018-10-14T13:30:34Z</time>
      </trkpt>
      <trkpt lat="48.72004" lon="2.47469">
        <ele>141.611</ele>
        <time>2018-10-14T13:30:41Z</time>
      </trkpt>
      <trkpt lat="48.72004" lon="2.47469">
        <ele>141.611</ele>
        <time>2018-10-14T13:36:57Z</time>
      </trkpt>
      <trkpt lat="48.72005" lon="2.47476">
        <ele>138.24</ele>
        <time>2018-10-14T13:45:16Z</time>
      </trkpt>
      <trkpt lat="48.72005" lon="2.4748">
        <ele>138.206</ele>
        <time>2018-10-14T13:45:20Z</time>
      </trkpt>
      <trkpt lat="48.72004" lon="2.47489">
        <ele>138.173</ele>
        <time>2018-10-14T13:45:24Z</time>
      </trkpt>
      <trkpt lat="48.72001" lon="2.47501">
        <ele>138.128</ele>
        <time>2018-10-14T13:45:29Z</time>
      </trkpt>
      <trkpt lat="48.71998" lon="2.47507">
        <ele>138.1</ele>
        <time>2018-10-14T13:45:32Z</time>
      </trkpt>
      <trkpt lat="48.71997" lon="2.47511">
        <ele>138.073</ele>
        <time>2018-10-14T13:45:35Z</time>
      </trkpt>
      <trkpt lat="48.71994" lon="2.47516">
        <ele>138.037</ele>
        <time>2018-10-14T13:45:39Z</time>
      </trkpt>
      <trkpt lat="48.7199" lon="2.4752">
        <ele>138.009</ele>
        <time>2018-10-14T13:45:42Z</time>
      </trkpt>
      <trkpt lat="48.71985" lon="2.47523">
        <ele>137.973</ele>
        <time>2018-10-14T13:45:46Z</time>
      </trkpt>
      <trkpt lat="48.7198" lon="2.47529">
        <ele>137.933</ele>
        <time>2018-10-14T13:45:50Z</time>
      </trkpt>
      <trkpt lat="48.71978" lon="2.47532">
        <ele>137.911</ele>
        <time>2018-10-14T13:45:52Z</time>
      </trkpt>
      <trkpt lat="48.71973" lon="2.47534">
        <ele>137.868</ele>
        <time>2018-10-14T13:45:56Z</time>
      </trkpt>
      <trkpt lat="48.7197" lon="2.47535">
        <ele>137.833</ele>
        <time>2018-10-14T13:45:59Z</time>
      </trkpt>
      <trkpt lat="48.7197" lon="2.47535">
        <ele>137.833</ele>
        <time>2018-10-14T13:46:06Z</time>
      </trkpt>
      <trkpt lat="48.7197" lon="2.47535">
        <ele>89.3</ele>
        <time>2018-10-14T13:46:06Z</time>
      </trkpt>
      <trkpt lat="48.7197" lon="2.47535">
        <ele>89.3</ele>
        <time>2018-10-14T13:46:33Z</time>
      </trkpt>
      <trkpt lat="48.71964" lon="2.47569">
        <ele>137.56</ele>
        <time>2018-10-14T13:46:33Z</time>
      </trkpt>
      <trkpt lat="48.71962" lon="2.47572">
        <ele>137.547</ele>
        <time>2018-10-14T13:46:35Z</time>
      </trkpt>
      <trkpt lat="48.7196" lon="2.47575">
        <ele>137.528</ele>
        <time>2018-10-14T13:46:38Z</time>
      </trkpt>
      <trkpt lat="48.71959" lon="2.47582">
        <ele>137.499</ele>
        <time>2018-10-14T13:46:43Z</time>
      </trkpt>
      <trkpt lat="48.71957" lon="2.47589">
        <ele>137.465</ele>
        <time>2018-10-14T13:46:50Z</time>
      </trkpt>
      <trkpt lat="48.71955" lon="2.47595">
        <ele>137.45</ele>
        <time>2018-10-14T13:46:54Z</time>
      </trkpt>
      <trkpt lat="48.71952" lon="2.476">
        <ele>137.435</ele>
        <time>2018-10-14T13:46:58Z</time>
      </trkpt>
      <trkpt lat="48.71949" lon="2.47607">
        <ele>137.419</ele>
        <time>2018-10-14T13:47:02Z</time>
      </trkpt>
      <trkpt lat="48.71949" lon="2.47614">
        <ele>137.404</ele>
        <time>2018-10-14T13:47:06Z</time>
      </trkpt>
      <trkpt lat="48.71948" lon="2.47618">
        <ele>137.393</ele>
        <time>2018-10-14T13:47:09Z</time>
      </trkpt>
      <trkpt lat="48.71945" lon="2.47625">
        <ele>137.376</ele>
        <time>2018-10-14T13:47:13Z</time>
      </trkpt>
      <trkpt lat="48.71943" lon="2.47633">
        <ele>137.358</ele>
        <time>2018-10-14T13:47:18Z</time>
      </trkpt>
      <trkpt lat="48.71941" lon="2.4764">
        <ele>137.351</ele>
        <time>2018-10-14T13:47:21Z</time>
      </trkpt>
      <trkpt lat="48.7194" lon="2.47645">
        <ele>137.345</ele>
        <time>2018-10-14T13:47:24Z</time>
      </trkpt>
      <trkpt lat="48.71937" lon="2.47651">
        <ele>137.336</ele>
        <time>2018-10-14T13:47:28Z</time>
      </trkpt>
      <trkpt lat="48.71935" lon="2.47657">
        <ele>137.327</ele>
        <time>2018-10-14T13:47:32Z</time>
      </trkpt>
      <trkpt lat="48.71931" lon="2.47666">
        <ele>137.322</ele>
        <time>2018-10-14T13:47:35Z</time>
      </trkpt>
      <trkpt lat="48.71928" lon="2.47673">
        <ele>137.326</ele>
        <time>2018-10-14T13:47:38Z</time>
      </trkpt>
      <trkpt lat="48.71926" lon="2.47677">
        <ele>137.337</ele>
        <time>2018-10-14T13:47:40Z</time>
      </trkpt>
      <trkpt lat="48.71924" lon="2.47683">
        <ele>137.358</ele>
        <time>2018-10-14T13:47:43Z</time>
      </trkpt>
      <trkpt lat="48.71922" lon="2.4769">
        <ele>137.404</ele>
        <time>2018-10-14T13:47:48Z</time>
      </trkpt>
      <trkpt lat="48.71921" lon="2.47697">
        <ele>137.451</ele>
        <time>2018-10-14T13:47:52Z</time>
      </trkpt>
      <trkpt lat="48.71918" lon="2.47704">
        <ele>137.506</ele>
        <time>2018-10-14T13:47:56Z</time>
      </trkpt>
      <trkpt lat="48.71916" lon="2.47708">
        <ele>137.537</ele>
        <time>2018-10-14T13:47:58Z</time>
      </trkpt>
      <trkpt lat="48.71914" lon="2.47712">
        <ele>137.57</ele>
        <time>2018-10-14T13:48:00Z</time>
      </trkpt>
      <trkpt lat="48.71913" lon="2.47716">
        <ele>137.603</ele>
        <time>2018-10-14T13:48:02Z</time>
      </trkpt>
      <trkpt lat="48.71911" lon="2.47724">
        <ele>137.69</ele>
        <time>2018-10-14T13:48:07Z</time>
      </trkpt>
      <trkpt lat="48.71908" lon="2.47732">
        <ele>137.762</ele>
        <time>2018-10-14T13:48:11Z</time>
      </trkpt>
      <trkpt lat="48.71907" lon="2.47738">
        <ele>137.814</ele>
        <time>2018-10-14T13:48:14Z</time>
      </trkpt>
      <trkpt lat="48.71906" lon="2.47745">
        <ele>137.863</ele>
        <time>2018-10-14T13:48:17Z</time>
      </trkpt>
      <trkpt lat="48.71905" lon="2.47752">
        <ele>137.91</ele>
        <time>2018-10-14T13:48:20Z</time>
      </trkpt>
      <trkpt lat="48.71904" lon="2.47755">
        <ele>137.94</ele>
        <time>2018-10-14T13:48:22Z</time>
      </trkpt>
      <trkpt lat="48.71902" lon="2.47762">
        <ele>137.999</ele>
        <time>2018-10-14T13:48:26Z</time>
      </trkpt>
      <trkpt lat="48.719" lon="2.47768">
        <ele>138.054</ele>
        <time>2018-10-14T13:48:30Z</time>
      </trkpt>
      <trkpt lat="48.71899" lon="2.47776">
        <ele>138.106</ele>
        <time>2018-10-14T13:48:34Z</time>
      </trkpt>
      <trkpt lat="48.71899" lon="2.47785">
        <ele>138.157</ele>
        <time>2018-10-14T13:48:38Z</time>
      </trkpt>
      <trkpt lat="48.71898" lon="2.47792">
        <ele>138.193</ele>
        <time>2018-10-14T13:48:41Z</time>
      </trkpt>
      <trkpt lat="48.71897" lon="2.47799">
        <ele>138.238</ele>
        <time>2018-10-14T13:48:45Z</time>
      </trkpt>
      <trkpt lat="48.71897" lon="2.47803">
        <ele>138.257</ele>
        <time>2018-10-14T13:48:47Z</time>
      </trkpt>
      <trkpt lat="48.71896" lon="2.4781">
        <ele>138.301</ele>
        <time>2018-10-14T13:48:52Z</time>
      </trkpt>
      <trkpt lat="48.71893" lon="2.47818">
        <ele>138.339</ele>
        <time>2018-10-14T13:48:57Z</time>
      </trkpt>
      <trkpt lat="48.71894" lon="2.47825">
        <ele>138.357</ele>
        <time>2018-10-14T13:49:00Z</time>
      </trkpt>
      <trkpt lat="48.71895" lon="2.47833">
        <ele>138.384</ele>
        <time>2018-10-14T13:49:05Z</time>
      </trkpt>
      <trkpt lat="48.71896" lon="2.47838">
        <ele>138.399</ele>
        <time>2018-10-14T13:49:08Z</time>
      </trkpt>
      <trkpt lat="48.71895" lon="2.47846">
        <ele>138.407</ele>
        <time>2018-10-14T13:49:10Z</time>
      </trkpt>
      <trkpt lat="48.71895" lon="2.4785">
        <ele>138.413</ele>
        <time>2018-10-14T13:49:12Z</time>
      </trkpt>
      <trkpt lat="48.71894" lon="2.47854">
        <ele>138.421</ele>
        <time>2018-10-14T13:49:15Z</time>
      </trkpt>
      <trkpt lat="48.71896" lon="2.47861">
        <ele>138.425</ele>
        <time>2018-10-14T13:49:18Z</time>
      </trkpt>
      <trkpt lat="48.71896" lon="2.47865">
        <ele>138.425</ele>
        <time>2018-10-14T13:49:20Z</time>
      </trkpt>
      <trkpt lat="48.71899" lon="2.4787">
        <ele>138.424</ele>
        <time>2018-10-14T13:49:24Z</time>
      </trkpt>
      <trkpt lat="48.719" lon="2.47877">
        <ele>138.42</ele>
        <time>2018-10-14T13:49:28Z</time>
      </trkpt>
      <trkpt lat="48.71898" lon="2.47887">
        <ele>138.417</ele>
        <time>2018-10-14T13:49:33Z</time>
      </trkpt>
      <trkpt lat="48.71896" lon="2.47895">
        <ele>138.417</ele>
        <time>2018-10-14T13:49:38Z</time>
      </trkpt>
      <trkpt lat="48.71894" lon="2.47903">
        <ele>138.413</ele>
        <time>2018-10-14T13:49:44Z</time>
      </trkpt>
      <trkpt lat="48.71893" lon="2.47908">
        <ele>138.409</ele>
        <time>2018-10-14T13:49:47Z</time>
      </trkpt>
      <trkpt lat="48.71893" lon="2.47916">
        <ele>138.404</ele>
        <time>2018-10-14T13:49:51Z</time>
      </trkpt>
      <trkpt lat="48.71893" lon="2.47924">
        <ele>138.398</ele>
        <time>2018-10-14T13:49:54Z</time>
      </trkpt>
      <trkpt lat="48.71893" lon="2.47931">
        <ele>138.394</ele>
        <time>2018-10-14T13:49:57Z</time>
      </trkpt>
      <trkpt lat="48.71893" lon="2.47939">
        <ele>138.392</ele>
        <time>2018-10-14T13:50:03Z</time>
      </trkpt>
      <trkpt lat="48.71891" lon="2.47946">
        <ele>138.396</ele>
        <time>2018-10-14T13:50:07Z</time>
      </trkpt>
      <trkpt lat="48.71889" lon="2.47952">
        <ele>138.399</ele>
        <time>2018-10-14T13:50:10Z</time>
      </trkpt>
      <trkpt lat="48.71887" lon="2.47956">
        <ele>138.403</ele>
        <time>2018-10-14T13:50:13Z</time>
      </trkpt>
      <trkpt lat="48.71885" lon="2.47962">
        <ele>138.405</ele>
        <time>2018-10-14T13:50:15Z</time>
      </trkpt>
      <trkpt lat="48.71884" lon="2.47969">
        <ele>138.412</ele>
        <time>2018-10-14T13:50:20Z</time>
      </trkpt>
      <trkpt lat="48.7188" lon="2.47976">
        <ele>138.418</ele>
        <time>2018-10-14T13:50:25Z</time>
      </trkpt>
      <trkpt lat="48.71879" lon="2.47984">
        <ele>138.426</ele>
        <time>2018-10-14T13:50:30Z</time>
      </trkpt>
      <trkpt lat="48.71879" lon="2.4799">
        <ele>138.429</ele>
        <time>2018-10-14T13:50:32Z</time>
      </trkpt>
      <trkpt lat="48.71878" lon="2.47998">
        <ele>138.439</ele>
        <time>2018-10-14T13:50:37Z</time>
      </trkpt>
      <trkpt lat="48.71877" lon="2.48001">
        <ele>138.445</ele>
        <time>2018-10-14T13:50:39Z</time>
      </trkpt>
      <trkpt lat="48.71877" lon="2.48005">
        <ele>138.453</ele>
        <time>2018-10-14T13:50:41Z</time>
      </trkpt>
      <trkpt lat="48.71875" lon="2.48012">
        <ele>138.47</ele>
        <time>2018-10-14T13:50:45Z</time>
      </trkpt>
      <trkpt lat="48.71874" lon="2.48019">
        <ele>138.488</ele>
        <time>2018-10-14T13:50:49Z</time>
      </trkpt>
      <trkpt lat="48.71876" lon="2.48026">
        <ele>138.505</ele>
        <time>2018-10-14T13:50:53Z</time>
      </trkpt>
      <trkpt lat="48.71875" lon="2.48033">
        <ele>138.517</ele>
        <time>2018-10-14T13:50:57Z</time>
      </trkpt>
      <trkpt lat="48.71874" lon="2.48039">
        <ele>138.52</ele>
        <time>2018-10-14T13:51:01Z</time>
      </trkpt>
      <trkpt lat="48.71874" lon="2.48046">
        <ele>138.516</ele>
        <time>2018-10-14T13:51:04Z</time>
      </trkpt>
      <trkpt lat="48.71874" lon="2.48054">
        <ele>138.504</ele>
        <time>2018-10-14T13:51:07Z</time>
      </trkpt>
      <trkpt lat="48.71874" lon="2.48062">
        <ele>138.472</ele>
        <time>2018-10-14T13:51:11Z</time>
      </trkpt>
      <trkpt lat="48.71873" lon="2.48068">
        <ele>138.45</ele>
        <time>2018-10-14T13:51:13Z</time>
      </trkpt>
      <trkpt lat="48.71874" lon="2.48077">
        <ele>138.411</ele>
        <time>2018-10-14T13:51:16Z</time>
      </trkpt>
      <trkpt lat="48.71875" lon="2.48085">
        <ele>138.371</ele>
        <time>2018-10-14T13:51:19Z</time>
      </trkpt>
      <trkpt lat="48.71876" lon="2.48091">
        <ele>138.332</ele>
        <time>2018-10-14T13:51:22Z</time>
      </trkpt>
      <trkpt lat="48.71876" lon="2.48095">
        <ele>138.305</ele>
        <time>2018-10-14T13:51:24Z</time>
      </trkpt>
      <trkpt lat="48.71876" lon="2.48095">
        <ele>138.305</ele>
        <time>2018-10-14T13:51:31Z</time>
      </trkpt>
      <trkpt lat="48.71876" lon="2.48095">
        <ele>77.4</ele>
        <time>2018-10-14T13:51:31Z</time>
      </trkpt>
      <trkpt lat="48.71876" lon="2.48095">
        <ele>77.4</ele>
        <time>2018-10-14T13:51:39Z</time>
      </trkpt>
      <trkpt lat="48.71876" lon="2.48115">
        <ele>138.073</ele>
        <time>2018-10-14T13:51:39Z</time>
      </trkpt>
      <trkpt lat="48.71874" lon="2.48121">
        <ele>137.998</ele>
        <time>2018-10-14T13:51:44Z</time>
      </trkpt>
      <trkpt lat="48.71871" lon="2.48127">
        <ele>137.951</ele>
        <time>2018-10-14T13:51:47Z</time>
      </trkpt>
      <trkpt lat="48.7187" lon="2.48135">
        <ele>137.886</ele>
        <time>2018-10-14T13:51:51Z</time>
      </trkpt>
      <trkpt lat="48.71867" lon="2.48142">
        <ele>137.837</ele>
        <time>2018-10-14T13:51:54Z</time>
      </trkpt>
      <trkpt lat="48.71866" lon="2.48146">
        <ele>137.789</ele>
        <time>2018-10-14T13:51:57Z</time>
      </trkpt>
      <trkpt lat="48.71867" lon="2.48156">
        <ele>137.714</ele>
        <time>2018-10-14T13:52:02Z</time>
      </trkpt>
      <trkpt lat="48.71866" lon="2.48163">
        <ele>137.66</ele>
        <time>2018-10-14T13:52:06Z</time>
      </trkpt>
      <trkpt lat="48.71862" lon="2.48173">
        <ele>137.585</ele>
        <time>2018-10-14T13:52:12Z</time>
      </trkpt>
      <trkpt lat="48.71861" lon="2.48181">
        <ele>137.544</ele>
        <time>2018-10-14T13:52:15Z</time>
      </trkpt>
      <trkpt lat="48.7186" lon="2.48188">
        <ele>137.503</ele>
        <time>2018-10-14T13:52:18Z</time>
      </trkpt>
      <trkpt lat="48.71858" lon="2.48194">
        <ele>137.45</ele>
        <time>2018-10-14T13:52:22Z</time>
      </trkpt>
      <trkpt lat="48.71854" lon="2.48201">
        <ele>137.396</ele>
        <time>2018-10-14T13:52:26Z</time>
      </trkpt>
      <trkpt lat="48.71852" lon="2.48208">
        <ele>137.336</ele>
        <time>2018-10-14T13:52:30Z</time>
      </trkpt>
      <trkpt lat="48.71853" lon="2.48216">
        <ele>137.258</ele>
        <time>2018-10-14T13:52:35Z</time>
      </trkpt>
      <trkpt lat="48.71852" lon="2.48222">
        <ele>137.192</ele>
        <time>2018-10-14T13:52:39Z</time>
      </trkpt>
      <trkpt lat="48.71851" lon="2.48226">
        <ele>137.176</ele>
        <time>2018-10-14T13:52:40Z</time>
      </trkpt>
      <trkpt lat="48.7185" lon="2.48232">
        <ele>137.141</ele>
        <time>2018-10-14T13:52:42Z</time>
      </trkpt>
      <trkpt lat="48.71849" lon="2.48237">
        <ele>137.108</ele>
        <time>2018-10-14T13:52:44Z</time>
      </trkpt>
      <trkpt lat="48.71849" lon="2.48241">
        <ele>137.074</ele>
        <time>2018-10-14T13:52:46Z</time>
      </trkpt>
      <trkpt lat="48.71849" lon="2.48248">
        <ele>137.006</ele>
        <time>2018-10-14T13:52:50Z</time>
      </trkpt>
      <trkpt lat="48.71849" lon="2.48256">
        <ele>136.954</ele>
        <time>2018-10-14T13:52:53Z</time>
      </trkpt>
      <trkpt lat="48.71849" lon="2.4826">
        <ele>136.918</ele>
        <time>2018-10-14T13:52:55Z</time>
      </trkpt>
      <trkpt lat="48.71851" lon="2.48266">
        <ele>136.821</ele>
        <time>2018-10-14T13:53:00Z</time>
      </trkpt>
      <trkpt lat="48.71851" lon="2.48274">
        <ele>136.714</ele>
        <time>2018-10-14T13:53:05Z</time>
      </trkpt>
      <trkpt lat="48.71851" lon="2.4828">
        <ele>136.647</ele>
        <time>2018-10-14T13:53:08Z</time>
      </trkpt>
      <trkpt lat="48.71852" lon="2.48283">
        <ele>136.6</ele>
        <time>2018-10-14T13:53:10Z</time>
      </trkpt>
      <trkpt lat="48.71851" lon="2.4829">
        <ele>136.502</ele>
        <time>2018-10-14T13:53:14Z</time>
      </trkpt>
      <trkpt lat="48.71851" lon="2.48294">
        <ele>136.475</ele>
        <time>2018-10-14T13:53:15Z</time>
      </trkpt>
      <trkpt lat="48.71852" lon="2.48301">
        <ele>136.334</ele>
        <time>2018-10-14T13:53:20Z</time>
      </trkpt>
      <trkpt lat="48.71852" lon="2.48309">
        <ele>136.214</ele>
        <time>2018-10-14T13:53:24Z</time>
      </trkpt>
      <trkpt lat="48.71852" lon="2.48314">
        <ele>136.152</ele>
        <time>2018-10-14T13:53:26Z</time>
      </trkpt>
      <trkpt lat="48.7185" lon="2.48322">
        <ele>136.056</ele>
        <time>2018-10-14T13:53:29Z</time>
      </trkpt>
      <trkpt lat="48.71852" lon="2.48329">
        <ele>135.886</ele>
        <time>2018-10-14T13:53:34Z</time>
      </trkpt>
      <trkpt lat="48.71851" lon="2.48337">
        <ele>135.752</ele>
        <time>2018-10-14T13:53:38Z</time>
      </trkpt>
      <trkpt lat="48.71852" lon="2.48342">
        <ele>135.72</ele>
        <time>2018-10-14T13:53:39Z</time>
      </trkpt>
      <trkpt lat="48.7185" lon="2.48349">
        <ele>135.625</ele>
        <time>2018-10-14T13:53:42Z</time>
      </trkpt>
      <trkpt lat="48.71849" lon="2.48356">
        <ele>135.466</ele>
        <time>2018-10-14T13:53:47Z</time>
      </trkpt>
      <trkpt lat="48.71848" lon="2.48363">
        <ele>135.337</ele>
        <time>2018-10-14T13:53:51Z</time>
      </trkpt>
      <trkpt lat="48.71849" lon="2.48371">
        <ele>135.241</ele>
        <time>2018-10-14T13:53:54Z</time>
      </trkpt>
      <trkpt lat="48.7185" lon="2.48379">
        <ele>135.148</ele>
        <time>2018-10-14T13:53:57Z</time>
      </trkpt>
      <trkpt lat="48.7185" lon="2.48386">
        <ele>134.997</ele>
        <time>2018-10-14T13:54:02Z</time>
      </trkpt>
      <trkpt lat="48.7185" lon="2.48392">
        <ele>134.907</ele>
        <time>2018-10-14T13:54:05Z</time>
      </trkpt>
      <trkpt lat="48.71852" lon="2.48401">
        <ele>134.791</ele>
        <time>2018-10-14T13:54:09Z</time>
      </trkpt>
      <trkpt lat="48.71851" lon="2.48408">
        <ele>134.678</ele>
        <time>2018-10-14T13:54:13Z</time>
      </trkpt>
      <trkpt lat="48.7185" lon="2.48415">
        <ele>134.566</ele>
        <time>2018-10-14T13:54:17Z</time>
      </trkpt>
      <trkpt lat="48.7185" lon="2.48424">
        <ele>134.458</ele>
        <time>2018-10-14T13:54:21Z</time>
      </trkpt>
      <trkpt lat="48.71849" lon="2.48434">
        <ele>134.379</ele>
        <time>2018-10-14T13:54:24Z</time>
      </trkpt>
      <trkpt lat="48.71847" lon="2.48442">
        <ele>134.272</ele>
        <time>2018-10-14T13:54:28Z</time>
      </trkpt>
      <trkpt lat="48.71847" lon="2.48449">
        <ele>134.11</ele>
        <time>2018-10-14T13:54:34Z</time>
      </trkpt>
      <trkpt lat="48.71847" lon="2.48452">
        <ele>134.056</ele>
        <time>2018-10-14T13:54:36Z</time>
      </trkpt>
      <trkpt lat="48.71846" lon="2.48457">
        <ele>134.002</ele>
        <time>2018-10-14T13:54:38Z</time>
      </trkpt>
      <trkpt lat="48.71846" lon="2.48464">
        <ele>133.897</ele>
        <time>2018-10-14T13:54:42Z</time>
      </trkpt>
      <trkpt lat="48.71845" lon="2.48469">
        <ele>133.82</ele>
        <time>2018-10-14T13:54:45Z</time>
      </trkpt>
      <trkpt lat="48.71843" lon="2.48476">
        <ele>133.741</ele>
        <time>2018-10-14T13:54:48Z</time>
      </trkpt>
      <trkpt lat="48.71842" lon="2.48483">
        <ele>133.664</ele>
        <time>2018-10-14T13:54:51Z</time>
      </trkpt>
      <trkpt lat="48.71842" lon="2.48491">
        <ele>133.565</ele>
        <time>2018-10-14T13:54:55Z</time>
      </trkpt>
      <trkpt lat="48.71842" lon="2.48499">
        <ele>133.449</ele>
        <time>2018-10-14T13:55:00Z</time>
      </trkpt>
      <trkpt lat="48.71843" lon="2.48506">
        <ele>133.363</ele>
        <time>2018-10-14T13:55:04Z</time>
      </trkpt>
      <trkpt lat="48.71842" lon="2.48517">
        <ele>133.24</ele>
        <time>2018-10-14T13:55:10Z</time>
      </trkpt>
      <trkpt lat="48.71839" lon="2.48526">
        <ele>133.18</ele>
        <time>2018-10-14T13:55:13Z</time>
      </trkpt>
      <trkpt lat="48.7184" lon="2.48533">
        <ele>133.14</ele>
        <time>2018-10-14T13:55:15Z</time>
      </trkpt>
      <trkpt lat="48.7184" lon="2.48539">
        <ele>133.101</ele>
        <time>2018-10-14T13:55:17Z</time>
      </trkpt>
      <trkpt lat="48.71838" lon="2.48546">
        <ele>133.001</ele>
        <time>2018-10-14T13:55:22Z</time>
      </trkpt>
      <trkpt lat="48.71836" lon="2.48551">
        <ele>132.941</ele>
        <time>2018-10-14T13:55:25Z</time>
      </trkpt>
      <trkpt lat="48.71835" lon="2.48554">
        <ele>132.898</ele>
        <time>2018-10-14T13:55:27Z</time>
      </trkpt>
      <trkpt lat="48.71835" lon="2.48562">
        <ele>132.809</ele>
        <time>2018-10-14T13:55:31Z</time>
      </trkpt>
      <trkpt lat="48.71834" lon="2.48569">
        <ele>132.742</ele>
        <time>2018-10-14T13:55:34Z</time>
      </trkpt>
      <trkpt lat="48.71834" lon="2.48573">
        <ele>132.697</ele>
        <time>2018-10-14T13:55:36Z</time>
      </trkpt>
      <trkpt lat="48.71834" lon="2.48578">
        <ele>132.653</ele>
        <time>2018-10-14T13:55:38Z</time>
      </trkpt>
      <trkpt lat="48.71834" lon="2.48585">
        <ele>132.583</ele>
        <time>2018-10-14T13:55:41Z</time>
      </trkpt>
      <trkpt lat="48.71834" lon="2.4859">
        <ele>132.534</ele>
        <time>2018-10-14T13:55:43Z</time>
      </trkpt>
      <trkpt lat="48.71832" lon="2.48597">
        <ele>132.459</ele>
        <time>2018-10-14T13:55:46Z</time>
      </trkpt>
      <trkpt lat="48.71832" lon="2.486">
        <ele>132.432</ele>
        <time>2018-10-14T13:55:47Z</time>
      </trkpt>
      <trkpt lat="48.71832" lon="2.48608">
        <ele>132.324</ele>
        <time>2018-10-14T13:55:51Z</time>
      </trkpt>
      <trkpt lat="48.71832" lon="2.48613">
        <ele>132.239</ele>
        <time>2018-10-14T13:55:54Z</time>
      </trkpt>
      <trkpt lat="48.71832" lon="2.48616">
        <ele>132.18</ele>
        <time>2018-10-14T13:55:56Z</time>
      </trkpt>
      <trkpt lat="48.71832" lon="2.48623">
        <ele>132.088</ele>
        <time>2018-10-14T13:55:59Z</time>
      </trkpt>
      <trkpt lat="48.71832" lon="2.48631">
        <ele>131.962</ele>
        <time>2018-10-14T13:56:03Z</time>
      </trkpt>
      <trkpt lat="48.71832" lon="2.48636">
        <ele>131.861</ele>
        <time>2018-10-14T13:56:06Z</time>
      </trkpt>
      <trkpt lat="48.71833" lon="2.48643">
        <ele>131.72</ele>
        <time>2018-10-14T13:56:10Z</time>
      </trkpt>
      <trkpt lat="48.71834" lon="2.48647">
        <ele>131.645</ele>
        <time>2018-10-14T13:56:12Z</time>
      </trkpt>
      <trkpt lat="48.71835" lon="2.48653">
        <ele>131.567</ele>
        <time>2018-10-14T13:56:14Z</time>
      </trkpt>
      <trkpt lat="48.71836" lon="2.48658">
        <ele>131.49</ele>
        <time>2018-10-14T13:56:16Z</time>
      </trkpt>
      <trkpt lat="48.71836" lon="2.48664">
        <ele>131.377</ele>
        <time>2018-10-14T13:56:19Z</time>
      </trkpt>
      <trkpt lat="48.71837" lon="2.48668">
        <ele>131.304</ele>
        <time>2018-10-14T13:56:21Z</time>
      </trkpt>
      <trkpt lat="48.71838" lon="2.48676">
        <ele>131.162</ele>
        <time>2018-10-14T13:56:25Z</time>
      </trkpt>
      <trkpt lat="48.71839" lon="2.48683">
        <ele>131.022</ele>
        <time>2018-10-14T13:56:29Z</time>
      </trkpt>
      <trkpt lat="48.7184" lon="2.48688">
        <ele>130.919</ele>
        <time>2018-10-14T13:56:32Z</time>
      </trkpt>
      <trkpt lat="48.71841" lon="2.48695">
        <ele>130.716</ele>
        <time>2018-10-14T13:56:38Z</time>
      </trkpt>
      <trkpt lat="48.71844" lon="2.48702">
        <ele>130.579</ele>
        <time>2018-10-14T13:56:42Z</time>
      </trkpt>
      <trkpt lat="48.71844" lon="2.4871">
        <ele>130.439</ele>
        <time>2018-10-14T13:56:46Z</time>
      </trkpt>
      <trkpt lat="48.71845" lon="2.48718">
        <ele>130.301</ele>
        <time>2018-10-14T13:56:50Z</time>
      </trkpt>
      <trkpt lat="48.71846" lon="2.48722">
        <ele>130.199</ele>
        <time>2018-10-14T13:56:53Z</time>
      </trkpt>
      <trkpt lat="48.71847" lon="2.48729">
        <ele>130.057</ele>
        <time>2018-10-14T13:56:57Z</time>
      </trkpt>
      <trkpt lat="48.71848" lon="2.48733">
        <ele>129.986</ele>
        <time>2018-10-14T13:56:59Z</time>
      </trkpt>
      <trkpt lat="48.71849" lon="2.48737">
        <ele>129.914</ele>
        <time>2018-10-14T13:57:01Z</time>
      </trkpt>
      <trkpt lat="48.7185" lon="2.48742">
        <ele>129.843</ele>
        <time>2018-10-14T13:57:03Z</time>
      </trkpt>
      <trkpt lat="48.71851" lon="2.48746">
        <ele>129.773</ele>
        <time>2018-10-14T13:57:05Z</time>
      </trkpt>
      <trkpt lat="48.71852" lon="2.48749">
        <ele>129.703</ele>
        <time>2018-10-14T13:57:07Z</time>
      </trkpt>
      <trkpt lat="48.71853" lon="2.48753">
        <ele>129.6</ele>
        <time>2018-10-14T13:57:10Z</time>
      </trkpt>
      <trkpt lat="48.71854" lon="2.4876">
        <ele>129.466</ele>
        <time>2018-10-14T13:57:14Z</time>
      </trkpt>
      <trkpt lat="48.71855" lon="2.48764">
        <ele>129.37</ele>
        <time>2018-10-14T13:57:17Z</time>
      </trkpt>
      <trkpt lat="48.71856" lon="2.48769">
        <ele>129.279</ele>
        <time>2018-10-14T13:57:20Z</time>
      </trkpt>
      <trkpt lat="48.71856" lon="2.48776">
        <ele>129.164</ele>
        <time>2018-10-14T13:57:24Z</time>
      </trkpt>
      <trkpt lat="48.71856" lon="2.48781">
        <ele>129.107</ele>
        <time>2018-10-14T13:57:26Z</time>
      </trkpt>
      <trkpt lat="48.71855" lon="2.48789">
        <ele>128.971</ele>
        <time>2018-10-14T13:57:31Z</time>
      </trkpt>
      <trkpt lat="48.71854" lon="2.48796">
        <ele>128.896</ele>
        <time>2018-10-14T13:57:34Z</time>
      </trkpt>
      <trkpt lat="48.71853" lon="2.48804">
        <ele>128.823</ele>
        <time>2018-10-14T13:57:37Z</time>
      </trkpt>
      <trkpt lat="48.71853" lon="2.48811">
        <ele>128.752</ele>
        <time>2018-10-14T13:57:40Z</time>
      </trkpt>
      <trkpt lat="48.71853" lon="2.48815">
        <ele>128.706</ele>
        <time>2018-10-14T13:57:42Z</time>
      </trkpt>
      <trkpt lat="48.71853" lon="2.48821">
        <ele>128.637</ele>
        <time>2018-10-14T13:57:45Z</time>
      </trkpt>
      <trkpt lat="48.71851" lon="2.48829">
        <ele>128.549</ele>
        <time>2018-10-14T13:57:49Z</time>
      </trkpt>
      <trkpt lat="48.71848" lon="2.48833">
        <ele>128.409</ele>
        <time>2018-10-14T13:57:55Z</time>
      </trkpt>
      <trkpt lat="48.71846" lon="2.4884">
        <ele>128.291</ele>
        <time>2018-10-14T13:58:00Z</time>
      </trkpt>
      <trkpt lat="48.71842" lon="2.48846">
        <ele>128.155</ele>
        <time>2018-10-14T13:58:06Z</time>
      </trkpt>
      <trkpt lat="48.71841" lon="2.48848">
        <ele>128.092</ele>
        <time>2018-10-14T13:58:09Z</time>
      </trkpt>
      <trkpt lat="48.71837" lon="2.48854">
        <ele>128.013</ele>
        <time>2018-10-14T13:58:13Z</time>
      </trkpt>
      <trkpt lat="48.71833" lon="2.48856">
        <ele>127.954</ele>
        <time>2018-10-14T13:58:16Z</time>
      </trkpt>
      <trkpt lat="48.71827" lon="2.48855">
        <ele>127.874</ele>
        <time>2018-10-14T13:58:20Z</time>
      </trkpt>
      <trkpt lat="48.71821" lon="2.48853">
        <ele>127.816</ele>
        <time>2018-10-14T13:58:23Z</time>
      </trkpt>
      <trkpt lat="48.71818" lon="2.48852">
        <ele>127.777</ele>
        <time>2018-10-14T13:58:25Z</time>
      </trkpt>
      <trkpt lat="48.71812" lon="2.48852">
        <ele>127.721</ele>
        <time>2018-10-14T13:58:28Z</time>
      </trkpt>
      <trkpt lat="48.71807" lon="2.48852">
        <ele>127.648</ele>
        <time>2018-10-14T13:58:32Z</time>
      </trkpt>
      <trkpt lat="48.71803" lon="2.48851">
        <ele>127.596</ele>
        <time>2018-10-14T13:58:35Z</time>
      </trkpt>
      <trkpt lat="48.71799" lon="2.4885">
        <ele>127.563</ele>
        <time>2018-10-14T13:58:37Z</time>
      </trkpt>
      <trkpt lat="48.71794" lon="2.48851">
        <ele>127.469</ele>
        <time>2018-10-14T13:58:43Z</time>
      </trkpt>
      <trkpt lat="48.71789" lon="2.48852">
        <ele>127.41</ele>
        <time>2018-10-14T13:58:47Z</time>
      </trkpt>
      <trkpt lat="48.71784" lon="2.48851">
        <ele>127.366</ele>
        <time>2018-10-14T13:58:50Z</time>
      </trkpt>
      <trkpt lat="48.71779" lon="2.4885">
        <ele>127.307</ele>
        <time>2018-10-14T13:58:54Z</time>
      </trkpt>
      <trkpt lat="48.71775" lon="2.48848">
        <ele>127.249</ele>
        <time>2018-10-14T13:58:58Z</time>
      </trkpt>
      <trkpt lat="48.7177" lon="2.48848">
        <ele>127.205</ele>
        <time>2018-10-14T13:59:01Z</time>
      </trkpt>
      <trkpt lat="48.71765" lon="2.48848">
        <ele>127.159</ele>
        <time>2018-10-14T13:59:04Z</time>
      </trkpt>
      <trkpt lat="48.7176" lon="2.4885">
        <ele>127.087</ele>
        <time>2018-10-14T13:59:08Z</time>
      </trkpt>
      <trkpt lat="48.71756" lon="2.48855">
        <ele>126.997</ele>
        <time>2018-10-14T13:59:12Z</time>
      </trkpt>
      <trkpt lat="48.71753" lon="2.48858">
        <ele>126.899</ele>
        <time>2018-10-14T13:59:16Z</time>
      </trkpt>
      <trkpt lat="48.71749" lon="2.48862">
        <ele>126.797</ele>
        <time>2018-10-14T13:59:20Z</time>
      </trkpt>
      <trkpt lat="48.71747" lon="2.48868">
        <ele>126.691</ele>
        <time>2018-10-14T13:59:24Z</time>
      </trkpt>
      <trkpt lat="48.71744" lon="2.48876">
        <ele>126.585</ele>
        <time>2018-10-14T13:59:28Z</time>
      </trkpt>
      <trkpt lat="48.71742" lon="2.48883">
        <ele>126.473</ele>
        <time>2018-10-14T13:59:32Z</time>
      </trkpt>
      <trkpt lat="48.71739" lon="2.48889">
        <ele>126.383</ele>
        <time>2018-10-14T13:59:35Z</time>
      </trkpt>
      <trkpt lat="48.71735" lon="2.48895">
        <ele>126.254</ele>
        <time>2018-10-14T13:59:39Z</time>
      </trkpt>
      <trkpt lat="48.7173" lon="2.489">
        <ele>126.115</ele>
        <time>2018-10-14T13:59:43Z</time>
      </trkpt>
      <trkpt lat="48.71727" lon="2.48903">
        <ele>126.041</ele>
        <time>2018-10-14T13:59:45Z</time>
      </trkpt>
      <trkpt lat="48.71723" lon="2.48904">
        <ele>125.884</ele>
        <time>2018-10-14T13:59:49Z</time>
      </trkpt>
      <trkpt lat="48.7172" lon="2.48904">
        <ele>125.803</ele>
        <time>2018-10-14T13:59:51Z</time>
      </trkpt>
      <trkpt lat="48.71713" lon="2.48903">
        <ele>125.679</ele>
        <time>2018-10-14T13:59:54Z</time>
      </trkpt>
      <trkpt lat="48.7171" lon="2.48902">
        <ele>125.592</ele>
        <time>2018-10-14T13:59:56Z</time>
      </trkpt>
      <trkpt lat="48.71704" lon="2.48902">
        <ele>125.409</ele>
        <time>2018-10-14T14:00:00Z</time>
      </trkpt>
      <trkpt lat="48.71702" lon="2.48903">
        <ele>125.263</ele>
        <time>2018-10-14T14:00:03Z</time>
      </trkpt>
      <trkpt lat="48.71697" lon="2.48905">
        <ele>125.112</ele>
        <time>2018-10-14T14:00:06Z</time>
      </trkpt>
      <trkpt lat="48.71693" lon="2.48907">
        <ele>125.008</ele>
        <time>2018-10-14T14:00:08Z</time>
      </trkpt>
      <trkpt lat="48.71688" lon="2.48908">
        <ele>124.796</ele>
        <time>2018-10-14T14:00:12Z</time>
      </trkpt>
      <trkpt lat="48.71685" lon="2.48909">
        <ele>124.583</ele>
        <time>2018-10-14T14:00:16Z</time>
      </trkpt>
      <trkpt lat="48.71687" lon="2.48922">
        <ele>123.967</ele>
        <time>2018-10-14T14:00:27Z</time>
      </trkpt>
      <trkpt lat="48.71686" lon="2.48931">
        <ele>123.797</ele>
        <time>2018-10-14T14:00:30Z</time>
      </trkpt>
      <trkpt lat="48.71685" lon="2.48934">
        <ele>123.681</ele>
        <time>2018-10-14T14:00:32Z</time>
      </trkpt>
      <trkpt lat="48.71683" lon="2.48942">
        <ele>123.389</ele>
        <time>2018-10-14T14:00:37Z</time>
      </trkpt>
      <trkpt lat="48.71681" lon="2.48949">
        <ele>123.211</ele>
        <time>2018-10-14T14:00:40Z</time>
      </trkpt>
      <trkpt lat="48.7168" lon="2.48956">
        <ele>123.036</ele>
        <time>2018-10-14T14:00:43Z</time>
      </trkpt>
      <trkpt lat="48.71678" lon="2.48963">
        <ele>122.867</ele>
        <time>2018-10-14T14:00:46Z</time>
      </trkpt>
      <trkpt lat="48.71678" lon="2.48971">
        <ele>122.597</ele>
        <time>2018-10-14T14:00:51Z</time>
      </trkpt>
      <trkpt lat="48.71676" lon="2.48978">
        <ele>122.392</ele>
        <time>2018-10-14T14:00:55Z</time>
      </trkpt>
      <trkpt lat="48.71675" lon="2.48985">
        <ele>122.197</ele>
        <time>2018-10-14T14:00:59Z</time>
      </trkpt>
      <trkpt lat="48.71675" lon="2.48989">
        <ele>122.056</ele>
        <time>2018-10-14T14:01:02Z</time>
      </trkpt>
      <trkpt lat="48.71674" lon="2.48997">
        <ele>121.874</ele>
        <time>2018-10-14T14:01:06Z</time>
      </trkpt>
      <trkpt lat="48.71672" lon="2.49003">
        <ele>121.655</ele>
        <time>2018-10-14T14:01:11Z</time>
      </trkpt>
      <trkpt lat="48.7167" lon="2.49009">
        <ele>121.531</ele>
        <time>2018-10-14T14:01:14Z</time>
      </trkpt>
      <trkpt lat="48.71668" lon="2.49012">
        <ele>121.45</ele>
        <time>2018-10-14T14:01:16Z</time>
      </trkpt>
      <trkpt lat="48.71668" lon="2.49019">
        <ele>121.294</ele>
        <time>2018-10-14T14:01:20Z</time>
      </trkpt>
      <trkpt lat="48.71668" lon="2.49023">
        <ele>121.219</ele>
        <time>2018-10-14T14:01:22Z</time>
      </trkpt>
      <trkpt lat="48.71666" lon="2.4903">
        <ele>121.001</ele>
        <time>2018-10-14T14:01:28Z</time>
      </trkpt>
      <trkpt lat="48.71663" lon="2.49036">
        <ele>120.888</ele>
        <time>2018-10-14T14:01:31Z</time>
      </trkpt>
      <trkpt lat="48.71661" lon="2.49043">
        <ele>120.774</ele>
        <time>2018-10-14T14:01:34Z</time>
      </trkpt>
      <trkpt lat="48.71658" lon="2.49049">
        <ele>120.66</ele>
        <time>2018-10-14T14:01:37Z</time>
      </trkpt>
      <trkpt lat="48.71656" lon="2.49056">
        <ele>120.545</ele>
        <time>2018-10-14T14:01:40Z</time>
      </trkpt>
      <trkpt lat="48.71655" lon="2.49062">
        <ele>120.428</ele>
        <time>2018-10-14T14:01:43Z</time>
      </trkpt>
      <trkpt lat="48.71652" lon="2.49068">
        <ele>120.269</ele>
        <time>2018-10-14T14:01:47Z</time>
      </trkpt>
      <trkpt lat="48.71651" lon="2.49071">
        <ele>120.186</ele>
        <time>2018-10-14T14:01:49Z</time>
      </trkpt>
      <trkpt lat="48.7165" lon="2.49075">
        <ele>120.013</ele>
        <time>2018-10-14T14:01:53Z</time>
      </trkpt>
      <trkpt lat="48.71648" lon="2.49078">
        <ele>119.747</ele>
        <time>2018-10-14T14:01:59Z</time>
      </trkpt>
      <trkpt lat="48.71645" lon="2.49097">
        <ele>119.453</ele>
        <time>2018-10-14T14:02:06Z</time>
      </trkpt>
      <trkpt lat="48.71642" lon="2.49104">
        <ele>119.376</ele>
        <time>2018-10-14T14:02:08Z</time>
      </trkpt>
      <trkpt lat="48.71638" lon="2.49107">
        <ele>119.229</ele>
        <time>2018-10-14T14:02:12Z</time>
      </trkpt>
      <trkpt lat="48.71633" lon="2.49108">
        <ele>119.086</ele>
        <time>2018-10-14T14:02:16Z</time>
      </trkpt>
      <trkpt lat="48.71629" lon="2.49103">
        <ele>118.9</ele>
        <time>2018-10-14T14:02:22Z</time>
      </trkpt>
      <trkpt lat="48.71625" lon="2.49097">
        <ele>118.7</ele>
        <time>2018-10-14T14:02:27Z</time>
      </trkpt>
      <trkpt lat="48.71621" lon="2.49093">
        <ele>118.526</ele>
        <time>2018-10-14T14:02:31Z</time>
      </trkpt>
      <trkpt lat="48.71618" lon="2.49087">
        <ele>118.252</ele>
        <time>2018-10-14T14:02:37Z</time>
      </trkpt>
      <trkpt lat="48.71616" lon="2.49084">
        <ele>118.157</ele>
        <time>2018-10-14T14:02:39Z</time>
      </trkpt>
      <trkpt lat="48.71615" lon="2.49081">
        <ele>118.057</ele>
        <time>2018-10-14T14:02:41Z</time>
      </trkpt>
      <trkpt lat="48.71612" lon="2.49078">
        <ele>117.839</ele>
        <time>2018-10-14T14:02:45Z</time>
      </trkpt>
      <trkpt lat="48.71614" lon="2.49071">
        <ele>117.465</ele>
        <time>2018-10-14T14:02:51Z</time>
      </trkpt>
      <trkpt lat="48.71608" lon="2.49063">
        <ele>116.858</ele>
        <time>2018-10-14T14:03:01Z</time>
      </trkpt>
      <trkpt lat="48.71602" lon="2.49065">
        <ele>116.743</ele>
        <time>2018-10-14T14:03:03Z</time>
      </trkpt>
      <trkpt lat="48.71596" lon="2.49064">
        <ele>116.631</ele>
        <time>2018-10-14T14:03:05Z</time>
      </trkpt>
      <trkpt lat="48.71591" lon="2.49064">
        <ele>116.523</ele>
        <time>2018-10-14T14:03:07Z</time>
      </trkpt>
      <trkpt lat="48.71587" lon="2.4906">
        <ele>116.32</ele>
        <time>2018-10-14T14:03:11Z</time>
      </trkpt>
      <trkpt lat="48.71583" lon="2.49055">
        <ele>116.081</ele>
        <time>2018-10-14T14:03:16Z</time>
      </trkpt>
      <trkpt lat="48.71578" lon="2.49051">
        <ele>115.899</ele>
        <time>2018-10-14T14:03:20Z</time>
      </trkpt>
      <trkpt lat="48.71576" lon="2.49049">
        <ele>115.811</ele>
        <time>2018-10-14T14:03:22Z</time>
      </trkpt>
      <trkpt lat="48.71572" lon="2.49043">
        <ele>115.6</ele>
        <time>2018-10-14T14:03:27Z</time>
      </trkpt>
      <trkpt lat="48.71567" lon="2.49038">
        <ele>115.472</ele>
        <time>2018-10-14T14:03:30Z</time>
      </trkpt>
      <trkpt lat="48.71562" lon="2.49035">
        <ele>115.343</ele>
        <time>2018-10-14T14:03:33Z</time>
      </trkpt>
      <trkpt lat="48.71559" lon="2.49032">
        <ele>115.258</ele>
        <time>2018-10-14T14:03:35Z</time>
      </trkpt>
      <trkpt lat="48.71556" lon="2.4903">
        <ele>115.131</ele>
        <time>2018-10-14T14:03:38Z</time>
      </trkpt>
      <trkpt lat="48.71553" lon="2.49024">
        <ele>114.803</ele>
        <time>2018-10-14T14:03:46Z</time>
      </trkpt>
      <trkpt lat="48.71548" lon="2.4902">
        <ele>114.64</ele>
        <time>2018-10-14T14:03:50Z</time>
      </trkpt>
      <trkpt lat="48.71545" lon="2.49018">
        <ele>114.557</ele>
        <time>2018-10-14T14:03:52Z</time>
      </trkpt>
      <trkpt lat="48.71541" lon="2.49012">
        <ele>114.429</ele>
        <time>2018-10-14T14:03:55Z</time>
      </trkpt>
      <trkpt lat="48.71538" lon="2.49005">
        <ele>114.189</ele>
        <time>2018-10-14T14:04:00Z</time>
      </trkpt>
      <trkpt lat="48.71535" lon="2.49">
        <ele>113.985</ele>
        <time>2018-10-14T14:04:04Z</time>
      </trkpt>
      <trkpt lat="48.71529" lon="2.48999">
        <ele>113.785</ele>
        <time>2018-10-14T14:04:08Z</time>
      </trkpt>
      <trkpt lat="48.71524" lon="2.48999">
        <ele>113.536</ele>
        <time>2018-10-14T14:04:13Z</time>
      </trkpt>
      <trkpt lat="48.7152" lon="2.48998">
        <ele>113.3</ele>
        <time>2018-10-14T14:04:18Z</time>
      </trkpt>
      <trkpt lat="48.71515" lon="2.48997">
        <ele>113.166</ele>
        <time>2018-10-14T14:04:21Z</time>
      </trkpt>
      <trkpt lat="48.71509" lon="2.48994">
        <ele>113.034</ele>
        <time>2018-10-14T14:04:24Z</time>
      </trkpt>
      <trkpt lat="48.71505" lon="2.48989">
        <ele>112.863</ele>
        <time>2018-10-14T14:04:28Z</time>
      </trkpt>
      <trkpt lat="48.71502" lon="2.48982">
        <ele>112.731</ele>
        <time>2018-10-14T14:04:31Z</time>
      </trkpt>
      <trkpt lat="48.715" lon="2.48974">
        <ele>112.54</ele>
        <time>2018-10-14T14:04:35Z</time>
      </trkpt>
      <trkpt lat="48.71498" lon="2.4897">
        <ele>112.394</ele>
        <time>2018-10-14T14:04:38Z</time>
      </trkpt>
      <trkpt lat="48.71497" lon="2.48963">
        <ele>112.192</ele>
        <time>2018-10-14T14:04:42Z</time>
      </trkpt>
      <trkpt lat="48.71497" lon="2.48955">
        <ele>111.871</ele>
        <time>2018-10-14T14:04:48Z</time>
      </trkpt>
      <trkpt lat="48.71497" lon="2.48955">
        <ele>39.8</ele>
        <time>2018-10-14T14:04:56Z</time>
      </trkpt>
      <trkpt lat="48.71497" lon="2.48955">
        <ele>39.8</ele>
        <time>2018-10-14T14:04:58Z</time>
      </trkpt>
    </trkseg>
  </trk>
</gpx>